<?xml version="1.0" encoding="UTF-8" standalone="no" ?>
<gpx xmlns="http://www.topografix.com/GPX/1/1" xmlns:xsi="http://www.w3.org/2001/XMLSchema-instance" xsi:schemaLocation="http://www.topografix.com/GPX/1/1 http://www.topografix.com/GPX/1/1/gpx.xsd" version="1.1" creator="VisuGPX - https://www.visugpx.com">
  <metadata>
    <name>Boucle SJV Cournonsec 30K</name>
    <desc><![CDATA[Balade très sympa sur la plaine Ouest de Montpellier. Quelques sections non revêtues ==> Gravel.
Pas méchant. On est passé ave des pneus de 28.
Jolies capitelles sur le secteur Cournonsec/Montbazin.]]></desc>
  </metadata>
  <trk>
    <name><![CDATA[Boucle SJV Cournonsec 30K_1]]></name>
    <trkseg>
      <trkpt lat="43.56842" lon="3.82846">
        <ele>46.4</ele>
        <time>2021-04-13T07:17:55Z</time>
      </trkpt>
      <trkpt lat="43.56843" lon="3.82841">
        <ele>46.4</ele>
        <time>2021-04-13T07:17:56Z</time>
      </trkpt>
      <trkpt lat="43.56844" lon="3.82835">
        <ele>46.4</ele>
        <time>2021-04-13T07:17:57Z</time>
      </trkpt>
      <trkpt lat="43.56846" lon="3.82829">
        <ele>46.4</ele>
        <time>2021-04-13T07:17:58Z</time>
      </trkpt>
      <trkpt lat="43.56847" lon="3.82824">
        <ele>46.2</ele>
        <time>2021-04-13T07:17:59Z</time>
      </trkpt>
      <trkpt lat="43.56849" lon="3.82818">
        <ele>46</ele>
        <time>2021-04-13T07:18:00Z</time>
      </trkpt>
      <trkpt lat="43.5685" lon="3.82812">
        <ele>46</ele>
        <time>2021-04-13T07:18:01Z</time>
      </trkpt>
      <trkpt lat="43.56852" lon="3.82806">
        <ele>45.8</ele>
        <time>2021-04-13T07:18:02Z</time>
      </trkpt>
      <trkpt lat="43.56854" lon="3.828">
        <ele>45.6</ele>
        <time>2021-04-13T07:18:03Z</time>
      </trkpt>
      <trkpt lat="43.56856" lon="3.82795">
        <ele>45.6</ele>
        <time>2021-04-13T07:18:04Z</time>
      </trkpt>
      <trkpt lat="43.56859" lon="3.8279">
        <ele>45.6</ele>
        <time>2021-04-13T07:18:05Z</time>
      </trkpt>
      <trkpt lat="43.56862" lon="3.82785">
        <ele>45.6</ele>
        <time>2021-04-13T07:18:06Z</time>
      </trkpt>
      <trkpt lat="43.56865" lon="3.8278">
        <ele>45.6</ele>
        <time>2021-04-13T07:18:07Z</time>
      </trkpt>
      <trkpt lat="43.56867" lon="3.82775">
        <ele>45.8</ele>
        <time>2021-04-13T07:18:08Z</time>
      </trkpt>
      <trkpt lat="43.5687" lon="3.82769">
        <ele>45.8</ele>
        <time>2021-04-13T07:18:09Z</time>
      </trkpt>
      <trkpt lat="43.56872" lon="3.82764">
        <ele>45.8</ele>
        <time>2021-04-13T07:18:10Z</time>
      </trkpt>
      <trkpt lat="43.56875" lon="3.82759">
        <ele>46</ele>
        <time>2021-04-13T07:18:11Z</time>
      </trkpt>
      <trkpt lat="43.56877" lon="3.82755">
        <ele>45.8</ele>
        <time>2021-04-13T07:18:12Z</time>
      </trkpt>
      <trkpt lat="43.5688" lon="3.8275">
        <ele>45.8</ele>
        <time>2021-04-13T07:18:13Z</time>
      </trkpt>
      <trkpt lat="43.56882" lon="3.82745">
        <ele>45.8</ele>
        <time>2021-04-13T07:18:14Z</time>
      </trkpt>
      <trkpt lat="43.56885" lon="3.8274">
        <ele>45.6</ele>
        <time>2021-04-13T07:18:15Z</time>
      </trkpt>
      <trkpt lat="43.56888" lon="3.82735">
        <ele>45.4</ele>
        <time>2021-04-13T07:18:16Z</time>
      </trkpt>
      <trkpt lat="43.56891" lon="3.82729">
        <ele>45.2</ele>
        <time>2021-04-13T07:18:17Z</time>
      </trkpt>
      <trkpt lat="43.56894" lon="3.82724">
        <ele>45</ele>
        <time>2021-04-13T07:18:18Z</time>
      </trkpt>
      <trkpt lat="43.56897" lon="3.82718">
        <ele>45</ele>
        <time>2021-04-13T07:18:19Z</time>
      </trkpt>
      <trkpt lat="43.569" lon="3.82713">
        <ele>45</ele>
        <time>2021-04-13T07:18:20Z</time>
      </trkpt>
      <trkpt lat="43.56903" lon="3.82707">
        <ele>45</ele>
        <time>2021-04-13T07:18:21Z</time>
      </trkpt>
      <trkpt lat="43.56906" lon="3.82702">
        <ele>45.2</ele>
        <time>2021-04-13T07:18:22Z</time>
      </trkpt>
      <trkpt lat="43.56908" lon="3.82697">
        <ele>45.2</ele>
        <time>2021-04-13T07:18:23Z</time>
      </trkpt>
      <trkpt lat="43.56911" lon="3.82692">
        <ele>45.2</ele>
        <time>2021-04-13T07:18:24Z</time>
      </trkpt>
      <trkpt lat="43.56914" lon="3.82687">
        <ele>45.2</ele>
        <time>2021-04-13T07:18:25Z</time>
      </trkpt>
      <trkpt lat="43.56917" lon="3.82682">
        <ele>45.2</ele>
        <time>2021-04-13T07:18:26Z</time>
      </trkpt>
      <trkpt lat="43.5692" lon="3.82677">
        <ele>45.4</ele>
        <time>2021-04-13T07:18:27Z</time>
      </trkpt>
      <trkpt lat="43.56922" lon="3.82673">
        <ele>45.6</ele>
        <time>2021-04-13T07:18:28Z</time>
      </trkpt>
      <trkpt lat="43.56924" lon="3.82669">
        <ele>46</ele>
        <time>2021-04-13T07:18:29Z</time>
      </trkpt>
      <trkpt lat="43.56926" lon="3.82665">
        <ele>46</ele>
        <time>2021-04-13T07:18:30Z</time>
      </trkpt>
      <trkpt lat="43.56928" lon="3.8266">
        <ele>46.2</ele>
        <time>2021-04-13T07:18:31Z</time>
      </trkpt>
      <trkpt lat="43.56929" lon="3.82656">
        <ele>46.4</ele>
        <time>2021-04-13T07:18:32Z</time>
      </trkpt>
      <trkpt lat="43.56929" lon="3.82651">
        <ele>46.4</ele>
        <time>2021-04-13T07:18:33Z</time>
      </trkpt>
      <trkpt lat="43.56928" lon="3.82647">
        <ele>46.4</ele>
        <time>2021-04-13T07:18:34Z</time>
      </trkpt>
      <trkpt lat="43.56926" lon="3.82643">
        <ele>46.4</ele>
        <time>2021-04-13T07:18:35Z</time>
      </trkpt>
      <trkpt lat="43.56923" lon="3.82641">
        <ele>46.4</ele>
        <time>2021-04-13T07:18:36Z</time>
      </trkpt>
      <trkpt lat="43.5692" lon="3.82638">
        <ele>46.4</ele>
        <time>2021-04-13T07:18:37Z</time>
      </trkpt>
      <trkpt lat="43.56917" lon="3.82636">
        <ele>46.4</ele>
        <time>2021-04-13T07:18:38Z</time>
      </trkpt>
      <trkpt lat="43.56914" lon="3.82633">
        <ele>46.6</ele>
        <time>2021-04-13T07:18:39Z</time>
      </trkpt>
      <trkpt lat="43.56911" lon="3.8263">
        <ele>46.6</ele>
        <time>2021-04-13T07:18:40Z</time>
      </trkpt>
      <trkpt lat="43.56908" lon="3.82627">
        <ele>46.8</ele>
        <time>2021-04-13T07:18:41Z</time>
      </trkpt>
      <trkpt lat="43.56906" lon="3.82624">
        <ele>47</ele>
        <time>2021-04-13T07:18:42Z</time>
      </trkpt>
      <trkpt lat="43.56903" lon="3.82622">
        <ele>47</ele>
        <time>2021-04-13T07:18:43Z</time>
      </trkpt>
      <trkpt lat="43.56899" lon="3.8262">
        <ele>47</ele>
        <time>2021-04-13T07:18:44Z</time>
      </trkpt>
      <trkpt lat="43.56896" lon="3.82618">
        <ele>47</ele>
        <time>2021-04-13T07:18:45Z</time>
      </trkpt>
      <trkpt lat="43.56893" lon="3.82616">
        <ele>46.8</ele>
        <time>2021-04-13T07:18:46Z</time>
      </trkpt>
      <trkpt lat="43.56889" lon="3.82614">
        <ele>46.8</ele>
        <time>2021-04-13T07:18:47Z</time>
      </trkpt>
      <trkpt lat="43.56886" lon="3.82612">
        <ele>47</ele>
        <time>2021-04-13T07:18:48Z</time>
      </trkpt>
      <trkpt lat="43.56883" lon="3.82611">
        <ele>47</ele>
        <time>2021-04-13T07:18:49Z</time>
      </trkpt>
      <trkpt lat="43.56879" lon="3.82609">
        <ele>47</ele>
        <time>2021-04-13T07:18:50Z</time>
      </trkpt>
      <trkpt lat="43.56876" lon="3.82606">
        <ele>47</ele>
        <time>2021-04-13T07:18:51Z</time>
      </trkpt>
      <trkpt lat="43.56873" lon="3.82603">
        <ele>46.8</ele>
        <time>2021-04-13T07:18:52Z</time>
      </trkpt>
      <trkpt lat="43.56869" lon="3.826">
        <ele>46.8</ele>
        <time>2021-04-13T07:18:53Z</time>
      </trkpt>
      <trkpt lat="43.56866" lon="3.82597">
        <ele>46.8</ele>
        <time>2021-04-13T07:18:54Z</time>
      </trkpt>
      <trkpt lat="43.56863" lon="3.82594">
        <ele>47</ele>
        <time>2021-04-13T07:18:55Z</time>
      </trkpt>
      <trkpt lat="43.56859" lon="3.8259">
        <ele>47</ele>
        <time>2021-04-13T07:18:56Z</time>
      </trkpt>
      <trkpt lat="43.56856" lon="3.82587">
        <ele>47</ele>
        <time>2021-04-13T07:18:57Z</time>
      </trkpt>
      <trkpt lat="43.56852" lon="3.82583">
        <ele>47</ele>
        <time>2021-04-13T07:18:58Z</time>
      </trkpt>
      <trkpt lat="43.56849" lon="3.82579">
        <ele>47</ele>
        <time>2021-04-13T07:18:59Z</time>
      </trkpt>
      <trkpt lat="43.56846" lon="3.82575">
        <ele>47</ele>
        <time>2021-04-13T07:19:00Z</time>
      </trkpt>
      <trkpt lat="43.56844" lon="3.8257">
        <ele>46.8</ele>
        <time>2021-04-13T07:19:01Z</time>
      </trkpt>
      <trkpt lat="43.56843" lon="3.82564">
        <ele>46.8</ele>
        <time>2021-04-13T07:19:02Z</time>
      </trkpt>
      <trkpt lat="43.56844" lon="3.82559">
        <ele>47</ele>
        <time>2021-04-13T07:19:03Z</time>
      </trkpt>
      <trkpt lat="43.56846" lon="3.82554">
        <ele>47.2</ele>
        <time>2021-04-13T07:19:04Z</time>
      </trkpt>
      <trkpt lat="43.56848" lon="3.82549">
        <ele>47.2</ele>
        <time>2021-04-13T07:19:05Z</time>
      </trkpt>
      <trkpt lat="43.5685" lon="3.82544">
        <ele>47.4</ele>
        <time>2021-04-13T07:19:06Z</time>
      </trkpt>
      <trkpt lat="43.56852" lon="3.8254">
        <ele>47.2</ele>
        <time>2021-04-13T07:19:07Z</time>
      </trkpt>
      <trkpt lat="43.56853" lon="3.82535">
        <ele>47.2</ele>
        <time>2021-04-13T07:19:08Z</time>
      </trkpt>
      <trkpt lat="43.56855" lon="3.8253">
        <ele>47.4</ele>
        <time>2021-04-13T07:19:09Z</time>
      </trkpt>
      <trkpt lat="43.56857" lon="3.82525">
        <ele>47.6</ele>
        <time>2021-04-13T07:19:10Z</time>
      </trkpt>
      <trkpt lat="43.56859" lon="3.82519">
        <ele>47.6</ele>
        <time>2021-04-13T07:19:11Z</time>
      </trkpt>
      <trkpt lat="43.56861" lon="3.82514">
        <ele>47.4</ele>
        <time>2021-04-13T07:19:12Z</time>
      </trkpt>
      <trkpt lat="43.56863" lon="3.82508">
        <ele>47.4</ele>
        <time>2021-04-13T07:19:13Z</time>
      </trkpt>
      <trkpt lat="43.56865" lon="3.82503">
        <ele>47.8</ele>
        <time>2021-04-13T07:19:14Z</time>
      </trkpt>
      <trkpt lat="43.56867" lon="3.82498">
        <ele>47.6</ele>
        <time>2021-04-13T07:19:15Z</time>
      </trkpt>
      <trkpt lat="43.56869" lon="3.82492">
        <ele>47.6</ele>
        <time>2021-04-13T07:19:16Z</time>
      </trkpt>
      <trkpt lat="43.56871" lon="3.82487">
        <ele>47.6</ele>
        <time>2021-04-13T07:19:17Z</time>
      </trkpt>
      <trkpt lat="43.56874" lon="3.82481">
        <ele>47.6</ele>
        <time>2021-04-13T07:19:18Z</time>
      </trkpt>
      <trkpt lat="43.56876" lon="3.82476">
        <ele>47.6</ele>
        <time>2021-04-13T07:19:19Z</time>
      </trkpt>
      <trkpt lat="43.56878" lon="3.8247">
        <ele>47.4</ele>
        <time>2021-04-13T07:19:20Z</time>
      </trkpt>
      <trkpt lat="43.5688" lon="3.82465">
        <ele>47.6</ele>
        <time>2021-04-13T07:19:21Z</time>
      </trkpt>
      <trkpt lat="43.56882" lon="3.82459">
        <ele>47.4</ele>
        <time>2021-04-13T07:19:22Z</time>
      </trkpt>
      <trkpt lat="43.56884" lon="3.82454">
        <ele>47.6</ele>
        <time>2021-04-13T07:19:23Z</time>
      </trkpt>
      <trkpt lat="43.56886" lon="3.82448">
        <ele>47.6</ele>
        <time>2021-04-13T07:19:24Z</time>
      </trkpt>
      <trkpt lat="43.56888" lon="3.82442">
        <ele>47.6</ele>
        <time>2021-04-13T07:19:25Z</time>
      </trkpt>
      <trkpt lat="43.56889" lon="3.82436">
        <ele>47.6</ele>
        <time>2021-04-13T07:19:26Z</time>
      </trkpt>
      <trkpt lat="43.56891" lon="3.82431">
        <ele>47.8</ele>
        <time>2021-04-13T07:19:27Z</time>
      </trkpt>
      <trkpt lat="43.56893" lon="3.82426">
        <ele>48</ele>
        <time>2021-04-13T07:19:28Z</time>
      </trkpt>
      <trkpt lat="43.56894" lon="3.82421">
        <ele>47.8</ele>
        <time>2021-04-13T07:19:29Z</time>
      </trkpt>
      <trkpt lat="43.56895" lon="3.82416">
        <ele>47.8</ele>
        <time>2021-04-13T07:19:30Z</time>
      </trkpt>
      <trkpt lat="43.56896" lon="3.82411">
        <ele>48</ele>
        <time>2021-04-13T07:19:31Z</time>
      </trkpt>
      <trkpt lat="43.56897" lon="3.82407">
        <ele>47.8</ele>
        <time>2021-04-13T07:19:32Z</time>
      </trkpt>
      <trkpt lat="43.56897" lon="3.82402">
        <ele>47.8</ele>
        <time>2021-04-13T07:19:33Z</time>
      </trkpt>
      <trkpt lat="43.56895" lon="3.82397">
        <ele>47.6</ele>
        <time>2021-04-13T07:19:34Z</time>
      </trkpt>
      <trkpt lat="43.56893" lon="3.82394">
        <ele>47.6</ele>
        <time>2021-04-13T07:19:35Z</time>
      </trkpt>
      <trkpt lat="43.5689" lon="3.82391">
        <ele>47.6</ele>
        <time>2021-04-13T07:19:36Z</time>
      </trkpt>
      <trkpt lat="43.56887" lon="3.82388">
        <ele>47.8</ele>
        <time>2021-04-13T07:19:37Z</time>
      </trkpt>
      <trkpt lat="43.56884" lon="3.82385">
        <ele>47.6</ele>
        <time>2021-04-13T07:19:38Z</time>
      </trkpt>
      <trkpt lat="43.56881" lon="3.82381">
        <ele>47.6</ele>
        <time>2021-04-13T07:19:39Z</time>
      </trkpt>
      <trkpt lat="43.5688" lon="3.82376">
        <ele>47.6</ele>
        <time>2021-04-13T07:19:40Z</time>
      </trkpt>
      <trkpt lat="43.56879" lon="3.82371">
        <ele>47.8</ele>
        <time>2021-04-13T07:19:41Z</time>
      </trkpt>
      <trkpt lat="43.5688" lon="3.82365">
        <ele>47.6</ele>
        <time>2021-04-13T07:19:42Z</time>
      </trkpt>
      <trkpt lat="43.56881" lon="3.82358">
        <ele>47.4</ele>
        <time>2021-04-13T07:19:43Z</time>
      </trkpt>
      <trkpt lat="43.56882" lon="3.82352">
        <ele>47.4</ele>
        <time>2021-04-13T07:19:44Z</time>
      </trkpt>
      <trkpt lat="43.56883" lon="3.82346">
        <ele>47.4</ele>
        <time>2021-04-13T07:19:45Z</time>
      </trkpt>
      <trkpt lat="43.56885" lon="3.82339">
        <ele>47.4</ele>
        <time>2021-04-13T07:19:46Z</time>
      </trkpt>
      <trkpt lat="43.56886" lon="3.82333">
        <ele>47.4</ele>
        <time>2021-04-13T07:19:47Z</time>
      </trkpt>
      <trkpt lat="43.56887" lon="3.82326">
        <ele>47.2</ele>
        <time>2021-04-13T07:19:48Z</time>
      </trkpt>
      <trkpt lat="43.56887" lon="3.82319">
        <ele>47</ele>
        <time>2021-04-13T07:19:49Z</time>
      </trkpt>
      <trkpt lat="43.56888" lon="3.82312">
        <ele>47</ele>
        <time>2021-04-13T07:19:50Z</time>
      </trkpt>
      <trkpt lat="43.56889" lon="3.82305">
        <ele>47</ele>
        <time>2021-04-13T07:19:51Z</time>
      </trkpt>
      <trkpt lat="43.5689" lon="3.82298">
        <ele>47.2</ele>
        <time>2021-04-13T07:19:52Z</time>
      </trkpt>
      <trkpt lat="43.56891" lon="3.82291">
        <ele>47.4</ele>
        <time>2021-04-13T07:19:53Z</time>
      </trkpt>
      <trkpt lat="43.56891" lon="3.82285">
        <ele>47.2</ele>
        <time>2021-04-13T07:19:54Z</time>
      </trkpt>
      <trkpt lat="43.56892" lon="3.82278">
        <ele>47</ele>
        <time>2021-04-13T07:19:55Z</time>
      </trkpt>
      <trkpt lat="43.56893" lon="3.82272">
        <ele>46.8</ele>
        <time>2021-04-13T07:19:56Z</time>
      </trkpt>
      <trkpt lat="43.56893" lon="3.82266">
        <ele>46.8</ele>
        <time>2021-04-13T07:19:57Z</time>
      </trkpt>
      <trkpt lat="43.56894" lon="3.82259">
        <ele>46.8</ele>
        <time>2021-04-13T07:19:58Z</time>
      </trkpt>
      <trkpt lat="43.56894" lon="3.82253">
        <ele>46.8</ele>
        <time>2021-04-13T07:19:59Z</time>
      </trkpt>
      <trkpt lat="43.56895" lon="3.82246">
        <ele>46.6</ele>
        <time>2021-04-13T07:20:00Z</time>
      </trkpt>
      <trkpt lat="43.56896" lon="3.82239">
        <ele>46.6</ele>
        <time>2021-04-13T07:20:01Z</time>
      </trkpt>
      <trkpt lat="43.56897" lon="3.82232">
        <ele>46.6</ele>
        <time>2021-04-13T07:20:02Z</time>
      </trkpt>
      <trkpt lat="43.56898" lon="3.82226">
        <ele>46.4</ele>
        <time>2021-04-13T07:20:03Z</time>
      </trkpt>
      <trkpt lat="43.569" lon="3.82219">
        <ele>46.2</ele>
        <time>2021-04-13T07:20:04Z</time>
      </trkpt>
      <trkpt lat="43.56902" lon="3.82212">
        <ele>46</ele>
        <time>2021-04-13T07:20:05Z</time>
      </trkpt>
      <trkpt lat="43.56904" lon="3.82205">
        <ele>46</ele>
        <time>2021-04-13T07:20:06Z</time>
      </trkpt>
      <trkpt lat="43.56906" lon="3.82198">
        <ele>45.8</ele>
        <time>2021-04-13T07:20:07Z</time>
      </trkpt>
      <trkpt lat="43.56909" lon="3.82192">
        <ele>45.8</ele>
        <time>2021-04-13T07:20:08Z</time>
      </trkpt>
      <trkpt lat="43.56911" lon="3.82185">
        <ele>45.6</ele>
        <time>2021-04-13T07:20:09Z</time>
      </trkpt>
      <trkpt lat="43.56914" lon="3.82178">
        <ele>45.4</ele>
        <time>2021-04-13T07:20:10Z</time>
      </trkpt>
      <trkpt lat="43.56916" lon="3.82172">
        <ele>45.2</ele>
        <time>2021-04-13T07:20:11Z</time>
      </trkpt>
      <trkpt lat="43.56919" lon="3.82165">
        <ele>45.2</ele>
        <time>2021-04-13T07:20:12Z</time>
      </trkpt>
      <trkpt lat="43.56922" lon="3.82158">
        <ele>45</ele>
        <time>2021-04-13T07:20:13Z</time>
      </trkpt>
      <trkpt lat="43.56924" lon="3.82152">
        <ele>45</ele>
        <time>2021-04-13T07:20:14Z</time>
      </trkpt>
      <trkpt lat="43.56927" lon="3.82145">
        <ele>45</ele>
        <time>2021-04-13T07:20:15Z</time>
      </trkpt>
      <trkpt lat="43.56929" lon="3.82138">
        <ele>44.8</ele>
        <time>2021-04-13T07:20:16Z</time>
      </trkpt>
      <trkpt lat="43.5693" lon="3.82131">
        <ele>44.8</ele>
        <time>2021-04-13T07:20:17Z</time>
      </trkpt>
      <trkpt lat="43.56931" lon="3.82124">
        <ele>44.8</ele>
        <time>2021-04-13T07:20:18Z</time>
      </trkpt>
      <trkpt lat="43.56932" lon="3.82117">
        <ele>44.8</ele>
        <time>2021-04-13T07:20:19Z</time>
      </trkpt>
      <trkpt lat="43.56933" lon="3.82109">
        <ele>44.8</ele>
        <time>2021-04-13T07:20:20Z</time>
      </trkpt>
      <trkpt lat="43.56933" lon="3.82103">
        <ele>44.8</ele>
        <time>2021-04-13T07:20:21Z</time>
      </trkpt>
      <trkpt lat="43.56932" lon="3.82096">
        <ele>44.8</ele>
        <time>2021-04-13T07:20:22Z</time>
      </trkpt>
      <trkpt lat="43.56931" lon="3.82089">
        <ele>44.6</ele>
        <time>2021-04-13T07:20:23Z</time>
      </trkpt>
      <trkpt lat="43.56931" lon="3.82082">
        <ele>44.6</ele>
        <time>2021-04-13T07:20:24Z</time>
      </trkpt>
      <trkpt lat="43.56929" lon="3.82075">
        <ele>44.6</ele>
        <time>2021-04-13T07:20:25Z</time>
      </trkpt>
      <trkpt lat="43.56928" lon="3.82069">
        <ele>44.6</ele>
        <time>2021-04-13T07:20:26Z</time>
      </trkpt>
      <trkpt lat="43.56927" lon="3.82062">
        <ele>44.6</ele>
        <time>2021-04-13T07:20:27Z</time>
      </trkpt>
      <trkpt lat="43.56926" lon="3.82055">
        <ele>44.8</ele>
        <time>2021-04-13T07:20:28Z</time>
      </trkpt>
      <trkpt lat="43.56925" lon="3.82048">
        <ele>44.8</ele>
        <time>2021-04-13T07:20:29Z</time>
      </trkpt>
      <trkpt lat="43.56923" lon="3.82042">
        <ele>44.6</ele>
        <time>2021-04-13T07:20:30Z</time>
      </trkpt>
      <trkpt lat="43.56922" lon="3.82035">
        <ele>44.4</ele>
        <time>2021-04-13T07:20:31Z</time>
      </trkpt>
      <trkpt lat="43.56921" lon="3.82028">
        <ele>44.4</ele>
        <time>2021-04-13T07:20:32Z</time>
      </trkpt>
      <trkpt lat="43.5692" lon="3.82021">
        <ele>44.2</ele>
        <time>2021-04-13T07:20:33Z</time>
      </trkpt>
      <trkpt lat="43.56919" lon="3.82014">
        <ele>44.2</ele>
        <time>2021-04-13T07:20:34Z</time>
      </trkpt>
      <trkpt lat="43.56917" lon="3.82006">
        <ele>44.2</ele>
        <time>2021-04-13T07:20:35Z</time>
      </trkpt>
      <trkpt lat="43.56916" lon="3.81999">
        <ele>43.8</ele>
        <time>2021-04-13T07:20:36Z</time>
      </trkpt>
      <trkpt lat="43.56915" lon="3.81992">
        <ele>43.4</ele>
        <time>2021-04-13T07:20:37Z</time>
      </trkpt>
      <trkpt lat="43.56914" lon="3.81985">
        <ele>43.2</ele>
        <time>2021-04-13T07:20:38Z</time>
      </trkpt>
      <trkpt lat="43.56912" lon="3.81977">
        <ele>43</ele>
        <time>2021-04-13T07:20:39Z</time>
      </trkpt>
      <trkpt lat="43.56911" lon="3.81969">
        <ele>42.8</ele>
        <time>2021-04-13T07:20:40Z</time>
      </trkpt>
      <trkpt lat="43.5691" lon="3.81962">
        <ele>42.8</ele>
        <time>2021-04-13T07:20:41Z</time>
      </trkpt>
      <trkpt lat="43.56909" lon="3.81954">
        <ele>42.6</ele>
        <time>2021-04-13T07:20:42Z</time>
      </trkpt>
      <trkpt lat="43.56907" lon="3.81947">
        <ele>42.4</ele>
        <time>2021-04-13T07:20:43Z</time>
      </trkpt>
      <trkpt lat="43.56906" lon="3.8194">
        <ele>42</ele>
        <time>2021-04-13T07:20:44Z</time>
      </trkpt>
      <trkpt lat="43.56905" lon="3.81932">
        <ele>41.8</ele>
        <time>2021-04-13T07:20:45Z</time>
      </trkpt>
      <trkpt lat="43.56903" lon="3.81924">
        <ele>41.6</ele>
        <time>2021-04-13T07:20:46Z</time>
      </trkpt>
      <trkpt lat="43.56902" lon="3.81916">
        <ele>41.4</ele>
        <time>2021-04-13T07:20:47Z</time>
      </trkpt>
      <trkpt lat="43.56901" lon="3.81909">
        <ele>41.2</ele>
        <time>2021-04-13T07:20:48Z</time>
      </trkpt>
      <trkpt lat="43.56899" lon="3.81901">
        <ele>41</ele>
        <time>2021-04-13T07:20:49Z</time>
      </trkpt>
      <trkpt lat="43.56898" lon="3.81893">
        <ele>40.8</ele>
        <time>2021-04-13T07:20:50Z</time>
      </trkpt>
      <trkpt lat="43.56897" lon="3.81885">
        <ele>40.8</ele>
        <time>2021-04-13T07:20:51Z</time>
      </trkpt>
      <trkpt lat="43.56896" lon="3.81876">
        <ele>40.6</ele>
        <time>2021-04-13T07:20:52Z</time>
      </trkpt>
      <trkpt lat="43.56895" lon="3.81868">
        <ele>40.2</ele>
        <time>2021-04-13T07:20:53Z</time>
      </trkpt>
      <trkpt lat="43.56895" lon="3.81859">
        <ele>40.2</ele>
        <time>2021-04-13T07:20:54Z</time>
      </trkpt>
      <trkpt lat="43.56895" lon="3.81851">
        <ele>40</ele>
        <time>2021-04-13T07:20:55Z</time>
      </trkpt>
      <trkpt lat="43.56896" lon="3.81842">
        <ele>39.4</ele>
        <time>2021-04-13T07:20:56Z</time>
      </trkpt>
      <trkpt lat="43.56897" lon="3.81833">
        <ele>39</ele>
        <time>2021-04-13T07:20:57Z</time>
      </trkpt>
      <trkpt lat="43.56899" lon="3.81824">
        <ele>38.6</ele>
        <time>2021-04-13T07:20:58Z</time>
      </trkpt>
      <trkpt lat="43.56901" lon="3.81815">
        <ele>38.4</ele>
        <time>2021-04-13T07:20:59Z</time>
      </trkpt>
      <trkpt lat="43.56904" lon="3.81807">
        <ele>38</ele>
        <time>2021-04-13T07:21:00Z</time>
      </trkpt>
      <trkpt lat="43.56906" lon="3.81798">
        <ele>38</ele>
        <time>2021-04-13T07:21:01Z</time>
      </trkpt>
      <trkpt lat="43.56908" lon="3.8179">
        <ele>38</ele>
        <time>2021-04-13T07:21:02Z</time>
      </trkpt>
      <trkpt lat="43.5691" lon="3.81783">
        <ele>37.8</ele>
        <time>2021-04-13T07:21:03Z</time>
      </trkpt>
      <trkpt lat="43.56911" lon="3.81775">
        <ele>37.6</ele>
        <time>2021-04-13T07:21:04Z</time>
      </trkpt>
      <trkpt lat="43.56913" lon="3.81767">
        <ele>37.6</ele>
        <time>2021-04-13T07:21:05Z</time>
      </trkpt>
      <trkpt lat="43.56915" lon="3.8176">
        <ele>37.4</ele>
        <time>2021-04-13T07:21:06Z</time>
      </trkpt>
      <trkpt lat="43.56917" lon="3.81752">
        <ele>37.2</ele>
        <time>2021-04-13T07:21:07Z</time>
      </trkpt>
      <trkpt lat="43.56918" lon="3.81743">
        <ele>36.8</ele>
        <time>2021-04-13T07:21:08Z</time>
      </trkpt>
      <trkpt lat="43.5692" lon="3.81735">
        <ele>36.6</ele>
        <time>2021-04-13T07:21:09Z</time>
      </trkpt>
      <trkpt lat="43.56922" lon="3.81726">
        <ele>36.4</ele>
        <time>2021-04-13T07:21:10Z</time>
      </trkpt>
      <trkpt lat="43.56924" lon="3.81718">
        <ele>36</ele>
        <time>2021-04-13T07:21:11Z</time>
      </trkpt>
      <trkpt lat="43.56926" lon="3.81709">
        <ele>35.6</ele>
        <time>2021-04-13T07:21:12Z</time>
      </trkpt>
      <trkpt lat="43.56928" lon="3.817">
        <ele>35.4</ele>
        <time>2021-04-13T07:21:13Z</time>
      </trkpt>
      <trkpt lat="43.5693" lon="3.81691">
        <ele>35</ele>
        <time>2021-04-13T07:21:14Z</time>
      </trkpt>
      <trkpt lat="43.56932" lon="3.81682">
        <ele>34.8</ele>
        <time>2021-04-13T07:21:15Z</time>
      </trkpt>
      <trkpt lat="43.56934" lon="3.81673">
        <ele>34.4</ele>
        <time>2021-04-13T07:21:16Z</time>
      </trkpt>
      <trkpt lat="43.56936" lon="3.81664">
        <ele>34</ele>
        <time>2021-04-13T07:21:17Z</time>
      </trkpt>
      <trkpt lat="43.56938" lon="3.81655">
        <ele>33.8</ele>
        <time>2021-04-13T07:21:18Z</time>
      </trkpt>
      <trkpt lat="43.56941" lon="3.81647">
        <ele>33.4</ele>
        <time>2021-04-13T07:21:19Z</time>
      </trkpt>
      <trkpt lat="43.56945" lon="3.81639">
        <ele>33.2</ele>
        <time>2021-04-13T07:21:20Z</time>
      </trkpt>
      <trkpt lat="43.5695" lon="3.81633">
        <ele>33.2</ele>
        <time>2021-04-13T07:21:21Z</time>
      </trkpt>
      <trkpt lat="43.56955" lon="3.81627">
        <ele>33.2</ele>
        <time>2021-04-13T07:21:22Z</time>
      </trkpt>
      <trkpt lat="43.5696" lon="3.81622">
        <ele>32.8</ele>
        <time>2021-04-13T07:21:23Z</time>
      </trkpt>
      <trkpt lat="43.56966" lon="3.81617">
        <ele>32.6</ele>
        <time>2021-04-13T07:21:24Z</time>
      </trkpt>
      <trkpt lat="43.5697" lon="3.81611">
        <ele>32.4</ele>
        <time>2021-04-13T07:21:25Z</time>
      </trkpt>
      <trkpt lat="43.56975" lon="3.81605">
        <ele>32.2</ele>
        <time>2021-04-13T07:21:26Z</time>
      </trkpt>
      <trkpt lat="43.56978" lon="3.81599">
        <ele>32</ele>
        <time>2021-04-13T07:21:27Z</time>
      </trkpt>
      <trkpt lat="43.56982" lon="3.81592">
        <ele>32</ele>
        <time>2021-04-13T07:21:28Z</time>
      </trkpt>
      <trkpt lat="43.56985" lon="3.81585">
        <ele>32</ele>
        <time>2021-04-13T07:21:29Z</time>
      </trkpt>
      <trkpt lat="43.56987" lon="3.81578">
        <ele>31.8</ele>
        <time>2021-04-13T07:21:30Z</time>
      </trkpt>
      <trkpt lat="43.5699" lon="3.81571">
        <ele>31.8</ele>
        <time>2021-04-13T07:21:31Z</time>
      </trkpt>
      <trkpt lat="43.56992" lon="3.81565">
        <ele>31.4</ele>
        <time>2021-04-13T07:21:32Z</time>
      </trkpt>
      <trkpt lat="43.56995" lon="3.81559">
        <ele>31.4</ele>
        <time>2021-04-13T07:21:33Z</time>
      </trkpt>
      <trkpt lat="43.56997" lon="3.81552">
        <ele>30.8</ele>
        <time>2021-04-13T07:21:34Z</time>
      </trkpt>
      <trkpt lat="43.57" lon="3.81545">
        <ele>30.6</ele>
        <time>2021-04-13T07:21:35Z</time>
      </trkpt>
      <trkpt lat="43.57002" lon="3.81538">
        <ele>31.2</ele>
        <time>2021-04-13T07:21:36Z</time>
      </trkpt>
      <trkpt lat="43.57004" lon="3.81532">
        <ele>31.8</ele>
        <time>2021-04-13T07:21:37Z</time>
      </trkpt>
      <trkpt lat="43.57007" lon="3.81525">
        <ele>30.8</ele>
        <time>2021-04-13T07:21:38Z</time>
      </trkpt>
      <trkpt lat="43.5701" lon="3.81519">
        <ele>29.4</ele>
        <time>2021-04-13T07:21:39Z</time>
      </trkpt>
      <trkpt lat="43.57012" lon="3.81512">
        <ele>28</ele>
        <time>2021-04-13T07:21:40Z</time>
      </trkpt>
      <trkpt lat="43.57015" lon="3.81505">
        <ele>28</ele>
        <time>2021-04-13T07:21:41Z</time>
      </trkpt>
      <trkpt lat="43.57019" lon="3.81498">
        <ele>29.8</ele>
        <time>2021-04-13T07:21:42Z</time>
      </trkpt>
      <trkpt lat="43.57022" lon="3.81491">
        <ele>29</ele>
        <time>2021-04-13T07:21:43Z</time>
      </trkpt>
      <trkpt lat="43.57024" lon="3.81483">
        <ele>27.6</ele>
        <time>2021-04-13T07:21:44Z</time>
      </trkpt>
      <trkpt lat="43.57027" lon="3.81476">
        <ele>27.4</ele>
        <time>2021-04-13T07:21:45Z</time>
      </trkpt>
      <trkpt lat="43.5703" lon="3.81468">
        <ele>28.6</ele>
        <time>2021-04-13T07:21:46Z</time>
      </trkpt>
      <trkpt lat="43.57032" lon="3.81461">
        <ele>28.6</ele>
        <time>2021-04-13T07:21:47Z</time>
      </trkpt>
      <trkpt lat="43.57034" lon="3.81455">
        <ele>29</ele>
        <time>2021-04-13T07:21:48Z</time>
      </trkpt>
      <trkpt lat="43.57037" lon="3.81448">
        <ele>27.4</ele>
        <time>2021-04-13T07:21:49Z</time>
      </trkpt>
      <trkpt lat="43.57039" lon="3.81442">
        <ele>25.8</ele>
        <time>2021-04-13T07:21:50Z</time>
      </trkpt>
      <trkpt lat="43.57042" lon="3.81436">
        <ele>27.2</ele>
        <time>2021-04-13T07:21:51Z</time>
      </trkpt>
      <trkpt lat="43.57044" lon="3.8143">
        <ele>27.2</ele>
        <time>2021-04-13T07:21:52Z</time>
      </trkpt>
      <trkpt lat="43.57047" lon="3.81424">
        <ele>27.2</ele>
        <time>2021-04-13T07:21:53Z</time>
      </trkpt>
      <trkpt lat="43.57049" lon="3.81418">
        <ele>26.2</ele>
        <time>2021-04-13T07:21:54Z</time>
      </trkpt>
      <trkpt lat="43.57052" lon="3.81412">
        <ele>25</ele>
        <time>2021-04-13T07:21:57Z</time>
      </trkpt>
      <trkpt lat="43.57059" lon="3.81395">
        <ele>23.2</ele>
        <time>2021-04-13T07:21:58Z</time>
      </trkpt>
      <trkpt lat="43.57059" lon="3.81389">
        <ele>24.4</ele>
        <time>2021-04-13T07:21:59Z</time>
      </trkpt>
      <trkpt lat="43.5706" lon="3.81382">
        <ele>24.4</ele>
        <time>2021-04-13T07:22:00Z</time>
      </trkpt>
      <trkpt lat="43.5706" lon="3.81382">
        <ele>23.2</ele>
        <time>2021-04-13T07:22:01Z</time>
      </trkpt>
      <trkpt lat="43.57062" lon="3.81367">
        <ele>22.4</ele>
        <time>2021-04-13T07:22:02Z</time>
      </trkpt>
      <trkpt lat="43.57065" lon="3.81361">
        <ele>21.6</ele>
        <time>2021-04-13T07:22:03Z</time>
      </trkpt>
      <trkpt lat="43.57069" lon="3.81355">
        <ele>21.2</ele>
        <time>2021-04-13T07:22:04Z</time>
      </trkpt>
      <trkpt lat="43.57073" lon="3.81349">
        <ele>20.8</ele>
        <time>2021-04-13T07:22:05Z</time>
      </trkpt>
      <trkpt lat="43.57077" lon="3.81344">
        <ele>20.4</ele>
        <time>2021-04-13T07:22:06Z</time>
      </trkpt>
      <trkpt lat="43.57081" lon="3.81341">
        <ele>20.4</ele>
        <time>2021-04-13T07:22:07Z</time>
      </trkpt>
      <trkpt lat="43.57086" lon="3.81337">
        <ele>20.4</ele>
        <time>2021-04-13T07:22:08Z</time>
      </trkpt>
      <trkpt lat="43.57091" lon="3.81332">
        <ele>20.4</ele>
        <time>2021-04-13T07:22:09Z</time>
      </trkpt>
      <trkpt lat="43.57096" lon="3.81329">
        <ele>20.6</ele>
        <time>2021-04-13T07:22:10Z</time>
      </trkpt>
      <trkpt lat="43.57101" lon="3.81326">
        <ele>20.8</ele>
        <time>2021-04-13T07:22:11Z</time>
      </trkpt>
      <trkpt lat="43.57105" lon="3.81324">
        <ele>21.2</ele>
        <time>2021-04-13T07:22:12Z</time>
      </trkpt>
      <trkpt lat="43.57108" lon="3.81323">
        <ele>21.6</ele>
        <time>2021-04-13T07:22:13Z</time>
      </trkpt>
      <trkpt lat="43.57111" lon="3.81321">
        <ele>21.6</ele>
        <time>2021-04-13T07:22:14Z</time>
      </trkpt>
      <trkpt lat="43.57114" lon="3.81321">
        <ele>21.8</ele>
        <time>2021-04-13T07:22:15Z</time>
      </trkpt>
      <trkpt lat="43.57117" lon="3.8132">
        <ele>21.8</ele>
        <time>2021-04-13T07:22:16Z</time>
      </trkpt>
      <trkpt lat="43.5712" lon="3.8132">
        <ele>21.8</ele>
        <time>2021-04-13T07:22:17Z</time>
      </trkpt>
      <trkpt lat="43.57124" lon="3.81319">
        <ele>22</ele>
        <time>2021-04-13T07:22:18Z</time>
      </trkpt>
      <trkpt lat="43.57127" lon="3.81316">
        <ele>21.8</ele>
        <time>2021-04-13T07:22:19Z</time>
      </trkpt>
      <trkpt lat="43.57129" lon="3.81311">
        <ele>21.6</ele>
        <time>2021-04-13T07:22:20Z</time>
      </trkpt>
      <trkpt lat="43.5713" lon="3.81305">
        <ele>21.4</ele>
        <time>2021-04-13T07:22:21Z</time>
      </trkpt>
      <trkpt lat="43.5713" lon="3.81298">
        <ele>20.8</ele>
        <time>2021-04-13T07:22:22Z</time>
      </trkpt>
      <trkpt lat="43.5713" lon="3.81289">
        <ele>20.2</ele>
        <time>2021-04-13T07:22:23Z</time>
      </trkpt>
      <trkpt lat="43.57129" lon="3.8128">
        <ele>19.6</ele>
        <time>2021-04-13T07:22:24Z</time>
      </trkpt>
      <trkpt lat="43.57128" lon="3.81272">
        <ele>19.4</ele>
        <time>2021-04-13T07:22:25Z</time>
      </trkpt>
      <trkpt lat="43.57128" lon="3.81264">
        <ele>19.2</ele>
        <time>2021-04-13T07:22:26Z</time>
      </trkpt>
      <trkpt lat="43.57128" lon="3.81257">
        <ele>19.2</ele>
        <time>2021-04-13T07:22:27Z</time>
      </trkpt>
      <trkpt lat="43.57128" lon="3.81251">
        <ele>19.2</ele>
        <time>2021-04-13T07:22:28Z</time>
      </trkpt>
      <trkpt lat="43.5713" lon="3.81246">
        <ele>19.2</ele>
        <time>2021-04-13T07:22:29Z</time>
      </trkpt>
      <trkpt lat="43.57132" lon="3.81242">
        <ele>19.2</ele>
        <time>2021-04-13T07:22:30Z</time>
      </trkpt>
      <trkpt lat="43.57135" lon="3.81239">
        <ele>19</ele>
        <time>2021-04-13T07:22:31Z</time>
      </trkpt>
      <trkpt lat="43.57138" lon="3.81235">
        <ele>19</ele>
        <time>2021-04-13T07:22:32Z</time>
      </trkpt>
      <trkpt lat="43.57142" lon="3.81231">
        <ele>19</ele>
        <time>2021-04-13T07:22:33Z</time>
      </trkpt>
      <trkpt lat="43.57147" lon="3.81227">
        <ele>19</ele>
        <time>2021-04-13T07:22:34Z</time>
      </trkpt>
      <trkpt lat="43.57152" lon="3.81223">
        <ele>19</ele>
        <time>2021-04-13T07:22:35Z</time>
      </trkpt>
      <trkpt lat="43.57157" lon="3.81219">
        <ele>19</ele>
        <time>2021-04-13T07:22:36Z</time>
      </trkpt>
      <trkpt lat="43.57162" lon="3.81215">
        <ele>19.2</ele>
        <time>2021-04-13T07:22:37Z</time>
      </trkpt>
      <trkpt lat="43.57167" lon="3.81211">
        <ele>19</ele>
        <time>2021-04-13T07:22:38Z</time>
      </trkpt>
      <trkpt lat="43.57172" lon="3.81207">
        <ele>19</ele>
        <time>2021-04-13T07:22:39Z</time>
      </trkpt>
      <trkpt lat="43.57177" lon="3.81204">
        <ele>19.2</ele>
        <time>2021-04-13T07:22:40Z</time>
      </trkpt>
      <trkpt lat="43.57182" lon="3.812">
        <ele>19</ele>
        <time>2021-04-13T07:22:41Z</time>
      </trkpt>
      <trkpt lat="43.57186" lon="3.81196">
        <ele>19</ele>
        <time>2021-04-13T07:22:42Z</time>
      </trkpt>
      <trkpt lat="43.57191" lon="3.81193">
        <ele>19</ele>
        <time>2021-04-13T07:22:43Z</time>
      </trkpt>
      <trkpt lat="43.57196" lon="3.81189">
        <ele>18.8</ele>
        <time>2021-04-13T07:22:44Z</time>
      </trkpt>
      <trkpt lat="43.57201" lon="3.81185">
        <ele>18.8</ele>
        <time>2021-04-13T07:22:45Z</time>
      </trkpt>
      <trkpt lat="43.57205" lon="3.81182">
        <ele>18.8</ele>
        <time>2021-04-13T07:22:46Z</time>
      </trkpt>
      <trkpt lat="43.5721" lon="3.81178">
        <ele>18.8</ele>
        <time>2021-04-13T07:22:47Z</time>
      </trkpt>
      <trkpt lat="43.57214" lon="3.81176">
        <ele>18.8</ele>
        <time>2021-04-13T07:22:48Z</time>
      </trkpt>
      <trkpt lat="43.57218" lon="3.81173">
        <ele>18.8</ele>
        <time>2021-04-13T07:22:49Z</time>
      </trkpt>
      <trkpt lat="43.57222" lon="3.81169">
        <ele>18.8</ele>
        <time>2021-04-13T07:22:50Z</time>
      </trkpt>
      <trkpt lat="43.57226" lon="3.81166">
        <ele>19</ele>
        <time>2021-04-13T07:22:51Z</time>
      </trkpt>
      <trkpt lat="43.5723" lon="3.81163">
        <ele>19</ele>
        <time>2021-04-13T07:22:52Z</time>
      </trkpt>
      <trkpt lat="43.57234" lon="3.81161">
        <ele>19</ele>
        <time>2021-04-13T07:22:53Z</time>
      </trkpt>
      <trkpt lat="43.57239" lon="3.81159">
        <ele>19</ele>
        <time>2021-04-13T07:22:54Z</time>
      </trkpt>
      <trkpt lat="43.57243" lon="3.81158">
        <ele>19</ele>
        <time>2021-04-13T07:22:55Z</time>
      </trkpt>
      <trkpt lat="43.57248" lon="3.81156">
        <ele>19</ele>
        <time>2021-04-13T07:22:56Z</time>
      </trkpt>
      <trkpt lat="43.57252" lon="3.81155">
        <ele>19</ele>
        <time>2021-04-13T07:22:57Z</time>
      </trkpt>
      <trkpt lat="43.57257" lon="3.81153">
        <ele>18.8</ele>
        <time>2021-04-13T07:22:58Z</time>
      </trkpt>
      <trkpt lat="43.57261" lon="3.81152">
        <ele>18.6</ele>
        <time>2021-04-13T07:22:59Z</time>
      </trkpt>
      <trkpt lat="43.57265" lon="3.81148">
        <ele>18.6</ele>
        <time>2021-04-13T07:23:00Z</time>
      </trkpt>
      <trkpt lat="43.57268" lon="3.81146">
        <ele>18.4</ele>
        <time>2021-04-13T07:23:01Z</time>
      </trkpt>
      <trkpt lat="43.57271" lon="3.81143">
        <ele>18.4</ele>
        <time>2021-04-13T07:23:02Z</time>
      </trkpt>
      <trkpt lat="43.57275" lon="3.81138">
        <ele>18.2</ele>
        <time>2021-04-13T07:23:03Z</time>
      </trkpt>
      <trkpt lat="43.57279" lon="3.81134">
        <ele>18.2</ele>
        <time>2021-04-13T07:23:04Z</time>
      </trkpt>
      <trkpt lat="43.57283" lon="3.81129">
        <ele>18.2</ele>
        <time>2021-04-13T07:23:05Z</time>
      </trkpt>
      <trkpt lat="43.57286" lon="3.81125">
        <ele>18.2</ele>
        <time>2021-04-13T07:23:06Z</time>
      </trkpt>
      <trkpt lat="43.5729" lon="3.81121">
        <ele>18.2</ele>
        <time>2021-04-13T07:23:07Z</time>
      </trkpt>
      <trkpt lat="43.57294" lon="3.81117">
        <ele>18.2</ele>
        <time>2021-04-13T07:23:08Z</time>
      </trkpt>
      <trkpt lat="43.57297" lon="3.81112">
        <ele>18.4</ele>
        <time>2021-04-13T07:23:09Z</time>
      </trkpt>
      <trkpt lat="43.57301" lon="3.81107">
        <ele>18.4</ele>
        <time>2021-04-13T07:23:10Z</time>
      </trkpt>
      <trkpt lat="43.57305" lon="3.81102">
        <ele>18.4</ele>
        <time>2021-04-13T07:23:11Z</time>
      </trkpt>
      <trkpt lat="43.57309" lon="3.81098">
        <ele>18.4</ele>
        <time>2021-04-13T07:23:12Z</time>
      </trkpt>
      <trkpt lat="43.57312" lon="3.81095">
        <ele>18.4</ele>
        <time>2021-04-13T07:23:13Z</time>
      </trkpt>
      <trkpt lat="43.57315" lon="3.81092">
        <ele>18.6</ele>
        <time>2021-04-13T07:23:14Z</time>
      </trkpt>
      <trkpt lat="43.57318" lon="3.81087">
        <ele>18.4</ele>
        <time>2021-04-13T07:23:15Z</time>
      </trkpt>
      <trkpt lat="43.57322" lon="3.81082">
        <ele>18.6</ele>
        <time>2021-04-13T07:23:16Z</time>
      </trkpt>
      <trkpt lat="43.57325" lon="3.81078">
        <ele>18.6</ele>
        <time>2021-04-13T07:23:17Z</time>
      </trkpt>
      <trkpt lat="43.57328" lon="3.81075">
        <ele>18.8</ele>
        <time>2021-04-13T07:23:18Z</time>
      </trkpt>
      <trkpt lat="43.57331" lon="3.81071">
        <ele>18.8</ele>
        <time>2021-04-13T07:23:19Z</time>
      </trkpt>
      <trkpt lat="43.57335" lon="3.81066">
        <ele>18.8</ele>
        <time>2021-04-13T07:23:20Z</time>
      </trkpt>
      <trkpt lat="43.57338" lon="3.81061">
        <ele>18.6</ele>
        <time>2021-04-13T07:23:21Z</time>
      </trkpt>
      <trkpt lat="43.5734" lon="3.81057">
        <ele>18.6</ele>
        <time>2021-04-13T07:23:22Z</time>
      </trkpt>
      <trkpt lat="43.57343" lon="3.81053">
        <ele>18.8</ele>
        <time>2021-04-13T07:23:23Z</time>
      </trkpt>
      <trkpt lat="43.57346" lon="3.8105">
        <ele>18.8</ele>
        <time>2021-04-13T07:23:24Z</time>
      </trkpt>
      <trkpt lat="43.57349" lon="3.81046">
        <ele>18.8</ele>
        <time>2021-04-13T07:23:25Z</time>
      </trkpt>
      <trkpt lat="43.57352" lon="3.81043">
        <ele>18.8</ele>
        <time>2021-04-13T07:23:26Z</time>
      </trkpt>
      <trkpt lat="43.57355" lon="3.8104">
        <ele>18.8</ele>
        <time>2021-04-13T07:23:27Z</time>
      </trkpt>
      <trkpt lat="43.5736" lon="3.81038">
        <ele>18.8</ele>
        <time>2021-04-13T07:23:28Z</time>
      </trkpt>
      <trkpt lat="43.57364" lon="3.81036">
        <ele>18.8</ele>
        <time>2021-04-13T07:23:29Z</time>
      </trkpt>
      <trkpt lat="43.57369" lon="3.81034">
        <ele>18.8</ele>
        <time>2021-04-13T07:23:30Z</time>
      </trkpt>
      <trkpt lat="43.57374" lon="3.81031">
        <ele>18.8</ele>
        <time>2021-04-13T07:23:31Z</time>
      </trkpt>
      <trkpt lat="43.5738" lon="3.81027">
        <ele>18.8</ele>
        <time>2021-04-13T07:23:32Z</time>
      </trkpt>
      <trkpt lat="43.57385" lon="3.81024">
        <ele>18.8</ele>
        <time>2021-04-13T07:23:33Z</time>
      </trkpt>
      <trkpt lat="43.5739" lon="3.81021">
        <ele>18.8</ele>
        <time>2021-04-13T07:23:34Z</time>
      </trkpt>
      <trkpt lat="43.57396" lon="3.81018">
        <ele>18.8</ele>
        <time>2021-04-13T07:23:35Z</time>
      </trkpt>
      <trkpt lat="43.574" lon="3.81015">
        <ele>18.8</ele>
        <time>2021-04-13T07:23:36Z</time>
      </trkpt>
      <trkpt lat="43.57405" lon="3.81012">
        <ele>19</ele>
        <time>2021-04-13T07:23:37Z</time>
      </trkpt>
      <trkpt lat="43.57409" lon="3.8101">
        <ele>19</ele>
        <time>2021-04-13T07:23:38Z</time>
      </trkpt>
      <trkpt lat="43.57414" lon="3.81008">
        <ele>18.8</ele>
        <time>2021-04-13T07:23:39Z</time>
      </trkpt>
      <trkpt lat="43.57419" lon="3.81006">
        <ele>19</ele>
        <time>2021-04-13T07:23:40Z</time>
      </trkpt>
      <trkpt lat="43.57424" lon="3.81004">
        <ele>19</ele>
        <time>2021-04-13T07:23:41Z</time>
      </trkpt>
      <trkpt lat="43.57428" lon="3.81001">
        <ele>19</ele>
        <time>2021-04-13T07:23:42Z</time>
      </trkpt>
      <trkpt lat="43.57432" lon="3.81">
        <ele>19</ele>
        <time>2021-04-13T07:23:43Z</time>
      </trkpt>
      <trkpt lat="43.57437" lon="3.80998">
        <ele>19</ele>
        <time>2021-04-13T07:23:44Z</time>
      </trkpt>
      <trkpt lat="43.57441" lon="3.80997">
        <ele>19</ele>
        <time>2021-04-13T07:23:45Z</time>
      </trkpt>
      <trkpt lat="43.57445" lon="3.80996">
        <ele>19</ele>
        <time>2021-04-13T07:23:46Z</time>
      </trkpt>
      <trkpt lat="43.57451" lon="3.80993">
        <ele>19</ele>
        <time>2021-04-13T07:23:47Z</time>
      </trkpt>
      <trkpt lat="43.57457" lon="3.80991">
        <ele>19.4</ele>
        <time>2021-04-13T07:23:48Z</time>
      </trkpt>
      <trkpt lat="43.57461" lon="3.80989">
        <ele>19.4</ele>
        <time>2021-04-13T07:23:49Z</time>
      </trkpt>
      <trkpt lat="43.57465" lon="3.80988">
        <ele>19.6</ele>
        <time>2021-04-13T07:23:50Z</time>
      </trkpt>
      <trkpt lat="43.5747" lon="3.80988">
        <ele>19.6</ele>
        <time>2021-04-13T07:23:51Z</time>
      </trkpt>
      <trkpt lat="43.57474" lon="3.80986">
        <ele>19.8</ele>
        <time>2021-04-13T07:23:52Z</time>
      </trkpt>
      <trkpt lat="43.57479" lon="3.80984">
        <ele>19.8</ele>
        <time>2021-04-13T07:23:53Z</time>
      </trkpt>
      <trkpt lat="43.57485" lon="3.80983">
        <ele>19.8</ele>
        <time>2021-04-13T07:23:54Z</time>
      </trkpt>
      <trkpt lat="43.57493" lon="3.80982">
        <ele>20</ele>
        <time>2021-04-13T07:23:55Z</time>
      </trkpt>
      <trkpt lat="43.57501" lon="3.8098">
        <ele>20</ele>
        <time>2021-04-13T07:23:56Z</time>
      </trkpt>
      <trkpt lat="43.57509" lon="3.80978">
        <ele>20</ele>
        <time>2021-04-13T07:23:57Z</time>
      </trkpt>
      <trkpt lat="43.57517" lon="3.80976">
        <ele>20.2</ele>
        <time>2021-04-13T07:23:58Z</time>
      </trkpt>
      <trkpt lat="43.57524" lon="3.80974">
        <ele>20</ele>
        <time>2021-04-13T07:23:59Z</time>
      </trkpt>
      <trkpt lat="43.57531" lon="3.80971">
        <ele>20.2</ele>
        <time>2021-04-13T07:24:00Z</time>
      </trkpt>
      <trkpt lat="43.57538" lon="3.80969">
        <ele>20.4</ele>
        <time>2021-04-13T07:24:01Z</time>
      </trkpt>
      <trkpt lat="43.57543" lon="3.80966">
        <ele>20.6</ele>
        <time>2021-04-13T07:24:02Z</time>
      </trkpt>
      <trkpt lat="43.57549" lon="3.80964">
        <ele>20.6</ele>
        <time>2021-04-13T07:24:03Z</time>
      </trkpt>
      <trkpt lat="43.57554" lon="3.80962">
        <ele>20.6</ele>
        <time>2021-04-13T07:24:04Z</time>
      </trkpt>
      <trkpt lat="43.57559" lon="3.80961">
        <ele>20.8</ele>
        <time>2021-04-13T07:24:05Z</time>
      </trkpt>
      <trkpt lat="43.57563" lon="3.80959">
        <ele>20.8</ele>
        <time>2021-04-13T07:24:06Z</time>
      </trkpt>
      <trkpt lat="43.57567" lon="3.80958">
        <ele>21</ele>
        <time>2021-04-13T07:24:07Z</time>
      </trkpt>
      <trkpt lat="43.57571" lon="3.80957">
        <ele>21</ele>
        <time>2021-04-13T07:24:08Z</time>
      </trkpt>
      <trkpt lat="43.57575" lon="3.80957">
        <ele>21.2</ele>
        <time>2021-04-13T07:24:09Z</time>
      </trkpt>
      <trkpt lat="43.57579" lon="3.80956">
        <ele>21.2</ele>
        <time>2021-04-13T07:24:10Z</time>
      </trkpt>
      <trkpt lat="43.57583" lon="3.80955">
        <ele>21.4</ele>
        <time>2021-04-13T07:24:11Z</time>
      </trkpt>
      <trkpt lat="43.57588" lon="3.80954">
        <ele>21.4</ele>
        <time>2021-04-13T07:24:12Z</time>
      </trkpt>
      <trkpt lat="43.57592" lon="3.80953">
        <ele>21.6</ele>
        <time>2021-04-13T07:24:13Z</time>
      </trkpt>
      <trkpt lat="43.57596" lon="3.80951">
        <ele>21.6</ele>
        <time>2021-04-13T07:24:14Z</time>
      </trkpt>
      <trkpt lat="43.576" lon="3.80948">
        <ele>21.8</ele>
        <time>2021-04-13T07:24:15Z</time>
      </trkpt>
      <trkpt lat="43.57605" lon="3.80946">
        <ele>21.8</ele>
        <time>2021-04-13T07:24:16Z</time>
      </trkpt>
      <trkpt lat="43.57609" lon="3.80944">
        <ele>21.8</ele>
        <time>2021-04-13T07:24:17Z</time>
      </trkpt>
      <trkpt lat="43.57613" lon="3.80943">
        <ele>22</ele>
        <time>2021-04-13T07:24:18Z</time>
      </trkpt>
      <trkpt lat="43.57617" lon="3.80941">
        <ele>22</ele>
        <time>2021-04-13T07:24:19Z</time>
      </trkpt>
      <trkpt lat="43.57621" lon="3.80939">
        <ele>22.2</ele>
        <time>2021-04-13T07:24:20Z</time>
      </trkpt>
      <trkpt lat="43.57626" lon="3.80938">
        <ele>22.4</ele>
        <time>2021-04-13T07:24:21Z</time>
      </trkpt>
      <trkpt lat="43.5763" lon="3.80936">
        <ele>22.2</ele>
        <time>2021-04-13T07:24:22Z</time>
      </trkpt>
      <trkpt lat="43.57635" lon="3.80934">
        <ele>22.4</ele>
        <time>2021-04-13T07:24:23Z</time>
      </trkpt>
      <trkpt lat="43.57639" lon="3.80932">
        <ele>22.6</ele>
        <time>2021-04-13T07:24:24Z</time>
      </trkpt>
      <trkpt lat="43.57643" lon="3.80931">
        <ele>22.6</ele>
        <time>2021-04-13T07:24:25Z</time>
      </trkpt>
      <trkpt lat="43.57647" lon="3.80929">
        <ele>22.6</ele>
        <time>2021-04-13T07:24:26Z</time>
      </trkpt>
      <trkpt lat="43.57651" lon="3.80927">
        <ele>22.8</ele>
        <time>2021-04-13T07:24:27Z</time>
      </trkpt>
      <trkpt lat="43.57655" lon="3.80925">
        <ele>22.8</ele>
        <time>2021-04-13T07:24:28Z</time>
      </trkpt>
      <trkpt lat="43.5766" lon="3.80922">
        <ele>22.6</ele>
        <time>2021-04-13T07:24:29Z</time>
      </trkpt>
      <trkpt lat="43.57664" lon="3.80919">
        <ele>22.8</ele>
        <time>2021-04-13T07:24:30Z</time>
      </trkpt>
      <trkpt lat="43.57668" lon="3.80916">
        <ele>23</ele>
        <time>2021-04-13T07:24:31Z</time>
      </trkpt>
      <trkpt lat="43.57672" lon="3.80913">
        <ele>22.8</ele>
        <time>2021-04-13T07:24:32Z</time>
      </trkpt>
      <trkpt lat="43.57677" lon="3.80911">
        <ele>23</ele>
        <time>2021-04-13T07:24:33Z</time>
      </trkpt>
      <trkpt lat="43.57681" lon="3.80909">
        <ele>23</ele>
        <time>2021-04-13T07:24:34Z</time>
      </trkpt>
      <trkpt lat="43.57685" lon="3.80907">
        <ele>23.2</ele>
        <time>2021-04-13T07:24:35Z</time>
      </trkpt>
      <trkpt lat="43.57689" lon="3.80904">
        <ele>23.2</ele>
        <time>2021-04-13T07:24:36Z</time>
      </trkpt>
      <trkpt lat="43.57694" lon="3.80901">
        <ele>23.2</ele>
        <time>2021-04-13T07:24:37Z</time>
      </trkpt>
      <trkpt lat="43.57698" lon="3.80898">
        <ele>23</ele>
        <time>2021-04-13T07:24:38Z</time>
      </trkpt>
      <trkpt lat="43.57702" lon="3.80895">
        <ele>23.2</ele>
        <time>2021-04-13T07:24:39Z</time>
      </trkpt>
      <trkpt lat="43.57706" lon="3.80893">
        <ele>23.2</ele>
        <time>2021-04-13T07:24:40Z</time>
      </trkpt>
      <trkpt lat="43.5771" lon="3.8089">
        <ele>23.2</ele>
        <time>2021-04-13T07:24:41Z</time>
      </trkpt>
      <trkpt lat="43.57714" lon="3.80887">
        <ele>23.4</ele>
        <time>2021-04-13T07:24:42Z</time>
      </trkpt>
      <trkpt lat="43.57718" lon="3.80884">
        <ele>23.4</ele>
        <time>2021-04-13T07:24:43Z</time>
      </trkpt>
      <trkpt lat="43.57722" lon="3.80881">
        <ele>23.4</ele>
        <time>2021-04-13T07:24:44Z</time>
      </trkpt>
      <trkpt lat="43.57726" lon="3.80877">
        <ele>23.6</ele>
        <time>2021-04-13T07:24:45Z</time>
      </trkpt>
      <trkpt lat="43.57729" lon="3.80873">
        <ele>23.6</ele>
        <time>2021-04-13T07:24:46Z</time>
      </trkpt>
      <trkpt lat="43.57732" lon="3.80869">
        <ele>23.8</ele>
        <time>2021-04-13T07:24:47Z</time>
      </trkpt>
      <trkpt lat="43.57735" lon="3.80865">
        <ele>23.8</ele>
        <time>2021-04-13T07:24:48Z</time>
      </trkpt>
      <trkpt lat="43.57738" lon="3.80861">
        <ele>23.8</ele>
        <time>2021-04-13T07:24:49Z</time>
      </trkpt>
      <trkpt lat="43.57742" lon="3.80857">
        <ele>24</ele>
        <time>2021-04-13T07:24:50Z</time>
      </trkpt>
      <trkpt lat="43.57745" lon="3.80852">
        <ele>24</ele>
        <time>2021-04-13T07:24:51Z</time>
      </trkpt>
      <trkpt lat="43.57747" lon="3.80848">
        <ele>24</ele>
        <time>2021-04-13T07:24:52Z</time>
      </trkpt>
      <trkpt lat="43.5775" lon="3.80843">
        <ele>24</ele>
        <time>2021-04-13T07:24:53Z</time>
      </trkpt>
      <trkpt lat="43.57752" lon="3.80839">
        <ele>24.4</ele>
        <time>2021-04-13T07:24:54Z</time>
      </trkpt>
      <trkpt lat="43.57755" lon="3.80834">
        <ele>24.4</ele>
        <time>2021-04-13T07:24:55Z</time>
      </trkpt>
      <trkpt lat="43.57757" lon="3.8083">
        <ele>24.6</ele>
        <time>2021-04-13T07:24:56Z</time>
      </trkpt>
      <trkpt lat="43.57759" lon="3.80825">
        <ele>24.6</ele>
        <time>2021-04-13T07:24:57Z</time>
      </trkpt>
      <trkpt lat="43.57761" lon="3.80821">
        <ele>24.8</ele>
        <time>2021-04-13T07:24:58Z</time>
      </trkpt>
      <trkpt lat="43.57764" lon="3.80817">
        <ele>24.8</ele>
        <time>2021-04-13T07:24:59Z</time>
      </trkpt>
      <trkpt lat="43.57766" lon="3.80813">
        <ele>25</ele>
        <time>2021-04-13T07:25:00Z</time>
      </trkpt>
      <trkpt lat="43.57768" lon="3.80809">
        <ele>25</ele>
        <time>2021-04-13T07:25:01Z</time>
      </trkpt>
      <trkpt lat="43.5777" lon="3.80805">
        <ele>25</ele>
        <time>2021-04-13T07:25:02Z</time>
      </trkpt>
      <trkpt lat="43.57772" lon="3.808">
        <ele>25.2</ele>
        <time>2021-04-13T07:25:03Z</time>
      </trkpt>
      <trkpt lat="43.57775" lon="3.80796">
        <ele>25.2</ele>
        <time>2021-04-13T07:25:04Z</time>
      </trkpt>
      <trkpt lat="43.57777" lon="3.80792">
        <ele>25.4</ele>
        <time>2021-04-13T07:25:05Z</time>
      </trkpt>
      <trkpt lat="43.5778" lon="3.80787">
        <ele>25.6</ele>
        <time>2021-04-13T07:25:06Z</time>
      </trkpt>
      <trkpt lat="43.57782" lon="3.80782">
        <ele>25.6</ele>
        <time>2021-04-13T07:25:07Z</time>
      </trkpt>
      <trkpt lat="43.57784" lon="3.80777">
        <ele>25.8</ele>
        <time>2021-04-13T07:25:08Z</time>
      </trkpt>
      <trkpt lat="43.57787" lon="3.80773">
        <ele>25.8</ele>
        <time>2021-04-13T07:25:09Z</time>
      </trkpt>
      <trkpt lat="43.57789" lon="3.80768">
        <ele>26</ele>
        <time>2021-04-13T07:25:10Z</time>
      </trkpt>
      <trkpt lat="43.57792" lon="3.80763">
        <ele>26</ele>
        <time>2021-04-13T07:25:11Z</time>
      </trkpt>
      <trkpt lat="43.57794" lon="3.80759">
        <ele>26.2</ele>
        <time>2021-04-13T07:25:12Z</time>
      </trkpt>
      <trkpt lat="43.57796" lon="3.80755">
        <ele>26.2</ele>
        <time>2021-04-13T07:25:13Z</time>
      </trkpt>
      <trkpt lat="43.57798" lon="3.80751">
        <ele>26.4</ele>
        <time>2021-04-13T07:25:14Z</time>
      </trkpt>
      <trkpt lat="43.57801" lon="3.80746">
        <ele>26.4</ele>
        <time>2021-04-13T07:25:15Z</time>
      </trkpt>
      <trkpt lat="43.57803" lon="3.80742">
        <ele>26.4</ele>
        <time>2021-04-13T07:25:16Z</time>
      </trkpt>
      <trkpt lat="43.57805" lon="3.80737">
        <ele>26.6</ele>
        <time>2021-04-13T07:25:17Z</time>
      </trkpt>
      <trkpt lat="43.57807" lon="3.80733">
        <ele>26.4</ele>
        <time>2021-04-13T07:25:18Z</time>
      </trkpt>
      <trkpt lat="43.5781" lon="3.80728">
        <ele>26.6</ele>
        <time>2021-04-13T07:25:19Z</time>
      </trkpt>
      <trkpt lat="43.57812" lon="3.80723">
        <ele>26.6</ele>
        <time>2021-04-13T07:25:20Z</time>
      </trkpt>
      <trkpt lat="43.57815" lon="3.80717">
        <ele>26.6</ele>
        <time>2021-04-13T07:25:21Z</time>
      </trkpt>
      <trkpt lat="43.57817" lon="3.80713">
        <ele>26.6</ele>
        <time>2021-04-13T07:25:22Z</time>
      </trkpt>
      <trkpt lat="43.57819" lon="3.80708">
        <ele>26.8</ele>
        <time>2021-04-13T07:25:23Z</time>
      </trkpt>
      <trkpt lat="43.57822" lon="3.80703">
        <ele>26.8</ele>
        <time>2021-04-13T07:25:24Z</time>
      </trkpt>
      <trkpt lat="43.57824" lon="3.80699">
        <ele>26.8</ele>
        <time>2021-04-13T07:25:25Z</time>
      </trkpt>
      <trkpt lat="43.57826" lon="3.80694">
        <ele>26.8</ele>
        <time>2021-04-13T07:25:26Z</time>
      </trkpt>
      <trkpt lat="43.57829" lon="3.8069">
        <ele>26.8</ele>
        <time>2021-04-13T07:25:27Z</time>
      </trkpt>
      <trkpt lat="43.57831" lon="3.80685">
        <ele>27</ele>
        <time>2021-04-13T07:25:28Z</time>
      </trkpt>
      <trkpt lat="43.57833" lon="3.8068">
        <ele>27.2</ele>
        <time>2021-04-13T07:25:29Z</time>
      </trkpt>
      <trkpt lat="43.57835" lon="3.80675">
        <ele>27.2</ele>
        <time>2021-04-13T07:25:30Z</time>
      </trkpt>
      <trkpt lat="43.57838" lon="3.80671">
        <ele>27.4</ele>
        <time>2021-04-13T07:25:31Z</time>
      </trkpt>
      <trkpt lat="43.57841" lon="3.80666">
        <ele>27.4</ele>
        <time>2021-04-13T07:25:32Z</time>
      </trkpt>
      <trkpt lat="43.57843" lon="3.80662">
        <ele>27.4</ele>
        <time>2021-04-13T07:25:33Z</time>
      </trkpt>
      <trkpt lat="43.57845" lon="3.80657">
        <ele>27.4</ele>
        <time>2021-04-13T07:25:34Z</time>
      </trkpt>
      <trkpt lat="43.57847" lon="3.80652">
        <ele>27.4</ele>
        <time>2021-04-13T07:25:35Z</time>
      </trkpt>
      <trkpt lat="43.5785" lon="3.80648">
        <ele>27.4</ele>
        <time>2021-04-13T07:25:36Z</time>
      </trkpt>
      <trkpt lat="43.57852" lon="3.80643">
        <ele>27.4</ele>
        <time>2021-04-13T07:25:37Z</time>
      </trkpt>
      <trkpt lat="43.57854" lon="3.80639">
        <ele>27.6</ele>
        <time>2021-04-13T07:25:38Z</time>
      </trkpt>
      <trkpt lat="43.57856" lon="3.80635">
        <ele>27.8</ele>
        <time>2021-04-13T07:25:39Z</time>
      </trkpt>
      <trkpt lat="43.57858" lon="3.8063">
        <ele>27.8</ele>
        <time>2021-04-13T07:25:40Z</time>
      </trkpt>
      <trkpt lat="43.57861" lon="3.80626">
        <ele>28</ele>
        <time>2021-04-13T07:25:41Z</time>
      </trkpt>
      <trkpt lat="43.57863" lon="3.80621">
        <ele>28.2</ele>
        <time>2021-04-13T07:25:42Z</time>
      </trkpt>
      <trkpt lat="43.57865" lon="3.80617">
        <ele>28.2</ele>
        <time>2021-04-13T07:25:43Z</time>
      </trkpt>
      <trkpt lat="43.57868" lon="3.80613">
        <ele>28.2</ele>
        <time>2021-04-13T07:25:44Z</time>
      </trkpt>
      <trkpt lat="43.5787" lon="3.80608">
        <ele>28.2</ele>
        <time>2021-04-13T07:25:45Z</time>
      </trkpt>
      <trkpt lat="43.57872" lon="3.80604">
        <ele>28.4</ele>
        <time>2021-04-13T07:25:46Z</time>
      </trkpt>
      <trkpt lat="43.57875" lon="3.80599">
        <ele>28.4</ele>
        <time>2021-04-13T07:25:47Z</time>
      </trkpt>
      <trkpt lat="43.57877" lon="3.80595">
        <ele>28.4</ele>
        <time>2021-04-13T07:25:48Z</time>
      </trkpt>
      <trkpt lat="43.57879" lon="3.80591">
        <ele>28.4</ele>
        <time>2021-04-13T07:25:49Z</time>
      </trkpt>
      <trkpt lat="43.57881" lon="3.80587">
        <ele>28.4</ele>
        <time>2021-04-13T07:25:50Z</time>
      </trkpt>
      <trkpt lat="43.57883" lon="3.80583">
        <ele>28.8</ele>
        <time>2021-04-13T07:25:51Z</time>
      </trkpt>
      <trkpt lat="43.57885" lon="3.80579">
        <ele>29</ele>
        <time>2021-04-13T07:25:52Z</time>
      </trkpt>
      <trkpt lat="43.57887" lon="3.80575">
        <ele>29</ele>
        <time>2021-04-13T07:25:53Z</time>
      </trkpt>
      <trkpt lat="43.57889" lon="3.80571">
        <ele>28.8</ele>
        <time>2021-04-13T07:25:54Z</time>
      </trkpt>
      <trkpt lat="43.57891" lon="3.80567">
        <ele>29</ele>
        <time>2021-04-13T07:25:55Z</time>
      </trkpt>
      <trkpt lat="43.57893" lon="3.80562">
        <ele>29</ele>
        <time>2021-04-13T07:25:56Z</time>
      </trkpt>
      <trkpt lat="43.57896" lon="3.80558">
        <ele>29.2</ele>
        <time>2021-04-13T07:25:57Z</time>
      </trkpt>
      <trkpt lat="43.57898" lon="3.80554">
        <ele>29.2</ele>
        <time>2021-04-13T07:25:58Z</time>
      </trkpt>
      <trkpt lat="43.579" lon="3.8055">
        <ele>29.2</ele>
        <time>2021-04-13T07:25:59Z</time>
      </trkpt>
      <trkpt lat="43.57902" lon="3.80545">
        <ele>29.2</ele>
        <time>2021-04-13T07:26:00Z</time>
      </trkpt>
      <trkpt lat="43.57905" lon="3.80541">
        <ele>29.4</ele>
        <time>2021-04-13T07:26:01Z</time>
      </trkpt>
      <trkpt lat="43.57907" lon="3.80537">
        <ele>29.4</ele>
        <time>2021-04-13T07:26:02Z</time>
      </trkpt>
      <trkpt lat="43.57909" lon="3.80533">
        <ele>29.4</ele>
        <time>2021-04-13T07:26:03Z</time>
      </trkpt>
      <trkpt lat="43.57911" lon="3.80528">
        <ele>29.6</ele>
        <time>2021-04-13T07:26:04Z</time>
      </trkpt>
      <trkpt lat="43.57913" lon="3.80524">
        <ele>29.6</ele>
        <time>2021-04-13T07:26:05Z</time>
      </trkpt>
      <trkpt lat="43.57915" lon="3.8052">
        <ele>29.8</ele>
        <time>2021-04-13T07:26:06Z</time>
      </trkpt>
      <trkpt lat="43.57917" lon="3.80515">
        <ele>29.8</ele>
        <time>2021-04-13T07:26:07Z</time>
      </trkpt>
      <trkpt lat="43.5792" lon="3.80511">
        <ele>29.8</ele>
        <time>2021-04-13T07:26:08Z</time>
      </trkpt>
      <trkpt lat="43.57922" lon="3.80506">
        <ele>30</ele>
        <time>2021-04-13T07:26:09Z</time>
      </trkpt>
      <trkpt lat="43.57924" lon="3.80502">
        <ele>30</ele>
        <time>2021-04-13T07:26:10Z</time>
      </trkpt>
      <trkpt lat="43.57927" lon="3.80498">
        <ele>30</ele>
        <time>2021-04-13T07:26:11Z</time>
      </trkpt>
      <trkpt lat="43.57929" lon="3.80494">
        <ele>30</ele>
        <time>2021-04-13T07:26:12Z</time>
      </trkpt>
      <trkpt lat="43.57931" lon="3.80489">
        <ele>30.2</ele>
        <time>2021-04-13T07:26:13Z</time>
      </trkpt>
      <trkpt lat="43.57933" lon="3.80485">
        <ele>30.2</ele>
        <time>2021-04-13T07:26:14Z</time>
      </trkpt>
      <trkpt lat="43.57935" lon="3.8048">
        <ele>30.4</ele>
        <time>2021-04-13T07:26:15Z</time>
      </trkpt>
      <trkpt lat="43.57937" lon="3.80476">
        <ele>30.4</ele>
        <time>2021-04-13T07:26:16Z</time>
      </trkpt>
      <trkpt lat="43.5794" lon="3.80472">
        <ele>30.6</ele>
        <time>2021-04-13T07:26:17Z</time>
      </trkpt>
      <trkpt lat="43.57942" lon="3.80468">
        <ele>30.6</ele>
        <time>2021-04-13T07:26:18Z</time>
      </trkpt>
      <trkpt lat="43.57943" lon="3.80464">
        <ele>30.6</ele>
        <time>2021-04-13T07:26:19Z</time>
      </trkpt>
      <trkpt lat="43.57945" lon="3.8046">
        <ele>30.6</ele>
        <time>2021-04-13T07:26:20Z</time>
      </trkpt>
      <trkpt lat="43.57947" lon="3.80455">
        <ele>30.6</ele>
        <time>2021-04-13T07:26:21Z</time>
      </trkpt>
      <trkpt lat="43.57949" lon="3.80451">
        <ele>30.8</ele>
        <time>2021-04-13T07:26:22Z</time>
      </trkpt>
      <trkpt lat="43.57952" lon="3.80446">
        <ele>30.8</ele>
        <time>2021-04-13T07:26:23Z</time>
      </trkpt>
      <trkpt lat="43.57954" lon="3.80442">
        <ele>30.8</ele>
        <time>2021-04-13T07:26:24Z</time>
      </trkpt>
      <trkpt lat="43.57956" lon="3.80437">
        <ele>31</ele>
        <time>2021-04-13T07:26:25Z</time>
      </trkpt>
      <trkpt lat="43.57958" lon="3.80433">
        <ele>31</ele>
        <time>2021-04-13T07:26:26Z</time>
      </trkpt>
      <trkpt lat="43.57961" lon="3.80429">
        <ele>31</ele>
        <time>2021-04-13T07:26:27Z</time>
      </trkpt>
      <trkpt lat="43.57963" lon="3.80425">
        <ele>31</ele>
        <time>2021-04-13T07:26:28Z</time>
      </trkpt>
      <trkpt lat="43.57965" lon="3.80421">
        <ele>31.2</ele>
        <time>2021-04-13T07:26:29Z</time>
      </trkpt>
      <trkpt lat="43.57967" lon="3.80416">
        <ele>31.2</ele>
        <time>2021-04-13T07:26:30Z</time>
      </trkpt>
      <trkpt lat="43.5797" lon="3.80412">
        <ele>31.4</ele>
        <time>2021-04-13T07:26:31Z</time>
      </trkpt>
      <trkpt lat="43.57972" lon="3.80407">
        <ele>31.4</ele>
        <time>2021-04-13T07:26:32Z</time>
      </trkpt>
      <trkpt lat="43.57974" lon="3.80402">
        <ele>31.6</ele>
        <time>2021-04-13T07:26:33Z</time>
      </trkpt>
      <trkpt lat="43.57977" lon="3.80398">
        <ele>31.6</ele>
        <time>2021-04-13T07:26:34Z</time>
      </trkpt>
      <trkpt lat="43.57979" lon="3.80393">
        <ele>31.8</ele>
        <time>2021-04-13T07:26:35Z</time>
      </trkpt>
      <trkpt lat="43.57982" lon="3.80389">
        <ele>31.8</ele>
        <time>2021-04-13T07:26:36Z</time>
      </trkpt>
      <trkpt lat="43.57984" lon="3.80384">
        <ele>32</ele>
        <time>2021-04-13T07:26:37Z</time>
      </trkpt>
      <trkpt lat="43.57986" lon="3.80379">
        <ele>32</ele>
        <time>2021-04-13T07:26:38Z</time>
      </trkpt>
      <trkpt lat="43.57988" lon="3.80375">
        <ele>32</ele>
        <time>2021-04-13T07:26:39Z</time>
      </trkpt>
      <trkpt lat="43.5799" lon="3.80371">
        <ele>32.2</ele>
        <time>2021-04-13T07:26:40Z</time>
      </trkpt>
      <trkpt lat="43.57993" lon="3.80366">
        <ele>32.2</ele>
        <time>2021-04-13T07:26:41Z</time>
      </trkpt>
      <trkpt lat="43.57995" lon="3.80362">
        <ele>32.4</ele>
        <time>2021-04-13T07:26:42Z</time>
      </trkpt>
      <trkpt lat="43.57998" lon="3.80357">
        <ele>32.4</ele>
        <time>2021-04-13T07:26:43Z</time>
      </trkpt>
      <trkpt lat="43.58" lon="3.80353">
        <ele>32.6</ele>
        <time>2021-04-13T07:26:44Z</time>
      </trkpt>
      <trkpt lat="43.58002" lon="3.80348">
        <ele>32.6</ele>
        <time>2021-04-13T07:26:45Z</time>
      </trkpt>
      <trkpt lat="43.58004" lon="3.80343">
        <ele>32.8</ele>
        <time>2021-04-13T07:26:46Z</time>
      </trkpt>
      <trkpt lat="43.58006" lon="3.80339">
        <ele>32.6</ele>
        <time>2021-04-13T07:26:47Z</time>
      </trkpt>
      <trkpt lat="43.58008" lon="3.80334">
        <ele>33</ele>
        <time>2021-04-13T07:26:48Z</time>
      </trkpt>
      <trkpt lat="43.58011" lon="3.8033">
        <ele>33</ele>
        <time>2021-04-13T07:26:49Z</time>
      </trkpt>
      <trkpt lat="43.58013" lon="3.80325">
        <ele>33.2</ele>
        <time>2021-04-13T07:26:50Z</time>
      </trkpt>
      <trkpt lat="43.58016" lon="3.80321">
        <ele>33.4</ele>
        <time>2021-04-13T07:26:51Z</time>
      </trkpt>
      <trkpt lat="43.58018" lon="3.80316">
        <ele>33.4</ele>
        <time>2021-04-13T07:26:52Z</time>
      </trkpt>
      <trkpt lat="43.58021" lon="3.80311">
        <ele>33.6</ele>
        <time>2021-04-13T07:26:53Z</time>
      </trkpt>
      <trkpt lat="43.58023" lon="3.80306">
        <ele>33.6</ele>
        <time>2021-04-13T07:26:54Z</time>
      </trkpt>
      <trkpt lat="43.58025" lon="3.80301">
        <ele>33.8</ele>
        <time>2021-04-13T07:26:55Z</time>
      </trkpt>
      <trkpt lat="43.58028" lon="3.80296">
        <ele>33.8</ele>
        <time>2021-04-13T07:26:56Z</time>
      </trkpt>
      <trkpt lat="43.5803" lon="3.80292">
        <ele>33.8</ele>
        <time>2021-04-13T07:26:57Z</time>
      </trkpt>
      <trkpt lat="43.58033" lon="3.80287">
        <ele>33.8</ele>
        <time>2021-04-13T07:26:58Z</time>
      </trkpt>
      <trkpt lat="43.58035" lon="3.80282">
        <ele>34</ele>
        <time>2021-04-13T07:26:59Z</time>
      </trkpt>
      <trkpt lat="43.58037" lon="3.80277">
        <ele>34</ele>
        <time>2021-04-13T07:27:00Z</time>
      </trkpt>
      <trkpt lat="43.5804" lon="3.80272">
        <ele>34.2</ele>
        <time>2021-04-13T07:27:01Z</time>
      </trkpt>
      <trkpt lat="43.58043" lon="3.80267">
        <ele>34.2</ele>
        <time>2021-04-13T07:27:02Z</time>
      </trkpt>
      <trkpt lat="43.58045" lon="3.80262">
        <ele>34.4</ele>
        <time>2021-04-13T07:27:03Z</time>
      </trkpt>
      <trkpt lat="43.58048" lon="3.80258">
        <ele>34.4</ele>
        <time>2021-04-13T07:27:04Z</time>
      </trkpt>
      <trkpt lat="43.5805" lon="3.80253">
        <ele>34.6</ele>
        <time>2021-04-13T07:27:05Z</time>
      </trkpt>
      <trkpt lat="43.58053" lon="3.80249">
        <ele>34.8</ele>
        <time>2021-04-13T07:27:06Z</time>
      </trkpt>
      <trkpt lat="43.58055" lon="3.80244">
        <ele>34.8</ele>
        <time>2021-04-13T07:27:07Z</time>
      </trkpt>
      <trkpt lat="43.58057" lon="3.8024">
        <ele>35</ele>
        <time>2021-04-13T07:27:08Z</time>
      </trkpt>
      <trkpt lat="43.58059" lon="3.80235">
        <ele>35</ele>
        <time>2021-04-13T07:27:09Z</time>
      </trkpt>
      <trkpt lat="43.58061" lon="3.80231">
        <ele>35</ele>
        <time>2021-04-13T07:27:10Z</time>
      </trkpt>
      <trkpt lat="43.58064" lon="3.80226">
        <ele>35</ele>
        <time>2021-04-13T07:27:11Z</time>
      </trkpt>
      <trkpt lat="43.58066" lon="3.80222">
        <ele>35</ele>
        <time>2021-04-13T07:27:12Z</time>
      </trkpt>
      <trkpt lat="43.58069" lon="3.80218">
        <ele>35</ele>
        <time>2021-04-13T07:27:13Z</time>
      </trkpt>
      <trkpt lat="43.58071" lon="3.80214">
        <ele>35</ele>
        <time>2021-04-13T07:27:14Z</time>
      </trkpt>
      <trkpt lat="43.58074" lon="3.8021">
        <ele>34.8</ele>
        <time>2021-04-13T07:27:15Z</time>
      </trkpt>
      <trkpt lat="43.58077" lon="3.80205">
        <ele>34.8</ele>
        <time>2021-04-13T07:27:16Z</time>
      </trkpt>
      <trkpt lat="43.5808" lon="3.80201">
        <ele>34.8</ele>
        <time>2021-04-13T07:27:17Z</time>
      </trkpt>
      <trkpt lat="43.58083" lon="3.80196">
        <ele>34.8</ele>
        <time>2021-04-13T07:27:18Z</time>
      </trkpt>
      <trkpt lat="43.58086" lon="3.80191">
        <ele>34.6</ele>
        <time>2021-04-13T07:27:19Z</time>
      </trkpt>
      <trkpt lat="43.58089" lon="3.80187">
        <ele>34.8</ele>
        <time>2021-04-13T07:27:20Z</time>
      </trkpt>
      <trkpt lat="43.58091" lon="3.80183">
        <ele>34.8</ele>
        <time>2021-04-13T07:27:21Z</time>
      </trkpt>
      <trkpt lat="43.58094" lon="3.80179">
        <ele>34.8</ele>
        <time>2021-04-13T07:27:22Z</time>
      </trkpt>
      <trkpt lat="43.58096" lon="3.80174">
        <ele>34.8</ele>
        <time>2021-04-13T07:27:23Z</time>
      </trkpt>
      <trkpt lat="43.58098" lon="3.8017">
        <ele>34.8</ele>
        <time>2021-04-13T07:27:24Z</time>
      </trkpt>
      <trkpt lat="43.581" lon="3.80166">
        <ele>34.6</ele>
        <time>2021-04-13T07:27:25Z</time>
      </trkpt>
      <trkpt lat="43.58102" lon="3.80162">
        <ele>34.6</ele>
        <time>2021-04-13T07:27:26Z</time>
      </trkpt>
      <trkpt lat="43.58104" lon="3.80158">
        <ele>34.6</ele>
        <time>2021-04-13T07:27:27Z</time>
      </trkpt>
      <trkpt lat="43.58106" lon="3.80154">
        <ele>34.6</ele>
        <time>2021-04-13T07:27:28Z</time>
      </trkpt>
      <trkpt lat="43.58108" lon="3.8015">
        <ele>34.6</ele>
        <time>2021-04-13T07:27:29Z</time>
      </trkpt>
      <trkpt lat="43.58108" lon="3.80146">
        <ele>34.6</ele>
        <time>2021-04-13T07:27:30Z</time>
      </trkpt>
      <trkpt lat="43.58108" lon="3.80143">
        <ele>34.4</ele>
        <time>2021-04-13T07:27:31Z</time>
      </trkpt>
      <trkpt lat="43.58108" lon="3.80142">
        <ele>34.4</ele>
        <time>2021-04-13T07:27:32Z</time>
      </trkpt>
      <trkpt lat="43.58109" lon="3.80142">
        <ele>34.4</ele>
        <time>2021-04-13T07:27:33Z</time>
      </trkpt>
      <trkpt lat="43.58108" lon="3.80142">
        <ele>34.4</ele>
        <time>2021-04-13T07:27:34Z</time>
      </trkpt>
      <trkpt lat="43.58108" lon="3.80142">
        <ele>34.4</ele>
        <time>2021-04-13T07:27:35Z</time>
      </trkpt>
      <trkpt lat="43.58108" lon="3.80142">
        <ele>34.4</ele>
        <time>2021-04-13T07:27:36Z</time>
      </trkpt>
      <trkpt lat="43.58108" lon="3.80141">
        <ele>34.4</ele>
        <time>2021-04-13T07:27:37Z</time>
      </trkpt>
      <trkpt lat="43.58108" lon="3.80141">
        <ele>34.4</ele>
        <time>2021-04-13T07:27:38Z</time>
      </trkpt>
      <trkpt lat="43.58108" lon="3.80141">
        <ele>34.4</ele>
        <time>2021-04-13T07:27:39Z</time>
      </trkpt>
      <trkpt lat="43.58121" lon="3.80121">
        <ele>34.6</ele>
        <time>2021-04-13T07:29:30Z</time>
      </trkpt>
      <trkpt lat="43.58123" lon="3.8012">
        <ele>34.8</ele>
        <time>2021-04-13T07:29:31Z</time>
      </trkpt>
      <trkpt lat="43.58125" lon="3.80119">
        <ele>34.8</ele>
        <time>2021-04-13T07:29:32Z</time>
      </trkpt>
      <trkpt lat="43.58127" lon="3.80118">
        <ele>34.8</ele>
        <time>2021-04-13T07:29:33Z</time>
      </trkpt>
      <trkpt lat="43.5813" lon="3.80118">
        <ele>34.8</ele>
        <time>2021-04-13T07:29:34Z</time>
      </trkpt>
      <trkpt lat="43.58133" lon="3.80118">
        <ele>35</ele>
        <time>2021-04-13T07:29:35Z</time>
      </trkpt>
      <trkpt lat="43.58136" lon="3.80118">
        <ele>35</ele>
        <time>2021-04-13T07:29:36Z</time>
      </trkpt>
      <trkpt lat="43.58139" lon="3.80119">
        <ele>35</ele>
        <time>2021-04-13T07:29:37Z</time>
      </trkpt>
      <trkpt lat="43.58142" lon="3.80119">
        <ele>35</ele>
        <time>2021-04-13T07:29:38Z</time>
      </trkpt>
      <trkpt lat="43.58145" lon="3.8012">
        <ele>35</ele>
        <time>2021-04-13T07:29:39Z</time>
      </trkpt>
      <trkpt lat="43.58148" lon="3.80122">
        <ele>35</ele>
        <time>2021-04-13T07:29:40Z</time>
      </trkpt>
      <trkpt lat="43.58151" lon="3.80123">
        <ele>35</ele>
        <time>2021-04-13T07:29:41Z</time>
      </trkpt>
      <trkpt lat="43.58154" lon="3.80125">
        <ele>35</ele>
        <time>2021-04-13T07:29:42Z</time>
      </trkpt>
      <trkpt lat="43.58157" lon="3.80126">
        <ele>34.8</ele>
        <time>2021-04-13T07:29:43Z</time>
      </trkpt>
      <trkpt lat="43.5816" lon="3.80125">
        <ele>34.8</ele>
        <time>2021-04-13T07:29:44Z</time>
      </trkpt>
      <trkpt lat="43.58162" lon="3.80122">
        <ele>34.6</ele>
        <time>2021-04-13T07:29:45Z</time>
      </trkpt>
      <trkpt lat="43.58163" lon="3.80118">
        <ele>34.6</ele>
        <time>2021-04-13T07:29:46Z</time>
      </trkpt>
      <trkpt lat="43.58163" lon="3.80113">
        <ele>34.8</ele>
        <time>2021-04-13T07:29:47Z</time>
      </trkpt>
      <trkpt lat="43.58163" lon="3.80108">
        <ele>35</ele>
        <time>2021-04-13T07:29:48Z</time>
      </trkpt>
      <trkpt lat="43.58163" lon="3.80104">
        <ele>35.2</ele>
        <time>2021-04-13T07:29:49Z</time>
      </trkpt>
      <trkpt lat="43.58163" lon="3.80099">
        <ele>35.2</ele>
        <time>2021-04-13T07:29:50Z</time>
      </trkpt>
      <trkpt lat="43.58162" lon="3.80094">
        <ele>35.2</ele>
        <time>2021-04-13T07:29:51Z</time>
      </trkpt>
      <trkpt lat="43.58162" lon="3.80088">
        <ele>35.2</ele>
        <time>2021-04-13T07:29:52Z</time>
      </trkpt>
      <trkpt lat="43.58162" lon="3.80083">
        <ele>35.2</ele>
        <time>2021-04-13T07:29:53Z</time>
      </trkpt>
      <trkpt lat="43.58161" lon="3.80079">
        <ele>35.4</ele>
        <time>2021-04-13T07:29:54Z</time>
      </trkpt>
      <trkpt lat="43.58161" lon="3.80074">
        <ele>35.2</ele>
        <time>2021-04-13T07:29:55Z</time>
      </trkpt>
      <trkpt lat="43.58161" lon="3.80069">
        <ele>35.2</ele>
        <time>2021-04-13T07:29:56Z</time>
      </trkpt>
      <trkpt lat="43.58161" lon="3.80063">
        <ele>35.4</ele>
        <time>2021-04-13T07:29:57Z</time>
      </trkpt>
      <trkpt lat="43.58162" lon="3.80057">
        <ele>35.4</ele>
        <time>2021-04-13T07:29:58Z</time>
      </trkpt>
      <trkpt lat="43.58162" lon="3.80051">
        <ele>35.4</ele>
        <time>2021-04-13T07:29:59Z</time>
      </trkpt>
      <trkpt lat="43.58162" lon="3.80045">
        <ele>35.4</ele>
        <time>2021-04-13T07:30:00Z</time>
      </trkpt>
      <trkpt lat="43.58162" lon="3.8004">
        <ele>35.4</ele>
        <time>2021-04-13T07:30:01Z</time>
      </trkpt>
      <trkpt lat="43.58162" lon="3.80034">
        <ele>35.4</ele>
        <time>2021-04-13T07:30:02Z</time>
      </trkpt>
      <trkpt lat="43.58161" lon="3.80029">
        <ele>35.4</ele>
        <time>2021-04-13T07:30:03Z</time>
      </trkpt>
      <trkpt lat="43.58161" lon="3.80024">
        <ele>35.4</ele>
        <time>2021-04-13T07:30:04Z</time>
      </trkpt>
      <trkpt lat="43.58161" lon="3.80018">
        <ele>35.6</ele>
        <time>2021-04-13T07:30:05Z</time>
      </trkpt>
      <trkpt lat="43.58161" lon="3.80013">
        <ele>35.8</ele>
        <time>2021-04-13T07:30:06Z</time>
      </trkpt>
      <trkpt lat="43.58161" lon="3.80008">
        <ele>35.8</ele>
        <time>2021-04-13T07:30:07Z</time>
      </trkpt>
      <trkpt lat="43.58161" lon="3.80002">
        <ele>35.8</ele>
        <time>2021-04-13T07:30:08Z</time>
      </trkpt>
      <trkpt lat="43.58161" lon="3.79996">
        <ele>35.8</ele>
        <time>2021-04-13T07:30:09Z</time>
      </trkpt>
      <trkpt lat="43.5816" lon="3.7999">
        <ele>36</ele>
        <time>2021-04-13T07:30:10Z</time>
      </trkpt>
      <trkpt lat="43.5816" lon="3.79984">
        <ele>36</ele>
        <time>2021-04-13T07:30:11Z</time>
      </trkpt>
      <trkpt lat="43.5816" lon="3.79979">
        <ele>36</ele>
        <time>2021-04-13T07:30:12Z</time>
      </trkpt>
      <trkpt lat="43.5816" lon="3.79973">
        <ele>36</ele>
        <time>2021-04-13T07:30:13Z</time>
      </trkpt>
      <trkpt lat="43.58159" lon="3.79967">
        <ele>36</ele>
        <time>2021-04-13T07:30:14Z</time>
      </trkpt>
      <trkpt lat="43.58158" lon="3.79962">
        <ele>36.2</ele>
        <time>2021-04-13T07:30:15Z</time>
      </trkpt>
      <trkpt lat="43.58158" lon="3.79957">
        <ele>36.4</ele>
        <time>2021-04-13T07:30:16Z</time>
      </trkpt>
      <trkpt lat="43.58157" lon="3.79951">
        <ele>36.4</ele>
        <time>2021-04-13T07:30:17Z</time>
      </trkpt>
      <trkpt lat="43.58157" lon="3.79946">
        <ele>36.6</ele>
        <time>2021-04-13T07:30:18Z</time>
      </trkpt>
      <trkpt lat="43.58156" lon="3.7994">
        <ele>36.8</ele>
        <time>2021-04-13T07:30:19Z</time>
      </trkpt>
      <trkpt lat="43.58156" lon="3.79934">
        <ele>37</ele>
        <time>2021-04-13T07:30:20Z</time>
      </trkpt>
      <trkpt lat="43.58155" lon="3.79929">
        <ele>37</ele>
        <time>2021-04-13T07:30:21Z</time>
      </trkpt>
      <trkpt lat="43.58154" lon="3.79924">
        <ele>37</ele>
        <time>2021-04-13T07:30:22Z</time>
      </trkpt>
      <trkpt lat="43.58154" lon="3.79918">
        <ele>37</ele>
        <time>2021-04-13T07:30:23Z</time>
      </trkpt>
      <trkpt lat="43.58153" lon="3.79913">
        <ele>37</ele>
        <time>2021-04-13T07:30:24Z</time>
      </trkpt>
      <trkpt lat="43.58153" lon="3.79907">
        <ele>37.2</ele>
        <time>2021-04-13T07:30:25Z</time>
      </trkpt>
      <trkpt lat="43.58153" lon="3.79902">
        <ele>37.2</ele>
        <time>2021-04-13T07:30:26Z</time>
      </trkpt>
      <trkpt lat="43.58153" lon="3.79897">
        <ele>37</ele>
        <time>2021-04-13T07:30:27Z</time>
      </trkpt>
      <trkpt lat="43.58153" lon="3.79891">
        <ele>37</ele>
        <time>2021-04-13T07:30:28Z</time>
      </trkpt>
      <trkpt lat="43.58154" lon="3.79886">
        <ele>36.8</ele>
        <time>2021-04-13T07:30:29Z</time>
      </trkpt>
      <trkpt lat="43.58156" lon="3.7988">
        <ele>36.6</ele>
        <time>2021-04-13T07:30:30Z</time>
      </trkpt>
      <trkpt lat="43.58159" lon="3.79875">
        <ele>36.4</ele>
        <time>2021-04-13T07:30:31Z</time>
      </trkpt>
      <trkpt lat="43.58162" lon="3.79869">
        <ele>36</ele>
        <time>2021-04-13T07:30:32Z</time>
      </trkpt>
      <trkpt lat="43.58165" lon="3.79865">
        <ele>36</ele>
        <time>2021-04-13T07:30:33Z</time>
      </trkpt>
      <trkpt lat="43.58169" lon="3.7986">
        <ele>35.8</ele>
        <time>2021-04-13T07:30:34Z</time>
      </trkpt>
      <trkpt lat="43.58173" lon="3.79855">
        <ele>35.8</ele>
        <time>2021-04-13T07:30:35Z</time>
      </trkpt>
      <trkpt lat="43.58176" lon="3.79848">
        <ele>35.6</ele>
        <time>2021-04-13T07:30:36Z</time>
      </trkpt>
      <trkpt lat="43.58178" lon="3.79841">
        <ele>35.4</ele>
        <time>2021-04-13T07:30:37Z</time>
      </trkpt>
      <trkpt lat="43.5818" lon="3.79834">
        <ele>35.4</ele>
        <time>2021-04-13T07:30:38Z</time>
      </trkpt>
      <trkpt lat="43.58182" lon="3.79827">
        <ele>35.4</ele>
        <time>2021-04-13T07:30:39Z</time>
      </trkpt>
      <trkpt lat="43.58184" lon="3.79819">
        <ele>35.2</ele>
        <time>2021-04-13T07:30:40Z</time>
      </trkpt>
      <trkpt lat="43.58185" lon="3.79812">
        <ele>35</ele>
        <time>2021-04-13T07:30:41Z</time>
      </trkpt>
      <trkpt lat="43.58187" lon="3.79804">
        <ele>35</ele>
        <time>2021-04-13T07:30:42Z</time>
      </trkpt>
      <trkpt lat="43.58187" lon="3.79797">
        <ele>34.8</ele>
        <time>2021-04-13T07:30:43Z</time>
      </trkpt>
      <trkpt lat="43.58188" lon="3.79789">
        <ele>34.8</ele>
        <time>2021-04-13T07:30:44Z</time>
      </trkpt>
      <trkpt lat="43.58188" lon="3.79781">
        <ele>34.6</ele>
        <time>2021-04-13T07:30:45Z</time>
      </trkpt>
      <trkpt lat="43.58188" lon="3.79773">
        <ele>34.4</ele>
        <time>2021-04-13T07:30:46Z</time>
      </trkpt>
      <trkpt lat="43.58189" lon="3.79765">
        <ele>34.4</ele>
        <time>2021-04-13T07:30:47Z</time>
      </trkpt>
      <trkpt lat="43.5819" lon="3.79758">
        <ele>34.2</ele>
        <time>2021-04-13T07:30:48Z</time>
      </trkpt>
      <trkpt lat="43.58192" lon="3.7975">
        <ele>34</ele>
        <time>2021-04-13T07:30:49Z</time>
      </trkpt>
      <trkpt lat="43.58194" lon="3.79742">
        <ele>33.8</ele>
        <time>2021-04-13T07:30:50Z</time>
      </trkpt>
      <trkpt lat="43.58196" lon="3.79734">
        <ele>33.6</ele>
        <time>2021-04-13T07:30:51Z</time>
      </trkpt>
      <trkpt lat="43.58198" lon="3.79726">
        <ele>33.2</ele>
        <time>2021-04-13T07:30:52Z</time>
      </trkpt>
      <trkpt lat="43.582" lon="3.79717">
        <ele>32.8</ele>
        <time>2021-04-13T07:30:53Z</time>
      </trkpt>
      <trkpt lat="43.58202" lon="3.79709">
        <ele>32.6</ele>
        <time>2021-04-13T07:30:54Z</time>
      </trkpt>
      <trkpt lat="43.58204" lon="3.797">
        <ele>32.4</ele>
        <time>2021-04-13T07:30:55Z</time>
      </trkpt>
      <trkpt lat="43.58206" lon="3.79691">
        <ele>32</ele>
        <time>2021-04-13T07:30:56Z</time>
      </trkpt>
      <trkpt lat="43.58207" lon="3.79681">
        <ele>32</ele>
        <time>2021-04-13T07:30:57Z</time>
      </trkpt>
      <trkpt lat="43.58207" lon="3.79672">
        <ele>31.6</ele>
        <time>2021-04-13T07:30:58Z</time>
      </trkpt>
      <trkpt lat="43.58207" lon="3.79663">
        <ele>31.4</ele>
        <time>2021-04-13T07:30:59Z</time>
      </trkpt>
      <trkpt lat="43.58207" lon="3.79654">
        <ele>31.2</ele>
        <time>2021-04-13T07:31:00Z</time>
      </trkpt>
      <trkpt lat="43.58207" lon="3.79645">
        <ele>31</ele>
        <time>2021-04-13T07:31:01Z</time>
      </trkpt>
      <trkpt lat="43.58207" lon="3.79637">
        <ele>31</ele>
        <time>2021-04-13T07:31:02Z</time>
      </trkpt>
      <trkpt lat="43.58207" lon="3.79627">
        <ele>30.8</ele>
        <time>2021-04-13T07:31:03Z</time>
      </trkpt>
      <trkpt lat="43.58207" lon="3.79619">
        <ele>30.6</ele>
        <time>2021-04-13T07:31:04Z</time>
      </trkpt>
      <trkpt lat="43.58207" lon="3.79609">
        <ele>30.2</ele>
        <time>2021-04-13T07:31:05Z</time>
      </trkpt>
      <trkpt lat="43.58208" lon="3.796">
        <ele>30</ele>
        <time>2021-04-13T07:31:06Z</time>
      </trkpt>
      <trkpt lat="43.58208" lon="3.7959">
        <ele>30</ele>
        <time>2021-04-13T07:31:07Z</time>
      </trkpt>
      <trkpt lat="43.58209" lon="3.7958">
        <ele>29.6</ele>
        <time>2021-04-13T07:31:08Z</time>
      </trkpt>
      <trkpt lat="43.58209" lon="3.7957">
        <ele>29.2</ele>
        <time>2021-04-13T07:31:09Z</time>
      </trkpt>
      <trkpt lat="43.5821" lon="3.7956">
        <ele>28.8</ele>
        <time>2021-04-13T07:31:10Z</time>
      </trkpt>
      <trkpt lat="43.5821" lon="3.7955">
        <ele>28.6</ele>
        <time>2021-04-13T07:31:11Z</time>
      </trkpt>
      <trkpt lat="43.5821" lon="3.79541">
        <ele>28.6</ele>
        <time>2021-04-13T07:31:12Z</time>
      </trkpt>
      <trkpt lat="43.5821" lon="3.79531">
        <ele>28.4</ele>
        <time>2021-04-13T07:31:13Z</time>
      </trkpt>
      <trkpt lat="43.5821" lon="3.79522">
        <ele>28.4</ele>
        <time>2021-04-13T07:31:14Z</time>
      </trkpt>
      <trkpt lat="43.5821" lon="3.79513">
        <ele>28.2</ele>
        <time>2021-04-13T07:31:15Z</time>
      </trkpt>
      <trkpt lat="43.5821" lon="3.79504">
        <ele>28</ele>
        <time>2021-04-13T07:31:16Z</time>
      </trkpt>
      <trkpt lat="43.5821" lon="3.79495">
        <ele>28</ele>
        <time>2021-04-13T07:31:17Z</time>
      </trkpt>
      <trkpt lat="43.5821" lon="3.79486">
        <ele>28</ele>
        <time>2021-04-13T07:31:18Z</time>
      </trkpt>
      <trkpt lat="43.58211" lon="3.79477">
        <ele>28</ele>
        <time>2021-04-13T07:31:19Z</time>
      </trkpt>
      <trkpt lat="43.58211" lon="3.79469">
        <ele>28</ele>
        <time>2021-04-13T07:31:20Z</time>
      </trkpt>
      <trkpt lat="43.58211" lon="3.79462">
        <ele>27.8</ele>
        <time>2021-04-13T07:31:21Z</time>
      </trkpt>
      <trkpt lat="43.58211" lon="3.79453">
        <ele>27.8</ele>
        <time>2021-04-13T07:31:22Z</time>
      </trkpt>
      <trkpt lat="43.5821" lon="3.79446">
        <ele>27.8</ele>
        <time>2021-04-13T07:31:23Z</time>
      </trkpt>
      <trkpt lat="43.58209" lon="3.79439">
        <ele>27.8</ele>
        <time>2021-04-13T07:31:24Z</time>
      </trkpt>
      <trkpt lat="43.58207" lon="3.79431">
        <ele>27.8</ele>
        <time>2021-04-13T07:31:25Z</time>
      </trkpt>
      <trkpt lat="43.58205" lon="3.79424">
        <ele>27.8</ele>
        <time>2021-04-13T07:31:26Z</time>
      </trkpt>
      <trkpt lat="43.58202" lon="3.79419">
        <ele>27.8</ele>
        <time>2021-04-13T07:31:27Z</time>
      </trkpt>
      <trkpt lat="43.58198" lon="3.79414">
        <ele>27.6</ele>
        <time>2021-04-13T07:31:28Z</time>
      </trkpt>
      <trkpt lat="43.58193" lon="3.79409">
        <ele>27.6</ele>
        <time>2021-04-13T07:31:29Z</time>
      </trkpt>
      <trkpt lat="43.58189" lon="3.79403">
        <ele>27.6</ele>
        <time>2021-04-13T07:31:30Z</time>
      </trkpt>
      <trkpt lat="43.58186" lon="3.79397">
        <ele>27.4</ele>
        <time>2021-04-13T07:31:31Z</time>
      </trkpt>
      <trkpt lat="43.58184" lon="3.79389">
        <ele>27.2</ele>
        <time>2021-04-13T07:31:32Z</time>
      </trkpt>
      <trkpt lat="43.58183" lon="3.79382">
        <ele>27.4</ele>
        <time>2021-04-13T07:31:33Z</time>
      </trkpt>
      <trkpt lat="43.58184" lon="3.79375">
        <ele>27.6</ele>
        <time>2021-04-13T07:31:34Z</time>
      </trkpt>
      <trkpt lat="43.58187" lon="3.79368">
        <ele>27.8</ele>
        <time>2021-04-13T07:31:35Z</time>
      </trkpt>
      <trkpt lat="43.58189" lon="3.79362">
        <ele>27.8</ele>
        <time>2021-04-13T07:31:36Z</time>
      </trkpt>
      <trkpt lat="43.58192" lon="3.79355">
        <ele>27.6</ele>
        <time>2021-04-13T07:31:37Z</time>
      </trkpt>
      <trkpt lat="43.58194" lon="3.79349">
        <ele>27.6</ele>
        <time>2021-04-13T07:31:38Z</time>
      </trkpt>
      <trkpt lat="43.58197" lon="3.79342">
        <ele>27.8</ele>
        <time>2021-04-13T07:31:39Z</time>
      </trkpt>
      <trkpt lat="43.58198" lon="3.79335">
        <ele>27.8</ele>
        <time>2021-04-13T07:31:40Z</time>
      </trkpt>
      <trkpt lat="43.58199" lon="3.79327">
        <ele>27.8</ele>
        <time>2021-04-13T07:31:41Z</time>
      </trkpt>
      <trkpt lat="43.58199" lon="3.7932">
        <ele>27.8</ele>
        <time>2021-04-13T07:31:42Z</time>
      </trkpt>
      <trkpt lat="43.58198" lon="3.79313">
        <ele>27.6</ele>
        <time>2021-04-13T07:31:43Z</time>
      </trkpt>
      <trkpt lat="43.58197" lon="3.79305">
        <ele>27.8</ele>
        <time>2021-04-13T07:31:44Z</time>
      </trkpt>
      <trkpt lat="43.58195" lon="3.79298">
        <ele>28</ele>
        <time>2021-04-13T07:31:45Z</time>
      </trkpt>
      <trkpt lat="43.58193" lon="3.79291">
        <ele>28</ele>
        <time>2021-04-13T07:31:46Z</time>
      </trkpt>
      <trkpt lat="43.58192" lon="3.79284">
        <ele>28</ele>
        <time>2021-04-13T07:31:47Z</time>
      </trkpt>
      <trkpt lat="43.5819" lon="3.79277">
        <ele>27.8</ele>
        <time>2021-04-13T07:31:48Z</time>
      </trkpt>
      <trkpt lat="43.58189" lon="3.7927">
        <ele>28</ele>
        <time>2021-04-13T07:31:49Z</time>
      </trkpt>
      <trkpt lat="43.58188" lon="3.79263">
        <ele>27.8</ele>
        <time>2021-04-13T07:31:50Z</time>
      </trkpt>
      <trkpt lat="43.58187" lon="3.79256">
        <ele>27.8</ele>
        <time>2021-04-13T07:31:51Z</time>
      </trkpt>
      <trkpt lat="43.58187" lon="3.79249">
        <ele>28</ele>
        <time>2021-04-13T07:31:52Z</time>
      </trkpt>
      <trkpt lat="43.58187" lon="3.79242">
        <ele>28.2</ele>
        <time>2021-04-13T07:31:53Z</time>
      </trkpt>
      <trkpt lat="43.58187" lon="3.79235">
        <ele>28</ele>
        <time>2021-04-13T07:31:54Z</time>
      </trkpt>
      <trkpt lat="43.58187" lon="3.79228">
        <ele>28</ele>
        <time>2021-04-13T07:31:55Z</time>
      </trkpt>
      <trkpt lat="43.58188" lon="3.79222">
        <ele>28</ele>
        <time>2021-04-13T07:31:56Z</time>
      </trkpt>
      <trkpt lat="43.58188" lon="3.79215">
        <ele>28</ele>
        <time>2021-04-13T07:31:57Z</time>
      </trkpt>
      <trkpt lat="43.58189" lon="3.79208">
        <ele>28</ele>
        <time>2021-04-13T07:31:58Z</time>
      </trkpt>
      <trkpt lat="43.5819" lon="3.79201">
        <ele>28.2</ele>
        <time>2021-04-13T07:31:59Z</time>
      </trkpt>
      <trkpt lat="43.5819" lon="3.79195">
        <ele>28.2</ele>
        <time>2021-04-13T07:32:00Z</time>
      </trkpt>
      <trkpt lat="43.58191" lon="3.79188">
        <ele>28.4</ele>
        <time>2021-04-13T07:32:01Z</time>
      </trkpt>
      <trkpt lat="43.58191" lon="3.79182">
        <ele>28.2</ele>
        <time>2021-04-13T07:32:02Z</time>
      </trkpt>
      <trkpt lat="43.58192" lon="3.79175">
        <ele>28.4</ele>
        <time>2021-04-13T07:32:03Z</time>
      </trkpt>
      <trkpt lat="43.58193" lon="3.79169">
        <ele>28.4</ele>
        <time>2021-04-13T07:32:04Z</time>
      </trkpt>
      <trkpt lat="43.58194" lon="3.79163">
        <ele>28.6</ele>
        <time>2021-04-13T07:32:05Z</time>
      </trkpt>
      <trkpt lat="43.58194" lon="3.79156">
        <ele>28.6</ele>
        <time>2021-04-13T07:32:06Z</time>
      </trkpt>
      <trkpt lat="43.58195" lon="3.7915">
        <ele>28.6</ele>
        <time>2021-04-13T07:32:07Z</time>
      </trkpt>
      <trkpt lat="43.58196" lon="3.79144">
        <ele>28.8</ele>
        <time>2021-04-13T07:32:08Z</time>
      </trkpt>
      <trkpt lat="43.58197" lon="3.79138">
        <ele>28.6</ele>
        <time>2021-04-13T07:32:09Z</time>
      </trkpt>
      <trkpt lat="43.58198" lon="3.79132">
        <ele>28.8</ele>
        <time>2021-04-13T07:32:10Z</time>
      </trkpt>
      <trkpt lat="43.58199" lon="3.79126">
        <ele>28.8</ele>
        <time>2021-04-13T07:32:11Z</time>
      </trkpt>
      <trkpt lat="43.582" lon="3.7912">
        <ele>29</ele>
        <time>2021-04-13T07:32:12Z</time>
      </trkpt>
      <trkpt lat="43.58201" lon="3.79115">
        <ele>29</ele>
        <time>2021-04-13T07:32:13Z</time>
      </trkpt>
      <trkpt lat="43.58201" lon="3.79109">
        <ele>29</ele>
        <time>2021-04-13T07:32:14Z</time>
      </trkpt>
      <trkpt lat="43.58202" lon="3.79104">
        <ele>29.2</ele>
        <time>2021-04-13T07:32:15Z</time>
      </trkpt>
      <trkpt lat="43.58202" lon="3.79098">
        <ele>29.2</ele>
        <time>2021-04-13T07:32:16Z</time>
      </trkpt>
      <trkpt lat="43.58203" lon="3.79093">
        <ele>29.4</ele>
        <time>2021-04-13T07:32:17Z</time>
      </trkpt>
      <trkpt lat="43.58204" lon="3.79087">
        <ele>29.4</ele>
        <time>2021-04-13T07:32:18Z</time>
      </trkpt>
      <trkpt lat="43.58204" lon="3.79082">
        <ele>29.8</ele>
        <time>2021-04-13T07:32:19Z</time>
      </trkpt>
      <trkpt lat="43.58205" lon="3.79077">
        <ele>29.8</ele>
        <time>2021-04-13T07:32:20Z</time>
      </trkpt>
      <trkpt lat="43.58205" lon="3.79072">
        <ele>29.8</ele>
        <time>2021-04-13T07:32:21Z</time>
      </trkpt>
      <trkpt lat="43.58206" lon="3.79066">
        <ele>29.8</ele>
        <time>2021-04-13T07:32:22Z</time>
      </trkpt>
      <trkpt lat="43.58206" lon="3.79061">
        <ele>30</ele>
        <time>2021-04-13T07:32:23Z</time>
      </trkpt>
      <trkpt lat="43.58206" lon="3.79057">
        <ele>30.2</ele>
        <time>2021-04-13T07:32:24Z</time>
      </trkpt>
      <trkpt lat="43.58207" lon="3.79052">
        <ele>30.2</ele>
        <time>2021-04-13T07:32:25Z</time>
      </trkpt>
      <trkpt lat="43.58207" lon="3.79048">
        <ele>30.6</ele>
        <time>2021-04-13T07:32:26Z</time>
      </trkpt>
      <trkpt lat="43.58207" lon="3.79043">
        <ele>30.6</ele>
        <time>2021-04-13T07:32:27Z</time>
      </trkpt>
      <trkpt lat="43.58207" lon="3.79039">
        <ele>30.8</ele>
        <time>2021-04-13T07:32:28Z</time>
      </trkpt>
      <trkpt lat="43.58207" lon="3.79035">
        <ele>31</ele>
        <time>2021-04-13T07:32:29Z</time>
      </trkpt>
      <trkpt lat="43.58207" lon="3.79031">
        <ele>31.2</ele>
        <time>2021-04-13T07:32:30Z</time>
      </trkpt>
      <trkpt lat="43.58207" lon="3.79027">
        <ele>31.4</ele>
        <time>2021-04-13T07:32:31Z</time>
      </trkpt>
      <trkpt lat="43.58207" lon="3.79023">
        <ele>31.6</ele>
        <time>2021-04-13T07:32:32Z</time>
      </trkpt>
      <trkpt lat="43.58206" lon="3.79019">
        <ele>31.6</ele>
        <time>2021-04-13T07:32:33Z</time>
      </trkpt>
      <trkpt lat="43.58206" lon="3.79015">
        <ele>31.8</ele>
        <time>2021-04-13T07:32:34Z</time>
      </trkpt>
      <trkpt lat="43.58205" lon="3.79011">
        <ele>31.8</ele>
        <time>2021-04-13T07:32:35Z</time>
      </trkpt>
      <trkpt lat="43.58204" lon="3.79008">
        <ele>32</ele>
        <time>2021-04-13T07:32:36Z</time>
      </trkpt>
      <trkpt lat="43.58203" lon="3.79004">
        <ele>32.2</ele>
        <time>2021-04-13T07:32:37Z</time>
      </trkpt>
      <trkpt lat="43.58202" lon="3.79001">
        <ele>32.4</ele>
        <time>2021-04-13T07:32:38Z</time>
      </trkpt>
      <trkpt lat="43.58201" lon="3.78998">
        <ele>32.6</ele>
        <time>2021-04-13T07:32:39Z</time>
      </trkpt>
      <trkpt lat="43.582" lon="3.78995">
        <ele>33</ele>
        <time>2021-04-13T07:32:40Z</time>
      </trkpt>
      <trkpt lat="43.58199" lon="3.78993">
        <ele>33.2</ele>
        <time>2021-04-13T07:32:41Z</time>
      </trkpt>
      <trkpt lat="43.58197" lon="3.7899">
        <ele>33.4</ele>
        <time>2021-04-13T07:32:42Z</time>
      </trkpt>
      <trkpt lat="43.58196" lon="3.78988">
        <ele>33.6</ele>
        <time>2021-04-13T07:32:43Z</time>
      </trkpt>
      <trkpt lat="43.58195" lon="3.78986">
        <ele>33.8</ele>
        <time>2021-04-13T07:32:44Z</time>
      </trkpt>
      <trkpt lat="43.58194" lon="3.78984">
        <ele>34</ele>
        <time>2021-04-13T07:32:45Z</time>
      </trkpt>
      <trkpt lat="43.58193" lon="3.78982">
        <ele>34.2</ele>
        <time>2021-04-13T07:32:46Z</time>
      </trkpt>
      <trkpt lat="43.58192" lon="3.78981">
        <ele>34.2</ele>
        <time>2021-04-13T07:32:47Z</time>
      </trkpt>
      <trkpt lat="43.5819" lon="3.78979">
        <ele>34.2</ele>
        <time>2021-04-13T07:32:48Z</time>
      </trkpt>
      <trkpt lat="43.58189" lon="3.78977">
        <ele>34.4</ele>
        <time>2021-04-13T07:32:49Z</time>
      </trkpt>
      <trkpt lat="43.58187" lon="3.78975">
        <ele>34.6</ele>
        <time>2021-04-13T07:32:50Z</time>
      </trkpt>
      <trkpt lat="43.58185" lon="3.78973">
        <ele>34.4</ele>
        <time>2021-04-13T07:32:51Z</time>
      </trkpt>
      <trkpt lat="43.58183" lon="3.7897">
        <ele>34.4</ele>
        <time>2021-04-13T07:32:52Z</time>
      </trkpt>
      <trkpt lat="43.5818" lon="3.78968">
        <ele>34.2</ele>
        <time>2021-04-13T07:32:53Z</time>
      </trkpt>
      <trkpt lat="43.58177" lon="3.78965">
        <ele>34.2</ele>
        <time>2021-04-13T07:32:54Z</time>
      </trkpt>
      <trkpt lat="43.58175" lon="3.78961">
        <ele>34.2</ele>
        <time>2021-04-13T07:32:55Z</time>
      </trkpt>
      <trkpt lat="43.58171" lon="3.78958">
        <ele>34</ele>
        <time>2021-04-13T07:32:56Z</time>
      </trkpt>
      <trkpt lat="43.58168" lon="3.78954">
        <ele>34</ele>
        <time>2021-04-13T07:32:57Z</time>
      </trkpt>
      <trkpt lat="43.58165" lon="3.78951">
        <ele>34</ele>
        <time>2021-04-13T07:32:58Z</time>
      </trkpt>
      <trkpt lat="43.58161" lon="3.78947">
        <ele>34</ele>
        <time>2021-04-13T07:32:59Z</time>
      </trkpt>
      <trkpt lat="43.58158" lon="3.78943">
        <ele>34</ele>
        <time>2021-04-13T07:33:00Z</time>
      </trkpt>
      <trkpt lat="43.58154" lon="3.78939">
        <ele>33.6</ele>
        <time>2021-04-13T07:33:01Z</time>
      </trkpt>
      <trkpt lat="43.5815" lon="3.78936">
        <ele>33.6</ele>
        <time>2021-04-13T07:33:02Z</time>
      </trkpt>
      <trkpt lat="43.58146" lon="3.78932">
        <ele>33.6</ele>
        <time>2021-04-13T07:33:03Z</time>
      </trkpt>
      <trkpt lat="43.58141" lon="3.78929">
        <ele>33.6</ele>
        <time>2021-04-13T07:33:04Z</time>
      </trkpt>
      <trkpt lat="43.58137" lon="3.78926">
        <ele>33.2</ele>
        <time>2021-04-13T07:33:05Z</time>
      </trkpt>
      <trkpt lat="43.58132" lon="3.78923">
        <ele>33.2</ele>
        <time>2021-04-13T07:33:06Z</time>
      </trkpt>
      <trkpt lat="43.58127" lon="3.78921">
        <ele>33</ele>
        <time>2021-04-13T07:33:07Z</time>
      </trkpt>
      <trkpt lat="43.58122" lon="3.78918">
        <ele>33</ele>
        <time>2021-04-13T07:33:08Z</time>
      </trkpt>
      <trkpt lat="43.58117" lon="3.78916">
        <ele>33.4</ele>
        <time>2021-04-13T07:33:09Z</time>
      </trkpt>
      <trkpt lat="43.58113" lon="3.78913">
        <ele>33.2</ele>
        <time>2021-04-13T07:33:10Z</time>
      </trkpt>
      <trkpt lat="43.58108" lon="3.78911">
        <ele>33</ele>
        <time>2021-04-13T07:33:11Z</time>
      </trkpt>
      <trkpt lat="43.58104" lon="3.78908">
        <ele>33</ele>
        <time>2021-04-13T07:33:12Z</time>
      </trkpt>
      <trkpt lat="43.58099" lon="3.78905">
        <ele>33</ele>
        <time>2021-04-13T07:33:13Z</time>
      </trkpt>
      <trkpt lat="43.58095" lon="3.78902">
        <ele>33</ele>
        <time>2021-04-13T07:33:14Z</time>
      </trkpt>
      <trkpt lat="43.58091" lon="3.789">
        <ele>33</ele>
        <time>2021-04-13T07:33:15Z</time>
      </trkpt>
      <trkpt lat="43.58087" lon="3.78898">
        <ele>32.8</ele>
        <time>2021-04-13T07:33:16Z</time>
      </trkpt>
      <trkpt lat="43.58083" lon="3.78896">
        <ele>33</ele>
        <time>2021-04-13T07:33:17Z</time>
      </trkpt>
      <trkpt lat="43.58079" lon="3.78893">
        <ele>33</ele>
        <time>2021-04-13T07:33:18Z</time>
      </trkpt>
      <trkpt lat="43.58075" lon="3.78891">
        <ele>33.2</ele>
        <time>2021-04-13T07:33:19Z</time>
      </trkpt>
      <trkpt lat="43.58071" lon="3.78888">
        <ele>33.2</ele>
        <time>2021-04-13T07:33:20Z</time>
      </trkpt>
      <trkpt lat="43.58067" lon="3.78885">
        <ele>33.2</ele>
        <time>2021-04-13T07:33:21Z</time>
      </trkpt>
      <trkpt lat="43.58063" lon="3.78883">
        <ele>33</ele>
        <time>2021-04-13T07:33:22Z</time>
      </trkpt>
      <trkpt lat="43.5806" lon="3.7888">
        <ele>33</ele>
        <time>2021-04-13T07:33:23Z</time>
      </trkpt>
      <trkpt lat="43.58056" lon="3.78878">
        <ele>33</ele>
        <time>2021-04-13T07:33:24Z</time>
      </trkpt>
      <trkpt lat="43.58052" lon="3.78875">
        <ele>33</ele>
        <time>2021-04-13T07:33:25Z</time>
      </trkpt>
      <trkpt lat="43.58048" lon="3.78872">
        <ele>33</ele>
        <time>2021-04-13T07:33:26Z</time>
      </trkpt>
      <trkpt lat="43.58044" lon="3.7887">
        <ele>32.8</ele>
        <time>2021-04-13T07:33:27Z</time>
      </trkpt>
      <trkpt lat="43.58041" lon="3.78867">
        <ele>32.8</ele>
        <time>2021-04-13T07:33:28Z</time>
      </trkpt>
      <trkpt lat="43.58037" lon="3.78865">
        <ele>32.6</ele>
        <time>2021-04-13T07:33:29Z</time>
      </trkpt>
      <trkpt lat="43.58033" lon="3.78862">
        <ele>32.6</ele>
        <time>2021-04-13T07:33:30Z</time>
      </trkpt>
      <trkpt lat="43.58029" lon="3.78858">
        <ele>32.6</ele>
        <time>2021-04-13T07:33:31Z</time>
      </trkpt>
      <trkpt lat="43.58025" lon="3.78855">
        <ele>32.6</ele>
        <time>2021-04-13T07:33:32Z</time>
      </trkpt>
      <trkpt lat="43.58021" lon="3.78851">
        <ele>32.6</ele>
        <time>2021-04-13T07:33:33Z</time>
      </trkpt>
      <trkpt lat="43.58017" lon="3.78847">
        <ele>32.6</ele>
        <time>2021-04-13T07:33:34Z</time>
      </trkpt>
      <trkpt lat="43.58013" lon="3.78843">
        <ele>32.8</ele>
        <time>2021-04-13T07:33:35Z</time>
      </trkpt>
      <trkpt lat="43.58009" lon="3.78838">
        <ele>32.8</ele>
        <time>2021-04-13T07:33:36Z</time>
      </trkpt>
      <trkpt lat="43.58005" lon="3.78834">
        <ele>32.8</ele>
        <time>2021-04-13T07:33:37Z</time>
      </trkpt>
      <trkpt lat="43.58001" lon="3.78829">
        <ele>32.8</ele>
        <time>2021-04-13T07:33:38Z</time>
      </trkpt>
      <trkpt lat="43.57997" lon="3.78823">
        <ele>33</ele>
        <time>2021-04-13T07:33:39Z</time>
      </trkpt>
      <trkpt lat="43.57993" lon="3.78818">
        <ele>33</ele>
        <time>2021-04-13T07:33:40Z</time>
      </trkpt>
      <trkpt lat="43.57989" lon="3.78813">
        <ele>32.8</ele>
        <time>2021-04-13T07:33:41Z</time>
      </trkpt>
      <trkpt lat="43.57985" lon="3.78807">
        <ele>33</ele>
        <time>2021-04-13T07:33:42Z</time>
      </trkpt>
      <trkpt lat="43.57982" lon="3.78802">
        <ele>33</ele>
        <time>2021-04-13T07:33:43Z</time>
      </trkpt>
      <trkpt lat="43.57978" lon="3.78797">
        <ele>32.8</ele>
        <time>2021-04-13T07:33:44Z</time>
      </trkpt>
      <trkpt lat="43.57974" lon="3.78791">
        <ele>33</ele>
        <time>2021-04-13T07:33:45Z</time>
      </trkpt>
      <trkpt lat="43.5797" lon="3.78785">
        <ele>32.8</ele>
        <time>2021-04-13T07:33:46Z</time>
      </trkpt>
      <trkpt lat="43.57967" lon="3.78779">
        <ele>32.8</ele>
        <time>2021-04-13T07:33:47Z</time>
      </trkpt>
      <trkpt lat="43.57964" lon="3.78774">
        <ele>32.8</ele>
        <time>2021-04-13T07:33:48Z</time>
      </trkpt>
      <trkpt lat="43.5796" lon="3.78768">
        <ele>32.8</ele>
        <time>2021-04-13T07:33:49Z</time>
      </trkpt>
      <trkpt lat="43.57957" lon="3.78763">
        <ele>32.8</ele>
        <time>2021-04-13T07:33:50Z</time>
      </trkpt>
      <trkpt lat="43.57953" lon="3.78757">
        <ele>32.8</ele>
        <time>2021-04-13T07:33:51Z</time>
      </trkpt>
      <trkpt lat="43.57949" lon="3.78752">
        <ele>32.6</ele>
        <time>2021-04-13T07:33:52Z</time>
      </trkpt>
      <trkpt lat="43.57946" lon="3.78747">
        <ele>32.8</ele>
        <time>2021-04-13T07:33:53Z</time>
      </trkpt>
      <trkpt lat="43.57942" lon="3.78742">
        <ele>32.8</ele>
        <time>2021-04-13T07:33:54Z</time>
      </trkpt>
      <trkpt lat="43.57939" lon="3.78736">
        <ele>32.6</ele>
        <time>2021-04-13T07:33:55Z</time>
      </trkpt>
      <trkpt lat="43.57935" lon="3.78731">
        <ele>32.4</ele>
        <time>2021-04-13T07:33:56Z</time>
      </trkpt>
      <trkpt lat="43.57932" lon="3.78726">
        <ele>32.6</ele>
        <time>2021-04-13T07:33:57Z</time>
      </trkpt>
      <trkpt lat="43.57928" lon="3.7872">
        <ele>32.6</ele>
        <time>2021-04-13T07:33:58Z</time>
      </trkpt>
      <trkpt lat="43.57925" lon="3.78715">
        <ele>32.4</ele>
        <time>2021-04-13T07:33:59Z</time>
      </trkpt>
      <trkpt lat="43.57921" lon="3.7871">
        <ele>32.4</ele>
        <time>2021-04-13T07:34:00Z</time>
      </trkpt>
      <trkpt lat="43.57918" lon="3.78704">
        <ele>32.4</ele>
        <time>2021-04-13T07:34:01Z</time>
      </trkpt>
      <trkpt lat="43.57914" lon="3.78699">
        <ele>32.4</ele>
        <time>2021-04-13T07:34:02Z</time>
      </trkpt>
      <trkpt lat="43.5791" lon="3.78693">
        <ele>32.4</ele>
        <time>2021-04-13T07:34:03Z</time>
      </trkpt>
      <trkpt lat="43.57906" lon="3.78687">
        <ele>32.4</ele>
        <time>2021-04-13T07:34:04Z</time>
      </trkpt>
      <trkpt lat="43.57902" lon="3.78681">
        <ele>32.4</ele>
        <time>2021-04-13T07:34:05Z</time>
      </trkpt>
      <trkpt lat="43.57899" lon="3.78676">
        <ele>32.6</ele>
        <time>2021-04-13T07:34:06Z</time>
      </trkpt>
      <trkpt lat="43.57895" lon="3.7867">
        <ele>32.4</ele>
        <time>2021-04-13T07:34:07Z</time>
      </trkpt>
      <trkpt lat="43.57891" lon="3.78664">
        <ele>32.4</ele>
        <time>2021-04-13T07:34:08Z</time>
      </trkpt>
      <trkpt lat="43.57887" lon="3.78659">
        <ele>32.4</ele>
        <time>2021-04-13T07:34:09Z</time>
      </trkpt>
      <trkpt lat="43.57883" lon="3.78653">
        <ele>32.2</ele>
        <time>2021-04-13T07:34:10Z</time>
      </trkpt>
      <trkpt lat="43.57879" lon="3.78648">
        <ele>32.2</ele>
        <time>2021-04-13T07:34:11Z</time>
      </trkpt>
      <trkpt lat="43.57875" lon="3.78642">
        <ele>32.2</ele>
        <time>2021-04-13T07:34:12Z</time>
      </trkpt>
      <trkpt lat="43.57871" lon="3.78637">
        <ele>32.2</ele>
        <time>2021-04-13T07:34:13Z</time>
      </trkpt>
      <trkpt lat="43.57867" lon="3.78631">
        <ele>32.4</ele>
        <time>2021-04-13T07:34:14Z</time>
      </trkpt>
      <trkpt lat="43.57863" lon="3.78626">
        <ele>32.4</ele>
        <time>2021-04-13T07:34:15Z</time>
      </trkpt>
      <trkpt lat="43.57859" lon="3.78621">
        <ele>32.2</ele>
        <time>2021-04-13T07:34:16Z</time>
      </trkpt>
      <trkpt lat="43.57855" lon="3.78616">
        <ele>32.2</ele>
        <time>2021-04-13T07:34:17Z</time>
      </trkpt>
      <trkpt lat="43.57851" lon="3.78611">
        <ele>32.2</ele>
        <time>2021-04-13T07:34:18Z</time>
      </trkpt>
      <trkpt lat="43.57847" lon="3.78606">
        <ele>32.2</ele>
        <time>2021-04-13T07:34:19Z</time>
      </trkpt>
      <trkpt lat="43.57843" lon="3.786">
        <ele>32.2</ele>
        <time>2021-04-13T07:34:20Z</time>
      </trkpt>
      <trkpt lat="43.57839" lon="3.78595">
        <ele>32.2</ele>
        <time>2021-04-13T07:34:21Z</time>
      </trkpt>
      <trkpt lat="43.57834" lon="3.7859">
        <ele>32.2</ele>
        <time>2021-04-13T07:34:22Z</time>
      </trkpt>
      <trkpt lat="43.5783" lon="3.78585">
        <ele>32.2</ele>
        <time>2021-04-13T07:34:23Z</time>
      </trkpt>
      <trkpt lat="43.57826" lon="3.7858">
        <ele>32.2</ele>
        <time>2021-04-13T07:34:24Z</time>
      </trkpt>
      <trkpt lat="43.57822" lon="3.78574">
        <ele>32.2</ele>
        <time>2021-04-13T07:34:25Z</time>
      </trkpt>
      <trkpt lat="43.57818" lon="3.78569">
        <ele>32.2</ele>
        <time>2021-04-13T07:34:26Z</time>
      </trkpt>
      <trkpt lat="43.57814" lon="3.78564">
        <ele>32.2</ele>
        <time>2021-04-13T07:34:27Z</time>
      </trkpt>
      <trkpt lat="43.5781" lon="3.78559">
        <ele>32.2</ele>
        <time>2021-04-13T07:34:28Z</time>
      </trkpt>
      <trkpt lat="43.57805" lon="3.78554">
        <ele>32</ele>
        <time>2021-04-13T07:34:29Z</time>
      </trkpt>
      <trkpt lat="43.57801" lon="3.78549">
        <ele>32</ele>
        <time>2021-04-13T07:34:30Z</time>
      </trkpt>
      <trkpt lat="43.57797" lon="3.78544">
        <ele>32</ele>
        <time>2021-04-13T07:34:31Z</time>
      </trkpt>
      <trkpt lat="43.57792" lon="3.78539">
        <ele>31.8</ele>
        <time>2021-04-13T07:34:32Z</time>
      </trkpt>
      <trkpt lat="43.57788" lon="3.78534">
        <ele>31.8</ele>
        <time>2021-04-13T07:34:33Z</time>
      </trkpt>
      <trkpt lat="43.57783" lon="3.78529">
        <ele>31.8</ele>
        <time>2021-04-13T07:34:34Z</time>
      </trkpt>
      <trkpt lat="43.57779" lon="3.78524">
        <ele>31.8</ele>
        <time>2021-04-13T07:34:35Z</time>
      </trkpt>
      <trkpt lat="43.57774" lon="3.78519">
        <ele>31.6</ele>
        <time>2021-04-13T07:34:36Z</time>
      </trkpt>
      <trkpt lat="43.5777" lon="3.78514">
        <ele>31.4</ele>
        <time>2021-04-13T07:34:37Z</time>
      </trkpt>
      <trkpt lat="43.57765" lon="3.78509">
        <ele>31.4</ele>
        <time>2021-04-13T07:34:38Z</time>
      </trkpt>
      <trkpt lat="43.5776" lon="3.78504">
        <ele>31.4</ele>
        <time>2021-04-13T07:34:39Z</time>
      </trkpt>
      <trkpt lat="43.57756" lon="3.78499">
        <ele>31.2</ele>
        <time>2021-04-13T07:34:40Z</time>
      </trkpt>
      <trkpt lat="43.57751" lon="3.78494">
        <ele>31.4</ele>
        <time>2021-04-13T07:34:41Z</time>
      </trkpt>
      <trkpt lat="43.57746" lon="3.78489">
        <ele>31.2</ele>
        <time>2021-04-13T07:34:42Z</time>
      </trkpt>
      <trkpt lat="43.57741" lon="3.78484">
        <ele>31.2</ele>
        <time>2021-04-13T07:34:43Z</time>
      </trkpt>
      <trkpt lat="43.57736" lon="3.78479">
        <ele>31.2</ele>
        <time>2021-04-13T07:34:44Z</time>
      </trkpt>
      <trkpt lat="43.57732" lon="3.78474">
        <ele>31.2</ele>
        <time>2021-04-13T07:34:45Z</time>
      </trkpt>
      <trkpt lat="43.57727" lon="3.78469">
        <ele>31.2</ele>
        <time>2021-04-13T07:34:46Z</time>
      </trkpt>
      <trkpt lat="43.57723" lon="3.78464">
        <ele>31</ele>
        <time>2021-04-13T07:34:47Z</time>
      </trkpt>
      <trkpt lat="43.57718" lon="3.7846">
        <ele>31</ele>
        <time>2021-04-13T07:34:48Z</time>
      </trkpt>
      <trkpt lat="43.57714" lon="3.78455">
        <ele>30.8</ele>
        <time>2021-04-13T07:34:49Z</time>
      </trkpt>
      <trkpt lat="43.57709" lon="3.7845">
        <ele>30.8</ele>
        <time>2021-04-13T07:34:50Z</time>
      </trkpt>
      <trkpt lat="43.57704" lon="3.78445">
        <ele>30.8</ele>
        <time>2021-04-13T07:34:51Z</time>
      </trkpt>
      <trkpt lat="43.577" lon="3.7844">
        <ele>30.8</ele>
        <time>2021-04-13T07:34:52Z</time>
      </trkpt>
      <trkpt lat="43.57695" lon="3.78435">
        <ele>30.8</ele>
        <time>2021-04-13T07:34:53Z</time>
      </trkpt>
      <trkpt lat="43.57691" lon="3.78431">
        <ele>31</ele>
        <time>2021-04-13T07:34:54Z</time>
      </trkpt>
      <trkpt lat="43.57686" lon="3.78426">
        <ele>31</ele>
        <time>2021-04-13T07:34:55Z</time>
      </trkpt>
      <trkpt lat="43.57681" lon="3.78421">
        <ele>31</ele>
        <time>2021-04-13T07:34:56Z</time>
      </trkpt>
      <trkpt lat="43.57677" lon="3.78417">
        <ele>30.8</ele>
        <time>2021-04-13T07:34:57Z</time>
      </trkpt>
      <trkpt lat="43.57673" lon="3.78412">
        <ele>30.6</ele>
        <time>2021-04-13T07:34:58Z</time>
      </trkpt>
      <trkpt lat="43.57668" lon="3.78407">
        <ele>30.6</ele>
        <time>2021-04-13T07:34:59Z</time>
      </trkpt>
      <trkpt lat="43.57664" lon="3.78403">
        <ele>30.6</ele>
        <time>2021-04-13T07:35:00Z</time>
      </trkpt>
      <trkpt lat="43.5766" lon="3.78398">
        <ele>30.6</ele>
        <time>2021-04-13T07:35:01Z</time>
      </trkpt>
      <trkpt lat="43.57656" lon="3.78393">
        <ele>30.6</ele>
        <time>2021-04-13T07:35:02Z</time>
      </trkpt>
      <trkpt lat="43.57651" lon="3.78388">
        <ele>30.8</ele>
        <time>2021-04-13T07:35:03Z</time>
      </trkpt>
      <trkpt lat="43.57647" lon="3.78383">
        <ele>30.6</ele>
        <time>2021-04-13T07:35:04Z</time>
      </trkpt>
      <trkpt lat="43.57643" lon="3.78378">
        <ele>30.6</ele>
        <time>2021-04-13T07:35:05Z</time>
      </trkpt>
      <trkpt lat="43.57638" lon="3.78373">
        <ele>30.6</ele>
        <time>2021-04-13T07:35:06Z</time>
      </trkpt>
      <trkpt lat="43.57634" lon="3.78369">
        <ele>30.4</ele>
        <time>2021-04-13T07:35:07Z</time>
      </trkpt>
      <trkpt lat="43.57629" lon="3.78363">
        <ele>30.4</ele>
        <time>2021-04-13T07:35:08Z</time>
      </trkpt>
      <trkpt lat="43.57625" lon="3.78358">
        <ele>30.4</ele>
        <time>2021-04-13T07:35:09Z</time>
      </trkpt>
      <trkpt lat="43.5762" lon="3.78353">
        <ele>30.2</ele>
        <time>2021-04-13T07:35:10Z</time>
      </trkpt>
      <trkpt lat="43.57615" lon="3.78348">
        <ele>30.2</ele>
        <time>2021-04-13T07:35:11Z</time>
      </trkpt>
      <trkpt lat="43.5761" lon="3.78343">
        <ele>30.2</ele>
        <time>2021-04-13T07:35:12Z</time>
      </trkpt>
      <trkpt lat="43.57606" lon="3.78338">
        <ele>30.2</ele>
        <time>2021-04-13T07:35:13Z</time>
      </trkpt>
      <trkpt lat="43.57601" lon="3.78333">
        <ele>30</ele>
        <time>2021-04-13T07:35:14Z</time>
      </trkpt>
      <trkpt lat="43.57596" lon="3.78328">
        <ele>30</ele>
        <time>2021-04-13T07:35:15Z</time>
      </trkpt>
      <trkpt lat="43.57592" lon="3.78323">
        <ele>30</ele>
        <time>2021-04-13T07:35:16Z</time>
      </trkpt>
      <trkpt lat="43.57587" lon="3.78318">
        <ele>29.8</ele>
        <time>2021-04-13T07:35:17Z</time>
      </trkpt>
      <trkpt lat="43.57582" lon="3.78313">
        <ele>29.8</ele>
        <time>2021-04-13T07:35:18Z</time>
      </trkpt>
      <trkpt lat="43.57578" lon="3.78308">
        <ele>29.6</ele>
        <time>2021-04-13T07:35:19Z</time>
      </trkpt>
      <trkpt lat="43.57573" lon="3.78303">
        <ele>29.6</ele>
        <time>2021-04-13T07:35:20Z</time>
      </trkpt>
      <trkpt lat="43.57568" lon="3.78298">
        <ele>29.4</ele>
        <time>2021-04-13T07:35:21Z</time>
      </trkpt>
      <trkpt lat="43.57564" lon="3.78293">
        <ele>29.4</ele>
        <time>2021-04-13T07:35:22Z</time>
      </trkpt>
      <trkpt lat="43.57559" lon="3.78288">
        <ele>29.4</ele>
        <time>2021-04-13T07:35:23Z</time>
      </trkpt>
      <trkpt lat="43.57555" lon="3.78283">
        <ele>29.2</ele>
        <time>2021-04-13T07:35:24Z</time>
      </trkpt>
      <trkpt lat="43.5755" lon="3.78278">
        <ele>29.2</ele>
        <time>2021-04-13T07:35:25Z</time>
      </trkpt>
      <trkpt lat="43.57545" lon="3.78274">
        <ele>29.2</ele>
        <time>2021-04-13T07:35:26Z</time>
      </trkpt>
      <trkpt lat="43.57541" lon="3.78269">
        <ele>29</ele>
        <time>2021-04-13T07:35:27Z</time>
      </trkpt>
      <trkpt lat="43.57536" lon="3.78264">
        <ele>29</ele>
        <time>2021-04-13T07:35:28Z</time>
      </trkpt>
      <trkpt lat="43.57531" lon="3.78258">
        <ele>29</ele>
        <time>2021-04-13T07:35:29Z</time>
      </trkpt>
      <trkpt lat="43.57527" lon="3.78253">
        <ele>29</ele>
        <time>2021-04-13T07:35:30Z</time>
      </trkpt>
      <trkpt lat="43.57523" lon="3.78247">
        <ele>28.8</ele>
        <time>2021-04-13T07:35:31Z</time>
      </trkpt>
      <trkpt lat="43.57519" lon="3.78241">
        <ele>28.6</ele>
        <time>2021-04-13T07:35:32Z</time>
      </trkpt>
      <trkpt lat="43.57515" lon="3.78235">
        <ele>28.8</ele>
        <time>2021-04-13T07:35:33Z</time>
      </trkpt>
      <trkpt lat="43.57512" lon="3.78229">
        <ele>29</ele>
        <time>2021-04-13T07:35:34Z</time>
      </trkpt>
      <trkpt lat="43.57508" lon="3.78223">
        <ele>28.6</ele>
        <time>2021-04-13T07:35:35Z</time>
      </trkpt>
      <trkpt lat="43.57504" lon="3.78217">
        <ele>28.4</ele>
        <time>2021-04-13T07:35:36Z</time>
      </trkpt>
      <trkpt lat="43.575" lon="3.78212">
        <ele>28.4</ele>
        <time>2021-04-13T07:35:37Z</time>
      </trkpt>
      <trkpt lat="43.57496" lon="3.78206">
        <ele>28.4</ele>
        <time>2021-04-13T07:35:38Z</time>
      </trkpt>
      <trkpt lat="43.57492" lon="3.782">
        <ele>28.4</ele>
        <time>2021-04-13T07:35:39Z</time>
      </trkpt>
      <trkpt lat="43.57488" lon="3.78194">
        <ele>28.4</ele>
        <time>2021-04-13T07:35:40Z</time>
      </trkpt>
      <trkpt lat="43.57484" lon="3.78189">
        <ele>28.4</ele>
        <time>2021-04-13T07:35:41Z</time>
      </trkpt>
      <trkpt lat="43.5748" lon="3.78183">
        <ele>28.4</ele>
        <time>2021-04-13T07:35:42Z</time>
      </trkpt>
      <trkpt lat="43.57476" lon="3.78178">
        <ele>28.4</ele>
        <time>2021-04-13T07:35:43Z</time>
      </trkpt>
      <trkpt lat="43.57472" lon="3.78172">
        <ele>28.4</ele>
        <time>2021-04-13T07:35:44Z</time>
      </trkpt>
      <trkpt lat="43.57468" lon="3.78166">
        <ele>28.4</ele>
        <time>2021-04-13T07:35:45Z</time>
      </trkpt>
      <trkpt lat="43.57464" lon="3.78161">
        <ele>28.4</ele>
        <time>2021-04-13T07:35:46Z</time>
      </trkpt>
      <trkpt lat="43.5746" lon="3.78155">
        <ele>28.4</ele>
        <time>2021-04-13T07:35:47Z</time>
      </trkpt>
      <trkpt lat="43.57456" lon="3.78149">
        <ele>28.4</ele>
        <time>2021-04-13T07:35:48Z</time>
      </trkpt>
      <trkpt lat="43.57453" lon="3.78142">
        <ele>28.4</ele>
        <time>2021-04-13T07:35:49Z</time>
      </trkpt>
      <trkpt lat="43.57449" lon="3.78136">
        <ele>28.4</ele>
        <time>2021-04-13T07:35:50Z</time>
      </trkpt>
      <trkpt lat="43.57446" lon="3.78129">
        <ele>28.2</ele>
        <time>2021-04-13T07:35:51Z</time>
      </trkpt>
      <trkpt lat="43.57444" lon="3.78122">
        <ele>28.2</ele>
        <time>2021-04-13T07:35:52Z</time>
      </trkpt>
      <trkpt lat="43.57441" lon="3.78115">
        <ele>28.2</ele>
        <time>2021-04-13T07:35:53Z</time>
      </trkpt>
      <trkpt lat="43.57439" lon="3.78108">
        <ele>28.2</ele>
        <time>2021-04-13T07:35:54Z</time>
      </trkpt>
      <trkpt lat="43.57437" lon="3.78101">
        <ele>28.2</ele>
        <time>2021-04-13T07:35:55Z</time>
      </trkpt>
      <trkpt lat="43.57435" lon="3.78094">
        <ele>28</ele>
        <time>2021-04-13T07:35:56Z</time>
      </trkpt>
      <trkpt lat="43.57433" lon="3.78087">
        <ele>28.2</ele>
        <time>2021-04-13T07:35:57Z</time>
      </trkpt>
      <trkpt lat="43.57431" lon="3.78079">
        <ele>28.2</ele>
        <time>2021-04-13T07:35:58Z</time>
      </trkpt>
      <trkpt lat="43.5743" lon="3.78072">
        <ele>28.2</ele>
        <time>2021-04-13T07:35:59Z</time>
      </trkpt>
      <trkpt lat="43.57428" lon="3.78065">
        <ele>28.2</ele>
        <time>2021-04-13T07:36:00Z</time>
      </trkpt>
      <trkpt lat="43.57426" lon="3.78058">
        <ele>28.2</ele>
        <time>2021-04-13T07:36:01Z</time>
      </trkpt>
      <trkpt lat="43.57424" lon="3.78051">
        <ele>28</ele>
        <time>2021-04-13T07:36:02Z</time>
      </trkpt>
      <trkpt lat="43.57422" lon="3.78044">
        <ele>28</ele>
        <time>2021-04-13T07:36:03Z</time>
      </trkpt>
      <trkpt lat="43.5742" lon="3.78037">
        <ele>28</ele>
        <time>2021-04-13T07:36:04Z</time>
      </trkpt>
      <trkpt lat="43.57418" lon="3.7803">
        <ele>27.8</ele>
        <time>2021-04-13T07:36:05Z</time>
      </trkpt>
      <trkpt lat="43.57416" lon="3.78023">
        <ele>27.8</ele>
        <time>2021-04-13T07:36:06Z</time>
      </trkpt>
      <trkpt lat="43.57415" lon="3.78016">
        <ele>28</ele>
        <time>2021-04-13T07:36:07Z</time>
      </trkpt>
      <trkpt lat="43.57413" lon="3.7801">
        <ele>27.8</ele>
        <time>2021-04-13T07:36:08Z</time>
      </trkpt>
      <trkpt lat="43.57411" lon="3.78003">
        <ele>27.8</ele>
        <time>2021-04-13T07:36:09Z</time>
      </trkpt>
      <trkpt lat="43.57409" lon="3.77996">
        <ele>27.8</ele>
        <time>2021-04-13T07:36:10Z</time>
      </trkpt>
      <trkpt lat="43.57407" lon="3.7799">
        <ele>27.8</ele>
        <time>2021-04-13T07:36:11Z</time>
      </trkpt>
      <trkpt lat="43.57405" lon="3.77983">
        <ele>27.8</ele>
        <time>2021-04-13T07:36:12Z</time>
      </trkpt>
      <trkpt lat="43.57403" lon="3.77978">
        <ele>27.8</ele>
        <time>2021-04-13T07:36:13Z</time>
      </trkpt>
      <trkpt lat="43.57402" lon="3.77972">
        <ele>27.8</ele>
        <time>2021-04-13T07:36:14Z</time>
      </trkpt>
      <trkpt lat="43.574" lon="3.77965">
        <ele>27.8</ele>
        <time>2021-04-13T07:36:15Z</time>
      </trkpt>
      <trkpt lat="43.57398" lon="3.77959">
        <ele>27.8</ele>
        <time>2021-04-13T07:36:16Z</time>
      </trkpt>
      <trkpt lat="43.57396" lon="3.77953">
        <ele>28</ele>
        <time>2021-04-13T07:36:17Z</time>
      </trkpt>
      <trkpt lat="43.57394" lon="3.77948">
        <ele>27.8</ele>
        <time>2021-04-13T07:36:18Z</time>
      </trkpt>
      <trkpt lat="43.57392" lon="3.77941">
        <ele>28</ele>
        <time>2021-04-13T07:36:19Z</time>
      </trkpt>
      <trkpt lat="43.57391" lon="3.77936">
        <ele>28</ele>
        <time>2021-04-13T07:36:20Z</time>
      </trkpt>
      <trkpt lat="43.57389" lon="3.7793">
        <ele>28</ele>
        <time>2021-04-13T07:36:21Z</time>
      </trkpt>
      <trkpt lat="43.57387" lon="3.77923">
        <ele>28</ele>
        <time>2021-04-13T07:36:22Z</time>
      </trkpt>
      <trkpt lat="43.57386" lon="3.77917">
        <ele>28</ele>
        <time>2021-04-13T07:36:23Z</time>
      </trkpt>
      <trkpt lat="43.57384" lon="3.77911">
        <ele>28</ele>
        <time>2021-04-13T07:36:24Z</time>
      </trkpt>
      <trkpt lat="43.57382" lon="3.77905">
        <ele>28</ele>
        <time>2021-04-13T07:36:25Z</time>
      </trkpt>
      <trkpt lat="43.5738" lon="3.77899">
        <ele>28</ele>
        <time>2021-04-13T07:36:26Z</time>
      </trkpt>
      <trkpt lat="43.57378" lon="3.77893">
        <ele>28</ele>
        <time>2021-04-13T07:36:27Z</time>
      </trkpt>
      <trkpt lat="43.57376" lon="3.77887">
        <ele>28</ele>
        <time>2021-04-13T07:36:28Z</time>
      </trkpt>
      <trkpt lat="43.57375" lon="3.77882">
        <ele>28</ele>
        <time>2021-04-13T07:36:29Z</time>
      </trkpt>
      <trkpt lat="43.57373" lon="3.77875">
        <ele>28</ele>
        <time>2021-04-13T07:36:30Z</time>
      </trkpt>
      <trkpt lat="43.57371" lon="3.77869">
        <ele>28</ele>
        <time>2021-04-13T07:36:31Z</time>
      </trkpt>
      <trkpt lat="43.57369" lon="3.77863">
        <ele>28</ele>
        <time>2021-04-13T07:36:32Z</time>
      </trkpt>
      <trkpt lat="43.57367" lon="3.77857">
        <ele>28</ele>
        <time>2021-04-13T07:36:33Z</time>
      </trkpt>
      <trkpt lat="43.57365" lon="3.77851">
        <ele>28</ele>
        <time>2021-04-13T07:36:34Z</time>
      </trkpt>
      <trkpt lat="43.57363" lon="3.77845">
        <ele>28.2</ele>
        <time>2021-04-13T07:36:35Z</time>
      </trkpt>
      <trkpt lat="43.57361" lon="3.7784">
        <ele>28.2</ele>
        <time>2021-04-13T07:36:36Z</time>
      </trkpt>
      <trkpt lat="43.5736" lon="3.77835">
        <ele>28.4</ele>
        <time>2021-04-13T07:36:37Z</time>
      </trkpt>
      <trkpt lat="43.57358" lon="3.7783">
        <ele>28.2</ele>
        <time>2021-04-13T07:36:38Z</time>
      </trkpt>
      <trkpt lat="43.57357" lon="3.77824">
        <ele>28.2</ele>
        <time>2021-04-13T07:36:39Z</time>
      </trkpt>
      <trkpt lat="43.57355" lon="3.77819">
        <ele>28.2</ele>
        <time>2021-04-13T07:36:40Z</time>
      </trkpt>
      <trkpt lat="43.57354" lon="3.77813">
        <ele>28.2</ele>
        <time>2021-04-13T07:36:41Z</time>
      </trkpt>
      <trkpt lat="43.57353" lon="3.77808">
        <ele>28.2</ele>
        <time>2021-04-13T07:36:42Z</time>
      </trkpt>
      <trkpt lat="43.57352" lon="3.77803">
        <ele>28.2</ele>
        <time>2021-04-13T07:36:43Z</time>
      </trkpt>
      <trkpt lat="43.57352" lon="3.77798">
        <ele>28.2</ele>
        <time>2021-04-13T07:36:44Z</time>
      </trkpt>
      <trkpt lat="43.57351" lon="3.77791">
        <ele>28.4</ele>
        <time>2021-04-13T07:36:45Z</time>
      </trkpt>
      <trkpt lat="43.5735" lon="3.77786">
        <ele>28.4</ele>
        <time>2021-04-13T07:36:46Z</time>
      </trkpt>
      <trkpt lat="43.57349" lon="3.7778">
        <ele>28.4</ele>
        <time>2021-04-13T07:36:47Z</time>
      </trkpt>
      <trkpt lat="43.57348" lon="3.77774">
        <ele>28.6</ele>
        <time>2021-04-13T07:36:48Z</time>
      </trkpt>
      <trkpt lat="43.57348" lon="3.77768">
        <ele>28.6</ele>
        <time>2021-04-13T07:36:49Z</time>
      </trkpt>
      <trkpt lat="43.57347" lon="3.77762">
        <ele>28.6</ele>
        <time>2021-04-13T07:36:50Z</time>
      </trkpt>
      <trkpt lat="43.57346" lon="3.77756">
        <ele>28.6</ele>
        <time>2021-04-13T07:36:51Z</time>
      </trkpt>
      <trkpt lat="43.57346" lon="3.7775">
        <ele>28.6</ele>
        <time>2021-04-13T07:36:52Z</time>
      </trkpt>
      <trkpt lat="43.57345" lon="3.77744">
        <ele>28.8</ele>
        <time>2021-04-13T07:36:53Z</time>
      </trkpt>
      <trkpt lat="43.57345" lon="3.77737">
        <ele>28.8</ele>
        <time>2021-04-13T07:36:54Z</time>
      </trkpt>
      <trkpt lat="43.57344" lon="3.77732">
        <ele>29</ele>
        <time>2021-04-13T07:36:55Z</time>
      </trkpt>
      <trkpt lat="43.57344" lon="3.77726">
        <ele>29.2</ele>
        <time>2021-04-13T07:36:56Z</time>
      </trkpt>
      <trkpt lat="43.57344" lon="3.77721">
        <ele>29.4</ele>
        <time>2021-04-13T07:36:57Z</time>
      </trkpt>
      <trkpt lat="43.57344" lon="3.77715">
        <ele>29.4</ele>
        <time>2021-04-13T07:36:58Z</time>
      </trkpt>
      <trkpt lat="43.57344" lon="3.77709">
        <ele>29.6</ele>
        <time>2021-04-13T07:36:59Z</time>
      </trkpt>
      <trkpt lat="43.57344" lon="3.77704">
        <ele>29.8</ele>
        <time>2021-04-13T07:37:00Z</time>
      </trkpt>
      <trkpt lat="43.57344" lon="3.77698">
        <ele>30</ele>
        <time>2021-04-13T07:37:01Z</time>
      </trkpt>
      <trkpt lat="43.57344" lon="3.77693">
        <ele>30</ele>
        <time>2021-04-13T07:37:02Z</time>
      </trkpt>
      <trkpt lat="43.57344" lon="3.77688">
        <ele>30.2</ele>
        <time>2021-04-13T07:37:03Z</time>
      </trkpt>
      <trkpt lat="43.57344" lon="3.77683">
        <ele>30.4</ele>
        <time>2021-04-13T07:37:04Z</time>
      </trkpt>
      <trkpt lat="43.57344" lon="3.77677">
        <ele>30.6</ele>
        <time>2021-04-13T07:37:05Z</time>
      </trkpt>
      <trkpt lat="43.57344" lon="3.77672">
        <ele>30.8</ele>
        <time>2021-04-13T07:37:06Z</time>
      </trkpt>
      <trkpt lat="43.57344" lon="3.77667">
        <ele>30.8</ele>
        <time>2021-04-13T07:37:07Z</time>
      </trkpt>
      <trkpt lat="43.57344" lon="3.77663">
        <ele>31.2</ele>
        <time>2021-04-13T07:37:08Z</time>
      </trkpt>
      <trkpt lat="43.57344" lon="3.77658">
        <ele>31.4</ele>
        <time>2021-04-13T07:37:09Z</time>
      </trkpt>
      <trkpt lat="43.57344" lon="3.77654">
        <ele>31.4</ele>
        <time>2021-04-13T07:37:10Z</time>
      </trkpt>
      <trkpt lat="43.57344" lon="3.7765">
        <ele>31.6</ele>
        <time>2021-04-13T07:37:11Z</time>
      </trkpt>
      <trkpt lat="43.57344" lon="3.77646">
        <ele>31.8</ele>
        <time>2021-04-13T07:37:12Z</time>
      </trkpt>
      <trkpt lat="43.57344" lon="3.77641">
        <ele>32</ele>
        <time>2021-04-13T07:37:13Z</time>
      </trkpt>
      <trkpt lat="43.57344" lon="3.77637">
        <ele>32.2</ele>
        <time>2021-04-13T07:37:14Z</time>
      </trkpt>
      <trkpt lat="43.57344" lon="3.77633">
        <ele>32.2</ele>
        <time>2021-04-13T07:37:15Z</time>
      </trkpt>
      <trkpt lat="43.57344" lon="3.77629">
        <ele>32.2</ele>
        <time>2021-04-13T07:37:16Z</time>
      </trkpt>
      <trkpt lat="43.57344" lon="3.77625">
        <ele>32.4</ele>
        <time>2021-04-13T07:37:17Z</time>
      </trkpt>
      <trkpt lat="43.57345" lon="3.7762">
        <ele>32.6</ele>
        <time>2021-04-13T07:37:18Z</time>
      </trkpt>
      <trkpt lat="43.57345" lon="3.77616">
        <ele>32.8</ele>
        <time>2021-04-13T07:37:19Z</time>
      </trkpt>
      <trkpt lat="43.57345" lon="3.77613">
        <ele>33</ele>
        <time>2021-04-13T07:37:20Z</time>
      </trkpt>
      <trkpt lat="43.57346" lon="3.77609">
        <ele>33.2</ele>
        <time>2021-04-13T07:37:21Z</time>
      </trkpt>
      <trkpt lat="43.57346" lon="3.77605">
        <ele>33.4</ele>
        <time>2021-04-13T07:37:22Z</time>
      </trkpt>
      <trkpt lat="43.57346" lon="3.77601">
        <ele>33.4</ele>
        <time>2021-04-13T07:37:23Z</time>
      </trkpt>
      <trkpt lat="43.57346" lon="3.77597">
        <ele>33.6</ele>
        <time>2021-04-13T07:37:24Z</time>
      </trkpt>
      <trkpt lat="43.57346" lon="3.77594">
        <ele>33.8</ele>
        <time>2021-04-13T07:37:25Z</time>
      </trkpt>
      <trkpt lat="43.57346" lon="3.7759">
        <ele>33.8</ele>
        <time>2021-04-13T07:37:26Z</time>
      </trkpt>
      <trkpt lat="43.57346" lon="3.77586">
        <ele>34</ele>
        <time>2021-04-13T07:37:27Z</time>
      </trkpt>
      <trkpt lat="43.57346" lon="3.77581">
        <ele>34.2</ele>
        <time>2021-04-13T07:37:28Z</time>
      </trkpt>
      <trkpt lat="43.57346" lon="3.77577">
        <ele>34.4</ele>
        <time>2021-04-13T07:37:29Z</time>
      </trkpt>
      <trkpt lat="43.57346" lon="3.77573">
        <ele>34.4</ele>
        <time>2021-04-13T07:37:30Z</time>
      </trkpt>
      <trkpt lat="43.57346" lon="3.77569">
        <ele>34.6</ele>
        <time>2021-04-13T07:37:31Z</time>
      </trkpt>
      <trkpt lat="43.57346" lon="3.77564">
        <ele>34.8</ele>
        <time>2021-04-13T07:37:32Z</time>
      </trkpt>
      <trkpt lat="43.57346" lon="3.7756">
        <ele>35</ele>
        <time>2021-04-13T07:37:33Z</time>
      </trkpt>
      <trkpt lat="43.57346" lon="3.77557">
        <ele>35.2</ele>
        <time>2021-04-13T07:37:34Z</time>
      </trkpt>
      <trkpt lat="43.57346" lon="3.77554">
        <ele>35.2</ele>
        <time>2021-04-13T07:37:35Z</time>
      </trkpt>
      <trkpt lat="43.57347" lon="3.77551">
        <ele>35.4</ele>
        <time>2021-04-13T07:37:36Z</time>
      </trkpt>
      <trkpt lat="43.57347" lon="3.77548">
        <ele>35.6</ele>
        <time>2021-04-13T07:37:37Z</time>
      </trkpt>
      <trkpt lat="43.57348" lon="3.77545">
        <ele>35.6</ele>
        <time>2021-04-13T07:37:38Z</time>
      </trkpt>
      <trkpt lat="43.57348" lon="3.77542">
        <ele>35.8</ele>
        <time>2021-04-13T07:37:39Z</time>
      </trkpt>
      <trkpt lat="43.57348" lon="3.77537">
        <ele>36</ele>
        <time>2021-04-13T07:37:40Z</time>
      </trkpt>
      <trkpt lat="43.57348" lon="3.77534">
        <ele>36</ele>
        <time>2021-04-13T07:37:41Z</time>
      </trkpt>
      <trkpt lat="43.57348" lon="3.77531">
        <ele>36.2</ele>
        <time>2021-04-13T07:37:42Z</time>
      </trkpt>
      <trkpt lat="43.57348" lon="3.77528">
        <ele>36.4</ele>
        <time>2021-04-13T07:37:43Z</time>
      </trkpt>
      <trkpt lat="43.57349" lon="3.77525">
        <ele>36.6</ele>
        <time>2021-04-13T07:37:44Z</time>
      </trkpt>
      <trkpt lat="43.57349" lon="3.77522">
        <ele>36.8</ele>
        <time>2021-04-13T07:37:45Z</time>
      </trkpt>
      <trkpt lat="43.5735" lon="3.77519">
        <ele>37</ele>
        <time>2021-04-13T07:37:46Z</time>
      </trkpt>
      <trkpt lat="43.57351" lon="3.77517">
        <ele>37</ele>
        <time>2021-04-13T07:37:47Z</time>
      </trkpt>
      <trkpt lat="43.57351" lon="3.77514">
        <ele>37.2</ele>
        <time>2021-04-13T07:37:48Z</time>
      </trkpt>
      <trkpt lat="43.57352" lon="3.77512">
        <ele>37.2</ele>
        <time>2021-04-13T07:37:49Z</time>
      </trkpt>
      <trkpt lat="43.57352" lon="3.77509">
        <ele>37.4</ele>
        <time>2021-04-13T07:37:50Z</time>
      </trkpt>
      <trkpt lat="43.57352" lon="3.77505">
        <ele>37.6</ele>
        <time>2021-04-13T07:37:51Z</time>
      </trkpt>
      <trkpt lat="43.57352" lon="3.77501">
        <ele>37.8</ele>
        <time>2021-04-13T07:37:52Z</time>
      </trkpt>
      <trkpt lat="43.57353" lon="3.77497">
        <ele>38</ele>
        <time>2021-04-13T07:37:53Z</time>
      </trkpt>
      <trkpt lat="43.57353" lon="3.77494">
        <ele>38</ele>
        <time>2021-04-13T07:37:54Z</time>
      </trkpt>
      <trkpt lat="43.57354" lon="3.7749">
        <ele>38.2</ele>
        <time>2021-04-13T07:37:55Z</time>
      </trkpt>
      <trkpt lat="43.57353" lon="3.77486">
        <ele>38.4</ele>
        <time>2021-04-13T07:37:56Z</time>
      </trkpt>
      <trkpt lat="43.57353" lon="3.77482">
        <ele>38.6</ele>
        <time>2021-04-13T07:37:57Z</time>
      </trkpt>
      <trkpt lat="43.57353" lon="3.77479">
        <ele>38.8</ele>
        <time>2021-04-13T07:37:58Z</time>
      </trkpt>
      <trkpt lat="43.57354" lon="3.77476">
        <ele>38.8</ele>
        <time>2021-04-13T07:37:59Z</time>
      </trkpt>
      <trkpt lat="43.57354" lon="3.77472">
        <ele>39</ele>
        <time>2021-04-13T07:38:00Z</time>
      </trkpt>
      <trkpt lat="43.57355" lon="3.7747">
        <ele>39.2</ele>
        <time>2021-04-13T07:38:01Z</time>
      </trkpt>
      <trkpt lat="43.57355" lon="3.77466">
        <ele>39.4</ele>
        <time>2021-04-13T07:38:02Z</time>
      </trkpt>
      <trkpt lat="43.57355" lon="3.77461">
        <ele>39.6</ele>
        <time>2021-04-13T07:38:03Z</time>
      </trkpt>
      <trkpt lat="43.57355" lon="3.77459">
        <ele>39.8</ele>
        <time>2021-04-13T07:38:04Z</time>
      </trkpt>
      <trkpt lat="43.57355" lon="3.77456">
        <ele>40</ele>
        <time>2021-04-13T07:38:05Z</time>
      </trkpt>
      <trkpt lat="43.57354" lon="3.77452">
        <ele>40.2</ele>
        <time>2021-04-13T07:38:06Z</time>
      </trkpt>
      <trkpt lat="43.57353" lon="3.77448">
        <ele>40.2</ele>
        <time>2021-04-13T07:38:07Z</time>
      </trkpt>
      <trkpt lat="43.57352" lon="3.77445">
        <ele>40.4</ele>
        <time>2021-04-13T07:38:08Z</time>
      </trkpt>
      <trkpt lat="43.57351" lon="3.77442">
        <ele>40.6</ele>
        <time>2021-04-13T07:38:09Z</time>
      </trkpt>
      <trkpt lat="43.5735" lon="3.77439">
        <ele>40.8</ele>
        <time>2021-04-13T07:38:10Z</time>
      </trkpt>
      <trkpt lat="43.57349" lon="3.77435">
        <ele>41</ele>
        <time>2021-04-13T07:38:11Z</time>
      </trkpt>
      <trkpt lat="43.57348" lon="3.77432">
        <ele>41.2</ele>
        <time>2021-04-13T07:38:12Z</time>
      </trkpt>
      <trkpt lat="43.57347" lon="3.77429">
        <ele>41.4</ele>
        <time>2021-04-13T07:38:13Z</time>
      </trkpt>
      <trkpt lat="43.57346" lon="3.77426">
        <ele>41.6</ele>
        <time>2021-04-13T07:38:14Z</time>
      </trkpt>
      <trkpt lat="43.57345" lon="3.77424">
        <ele>41.8</ele>
        <time>2021-04-13T07:38:15Z</time>
      </trkpt>
      <trkpt lat="43.57345" lon="3.77422">
        <ele>42</ele>
        <time>2021-04-13T07:38:16Z</time>
      </trkpt>
      <trkpt lat="43.57342" lon="3.77418">
        <ele>42.2</ele>
        <time>2021-04-13T07:38:17Z</time>
      </trkpt>
      <trkpt lat="43.57341" lon="3.77415">
        <ele>42.4</ele>
        <time>2021-04-13T07:38:18Z</time>
      </trkpt>
      <trkpt lat="43.57341" lon="3.77413">
        <ele>42.6</ele>
        <time>2021-04-13T07:38:19Z</time>
      </trkpt>
      <trkpt lat="43.57339" lon="3.7741">
        <ele>42.8</ele>
        <time>2021-04-13T07:38:20Z</time>
      </trkpt>
      <trkpt lat="43.57337" lon="3.77408">
        <ele>42.8</ele>
        <time>2021-04-13T07:38:21Z</time>
      </trkpt>
      <trkpt lat="43.57335" lon="3.77405">
        <ele>43</ele>
        <time>2021-04-13T07:38:22Z</time>
      </trkpt>
      <trkpt lat="43.57333" lon="3.77403">
        <ele>43.2</ele>
        <time>2021-04-13T07:38:23Z</time>
      </trkpt>
      <trkpt lat="43.57331" lon="3.77401">
        <ele>43.4</ele>
        <time>2021-04-13T07:38:24Z</time>
      </trkpt>
      <trkpt lat="43.57329" lon="3.774">
        <ele>43.6</ele>
        <time>2021-04-13T07:38:25Z</time>
      </trkpt>
      <trkpt lat="43.57326" lon="3.77398">
        <ele>43.6</ele>
        <time>2021-04-13T07:38:26Z</time>
      </trkpt>
      <trkpt lat="43.57324" lon="3.77397">
        <ele>43.6</ele>
        <time>2021-04-13T07:38:27Z</time>
      </trkpt>
      <trkpt lat="43.57321" lon="3.77395">
        <ele>43.8</ele>
        <time>2021-04-13T07:38:28Z</time>
      </trkpt>
      <trkpt lat="43.57318" lon="3.77393">
        <ele>43.8</ele>
        <time>2021-04-13T07:38:29Z</time>
      </trkpt>
      <trkpt lat="43.57315" lon="3.77392">
        <ele>43.8</ele>
        <time>2021-04-13T07:38:30Z</time>
      </trkpt>
      <trkpt lat="43.57312" lon="3.7739">
        <ele>43.8</ele>
        <time>2021-04-13T07:38:31Z</time>
      </trkpt>
      <trkpt lat="43.57309" lon="3.77389">
        <ele>44</ele>
        <time>2021-04-13T07:38:32Z</time>
      </trkpt>
      <trkpt lat="43.57306" lon="3.77388">
        <ele>44.2</ele>
        <time>2021-04-13T07:38:33Z</time>
      </trkpt>
      <trkpt lat="43.57303" lon="3.77386">
        <ele>44.2</ele>
        <time>2021-04-13T07:38:34Z</time>
      </trkpt>
      <trkpt lat="43.573" lon="3.77384">
        <ele>44.2</ele>
        <time>2021-04-13T07:38:35Z</time>
      </trkpt>
      <trkpt lat="43.57296" lon="3.77383">
        <ele>44.2</ele>
        <time>2021-04-13T07:38:36Z</time>
      </trkpt>
      <trkpt lat="43.57293" lon="3.77381">
        <ele>44.2</ele>
        <time>2021-04-13T07:38:37Z</time>
      </trkpt>
      <trkpt lat="43.5729" lon="3.77379">
        <ele>44.2</ele>
        <time>2021-04-13T07:38:38Z</time>
      </trkpt>
      <trkpt lat="43.57287" lon="3.77376">
        <ele>44.2</ele>
        <time>2021-04-13T07:38:39Z</time>
      </trkpt>
      <trkpt lat="43.57284" lon="3.77375">
        <ele>44</ele>
        <time>2021-04-13T07:38:40Z</time>
      </trkpt>
      <trkpt lat="43.57281" lon="3.77373">
        <ele>43.8</ele>
        <time>2021-04-13T07:38:41Z</time>
      </trkpt>
      <trkpt lat="43.57277" lon="3.77371">
        <ele>43.8</ele>
        <time>2021-04-13T07:38:42Z</time>
      </trkpt>
      <trkpt lat="43.57274" lon="3.77369">
        <ele>43.8</ele>
        <time>2021-04-13T07:38:43Z</time>
      </trkpt>
      <trkpt lat="43.5727" lon="3.77367">
        <ele>43.6</ele>
        <time>2021-04-13T07:38:44Z</time>
      </trkpt>
      <trkpt lat="43.57267" lon="3.77365">
        <ele>43.6</ele>
        <time>2021-04-13T07:38:45Z</time>
      </trkpt>
      <trkpt lat="43.57263" lon="3.77363">
        <ele>43.4</ele>
        <time>2021-04-13T07:38:46Z</time>
      </trkpt>
      <trkpt lat="43.5726" lon="3.7736">
        <ele>43.4</ele>
        <time>2021-04-13T07:38:47Z</time>
      </trkpt>
      <trkpt lat="43.57258" lon="3.77357">
        <ele>43.2</ele>
        <time>2021-04-13T07:38:48Z</time>
      </trkpt>
      <trkpt lat="43.57259" lon="3.77353">
        <ele>43.4</ele>
        <time>2021-04-13T07:38:49Z</time>
      </trkpt>
      <trkpt lat="43.57259" lon="3.77348">
        <ele>43.2</ele>
        <time>2021-04-13T07:38:50Z</time>
      </trkpt>
      <trkpt lat="43.57261" lon="3.77344">
        <ele>43.2</ele>
        <time>2021-04-13T07:38:51Z</time>
      </trkpt>
      <trkpt lat="43.57262" lon="3.77339">
        <ele>43</ele>
        <time>2021-04-13T07:38:52Z</time>
      </trkpt>
      <trkpt lat="43.57263" lon="3.77334">
        <ele>42.8</ele>
        <time>2021-04-13T07:38:53Z</time>
      </trkpt>
      <trkpt lat="43.57264" lon="3.77329">
        <ele>42.6</ele>
        <time>2021-04-13T07:38:54Z</time>
      </trkpt>
      <trkpt lat="43.57265" lon="3.77323">
        <ele>42.4</ele>
        <time>2021-04-13T07:38:55Z</time>
      </trkpt>
      <trkpt lat="43.57266" lon="3.77316">
        <ele>42</ele>
        <time>2021-04-13T07:38:56Z</time>
      </trkpt>
      <trkpt lat="43.57266" lon="3.77311">
        <ele>41.8</ele>
        <time>2021-04-13T07:38:57Z</time>
      </trkpt>
      <trkpt lat="43.57267" lon="3.77304">
        <ele>41.4</ele>
        <time>2021-04-13T07:38:58Z</time>
      </trkpt>
      <trkpt lat="43.57267" lon="3.77297">
        <ele>41.4</ele>
        <time>2021-04-13T07:38:59Z</time>
      </trkpt>
      <trkpt lat="43.57268" lon="3.7729">
        <ele>41.2</ele>
        <time>2021-04-13T07:39:00Z</time>
      </trkpt>
      <trkpt lat="43.57269" lon="3.77283">
        <ele>41.2</ele>
        <time>2021-04-13T07:39:01Z</time>
      </trkpt>
      <trkpt lat="43.57272" lon="3.77277">
        <ele>41</ele>
        <time>2021-04-13T07:39:02Z</time>
      </trkpt>
      <trkpt lat="43.57274" lon="3.7727">
        <ele>41</ele>
        <time>2021-04-13T07:39:03Z</time>
      </trkpt>
      <trkpt lat="43.57277" lon="3.77264">
        <ele>41</ele>
        <time>2021-04-13T07:39:04Z</time>
      </trkpt>
      <trkpt lat="43.57279" lon="3.77256">
        <ele>40.6</ele>
        <time>2021-04-13T07:39:05Z</time>
      </trkpt>
      <trkpt lat="43.57282" lon="3.7725">
        <ele>40.6</ele>
        <time>2021-04-13T07:39:06Z</time>
      </trkpt>
      <trkpt lat="43.57286" lon="3.77245">
        <ele>40.2</ele>
        <time>2021-04-13T07:39:07Z</time>
      </trkpt>
      <trkpt lat="43.57289" lon="3.77239">
        <ele>40</ele>
        <time>2021-04-13T07:39:08Z</time>
      </trkpt>
      <trkpt lat="43.57291" lon="3.77233">
        <ele>40.2</ele>
        <time>2021-04-13T07:39:09Z</time>
      </trkpt>
      <trkpt lat="43.57293" lon="3.77226">
        <ele>40</ele>
        <time>2021-04-13T07:39:10Z</time>
      </trkpt>
      <trkpt lat="43.57294" lon="3.7722">
        <ele>40</ele>
        <time>2021-04-13T07:39:11Z</time>
      </trkpt>
      <trkpt lat="43.57295" lon="3.77214">
        <ele>40</ele>
        <time>2021-04-13T07:39:12Z</time>
      </trkpt>
      <trkpt lat="43.57295" lon="3.77208">
        <ele>40.2</ele>
        <time>2021-04-13T07:39:13Z</time>
      </trkpt>
      <trkpt lat="43.57294" lon="3.77203">
        <ele>40.2</ele>
        <time>2021-04-13T07:39:14Z</time>
      </trkpt>
      <trkpt lat="43.57293" lon="3.77197">
        <ele>40.2</ele>
        <time>2021-04-13T07:39:15Z</time>
      </trkpt>
      <trkpt lat="43.57292" lon="3.77192">
        <ele>40.2</ele>
        <time>2021-04-13T07:39:16Z</time>
      </trkpt>
      <trkpt lat="43.5729" lon="3.77187">
        <ele>40.4</ele>
        <time>2021-04-13T07:39:17Z</time>
      </trkpt>
      <trkpt lat="43.57288" lon="3.77183">
        <ele>40.6</ele>
        <time>2021-04-13T07:39:18Z</time>
      </trkpt>
      <trkpt lat="43.57286" lon="3.77179">
        <ele>40.8</ele>
        <time>2021-04-13T07:39:19Z</time>
      </trkpt>
      <trkpt lat="43.57284" lon="3.77175">
        <ele>40.8</ele>
        <time>2021-04-13T07:39:20Z</time>
      </trkpt>
      <trkpt lat="43.57282" lon="3.77171">
        <ele>40.8</ele>
        <time>2021-04-13T07:39:21Z</time>
      </trkpt>
      <trkpt lat="43.5728" lon="3.77167">
        <ele>41</ele>
        <time>2021-04-13T07:39:22Z</time>
      </trkpt>
      <trkpt lat="43.57278" lon="3.77163">
        <ele>41</ele>
        <time>2021-04-13T07:39:23Z</time>
      </trkpt>
      <trkpt lat="43.57276" lon="3.77159">
        <ele>41</ele>
        <time>2021-04-13T07:39:24Z</time>
      </trkpt>
      <trkpt lat="43.57273" lon="3.77156">
        <ele>41.2</ele>
        <time>2021-04-13T07:39:25Z</time>
      </trkpt>
      <trkpt lat="43.5727" lon="3.77152">
        <ele>41.2</ele>
        <time>2021-04-13T07:39:26Z</time>
      </trkpt>
      <trkpt lat="43.57268" lon="3.77149">
        <ele>41.4</ele>
        <time>2021-04-13T07:39:27Z</time>
      </trkpt>
      <trkpt lat="43.57265" lon="3.77146">
        <ele>41.4</ele>
        <time>2021-04-13T07:39:28Z</time>
      </trkpt>
      <trkpt lat="43.57262" lon="3.77143">
        <ele>41.2</ele>
        <time>2021-04-13T07:39:29Z</time>
      </trkpt>
      <trkpt lat="43.57259" lon="3.7714">
        <ele>41.2</ele>
        <time>2021-04-13T07:39:30Z</time>
      </trkpt>
      <trkpt lat="43.57256" lon="3.77138">
        <ele>41.2</ele>
        <time>2021-04-13T07:39:31Z</time>
      </trkpt>
      <trkpt lat="43.57253" lon="3.77135">
        <ele>41.2</ele>
        <time>2021-04-13T07:39:32Z</time>
      </trkpt>
      <trkpt lat="43.5725" lon="3.77132">
        <ele>41.2</ele>
        <time>2021-04-13T07:39:33Z</time>
      </trkpt>
      <trkpt lat="43.57247" lon="3.7713">
        <ele>41.2</ele>
        <time>2021-04-13T07:39:34Z</time>
      </trkpt>
      <trkpt lat="43.57245" lon="3.77127">
        <ele>41.2</ele>
        <time>2021-04-13T07:39:35Z</time>
      </trkpt>
      <trkpt lat="43.57242" lon="3.77124">
        <ele>41.2</ele>
        <time>2021-04-13T07:39:36Z</time>
      </trkpt>
      <trkpt lat="43.57239" lon="3.77122">
        <ele>41.2</ele>
        <time>2021-04-13T07:39:37Z</time>
      </trkpt>
      <trkpt lat="43.57236" lon="3.77119">
        <ele>41</ele>
        <time>2021-04-13T07:39:38Z</time>
      </trkpt>
      <trkpt lat="43.57233" lon="3.77116">
        <ele>41</ele>
        <time>2021-04-13T07:39:39Z</time>
      </trkpt>
      <trkpt lat="43.5723" lon="3.77113">
        <ele>40.8</ele>
        <time>2021-04-13T07:39:40Z</time>
      </trkpt>
      <trkpt lat="43.57226" lon="3.7711">
        <ele>40.8</ele>
        <time>2021-04-13T07:39:41Z</time>
      </trkpt>
      <trkpt lat="43.57223" lon="3.77107">
        <ele>41</ele>
        <time>2021-04-13T07:39:42Z</time>
      </trkpt>
      <trkpt lat="43.57219" lon="3.77104">
        <ele>40.8</ele>
        <time>2021-04-13T07:39:43Z</time>
      </trkpt>
      <trkpt lat="43.57215" lon="3.771">
        <ele>40.8</ele>
        <time>2021-04-13T07:39:44Z</time>
      </trkpt>
      <trkpt lat="43.57211" lon="3.77097">
        <ele>40.8</ele>
        <time>2021-04-13T07:39:45Z</time>
      </trkpt>
      <trkpt lat="43.57207" lon="3.77093">
        <ele>40.6</ele>
        <time>2021-04-13T07:39:46Z</time>
      </trkpt>
      <trkpt lat="43.57203" lon="3.7709">
        <ele>40.6</ele>
        <time>2021-04-13T07:39:47Z</time>
      </trkpt>
      <trkpt lat="43.57199" lon="3.77086">
        <ele>40.6</ele>
        <time>2021-04-13T07:39:48Z</time>
      </trkpt>
      <trkpt lat="43.57195" lon="3.77082">
        <ele>40.2</ele>
        <time>2021-04-13T07:39:49Z</time>
      </trkpt>
      <trkpt lat="43.57191" lon="3.77078">
        <ele>40.2</ele>
        <time>2021-04-13T07:39:50Z</time>
      </trkpt>
      <trkpt lat="43.57186" lon="3.77075">
        <ele>39.8</ele>
        <time>2021-04-13T07:39:51Z</time>
      </trkpt>
      <trkpt lat="43.57182" lon="3.77071">
        <ele>39.8</ele>
        <time>2021-04-13T07:39:52Z</time>
      </trkpt>
      <trkpt lat="43.57177" lon="3.77067">
        <ele>39.8</ele>
        <time>2021-04-13T07:39:53Z</time>
      </trkpt>
      <trkpt lat="43.57173" lon="3.77062">
        <ele>39.8</ele>
        <time>2021-04-13T07:39:54Z</time>
      </trkpt>
      <trkpt lat="43.57169" lon="3.77058">
        <ele>39.6</ele>
        <time>2021-04-13T07:39:55Z</time>
      </trkpt>
      <trkpt lat="43.57164" lon="3.77055">
        <ele>39.4</ele>
        <time>2021-04-13T07:39:56Z</time>
      </trkpt>
      <trkpt lat="43.5716" lon="3.77051">
        <ele>39.4</ele>
        <time>2021-04-13T07:39:57Z</time>
      </trkpt>
      <trkpt lat="43.57155" lon="3.77047">
        <ele>39.4</ele>
        <time>2021-04-13T07:39:58Z</time>
      </trkpt>
      <trkpt lat="43.57151" lon="3.77043">
        <ele>39.4</ele>
        <time>2021-04-13T07:39:59Z</time>
      </trkpt>
      <trkpt lat="43.57147" lon="3.77039">
        <ele>39.2</ele>
        <time>2021-04-13T07:40:00Z</time>
      </trkpt>
      <trkpt lat="43.57144" lon="3.77035">
        <ele>39.2</ele>
        <time>2021-04-13T07:40:01Z</time>
      </trkpt>
      <trkpt lat="43.5714" lon="3.7703">
        <ele>39.2</ele>
        <time>2021-04-13T07:40:02Z</time>
      </trkpt>
      <trkpt lat="43.57136" lon="3.77026">
        <ele>39.2</ele>
        <time>2021-04-13T07:40:03Z</time>
      </trkpt>
      <trkpt lat="43.57133" lon="3.77023">
        <ele>39.2</ele>
        <time>2021-04-13T07:40:04Z</time>
      </trkpt>
      <trkpt lat="43.57129" lon="3.77019">
        <ele>39.2</ele>
        <time>2021-04-13T07:40:05Z</time>
      </trkpt>
      <trkpt lat="43.57125" lon="3.77015">
        <ele>39.2</ele>
        <time>2021-04-13T07:40:06Z</time>
      </trkpt>
      <trkpt lat="43.57121" lon="3.77011">
        <ele>39.2</ele>
        <time>2021-04-13T07:40:07Z</time>
      </trkpt>
      <trkpt lat="43.57117" lon="3.77008">
        <ele>39.2</ele>
        <time>2021-04-13T07:40:08Z</time>
      </trkpt>
      <trkpt lat="43.57113" lon="3.77003">
        <ele>39</ele>
        <time>2021-04-13T07:40:09Z</time>
      </trkpt>
      <trkpt lat="43.57109" lon="3.77">
        <ele>39</ele>
        <time>2021-04-13T07:40:10Z</time>
      </trkpt>
      <trkpt lat="43.57105" lon="3.76995">
        <ele>39</ele>
        <time>2021-04-13T07:40:11Z</time>
      </trkpt>
      <trkpt lat="43.57102" lon="3.76991">
        <ele>39</ele>
        <time>2021-04-13T07:40:12Z</time>
      </trkpt>
      <trkpt lat="43.57098" lon="3.76986">
        <ele>39</ele>
        <time>2021-04-13T07:40:13Z</time>
      </trkpt>
      <trkpt lat="43.57095" lon="3.76982">
        <ele>39</ele>
        <time>2021-04-13T07:40:14Z</time>
      </trkpt>
      <trkpt lat="43.57091" lon="3.76979">
        <ele>39</ele>
        <time>2021-04-13T07:40:15Z</time>
      </trkpt>
      <trkpt lat="43.57087" lon="3.76975">
        <ele>39</ele>
        <time>2021-04-13T07:40:16Z</time>
      </trkpt>
      <trkpt lat="43.57083" lon="3.76971">
        <ele>39</ele>
        <time>2021-04-13T07:40:17Z</time>
      </trkpt>
      <trkpt lat="43.57079" lon="3.76967">
        <ele>39</ele>
        <time>2021-04-13T07:40:18Z</time>
      </trkpt>
      <trkpt lat="43.57075" lon="3.76964">
        <ele>39</ele>
        <time>2021-04-13T07:40:19Z</time>
      </trkpt>
      <trkpt lat="43.57071" lon="3.7696">
        <ele>38.8</ele>
        <time>2021-04-13T07:40:20Z</time>
      </trkpt>
      <trkpt lat="43.57066" lon="3.76955">
        <ele>38.8</ele>
        <time>2021-04-13T07:40:21Z</time>
      </trkpt>
      <trkpt lat="43.57062" lon="3.76951">
        <ele>38.8</ele>
        <time>2021-04-13T07:40:22Z</time>
      </trkpt>
      <trkpt lat="43.57058" lon="3.76947">
        <ele>38.8</ele>
        <time>2021-04-13T07:40:23Z</time>
      </trkpt>
      <trkpt lat="43.57054" lon="3.76943">
        <ele>38.8</ele>
        <time>2021-04-13T07:40:24Z</time>
      </trkpt>
      <trkpt lat="43.57049" lon="3.76939">
        <ele>39</ele>
        <time>2021-04-13T07:40:25Z</time>
      </trkpt>
      <trkpt lat="43.57045" lon="3.76935">
        <ele>39</ele>
        <time>2021-04-13T07:40:26Z</time>
      </trkpt>
      <trkpt lat="43.57041" lon="3.76931">
        <ele>39.2</ele>
        <time>2021-04-13T07:40:27Z</time>
      </trkpt>
      <trkpt lat="43.57037" lon="3.76927">
        <ele>39</ele>
        <time>2021-04-13T07:40:28Z</time>
      </trkpt>
      <trkpt lat="43.57033" lon="3.76924">
        <ele>39</ele>
        <time>2021-04-13T07:40:29Z</time>
      </trkpt>
      <trkpt lat="43.57029" lon="3.76921">
        <ele>39</ele>
        <time>2021-04-13T07:40:30Z</time>
      </trkpt>
      <trkpt lat="43.57025" lon="3.76917">
        <ele>39</ele>
        <time>2021-04-13T07:40:31Z</time>
      </trkpt>
      <trkpt lat="43.57021" lon="3.76913">
        <ele>39</ele>
        <time>2021-04-13T07:40:32Z</time>
      </trkpt>
      <trkpt lat="43.57018" lon="3.76909">
        <ele>39</ele>
        <time>2021-04-13T07:40:33Z</time>
      </trkpt>
      <trkpt lat="43.57015" lon="3.76906">
        <ele>39</ele>
        <time>2021-04-13T07:40:34Z</time>
      </trkpt>
      <trkpt lat="43.57012" lon="3.76902">
        <ele>39</ele>
        <time>2021-04-13T07:40:35Z</time>
      </trkpt>
      <trkpt lat="43.57009" lon="3.76899">
        <ele>39</ele>
        <time>2021-04-13T07:40:36Z</time>
      </trkpt>
      <trkpt lat="43.57005" lon="3.76895">
        <ele>39</ele>
        <time>2021-04-13T07:40:37Z</time>
      </trkpt>
      <trkpt lat="43.57002" lon="3.76892">
        <ele>38.8</ele>
        <time>2021-04-13T07:40:38Z</time>
      </trkpt>
      <trkpt lat="43.56998" lon="3.76889">
        <ele>38.8</ele>
        <time>2021-04-13T07:40:39Z</time>
      </trkpt>
      <trkpt lat="43.56994" lon="3.76885">
        <ele>39</ele>
        <time>2021-04-13T07:40:40Z</time>
      </trkpt>
      <trkpt lat="43.56991" lon="3.76881">
        <ele>38.8</ele>
        <time>2021-04-13T07:40:41Z</time>
      </trkpt>
      <trkpt lat="43.56988" lon="3.76876">
        <ele>38.8</ele>
        <time>2021-04-13T07:40:42Z</time>
      </trkpt>
      <trkpt lat="43.56985" lon="3.76871">
        <ele>39</ele>
        <time>2021-04-13T07:40:43Z</time>
      </trkpt>
      <trkpt lat="43.56982" lon="3.76866">
        <ele>39</ele>
        <time>2021-04-13T07:40:44Z</time>
      </trkpt>
      <trkpt lat="43.56979" lon="3.76861">
        <ele>39</ele>
        <time>2021-04-13T07:40:45Z</time>
      </trkpt>
      <trkpt lat="43.56976" lon="3.76856">
        <ele>39</ele>
        <time>2021-04-13T07:40:46Z</time>
      </trkpt>
      <trkpt lat="43.56973" lon="3.76851">
        <ele>39</ele>
        <time>2021-04-13T07:40:47Z</time>
      </trkpt>
      <trkpt lat="43.5697" lon="3.76846">
        <ele>39</ele>
        <time>2021-04-13T07:40:48Z</time>
      </trkpt>
      <trkpt lat="43.56967" lon="3.7684">
        <ele>39.2</ele>
        <time>2021-04-13T07:40:49Z</time>
      </trkpt>
      <trkpt lat="43.56965" lon="3.76835">
        <ele>39.2</ele>
        <time>2021-04-13T07:40:50Z</time>
      </trkpt>
      <trkpt lat="43.56962" lon="3.7683">
        <ele>39.2</ele>
        <time>2021-04-13T07:40:51Z</time>
      </trkpt>
      <trkpt lat="43.56959" lon="3.76824">
        <ele>39.4</ele>
        <time>2021-04-13T07:40:52Z</time>
      </trkpt>
      <trkpt lat="43.56957" lon="3.76819">
        <ele>39.4</ele>
        <time>2021-04-13T07:40:53Z</time>
      </trkpt>
      <trkpt lat="43.56955" lon="3.76813">
        <ele>39.4</ele>
        <time>2021-04-13T07:40:54Z</time>
      </trkpt>
      <trkpt lat="43.56953" lon="3.76807">
        <ele>39.4</ele>
        <time>2021-04-13T07:40:55Z</time>
      </trkpt>
      <trkpt lat="43.56952" lon="3.768">
        <ele>39.4</ele>
        <time>2021-04-13T07:40:56Z</time>
      </trkpt>
      <trkpt lat="43.56951" lon="3.76794">
        <ele>39.2</ele>
        <time>2021-04-13T07:40:57Z</time>
      </trkpt>
      <trkpt lat="43.56949" lon="3.76787">
        <ele>39.4</ele>
        <time>2021-04-13T07:40:58Z</time>
      </trkpt>
      <trkpt lat="43.56948" lon="3.76781">
        <ele>39.2</ele>
        <time>2021-04-13T07:40:59Z</time>
      </trkpt>
      <trkpt lat="43.56947" lon="3.76774">
        <ele>39.2</ele>
        <time>2021-04-13T07:41:00Z</time>
      </trkpt>
      <trkpt lat="43.56946" lon="3.76768">
        <ele>39.2</ele>
        <time>2021-04-13T07:41:01Z</time>
      </trkpt>
      <trkpt lat="43.56945" lon="3.76762">
        <ele>39.2</ele>
        <time>2021-04-13T07:41:02Z</time>
      </trkpt>
      <trkpt lat="43.56944" lon="3.76755">
        <ele>39.2</ele>
        <time>2021-04-13T07:41:03Z</time>
      </trkpt>
      <trkpt lat="43.56943" lon="3.76748">
        <ele>39.2</ele>
        <time>2021-04-13T07:41:04Z</time>
      </trkpt>
      <trkpt lat="43.56943" lon="3.76742">
        <ele>39.2</ele>
        <time>2021-04-13T07:41:05Z</time>
      </trkpt>
      <trkpt lat="43.56942" lon="3.76736">
        <ele>39.4</ele>
        <time>2021-04-13T07:41:06Z</time>
      </trkpt>
      <trkpt lat="43.56941" lon="3.76729">
        <ele>39.4</ele>
        <time>2021-04-13T07:41:07Z</time>
      </trkpt>
      <trkpt lat="43.56939" lon="3.76722">
        <ele>39.4</ele>
        <time>2021-04-13T07:41:08Z</time>
      </trkpt>
      <trkpt lat="43.56938" lon="3.76716">
        <ele>39.4</ele>
        <time>2021-04-13T07:41:09Z</time>
      </trkpt>
      <trkpt lat="43.56936" lon="3.7671">
        <ele>39.4</ele>
        <time>2021-04-13T07:41:10Z</time>
      </trkpt>
      <trkpt lat="43.56935" lon="3.76705">
        <ele>39.2</ele>
        <time>2021-04-13T07:41:11Z</time>
      </trkpt>
      <trkpt lat="43.56933" lon="3.76699">
        <ele>39.2</ele>
        <time>2021-04-13T07:41:12Z</time>
      </trkpt>
      <trkpt lat="43.56932" lon="3.76694">
        <ele>39.4</ele>
        <time>2021-04-13T07:41:13Z</time>
      </trkpt>
      <trkpt lat="43.5693" lon="3.76688">
        <ele>39.6</ele>
        <time>2021-04-13T07:41:14Z</time>
      </trkpt>
      <trkpt lat="43.56929" lon="3.76682">
        <ele>39.6</ele>
        <time>2021-04-13T07:41:15Z</time>
      </trkpt>
      <trkpt lat="43.56928" lon="3.76676">
        <ele>39.6</ele>
        <time>2021-04-13T07:41:16Z</time>
      </trkpt>
      <trkpt lat="43.56926" lon="3.7667">
        <ele>39.8</ele>
        <time>2021-04-13T07:41:17Z</time>
      </trkpt>
      <trkpt lat="43.56925" lon="3.76664">
        <ele>39.8</ele>
        <time>2021-04-13T07:41:18Z</time>
      </trkpt>
      <trkpt lat="43.56924" lon="3.76658">
        <ele>39.6</ele>
        <time>2021-04-13T07:41:19Z</time>
      </trkpt>
      <trkpt lat="43.56922" lon="3.76652">
        <ele>39.6</ele>
        <time>2021-04-13T07:41:20Z</time>
      </trkpt>
      <trkpt lat="43.56921" lon="3.76645">
        <ele>39.4</ele>
        <time>2021-04-13T07:41:21Z</time>
      </trkpt>
      <trkpt lat="43.5692" lon="3.76639">
        <ele>39.4</ele>
        <time>2021-04-13T07:41:22Z</time>
      </trkpt>
      <trkpt lat="43.56919" lon="3.76632">
        <ele>39.6</ele>
        <time>2021-04-13T07:41:23Z</time>
      </trkpt>
      <trkpt lat="43.56918" lon="3.76626">
        <ele>39.6</ele>
        <time>2021-04-13T07:41:24Z</time>
      </trkpt>
      <trkpt lat="43.56918" lon="3.76619">
        <ele>39.6</ele>
        <time>2021-04-13T07:41:25Z</time>
      </trkpt>
      <trkpt lat="43.56917" lon="3.76613">
        <ele>39.4</ele>
        <time>2021-04-13T07:41:26Z</time>
      </trkpt>
      <trkpt lat="43.56916" lon="3.76607">
        <ele>39.4</ele>
        <time>2021-04-13T07:41:27Z</time>
      </trkpt>
      <trkpt lat="43.56916" lon="3.766">
        <ele>39.6</ele>
        <time>2021-04-13T07:41:28Z</time>
      </trkpt>
      <trkpt lat="43.56915" lon="3.76594">
        <ele>39.6</ele>
        <time>2021-04-13T07:41:29Z</time>
      </trkpt>
      <trkpt lat="43.56914" lon="3.76588">
        <ele>39.6</ele>
        <time>2021-04-13T07:41:30Z</time>
      </trkpt>
      <trkpt lat="43.56913" lon="3.76582">
        <ele>39.6</ele>
        <time>2021-04-13T07:41:31Z</time>
      </trkpt>
      <trkpt lat="43.56913" lon="3.76575">
        <ele>39.6</ele>
        <time>2021-04-13T07:41:32Z</time>
      </trkpt>
      <trkpt lat="43.56912" lon="3.76569">
        <ele>39.8</ele>
        <time>2021-04-13T07:41:33Z</time>
      </trkpt>
      <trkpt lat="43.56911" lon="3.76563">
        <ele>39.8</ele>
        <time>2021-04-13T07:41:34Z</time>
      </trkpt>
      <trkpt lat="43.56911" lon="3.76556">
        <ele>39.8</ele>
        <time>2021-04-13T07:41:35Z</time>
      </trkpt>
      <trkpt lat="43.5691" lon="3.7655">
        <ele>39.8</ele>
        <time>2021-04-13T07:41:36Z</time>
      </trkpt>
      <trkpt lat="43.56909" lon="3.76544">
        <ele>39.8</ele>
        <time>2021-04-13T07:41:37Z</time>
      </trkpt>
      <trkpt lat="43.56908" lon="3.76537">
        <ele>39.8</ele>
        <time>2021-04-13T07:41:38Z</time>
      </trkpt>
      <trkpt lat="43.56907" lon="3.76531">
        <ele>39.8</ele>
        <time>2021-04-13T07:41:39Z</time>
      </trkpt>
      <trkpt lat="43.56906" lon="3.76524">
        <ele>40</ele>
        <time>2021-04-13T07:41:40Z</time>
      </trkpt>
      <trkpt lat="43.56905" lon="3.76518">
        <ele>40</ele>
        <time>2021-04-13T07:41:41Z</time>
      </trkpt>
      <trkpt lat="43.56904" lon="3.76512">
        <ele>40</ele>
        <time>2021-04-13T07:41:42Z</time>
      </trkpt>
      <trkpt lat="43.56903" lon="3.76506">
        <ele>40.2</ele>
        <time>2021-04-13T07:41:43Z</time>
      </trkpt>
      <trkpt lat="43.56901" lon="3.765">
        <ele>40.2</ele>
        <time>2021-04-13T07:41:44Z</time>
      </trkpt>
      <trkpt lat="43.56899" lon="3.76494">
        <ele>40.2</ele>
        <time>2021-04-13T07:41:45Z</time>
      </trkpt>
      <trkpt lat="43.56898" lon="3.76489">
        <ele>40.4</ele>
        <time>2021-04-13T07:41:46Z</time>
      </trkpt>
      <trkpt lat="43.56896" lon="3.76483">
        <ele>40.6</ele>
        <time>2021-04-13T07:41:47Z</time>
      </trkpt>
      <trkpt lat="43.56895" lon="3.76477">
        <ele>40.8</ele>
        <time>2021-04-13T07:41:48Z</time>
      </trkpt>
      <trkpt lat="43.56894" lon="3.76471">
        <ele>40.8</ele>
        <time>2021-04-13T07:41:49Z</time>
      </trkpt>
      <trkpt lat="43.56894" lon="3.76466">
        <ele>41</ele>
        <time>2021-04-13T07:41:50Z</time>
      </trkpt>
      <trkpt lat="43.56893" lon="3.76461">
        <ele>41.2</ele>
        <time>2021-04-13T07:41:51Z</time>
      </trkpt>
      <trkpt lat="43.56892" lon="3.76456">
        <ele>41.4</ele>
        <time>2021-04-13T07:41:52Z</time>
      </trkpt>
      <trkpt lat="43.56892" lon="3.76452">
        <ele>41.6</ele>
        <time>2021-04-13T07:41:53Z</time>
      </trkpt>
      <trkpt lat="43.56891" lon="3.76447">
        <ele>41.6</ele>
        <time>2021-04-13T07:41:54Z</time>
      </trkpt>
      <trkpt lat="43.56891" lon="3.76443">
        <ele>41.8</ele>
        <time>2021-04-13T07:41:55Z</time>
      </trkpt>
      <trkpt lat="43.56891" lon="3.76439">
        <ele>42</ele>
        <time>2021-04-13T07:41:56Z</time>
      </trkpt>
      <trkpt lat="43.56891" lon="3.76435">
        <ele>42</ele>
        <time>2021-04-13T07:41:57Z</time>
      </trkpt>
      <trkpt lat="43.56891" lon="3.76432">
        <ele>41.8</ele>
        <time>2021-04-13T07:41:58Z</time>
      </trkpt>
      <trkpt lat="43.56891" lon="3.76428">
        <ele>41.6</ele>
        <time>2021-04-13T07:41:59Z</time>
      </trkpt>
      <trkpt lat="43.56891" lon="3.76424">
        <ele>41.4</ele>
        <time>2021-04-13T07:42:00Z</time>
      </trkpt>
      <trkpt lat="43.5689" lon="3.76421">
        <ele>41.6</ele>
        <time>2021-04-13T07:42:01Z</time>
      </trkpt>
      <trkpt lat="43.56891" lon="3.76418">
        <ele>41.4</ele>
        <time>2021-04-13T07:42:02Z</time>
      </trkpt>
      <trkpt lat="43.5689" lon="3.76415">
        <ele>41.4</ele>
        <time>2021-04-13T07:42:03Z</time>
      </trkpt>
      <trkpt lat="43.5689" lon="3.76412">
        <ele>41.2</ele>
        <time>2021-04-13T07:42:04Z</time>
      </trkpt>
      <trkpt lat="43.5689" lon="3.76409">
        <ele>41</ele>
        <time>2021-04-13T07:42:05Z</time>
      </trkpt>
      <trkpt lat="43.5689" lon="3.76406">
        <ele>41</ele>
        <time>2021-04-13T07:42:06Z</time>
      </trkpt>
      <trkpt lat="43.5689" lon="3.76403">
        <ele>41</ele>
        <time>2021-04-13T07:42:07Z</time>
      </trkpt>
      <trkpt lat="43.5689" lon="3.764">
        <ele>40.8</ele>
        <time>2021-04-13T07:42:08Z</time>
      </trkpt>
      <trkpt lat="43.56889" lon="3.76397">
        <ele>40.6</ele>
        <time>2021-04-13T07:42:09Z</time>
      </trkpt>
      <trkpt lat="43.56889" lon="3.76394">
        <ele>40.4</ele>
        <time>2021-04-13T07:42:10Z</time>
      </trkpt>
      <trkpt lat="43.5689" lon="3.7639">
        <ele>40.6</ele>
        <time>2021-04-13T07:42:11Z</time>
      </trkpt>
      <trkpt lat="43.5689" lon="3.76386">
        <ele>40.4</ele>
        <time>2021-04-13T07:42:12Z</time>
      </trkpt>
      <trkpt lat="43.56891" lon="3.76381">
        <ele>40.4</ele>
        <time>2021-04-13T07:42:13Z</time>
      </trkpt>
      <trkpt lat="43.56891" lon="3.76375">
        <ele>40</ele>
        <time>2021-04-13T07:42:14Z</time>
      </trkpt>
      <trkpt lat="43.56891" lon="3.76369">
        <ele>39.8</ele>
        <time>2021-04-13T07:42:15Z</time>
      </trkpt>
      <trkpt lat="43.56891" lon="3.76363">
        <ele>40.2</ele>
        <time>2021-04-13T07:42:16Z</time>
      </trkpt>
      <trkpt lat="43.56892" lon="3.76357">
        <ele>40</ele>
        <time>2021-04-13T07:42:17Z</time>
      </trkpt>
      <trkpt lat="43.56893" lon="3.7635">
        <ele>39.8</ele>
        <time>2021-04-13T07:42:18Z</time>
      </trkpt>
      <trkpt lat="43.56893" lon="3.76344">
        <ele>39.2</ele>
        <time>2021-04-13T07:42:19Z</time>
      </trkpt>
      <trkpt lat="43.56894" lon="3.76337">
        <ele>39</ele>
        <time>2021-04-13T07:42:20Z</time>
      </trkpt>
      <trkpt lat="43.56894" lon="3.76331">
        <ele>39</ele>
        <time>2021-04-13T07:42:21Z</time>
      </trkpt>
      <trkpt lat="43.56894" lon="3.76324">
        <ele>38.8</ele>
        <time>2021-04-13T07:42:22Z</time>
      </trkpt>
      <trkpt lat="43.56895" lon="3.76317">
        <ele>38.6</ele>
        <time>2021-04-13T07:42:23Z</time>
      </trkpt>
      <trkpt lat="43.56895" lon="3.76311">
        <ele>38.6</ele>
        <time>2021-04-13T07:42:24Z</time>
      </trkpt>
      <trkpt lat="43.56895" lon="3.76304">
        <ele>38.2</ele>
        <time>2021-04-13T07:42:25Z</time>
      </trkpt>
      <trkpt lat="43.56896" lon="3.76298">
        <ele>38.2</ele>
        <time>2021-04-13T07:42:26Z</time>
      </trkpt>
      <trkpt lat="43.56896" lon="3.76292">
        <ele>38.2</ele>
        <time>2021-04-13T07:42:27Z</time>
      </trkpt>
      <trkpt lat="43.56896" lon="3.76286">
        <ele>38</ele>
        <time>2021-04-13T07:42:28Z</time>
      </trkpt>
      <trkpt lat="43.56897" lon="3.7628">
        <ele>38</ele>
        <time>2021-04-13T07:42:29Z</time>
      </trkpt>
      <trkpt lat="43.56897" lon="3.76274">
        <ele>37.8</ele>
        <time>2021-04-13T07:42:30Z</time>
      </trkpt>
      <trkpt lat="43.56898" lon="3.76267">
        <ele>37.8</ele>
        <time>2021-04-13T07:42:31Z</time>
      </trkpt>
      <trkpt lat="43.56898" lon="3.7626">
        <ele>37.6</ele>
        <time>2021-04-13T07:42:32Z</time>
      </trkpt>
      <trkpt lat="43.56899" lon="3.76254">
        <ele>37.8</ele>
        <time>2021-04-13T07:42:33Z</time>
      </trkpt>
      <trkpt lat="43.56899" lon="3.76247">
        <ele>37.6</ele>
        <time>2021-04-13T07:42:34Z</time>
      </trkpt>
      <trkpt lat="43.569" lon="3.7624">
        <ele>37.6</ele>
        <time>2021-04-13T07:42:35Z</time>
      </trkpt>
      <trkpt lat="43.56901" lon="3.76233">
        <ele>37.4</ele>
        <time>2021-04-13T07:42:36Z</time>
      </trkpt>
      <trkpt lat="43.56902" lon="3.76226">
        <ele>37.4</ele>
        <time>2021-04-13T07:42:37Z</time>
      </trkpt>
      <trkpt lat="43.56903" lon="3.76219">
        <ele>37.4</ele>
        <time>2021-04-13T07:42:38Z</time>
      </trkpt>
      <trkpt lat="43.56904" lon="3.76212">
        <ele>37.4</ele>
        <time>2021-04-13T07:42:39Z</time>
      </trkpt>
      <trkpt lat="43.56905" lon="3.76205">
        <ele>37.2</ele>
        <time>2021-04-13T07:42:40Z</time>
      </trkpt>
      <trkpt lat="43.56905" lon="3.76198">
        <ele>37.2</ele>
        <time>2021-04-13T07:42:41Z</time>
      </trkpt>
      <trkpt lat="43.56905" lon="3.7619">
        <ele>37</ele>
        <time>2021-04-13T07:42:42Z</time>
      </trkpt>
      <trkpt lat="43.56904" lon="3.76183">
        <ele>36.8</ele>
        <time>2021-04-13T07:42:43Z</time>
      </trkpt>
      <trkpt lat="43.56904" lon="3.76176">
        <ele>36.8</ele>
        <time>2021-04-13T07:42:44Z</time>
      </trkpt>
      <trkpt lat="43.56903" lon="3.76169">
        <ele>37</ele>
        <time>2021-04-13T07:42:45Z</time>
      </trkpt>
      <trkpt lat="43.56902" lon="3.76162">
        <ele>37</ele>
        <time>2021-04-13T07:42:46Z</time>
      </trkpt>
      <trkpt lat="43.56901" lon="3.76155">
        <ele>37</ele>
        <time>2021-04-13T07:42:47Z</time>
      </trkpt>
      <trkpt lat="43.56901" lon="3.76148">
        <ele>36.6</ele>
        <time>2021-04-13T07:42:48Z</time>
      </trkpt>
      <trkpt lat="43.569" lon="3.76141">
        <ele>36.6</ele>
        <time>2021-04-13T07:42:49Z</time>
      </trkpt>
      <trkpt lat="43.56899" lon="3.76134">
        <ele>36.4</ele>
        <time>2021-04-13T07:42:50Z</time>
      </trkpt>
      <trkpt lat="43.56899" lon="3.76127">
        <ele>36.6</ele>
        <time>2021-04-13T07:42:51Z</time>
      </trkpt>
      <trkpt lat="43.56898" lon="3.7612">
        <ele>36.4</ele>
        <time>2021-04-13T07:42:52Z</time>
      </trkpt>
      <trkpt lat="43.56897" lon="3.76113">
        <ele>36.6</ele>
        <time>2021-04-13T07:42:53Z</time>
      </trkpt>
      <trkpt lat="43.56897" lon="3.76107">
        <ele>36.4</ele>
        <time>2021-04-13T07:42:54Z</time>
      </trkpt>
      <trkpt lat="43.56896" lon="3.761">
        <ele>36.2</ele>
        <time>2021-04-13T07:42:55Z</time>
      </trkpt>
      <trkpt lat="43.56895" lon="3.76093">
        <ele>36.4</ele>
        <time>2021-04-13T07:42:56Z</time>
      </trkpt>
      <trkpt lat="43.56894" lon="3.76086">
        <ele>36.4</ele>
        <time>2021-04-13T07:42:57Z</time>
      </trkpt>
      <trkpt lat="43.56893" lon="3.7608">
        <ele>36.4</ele>
        <time>2021-04-13T07:42:58Z</time>
      </trkpt>
      <trkpt lat="43.56892" lon="3.76073">
        <ele>36.4</ele>
        <time>2021-04-13T07:42:59Z</time>
      </trkpt>
      <trkpt lat="43.56892" lon="3.76067">
        <ele>36.2</ele>
        <time>2021-04-13T07:43:00Z</time>
      </trkpt>
      <trkpt lat="43.56891" lon="3.76061">
        <ele>36</ele>
        <time>2021-04-13T07:43:01Z</time>
      </trkpt>
      <trkpt lat="43.5689" lon="3.76054">
        <ele>35.8</ele>
        <time>2021-04-13T07:43:02Z</time>
      </trkpt>
      <trkpt lat="43.56889" lon="3.76048">
        <ele>35.6</ele>
        <time>2021-04-13T07:43:03Z</time>
      </trkpt>
      <trkpt lat="43.56888" lon="3.76041">
        <ele>35.6</ele>
        <time>2021-04-13T07:43:04Z</time>
      </trkpt>
      <trkpt lat="43.56887" lon="3.76035">
        <ele>35.6</ele>
        <time>2021-04-13T07:43:05Z</time>
      </trkpt>
      <trkpt lat="43.56886" lon="3.76028">
        <ele>35.6</ele>
        <time>2021-04-13T07:43:06Z</time>
      </trkpt>
      <trkpt lat="43.56884" lon="3.76022">
        <ele>35.6</ele>
        <time>2021-04-13T07:43:07Z</time>
      </trkpt>
      <trkpt lat="43.56883" lon="3.76015">
        <ele>35.6</ele>
        <time>2021-04-13T07:43:08Z</time>
      </trkpt>
      <trkpt lat="43.56882" lon="3.76009">
        <ele>35.6</ele>
        <time>2021-04-13T07:43:09Z</time>
      </trkpt>
      <trkpt lat="43.56881" lon="3.76003">
        <ele>35.6</ele>
        <time>2021-04-13T07:43:10Z</time>
      </trkpt>
      <trkpt lat="43.56879" lon="3.75996">
        <ele>35.6</ele>
        <time>2021-04-13T07:43:11Z</time>
      </trkpt>
      <trkpt lat="43.56878" lon="3.7599">
        <ele>35.8</ele>
        <time>2021-04-13T07:43:12Z</time>
      </trkpt>
      <trkpt lat="43.56876" lon="3.75984">
        <ele>35.6</ele>
        <time>2021-04-13T07:43:13Z</time>
      </trkpt>
      <trkpt lat="43.56875" lon="3.75978">
        <ele>35.6</ele>
        <time>2021-04-13T07:43:14Z</time>
      </trkpt>
      <trkpt lat="43.56873" lon="3.75972">
        <ele>35.6</ele>
        <time>2021-04-13T07:43:15Z</time>
      </trkpt>
      <trkpt lat="43.56872" lon="3.75966">
        <ele>35.6</ele>
        <time>2021-04-13T07:43:16Z</time>
      </trkpt>
      <trkpt lat="43.5687" lon="3.75961">
        <ele>35.6</ele>
        <time>2021-04-13T07:43:17Z</time>
      </trkpt>
      <trkpt lat="43.56869" lon="3.75955">
        <ele>35.6</ele>
        <time>2021-04-13T07:43:18Z</time>
      </trkpt>
      <trkpt lat="43.56867" lon="3.75949">
        <ele>35.6</ele>
        <time>2021-04-13T07:43:19Z</time>
      </trkpt>
      <trkpt lat="43.56865" lon="3.75944">
        <ele>35.6</ele>
        <time>2021-04-13T07:43:20Z</time>
      </trkpt>
      <trkpt lat="43.56864" lon="3.75938">
        <ele>35.6</ele>
        <time>2021-04-13T07:43:21Z</time>
      </trkpt>
      <trkpt lat="43.56862" lon="3.75932">
        <ele>35.8</ele>
        <time>2021-04-13T07:43:22Z</time>
      </trkpt>
      <trkpt lat="43.56861" lon="3.75927">
        <ele>35.6</ele>
        <time>2021-04-13T07:43:23Z</time>
      </trkpt>
      <trkpt lat="43.56859" lon="3.75921">
        <ele>35.6</ele>
        <time>2021-04-13T07:43:24Z</time>
      </trkpt>
      <trkpt lat="43.56858" lon="3.75915">
        <ele>35.6</ele>
        <time>2021-04-13T07:43:25Z</time>
      </trkpt>
      <trkpt lat="43.56856" lon="3.75909">
        <ele>35.6</ele>
        <time>2021-04-13T07:43:26Z</time>
      </trkpt>
      <trkpt lat="43.56855" lon="3.75903">
        <ele>35.6</ele>
        <time>2021-04-13T07:43:27Z</time>
      </trkpt>
      <trkpt lat="43.56853" lon="3.75897">
        <ele>35.6</ele>
        <time>2021-04-13T07:43:28Z</time>
      </trkpt>
      <trkpt lat="43.56852" lon="3.75891">
        <ele>35.6</ele>
        <time>2021-04-13T07:43:29Z</time>
      </trkpt>
      <trkpt lat="43.5685" lon="3.75886">
        <ele>35.6</ele>
        <time>2021-04-13T07:43:30Z</time>
      </trkpt>
      <trkpt lat="43.56849" lon="3.7588">
        <ele>35.6</ele>
        <time>2021-04-13T07:43:31Z</time>
      </trkpt>
      <trkpt lat="43.56847" lon="3.75874">
        <ele>35.6</ele>
        <time>2021-04-13T07:43:32Z</time>
      </trkpt>
      <trkpt lat="43.56845" lon="3.75868">
        <ele>35.6</ele>
        <time>2021-04-13T07:43:33Z</time>
      </trkpt>
      <trkpt lat="43.56843" lon="3.75862">
        <ele>35.6</ele>
        <time>2021-04-13T07:43:34Z</time>
      </trkpt>
      <trkpt lat="43.56842" lon="3.75857">
        <ele>35.6</ele>
        <time>2021-04-13T07:43:35Z</time>
      </trkpt>
      <trkpt lat="43.5684" lon="3.75851">
        <ele>35.6</ele>
        <time>2021-04-13T07:43:36Z</time>
      </trkpt>
      <trkpt lat="43.56838" lon="3.75845">
        <ele>35.6</ele>
        <time>2021-04-13T07:43:37Z</time>
      </trkpt>
      <trkpt lat="43.56837" lon="3.7584">
        <ele>35.6</ele>
        <time>2021-04-13T07:43:38Z</time>
      </trkpt>
      <trkpt lat="43.56835" lon="3.75834">
        <ele>35.6</ele>
        <time>2021-04-13T07:43:39Z</time>
      </trkpt>
      <trkpt lat="43.56833" lon="3.75829">
        <ele>35.4</ele>
        <time>2021-04-13T07:43:40Z</time>
      </trkpt>
      <trkpt lat="43.56831" lon="3.75823">
        <ele>35.6</ele>
        <time>2021-04-13T07:43:41Z</time>
      </trkpt>
      <trkpt lat="43.56829" lon="3.75818">
        <ele>35.4</ele>
        <time>2021-04-13T07:43:42Z</time>
      </trkpt>
      <trkpt lat="43.56828" lon="3.75812">
        <ele>35.4</ele>
        <time>2021-04-13T07:43:43Z</time>
      </trkpt>
      <trkpt lat="43.56826" lon="3.75807">
        <ele>35.4</ele>
        <time>2021-04-13T07:43:44Z</time>
      </trkpt>
      <trkpt lat="43.56824" lon="3.75801">
        <ele>35.2</ele>
        <time>2021-04-13T07:43:45Z</time>
      </trkpt>
      <trkpt lat="43.56822" lon="3.75796">
        <ele>35.2</ele>
        <time>2021-04-13T07:43:46Z</time>
      </trkpt>
      <trkpt lat="43.5682" lon="3.7579">
        <ele>35.4</ele>
        <time>2021-04-13T07:43:47Z</time>
      </trkpt>
      <trkpt lat="43.56819" lon="3.75785">
        <ele>35.4</ele>
        <time>2021-04-13T07:43:48Z</time>
      </trkpt>
      <trkpt lat="43.56817" lon="3.7578">
        <ele>35.4</ele>
        <time>2021-04-13T07:43:49Z</time>
      </trkpt>
      <trkpt lat="43.56815" lon="3.75774">
        <ele>35.4</ele>
        <time>2021-04-13T07:43:50Z</time>
      </trkpt>
      <trkpt lat="43.56813" lon="3.75769">
        <ele>35.4</ele>
        <time>2021-04-13T07:43:51Z</time>
      </trkpt>
      <trkpt lat="43.56812" lon="3.75764">
        <ele>35.4</ele>
        <time>2021-04-13T07:43:52Z</time>
      </trkpt>
      <trkpt lat="43.5681" lon="3.75759">
        <ele>35.4</ele>
        <time>2021-04-13T07:43:53Z</time>
      </trkpt>
      <trkpt lat="43.56808" lon="3.75753">
        <ele>35.4</ele>
        <time>2021-04-13T07:43:54Z</time>
      </trkpt>
      <trkpt lat="43.56807" lon="3.75748">
        <ele>35.4</ele>
        <time>2021-04-13T07:43:55Z</time>
      </trkpt>
      <trkpt lat="43.56805" lon="3.75742">
        <ele>35.4</ele>
        <time>2021-04-13T07:43:56Z</time>
      </trkpt>
      <trkpt lat="43.56803" lon="3.75737">
        <ele>35.4</ele>
        <time>2021-04-13T07:43:57Z</time>
      </trkpt>
      <trkpt lat="43.56802" lon="3.75731">
        <ele>35.6</ele>
        <time>2021-04-13T07:43:58Z</time>
      </trkpt>
      <trkpt lat="43.568" lon="3.75726">
        <ele>35.4</ele>
        <time>2021-04-13T07:43:59Z</time>
      </trkpt>
      <trkpt lat="43.56799" lon="3.7572">
        <ele>35.4</ele>
        <time>2021-04-13T07:44:00Z</time>
      </trkpt>
      <trkpt lat="43.56797" lon="3.75715">
        <ele>35.4</ele>
        <time>2021-04-13T07:44:01Z</time>
      </trkpt>
      <trkpt lat="43.56795" lon="3.75709">
        <ele>35.4</ele>
        <time>2021-04-13T07:44:02Z</time>
      </trkpt>
      <trkpt lat="43.56793" lon="3.75704">
        <ele>35.4</ele>
        <time>2021-04-13T07:44:03Z</time>
      </trkpt>
      <trkpt lat="43.56792" lon="3.75698">
        <ele>35.6</ele>
        <time>2021-04-13T07:44:04Z</time>
      </trkpt>
      <trkpt lat="43.5679" lon="3.75692">
        <ele>35.6</ele>
        <time>2021-04-13T07:44:05Z</time>
      </trkpt>
      <trkpt lat="43.56788" lon="3.75687">
        <ele>35.4</ele>
        <time>2021-04-13T07:44:06Z</time>
      </trkpt>
      <trkpt lat="43.56786" lon="3.75681">
        <ele>35.4</ele>
        <time>2021-04-13T07:44:07Z</time>
      </trkpt>
      <trkpt lat="43.56784" lon="3.75676">
        <ele>35.6</ele>
        <time>2021-04-13T07:44:08Z</time>
      </trkpt>
      <trkpt lat="43.56782" lon="3.7567">
        <ele>35.6</ele>
        <time>2021-04-13T07:44:09Z</time>
      </trkpt>
      <trkpt lat="43.56781" lon="3.75665">
        <ele>35.4</ele>
        <time>2021-04-13T07:44:10Z</time>
      </trkpt>
      <trkpt lat="43.56779" lon="3.75659">
        <ele>35.6</ele>
        <time>2021-04-13T07:44:11Z</time>
      </trkpt>
      <trkpt lat="43.56777" lon="3.75654">
        <ele>35.6</ele>
        <time>2021-04-13T07:44:12Z</time>
      </trkpt>
      <trkpt lat="43.56775" lon="3.75648">
        <ele>35.4</ele>
        <time>2021-04-13T07:44:13Z</time>
      </trkpt>
      <trkpt lat="43.56773" lon="3.75643">
        <ele>35.4</ele>
        <time>2021-04-13T07:44:14Z</time>
      </trkpt>
      <trkpt lat="43.5677" lon="3.75638">
        <ele>35.6</ele>
        <time>2021-04-13T07:44:15Z</time>
      </trkpt>
      <trkpt lat="43.56768" lon="3.75634">
        <ele>35.6</ele>
        <time>2021-04-13T07:44:16Z</time>
      </trkpt>
      <trkpt lat="43.56766" lon="3.75629">
        <ele>35.6</ele>
        <time>2021-04-13T07:44:17Z</time>
      </trkpt>
      <trkpt lat="43.56764" lon="3.75624">
        <ele>35.8</ele>
        <time>2021-04-13T07:44:18Z</time>
      </trkpt>
      <trkpt lat="43.56762" lon="3.75618">
        <ele>35.8</ele>
        <time>2021-04-13T07:44:19Z</time>
      </trkpt>
      <trkpt lat="43.5676" lon="3.75613">
        <ele>35.6</ele>
        <time>2021-04-13T07:44:20Z</time>
      </trkpt>
      <trkpt lat="43.56757" lon="3.75608">
        <ele>35.8</ele>
        <time>2021-04-13T07:44:21Z</time>
      </trkpt>
      <trkpt lat="43.56755" lon="3.75602">
        <ele>35.6</ele>
        <time>2021-04-13T07:44:22Z</time>
      </trkpt>
      <trkpt lat="43.56753" lon="3.75597">
        <ele>35.6</ele>
        <time>2021-04-13T07:44:23Z</time>
      </trkpt>
      <trkpt lat="43.5675" lon="3.75591">
        <ele>35.8</ele>
        <time>2021-04-13T07:44:24Z</time>
      </trkpt>
      <trkpt lat="43.56748" lon="3.75585">
        <ele>35.8</ele>
        <time>2021-04-13T07:44:25Z</time>
      </trkpt>
      <trkpt lat="43.56746" lon="3.7558">
        <ele>35.6</ele>
        <time>2021-04-13T07:44:26Z</time>
      </trkpt>
      <trkpt lat="43.56743" lon="3.75574">
        <ele>35.6</ele>
        <time>2021-04-13T07:44:27Z</time>
      </trkpt>
      <trkpt lat="43.56741" lon="3.75569">
        <ele>35.6</ele>
        <time>2021-04-13T07:44:28Z</time>
      </trkpt>
      <trkpt lat="43.56738" lon="3.75563">
        <ele>35.8</ele>
        <time>2021-04-13T07:44:29Z</time>
      </trkpt>
      <trkpt lat="43.56736" lon="3.75557">
        <ele>35.8</ele>
        <time>2021-04-13T07:44:30Z</time>
      </trkpt>
      <trkpt lat="43.56734" lon="3.75551">
        <ele>35.8</ele>
        <time>2021-04-13T07:44:31Z</time>
      </trkpt>
      <trkpt lat="43.56731" lon="3.75546">
        <ele>35.8</ele>
        <time>2021-04-13T07:44:32Z</time>
      </trkpt>
      <trkpt lat="43.56729" lon="3.7554">
        <ele>35.8</ele>
        <time>2021-04-13T07:44:33Z</time>
      </trkpt>
      <trkpt lat="43.56727" lon="3.75534">
        <ele>35.8</ele>
        <time>2021-04-13T07:44:34Z</time>
      </trkpt>
      <trkpt lat="43.56725" lon="3.75529">
        <ele>35.8</ele>
        <time>2021-04-13T07:44:35Z</time>
      </trkpt>
      <trkpt lat="43.56723" lon="3.75523">
        <ele>35.8</ele>
        <time>2021-04-13T07:44:36Z</time>
      </trkpt>
      <trkpt lat="43.56721" lon="3.75518">
        <ele>35.8</ele>
        <time>2021-04-13T07:44:37Z</time>
      </trkpt>
      <trkpt lat="43.56719" lon="3.75512">
        <ele>35.6</ele>
        <time>2021-04-13T07:44:38Z</time>
      </trkpt>
      <trkpt lat="43.56717" lon="3.75507">
        <ele>35.8</ele>
        <time>2021-04-13T07:44:39Z</time>
      </trkpt>
      <trkpt lat="43.56714" lon="3.75501">
        <ele>35.6</ele>
        <time>2021-04-13T07:44:40Z</time>
      </trkpt>
      <trkpt lat="43.56712" lon="3.75496">
        <ele>35.6</ele>
        <time>2021-04-13T07:44:41Z</time>
      </trkpt>
      <trkpt lat="43.5671" lon="3.7549">
        <ele>35.8</ele>
        <time>2021-04-13T07:44:42Z</time>
      </trkpt>
      <trkpt lat="43.56708" lon="3.75485">
        <ele>35.6</ele>
        <time>2021-04-13T07:44:43Z</time>
      </trkpt>
      <trkpt lat="43.56706" lon="3.75479">
        <ele>35.6</ele>
        <time>2021-04-13T07:44:44Z</time>
      </trkpt>
      <trkpt lat="43.56704" lon="3.75474">
        <ele>35.8</ele>
        <time>2021-04-13T07:44:45Z</time>
      </trkpt>
      <trkpt lat="43.56702" lon="3.75468">
        <ele>35.6</ele>
        <time>2021-04-13T07:44:46Z</time>
      </trkpt>
      <trkpt lat="43.567" lon="3.75462">
        <ele>35.6</ele>
        <time>2021-04-13T07:44:47Z</time>
      </trkpt>
      <trkpt lat="43.56698" lon="3.75457">
        <ele>35.6</ele>
        <time>2021-04-13T07:44:48Z</time>
      </trkpt>
      <trkpt lat="43.56695" lon="3.75451">
        <ele>35.6</ele>
        <time>2021-04-13T07:44:49Z</time>
      </trkpt>
      <trkpt lat="43.56693" lon="3.75445">
        <ele>35.6</ele>
        <time>2021-04-13T07:44:50Z</time>
      </trkpt>
      <trkpt lat="43.56691" lon="3.7544">
        <ele>35.6</ele>
        <time>2021-04-13T07:44:51Z</time>
      </trkpt>
      <trkpt lat="43.56688" lon="3.75434">
        <ele>35.6</ele>
        <time>2021-04-13T07:44:52Z</time>
      </trkpt>
      <trkpt lat="43.56686" lon="3.75429">
        <ele>35.6</ele>
        <time>2021-04-13T07:44:53Z</time>
      </trkpt>
      <trkpt lat="43.56684" lon="3.75424">
        <ele>35.6</ele>
        <time>2021-04-13T07:44:54Z</time>
      </trkpt>
      <trkpt lat="43.56681" lon="3.75419">
        <ele>35.6</ele>
        <time>2021-04-13T07:44:55Z</time>
      </trkpt>
      <trkpt lat="43.56679" lon="3.75414">
        <ele>35.6</ele>
        <time>2021-04-13T07:44:56Z</time>
      </trkpt>
      <trkpt lat="43.56677" lon="3.75409">
        <ele>35.6</ele>
        <time>2021-04-13T07:44:57Z</time>
      </trkpt>
      <trkpt lat="43.56674" lon="3.75403">
        <ele>35.6</ele>
        <time>2021-04-13T07:44:58Z</time>
      </trkpt>
      <trkpt lat="43.56672" lon="3.75398">
        <ele>35.8</ele>
        <time>2021-04-13T07:44:59Z</time>
      </trkpt>
      <trkpt lat="43.5667" lon="3.75393">
        <ele>35.8</ele>
        <time>2021-04-13T07:45:00Z</time>
      </trkpt>
      <trkpt lat="43.56668" lon="3.75387">
        <ele>35.8</ele>
        <time>2021-04-13T07:45:01Z</time>
      </trkpt>
      <trkpt lat="43.56665" lon="3.75382">
        <ele>36</ele>
        <time>2021-04-13T07:45:02Z</time>
      </trkpt>
      <trkpt lat="43.56663" lon="3.75376">
        <ele>36</ele>
        <time>2021-04-13T07:45:03Z</time>
      </trkpt>
      <trkpt lat="43.5666" lon="3.75371">
        <ele>36</ele>
        <time>2021-04-13T07:45:04Z</time>
      </trkpt>
      <trkpt lat="43.56658" lon="3.75366">
        <ele>36</ele>
        <time>2021-04-13T07:45:05Z</time>
      </trkpt>
      <trkpt lat="43.56655" lon="3.75361">
        <ele>36.2</ele>
        <time>2021-04-13T07:45:06Z</time>
      </trkpt>
      <trkpt lat="43.56653" lon="3.75356">
        <ele>36.2</ele>
        <time>2021-04-13T07:45:07Z</time>
      </trkpt>
      <trkpt lat="43.56651" lon="3.75351">
        <ele>36</ele>
        <time>2021-04-13T07:45:08Z</time>
      </trkpt>
      <trkpt lat="43.56649" lon="3.75346">
        <ele>36.2</ele>
        <time>2021-04-13T07:45:09Z</time>
      </trkpt>
      <trkpt lat="43.56646" lon="3.75342">
        <ele>36.2</ele>
        <time>2021-04-13T07:45:10Z</time>
      </trkpt>
      <trkpt lat="43.56644" lon="3.75338">
        <ele>36.2</ele>
        <time>2021-04-13T07:45:11Z</time>
      </trkpt>
      <trkpt lat="43.56642" lon="3.75334">
        <ele>36.4</ele>
        <time>2021-04-13T07:45:12Z</time>
      </trkpt>
      <trkpt lat="43.5664" lon="3.75331">
        <ele>36.4</ele>
        <time>2021-04-13T07:45:13Z</time>
      </trkpt>
      <trkpt lat="43.56639" lon="3.75327">
        <ele>36</ele>
        <time>2021-04-13T07:45:14Z</time>
      </trkpt>
      <trkpt lat="43.56637" lon="3.75324">
        <ele>36.2</ele>
        <time>2021-04-13T07:45:15Z</time>
      </trkpt>
      <trkpt lat="43.56636" lon="3.75322">
        <ele>36</ele>
        <time>2021-04-13T07:45:16Z</time>
      </trkpt>
      <trkpt lat="43.56635" lon="3.75319">
        <ele>36</ele>
        <time>2021-04-13T07:45:17Z</time>
      </trkpt>
      <trkpt lat="43.56633" lon="3.75317">
        <ele>36</ele>
        <time>2021-04-13T07:45:18Z</time>
      </trkpt>
      <trkpt lat="43.56632" lon="3.75315">
        <ele>36</ele>
        <time>2021-04-13T07:45:19Z</time>
      </trkpt>
      <trkpt lat="43.56631" lon="3.75313">
        <ele>36</ele>
        <time>2021-04-13T07:45:20Z</time>
      </trkpt>
      <trkpt lat="43.5663" lon="3.75312">
        <ele>36</ele>
        <time>2021-04-13T07:45:21Z</time>
      </trkpt>
      <trkpt lat="43.56629" lon="3.75311">
        <ele>35.8</ele>
        <time>2021-04-13T07:45:22Z</time>
      </trkpt>
      <trkpt lat="43.56628" lon="3.75309">
        <ele>35.8</ele>
        <time>2021-04-13T07:45:23Z</time>
      </trkpt>
      <trkpt lat="43.56627" lon="3.75308">
        <ele>36</ele>
        <time>2021-04-13T07:45:24Z</time>
      </trkpt>
      <trkpt lat="43.56627" lon="3.75308">
        <ele>36</ele>
        <time>2021-04-13T07:45:25Z</time>
      </trkpt>
      <trkpt lat="43.56627" lon="3.75308">
        <ele>35.8</ele>
        <time>2021-04-13T07:45:26Z</time>
      </trkpt>
      <trkpt lat="43.56627" lon="3.75308">
        <ele>35.8</ele>
        <time>2021-04-13T07:45:27Z</time>
      </trkpt>
      <trkpt lat="43.56627" lon="3.75308">
        <ele>35.8</ele>
        <time>2021-04-13T07:45:28Z</time>
      </trkpt>
      <trkpt lat="43.56627" lon="3.75308">
        <ele>35.8</ele>
        <time>2021-04-13T07:45:29Z</time>
      </trkpt>
      <trkpt lat="43.56626" lon="3.75308">
        <ele>36</ele>
        <time>2021-04-13T07:45:30Z</time>
      </trkpt>
      <trkpt lat="43.56626" lon="3.75308">
        <ele>36</ele>
        <time>2021-04-13T07:45:31Z</time>
      </trkpt>
      <trkpt lat="43.56626" lon="3.75308">
        <ele>36</ele>
        <time>2021-04-13T07:45:32Z</time>
      </trkpt>
      <trkpt lat="43.5661" lon="3.75302">
        <ele>36.2</ele>
        <time>2021-04-13T07:45:46Z</time>
      </trkpt>
      <trkpt lat="43.56608" lon="3.75301">
        <ele>36.2</ele>
        <time>2021-04-13T07:45:47Z</time>
      </trkpt>
      <trkpt lat="43.56606" lon="3.753">
        <ele>36.4</ele>
        <time>2021-04-13T07:45:48Z</time>
      </trkpt>
      <trkpt lat="43.56604" lon="3.75299">
        <ele>36.4</ele>
        <time>2021-04-13T07:45:49Z</time>
      </trkpt>
      <trkpt lat="43.56602" lon="3.75299">
        <ele>36.4</ele>
        <time>2021-04-13T07:45:50Z</time>
      </trkpt>
      <trkpt lat="43.566" lon="3.75298">
        <ele>36.4</ele>
        <time>2021-04-13T07:45:51Z</time>
      </trkpt>
      <trkpt lat="43.56598" lon="3.75298">
        <ele>36.4</ele>
        <time>2021-04-13T07:45:52Z</time>
      </trkpt>
      <trkpt lat="43.56596" lon="3.75297">
        <ele>36.2</ele>
        <time>2021-04-13T07:45:53Z</time>
      </trkpt>
      <trkpt lat="43.56593" lon="3.75297">
        <ele>36.2</ele>
        <time>2021-04-13T07:45:54Z</time>
      </trkpt>
      <trkpt lat="43.5659" lon="3.75297">
        <ele>36.2</ele>
        <time>2021-04-13T07:45:55Z</time>
      </trkpt>
      <trkpt lat="43.56587" lon="3.75296">
        <ele>36.2</ele>
        <time>2021-04-13T07:45:56Z</time>
      </trkpt>
      <trkpt lat="43.56584" lon="3.75295">
        <ele>36.2</ele>
        <time>2021-04-13T07:45:57Z</time>
      </trkpt>
      <trkpt lat="43.56581" lon="3.75294">
        <ele>36.2</ele>
        <time>2021-04-13T07:45:58Z</time>
      </trkpt>
      <trkpt lat="43.56578" lon="3.75293">
        <ele>36.2</ele>
        <time>2021-04-13T07:45:59Z</time>
      </trkpt>
      <trkpt lat="43.56574" lon="3.75292">
        <ele>36.4</ele>
        <time>2021-04-13T07:46:00Z</time>
      </trkpt>
      <trkpt lat="43.56571" lon="3.75292">
        <ele>36.2</ele>
        <time>2021-04-13T07:46:01Z</time>
      </trkpt>
      <trkpt lat="43.56567" lon="3.75291">
        <ele>36.2</ele>
        <time>2021-04-13T07:46:02Z</time>
      </trkpt>
      <trkpt lat="43.56563" lon="3.75291">
        <ele>36.2</ele>
        <time>2021-04-13T07:46:03Z</time>
      </trkpt>
      <trkpt lat="43.56559" lon="3.75291">
        <ele>36.2</ele>
        <time>2021-04-13T07:46:04Z</time>
      </trkpt>
      <trkpt lat="43.56556" lon="3.75291">
        <ele>36.2</ele>
        <time>2021-04-13T07:46:05Z</time>
      </trkpt>
      <trkpt lat="43.56552" lon="3.75291">
        <ele>36.2</ele>
        <time>2021-04-13T07:46:06Z</time>
      </trkpt>
      <trkpt lat="43.56548" lon="3.75291">
        <ele>36.4</ele>
        <time>2021-04-13T07:46:07Z</time>
      </trkpt>
      <trkpt lat="43.56544" lon="3.75291">
        <ele>36.2</ele>
        <time>2021-04-13T07:46:08Z</time>
      </trkpt>
      <trkpt lat="43.5654" lon="3.75292">
        <ele>36.2</ele>
        <time>2021-04-13T07:46:09Z</time>
      </trkpt>
      <trkpt lat="43.56537" lon="3.75292">
        <ele>36.2</ele>
        <time>2021-04-13T07:46:10Z</time>
      </trkpt>
      <trkpt lat="43.56533" lon="3.75293">
        <ele>36.4</ele>
        <time>2021-04-13T07:46:11Z</time>
      </trkpt>
      <trkpt lat="43.56529" lon="3.75293">
        <ele>36.4</ele>
        <time>2021-04-13T07:46:12Z</time>
      </trkpt>
      <trkpt lat="43.56525" lon="3.75294">
        <ele>36.2</ele>
        <time>2021-04-13T07:46:13Z</time>
      </trkpt>
      <trkpt lat="43.56522" lon="3.75294">
        <ele>36.2</ele>
        <time>2021-04-13T07:46:14Z</time>
      </trkpt>
      <trkpt lat="43.56519" lon="3.75294">
        <ele>36.2</ele>
        <time>2021-04-13T07:46:15Z</time>
      </trkpt>
      <trkpt lat="43.56515" lon="3.75295">
        <ele>36.2</ele>
        <time>2021-04-13T07:46:16Z</time>
      </trkpt>
      <trkpt lat="43.56511" lon="3.75295">
        <ele>36.2</ele>
        <time>2021-04-13T07:46:17Z</time>
      </trkpt>
      <trkpt lat="43.56507" lon="3.75295">
        <ele>36.2</ele>
        <time>2021-04-13T07:46:18Z</time>
      </trkpt>
      <trkpt lat="43.56503" lon="3.75296">
        <ele>36.2</ele>
        <time>2021-04-13T07:46:19Z</time>
      </trkpt>
      <trkpt lat="43.56499" lon="3.75296">
        <ele>36.2</ele>
        <time>2021-04-13T07:46:20Z</time>
      </trkpt>
      <trkpt lat="43.56496" lon="3.75296">
        <ele>36</ele>
        <time>2021-04-13T07:46:21Z</time>
      </trkpt>
      <trkpt lat="43.56492" lon="3.75296">
        <ele>36</ele>
        <time>2021-04-13T07:46:22Z</time>
      </trkpt>
      <trkpt lat="43.56488" lon="3.75296">
        <ele>36.2</ele>
        <time>2021-04-13T07:46:23Z</time>
      </trkpt>
      <trkpt lat="43.56485" lon="3.75296">
        <ele>36.2</ele>
        <time>2021-04-13T07:46:24Z</time>
      </trkpt>
      <trkpt lat="43.56482" lon="3.75297">
        <ele>36.2</ele>
        <time>2021-04-13T07:46:25Z</time>
      </trkpt>
      <trkpt lat="43.56479" lon="3.75297">
        <ele>36</ele>
        <time>2021-04-13T07:46:26Z</time>
      </trkpt>
      <trkpt lat="43.56476" lon="3.75297">
        <ele>36</ele>
        <time>2021-04-13T07:46:27Z</time>
      </trkpt>
      <trkpt lat="43.56473" lon="3.75298">
        <ele>36</ele>
        <time>2021-04-13T07:46:28Z</time>
      </trkpt>
      <trkpt lat="43.5647" lon="3.75298">
        <ele>36</ele>
        <time>2021-04-13T07:46:29Z</time>
      </trkpt>
      <trkpt lat="43.56467" lon="3.75298">
        <ele>36</ele>
        <time>2021-04-13T07:46:30Z</time>
      </trkpt>
      <trkpt lat="43.56464" lon="3.75298">
        <ele>36</ele>
        <time>2021-04-13T07:46:31Z</time>
      </trkpt>
      <trkpt lat="43.56461" lon="3.75299">
        <ele>36</ele>
        <time>2021-04-13T07:46:32Z</time>
      </trkpt>
      <trkpt lat="43.56458" lon="3.753">
        <ele>36</ele>
        <time>2021-04-13T07:46:33Z</time>
      </trkpt>
      <trkpt lat="43.56455" lon="3.753">
        <ele>36</ele>
        <time>2021-04-13T07:46:34Z</time>
      </trkpt>
      <trkpt lat="43.56452" lon="3.753">
        <ele>36</ele>
        <time>2021-04-13T07:46:35Z</time>
      </trkpt>
      <trkpt lat="43.5645" lon="3.753">
        <ele>36</ele>
        <time>2021-04-13T07:46:36Z</time>
      </trkpt>
      <trkpt lat="43.56447" lon="3.75301">
        <ele>36.2</ele>
        <time>2021-04-13T07:46:37Z</time>
      </trkpt>
      <trkpt lat="43.56444" lon="3.75301">
        <ele>36.2</ele>
        <time>2021-04-13T07:46:38Z</time>
      </trkpt>
      <trkpt lat="43.56441" lon="3.75302">
        <ele>36.2</ele>
        <time>2021-04-13T07:46:39Z</time>
      </trkpt>
      <trkpt lat="43.56438" lon="3.75302">
        <ele>36.2</ele>
        <time>2021-04-13T07:46:40Z</time>
      </trkpt>
      <trkpt lat="43.56435" lon="3.75303">
        <ele>36.2</ele>
        <time>2021-04-13T07:46:41Z</time>
      </trkpt>
      <trkpt lat="43.56432" lon="3.75303">
        <ele>36.2</ele>
        <time>2021-04-13T07:46:42Z</time>
      </trkpt>
      <trkpt lat="43.56429" lon="3.75304">
        <ele>36.4</ele>
        <time>2021-04-13T07:46:43Z</time>
      </trkpt>
      <trkpt lat="43.56427" lon="3.75305">
        <ele>36.4</ele>
        <time>2021-04-13T07:46:44Z</time>
      </trkpt>
      <trkpt lat="43.56424" lon="3.75305">
        <ele>36.4</ele>
        <time>2021-04-13T07:46:45Z</time>
      </trkpt>
      <trkpt lat="43.56422" lon="3.75306">
        <ele>36.6</ele>
        <time>2021-04-13T07:46:46Z</time>
      </trkpt>
      <trkpt lat="43.56419" lon="3.75307">
        <ele>36.6</ele>
        <time>2021-04-13T07:46:47Z</time>
      </trkpt>
      <trkpt lat="43.56417" lon="3.75308">
        <ele>36.6</ele>
        <time>2021-04-13T07:46:48Z</time>
      </trkpt>
      <trkpt lat="43.56414" lon="3.75308">
        <ele>36.4</ele>
        <time>2021-04-13T07:46:49Z</time>
      </trkpt>
      <trkpt lat="43.56412" lon="3.75309">
        <ele>36.4</ele>
        <time>2021-04-13T07:46:50Z</time>
      </trkpt>
      <trkpt lat="43.5641" lon="3.7531">
        <ele>36.4</ele>
        <time>2021-04-13T07:46:51Z</time>
      </trkpt>
      <trkpt lat="43.56407" lon="3.75311">
        <ele>36.4</ele>
        <time>2021-04-13T07:46:52Z</time>
      </trkpt>
      <trkpt lat="43.56404" lon="3.75311">
        <ele>36.4</ele>
        <time>2021-04-13T07:46:53Z</time>
      </trkpt>
      <trkpt lat="43.56403" lon="3.75312">
        <ele>36.4</ele>
        <time>2021-04-13T07:46:54Z</time>
      </trkpt>
      <trkpt lat="43.56403" lon="3.75312">
        <ele>36.4</ele>
        <time>2021-04-13T07:46:55Z</time>
      </trkpt>
      <trkpt lat="43.56402" lon="3.75312">
        <ele>36.4</ele>
        <time>2021-04-13T07:46:56Z</time>
      </trkpt>
      <trkpt lat="43.56402" lon="3.75312">
        <ele>36.4</ele>
        <time>2021-04-13T07:46:57Z</time>
      </trkpt>
      <trkpt lat="43.56402" lon="3.75312">
        <ele>36.2</ele>
        <time>2021-04-13T07:46:58Z</time>
      </trkpt>
      <trkpt lat="43.56402" lon="3.75312">
        <ele>36.4</ele>
        <time>2021-04-13T07:46:59Z</time>
      </trkpt>
      <trkpt lat="43.56402" lon="3.75311">
        <ele>36.6</ele>
        <time>2021-04-13T07:47:00Z</time>
      </trkpt>
      <trkpt lat="43.56402" lon="3.7531">
        <ele>36.8</ele>
        <time>2021-04-13T07:47:01Z</time>
      </trkpt>
      <trkpt lat="43.56401" lon="3.75309">
        <ele>37</ele>
        <time>2021-04-13T07:47:02Z</time>
      </trkpt>
      <trkpt lat="43.56394" lon="3.7531">
        <ele>36.8</ele>
        <time>2021-04-13T07:47:09Z</time>
      </trkpt>
      <trkpt lat="43.56393" lon="3.75311">
        <ele>36.8</ele>
        <time>2021-04-13T07:47:10Z</time>
      </trkpt>
      <trkpt lat="43.56393" lon="3.75311">
        <ele>36.8</ele>
        <time>2021-04-13T07:47:11Z</time>
      </trkpt>
      <trkpt lat="43.56392" lon="3.75312">
        <ele>36.8</ele>
        <time>2021-04-13T07:47:12Z</time>
      </trkpt>
      <trkpt lat="43.56392" lon="3.75312">
        <ele>36.8</ele>
        <time>2021-04-13T07:47:13Z</time>
      </trkpt>
      <trkpt lat="43.56392" lon="3.75312">
        <ele>36.8</ele>
        <time>2021-04-13T07:47:14Z</time>
      </trkpt>
      <trkpt lat="43.56392" lon="3.75312">
        <ele>36.8</ele>
        <time>2021-04-13T07:47:15Z</time>
      </trkpt>
      <trkpt lat="43.56392" lon="3.75312">
        <ele>36.6</ele>
        <time>2021-04-13T07:47:16Z</time>
      </trkpt>
      <trkpt lat="43.56392" lon="3.75313">
        <ele>36.8</ele>
        <time>2021-04-13T07:47:17Z</time>
      </trkpt>
      <trkpt lat="43.56391" lon="3.75313">
        <ele>36.8</ele>
        <time>2021-04-13T07:47:18Z</time>
      </trkpt>
      <trkpt lat="43.56381" lon="3.75318">
        <ele>36.4</ele>
        <time>2021-04-13T07:47:30Z</time>
      </trkpt>
      <trkpt lat="43.56381" lon="3.75319">
        <ele>36.2</ele>
        <time>2021-04-13T07:47:31Z</time>
      </trkpt>
      <trkpt lat="43.56381" lon="3.75319">
        <ele>36</ele>
        <time>2021-04-13T07:47:32Z</time>
      </trkpt>
      <trkpt lat="43.5638" lon="3.7532">
        <ele>35.8</ele>
        <time>2021-04-13T07:47:33Z</time>
      </trkpt>
      <trkpt lat="43.56379" lon="3.75321">
        <ele>36</ele>
        <time>2021-04-13T07:47:34Z</time>
      </trkpt>
      <trkpt lat="43.56378" lon="3.75321">
        <ele>36</ele>
        <time>2021-04-13T07:47:35Z</time>
      </trkpt>
      <trkpt lat="43.56377" lon="3.75322">
        <ele>36</ele>
        <time>2021-04-13T07:47:36Z</time>
      </trkpt>
      <trkpt lat="43.56376" lon="3.75322">
        <ele>35.8</ele>
        <time>2021-04-13T07:47:37Z</time>
      </trkpt>
      <trkpt lat="43.56375" lon="3.75323">
        <ele>35.8</ele>
        <time>2021-04-13T07:47:38Z</time>
      </trkpt>
      <trkpt lat="43.56374" lon="3.75323">
        <ele>35.8</ele>
        <time>2021-04-13T07:47:39Z</time>
      </trkpt>
      <trkpt lat="43.56373" lon="3.75324">
        <ele>35.8</ele>
        <time>2021-04-13T07:47:40Z</time>
      </trkpt>
      <trkpt lat="43.56372" lon="3.75324">
        <ele>35.8</ele>
        <time>2021-04-13T07:47:41Z</time>
      </trkpt>
      <trkpt lat="43.56371" lon="3.75325">
        <ele>35.8</ele>
        <time>2021-04-13T07:47:42Z</time>
      </trkpt>
      <trkpt lat="43.5637" lon="3.75325">
        <ele>35.6</ele>
        <time>2021-04-13T07:47:43Z</time>
      </trkpt>
      <trkpt lat="43.56369" lon="3.75326">
        <ele>35.6</ele>
        <time>2021-04-13T07:47:44Z</time>
      </trkpt>
      <trkpt lat="43.56368" lon="3.75326">
        <ele>35.6</ele>
        <time>2021-04-13T07:47:45Z</time>
      </trkpt>
      <trkpt lat="43.56368" lon="3.75326">
        <ele>35.6</ele>
        <time>2021-04-13T07:47:46Z</time>
      </trkpt>
      <trkpt lat="43.56367" lon="3.75326">
        <ele>35.6</ele>
        <time>2021-04-13T07:47:47Z</time>
      </trkpt>
      <trkpt lat="43.56367" lon="3.75326">
        <ele>35.6</ele>
        <time>2021-04-13T07:47:48Z</time>
      </trkpt>
      <trkpt lat="43.56367" lon="3.75326">
        <ele>35.6</ele>
        <time>2021-04-13T07:47:49Z</time>
      </trkpt>
      <trkpt lat="43.56367" lon="3.75326">
        <ele>35.4</ele>
        <time>2021-04-13T07:47:50Z</time>
      </trkpt>
      <trkpt lat="43.56367" lon="3.75326">
        <ele>35.4</ele>
        <time>2021-04-13T07:47:51Z</time>
      </trkpt>
      <trkpt lat="43.56367" lon="3.75326">
        <ele>35.4</ele>
        <time>2021-04-13T07:47:52Z</time>
      </trkpt>
      <trkpt lat="43.56367" lon="3.75326">
        <ele>35.6</ele>
        <time>2021-04-13T07:47:53Z</time>
      </trkpt>
      <trkpt lat="43.56367" lon="3.75326">
        <ele>35.4</ele>
        <time>2021-04-13T07:47:54Z</time>
      </trkpt>
      <trkpt lat="43.56352" lon="3.75332">
        <ele>35.2</ele>
        <time>2021-04-13T07:48:08Z</time>
      </trkpt>
      <trkpt lat="43.56351" lon="3.75332">
        <ele>35.2</ele>
        <time>2021-04-13T07:48:09Z</time>
      </trkpt>
      <trkpt lat="43.56349" lon="3.75333">
        <ele>35.2</ele>
        <time>2021-04-13T07:48:10Z</time>
      </trkpt>
      <trkpt lat="43.56347" lon="3.75333">
        <ele>35.2</ele>
        <time>2021-04-13T07:48:11Z</time>
      </trkpt>
      <trkpt lat="43.56346" lon="3.75334">
        <ele>35.2</ele>
        <time>2021-04-13T07:48:12Z</time>
      </trkpt>
      <trkpt lat="43.56344" lon="3.75335">
        <ele>35.2</ele>
        <time>2021-04-13T07:48:13Z</time>
      </trkpt>
      <trkpt lat="43.56342" lon="3.75335">
        <ele>35.2</ele>
        <time>2021-04-13T07:48:14Z</time>
      </trkpt>
      <trkpt lat="43.56341" lon="3.75336">
        <ele>35</ele>
        <time>2021-04-13T07:48:15Z</time>
      </trkpt>
      <trkpt lat="43.56341" lon="3.75338">
        <ele>35</ele>
        <time>2021-04-13T07:48:16Z</time>
      </trkpt>
      <trkpt lat="43.5634" lon="3.7534">
        <ele>35</ele>
        <time>2021-04-13T07:48:17Z</time>
      </trkpt>
      <trkpt lat="43.56339" lon="3.75341">
        <ele>35</ele>
        <time>2021-04-13T07:48:18Z</time>
      </trkpt>
      <trkpt lat="43.56338" lon="3.75342">
        <ele>34.8</ele>
        <time>2021-04-13T07:48:19Z</time>
      </trkpt>
      <trkpt lat="43.56337" lon="3.75342">
        <ele>34.8</ele>
        <time>2021-04-13T07:48:20Z</time>
      </trkpt>
      <trkpt lat="43.56336" lon="3.75342">
        <ele>34.8</ele>
        <time>2021-04-13T07:48:21Z</time>
      </trkpt>
      <trkpt lat="43.56336" lon="3.75343">
        <ele>34.6</ele>
        <time>2021-04-13T07:48:22Z</time>
      </trkpt>
      <trkpt lat="43.56335" lon="3.75343">
        <ele>34.6</ele>
        <time>2021-04-13T07:48:23Z</time>
      </trkpt>
      <trkpt lat="43.56335" lon="3.75343">
        <ele>34.8</ele>
        <time>2021-04-13T07:48:24Z</time>
      </trkpt>
      <trkpt lat="43.56335" lon="3.75343">
        <ele>34.8</ele>
        <time>2021-04-13T07:48:25Z</time>
      </trkpt>
      <trkpt lat="43.56336" lon="3.75342">
        <ele>34.8</ele>
        <time>2021-04-13T07:48:26Z</time>
      </trkpt>
      <trkpt lat="43.56335" lon="3.75342">
        <ele>34.8</ele>
        <time>2021-04-13T07:48:27Z</time>
      </trkpt>
      <trkpt lat="43.56335" lon="3.75342">
        <ele>34.6</ele>
        <time>2021-04-13T07:48:28Z</time>
      </trkpt>
      <trkpt lat="43.56336" lon="3.75342">
        <ele>34.4</ele>
        <time>2021-04-13T07:48:29Z</time>
      </trkpt>
      <trkpt lat="43.56316" lon="3.75347">
        <ele>34.6</ele>
        <time>2021-04-13T07:49:02Z</time>
      </trkpt>
      <trkpt lat="43.56314" lon="3.75348">
        <ele>34.6</ele>
        <time>2021-04-13T07:49:03Z</time>
      </trkpt>
      <trkpt lat="43.56313" lon="3.75349">
        <ele>34.6</ele>
        <time>2021-04-13T07:49:04Z</time>
      </trkpt>
      <trkpt lat="43.56311" lon="3.7535">
        <ele>34.6</ele>
        <time>2021-04-13T07:49:05Z</time>
      </trkpt>
      <trkpt lat="43.56309" lon="3.75351">
        <ele>34.6</ele>
        <time>2021-04-13T07:49:06Z</time>
      </trkpt>
      <trkpt lat="43.56307" lon="3.75351">
        <ele>34.6</ele>
        <time>2021-04-13T07:49:07Z</time>
      </trkpt>
      <trkpt lat="43.56305" lon="3.75352">
        <ele>34.6</ele>
        <time>2021-04-13T07:49:08Z</time>
      </trkpt>
      <trkpt lat="43.56303" lon="3.75353">
        <ele>34.6</ele>
        <time>2021-04-13T07:49:09Z</time>
      </trkpt>
      <trkpt lat="43.56301" lon="3.75354">
        <ele>34.6</ele>
        <time>2021-04-13T07:49:10Z</time>
      </trkpt>
      <trkpt lat="43.56299" lon="3.75355">
        <ele>34.6</ele>
        <time>2021-04-13T07:49:11Z</time>
      </trkpt>
      <trkpt lat="43.56297" lon="3.75356">
        <ele>34.6</ele>
        <time>2021-04-13T07:49:12Z</time>
      </trkpt>
      <trkpt lat="43.56295" lon="3.75357">
        <ele>34.6</ele>
        <time>2021-04-13T07:49:13Z</time>
      </trkpt>
      <trkpt lat="43.56293" lon="3.75358">
        <ele>34.6</ele>
        <time>2021-04-13T07:49:14Z</time>
      </trkpt>
      <trkpt lat="43.56291" lon="3.75359">
        <ele>34.6</ele>
        <time>2021-04-13T07:49:15Z</time>
      </trkpt>
      <trkpt lat="43.56289" lon="3.75361">
        <ele>34.6</ele>
        <time>2021-04-13T07:49:16Z</time>
      </trkpt>
      <trkpt lat="43.56286" lon="3.75362">
        <ele>34.6</ele>
        <time>2021-04-13T07:49:17Z</time>
      </trkpt>
      <trkpt lat="43.56284" lon="3.75363">
        <ele>34.6</ele>
        <time>2021-04-13T07:49:18Z</time>
      </trkpt>
      <trkpt lat="43.56282" lon="3.75365">
        <ele>34.4</ele>
        <time>2021-04-13T07:49:19Z</time>
      </trkpt>
      <trkpt lat="43.5628" lon="3.75366">
        <ele>34.4</ele>
        <time>2021-04-13T07:49:20Z</time>
      </trkpt>
      <trkpt lat="43.56278" lon="3.75367">
        <ele>34.4</ele>
        <time>2021-04-13T07:49:21Z</time>
      </trkpt>
      <trkpt lat="43.56276" lon="3.75368">
        <ele>34.4</ele>
        <time>2021-04-13T07:49:22Z</time>
      </trkpt>
      <trkpt lat="43.56274" lon="3.75369">
        <ele>34.4</ele>
        <time>2021-04-13T07:49:23Z</time>
      </trkpt>
      <trkpt lat="43.56272" lon="3.75371">
        <ele>34.4</ele>
        <time>2021-04-13T07:49:24Z</time>
      </trkpt>
      <trkpt lat="43.56269" lon="3.75372">
        <ele>34.4</ele>
        <time>2021-04-13T07:49:25Z</time>
      </trkpt>
      <trkpt lat="43.56268" lon="3.75373">
        <ele>34.4</ele>
        <time>2021-04-13T07:49:26Z</time>
      </trkpt>
      <trkpt lat="43.56266" lon="3.75374">
        <ele>34.4</ele>
        <time>2021-04-13T07:49:27Z</time>
      </trkpt>
      <trkpt lat="43.56264" lon="3.75375">
        <ele>34.2</ele>
        <time>2021-04-13T07:49:28Z</time>
      </trkpt>
      <trkpt lat="43.56262" lon="3.75376">
        <ele>34.2</ele>
        <time>2021-04-13T07:49:29Z</time>
      </trkpt>
      <trkpt lat="43.5626" lon="3.75378">
        <ele>34.2</ele>
        <time>2021-04-13T07:49:30Z</time>
      </trkpt>
      <trkpt lat="43.56258" lon="3.75379">
        <ele>34.2</ele>
        <time>2021-04-13T07:49:31Z</time>
      </trkpt>
      <trkpt lat="43.56256" lon="3.7538">
        <ele>34.2</ele>
        <time>2021-04-13T07:49:32Z</time>
      </trkpt>
      <trkpt lat="43.56253" lon="3.75381">
        <ele>34.2</ele>
        <time>2021-04-13T07:49:33Z</time>
      </trkpt>
      <trkpt lat="43.56251" lon="3.75382">
        <ele>34.2</ele>
        <time>2021-04-13T07:49:34Z</time>
      </trkpt>
      <trkpt lat="43.56249" lon="3.75383">
        <ele>34.2</ele>
        <time>2021-04-13T07:49:35Z</time>
      </trkpt>
      <trkpt lat="43.56247" lon="3.75385">
        <ele>34.2</ele>
        <time>2021-04-13T07:49:36Z</time>
      </trkpt>
      <trkpt lat="43.56245" lon="3.75386">
        <ele>34.2</ele>
        <time>2021-04-13T07:49:37Z</time>
      </trkpt>
      <trkpt lat="43.56243" lon="3.75387">
        <ele>34.2</ele>
        <time>2021-04-13T07:49:38Z</time>
      </trkpt>
      <trkpt lat="43.56241" lon="3.75388">
        <ele>34.2</ele>
        <time>2021-04-13T07:49:39Z</time>
      </trkpt>
      <trkpt lat="43.5624" lon="3.75389">
        <ele>34.2</ele>
        <time>2021-04-13T07:49:40Z</time>
      </trkpt>
      <trkpt lat="43.56238" lon="3.7539">
        <ele>34.2</ele>
        <time>2021-04-13T07:49:41Z</time>
      </trkpt>
      <trkpt lat="43.56236" lon="3.75391">
        <ele>34.2</ele>
        <time>2021-04-13T07:49:42Z</time>
      </trkpt>
      <trkpt lat="43.56234" lon="3.75392">
        <ele>34</ele>
        <time>2021-04-13T07:49:43Z</time>
      </trkpt>
      <trkpt lat="43.56232" lon="3.75394">
        <ele>34</ele>
        <time>2021-04-13T07:49:44Z</time>
      </trkpt>
      <trkpt lat="43.5623" lon="3.75395">
        <ele>33.8</ele>
        <time>2021-04-13T07:49:45Z</time>
      </trkpt>
      <trkpt lat="43.56228" lon="3.75396">
        <ele>33.8</ele>
        <time>2021-04-13T07:49:46Z</time>
      </trkpt>
      <trkpt lat="43.56225" lon="3.75398">
        <ele>33.6</ele>
        <time>2021-04-13T07:49:47Z</time>
      </trkpt>
      <trkpt lat="43.56223" lon="3.75399">
        <ele>33.6</ele>
        <time>2021-04-13T07:49:48Z</time>
      </trkpt>
      <trkpt lat="43.5622" lon="3.75401">
        <ele>33.4</ele>
        <time>2021-04-13T07:49:49Z</time>
      </trkpt>
      <trkpt lat="43.56217" lon="3.75403">
        <ele>33.2</ele>
        <time>2021-04-13T07:49:50Z</time>
      </trkpt>
      <trkpt lat="43.56214" lon="3.75405">
        <ele>33.2</ele>
        <time>2021-04-13T07:49:51Z</time>
      </trkpt>
      <trkpt lat="43.56211" lon="3.75407">
        <ele>33</ele>
        <time>2021-04-13T07:49:52Z</time>
      </trkpt>
      <trkpt lat="43.56208" lon="3.75409">
        <ele>32.8</ele>
        <time>2021-04-13T07:49:53Z</time>
      </trkpt>
      <trkpt lat="43.56204" lon="3.75411">
        <ele>32.6</ele>
        <time>2021-04-13T07:49:54Z</time>
      </trkpt>
      <trkpt lat="43.56201" lon="3.75413">
        <ele>32.4</ele>
        <time>2021-04-13T07:49:55Z</time>
      </trkpt>
      <trkpt lat="43.56197" lon="3.75416">
        <ele>32.2</ele>
        <time>2021-04-13T07:49:56Z</time>
      </trkpt>
      <trkpt lat="43.56193" lon="3.75418">
        <ele>32.2</ele>
        <time>2021-04-13T07:49:57Z</time>
      </trkpt>
      <trkpt lat="43.56189" lon="3.75419">
        <ele>32</ele>
        <time>2021-04-13T07:49:58Z</time>
      </trkpt>
      <trkpt lat="43.56185" lon="3.7542">
        <ele>32</ele>
        <time>2021-04-13T07:49:59Z</time>
      </trkpt>
      <trkpt lat="43.56181" lon="3.75422">
        <ele>31.8</ele>
        <time>2021-04-13T07:50:00Z</time>
      </trkpt>
      <trkpt lat="43.56178" lon="3.75424">
        <ele>31.8</ele>
        <time>2021-04-13T07:50:01Z</time>
      </trkpt>
      <trkpt lat="43.56174" lon="3.75426">
        <ele>31.6</ele>
        <time>2021-04-13T07:50:02Z</time>
      </trkpt>
      <trkpt lat="43.5617" lon="3.75428">
        <ele>31.6</ele>
        <time>2021-04-13T07:50:03Z</time>
      </trkpt>
      <trkpt lat="43.56166" lon="3.75429">
        <ele>31.4</ele>
        <time>2021-04-13T07:50:04Z</time>
      </trkpt>
      <trkpt lat="43.56163" lon="3.75431">
        <ele>31.4</ele>
        <time>2021-04-13T07:50:05Z</time>
      </trkpt>
      <trkpt lat="43.56159" lon="3.75433">
        <ele>31.4</ele>
        <time>2021-04-13T07:50:06Z</time>
      </trkpt>
      <trkpt lat="43.56155" lon="3.75435">
        <ele>31.4</ele>
        <time>2021-04-13T07:50:07Z</time>
      </trkpt>
      <trkpt lat="43.56152" lon="3.75436">
        <ele>31.4</ele>
        <time>2021-04-13T07:50:08Z</time>
      </trkpt>
      <trkpt lat="43.56148" lon="3.75438">
        <ele>31.2</ele>
        <time>2021-04-13T07:50:09Z</time>
      </trkpt>
      <trkpt lat="43.56145" lon="3.7544">
        <ele>31.2</ele>
        <time>2021-04-13T07:50:10Z</time>
      </trkpt>
      <trkpt lat="43.56141" lon="3.75441">
        <ele>31.2</ele>
        <time>2021-04-13T07:50:11Z</time>
      </trkpt>
      <trkpt lat="43.56138" lon="3.75442">
        <ele>31.2</ele>
        <time>2021-04-13T07:50:12Z</time>
      </trkpt>
      <trkpt lat="43.56134" lon="3.75444">
        <ele>31.2</ele>
        <time>2021-04-13T07:50:13Z</time>
      </trkpt>
      <trkpt lat="43.56131" lon="3.75447">
        <ele>31.2</ele>
        <time>2021-04-13T07:50:14Z</time>
      </trkpt>
      <trkpt lat="43.56128" lon="3.75448">
        <ele>31.2</ele>
        <time>2021-04-13T07:50:15Z</time>
      </trkpt>
      <trkpt lat="43.56125" lon="3.75449">
        <ele>31.2</ele>
        <time>2021-04-13T07:50:16Z</time>
      </trkpt>
      <trkpt lat="43.56121" lon="3.75449">
        <ele>31</ele>
        <time>2021-04-13T07:50:17Z</time>
      </trkpt>
      <trkpt lat="43.56119" lon="3.7545">
        <ele>31</ele>
        <time>2021-04-13T07:50:18Z</time>
      </trkpt>
      <trkpt lat="43.56116" lon="3.75451">
        <ele>31</ele>
        <time>2021-04-13T07:50:19Z</time>
      </trkpt>
      <trkpt lat="43.56114" lon="3.75453">
        <ele>31</ele>
        <time>2021-04-13T07:50:20Z</time>
      </trkpt>
      <trkpt lat="43.56111" lon="3.75454">
        <ele>31</ele>
        <time>2021-04-13T07:50:21Z</time>
      </trkpt>
      <trkpt lat="43.56109" lon="3.75455">
        <ele>30.8</ele>
        <time>2021-04-13T07:50:22Z</time>
      </trkpt>
      <trkpt lat="43.56106" lon="3.75456">
        <ele>30.8</ele>
        <time>2021-04-13T07:50:23Z</time>
      </trkpt>
      <trkpt lat="43.56104" lon="3.75457">
        <ele>30.8</ele>
        <time>2021-04-13T07:50:24Z</time>
      </trkpt>
      <trkpt lat="43.56102" lon="3.75458">
        <ele>30.8</ele>
        <time>2021-04-13T07:50:25Z</time>
      </trkpt>
      <trkpt lat="43.561" lon="3.75459">
        <ele>30.8</ele>
        <time>2021-04-13T07:50:26Z</time>
      </trkpt>
      <trkpt lat="43.56098" lon="3.75461">
        <ele>30.8</ele>
        <time>2021-04-13T07:50:27Z</time>
      </trkpt>
      <trkpt lat="43.56096" lon="3.75461">
        <ele>30.8</ele>
        <time>2021-04-13T07:50:28Z</time>
      </trkpt>
      <trkpt lat="43.56093" lon="3.75463">
        <ele>30.8</ele>
        <time>2021-04-13T07:50:29Z</time>
      </trkpt>
      <trkpt lat="43.56091" lon="3.75464">
        <ele>30.8</ele>
        <time>2021-04-13T07:50:30Z</time>
      </trkpt>
      <trkpt lat="43.56089" lon="3.75465">
        <ele>30.8</ele>
        <time>2021-04-13T07:50:31Z</time>
      </trkpt>
      <trkpt lat="43.56086" lon="3.75466">
        <ele>30.8</ele>
        <time>2021-04-13T07:50:32Z</time>
      </trkpt>
      <trkpt lat="43.56083" lon="3.75467">
        <ele>30.8</ele>
        <time>2021-04-13T07:50:33Z</time>
      </trkpt>
      <trkpt lat="43.56081" lon="3.75469">
        <ele>30.8</ele>
        <time>2021-04-13T07:50:34Z</time>
      </trkpt>
      <trkpt lat="43.56078" lon="3.7547">
        <ele>30.8</ele>
        <time>2021-04-13T07:50:35Z</time>
      </trkpt>
      <trkpt lat="43.56075" lon="3.75472">
        <ele>30.8</ele>
        <time>2021-04-13T07:50:36Z</time>
      </trkpt>
      <trkpt lat="43.56073" lon="3.75473">
        <ele>30.8</ele>
        <time>2021-04-13T07:50:37Z</time>
      </trkpt>
      <trkpt lat="43.56071" lon="3.75474">
        <ele>30.8</ele>
        <time>2021-04-13T07:50:38Z</time>
      </trkpt>
      <trkpt lat="43.56069" lon="3.75475">
        <ele>30.6</ele>
        <time>2021-04-13T07:50:39Z</time>
      </trkpt>
      <trkpt lat="43.56067" lon="3.75477">
        <ele>30.6</ele>
        <time>2021-04-13T07:50:40Z</time>
      </trkpt>
      <trkpt lat="43.56065" lon="3.75478">
        <ele>30.6</ele>
        <time>2021-04-13T07:50:41Z</time>
      </trkpt>
      <trkpt lat="43.56063" lon="3.75479">
        <ele>30.6</ele>
        <time>2021-04-13T07:50:42Z</time>
      </trkpt>
      <trkpt lat="43.56061" lon="3.7548">
        <ele>30.6</ele>
        <time>2021-04-13T07:50:43Z</time>
      </trkpt>
      <trkpt lat="43.56059" lon="3.75481">
        <ele>30.6</ele>
        <time>2021-04-13T07:50:44Z</time>
      </trkpt>
      <trkpt lat="43.56057" lon="3.75482">
        <ele>30.6</ele>
        <time>2021-04-13T07:50:45Z</time>
      </trkpt>
      <trkpt lat="43.56055" lon="3.75483">
        <ele>30.4</ele>
        <time>2021-04-13T07:50:46Z</time>
      </trkpt>
      <trkpt lat="43.56053" lon="3.75484">
        <ele>30.6</ele>
        <time>2021-04-13T07:50:47Z</time>
      </trkpt>
      <trkpt lat="43.56051" lon="3.75485">
        <ele>30.6</ele>
        <time>2021-04-13T07:50:48Z</time>
      </trkpt>
      <trkpt lat="43.5605" lon="3.75486">
        <ele>30.4</ele>
        <time>2021-04-13T07:50:49Z</time>
      </trkpt>
      <trkpt lat="43.56048" lon="3.75487">
        <ele>30.6</ele>
        <time>2021-04-13T07:50:50Z</time>
      </trkpt>
      <trkpt lat="43.56046" lon="3.75488">
        <ele>30.6</ele>
        <time>2021-04-13T07:50:51Z</time>
      </trkpt>
      <trkpt lat="43.56045" lon="3.75489">
        <ele>30.6</ele>
        <time>2021-04-13T07:50:52Z</time>
      </trkpt>
      <trkpt lat="43.56043" lon="3.7549">
        <ele>30.6</ele>
        <time>2021-04-13T07:50:53Z</time>
      </trkpt>
      <trkpt lat="43.56041" lon="3.75492">
        <ele>30.6</ele>
        <time>2021-04-13T07:50:54Z</time>
      </trkpt>
      <trkpt lat="43.56039" lon="3.75493">
        <ele>30.6</ele>
        <time>2021-04-13T07:50:55Z</time>
      </trkpt>
      <trkpt lat="43.56037" lon="3.75495">
        <ele>30.6</ele>
        <time>2021-04-13T07:50:56Z</time>
      </trkpt>
      <trkpt lat="43.56035" lon="3.75496">
        <ele>30.4</ele>
        <time>2021-04-13T07:50:57Z</time>
      </trkpt>
      <trkpt lat="43.56033" lon="3.75497">
        <ele>30.4</ele>
        <time>2021-04-13T07:50:58Z</time>
      </trkpt>
      <trkpt lat="43.56032" lon="3.75498">
        <ele>30.4</ele>
        <time>2021-04-13T07:50:59Z</time>
      </trkpt>
      <trkpt lat="43.56032" lon="3.75498">
        <ele>30.4</ele>
        <time>2021-04-13T07:51:00Z</time>
      </trkpt>
      <trkpt lat="43.56032" lon="3.75498">
        <ele>30.4</ele>
        <time>2021-04-13T07:51:01Z</time>
      </trkpt>
      <trkpt lat="43.56032" lon="3.75498">
        <ele>30.2</ele>
        <time>2021-04-13T07:51:02Z</time>
      </trkpt>
      <trkpt lat="43.56032" lon="3.75498">
        <ele>30.2</ele>
        <time>2021-04-13T07:51:03Z</time>
      </trkpt>
      <trkpt lat="43.56032" lon="3.75498">
        <ele>30.2</ele>
        <time>2021-04-13T07:51:04Z</time>
      </trkpt>
      <trkpt lat="43.56032" lon="3.75498">
        <ele>30.4</ele>
        <time>2021-04-13T07:51:05Z</time>
      </trkpt>
      <trkpt lat="43.56032" lon="3.75498">
        <ele>30.4</ele>
        <time>2021-04-13T07:51:06Z</time>
      </trkpt>
      <trkpt lat="43.56032" lon="3.75498">
        <ele>30.4</ele>
        <time>2021-04-13T07:51:07Z</time>
      </trkpt>
      <trkpt lat="43.56016" lon="3.75507">
        <ele>30.2</ele>
        <time>2021-04-13T07:52:24Z</time>
      </trkpt>
      <trkpt lat="43.56015" lon="3.75508">
        <ele>30.2</ele>
        <time>2021-04-13T07:52:25Z</time>
      </trkpt>
      <trkpt lat="43.56013" lon="3.75509">
        <ele>30.2</ele>
        <time>2021-04-13T07:52:26Z</time>
      </trkpt>
      <trkpt lat="43.56012" lon="3.7551">
        <ele>30.2</ele>
        <time>2021-04-13T07:52:27Z</time>
      </trkpt>
      <trkpt lat="43.5601" lon="3.75511">
        <ele>30.2</ele>
        <time>2021-04-13T07:52:28Z</time>
      </trkpt>
      <trkpt lat="43.56009" lon="3.75512">
        <ele>30.2</ele>
        <time>2021-04-13T07:52:29Z</time>
      </trkpt>
      <trkpt lat="43.56007" lon="3.75514">
        <ele>30.4</ele>
        <time>2021-04-13T07:52:30Z</time>
      </trkpt>
      <trkpt lat="43.56005" lon="3.75516">
        <ele>30.2</ele>
        <time>2021-04-13T07:52:31Z</time>
      </trkpt>
      <trkpt lat="43.56003" lon="3.75519">
        <ele>30.2</ele>
        <time>2021-04-13T07:52:32Z</time>
      </trkpt>
      <trkpt lat="43.56001" lon="3.75521">
        <ele>30.2</ele>
        <time>2021-04-13T07:52:33Z</time>
      </trkpt>
      <trkpt lat="43.55999" lon="3.75523">
        <ele>30.2</ele>
        <time>2021-04-13T07:52:34Z</time>
      </trkpt>
      <trkpt lat="43.55997" lon="3.75525">
        <ele>30.2</ele>
        <time>2021-04-13T07:52:35Z</time>
      </trkpt>
      <trkpt lat="43.55995" lon="3.75528">
        <ele>30.2</ele>
        <time>2021-04-13T07:52:36Z</time>
      </trkpt>
      <trkpt lat="43.55993" lon="3.7553">
        <ele>30</ele>
        <time>2021-04-13T07:52:37Z</time>
      </trkpt>
      <trkpt lat="43.55991" lon="3.75532">
        <ele>30</ele>
        <time>2021-04-13T07:52:38Z</time>
      </trkpt>
      <trkpt lat="43.55989" lon="3.75535">
        <ele>30</ele>
        <time>2021-04-13T07:52:39Z</time>
      </trkpt>
      <trkpt lat="43.55987" lon="3.75537">
        <ele>30</ele>
        <time>2021-04-13T07:52:40Z</time>
      </trkpt>
      <trkpt lat="43.55985" lon="3.75539">
        <ele>30</ele>
        <time>2021-04-13T07:52:41Z</time>
      </trkpt>
      <trkpt lat="43.55983" lon="3.75541">
        <ele>30</ele>
        <time>2021-04-13T07:52:42Z</time>
      </trkpt>
      <trkpt lat="43.55981" lon="3.75544">
        <ele>30</ele>
        <time>2021-04-13T07:52:43Z</time>
      </trkpt>
      <trkpt lat="43.55978" lon="3.75546">
        <ele>30</ele>
        <time>2021-04-13T07:52:44Z</time>
      </trkpt>
      <trkpt lat="43.55976" lon="3.75548">
        <ele>29.8</ele>
        <time>2021-04-13T07:52:45Z</time>
      </trkpt>
      <trkpt lat="43.55973" lon="3.7555">
        <ele>29.8</ele>
        <time>2021-04-13T07:52:46Z</time>
      </trkpt>
      <trkpt lat="43.55971" lon="3.75553">
        <ele>29.8</ele>
        <time>2021-04-13T07:52:47Z</time>
      </trkpt>
      <trkpt lat="43.55968" lon="3.75556">
        <ele>29.8</ele>
        <time>2021-04-13T07:52:48Z</time>
      </trkpt>
      <trkpt lat="43.55965" lon="3.75558">
        <ele>29.8</ele>
        <time>2021-04-13T07:52:49Z</time>
      </trkpt>
      <trkpt lat="43.55963" lon="3.75561">
        <ele>29.8</ele>
        <time>2021-04-13T07:52:50Z</time>
      </trkpt>
      <trkpt lat="43.5596" lon="3.75564">
        <ele>29.8</ele>
        <time>2021-04-13T07:52:51Z</time>
      </trkpt>
      <trkpt lat="43.55957" lon="3.75566">
        <ele>29.8</ele>
        <time>2021-04-13T07:52:52Z</time>
      </trkpt>
      <trkpt lat="43.55955" lon="3.75568">
        <ele>29.8</ele>
        <time>2021-04-13T07:52:53Z</time>
      </trkpt>
      <trkpt lat="43.55952" lon="3.7557">
        <ele>29.8</ele>
        <time>2021-04-13T07:52:54Z</time>
      </trkpt>
      <trkpt lat="43.55949" lon="3.75572">
        <ele>29.8</ele>
        <time>2021-04-13T07:52:55Z</time>
      </trkpt>
      <trkpt lat="43.55947" lon="3.75574">
        <ele>29.8</ele>
        <time>2021-04-13T07:52:56Z</time>
      </trkpt>
      <trkpt lat="43.55944" lon="3.75577">
        <ele>29.8</ele>
        <time>2021-04-13T07:52:57Z</time>
      </trkpt>
      <trkpt lat="43.55941" lon="3.75579">
        <ele>29.8</ele>
        <time>2021-04-13T07:52:58Z</time>
      </trkpt>
      <trkpt lat="43.55938" lon="3.75582">
        <ele>29.8</ele>
        <time>2021-04-13T07:52:59Z</time>
      </trkpt>
      <trkpt lat="43.55935" lon="3.75584">
        <ele>29.8</ele>
        <time>2021-04-13T07:53:00Z</time>
      </trkpt>
      <trkpt lat="43.55932" lon="3.75587">
        <ele>29.6</ele>
        <time>2021-04-13T07:53:01Z</time>
      </trkpt>
      <trkpt lat="43.55929" lon="3.7559">
        <ele>29.6</ele>
        <time>2021-04-13T07:53:02Z</time>
      </trkpt>
      <trkpt lat="43.55926" lon="3.75593">
        <ele>29.6</ele>
        <time>2021-04-13T07:53:03Z</time>
      </trkpt>
      <trkpt lat="43.55922" lon="3.75596">
        <ele>29.6</ele>
        <time>2021-04-13T07:53:04Z</time>
      </trkpt>
      <trkpt lat="43.55919" lon="3.75599">
        <ele>29.6</ele>
        <time>2021-04-13T07:53:05Z</time>
      </trkpt>
      <trkpt lat="43.55916" lon="3.75602">
        <ele>29.6</ele>
        <time>2021-04-13T07:53:06Z</time>
      </trkpt>
      <trkpt lat="43.55913" lon="3.75605">
        <ele>29.6</ele>
        <time>2021-04-13T07:53:07Z</time>
      </trkpt>
      <trkpt lat="43.5591" lon="3.75607">
        <ele>29.6</ele>
        <time>2021-04-13T07:53:08Z</time>
      </trkpt>
      <trkpt lat="43.55907" lon="3.75609">
        <ele>29.6</ele>
        <time>2021-04-13T07:53:09Z</time>
      </trkpt>
      <trkpt lat="43.55904" lon="3.75612">
        <ele>29.6</ele>
        <time>2021-04-13T07:53:10Z</time>
      </trkpt>
      <trkpt lat="43.55901" lon="3.75615">
        <ele>29.6</ele>
        <time>2021-04-13T07:53:11Z</time>
      </trkpt>
      <trkpt lat="43.55897" lon="3.75618">
        <ele>29.4</ele>
        <time>2021-04-13T07:53:12Z</time>
      </trkpt>
      <trkpt lat="43.55894" lon="3.75621">
        <ele>29.4</ele>
        <time>2021-04-13T07:53:13Z</time>
      </trkpt>
      <trkpt lat="43.55891" lon="3.75625">
        <ele>29.4</ele>
        <time>2021-04-13T07:53:14Z</time>
      </trkpt>
      <trkpt lat="43.55887" lon="3.75628">
        <ele>29.4</ele>
        <time>2021-04-13T07:53:15Z</time>
      </trkpt>
      <trkpt lat="43.55884" lon="3.75631">
        <ele>29.2</ele>
        <time>2021-04-13T07:53:16Z</time>
      </trkpt>
      <trkpt lat="43.5588" lon="3.75634">
        <ele>29.2</ele>
        <time>2021-04-13T07:53:17Z</time>
      </trkpt>
      <trkpt lat="43.55877" lon="3.75637">
        <ele>29.2</ele>
        <time>2021-04-13T07:53:18Z</time>
      </trkpt>
      <trkpt lat="43.55874" lon="3.7564">
        <ele>29.2</ele>
        <time>2021-04-13T07:53:19Z</time>
      </trkpt>
      <trkpt lat="43.55871" lon="3.75642">
        <ele>29.2</ele>
        <time>2021-04-13T07:53:20Z</time>
      </trkpt>
      <trkpt lat="43.55867" lon="3.75644">
        <ele>29.2</ele>
        <time>2021-04-13T07:53:21Z</time>
      </trkpt>
      <trkpt lat="43.55864" lon="3.75646">
        <ele>29.2</ele>
        <time>2021-04-13T07:53:22Z</time>
      </trkpt>
      <trkpt lat="43.55861" lon="3.75649">
        <ele>29</ele>
        <time>2021-04-13T07:53:23Z</time>
      </trkpt>
      <trkpt lat="43.55858" lon="3.75651">
        <ele>29</ele>
        <time>2021-04-13T07:53:24Z</time>
      </trkpt>
      <trkpt lat="43.55855" lon="3.75653">
        <ele>29</ele>
        <time>2021-04-13T07:53:25Z</time>
      </trkpt>
      <trkpt lat="43.55852" lon="3.75656">
        <ele>29</ele>
        <time>2021-04-13T07:53:26Z</time>
      </trkpt>
      <trkpt lat="43.55849" lon="3.75658">
        <ele>28.8</ele>
        <time>2021-04-13T07:53:27Z</time>
      </trkpt>
      <trkpt lat="43.55846" lon="3.75659">
        <ele>28.8</ele>
        <time>2021-04-13T07:53:28Z</time>
      </trkpt>
      <trkpt lat="43.55843" lon="3.75662">
        <ele>28.8</ele>
        <time>2021-04-13T07:53:29Z</time>
      </trkpt>
      <trkpt lat="43.5584" lon="3.75664">
        <ele>28.8</ele>
        <time>2021-04-13T07:53:30Z</time>
      </trkpt>
      <trkpt lat="43.55838" lon="3.75666">
        <ele>28.8</ele>
        <time>2021-04-13T07:53:31Z</time>
      </trkpt>
      <trkpt lat="43.55835" lon="3.75668">
        <ele>28.8</ele>
        <time>2021-04-13T07:53:32Z</time>
      </trkpt>
      <trkpt lat="43.55833" lon="3.7567">
        <ele>28.8</ele>
        <time>2021-04-13T07:53:33Z</time>
      </trkpt>
      <trkpt lat="43.5583" lon="3.75672">
        <ele>28.8</ele>
        <time>2021-04-13T07:53:34Z</time>
      </trkpt>
      <trkpt lat="43.55828" lon="3.75674">
        <ele>28.6</ele>
        <time>2021-04-13T07:53:35Z</time>
      </trkpt>
      <trkpt lat="43.55826" lon="3.75676">
        <ele>28.6</ele>
        <time>2021-04-13T07:53:36Z</time>
      </trkpt>
      <trkpt lat="43.55824" lon="3.75678">
        <ele>28.6</ele>
        <time>2021-04-13T07:53:37Z</time>
      </trkpt>
      <trkpt lat="43.55821" lon="3.75679">
        <ele>28.6</ele>
        <time>2021-04-13T07:53:38Z</time>
      </trkpt>
      <trkpt lat="43.5582" lon="3.7568">
        <ele>28.6</ele>
        <time>2021-04-13T07:53:39Z</time>
      </trkpt>
      <trkpt lat="43.55818" lon="3.75681">
        <ele>28.6</ele>
        <time>2021-04-13T07:53:40Z</time>
      </trkpt>
      <trkpt lat="43.55816" lon="3.75682">
        <ele>28.4</ele>
        <time>2021-04-13T07:53:41Z</time>
      </trkpt>
      <trkpt lat="43.55814" lon="3.75683">
        <ele>28.4</ele>
        <time>2021-04-13T07:53:42Z</time>
      </trkpt>
      <trkpt lat="43.55812" lon="3.75684">
        <ele>28.4</ele>
        <time>2021-04-13T07:53:43Z</time>
      </trkpt>
      <trkpt lat="43.5581" lon="3.75686">
        <ele>28.2</ele>
        <time>2021-04-13T07:53:44Z</time>
      </trkpt>
      <trkpt lat="43.55808" lon="3.75687">
        <ele>28.2</ele>
        <time>2021-04-13T07:53:45Z</time>
      </trkpt>
      <trkpt lat="43.55806" lon="3.75689">
        <ele>28</ele>
        <time>2021-04-13T07:53:46Z</time>
      </trkpt>
      <trkpt lat="43.55804" lon="3.7569">
        <ele>27.8</ele>
        <time>2021-04-13T07:53:47Z</time>
      </trkpt>
      <trkpt lat="43.55803" lon="3.75691">
        <ele>27.8</ele>
        <time>2021-04-13T07:53:48Z</time>
      </trkpt>
      <trkpt lat="43.55801" lon="3.75693">
        <ele>27.6</ele>
        <time>2021-04-13T07:53:49Z</time>
      </trkpt>
      <trkpt lat="43.558" lon="3.75694">
        <ele>27.4</ele>
        <time>2021-04-13T07:53:50Z</time>
      </trkpt>
      <trkpt lat="43.55798" lon="3.75696">
        <ele>27.2</ele>
        <time>2021-04-13T07:53:51Z</time>
      </trkpt>
      <trkpt lat="43.55797" lon="3.75697">
        <ele>27</ele>
        <time>2021-04-13T07:53:52Z</time>
      </trkpt>
      <trkpt lat="43.55795" lon="3.75699">
        <ele>27</ele>
        <time>2021-04-13T07:53:53Z</time>
      </trkpt>
      <trkpt lat="43.55793" lon="3.75701">
        <ele>26.8</ele>
        <time>2021-04-13T07:53:54Z</time>
      </trkpt>
      <trkpt lat="43.55792" lon="3.75703">
        <ele>26.6</ele>
        <time>2021-04-13T07:53:55Z</time>
      </trkpt>
      <trkpt lat="43.5579" lon="3.75704">
        <ele>26.4</ele>
        <time>2021-04-13T07:53:56Z</time>
      </trkpt>
      <trkpt lat="43.55789" lon="3.75705">
        <ele>26.4</ele>
        <time>2021-04-13T07:53:57Z</time>
      </trkpt>
      <trkpt lat="43.55788" lon="3.75707">
        <ele>26.2</ele>
        <time>2021-04-13T07:53:58Z</time>
      </trkpt>
      <trkpt lat="43.55787" lon="3.75708">
        <ele>26.2</ele>
        <time>2021-04-13T07:53:59Z</time>
      </trkpt>
      <trkpt lat="43.55785" lon="3.7571">
        <ele>26</ele>
        <time>2021-04-13T07:54:00Z</time>
      </trkpt>
      <trkpt lat="43.55783" lon="3.75712">
        <ele>26</ele>
        <time>2021-04-13T07:54:01Z</time>
      </trkpt>
      <trkpt lat="43.55781" lon="3.75713">
        <ele>26</ele>
        <time>2021-04-13T07:54:02Z</time>
      </trkpt>
      <trkpt lat="43.55779" lon="3.75715">
        <ele>26</ele>
        <time>2021-04-13T07:54:03Z</time>
      </trkpt>
      <trkpt lat="43.55777" lon="3.75717">
        <ele>26</ele>
        <time>2021-04-13T07:54:04Z</time>
      </trkpt>
      <trkpt lat="43.55775" lon="3.75718">
        <ele>25.8</ele>
        <time>2021-04-13T07:54:05Z</time>
      </trkpt>
      <trkpt lat="43.55774" lon="3.75719">
        <ele>25.6</ele>
        <time>2021-04-13T07:54:06Z</time>
      </trkpt>
      <trkpt lat="43.55772" lon="3.75721">
        <ele>25.6</ele>
        <time>2021-04-13T07:54:07Z</time>
      </trkpt>
      <trkpt lat="43.5577" lon="3.75722">
        <ele>25.6</ele>
        <time>2021-04-13T07:54:08Z</time>
      </trkpt>
      <trkpt lat="43.55768" lon="3.75724">
        <ele>25.6</ele>
        <time>2021-04-13T07:54:09Z</time>
      </trkpt>
      <trkpt lat="43.55767" lon="3.75725">
        <ele>25.4</ele>
        <time>2021-04-13T07:54:10Z</time>
      </trkpt>
      <trkpt lat="43.55765" lon="3.75726">
        <ele>25.4</ele>
        <time>2021-04-13T07:54:11Z</time>
      </trkpt>
      <trkpt lat="43.55764" lon="3.75727">
        <ele>25.4</ele>
        <time>2021-04-13T07:54:12Z</time>
      </trkpt>
      <trkpt lat="43.55763" lon="3.75728">
        <ele>25.2</ele>
        <time>2021-04-13T07:54:13Z</time>
      </trkpt>
      <trkpt lat="43.55762" lon="3.75728">
        <ele>25.2</ele>
        <time>2021-04-13T07:54:14Z</time>
      </trkpt>
      <trkpt lat="43.55761" lon="3.75729">
        <ele>25.2</ele>
        <time>2021-04-13T07:54:15Z</time>
      </trkpt>
      <trkpt lat="43.5576" lon="3.75729">
        <ele>25</ele>
        <time>2021-04-13T07:54:16Z</time>
      </trkpt>
      <trkpt lat="43.55759" lon="3.7573">
        <ele>25</ele>
        <time>2021-04-13T07:54:17Z</time>
      </trkpt>
      <trkpt lat="43.55759" lon="3.75731">
        <ele>25</ele>
        <time>2021-04-13T07:54:18Z</time>
      </trkpt>
      <trkpt lat="43.55758" lon="3.75732">
        <ele>24.8</ele>
        <time>2021-04-13T07:54:19Z</time>
      </trkpt>
      <trkpt lat="43.55757" lon="3.75732">
        <ele>24.8</ele>
        <time>2021-04-13T07:54:20Z</time>
      </trkpt>
      <trkpt lat="43.55756" lon="3.75733">
        <ele>24.6</ele>
        <time>2021-04-13T07:54:21Z</time>
      </trkpt>
      <trkpt lat="43.55755" lon="3.75735">
        <ele>24.4</ele>
        <time>2021-04-13T07:54:22Z</time>
      </trkpt>
      <trkpt lat="43.55754" lon="3.75736">
        <ele>24.4</ele>
        <time>2021-04-13T07:54:23Z</time>
      </trkpt>
      <trkpt lat="43.55753" lon="3.75737">
        <ele>24.4</ele>
        <time>2021-04-13T07:54:24Z</time>
      </trkpt>
      <trkpt lat="43.55752" lon="3.75738">
        <ele>24.2</ele>
        <time>2021-04-13T07:54:25Z</time>
      </trkpt>
      <trkpt lat="43.55752" lon="3.75739">
        <ele>24.2</ele>
        <time>2021-04-13T07:54:26Z</time>
      </trkpt>
      <trkpt lat="43.55752" lon="3.75739">
        <ele>24.2</ele>
        <time>2021-04-13T07:54:27Z</time>
      </trkpt>
      <trkpt lat="43.55752" lon="3.7574">
        <ele>24.2</ele>
        <time>2021-04-13T07:54:28Z</time>
      </trkpt>
      <trkpt lat="43.55751" lon="3.75741">
        <ele>24.2</ele>
        <time>2021-04-13T07:54:29Z</time>
      </trkpt>
      <trkpt lat="43.55751" lon="3.75742">
        <ele>24.4</ele>
        <time>2021-04-13T07:54:30Z</time>
      </trkpt>
      <trkpt lat="43.55751" lon="3.75744">
        <ele>24.2</ele>
        <time>2021-04-13T07:54:31Z</time>
      </trkpt>
      <trkpt lat="43.55683" lon="3.75696">
        <ele>32.6</ele>
        <time>2021-04-13T07:56:59Z</time>
      </trkpt>
      <trkpt lat="43.55682" lon="3.75695">
        <ele>32.6</ele>
        <time>2021-04-13T07:57:00Z</time>
      </trkpt>
      <trkpt lat="43.55679" lon="3.75693">
        <ele>32.8</ele>
        <time>2021-04-13T07:57:01Z</time>
      </trkpt>
      <trkpt lat="43.55677" lon="3.75692">
        <ele>32.8</ele>
        <time>2021-04-13T07:57:02Z</time>
      </trkpt>
      <trkpt lat="43.55675" lon="3.7569">
        <ele>32.8</ele>
        <time>2021-04-13T07:57:03Z</time>
      </trkpt>
      <trkpt lat="43.55672" lon="3.75689">
        <ele>32.8</ele>
        <time>2021-04-13T07:57:04Z</time>
      </trkpt>
      <trkpt lat="43.5567" lon="3.75688">
        <ele>32.8</ele>
        <time>2021-04-13T07:57:05Z</time>
      </trkpt>
      <trkpt lat="43.55667" lon="3.75686">
        <ele>33</ele>
        <time>2021-04-13T07:57:06Z</time>
      </trkpt>
      <trkpt lat="43.55665" lon="3.75685">
        <ele>32.8</ele>
        <time>2021-04-13T07:57:07Z</time>
      </trkpt>
      <trkpt lat="43.55662" lon="3.75684">
        <ele>32.8</ele>
        <time>2021-04-13T07:57:08Z</time>
      </trkpt>
      <trkpt lat="43.55659" lon="3.75682">
        <ele>33</ele>
        <time>2021-04-13T07:57:09Z</time>
      </trkpt>
      <trkpt lat="43.55656" lon="3.75681">
        <ele>33</ele>
        <time>2021-04-13T07:57:10Z</time>
      </trkpt>
      <trkpt lat="43.55654" lon="3.75679">
        <ele>33</ele>
        <time>2021-04-13T07:57:11Z</time>
      </trkpt>
      <trkpt lat="43.55652" lon="3.75678">
        <ele>33</ele>
        <time>2021-04-13T07:57:12Z</time>
      </trkpt>
      <trkpt lat="43.55651" lon="3.75676">
        <ele>33</ele>
        <time>2021-04-13T07:57:13Z</time>
      </trkpt>
      <trkpt lat="43.55649" lon="3.75675">
        <ele>33</ele>
        <time>2021-04-13T07:57:14Z</time>
      </trkpt>
      <trkpt lat="43.55647" lon="3.75673">
        <ele>33</ele>
        <time>2021-04-13T07:57:15Z</time>
      </trkpt>
      <trkpt lat="43.55644" lon="3.75672">
        <ele>32.8</ele>
        <time>2021-04-13T07:57:16Z</time>
      </trkpt>
      <trkpt lat="43.55642" lon="3.7567">
        <ele>32.8</ele>
        <time>2021-04-13T07:57:17Z</time>
      </trkpt>
      <trkpt lat="43.5564" lon="3.75669">
        <ele>33</ele>
        <time>2021-04-13T07:57:18Z</time>
      </trkpt>
      <trkpt lat="43.55638" lon="3.75668">
        <ele>33</ele>
        <time>2021-04-13T07:57:19Z</time>
      </trkpt>
      <trkpt lat="43.55635" lon="3.75666">
        <ele>33</ele>
        <time>2021-04-13T07:57:20Z</time>
      </trkpt>
      <trkpt lat="43.55632" lon="3.75665">
        <ele>32.8</ele>
        <time>2021-04-13T07:57:21Z</time>
      </trkpt>
      <trkpt lat="43.55629" lon="3.75664">
        <ele>32.8</ele>
        <time>2021-04-13T07:57:22Z</time>
      </trkpt>
      <trkpt lat="43.55626" lon="3.75663">
        <ele>32.8</ele>
        <time>2021-04-13T07:57:23Z</time>
      </trkpt>
      <trkpt lat="43.55623" lon="3.7566">
        <ele>32.8</ele>
        <time>2021-04-13T07:57:24Z</time>
      </trkpt>
      <trkpt lat="43.5562" lon="3.75658">
        <ele>32.8</ele>
        <time>2021-04-13T07:57:25Z</time>
      </trkpt>
      <trkpt lat="43.55616" lon="3.75656">
        <ele>32.8</ele>
        <time>2021-04-13T07:57:26Z</time>
      </trkpt>
      <trkpt lat="43.55612" lon="3.75653">
        <ele>32.8</ele>
        <time>2021-04-13T07:57:27Z</time>
      </trkpt>
      <trkpt lat="43.55608" lon="3.75651">
        <ele>32.8</ele>
        <time>2021-04-13T07:57:28Z</time>
      </trkpt>
      <trkpt lat="43.55605" lon="3.75649">
        <ele>32.8</ele>
        <time>2021-04-13T07:57:29Z</time>
      </trkpt>
      <trkpt lat="43.55602" lon="3.75647">
        <ele>32.8</ele>
        <time>2021-04-13T07:57:30Z</time>
      </trkpt>
      <trkpt lat="43.55598" lon="3.75645">
        <ele>32.8</ele>
        <time>2021-04-13T07:57:31Z</time>
      </trkpt>
      <trkpt lat="43.55595" lon="3.75644">
        <ele>32.8</ele>
        <time>2021-04-13T07:57:32Z</time>
      </trkpt>
      <trkpt lat="43.55591" lon="3.75642">
        <ele>32.8</ele>
        <time>2021-04-13T07:57:33Z</time>
      </trkpt>
      <trkpt lat="43.55588" lon="3.7564">
        <ele>32.8</ele>
        <time>2021-04-13T07:57:34Z</time>
      </trkpt>
      <trkpt lat="43.55584" lon="3.7564">
        <ele>32.8</ele>
        <time>2021-04-13T07:57:35Z</time>
      </trkpt>
      <trkpt lat="43.55581" lon="3.75638">
        <ele>32.6</ele>
        <time>2021-04-13T07:57:36Z</time>
      </trkpt>
      <trkpt lat="43.55577" lon="3.75637">
        <ele>32.8</ele>
        <time>2021-04-13T07:57:37Z</time>
      </trkpt>
      <trkpt lat="43.55573" lon="3.75635">
        <ele>32.6</ele>
        <time>2021-04-13T07:57:38Z</time>
      </trkpt>
      <trkpt lat="43.5557" lon="3.75634">
        <ele>32.6</ele>
        <time>2021-04-13T07:57:39Z</time>
      </trkpt>
      <trkpt lat="43.55567" lon="3.75633">
        <ele>32.6</ele>
        <time>2021-04-13T07:57:40Z</time>
      </trkpt>
      <trkpt lat="43.55563" lon="3.75631">
        <ele>32.6</ele>
        <time>2021-04-13T07:57:41Z</time>
      </trkpt>
      <trkpt lat="43.5556" lon="3.75629">
        <ele>32.6</ele>
        <time>2021-04-13T07:57:42Z</time>
      </trkpt>
      <trkpt lat="43.55556" lon="3.75627">
        <ele>32.4</ele>
        <time>2021-04-13T07:57:43Z</time>
      </trkpt>
      <trkpt lat="43.55553" lon="3.75625">
        <ele>32.4</ele>
        <time>2021-04-13T07:57:44Z</time>
      </trkpt>
      <trkpt lat="43.55551" lon="3.75624">
        <ele>32.4</ele>
        <time>2021-04-13T07:57:45Z</time>
      </trkpt>
      <trkpt lat="43.55548" lon="3.75622">
        <ele>32.4</ele>
        <time>2021-04-13T07:57:46Z</time>
      </trkpt>
      <trkpt lat="43.55545" lon="3.75621">
        <ele>32.4</ele>
        <time>2021-04-13T07:57:47Z</time>
      </trkpt>
      <trkpt lat="43.55542" lon="3.7562">
        <ele>32.2</ele>
        <time>2021-04-13T07:57:48Z</time>
      </trkpt>
      <trkpt lat="43.5554" lon="3.75619">
        <ele>32.2</ele>
        <time>2021-04-13T07:57:49Z</time>
      </trkpt>
      <trkpt lat="43.55537" lon="3.75619">
        <ele>32.2</ele>
        <time>2021-04-13T07:57:50Z</time>
      </trkpt>
      <trkpt lat="43.55535" lon="3.75618">
        <ele>32</ele>
        <time>2021-04-13T07:57:51Z</time>
      </trkpt>
      <trkpt lat="43.55532" lon="3.75617">
        <ele>32</ele>
        <time>2021-04-13T07:57:52Z</time>
      </trkpt>
      <trkpt lat="43.55529" lon="3.75616">
        <ele>31.8</ele>
        <time>2021-04-13T07:57:53Z</time>
      </trkpt>
      <trkpt lat="43.55526" lon="3.75615">
        <ele>31.8</ele>
        <time>2021-04-13T07:57:54Z</time>
      </trkpt>
      <trkpt lat="43.55523" lon="3.75613">
        <ele>31.8</ele>
        <time>2021-04-13T07:57:55Z</time>
      </trkpt>
      <trkpt lat="43.5552" lon="3.75612">
        <ele>31.8</ele>
        <time>2021-04-13T07:57:56Z</time>
      </trkpt>
      <trkpt lat="43.55516" lon="3.7561">
        <ele>31.8</ele>
        <time>2021-04-13T07:57:57Z</time>
      </trkpt>
      <trkpt lat="43.55514" lon="3.75608">
        <ele>31.6</ele>
        <time>2021-04-13T07:57:58Z</time>
      </trkpt>
      <trkpt lat="43.55511" lon="3.75606">
        <ele>31.8</ele>
        <time>2021-04-13T07:57:59Z</time>
      </trkpt>
      <trkpt lat="43.55508" lon="3.75605">
        <ele>31.6</ele>
        <time>2021-04-13T07:58:00Z</time>
      </trkpt>
      <trkpt lat="43.55505" lon="3.75603">
        <ele>31.6</ele>
        <time>2021-04-13T07:58:01Z</time>
      </trkpt>
      <trkpt lat="43.55502" lon="3.75602">
        <ele>31.6</ele>
        <time>2021-04-13T07:58:02Z</time>
      </trkpt>
      <trkpt lat="43.55499" lon="3.756">
        <ele>31.6</ele>
        <time>2021-04-13T07:58:03Z</time>
      </trkpt>
      <trkpt lat="43.55496" lon="3.75599">
        <ele>31.6</ele>
        <time>2021-04-13T07:58:04Z</time>
      </trkpt>
      <trkpt lat="43.55493" lon="3.75598">
        <ele>31.6</ele>
        <time>2021-04-13T07:58:05Z</time>
      </trkpt>
      <trkpt lat="43.5549" lon="3.75598">
        <ele>31.6</ele>
        <time>2021-04-13T07:58:06Z</time>
      </trkpt>
      <trkpt lat="43.55487" lon="3.75597">
        <ele>31.6</ele>
        <time>2021-04-13T07:58:07Z</time>
      </trkpt>
      <trkpt lat="43.55485" lon="3.75596">
        <ele>31.6</ele>
        <time>2021-04-13T07:58:08Z</time>
      </trkpt>
      <trkpt lat="43.55483" lon="3.75595">
        <ele>31.6</ele>
        <time>2021-04-13T07:58:09Z</time>
      </trkpt>
      <trkpt lat="43.55481" lon="3.75594">
        <ele>31.6</ele>
        <time>2021-04-13T07:58:10Z</time>
      </trkpt>
      <trkpt lat="43.55479" lon="3.75592">
        <ele>31.8</ele>
        <time>2021-04-13T07:58:11Z</time>
      </trkpt>
      <trkpt lat="43.55478" lon="3.75592">
        <ele>31.8</ele>
        <time>2021-04-13T07:58:12Z</time>
      </trkpt>
      <trkpt lat="43.55478" lon="3.75591">
        <ele>31.8</ele>
        <time>2021-04-13T07:58:13Z</time>
      </trkpt>
      <trkpt lat="43.55477" lon="3.75591">
        <ele>31.8</ele>
        <time>2021-04-13T07:58:14Z</time>
      </trkpt>
      <trkpt lat="43.55476" lon="3.75591">
        <ele>31.8</ele>
        <time>2021-04-13T07:58:15Z</time>
      </trkpt>
      <trkpt lat="43.55475" lon="3.75592">
        <ele>32</ele>
        <time>2021-04-13T07:58:16Z</time>
      </trkpt>
      <trkpt lat="43.55474" lon="3.75594">
        <ele>32</ele>
        <time>2021-04-13T07:58:17Z</time>
      </trkpt>
      <trkpt lat="43.55473" lon="3.75595">
        <ele>32</ele>
        <time>2021-04-13T07:58:18Z</time>
      </trkpt>
      <trkpt lat="43.55473" lon="3.75597">
        <ele>32</ele>
        <time>2021-04-13T07:58:19Z</time>
      </trkpt>
      <trkpt lat="43.55472" lon="3.75599">
        <ele>32</ele>
        <time>2021-04-13T07:58:20Z</time>
      </trkpt>
      <trkpt lat="43.55471" lon="3.75601">
        <ele>32</ele>
        <time>2021-04-13T07:58:21Z</time>
      </trkpt>
      <trkpt lat="43.5547" lon="3.75603">
        <ele>32</ele>
        <time>2021-04-13T07:58:22Z</time>
      </trkpt>
      <trkpt lat="43.55469" lon="3.75606">
        <ele>32</ele>
        <time>2021-04-13T07:58:23Z</time>
      </trkpt>
      <trkpt lat="43.55468" lon="3.75609">
        <ele>32</ele>
        <time>2021-04-13T07:58:24Z</time>
      </trkpt>
      <trkpt lat="43.55467" lon="3.75613">
        <ele>32</ele>
        <time>2021-04-13T07:58:25Z</time>
      </trkpt>
      <trkpt lat="43.55467" lon="3.75617">
        <ele>32</ele>
        <time>2021-04-13T07:58:26Z</time>
      </trkpt>
      <trkpt lat="43.55465" lon="3.75621">
        <ele>32</ele>
        <time>2021-04-13T07:58:27Z</time>
      </trkpt>
      <trkpt lat="43.55464" lon="3.75626">
        <ele>32</ele>
        <time>2021-04-13T07:58:28Z</time>
      </trkpt>
      <trkpt lat="43.55463" lon="3.7563">
        <ele>32</ele>
        <time>2021-04-13T07:58:29Z</time>
      </trkpt>
      <trkpt lat="43.55462" lon="3.75634">
        <ele>32</ele>
        <time>2021-04-13T07:58:30Z</time>
      </trkpt>
      <trkpt lat="43.5546" lon="3.75639">
        <ele>32</ele>
        <time>2021-04-13T07:58:31Z</time>
      </trkpt>
      <trkpt lat="43.55459" lon="3.75644">
        <ele>32</ele>
        <time>2021-04-13T07:58:32Z</time>
      </trkpt>
      <trkpt lat="43.55457" lon="3.75649">
        <ele>32</ele>
        <time>2021-04-13T07:58:33Z</time>
      </trkpt>
      <trkpt lat="43.55456" lon="3.75654">
        <ele>32</ele>
        <time>2021-04-13T07:58:34Z</time>
      </trkpt>
      <trkpt lat="43.55455" lon="3.75659">
        <ele>32</ele>
        <time>2021-04-13T07:58:35Z</time>
      </trkpt>
      <trkpt lat="43.55453" lon="3.75664">
        <ele>32</ele>
        <time>2021-04-13T07:58:36Z</time>
      </trkpt>
      <trkpt lat="43.55452" lon="3.75669">
        <ele>32</ele>
        <time>2021-04-13T07:58:37Z</time>
      </trkpt>
      <trkpt lat="43.5545" lon="3.75675">
        <ele>32</ele>
        <time>2021-04-13T07:58:38Z</time>
      </trkpt>
      <trkpt lat="43.55449" lon="3.7568">
        <ele>32</ele>
        <time>2021-04-13T07:58:39Z</time>
      </trkpt>
      <trkpt lat="43.55447" lon="3.75685">
        <ele>32</ele>
        <time>2021-04-13T07:58:40Z</time>
      </trkpt>
      <trkpt lat="43.55446" lon="3.75691">
        <ele>32</ele>
        <time>2021-04-13T07:58:41Z</time>
      </trkpt>
      <trkpt lat="43.55444" lon="3.75696">
        <ele>31.8</ele>
        <time>2021-04-13T07:58:42Z</time>
      </trkpt>
      <trkpt lat="43.55443" lon="3.75702">
        <ele>31.8</ele>
        <time>2021-04-13T07:58:43Z</time>
      </trkpt>
      <trkpt lat="43.55442" lon="3.75707">
        <ele>31.8</ele>
        <time>2021-04-13T07:58:44Z</time>
      </trkpt>
      <trkpt lat="43.5544" lon="3.75713">
        <ele>31.8</ele>
        <time>2021-04-13T07:58:45Z</time>
      </trkpt>
      <trkpt lat="43.55438" lon="3.75719">
        <ele>31.8</ele>
        <time>2021-04-13T07:58:46Z</time>
      </trkpt>
      <trkpt lat="43.55437" lon="3.75724">
        <ele>31.8</ele>
        <time>2021-04-13T07:58:47Z</time>
      </trkpt>
      <trkpt lat="43.55435" lon="3.7573">
        <ele>31.8</ele>
        <time>2021-04-13T07:58:48Z</time>
      </trkpt>
      <trkpt lat="43.55434" lon="3.75736">
        <ele>32</ele>
        <time>2021-04-13T07:58:49Z</time>
      </trkpt>
      <trkpt lat="43.55432" lon="3.75741">
        <ele>32</ele>
        <time>2021-04-13T07:58:50Z</time>
      </trkpt>
      <trkpt lat="43.55431" lon="3.75747">
        <ele>32</ele>
        <time>2021-04-13T07:58:51Z</time>
      </trkpt>
      <trkpt lat="43.55429" lon="3.75752">
        <ele>32</ele>
        <time>2021-04-13T07:58:52Z</time>
      </trkpt>
      <trkpt lat="43.55428" lon="3.75757">
        <ele>32</ele>
        <time>2021-04-13T07:58:53Z</time>
      </trkpt>
      <trkpt lat="43.55426" lon="3.75763">
        <ele>32.2</ele>
        <time>2021-04-13T07:58:54Z</time>
      </trkpt>
      <trkpt lat="43.55425" lon="3.75768">
        <ele>32.2</ele>
        <time>2021-04-13T07:58:55Z</time>
      </trkpt>
      <trkpt lat="43.55424" lon="3.75773">
        <ele>32.4</ele>
        <time>2021-04-13T07:58:56Z</time>
      </trkpt>
      <trkpt lat="43.55422" lon="3.75778">
        <ele>32.4</ele>
        <time>2021-04-13T07:58:57Z</time>
      </trkpt>
      <trkpt lat="43.55421" lon="3.75784">
        <ele>32.4</ele>
        <time>2021-04-13T07:58:58Z</time>
      </trkpt>
      <trkpt lat="43.55419" lon="3.75789">
        <ele>32.4</ele>
        <time>2021-04-13T07:58:59Z</time>
      </trkpt>
      <trkpt lat="43.55418" lon="3.75794">
        <ele>32.4</ele>
        <time>2021-04-13T07:59:00Z</time>
      </trkpt>
      <trkpt lat="43.55417" lon="3.758">
        <ele>32.6</ele>
        <time>2021-04-13T07:59:01Z</time>
      </trkpt>
      <trkpt lat="43.55415" lon="3.75805">
        <ele>32.6</ele>
        <time>2021-04-13T07:59:02Z</time>
      </trkpt>
      <trkpt lat="43.55414" lon="3.7581">
        <ele>32.6</ele>
        <time>2021-04-13T07:59:03Z</time>
      </trkpt>
      <trkpt lat="43.55412" lon="3.75815">
        <ele>32.6</ele>
        <time>2021-04-13T07:59:04Z</time>
      </trkpt>
      <trkpt lat="43.55411" lon="3.7582">
        <ele>32.6</ele>
        <time>2021-04-13T07:59:05Z</time>
      </trkpt>
      <trkpt lat="43.55409" lon="3.75825">
        <ele>32.6</ele>
        <time>2021-04-13T07:59:06Z</time>
      </trkpt>
      <trkpt lat="43.55408" lon="3.7583">
        <ele>32.6</ele>
        <time>2021-04-13T07:59:07Z</time>
      </trkpt>
      <trkpt lat="43.55407" lon="3.75835">
        <ele>32.6</ele>
        <time>2021-04-13T07:59:08Z</time>
      </trkpt>
      <trkpt lat="43.55406" lon="3.7584">
        <ele>32.4</ele>
        <time>2021-04-13T07:59:09Z</time>
      </trkpt>
      <trkpt lat="43.55404" lon="3.75845">
        <ele>32.4</ele>
        <time>2021-04-13T07:59:10Z</time>
      </trkpt>
      <trkpt lat="43.55402" lon="3.75849">
        <ele>32.4</ele>
        <time>2021-04-13T07:59:11Z</time>
      </trkpt>
      <trkpt lat="43.55399" lon="3.75852">
        <ele>32.4</ele>
        <time>2021-04-13T07:59:12Z</time>
      </trkpt>
      <trkpt lat="43.55396" lon="3.75853">
        <ele>32.2</ele>
        <time>2021-04-13T07:59:13Z</time>
      </trkpt>
      <trkpt lat="43.55393" lon="3.75852">
        <ele>32.4</ele>
        <time>2021-04-13T07:59:14Z</time>
      </trkpt>
      <trkpt lat="43.5539" lon="3.7585">
        <ele>32.2</ele>
        <time>2021-04-13T07:59:15Z</time>
      </trkpt>
      <trkpt lat="43.55387" lon="3.75848">
        <ele>32.4</ele>
        <time>2021-04-13T07:59:16Z</time>
      </trkpt>
      <trkpt lat="43.55384" lon="3.75845">
        <ele>32.4</ele>
        <time>2021-04-13T07:59:17Z</time>
      </trkpt>
      <trkpt lat="43.55382" lon="3.75842">
        <ele>32.4</ele>
        <time>2021-04-13T07:59:18Z</time>
      </trkpt>
      <trkpt lat="43.5538" lon="3.75838">
        <ele>32.4</ele>
        <time>2021-04-13T07:59:19Z</time>
      </trkpt>
      <trkpt lat="43.55377" lon="3.75835">
        <ele>32.4</ele>
        <time>2021-04-13T07:59:20Z</time>
      </trkpt>
      <trkpt lat="43.55375" lon="3.75831">
        <ele>32.4</ele>
        <time>2021-04-13T07:59:21Z</time>
      </trkpt>
      <trkpt lat="43.55372" lon="3.75827">
        <ele>32.4</ele>
        <time>2021-04-13T07:59:22Z</time>
      </trkpt>
      <trkpt lat="43.5537" lon="3.75823">
        <ele>32.4</ele>
        <time>2021-04-13T07:59:23Z</time>
      </trkpt>
      <trkpt lat="43.55367" lon="3.7582">
        <ele>32.4</ele>
        <time>2021-04-13T07:59:24Z</time>
      </trkpt>
      <trkpt lat="43.55364" lon="3.75815">
        <ele>32.4</ele>
        <time>2021-04-13T07:59:25Z</time>
      </trkpt>
      <trkpt lat="43.55362" lon="3.75811">
        <ele>32.6</ele>
        <time>2021-04-13T07:59:26Z</time>
      </trkpt>
      <trkpt lat="43.55359" lon="3.75806">
        <ele>32.6</ele>
        <time>2021-04-13T07:59:27Z</time>
      </trkpt>
      <trkpt lat="43.55356" lon="3.75802">
        <ele>32.4</ele>
        <time>2021-04-13T07:59:28Z</time>
      </trkpt>
      <trkpt lat="43.55353" lon="3.75799">
        <ele>32.4</ele>
        <time>2021-04-13T07:59:29Z</time>
      </trkpt>
      <trkpt lat="43.5535" lon="3.75795">
        <ele>32.2</ele>
        <time>2021-04-13T07:59:30Z</time>
      </trkpt>
      <trkpt lat="43.55346" lon="3.75792">
        <ele>32.8</ele>
        <time>2021-04-13T07:59:31Z</time>
      </trkpt>
      <trkpt lat="43.55343" lon="3.75788">
        <ele>32.8</ele>
        <time>2021-04-13T07:59:32Z</time>
      </trkpt>
      <trkpt lat="43.55339" lon="3.75785">
        <ele>32.8</ele>
        <time>2021-04-13T07:59:33Z</time>
      </trkpt>
      <trkpt lat="43.55337" lon="3.75781">
        <ele>32.8</ele>
        <time>2021-04-13T07:59:34Z</time>
      </trkpt>
      <trkpt lat="43.55334" lon="3.75778">
        <ele>32.8</ele>
        <time>2021-04-13T07:59:35Z</time>
      </trkpt>
      <trkpt lat="43.55331" lon="3.75774">
        <ele>32.8</ele>
        <time>2021-04-13T07:59:36Z</time>
      </trkpt>
      <trkpt lat="43.55327" lon="3.7577">
        <ele>32.8</ele>
        <time>2021-04-13T07:59:37Z</time>
      </trkpt>
      <trkpt lat="43.55324" lon="3.75767">
        <ele>33</ele>
        <time>2021-04-13T07:59:38Z</time>
      </trkpt>
      <trkpt lat="43.55321" lon="3.75764">
        <ele>33</ele>
        <time>2021-04-13T07:59:39Z</time>
      </trkpt>
      <trkpt lat="43.55318" lon="3.7576">
        <ele>33</ele>
        <time>2021-04-13T07:59:40Z</time>
      </trkpt>
      <trkpt lat="43.55315" lon="3.75757">
        <ele>33</ele>
        <time>2021-04-13T07:59:41Z</time>
      </trkpt>
      <trkpt lat="43.55312" lon="3.75753">
        <ele>33.2</ele>
        <time>2021-04-13T07:59:42Z</time>
      </trkpt>
      <trkpt lat="43.55309" lon="3.75749">
        <ele>33.4</ele>
        <time>2021-04-13T07:59:43Z</time>
      </trkpt>
      <trkpt lat="43.55307" lon="3.75745">
        <ele>33.4</ele>
        <time>2021-04-13T07:59:44Z</time>
      </trkpt>
      <trkpt lat="43.55304" lon="3.75742">
        <ele>33.4</ele>
        <time>2021-04-13T07:59:45Z</time>
      </trkpt>
      <trkpt lat="43.55301" lon="3.75738">
        <ele>33.2</ele>
        <time>2021-04-13T07:59:46Z</time>
      </trkpt>
      <trkpt lat="43.55299" lon="3.75734">
        <ele>33.4</ele>
        <time>2021-04-13T07:59:47Z</time>
      </trkpt>
      <trkpt lat="43.55296" lon="3.75731">
        <ele>33.6</ele>
        <time>2021-04-13T07:59:48Z</time>
      </trkpt>
      <trkpt lat="43.55294" lon="3.75726">
        <ele>33.8</ele>
        <time>2021-04-13T07:59:49Z</time>
      </trkpt>
      <trkpt lat="43.55292" lon="3.75722">
        <ele>34</ele>
        <time>2021-04-13T07:59:50Z</time>
      </trkpt>
      <trkpt lat="43.5529" lon="3.75717">
        <ele>34</ele>
        <time>2021-04-13T07:59:51Z</time>
      </trkpt>
      <trkpt lat="43.55288" lon="3.75713">
        <ele>34</ele>
        <time>2021-04-13T07:59:52Z</time>
      </trkpt>
      <trkpt lat="43.55286" lon="3.75709">
        <ele>34.2</ele>
        <time>2021-04-13T07:59:53Z</time>
      </trkpt>
      <trkpt lat="43.55284" lon="3.75705">
        <ele>34.2</ele>
        <time>2021-04-13T07:59:54Z</time>
      </trkpt>
      <trkpt lat="43.55282" lon="3.757">
        <ele>34.2</ele>
        <time>2021-04-13T07:59:55Z</time>
      </trkpt>
      <trkpt lat="43.5528" lon="3.75695">
        <ele>34.4</ele>
        <time>2021-04-13T07:59:56Z</time>
      </trkpt>
      <trkpt lat="43.55279" lon="3.75691">
        <ele>34.4</ele>
        <time>2021-04-13T07:59:57Z</time>
      </trkpt>
      <trkpt lat="43.55277" lon="3.75686">
        <ele>34.4</ele>
        <time>2021-04-13T07:59:58Z</time>
      </trkpt>
      <trkpt lat="43.55276" lon="3.75682">
        <ele>34.4</ele>
        <time>2021-04-13T07:59:59Z</time>
      </trkpt>
      <trkpt lat="43.55274" lon="3.75678">
        <ele>34.4</ele>
        <time>2021-04-13T08:00:00Z</time>
      </trkpt>
      <trkpt lat="43.55273" lon="3.75674">
        <ele>34.6</ele>
        <time>2021-04-13T08:00:01Z</time>
      </trkpt>
      <trkpt lat="43.55271" lon="3.75671">
        <ele>34.4</ele>
        <time>2021-04-13T08:00:02Z</time>
      </trkpt>
      <trkpt lat="43.55268" lon="3.75668">
        <ele>34.4</ele>
        <time>2021-04-13T08:00:03Z</time>
      </trkpt>
      <trkpt lat="43.55265" lon="3.75666">
        <ele>34.6</ele>
        <time>2021-04-13T08:00:04Z</time>
      </trkpt>
      <trkpt lat="43.55261" lon="3.75665">
        <ele>34.6</ele>
        <time>2021-04-13T08:00:05Z</time>
      </trkpt>
      <trkpt lat="43.55258" lon="3.75665">
        <ele>34.6</ele>
        <time>2021-04-13T08:00:06Z</time>
      </trkpt>
      <trkpt lat="43.55255" lon="3.75664">
        <ele>34.4</ele>
        <time>2021-04-13T08:00:07Z</time>
      </trkpt>
      <trkpt lat="43.55251" lon="3.75663">
        <ele>34.4</ele>
        <time>2021-04-13T08:00:08Z</time>
      </trkpt>
      <trkpt lat="43.55248" lon="3.75662">
        <ele>34.2</ele>
        <time>2021-04-13T08:00:09Z</time>
      </trkpt>
      <trkpt lat="43.55244" lon="3.75661">
        <ele>34.2</ele>
        <time>2021-04-13T08:00:10Z</time>
      </trkpt>
      <trkpt lat="43.5524" lon="3.75659">
        <ele>34.2</ele>
        <time>2021-04-13T08:00:11Z</time>
      </trkpt>
      <trkpt lat="43.55238" lon="3.75657">
        <ele>34.2</ele>
        <time>2021-04-13T08:00:12Z</time>
      </trkpt>
      <trkpt lat="43.55235" lon="3.75655">
        <ele>34.2</ele>
        <time>2021-04-13T08:00:13Z</time>
      </trkpt>
      <trkpt lat="43.55232" lon="3.75653">
        <ele>34.2</ele>
        <time>2021-04-13T08:00:14Z</time>
      </trkpt>
      <trkpt lat="43.55229" lon="3.7565">
        <ele>34.2</ele>
        <time>2021-04-13T08:00:15Z</time>
      </trkpt>
      <trkpt lat="43.55226" lon="3.75648">
        <ele>34.2</ele>
        <time>2021-04-13T08:00:16Z</time>
      </trkpt>
      <trkpt lat="43.55223" lon="3.75645">
        <ele>34.2</ele>
        <time>2021-04-13T08:00:17Z</time>
      </trkpt>
      <trkpt lat="43.5522" lon="3.75643">
        <ele>34.4</ele>
        <time>2021-04-13T08:00:18Z</time>
      </trkpt>
      <trkpt lat="43.55216" lon="3.7564">
        <ele>34.4</ele>
        <time>2021-04-13T08:00:19Z</time>
      </trkpt>
      <trkpt lat="43.55213" lon="3.75638">
        <ele>34.2</ele>
        <time>2021-04-13T08:00:20Z</time>
      </trkpt>
      <trkpt lat="43.5521" lon="3.75635">
        <ele>34.4</ele>
        <time>2021-04-13T08:00:21Z</time>
      </trkpt>
      <trkpt lat="43.55207" lon="3.75633">
        <ele>34.4</ele>
        <time>2021-04-13T08:00:22Z</time>
      </trkpt>
      <trkpt lat="43.55203" lon="3.75631">
        <ele>34.2</ele>
        <time>2021-04-13T08:00:23Z</time>
      </trkpt>
      <trkpt lat="43.552" lon="3.75628">
        <ele>34.2</ele>
        <time>2021-04-13T08:00:24Z</time>
      </trkpt>
      <trkpt lat="43.55197" lon="3.75626">
        <ele>34.2</ele>
        <time>2021-04-13T08:00:25Z</time>
      </trkpt>
      <trkpt lat="43.55194" lon="3.75624">
        <ele>34.2</ele>
        <time>2021-04-13T08:00:26Z</time>
      </trkpt>
      <trkpt lat="43.55191" lon="3.7562">
        <ele>34.2</ele>
        <time>2021-04-13T08:00:27Z</time>
      </trkpt>
      <trkpt lat="43.55189" lon="3.75618">
        <ele>34.2</ele>
        <time>2021-04-13T08:00:28Z</time>
      </trkpt>
      <trkpt lat="43.55186" lon="3.75615">
        <ele>34.2</ele>
        <time>2021-04-13T08:00:29Z</time>
      </trkpt>
      <trkpt lat="43.55183" lon="3.75613">
        <ele>34.2</ele>
        <time>2021-04-13T08:00:30Z</time>
      </trkpt>
      <trkpt lat="43.5518" lon="3.7561">
        <ele>34.2</ele>
        <time>2021-04-13T08:00:31Z</time>
      </trkpt>
      <trkpt lat="43.55176" lon="3.75608">
        <ele>34.2</ele>
        <time>2021-04-13T08:00:32Z</time>
      </trkpt>
      <trkpt lat="43.55173" lon="3.75606">
        <ele>34.2</ele>
        <time>2021-04-13T08:00:33Z</time>
      </trkpt>
      <trkpt lat="43.5517" lon="3.75605">
        <ele>34.2</ele>
        <time>2021-04-13T08:00:34Z</time>
      </trkpt>
      <trkpt lat="43.55166" lon="3.75603">
        <ele>34</ele>
        <time>2021-04-13T08:00:35Z</time>
      </trkpt>
      <trkpt lat="43.55163" lon="3.756">
        <ele>34</ele>
        <time>2021-04-13T08:00:36Z</time>
      </trkpt>
      <trkpt lat="43.5516" lon="3.75597">
        <ele>34.2</ele>
        <time>2021-04-13T08:00:37Z</time>
      </trkpt>
      <trkpt lat="43.55157" lon="3.75593">
        <ele>34.4</ele>
        <time>2021-04-13T08:00:38Z</time>
      </trkpt>
      <trkpt lat="43.55154" lon="3.7559">
        <ele>34.4</ele>
        <time>2021-04-13T08:00:39Z</time>
      </trkpt>
      <trkpt lat="43.55151" lon="3.75586">
        <ele>34.4</ele>
        <time>2021-04-13T08:00:40Z</time>
      </trkpt>
      <trkpt lat="43.55148" lon="3.75582">
        <ele>34.4</ele>
        <time>2021-04-13T08:00:41Z</time>
      </trkpt>
      <trkpt lat="43.55145" lon="3.75578">
        <ele>34.4</ele>
        <time>2021-04-13T08:00:42Z</time>
      </trkpt>
      <trkpt lat="43.55142" lon="3.75575">
        <ele>34.4</ele>
        <time>2021-04-13T08:00:43Z</time>
      </trkpt>
      <trkpt lat="43.5514" lon="3.75571">
        <ele>34.4</ele>
        <time>2021-04-13T08:00:44Z</time>
      </trkpt>
      <trkpt lat="43.55137" lon="3.75568">
        <ele>34.2</ele>
        <time>2021-04-13T08:00:45Z</time>
      </trkpt>
      <trkpt lat="43.55135" lon="3.75566">
        <ele>34.4</ele>
        <time>2021-04-13T08:00:46Z</time>
      </trkpt>
      <trkpt lat="43.55133" lon="3.75563">
        <ele>34.4</ele>
        <time>2021-04-13T08:00:47Z</time>
      </trkpt>
      <trkpt lat="43.55131" lon="3.7556">
        <ele>34.4</ele>
        <time>2021-04-13T08:00:48Z</time>
      </trkpt>
      <trkpt lat="43.55129" lon="3.75557">
        <ele>34.4</ele>
        <time>2021-04-13T08:00:49Z</time>
      </trkpt>
      <trkpt lat="43.55127" lon="3.75555">
        <ele>34.2</ele>
        <time>2021-04-13T08:00:50Z</time>
      </trkpt>
      <trkpt lat="43.55125" lon="3.75552">
        <ele>34.2</ele>
        <time>2021-04-13T08:00:51Z</time>
      </trkpt>
      <trkpt lat="43.55122" lon="3.7555">
        <ele>34.2</ele>
        <time>2021-04-13T08:00:52Z</time>
      </trkpt>
      <trkpt lat="43.5512" lon="3.75548">
        <ele>34.2</ele>
        <time>2021-04-13T08:00:53Z</time>
      </trkpt>
      <trkpt lat="43.55118" lon="3.75546">
        <ele>34.2</ele>
        <time>2021-04-13T08:00:54Z</time>
      </trkpt>
      <trkpt lat="43.55116" lon="3.75544">
        <ele>34.2</ele>
        <time>2021-04-13T08:00:55Z</time>
      </trkpt>
      <trkpt lat="43.55114" lon="3.75544">
        <ele>34.2</ele>
        <time>2021-04-13T08:00:56Z</time>
      </trkpt>
      <trkpt lat="43.55112" lon="3.75543">
        <ele>34.2</ele>
        <time>2021-04-13T08:00:57Z</time>
      </trkpt>
      <trkpt lat="43.5511" lon="3.75542">
        <ele>34.2</ele>
        <time>2021-04-13T08:00:58Z</time>
      </trkpt>
      <trkpt lat="43.55107" lon="3.75541">
        <ele>34.2</ele>
        <time>2021-04-13T08:00:59Z</time>
      </trkpt>
      <trkpt lat="43.55105" lon="3.7554">
        <ele>34.2</ele>
        <time>2021-04-13T08:01:00Z</time>
      </trkpt>
      <trkpt lat="43.55103" lon="3.75539">
        <ele>34.2</ele>
        <time>2021-04-13T08:01:01Z</time>
      </trkpt>
      <trkpt lat="43.55101" lon="3.75538">
        <ele>34.2</ele>
        <time>2021-04-13T08:01:02Z</time>
      </trkpt>
      <trkpt lat="43.55098" lon="3.75536">
        <ele>34.2</ele>
        <time>2021-04-13T08:01:03Z</time>
      </trkpt>
      <trkpt lat="43.55095" lon="3.75535">
        <ele>34.2</ele>
        <time>2021-04-13T08:01:04Z</time>
      </trkpt>
      <trkpt lat="43.55092" lon="3.75533">
        <ele>34.4</ele>
        <time>2021-04-13T08:01:05Z</time>
      </trkpt>
      <trkpt lat="43.5509" lon="3.7553">
        <ele>34.4</ele>
        <time>2021-04-13T08:01:06Z</time>
      </trkpt>
      <trkpt lat="43.55087" lon="3.75528">
        <ele>34.4</ele>
        <time>2021-04-13T08:01:07Z</time>
      </trkpt>
      <trkpt lat="43.55085" lon="3.75526">
        <ele>34.4</ele>
        <time>2021-04-13T08:01:08Z</time>
      </trkpt>
      <trkpt lat="43.55083" lon="3.75524">
        <ele>34.6</ele>
        <time>2021-04-13T08:01:09Z</time>
      </trkpt>
      <trkpt lat="43.55081" lon="3.75521">
        <ele>34.6</ele>
        <time>2021-04-13T08:01:10Z</time>
      </trkpt>
      <trkpt lat="43.55078" lon="3.75519">
        <ele>34.6</ele>
        <time>2021-04-13T08:01:11Z</time>
      </trkpt>
      <trkpt lat="43.55076" lon="3.75517">
        <ele>34.6</ele>
        <time>2021-04-13T08:01:12Z</time>
      </trkpt>
      <trkpt lat="43.55073" lon="3.75514">
        <ele>34.6</ele>
        <time>2021-04-13T08:01:13Z</time>
      </trkpt>
      <trkpt lat="43.5507" lon="3.75511">
        <ele>34.6</ele>
        <time>2021-04-13T08:01:14Z</time>
      </trkpt>
      <trkpt lat="43.55067" lon="3.75507">
        <ele>34.8</ele>
        <time>2021-04-13T08:01:15Z</time>
      </trkpt>
      <trkpt lat="43.55064" lon="3.75505">
        <ele>34.8</ele>
        <time>2021-04-13T08:01:16Z</time>
      </trkpt>
      <trkpt lat="43.55062" lon="3.75499">
        <ele>34.8</ele>
        <time>2021-04-13T08:01:17Z</time>
      </trkpt>
      <trkpt lat="43.55059" lon="3.75495">
        <ele>34.8</ele>
        <time>2021-04-13T08:01:18Z</time>
      </trkpt>
      <trkpt lat="43.55057" lon="3.75493">
        <ele>34.8</ele>
        <time>2021-04-13T08:01:19Z</time>
      </trkpt>
      <trkpt lat="43.55054" lon="3.75488">
        <ele>34.8</ele>
        <time>2021-04-13T08:01:20Z</time>
      </trkpt>
      <trkpt lat="43.55051" lon="3.75484">
        <ele>34.8</ele>
        <time>2021-04-13T08:01:21Z</time>
      </trkpt>
      <trkpt lat="43.55048" lon="3.7548">
        <ele>34.8</ele>
        <time>2021-04-13T08:01:22Z</time>
      </trkpt>
      <trkpt lat="43.55045" lon="3.75477">
        <ele>35</ele>
        <time>2021-04-13T08:01:23Z</time>
      </trkpt>
      <trkpt lat="43.55043" lon="3.75472">
        <ele>34.8</ele>
        <time>2021-04-13T08:01:24Z</time>
      </trkpt>
      <trkpt lat="43.55041" lon="3.75468">
        <ele>35</ele>
        <time>2021-04-13T08:01:25Z</time>
      </trkpt>
      <trkpt lat="43.55039" lon="3.75463">
        <ele>35</ele>
        <time>2021-04-13T08:01:26Z</time>
      </trkpt>
      <trkpt lat="43.55037" lon="3.7546">
        <ele>35</ele>
        <time>2021-04-13T08:01:27Z</time>
      </trkpt>
      <trkpt lat="43.55034" lon="3.75456">
        <ele>35</ele>
        <time>2021-04-13T08:01:28Z</time>
      </trkpt>
      <trkpt lat="43.55032" lon="3.75453">
        <ele>35</ele>
        <time>2021-04-13T08:01:29Z</time>
      </trkpt>
      <trkpt lat="43.5503" lon="3.75449">
        <ele>35</ele>
        <time>2021-04-13T08:01:30Z</time>
      </trkpt>
      <trkpt lat="43.55027" lon="3.75446">
        <ele>35</ele>
        <time>2021-04-13T08:01:31Z</time>
      </trkpt>
      <trkpt lat="43.55025" lon="3.75442">
        <ele>35.2</ele>
        <time>2021-04-13T08:01:32Z</time>
      </trkpt>
      <trkpt lat="43.55023" lon="3.75438">
        <ele>35.2</ele>
        <time>2021-04-13T08:01:33Z</time>
      </trkpt>
      <trkpt lat="43.5502" lon="3.75434">
        <ele>35.2</ele>
        <time>2021-04-13T08:01:34Z</time>
      </trkpt>
      <trkpt lat="43.55017" lon="3.7543">
        <ele>35.2</ele>
        <time>2021-04-13T08:01:35Z</time>
      </trkpt>
      <trkpt lat="43.55015" lon="3.75426">
        <ele>35.4</ele>
        <time>2021-04-13T08:01:36Z</time>
      </trkpt>
      <trkpt lat="43.55012" lon="3.75422">
        <ele>35.4</ele>
        <time>2021-04-13T08:01:37Z</time>
      </trkpt>
      <trkpt lat="43.5501" lon="3.75418">
        <ele>35.4</ele>
        <time>2021-04-13T08:01:38Z</time>
      </trkpt>
      <trkpt lat="43.55008" lon="3.75412">
        <ele>35.6</ele>
        <time>2021-04-13T08:01:39Z</time>
      </trkpt>
      <trkpt lat="43.55006" lon="3.75408">
        <ele>35.4</ele>
        <time>2021-04-13T08:01:40Z</time>
      </trkpt>
      <trkpt lat="43.55003" lon="3.75403">
        <ele>35.6</ele>
        <time>2021-04-13T08:01:41Z</time>
      </trkpt>
      <trkpt lat="43.55001" lon="3.75399">
        <ele>35.6</ele>
        <time>2021-04-13T08:01:42Z</time>
      </trkpt>
      <trkpt lat="43.54998" lon="3.75395">
        <ele>35.6</ele>
        <time>2021-04-13T08:01:44Z</time>
      </trkpt>
      <trkpt lat="43.54992" lon="3.75386">
        <ele>35.6</ele>
        <time>2021-04-13T08:01:45Z</time>
      </trkpt>
      <trkpt lat="43.54989" lon="3.75382">
        <ele>35.6</ele>
        <time>2021-04-13T08:01:46Z</time>
      </trkpt>
      <trkpt lat="43.54986" lon="3.75378">
        <ele>35.6</ele>
        <time>2021-04-13T08:01:47Z</time>
      </trkpt>
      <trkpt lat="43.54984" lon="3.75374">
        <ele>35.6</ele>
        <time>2021-04-13T08:01:49Z</time>
      </trkpt>
      <trkpt lat="43.54979" lon="3.75365">
        <ele>35.6</ele>
        <time>2021-04-13T08:01:50Z</time>
      </trkpt>
      <trkpt lat="43.54976" lon="3.75361">
        <ele>35.6</ele>
        <time>2021-04-13T08:01:52Z</time>
      </trkpt>
      <trkpt lat="43.54971" lon="3.75353">
        <ele>35.8</ele>
        <time>2021-04-13T08:01:53Z</time>
      </trkpt>
      <trkpt lat="43.54969" lon="3.75349">
        <ele>36</ele>
        <time>2021-04-13T08:01:54Z</time>
      </trkpt>
      <trkpt lat="43.54967" lon="3.75345">
        <ele>36</ele>
        <time>2021-04-13T08:01:56Z</time>
      </trkpt>
      <trkpt lat="43.54962" lon="3.75337">
        <ele>36</ele>
        <time>2021-04-13T08:01:57Z</time>
      </trkpt>
      <trkpt lat="43.5496" lon="3.75334">
        <ele>36</ele>
        <time>2021-04-13T08:01:58Z</time>
      </trkpt>
      <trkpt lat="43.54957" lon="3.7533">
        <ele>36.2</ele>
        <time>2021-04-13T08:01:59Z</time>
      </trkpt>
      <trkpt lat="43.54955" lon="3.75326">
        <ele>36.4</ele>
        <time>2021-04-13T08:02:00Z</time>
      </trkpt>
      <trkpt lat="43.54953" lon="3.75322">
        <ele>36.4</ele>
        <time>2021-04-13T08:02:01Z</time>
      </trkpt>
      <trkpt lat="43.54951" lon="3.75318">
        <ele>36.4</ele>
        <time>2021-04-13T08:02:02Z</time>
      </trkpt>
      <trkpt lat="43.54948" lon="3.75314">
        <ele>36.4</ele>
        <time>2021-04-13T08:02:03Z</time>
      </trkpt>
      <trkpt lat="43.54946" lon="3.7531">
        <ele>36.6</ele>
        <time>2021-04-13T08:02:04Z</time>
      </trkpt>
      <trkpt lat="43.54944" lon="3.75306">
        <ele>36.6</ele>
        <time>2021-04-13T08:02:05Z</time>
      </trkpt>
      <trkpt lat="43.54941" lon="3.75302">
        <ele>36.8</ele>
        <time>2021-04-13T08:02:06Z</time>
      </trkpt>
      <trkpt lat="43.54939" lon="3.75298">
        <ele>36.8</ele>
        <time>2021-04-13T08:02:07Z</time>
      </trkpt>
      <trkpt lat="43.54937" lon="3.75293">
        <ele>36.8</ele>
        <time>2021-04-13T08:02:09Z</time>
      </trkpt>
      <trkpt lat="43.54932" lon="3.75285">
        <ele>37</ele>
        <time>2021-04-13T08:02:10Z</time>
      </trkpt>
      <trkpt lat="43.5493" lon="3.75281">
        <ele>37</ele>
        <time>2021-04-13T08:02:12Z</time>
      </trkpt>
      <trkpt lat="43.54926" lon="3.75274">
        <ele>37</ele>
        <time>2021-04-13T08:02:13Z</time>
      </trkpt>
      <trkpt lat="43.54923" lon="3.7527">
        <ele>37.2</ele>
        <time>2021-04-13T08:02:15Z</time>
      </trkpt>
      <trkpt lat="43.54918" lon="3.75263">
        <ele>37.2</ele>
        <time>2021-04-13T08:02:16Z</time>
      </trkpt>
      <trkpt lat="43.54916" lon="3.75259">
        <ele>37.4</ele>
        <time>2021-04-13T08:02:18Z</time>
      </trkpt>
      <trkpt lat="43.54911" lon="3.75251">
        <ele>37.6</ele>
        <time>2021-04-13T08:02:19Z</time>
      </trkpt>
      <trkpt lat="43.54909" lon="3.75247">
        <ele>37.8</ele>
        <time>2021-04-13T08:02:20Z</time>
      </trkpt>
      <trkpt lat="43.54907" lon="3.75243">
        <ele>38</ele>
        <time>2021-04-13T08:02:21Z</time>
      </trkpt>
      <trkpt lat="43.54905" lon="3.75238">
        <ele>38</ele>
        <time>2021-04-13T08:02:22Z</time>
      </trkpt>
      <trkpt lat="43.54903" lon="3.75234">
        <ele>38</ele>
        <time>2021-04-13T08:02:23Z</time>
      </trkpt>
      <trkpt lat="43.54901" lon="3.7523">
        <ele>38.2</ele>
        <time>2021-04-13T08:02:24Z</time>
      </trkpt>
      <trkpt lat="43.54899" lon="3.75225">
        <ele>38.4</ele>
        <time>2021-04-13T08:02:25Z</time>
      </trkpt>
      <trkpt lat="43.54897" lon="3.75223">
        <ele>38.4</ele>
        <time>2021-04-13T08:02:26Z</time>
      </trkpt>
      <trkpt lat="43.54895" lon="3.75218">
        <ele>38.6</ele>
        <time>2021-04-13T08:02:27Z</time>
      </trkpt>
      <trkpt lat="43.54892" lon="3.75214">
        <ele>38.8</ele>
        <time>2021-04-13T08:02:28Z</time>
      </trkpt>
      <trkpt lat="43.5489" lon="3.75209">
        <ele>38.8</ele>
        <time>2021-04-13T08:02:29Z</time>
      </trkpt>
      <trkpt lat="43.54888" lon="3.75205">
        <ele>39</ele>
        <time>2021-04-13T08:02:31Z</time>
      </trkpt>
      <trkpt lat="43.54883" lon="3.75198">
        <ele>39.2</ele>
        <time>2021-04-13T08:02:32Z</time>
      </trkpt>
      <trkpt lat="43.5488" lon="3.75193">
        <ele>39.4</ele>
        <time>2021-04-13T08:02:33Z</time>
      </trkpt>
      <trkpt lat="43.54878" lon="3.7519">
        <ele>39.6</ele>
        <time>2021-04-13T08:02:35Z</time>
      </trkpt>
      <trkpt lat="43.54873" lon="3.75183">
        <ele>39.8</ele>
        <time>2021-04-13T08:02:36Z</time>
      </trkpt>
      <trkpt lat="43.54871" lon="3.75179">
        <ele>39.8</ele>
        <time>2021-04-13T08:02:38Z</time>
      </trkpt>
      <trkpt lat="43.54866" lon="3.75172">
        <ele>40.2</ele>
        <time>2021-04-13T08:02:39Z</time>
      </trkpt>
      <trkpt lat="43.54864" lon="3.7517">
        <ele>40.4</ele>
        <time>2021-04-13T08:02:40Z</time>
      </trkpt>
      <trkpt lat="43.54861" lon="3.75167">
        <ele>40.6</ele>
        <time>2021-04-13T08:02:41Z</time>
      </trkpt>
      <trkpt lat="43.5486" lon="3.75164">
        <ele>41</ele>
        <time>2021-04-13T08:02:42Z</time>
      </trkpt>
      <trkpt lat="43.54858" lon="3.75161">
        <ele>41.2</ele>
        <time>2021-04-13T08:02:43Z</time>
      </trkpt>
      <trkpt lat="43.54856" lon="3.75159">
        <ele>41.4</ele>
        <time>2021-04-13T08:02:44Z</time>
      </trkpt>
      <trkpt lat="43.54854" lon="3.75157">
        <ele>41.6</ele>
        <time>2021-04-13T08:02:46Z</time>
      </trkpt>
      <trkpt lat="43.54851" lon="3.75152">
        <ele>42</ele>
        <time>2021-04-13T08:02:47Z</time>
      </trkpt>
      <trkpt lat="43.5485" lon="3.75149">
        <ele>42.2</ele>
        <time>2021-04-13T08:02:48Z</time>
      </trkpt>
      <trkpt lat="43.54847" lon="3.75147">
        <ele>42.2</ele>
        <time>2021-04-13T08:02:49Z</time>
      </trkpt>
      <trkpt lat="43.54846" lon="3.75145">
        <ele>42.2</ele>
        <time>2021-04-13T08:02:50Z</time>
      </trkpt>
      <trkpt lat="43.54844" lon="3.75141">
        <ele>42.2</ele>
        <time>2021-04-13T08:02:52Z</time>
      </trkpt>
      <trkpt lat="43.54839" lon="3.75136">
        <ele>42</ele>
        <time>2021-04-13T08:02:54Z</time>
      </trkpt>
      <trkpt lat="43.54834" lon="3.75131">
        <ele>41.8</ele>
        <time>2021-04-13T08:02:55Z</time>
      </trkpt>
      <trkpt lat="43.54831" lon="3.75127">
        <ele>42</ele>
        <time>2021-04-13T08:02:57Z</time>
      </trkpt>
      <trkpt lat="43.54825" lon="3.75121">
        <ele>41.8</ele>
        <time>2021-04-13T08:02:58Z</time>
      </trkpt>
      <trkpt lat="43.54823" lon="3.75118">
        <ele>41.6</ele>
        <time>2021-04-13T08:03:00Z</time>
      </trkpt>
      <trkpt lat="43.5482" lon="3.75116">
        <ele>41.6</ele>
        <time>2021-04-13T08:03:01Z</time>
      </trkpt>
      <trkpt lat="43.54817" lon="3.75113">
        <ele>41.6</ele>
        <time>2021-04-13T08:03:02Z</time>
      </trkpt>
      <trkpt lat="43.54811" lon="3.75106">
        <ele>41.6</ele>
        <time>2021-04-13T08:03:04Z</time>
      </trkpt>
      <trkpt lat="43.54808" lon="3.75102">
        <ele>41.4</ele>
        <time>2021-04-13T08:03:05Z</time>
      </trkpt>
      <trkpt lat="43.54805" lon="3.75099">
        <ele>41.4</ele>
        <time>2021-04-13T08:03:06Z</time>
      </trkpt>
      <trkpt lat="43.54802" lon="3.75096">
        <ele>41.4</ele>
        <time>2021-04-13T08:03:07Z</time>
      </trkpt>
      <trkpt lat="43.54801" lon="3.75094">
        <ele>41.4</ele>
        <time>2021-04-13T08:03:08Z</time>
      </trkpt>
      <trkpt lat="43.54799" lon="3.75092">
        <ele>41.4</ele>
        <time>2021-04-13T08:03:09Z</time>
      </trkpt>
      <trkpt lat="43.54796" lon="3.75089">
        <ele>41.4</ele>
        <time>2021-04-13T08:03:10Z</time>
      </trkpt>
      <trkpt lat="43.54793" lon="3.75087">
        <ele>41.4</ele>
        <time>2021-04-13T08:03:11Z</time>
      </trkpt>
      <trkpt lat="43.5479" lon="3.75083">
        <ele>41.6</ele>
        <time>2021-04-13T08:03:12Z</time>
      </trkpt>
      <trkpt lat="43.54787" lon="3.75079">
        <ele>41.6</ele>
        <time>2021-04-13T08:03:13Z</time>
      </trkpt>
      <trkpt lat="43.54784" lon="3.75075">
        <ele>41.8</ele>
        <time>2021-04-13T08:03:14Z</time>
      </trkpt>
      <trkpt lat="43.54781" lon="3.75072">
        <ele>41.8</ele>
        <time>2021-04-13T08:03:15Z</time>
      </trkpt>
      <trkpt lat="43.54778" lon="3.75066">
        <ele>42</ele>
        <time>2021-04-13T08:03:16Z</time>
      </trkpt>
      <trkpt lat="43.54775" lon="3.75062">
        <ele>42</ele>
        <time>2021-04-13T08:03:17Z</time>
      </trkpt>
      <trkpt lat="43.54773" lon="3.75059">
        <ele>42</ele>
        <time>2021-04-13T08:03:18Z</time>
      </trkpt>
      <trkpt lat="43.5477" lon="3.75056">
        <ele>41.8</ele>
        <time>2021-04-13T08:03:19Z</time>
      </trkpt>
      <trkpt lat="43.54769" lon="3.75053">
        <ele>42</ele>
        <time>2021-04-13T08:03:20Z</time>
      </trkpt>
      <trkpt lat="43.54767" lon="3.75052">
        <ele>42</ele>
        <time>2021-04-13T08:03:21Z</time>
      </trkpt>
      <trkpt lat="43.54764" lon="3.75047">
        <ele>42</ele>
        <time>2021-04-13T08:03:22Z</time>
      </trkpt>
      <trkpt lat="43.54762" lon="3.75045">
        <ele>42</ele>
        <time>2021-04-13T08:03:23Z</time>
      </trkpt>
      <trkpt lat="43.5476" lon="3.75043">
        <ele>42</ele>
        <time>2021-04-13T08:03:24Z</time>
      </trkpt>
      <trkpt lat="43.54757" lon="3.75039">
        <ele>42</ele>
        <time>2021-04-13T08:03:25Z</time>
      </trkpt>
      <trkpt lat="43.54753" lon="3.75036">
        <ele>42</ele>
        <time>2021-04-13T08:03:26Z</time>
      </trkpt>
      <trkpt lat="43.54751" lon="3.75032">
        <ele>42</ele>
        <time>2021-04-13T08:03:27Z</time>
      </trkpt>
      <trkpt lat="43.54748" lon="3.75029">
        <ele>42</ele>
        <time>2021-04-13T08:03:28Z</time>
      </trkpt>
      <trkpt lat="43.54745" lon="3.75026">
        <ele>42</ele>
        <time>2021-04-13T08:03:29Z</time>
      </trkpt>
      <trkpt lat="43.54743" lon="3.75024">
        <ele>42</ele>
        <time>2021-04-13T08:03:30Z</time>
      </trkpt>
      <trkpt lat="43.5474" lon="3.75021">
        <ele>42</ele>
        <time>2021-04-13T08:03:31Z</time>
      </trkpt>
      <trkpt lat="43.54738" lon="3.75018">
        <ele>42.2</ele>
        <time>2021-04-13T08:03:32Z</time>
      </trkpt>
      <trkpt lat="43.54734" lon="3.75015">
        <ele>42.2</ele>
        <time>2021-04-13T08:03:33Z</time>
      </trkpt>
      <trkpt lat="43.54732" lon="3.75011">
        <ele>42.2</ele>
        <time>2021-04-13T08:03:34Z</time>
      </trkpt>
      <trkpt lat="43.54728" lon="3.75006">
        <ele>42.4</ele>
        <time>2021-04-13T08:03:35Z</time>
      </trkpt>
      <trkpt lat="43.54726" lon="3.75001">
        <ele>42.4</ele>
        <time>2021-04-13T08:03:36Z</time>
      </trkpt>
      <trkpt lat="43.54723" lon="3.74997">
        <ele>42.4</ele>
        <time>2021-04-13T08:03:37Z</time>
      </trkpt>
      <trkpt lat="43.54721" lon="3.74994">
        <ele>42.4</ele>
        <time>2021-04-13T08:03:38Z</time>
      </trkpt>
      <trkpt lat="43.54718" lon="3.7499">
        <ele>42.2</ele>
        <time>2021-04-13T08:03:39Z</time>
      </trkpt>
      <trkpt lat="43.54717" lon="3.74987">
        <ele>42.2</ele>
        <time>2021-04-13T08:03:40Z</time>
      </trkpt>
      <trkpt lat="43.54715" lon="3.74984">
        <ele>42.4</ele>
        <time>2021-04-13T08:03:41Z</time>
      </trkpt>
      <trkpt lat="43.54713" lon="3.74978">
        <ele>42.4</ele>
        <time>2021-04-13T08:03:42Z</time>
      </trkpt>
      <trkpt lat="43.5471" lon="3.74976">
        <ele>42.6</ele>
        <time>2021-04-13T08:03:43Z</time>
      </trkpt>
      <trkpt lat="43.54707" lon="3.74972">
        <ele>42.4</ele>
        <time>2021-04-13T08:03:44Z</time>
      </trkpt>
      <trkpt lat="43.54704" lon="3.74967">
        <ele>42.4</ele>
        <time>2021-04-13T08:03:45Z</time>
      </trkpt>
      <trkpt lat="43.54701" lon="3.74963">
        <ele>42.6</ele>
        <time>2021-04-13T08:03:46Z</time>
      </trkpt>
      <trkpt lat="43.54699" lon="3.74959">
        <ele>42.6</ele>
        <time>2021-04-13T08:03:47Z</time>
      </trkpt>
      <trkpt lat="43.54697" lon="3.74955">
        <ele>42.8</ele>
        <time>2021-04-13T08:03:48Z</time>
      </trkpt>
      <trkpt lat="43.54694" lon="3.7495">
        <ele>42.8</ele>
        <time>2021-04-13T08:03:49Z</time>
      </trkpt>
      <trkpt lat="43.54691" lon="3.74945">
        <ele>43</ele>
        <time>2021-04-13T08:03:50Z</time>
      </trkpt>
      <trkpt lat="43.54688" lon="3.74941">
        <ele>43</ele>
        <time>2021-04-13T08:03:51Z</time>
      </trkpt>
      <trkpt lat="43.54685" lon="3.74937">
        <ele>43</ele>
        <time>2021-04-13T08:03:52Z</time>
      </trkpt>
      <trkpt lat="43.54683" lon="3.74934">
        <ele>43</ele>
        <time>2021-04-13T08:03:53Z</time>
      </trkpt>
      <trkpt lat="43.5468" lon="3.74931">
        <ele>43.2</ele>
        <time>2021-04-13T08:03:54Z</time>
      </trkpt>
      <trkpt lat="43.54678" lon="3.74927">
        <ele>43</ele>
        <time>2021-04-13T08:03:55Z</time>
      </trkpt>
      <trkpt lat="43.54676" lon="3.74924">
        <ele>43</ele>
        <time>2021-04-13T08:03:56Z</time>
      </trkpt>
      <trkpt lat="43.54673" lon="3.74921">
        <ele>43</ele>
        <time>2021-04-13T08:03:57Z</time>
      </trkpt>
      <trkpt lat="43.54671" lon="3.74917">
        <ele>43</ele>
        <time>2021-04-13T08:03:58Z</time>
      </trkpt>
      <trkpt lat="43.54668" lon="3.74913">
        <ele>43.2</ele>
        <time>2021-04-13T08:03:59Z</time>
      </trkpt>
      <trkpt lat="43.54666" lon="3.74909">
        <ele>43.4</ele>
        <time>2021-04-13T08:04:00Z</time>
      </trkpt>
      <trkpt lat="43.54663" lon="3.74906">
        <ele>43.6</ele>
        <time>2021-04-13T08:04:01Z</time>
      </trkpt>
      <trkpt lat="43.54661" lon="3.74901">
        <ele>43.6</ele>
        <time>2021-04-13T08:04:02Z</time>
      </trkpt>
      <trkpt lat="43.54658" lon="3.74897">
        <ele>43.6</ele>
        <time>2021-04-13T08:04:03Z</time>
      </trkpt>
      <trkpt lat="43.54655" lon="3.74892">
        <ele>43.8</ele>
        <time>2021-04-13T08:04:04Z</time>
      </trkpt>
      <trkpt lat="43.54653" lon="3.74889">
        <ele>43.8</ele>
        <time>2021-04-13T08:04:05Z</time>
      </trkpt>
      <trkpt lat="43.5465" lon="3.74885">
        <ele>43.8</ele>
        <time>2021-04-13T08:04:06Z</time>
      </trkpt>
      <trkpt lat="43.54647" lon="3.74882">
        <ele>44</ele>
        <time>2021-04-13T08:04:07Z</time>
      </trkpt>
      <trkpt lat="43.54645" lon="3.74879">
        <ele>44</ele>
        <time>2021-04-13T08:04:08Z</time>
      </trkpt>
      <trkpt lat="43.54642" lon="3.74877">
        <ele>44.2</ele>
        <time>2021-04-13T08:04:09Z</time>
      </trkpt>
      <trkpt lat="43.5464" lon="3.74873">
        <ele>44.2</ele>
        <time>2021-04-13T08:04:10Z</time>
      </trkpt>
      <trkpt lat="43.54638" lon="3.7487">
        <ele>44.4</ele>
        <time>2021-04-13T08:04:11Z</time>
      </trkpt>
      <trkpt lat="43.54636" lon="3.74864">
        <ele>44.6</ele>
        <time>2021-04-13T08:04:12Z</time>
      </trkpt>
      <trkpt lat="43.5463" lon="3.74856">
        <ele>44.6</ele>
        <time>2021-04-13T08:04:14Z</time>
      </trkpt>
      <trkpt lat="43.54628" lon="3.74853">
        <ele>44.8</ele>
        <time>2021-04-13T08:04:15Z</time>
      </trkpt>
      <trkpt lat="43.54625" lon="3.7485">
        <ele>45</ele>
        <time>2021-04-13T08:04:16Z</time>
      </trkpt>
      <trkpt lat="43.54622" lon="3.74847">
        <ele>45</ele>
        <time>2021-04-13T08:04:17Z</time>
      </trkpt>
      <trkpt lat="43.5462" lon="3.74843">
        <ele>45.2</ele>
        <time>2021-04-13T08:04:18Z</time>
      </trkpt>
      <trkpt lat="43.54618" lon="3.74838">
        <ele>45.2</ele>
        <time>2021-04-13T08:04:19Z</time>
      </trkpt>
      <trkpt lat="43.54616" lon="3.74834">
        <ele>45.4</ele>
        <time>2021-04-13T08:04:20Z</time>
      </trkpt>
      <trkpt lat="43.54612" lon="3.74828">
        <ele>45.4</ele>
        <time>2021-04-13T08:04:22Z</time>
      </trkpt>
      <trkpt lat="43.54609" lon="3.74824">
        <ele>45.6</ele>
        <time>2021-04-13T08:04:23Z</time>
      </trkpt>
      <trkpt lat="43.54607" lon="3.74821">
        <ele>45.6</ele>
        <time>2021-04-13T08:04:24Z</time>
      </trkpt>
      <trkpt lat="43.54603" lon="3.74818">
        <ele>45.8</ele>
        <time>2021-04-13T08:04:25Z</time>
      </trkpt>
      <trkpt lat="43.546" lon="3.74816">
        <ele>46</ele>
        <time>2021-04-13T08:04:26Z</time>
      </trkpt>
      <trkpt lat="43.54597" lon="3.74814">
        <ele>46</ele>
        <time>2021-04-13T08:04:27Z</time>
      </trkpt>
      <trkpt lat="43.54595" lon="3.74811">
        <ele>46.2</ele>
        <time>2021-04-13T08:04:28Z</time>
      </trkpt>
      <trkpt lat="43.54593" lon="3.74808">
        <ele>46.2</ele>
        <time>2021-04-13T08:04:29Z</time>
      </trkpt>
      <trkpt lat="43.54588" lon="3.74802">
        <ele>46.6</ele>
        <time>2021-04-13T08:04:31Z</time>
      </trkpt>
      <trkpt lat="43.54586" lon="3.748">
        <ele>46.8</ele>
        <time>2021-04-13T08:04:32Z</time>
      </trkpt>
      <trkpt lat="43.54582" lon="3.74793">
        <ele>47.2</ele>
        <time>2021-04-13T08:04:34Z</time>
      </trkpt>
      <trkpt lat="43.5458" lon="3.74789">
        <ele>47.4</ele>
        <time>2021-04-13T08:04:35Z</time>
      </trkpt>
      <trkpt lat="43.54577" lon="3.74786">
        <ele>47.4</ele>
        <time>2021-04-13T08:04:36Z</time>
      </trkpt>
      <trkpt lat="43.54574" lon="3.74782">
        <ele>47.6</ele>
        <time>2021-04-13T08:04:37Z</time>
      </trkpt>
      <trkpt lat="43.54572" lon="3.74779">
        <ele>47.8</ele>
        <time>2021-04-13T08:04:38Z</time>
      </trkpt>
      <trkpt lat="43.54569" lon="3.74775">
        <ele>48</ele>
        <time>2021-04-13T08:04:39Z</time>
      </trkpt>
      <trkpt lat="43.54567" lon="3.74772">
        <ele>48.2</ele>
        <time>2021-04-13T08:04:40Z</time>
      </trkpt>
      <trkpt lat="43.54564" lon="3.74766">
        <ele>48.2</ele>
        <time>2021-04-13T08:04:41Z</time>
      </trkpt>
      <trkpt lat="43.54562" lon="3.74763">
        <ele>48.2</ele>
        <time>2021-04-13T08:04:42Z</time>
      </trkpt>
      <trkpt lat="43.54559" lon="3.74759">
        <ele>48.2</ele>
        <time>2021-04-13T08:04:43Z</time>
      </trkpt>
      <trkpt lat="43.54556" lon="3.74755">
        <ele>48.2</ele>
        <time>2021-04-13T08:04:44Z</time>
      </trkpt>
      <trkpt lat="43.54553" lon="3.74751">
        <ele>48.2</ele>
        <time>2021-04-13T08:04:45Z</time>
      </trkpt>
      <trkpt lat="43.5455" lon="3.74746">
        <ele>48.2</ele>
        <time>2021-04-13T08:04:46Z</time>
      </trkpt>
      <trkpt lat="43.54548" lon="3.74741">
        <ele>48.2</ele>
        <time>2021-04-13T08:04:47Z</time>
      </trkpt>
      <trkpt lat="43.54545" lon="3.74737">
        <ele>48.2</ele>
        <time>2021-04-13T08:04:48Z</time>
      </trkpt>
      <trkpt lat="43.54542" lon="3.74732">
        <ele>48</ele>
        <time>2021-04-13T08:04:49Z</time>
      </trkpt>
      <trkpt lat="43.54539" lon="3.74728">
        <ele>48</ele>
        <time>2021-04-13T08:04:50Z</time>
      </trkpt>
      <trkpt lat="43.54536" lon="3.74724">
        <ele>48</ele>
        <time>2021-04-13T08:04:51Z</time>
      </trkpt>
      <trkpt lat="43.54532" lon="3.74719">
        <ele>48</ele>
        <time>2021-04-13T08:04:52Z</time>
      </trkpt>
      <trkpt lat="43.54529" lon="3.74715">
        <ele>48</ele>
        <time>2021-04-13T08:04:53Z</time>
      </trkpt>
      <trkpt lat="43.54525" lon="3.7471">
        <ele>47.8</ele>
        <time>2021-04-13T08:04:54Z</time>
      </trkpt>
      <trkpt lat="43.54521" lon="3.74705">
        <ele>47.8</ele>
        <time>2021-04-13T08:04:55Z</time>
      </trkpt>
      <trkpt lat="43.54518" lon="3.747">
        <ele>47.8</ele>
        <time>2021-04-13T08:04:56Z</time>
      </trkpt>
      <trkpt lat="43.54515" lon="3.74694">
        <ele>47.8</ele>
        <time>2021-04-13T08:04:57Z</time>
      </trkpt>
      <trkpt lat="43.54512" lon="3.74688">
        <ele>47.8</ele>
        <time>2021-04-13T08:04:58Z</time>
      </trkpt>
      <trkpt lat="43.54509" lon="3.74682">
        <ele>47.8</ele>
        <time>2021-04-13T08:04:59Z</time>
      </trkpt>
      <trkpt lat="43.54505" lon="3.74676">
        <ele>47.8</ele>
        <time>2021-04-13T08:05:00Z</time>
      </trkpt>
      <trkpt lat="43.54502" lon="3.74669">
        <ele>47.8</ele>
        <time>2021-04-13T08:05:01Z</time>
      </trkpt>
      <trkpt lat="43.54498" lon="3.74663">
        <ele>47.8</ele>
        <time>2021-04-13T08:05:02Z</time>
      </trkpt>
      <trkpt lat="43.54495" lon="3.74657">
        <ele>47.8</ele>
        <time>2021-04-13T08:05:03Z</time>
      </trkpt>
      <trkpt lat="43.54492" lon="3.74651">
        <ele>48</ele>
        <time>2021-04-13T08:05:04Z</time>
      </trkpt>
      <trkpt lat="43.54489" lon="3.74645">
        <ele>47.8</ele>
        <time>2021-04-13T08:05:05Z</time>
      </trkpt>
      <trkpt lat="43.54485" lon="3.74639">
        <ele>47.8</ele>
        <time>2021-04-13T08:05:06Z</time>
      </trkpt>
      <trkpt lat="43.54482" lon="3.74633">
        <ele>47.8</ele>
        <time>2021-04-13T08:05:07Z</time>
      </trkpt>
      <trkpt lat="43.54479" lon="3.74627">
        <ele>47.6</ele>
        <time>2021-04-13T08:05:08Z</time>
      </trkpt>
      <trkpt lat="43.54476" lon="3.74621">
        <ele>47.8</ele>
        <time>2021-04-13T08:05:09Z</time>
      </trkpt>
      <trkpt lat="43.54473" lon="3.74615">
        <ele>48</ele>
        <time>2021-04-13T08:05:10Z</time>
      </trkpt>
      <trkpt lat="43.5447" lon="3.74609">
        <ele>48</ele>
        <time>2021-04-13T08:05:11Z</time>
      </trkpt>
      <trkpt lat="43.54467" lon="3.74603">
        <ele>48</ele>
        <time>2021-04-13T08:05:12Z</time>
      </trkpt>
      <trkpt lat="43.54463" lon="3.74596">
        <ele>47.8</ele>
        <time>2021-04-13T08:05:13Z</time>
      </trkpt>
      <trkpt lat="43.5446" lon="3.7459">
        <ele>47.6</ele>
        <time>2021-04-13T08:05:14Z</time>
      </trkpt>
      <trkpt lat="43.54457" lon="3.74585">
        <ele>47.2</ele>
        <time>2021-04-13T08:05:15Z</time>
      </trkpt>
      <trkpt lat="43.54454" lon="3.74579">
        <ele>47.4</ele>
        <time>2021-04-13T08:05:16Z</time>
      </trkpt>
      <trkpt lat="43.54451" lon="3.74573">
        <ele>47.4</ele>
        <time>2021-04-13T08:05:17Z</time>
      </trkpt>
      <trkpt lat="43.54449" lon="3.74568">
        <ele>47.4</ele>
        <time>2021-04-13T08:05:18Z</time>
      </trkpt>
      <trkpt lat="43.54446" lon="3.74562">
        <ele>47.4</ele>
        <time>2021-04-13T08:05:19Z</time>
      </trkpt>
      <trkpt lat="43.54443" lon="3.74556">
        <ele>47.6</ele>
        <time>2021-04-13T08:05:20Z</time>
      </trkpt>
      <trkpt lat="43.54441" lon="3.74551">
        <ele>47.6</ele>
        <time>2021-04-13T08:05:21Z</time>
      </trkpt>
      <trkpt lat="43.54438" lon="3.74546">
        <ele>47.4</ele>
        <time>2021-04-13T08:05:22Z</time>
      </trkpt>
      <trkpt lat="43.54435" lon="3.74541">
        <ele>47.4</ele>
        <time>2021-04-13T08:05:23Z</time>
      </trkpt>
      <trkpt lat="43.54432" lon="3.74536">
        <ele>47.4</ele>
        <time>2021-04-13T08:05:24Z</time>
      </trkpt>
      <trkpt lat="43.5443" lon="3.74531">
        <ele>47.6</ele>
        <time>2021-04-13T08:05:25Z</time>
      </trkpt>
      <trkpt lat="43.54427" lon="3.74526">
        <ele>47.4</ele>
        <time>2021-04-13T08:05:26Z</time>
      </trkpt>
      <trkpt lat="43.54424" lon="3.74522">
        <ele>47.4</ele>
        <time>2021-04-13T08:05:27Z</time>
      </trkpt>
      <trkpt lat="43.54421" lon="3.74517">
        <ele>47.4</ele>
        <time>2021-04-13T08:05:28Z</time>
      </trkpt>
      <trkpt lat="43.54418" lon="3.74512">
        <ele>47.4</ele>
        <time>2021-04-13T08:05:29Z</time>
      </trkpt>
      <trkpt lat="43.54415" lon="3.74507">
        <ele>47.4</ele>
        <time>2021-04-13T08:05:30Z</time>
      </trkpt>
      <trkpt lat="43.54412" lon="3.74503">
        <ele>47.4</ele>
        <time>2021-04-13T08:05:31Z</time>
      </trkpt>
      <trkpt lat="43.54407" lon="3.74493">
        <ele>47.4</ele>
        <time>2021-04-13T08:05:33Z</time>
      </trkpt>
      <trkpt lat="43.54404" lon="3.74488">
        <ele>47.4</ele>
        <time>2021-04-13T08:05:34Z</time>
      </trkpt>
      <trkpt lat="43.54401" lon="3.74483">
        <ele>47.4</ele>
        <time>2021-04-13T08:05:35Z</time>
      </trkpt>
      <trkpt lat="43.54398" lon="3.74479">
        <ele>47.2</ele>
        <time>2021-04-13T08:05:36Z</time>
      </trkpt>
      <trkpt lat="43.54395" lon="3.74474">
        <ele>47.2</ele>
        <time>2021-04-13T08:05:37Z</time>
      </trkpt>
      <trkpt lat="43.54392" lon="3.74469">
        <ele>47.2</ele>
        <time>2021-04-13T08:05:38Z</time>
      </trkpt>
      <trkpt lat="43.5439" lon="3.74465">
        <ele>47.2</ele>
        <time>2021-04-13T08:05:39Z</time>
      </trkpt>
      <trkpt lat="43.54387" lon="3.7446">
        <ele>47.2</ele>
        <time>2021-04-13T08:05:40Z</time>
      </trkpt>
      <trkpt lat="43.54384" lon="3.74456">
        <ele>47.2</ele>
        <time>2021-04-13T08:05:41Z</time>
      </trkpt>
      <trkpt lat="43.54382" lon="3.74452">
        <ele>47</ele>
        <time>2021-04-13T08:05:42Z</time>
      </trkpt>
      <trkpt lat="43.54377" lon="3.74446">
        <ele>47.2</ele>
        <time>2021-04-13T08:05:44Z</time>
      </trkpt>
      <trkpt lat="43.54375" lon="3.74445">
        <ele>47.6</ele>
        <time>2021-04-13T08:05:45Z</time>
      </trkpt>
      <trkpt lat="43.54373" lon="3.74443">
        <ele>47.6</ele>
        <time>2021-04-13T08:05:46Z</time>
      </trkpt>
      <trkpt lat="43.54371" lon="3.74442">
        <ele>47.8</ele>
        <time>2021-04-13T08:05:47Z</time>
      </trkpt>
      <trkpt lat="43.5437" lon="3.74441">
        <ele>47.8</ele>
        <time>2021-04-13T08:05:48Z</time>
      </trkpt>
      <trkpt lat="43.54368" lon="3.74439">
        <ele>47.8</ele>
        <time>2021-04-13T08:05:49Z</time>
      </trkpt>
      <trkpt lat="43.54363" lon="3.74435">
        <ele>47.8</ele>
        <time>2021-04-13T08:05:51Z</time>
      </trkpt>
      <trkpt lat="43.5436" lon="3.74432">
        <ele>47.6</ele>
        <time>2021-04-13T08:05:52Z</time>
      </trkpt>
      <trkpt lat="43.54356" lon="3.74425">
        <ele>47.4</ele>
        <time>2021-04-13T08:05:54Z</time>
      </trkpt>
      <trkpt lat="43.54353" lon="3.74421">
        <ele>47.2</ele>
        <time>2021-04-13T08:05:55Z</time>
      </trkpt>
      <trkpt lat="43.54351" lon="3.74417">
        <ele>47.2</ele>
        <time>2021-04-13T08:05:56Z</time>
      </trkpt>
      <trkpt lat="43.54348" lon="3.74412">
        <ele>47.4</ele>
        <time>2021-04-13T08:05:57Z</time>
      </trkpt>
      <trkpt lat="43.54346" lon="3.74407">
        <ele>47.4</ele>
        <time>2021-04-13T08:05:58Z</time>
      </trkpt>
      <trkpt lat="43.54344" lon="3.74403">
        <ele>47.2</ele>
        <time>2021-04-13T08:05:59Z</time>
      </trkpt>
      <trkpt lat="43.54341" lon="3.74398">
        <ele>47.2</ele>
        <time>2021-04-13T08:06:00Z</time>
      </trkpt>
      <trkpt lat="43.54338" lon="3.74393">
        <ele>47</ele>
        <time>2021-04-13T08:06:01Z</time>
      </trkpt>
      <trkpt lat="43.54336" lon="3.74388">
        <ele>47</ele>
        <time>2021-04-13T08:06:02Z</time>
      </trkpt>
      <trkpt lat="43.54333" lon="3.74383">
        <ele>47.2</ele>
        <time>2021-04-13T08:06:03Z</time>
      </trkpt>
      <trkpt lat="43.5433" lon="3.74378">
        <ele>47.4</ele>
        <time>2021-04-13T08:06:04Z</time>
      </trkpt>
      <trkpt lat="43.54327" lon="3.74373">
        <ele>47.6</ele>
        <time>2021-04-13T08:06:05Z</time>
      </trkpt>
      <trkpt lat="43.54325" lon="3.74368">
        <ele>47.6</ele>
        <time>2021-04-13T08:06:06Z</time>
      </trkpt>
      <trkpt lat="43.54319" lon="3.74359">
        <ele>47.6</ele>
        <time>2021-04-13T08:06:08Z</time>
      </trkpt>
      <trkpt lat="43.54316" lon="3.74354">
        <ele>47.6</ele>
        <time>2021-04-13T08:06:09Z</time>
      </trkpt>
      <trkpt lat="43.5431" lon="3.74343">
        <ele>47.8</ele>
        <time>2021-04-13T08:06:11Z</time>
      </trkpt>
      <trkpt lat="43.54307" lon="3.74338">
        <ele>47.8</ele>
        <time>2021-04-13T08:06:12Z</time>
      </trkpt>
      <trkpt lat="43.54304" lon="3.74333">
        <ele>47.8</ele>
        <time>2021-04-13T08:06:13Z</time>
      </trkpt>
      <trkpt lat="43.54299" lon="3.74324">
        <ele>48</ele>
        <time>2021-04-13T08:06:15Z</time>
      </trkpt>
      <trkpt lat="43.54296" lon="3.7432">
        <ele>48</ele>
        <time>2021-04-13T08:06:16Z</time>
      </trkpt>
      <trkpt lat="43.54293" lon="3.74315">
        <ele>48</ele>
        <time>2021-04-13T08:06:17Z</time>
      </trkpt>
      <trkpt lat="43.5429" lon="3.74311">
        <ele>48.2</ele>
        <time>2021-04-13T08:06:18Z</time>
      </trkpt>
      <trkpt lat="43.54287" lon="3.74306">
        <ele>48.2</ele>
        <time>2021-04-13T08:06:19Z</time>
      </trkpt>
      <trkpt lat="43.54284" lon="3.74302">
        <ele>48.2</ele>
        <time>2021-04-13T08:06:20Z</time>
      </trkpt>
      <trkpt lat="43.54281" lon="3.74297">
        <ele>48.2</ele>
        <time>2021-04-13T08:06:21Z</time>
      </trkpt>
      <trkpt lat="43.54278" lon="3.74292">
        <ele>48.2</ele>
        <time>2021-04-13T08:06:22Z</time>
      </trkpt>
      <trkpt lat="43.54275" lon="3.74287">
        <ele>48.2</ele>
        <time>2021-04-13T08:06:23Z</time>
      </trkpt>
      <trkpt lat="43.54272" lon="3.74283">
        <ele>48.2</ele>
        <time>2021-04-13T08:06:24Z</time>
      </trkpt>
      <trkpt lat="43.54268" lon="3.74278">
        <ele>48.2</ele>
        <time>2021-04-13T08:06:25Z</time>
      </trkpt>
      <trkpt lat="43.54265" lon="3.74273">
        <ele>48.2</ele>
        <time>2021-04-13T08:06:26Z</time>
      </trkpt>
      <trkpt lat="43.54262" lon="3.74269">
        <ele>48.2</ele>
        <time>2021-04-13T08:06:27Z</time>
      </trkpt>
      <trkpt lat="43.54259" lon="3.74264">
        <ele>48.2</ele>
        <time>2021-04-13T08:06:28Z</time>
      </trkpt>
      <trkpt lat="43.54256" lon="3.7426">
        <ele>48.2</ele>
        <time>2021-04-13T08:06:29Z</time>
      </trkpt>
      <trkpt lat="43.54253" lon="3.74255">
        <ele>48.4</ele>
        <time>2021-04-13T08:06:30Z</time>
      </trkpt>
      <trkpt lat="43.5425" lon="3.74251">
        <ele>48.4</ele>
        <time>2021-04-13T08:06:31Z</time>
      </trkpt>
      <trkpt lat="43.54247" lon="3.74246">
        <ele>48.2</ele>
        <time>2021-04-13T08:06:32Z</time>
      </trkpt>
      <trkpt lat="43.54244" lon="3.74241">
        <ele>48.4</ele>
        <time>2021-04-13T08:06:33Z</time>
      </trkpt>
      <trkpt lat="43.54241" lon="3.74236">
        <ele>48.4</ele>
        <time>2021-04-13T08:06:34Z</time>
      </trkpt>
      <trkpt lat="43.54236" lon="3.74226">
        <ele>48.4</ele>
        <time>2021-04-13T08:06:36Z</time>
      </trkpt>
      <trkpt lat="43.54233" lon="3.74221">
        <ele>48.6</ele>
        <time>2021-04-13T08:06:37Z</time>
      </trkpt>
      <trkpt lat="43.5423" lon="3.74216">
        <ele>48.6</ele>
        <time>2021-04-13T08:06:38Z</time>
      </trkpt>
      <trkpt lat="43.54225" lon="3.74206">
        <ele>48.4</ele>
        <time>2021-04-13T08:06:40Z</time>
      </trkpt>
      <trkpt lat="43.54223" lon="3.74201">
        <ele>48.6</ele>
        <time>2021-04-13T08:06:41Z</time>
      </trkpt>
      <trkpt lat="43.5422" lon="3.74196">
        <ele>48.4</ele>
        <time>2021-04-13T08:06:42Z</time>
      </trkpt>
      <trkpt lat="43.54215" lon="3.74186">
        <ele>48.6</ele>
        <time>2021-04-13T08:06:44Z</time>
      </trkpt>
      <trkpt lat="43.54212" lon="3.74181">
        <ele>48.8</ele>
        <time>2021-04-13T08:06:45Z</time>
      </trkpt>
      <trkpt lat="43.54209" lon="3.74176">
        <ele>48.8</ele>
        <time>2021-04-13T08:06:46Z</time>
      </trkpt>
      <trkpt lat="43.54207" lon="3.74171">
        <ele>49</ele>
        <time>2021-04-13T08:06:47Z</time>
      </trkpt>
      <trkpt lat="43.54204" lon="3.74166">
        <ele>49</ele>
        <time>2021-04-13T08:06:48Z</time>
      </trkpt>
      <trkpt lat="43.54201" lon="3.74162">
        <ele>49</ele>
        <time>2021-04-13T08:06:49Z</time>
      </trkpt>
      <trkpt lat="43.54198" lon="3.74157">
        <ele>49</ele>
        <time>2021-04-13T08:06:50Z</time>
      </trkpt>
      <trkpt lat="43.54195" lon="3.74152">
        <ele>49</ele>
        <time>2021-04-13T08:06:51Z</time>
      </trkpt>
      <trkpt lat="43.54192" lon="3.74148">
        <ele>49</ele>
        <time>2021-04-13T08:06:52Z</time>
      </trkpt>
      <trkpt lat="43.54189" lon="3.74143">
        <ele>49</ele>
        <time>2021-04-13T08:06:53Z</time>
      </trkpt>
      <trkpt lat="43.54187" lon="3.74138">
        <ele>49</ele>
        <time>2021-04-13T08:06:54Z</time>
      </trkpt>
      <trkpt lat="43.54184" lon="3.74133">
        <ele>49.2</ele>
        <time>2021-04-13T08:06:55Z</time>
      </trkpt>
      <trkpt lat="43.54181" lon="3.74128">
        <ele>49.2</ele>
        <time>2021-04-13T08:06:56Z</time>
      </trkpt>
      <trkpt lat="43.54178" lon="3.74124">
        <ele>49.4</ele>
        <time>2021-04-13T08:06:57Z</time>
      </trkpt>
      <trkpt lat="43.54176" lon="3.74119">
        <ele>49.6</ele>
        <time>2021-04-13T08:06:58Z</time>
      </trkpt>
      <trkpt lat="43.54173" lon="3.74114">
        <ele>49.4</ele>
        <time>2021-04-13T08:06:59Z</time>
      </trkpt>
      <trkpt lat="43.5417" lon="3.7411">
        <ele>49.6</ele>
        <time>2021-04-13T08:07:00Z</time>
      </trkpt>
      <trkpt lat="43.54164" lon="3.741">
        <ele>49.6</ele>
        <time>2021-04-13T08:07:02Z</time>
      </trkpt>
      <trkpt lat="43.54161" lon="3.74095">
        <ele>49.8</ele>
        <time>2021-04-13T08:07:03Z</time>
      </trkpt>
      <trkpt lat="43.54159" lon="3.7409">
        <ele>49.8</ele>
        <time>2021-04-13T08:07:04Z</time>
      </trkpt>
      <trkpt lat="43.54156" lon="3.74085">
        <ele>49.8</ele>
        <time>2021-04-13T08:07:05Z</time>
      </trkpt>
      <trkpt lat="43.54153" lon="3.74081">
        <ele>49.8</ele>
        <time>2021-04-13T08:07:06Z</time>
      </trkpt>
      <trkpt lat="43.5415" lon="3.74076">
        <ele>50</ele>
        <time>2021-04-13T08:07:07Z</time>
      </trkpt>
      <trkpt lat="43.54148" lon="3.74071">
        <ele>50</ele>
        <time>2021-04-13T08:07:08Z</time>
      </trkpt>
      <trkpt lat="43.54143" lon="3.74062">
        <ele>50</ele>
        <time>2021-04-13T08:07:10Z</time>
      </trkpt>
      <trkpt lat="43.5414" lon="3.74057">
        <ele>50</ele>
        <time>2021-04-13T08:07:11Z</time>
      </trkpt>
      <trkpt lat="43.54138" lon="3.74053">
        <ele>50.2</ele>
        <time>2021-04-13T08:07:12Z</time>
      </trkpt>
      <trkpt lat="43.54135" lon="3.74049">
        <ele>50</ele>
        <time>2021-04-13T08:07:13Z</time>
      </trkpt>
      <trkpt lat="43.54131" lon="3.74045">
        <ele>50.2</ele>
        <time>2021-04-13T08:07:14Z</time>
      </trkpt>
      <trkpt lat="43.54127" lon="3.74041">
        <ele>50.2</ele>
        <time>2021-04-13T08:07:15Z</time>
      </trkpt>
      <trkpt lat="43.54124" lon="3.74037">
        <ele>50.2</ele>
        <time>2021-04-13T08:07:16Z</time>
      </trkpt>
      <trkpt lat="43.5412" lon="3.74033">
        <ele>50.4</ele>
        <time>2021-04-13T08:07:17Z</time>
      </trkpt>
      <trkpt lat="43.54117" lon="3.74029">
        <ele>50.2</ele>
        <time>2021-04-13T08:07:18Z</time>
      </trkpt>
      <trkpt lat="43.54113" lon="3.74025">
        <ele>50.2</ele>
        <time>2021-04-13T08:07:19Z</time>
      </trkpt>
      <trkpt lat="43.5411" lon="3.7402">
        <ele>50.2</ele>
        <time>2021-04-13T08:07:20Z</time>
      </trkpt>
      <trkpt lat="43.54106" lon="3.74016">
        <ele>50.4</ele>
        <time>2021-04-13T08:07:21Z</time>
      </trkpt>
      <trkpt lat="43.54102" lon="3.74012">
        <ele>50.4</ele>
        <time>2021-04-13T08:07:22Z</time>
      </trkpt>
      <trkpt lat="43.54098" lon="3.74008">
        <ele>50.4</ele>
        <time>2021-04-13T08:07:23Z</time>
      </trkpt>
      <trkpt lat="43.54095" lon="3.74004">
        <ele>50.6</ele>
        <time>2021-04-13T08:07:24Z</time>
      </trkpt>
      <trkpt lat="43.54091" lon="3.74">
        <ele>50.6</ele>
        <time>2021-04-13T08:07:25Z</time>
      </trkpt>
      <trkpt lat="43.54084" lon="3.73992">
        <ele>50.6</ele>
        <time>2021-04-13T08:07:27Z</time>
      </trkpt>
      <trkpt lat="43.5408" lon="3.73987">
        <ele>50.6</ele>
        <time>2021-04-13T08:07:28Z</time>
      </trkpt>
      <trkpt lat="43.54076" lon="3.73983">
        <ele>50.8</ele>
        <time>2021-04-13T08:07:29Z</time>
      </trkpt>
      <trkpt lat="43.54073" lon="3.73979">
        <ele>50.8</ele>
        <time>2021-04-13T08:07:30Z</time>
      </trkpt>
      <trkpt lat="43.54069" lon="3.73975">
        <ele>51</ele>
        <time>2021-04-13T08:07:31Z</time>
      </trkpt>
      <trkpt lat="43.54066" lon="3.7397">
        <ele>50.8</ele>
        <time>2021-04-13T08:07:32Z</time>
      </trkpt>
      <trkpt lat="43.54062" lon="3.73966">
        <ele>50.8</ele>
        <time>2021-04-13T08:07:33Z</time>
      </trkpt>
      <trkpt lat="43.54059" lon="3.73961">
        <ele>50.8</ele>
        <time>2021-04-13T08:07:34Z</time>
      </trkpt>
      <trkpt lat="43.54055" lon="3.73957">
        <ele>50.8</ele>
        <time>2021-04-13T08:07:35Z</time>
      </trkpt>
      <trkpt lat="43.54052" lon="3.73952">
        <ele>50.8</ele>
        <time>2021-04-13T08:07:36Z</time>
      </trkpt>
      <trkpt lat="43.54048" lon="3.73947">
        <ele>51</ele>
        <time>2021-04-13T08:07:37Z</time>
      </trkpt>
      <trkpt lat="43.54045" lon="3.73943">
        <ele>51.2</ele>
        <time>2021-04-13T08:07:38Z</time>
      </trkpt>
      <trkpt lat="43.54041" lon="3.73939">
        <ele>51.2</ele>
        <time>2021-04-13T08:07:39Z</time>
      </trkpt>
      <trkpt lat="43.54038" lon="3.73934">
        <ele>51.2</ele>
        <time>2021-04-13T08:07:40Z</time>
      </trkpt>
      <trkpt lat="43.54035" lon="3.7393">
        <ele>51.2</ele>
        <time>2021-04-13T08:07:41Z</time>
      </trkpt>
      <trkpt lat="43.54032" lon="3.73925">
        <ele>51.2</ele>
        <time>2021-04-13T08:07:42Z</time>
      </trkpt>
      <trkpt lat="43.54026" lon="3.73916">
        <ele>51.2</ele>
        <time>2021-04-13T08:07:44Z</time>
      </trkpt>
      <trkpt lat="43.54022" lon="3.73911">
        <ele>51.2</ele>
        <time>2021-04-13T08:07:45Z</time>
      </trkpt>
      <trkpt lat="43.54019" lon="3.73907">
        <ele>51</ele>
        <time>2021-04-13T08:07:46Z</time>
      </trkpt>
      <trkpt lat="43.54016" lon="3.73902">
        <ele>51</ele>
        <time>2021-04-13T08:07:47Z</time>
      </trkpt>
      <trkpt lat="43.54012" lon="3.73898">
        <ele>51.2</ele>
        <time>2021-04-13T08:07:48Z</time>
      </trkpt>
      <trkpt lat="43.54009" lon="3.73893">
        <ele>51.2</ele>
        <time>2021-04-13T08:07:49Z</time>
      </trkpt>
      <trkpt lat="43.54006" lon="3.73888">
        <ele>51.4</ele>
        <time>2021-04-13T08:07:50Z</time>
      </trkpt>
      <trkpt lat="43.54003" lon="3.73884">
        <ele>51.2</ele>
        <time>2021-04-13T08:07:51Z</time>
      </trkpt>
      <trkpt lat="43.54" lon="3.73879">
        <ele>51.2</ele>
        <time>2021-04-13T08:07:52Z</time>
      </trkpt>
      <trkpt lat="43.53998" lon="3.73874">
        <ele>51.4</ele>
        <time>2021-04-13T08:07:53Z</time>
      </trkpt>
      <trkpt lat="43.53995" lon="3.73869">
        <ele>51.4</ele>
        <time>2021-04-13T08:07:54Z</time>
      </trkpt>
      <trkpt lat="43.53992" lon="3.73865">
        <ele>51.4</ele>
        <time>2021-04-13T08:07:55Z</time>
      </trkpt>
      <trkpt lat="43.53989" lon="3.7386">
        <ele>51.4</ele>
        <time>2021-04-13T08:07:56Z</time>
      </trkpt>
      <trkpt lat="43.53986" lon="3.73855">
        <ele>51.6</ele>
        <time>2021-04-13T08:07:57Z</time>
      </trkpt>
      <trkpt lat="43.53983" lon="3.73851">
        <ele>51.4</ele>
        <time>2021-04-13T08:07:58Z</time>
      </trkpt>
      <trkpt lat="43.5398" lon="3.73847">
        <ele>51.2</ele>
        <time>2021-04-13T08:07:59Z</time>
      </trkpt>
      <trkpt lat="43.53976" lon="3.73843">
        <ele>51.4</ele>
        <time>2021-04-13T08:08:00Z</time>
      </trkpt>
      <trkpt lat="43.53973" lon="3.73838">
        <ele>51.4</ele>
        <time>2021-04-13T08:08:01Z</time>
      </trkpt>
      <trkpt lat="43.5397" lon="3.73834">
        <ele>51.4</ele>
        <time>2021-04-13T08:08:02Z</time>
      </trkpt>
      <trkpt lat="43.53967" lon="3.7383">
        <ele>51.2</ele>
        <time>2021-04-13T08:08:03Z</time>
      </trkpt>
      <trkpt lat="43.53963" lon="3.73825">
        <ele>51.4</ele>
        <time>2021-04-13T08:08:04Z</time>
      </trkpt>
      <trkpt lat="43.5396" lon="3.73821">
        <ele>51.4</ele>
        <time>2021-04-13T08:08:05Z</time>
      </trkpt>
      <trkpt lat="43.53957" lon="3.73816">
        <ele>51.6</ele>
        <time>2021-04-13T08:08:06Z</time>
      </trkpt>
      <trkpt lat="43.53954" lon="3.73811">
        <ele>51.6</ele>
        <time>2021-04-13T08:08:07Z</time>
      </trkpt>
      <trkpt lat="43.53951" lon="3.73807">
        <ele>51.6</ele>
        <time>2021-04-13T08:08:08Z</time>
      </trkpt>
      <trkpt lat="43.53945" lon="3.73798">
        <ele>51.4</ele>
        <time>2021-04-13T08:08:10Z</time>
      </trkpt>
      <trkpt lat="43.53941" lon="3.73794">
        <ele>51.6</ele>
        <time>2021-04-13T08:08:11Z</time>
      </trkpt>
      <trkpt lat="43.53935" lon="3.73787">
        <ele>51.8</ele>
        <time>2021-04-13T08:08:13Z</time>
      </trkpt>
      <trkpt lat="43.53932" lon="3.73783">
        <ele>51.8</ele>
        <time>2021-04-13T08:08:14Z</time>
      </trkpt>
      <trkpt lat="43.53929" lon="3.73779">
        <ele>51.8</ele>
        <time>2021-04-13T08:08:15Z</time>
      </trkpt>
      <trkpt lat="43.53926" lon="3.73774">
        <ele>52</ele>
        <time>2021-04-13T08:08:16Z</time>
      </trkpt>
      <trkpt lat="43.53923" lon="3.7377">
        <ele>52</ele>
        <time>2021-04-13T08:08:17Z</time>
      </trkpt>
      <trkpt lat="43.5392" lon="3.73765">
        <ele>52</ele>
        <time>2021-04-13T08:08:18Z</time>
      </trkpt>
      <trkpt lat="43.53917" lon="3.73761">
        <ele>52</ele>
        <time>2021-04-13T08:08:19Z</time>
      </trkpt>
      <trkpt lat="43.53914" lon="3.73755">
        <ele>52.2</ele>
        <time>2021-04-13T08:08:20Z</time>
      </trkpt>
      <trkpt lat="43.53911" lon="3.7375">
        <ele>52.2</ele>
        <time>2021-04-13T08:08:21Z</time>
      </trkpt>
      <trkpt lat="43.53908" lon="3.73745">
        <ele>51.8</ele>
        <time>2021-04-13T08:08:22Z</time>
      </trkpt>
      <trkpt lat="43.53905" lon="3.7374">
        <ele>51.8</ele>
        <time>2021-04-13T08:08:23Z</time>
      </trkpt>
      <trkpt lat="43.53902" lon="3.73735">
        <ele>51.8</ele>
        <time>2021-04-13T08:08:24Z</time>
      </trkpt>
      <trkpt lat="43.53899" lon="3.7373">
        <ele>51.8</ele>
        <time>2021-04-13T08:08:25Z</time>
      </trkpt>
      <trkpt lat="43.53895" lon="3.73726">
        <ele>51.8</ele>
        <time>2021-04-13T08:08:26Z</time>
      </trkpt>
      <trkpt lat="43.53892" lon="3.73721">
        <ele>52</ele>
        <time>2021-04-13T08:08:27Z</time>
      </trkpt>
      <trkpt lat="43.53889" lon="3.73716">
        <ele>52</ele>
        <time>2021-04-13T08:08:28Z</time>
      </trkpt>
      <trkpt lat="43.53886" lon="3.73711">
        <ele>52.2</ele>
        <time>2021-04-13T08:08:29Z</time>
      </trkpt>
      <trkpt lat="43.53883" lon="3.73706">
        <ele>52.2</ele>
        <time>2021-04-13T08:08:30Z</time>
      </trkpt>
      <trkpt lat="43.5388" lon="3.73701">
        <ele>52.2</ele>
        <time>2021-04-13T08:08:31Z</time>
      </trkpt>
      <trkpt lat="43.53877" lon="3.73697">
        <ele>52.2</ele>
        <time>2021-04-13T08:08:32Z</time>
      </trkpt>
      <trkpt lat="43.53874" lon="3.73692">
        <ele>52.4</ele>
        <time>2021-04-13T08:08:33Z</time>
      </trkpt>
      <trkpt lat="43.53871" lon="3.73688">
        <ele>52.4</ele>
        <time>2021-04-13T08:08:34Z</time>
      </trkpt>
      <trkpt lat="43.53868" lon="3.73683">
        <ele>52.6</ele>
        <time>2021-04-13T08:08:35Z</time>
      </trkpt>
      <trkpt lat="43.53865" lon="3.73679">
        <ele>52.6</ele>
        <time>2021-04-13T08:08:36Z</time>
      </trkpt>
      <trkpt lat="43.53862" lon="3.73674">
        <ele>52.4</ele>
        <time>2021-04-13T08:08:37Z</time>
      </trkpt>
      <trkpt lat="43.5386" lon="3.73669">
        <ele>52.4</ele>
        <time>2021-04-13T08:08:38Z</time>
      </trkpt>
      <trkpt lat="43.53857" lon="3.73665">
        <ele>52.4</ele>
        <time>2021-04-13T08:08:39Z</time>
      </trkpt>
      <trkpt lat="43.53854" lon="3.7366">
        <ele>52.4</ele>
        <time>2021-04-13T08:08:40Z</time>
      </trkpt>
      <trkpt lat="43.53851" lon="3.73655">
        <ele>52.6</ele>
        <time>2021-04-13T08:08:41Z</time>
      </trkpt>
      <trkpt lat="43.53847" lon="3.73651">
        <ele>52.6</ele>
        <time>2021-04-13T08:08:42Z</time>
      </trkpt>
      <trkpt lat="43.53845" lon="3.73646">
        <ele>52.6</ele>
        <time>2021-04-13T08:08:43Z</time>
      </trkpt>
      <trkpt lat="43.53842" lon="3.73641">
        <ele>52.8</ele>
        <time>2021-04-13T08:08:44Z</time>
      </trkpt>
      <trkpt lat="43.53839" lon="3.73636">
        <ele>52.8</ele>
        <time>2021-04-13T08:08:45Z</time>
      </trkpt>
      <trkpt lat="43.53836" lon="3.73631">
        <ele>52.8</ele>
        <time>2021-04-13T08:08:46Z</time>
      </trkpt>
      <trkpt lat="43.53833" lon="3.73627">
        <ele>52.8</ele>
        <time>2021-04-13T08:08:47Z</time>
      </trkpt>
      <trkpt lat="43.5383" lon="3.73622">
        <ele>53</ele>
        <time>2021-04-13T08:08:48Z</time>
      </trkpt>
      <trkpt lat="43.53827" lon="3.73617">
        <ele>53</ele>
        <time>2021-04-13T08:08:49Z</time>
      </trkpt>
      <trkpt lat="43.53824" lon="3.73612">
        <ele>53</ele>
        <time>2021-04-13T08:08:50Z</time>
      </trkpt>
      <trkpt lat="43.53821" lon="3.73607">
        <ele>53</ele>
        <time>2021-04-13T08:08:51Z</time>
      </trkpt>
      <trkpt lat="43.53818" lon="3.73602">
        <ele>53</ele>
        <time>2021-04-13T08:08:52Z</time>
      </trkpt>
      <trkpt lat="43.53815" lon="3.73598">
        <ele>53</ele>
        <time>2021-04-13T08:08:53Z</time>
      </trkpt>
      <trkpt lat="43.53812" lon="3.73593">
        <ele>53.2</ele>
        <time>2021-04-13T08:08:54Z</time>
      </trkpt>
      <trkpt lat="43.53809" lon="3.73588">
        <ele>53.4</ele>
        <time>2021-04-13T08:08:55Z</time>
      </trkpt>
      <trkpt lat="43.53807" lon="3.73583">
        <ele>53.4</ele>
        <time>2021-04-13T08:08:56Z</time>
      </trkpt>
      <trkpt lat="43.53804" lon="3.73578">
        <ele>53.6</ele>
        <time>2021-04-13T08:08:57Z</time>
      </trkpt>
      <trkpt lat="43.53801" lon="3.73574">
        <ele>53.8</ele>
        <time>2021-04-13T08:08:58Z</time>
      </trkpt>
      <trkpt lat="43.53798" lon="3.73569">
        <ele>53.8</ele>
        <time>2021-04-13T08:08:59Z</time>
      </trkpt>
      <trkpt lat="43.53795" lon="3.73564">
        <ele>53.8</ele>
        <time>2021-04-13T08:09:00Z</time>
      </trkpt>
      <trkpt lat="43.53792" lon="3.7356">
        <ele>54</ele>
        <time>2021-04-13T08:09:01Z</time>
      </trkpt>
      <trkpt lat="43.53789" lon="3.73555">
        <ele>54</ele>
        <time>2021-04-13T08:09:02Z</time>
      </trkpt>
      <trkpt lat="43.53785" lon="3.73551">
        <ele>54</ele>
        <time>2021-04-13T08:09:03Z</time>
      </trkpt>
      <trkpt lat="43.53782" lon="3.73547">
        <ele>54</ele>
        <time>2021-04-13T08:09:04Z</time>
      </trkpt>
      <trkpt lat="43.53779" lon="3.73543">
        <ele>54.2</ele>
        <time>2021-04-13T08:09:05Z</time>
      </trkpt>
      <trkpt lat="43.53776" lon="3.73538">
        <ele>54.2</ele>
        <time>2021-04-13T08:09:06Z</time>
      </trkpt>
      <trkpt lat="43.53773" lon="3.73534">
        <ele>54.2</ele>
        <time>2021-04-13T08:09:07Z</time>
      </trkpt>
      <trkpt lat="43.5377" lon="3.73529">
        <ele>54.2</ele>
        <time>2021-04-13T08:09:08Z</time>
      </trkpt>
      <trkpt lat="43.53763" lon="3.7352">
        <ele>54.4</ele>
        <time>2021-04-13T08:09:10Z</time>
      </trkpt>
      <trkpt lat="43.5376" lon="3.73515">
        <ele>54.6</ele>
        <time>2021-04-13T08:09:11Z</time>
      </trkpt>
      <trkpt lat="43.53757" lon="3.73511">
        <ele>54.6</ele>
        <time>2021-04-13T08:09:12Z</time>
      </trkpt>
      <trkpt lat="43.53754" lon="3.73506">
        <ele>54.6</ele>
        <time>2021-04-13T08:09:13Z</time>
      </trkpt>
      <trkpt lat="43.53751" lon="3.73502">
        <ele>54.8</ele>
        <time>2021-04-13T08:09:14Z</time>
      </trkpt>
      <trkpt lat="43.53748" lon="3.73497">
        <ele>54.8</ele>
        <time>2021-04-13T08:09:15Z</time>
      </trkpt>
      <trkpt lat="43.53745" lon="3.73493">
        <ele>55</ele>
        <time>2021-04-13T08:09:16Z</time>
      </trkpt>
      <trkpt lat="43.53742" lon="3.73488">
        <ele>55</ele>
        <time>2021-04-13T08:09:17Z</time>
      </trkpt>
      <trkpt lat="43.53739" lon="3.73484">
        <ele>55.2</ele>
        <time>2021-04-13T08:09:18Z</time>
      </trkpt>
      <trkpt lat="43.53736" lon="3.73479">
        <ele>55.2</ele>
        <time>2021-04-13T08:09:19Z</time>
      </trkpt>
      <trkpt lat="43.53733" lon="3.73475">
        <ele>55.4</ele>
        <time>2021-04-13T08:09:20Z</time>
      </trkpt>
      <trkpt lat="43.5373" lon="3.73471">
        <ele>55.6</ele>
        <time>2021-04-13T08:09:21Z</time>
      </trkpt>
      <trkpt lat="43.53727" lon="3.73467">
        <ele>55.4</ele>
        <time>2021-04-13T08:09:22Z</time>
      </trkpt>
      <trkpt lat="43.53725" lon="3.73463">
        <ele>55.4</ele>
        <time>2021-04-13T08:09:23Z</time>
      </trkpt>
      <trkpt lat="43.53722" lon="3.7346">
        <ele>55.4</ele>
        <time>2021-04-13T08:09:24Z</time>
      </trkpt>
      <trkpt lat="43.5372" lon="3.73457">
        <ele>55.4</ele>
        <time>2021-04-13T08:09:25Z</time>
      </trkpt>
      <trkpt lat="43.53718" lon="3.73454">
        <ele>55.6</ele>
        <time>2021-04-13T08:09:26Z</time>
      </trkpt>
      <trkpt lat="43.53716" lon="3.7345">
        <ele>55.8</ele>
        <time>2021-04-13T08:09:27Z</time>
      </trkpt>
      <trkpt lat="43.53714" lon="3.73447">
        <ele>55.8</ele>
        <time>2021-04-13T08:09:28Z</time>
      </trkpt>
      <trkpt lat="43.53711" lon="3.73443">
        <ele>56</ele>
        <time>2021-04-13T08:09:29Z</time>
      </trkpt>
      <trkpt lat="43.53709" lon="3.73439">
        <ele>56.2</ele>
        <time>2021-04-13T08:09:30Z</time>
      </trkpt>
      <trkpt lat="43.53707" lon="3.73434">
        <ele>56.4</ele>
        <time>2021-04-13T08:09:31Z</time>
      </trkpt>
      <trkpt lat="43.53704" lon="3.7343">
        <ele>56.4</ele>
        <time>2021-04-13T08:09:32Z</time>
      </trkpt>
      <trkpt lat="43.53702" lon="3.73426">
        <ele>56.6</ele>
        <time>2021-04-13T08:09:33Z</time>
      </trkpt>
      <trkpt lat="43.53699" lon="3.73422">
        <ele>56.6</ele>
        <time>2021-04-13T08:09:34Z</time>
      </trkpt>
      <trkpt lat="43.53697" lon="3.73419">
        <ele>56.6</ele>
        <time>2021-04-13T08:09:35Z</time>
      </trkpt>
      <trkpt lat="43.53694" lon="3.73415">
        <ele>56.8</ele>
        <time>2021-04-13T08:09:36Z</time>
      </trkpt>
      <trkpt lat="43.53691" lon="3.73412">
        <ele>56.8</ele>
        <time>2021-04-13T08:09:37Z</time>
      </trkpt>
      <trkpt lat="43.53688" lon="3.73408">
        <ele>57</ele>
        <time>2021-04-13T08:09:38Z</time>
      </trkpt>
      <trkpt lat="43.53686" lon="3.73405">
        <ele>57.2</ele>
        <time>2021-04-13T08:09:39Z</time>
      </trkpt>
      <trkpt lat="43.53683" lon="3.73401">
        <ele>57.2</ele>
        <time>2021-04-13T08:09:40Z</time>
      </trkpt>
      <trkpt lat="43.5368" lon="3.73397">
        <ele>57.6</ele>
        <time>2021-04-13T08:09:41Z</time>
      </trkpt>
      <trkpt lat="43.53678" lon="3.73393">
        <ele>57.6</ele>
        <time>2021-04-13T08:09:42Z</time>
      </trkpt>
      <trkpt lat="43.53675" lon="3.7339">
        <ele>57.6</ele>
        <time>2021-04-13T08:09:43Z</time>
      </trkpt>
      <trkpt lat="43.53672" lon="3.73387">
        <ele>57.8</ele>
        <time>2021-04-13T08:09:44Z</time>
      </trkpt>
      <trkpt lat="43.5367" lon="3.73383">
        <ele>58</ele>
        <time>2021-04-13T08:09:45Z</time>
      </trkpt>
      <trkpt lat="43.53667" lon="3.73381">
        <ele>58.2</ele>
        <time>2021-04-13T08:09:46Z</time>
      </trkpt>
      <trkpt lat="43.53664" lon="3.73378">
        <ele>58.4</ele>
        <time>2021-04-13T08:09:47Z</time>
      </trkpt>
      <trkpt lat="43.53662" lon="3.73375">
        <ele>58.4</ele>
        <time>2021-04-13T08:09:48Z</time>
      </trkpt>
      <trkpt lat="43.53659" lon="3.73372">
        <ele>58.6</ele>
        <time>2021-04-13T08:09:49Z</time>
      </trkpt>
      <trkpt lat="43.53656" lon="3.7337">
        <ele>58.8</ele>
        <time>2021-04-13T08:09:50Z</time>
      </trkpt>
      <trkpt lat="43.53654" lon="3.73368">
        <ele>59</ele>
        <time>2021-04-13T08:09:51Z</time>
      </trkpt>
      <trkpt lat="43.53651" lon="3.73365">
        <ele>59</ele>
        <time>2021-04-13T08:09:52Z</time>
      </trkpt>
      <trkpt lat="43.53649" lon="3.73362">
        <ele>59</ele>
        <time>2021-04-13T08:09:53Z</time>
      </trkpt>
      <trkpt lat="43.53647" lon="3.7336">
        <ele>59.2</ele>
        <time>2021-04-13T08:09:54Z</time>
      </trkpt>
      <trkpt lat="43.53644" lon="3.73357">
        <ele>59.4</ele>
        <time>2021-04-13T08:09:55Z</time>
      </trkpt>
      <trkpt lat="43.53642" lon="3.73355">
        <ele>59.4</ele>
        <time>2021-04-13T08:09:56Z</time>
      </trkpt>
      <trkpt lat="43.53639" lon="3.73353">
        <ele>59.6</ele>
        <time>2021-04-13T08:09:57Z</time>
      </trkpt>
      <trkpt lat="43.53636" lon="3.7335">
        <ele>59.6</ele>
        <time>2021-04-13T08:09:58Z</time>
      </trkpt>
      <trkpt lat="43.53634" lon="3.73348">
        <ele>59.6</ele>
        <time>2021-04-13T08:09:59Z</time>
      </trkpt>
      <trkpt lat="43.53631" lon="3.73346">
        <ele>59.8</ele>
        <time>2021-04-13T08:10:00Z</time>
      </trkpt>
      <trkpt lat="43.53628" lon="3.73343">
        <ele>59.8</ele>
        <time>2021-04-13T08:10:01Z</time>
      </trkpt>
      <trkpt lat="43.53626" lon="3.73341">
        <ele>60</ele>
        <time>2021-04-13T08:10:02Z</time>
      </trkpt>
      <trkpt lat="43.53624" lon="3.73338">
        <ele>60.2</ele>
        <time>2021-04-13T08:10:03Z</time>
      </trkpt>
      <trkpt lat="43.53621" lon="3.73336">
        <ele>60.2</ele>
        <time>2021-04-13T08:10:04Z</time>
      </trkpt>
      <trkpt lat="43.53619" lon="3.73333">
        <ele>60.4</ele>
        <time>2021-04-13T08:10:05Z</time>
      </trkpt>
      <trkpt lat="43.53616" lon="3.73331">
        <ele>60.6</ele>
        <time>2021-04-13T08:10:06Z</time>
      </trkpt>
      <trkpt lat="43.53613" lon="3.73329">
        <ele>60.8</ele>
        <time>2021-04-13T08:10:07Z</time>
      </trkpt>
      <trkpt lat="43.53611" lon="3.73326">
        <ele>61</ele>
        <time>2021-04-13T08:10:08Z</time>
      </trkpt>
      <trkpt lat="43.53608" lon="3.73324">
        <ele>61</ele>
        <time>2021-04-13T08:10:09Z</time>
      </trkpt>
      <trkpt lat="43.53606" lon="3.73322">
        <ele>61.2</ele>
        <time>2021-04-13T08:10:10Z</time>
      </trkpt>
      <trkpt lat="43.53603" lon="3.73319">
        <ele>61.4</ele>
        <time>2021-04-13T08:10:11Z</time>
      </trkpt>
      <trkpt lat="43.53601" lon="3.73317">
        <ele>61.4</ele>
        <time>2021-04-13T08:10:12Z</time>
      </trkpt>
      <trkpt lat="43.53598" lon="3.73314">
        <ele>61.4</ele>
        <time>2021-04-13T08:10:13Z</time>
      </trkpt>
      <trkpt lat="43.53595" lon="3.73312">
        <ele>61.6</ele>
        <time>2021-04-13T08:10:14Z</time>
      </trkpt>
      <trkpt lat="43.53593" lon="3.7331">
        <ele>61.8</ele>
        <time>2021-04-13T08:10:15Z</time>
      </trkpt>
      <trkpt lat="43.5359" lon="3.73307">
        <ele>62</ele>
        <time>2021-04-13T08:10:16Z</time>
      </trkpt>
      <trkpt lat="43.53588" lon="3.73305">
        <ele>62.2</ele>
        <time>2021-04-13T08:10:17Z</time>
      </trkpt>
      <trkpt lat="43.53585" lon="3.73302">
        <ele>62.6</ele>
        <time>2021-04-13T08:10:18Z</time>
      </trkpt>
      <trkpt lat="43.53583" lon="3.733">
        <ele>62.6</ele>
        <time>2021-04-13T08:10:19Z</time>
      </trkpt>
      <trkpt lat="43.53581" lon="3.73298">
        <ele>63</ele>
        <time>2021-04-13T08:10:20Z</time>
      </trkpt>
      <trkpt lat="43.53578" lon="3.73296">
        <ele>63</ele>
        <time>2021-04-13T08:10:21Z</time>
      </trkpt>
      <trkpt lat="43.53576" lon="3.73294">
        <ele>63</ele>
        <time>2021-04-13T08:10:22Z</time>
      </trkpt>
      <trkpt lat="43.53573" lon="3.73292">
        <ele>63.2</ele>
        <time>2021-04-13T08:10:23Z</time>
      </trkpt>
      <trkpt lat="43.53569" lon="3.73288">
        <ele>63.6</ele>
        <time>2021-04-13T08:10:25Z</time>
      </trkpt>
      <trkpt lat="43.53567" lon="3.73286">
        <ele>64</ele>
        <time>2021-04-13T08:10:26Z</time>
      </trkpt>
      <trkpt lat="43.53565" lon="3.73284">
        <ele>64</ele>
        <time>2021-04-13T08:10:27Z</time>
      </trkpt>
      <trkpt lat="43.53563" lon="3.73282">
        <ele>64</ele>
        <time>2021-04-13T08:10:28Z</time>
      </trkpt>
      <trkpt lat="43.5356" lon="3.73279">
        <ele>64.2</ele>
        <time>2021-04-13T08:10:29Z</time>
      </trkpt>
      <trkpt lat="43.53558" lon="3.73277">
        <ele>64.2</ele>
        <time>2021-04-13T08:10:30Z</time>
      </trkpt>
      <trkpt lat="43.53555" lon="3.73275">
        <ele>64.4</ele>
        <time>2021-04-13T08:10:31Z</time>
      </trkpt>
      <trkpt lat="43.53552" lon="3.73272">
        <ele>64.2</ele>
        <time>2021-04-13T08:10:32Z</time>
      </trkpt>
      <trkpt lat="43.53549" lon="3.7327">
        <ele>64.4</ele>
        <time>2021-04-13T08:10:33Z</time>
      </trkpt>
      <trkpt lat="43.53546" lon="3.73267">
        <ele>64.4</ele>
        <time>2021-04-13T08:10:34Z</time>
      </trkpt>
      <trkpt lat="43.53543" lon="3.73264">
        <ele>64.6</ele>
        <time>2021-04-13T08:10:35Z</time>
      </trkpt>
      <trkpt lat="43.53541" lon="3.73261">
        <ele>64.6</ele>
        <time>2021-04-13T08:10:36Z</time>
      </trkpt>
      <trkpt lat="43.53538" lon="3.73258">
        <ele>64.4</ele>
        <time>2021-04-13T08:10:37Z</time>
      </trkpt>
      <trkpt lat="43.53535" lon="3.73255">
        <ele>64.8</ele>
        <time>2021-04-13T08:10:38Z</time>
      </trkpt>
      <trkpt lat="43.53532" lon="3.73252">
        <ele>64.8</ele>
        <time>2021-04-13T08:10:39Z</time>
      </trkpt>
      <trkpt lat="43.53529" lon="3.73249">
        <ele>64.8</ele>
        <time>2021-04-13T08:10:40Z</time>
      </trkpt>
      <trkpt lat="43.53526" lon="3.73246">
        <ele>64.8</ele>
        <time>2021-04-13T08:10:41Z</time>
      </trkpt>
      <trkpt lat="43.53523" lon="3.73244">
        <ele>64.6</ele>
        <time>2021-04-13T08:10:42Z</time>
      </trkpt>
      <trkpt lat="43.5352" lon="3.7324">
        <ele>64.6</ele>
        <time>2021-04-13T08:10:43Z</time>
      </trkpt>
      <trkpt lat="43.53516" lon="3.73237">
        <ele>64.6</ele>
        <time>2021-04-13T08:10:44Z</time>
      </trkpt>
      <trkpt lat="43.53513" lon="3.73234">
        <ele>64.6</ele>
        <time>2021-04-13T08:10:45Z</time>
      </trkpt>
      <trkpt lat="43.5351" lon="3.73231">
        <ele>64.2</ele>
        <time>2021-04-13T08:10:46Z</time>
      </trkpt>
      <trkpt lat="43.53506" lon="3.73228">
        <ele>64.2</ele>
        <time>2021-04-13T08:10:47Z</time>
      </trkpt>
      <trkpt lat="43.53503" lon="3.73225">
        <ele>64</ele>
        <time>2021-04-13T08:10:48Z</time>
      </trkpt>
      <trkpt lat="43.535" lon="3.73221">
        <ele>63.6</ele>
        <time>2021-04-13T08:10:49Z</time>
      </trkpt>
      <trkpt lat="43.53498" lon="3.73215">
        <ele>63.4</ele>
        <time>2021-04-13T08:10:50Z</time>
      </trkpt>
      <trkpt lat="43.53499" lon="3.73208">
        <ele>63.2</ele>
        <time>2021-04-13T08:10:51Z</time>
      </trkpt>
      <trkpt lat="43.53501" lon="3.73203">
        <ele>63.2</ele>
        <time>2021-04-13T08:10:52Z</time>
      </trkpt>
      <trkpt lat="43.53503" lon="3.73198">
        <ele>63.2</ele>
        <time>2021-04-13T08:10:53Z</time>
      </trkpt>
      <trkpt lat="43.53504" lon="3.73193">
        <ele>63.2</ele>
        <time>2021-04-13T08:10:54Z</time>
      </trkpt>
      <trkpt lat="43.53506" lon="3.7319">
        <ele>63.2</ele>
        <time>2021-04-13T08:10:55Z</time>
      </trkpt>
      <trkpt lat="43.53508" lon="3.73186">
        <ele>63.2</ele>
        <time>2021-04-13T08:10:56Z</time>
      </trkpt>
      <trkpt lat="43.5351" lon="3.73183">
        <ele>63.2</ele>
        <time>2021-04-13T08:10:57Z</time>
      </trkpt>
      <trkpt lat="43.53512" lon="3.73179">
        <ele>63</ele>
        <time>2021-04-13T08:10:58Z</time>
      </trkpt>
      <trkpt lat="43.53514" lon="3.73175">
        <ele>63</ele>
        <time>2021-04-13T08:10:59Z</time>
      </trkpt>
      <trkpt lat="43.53516" lon="3.73172">
        <ele>62.8</ele>
        <time>2021-04-13T08:11:00Z</time>
      </trkpt>
      <trkpt lat="43.53519" lon="3.73169">
        <ele>62.8</ele>
        <time>2021-04-13T08:11:01Z</time>
      </trkpt>
      <trkpt lat="43.5352" lon="3.73165">
        <ele>62.6</ele>
        <time>2021-04-13T08:11:02Z</time>
      </trkpt>
      <trkpt lat="43.53521" lon="3.73161">
        <ele>62.4</ele>
        <time>2021-04-13T08:11:03Z</time>
      </trkpt>
      <trkpt lat="43.5352" lon="3.73157">
        <ele>62.4</ele>
        <time>2021-04-13T08:11:04Z</time>
      </trkpt>
      <trkpt lat="43.53519" lon="3.73153">
        <ele>62.4</ele>
        <time>2021-04-13T08:11:05Z</time>
      </trkpt>
      <trkpt lat="43.53518" lon="3.73149">
        <ele>62.2</ele>
        <time>2021-04-13T08:11:06Z</time>
      </trkpt>
      <trkpt lat="43.53516" lon="3.73145">
        <ele>62</ele>
        <time>2021-04-13T08:11:07Z</time>
      </trkpt>
      <trkpt lat="43.53514" lon="3.73141">
        <ele>62</ele>
        <time>2021-04-13T08:11:08Z</time>
      </trkpt>
      <trkpt lat="43.53512" lon="3.73137">
        <ele>61.8</ele>
        <time>2021-04-13T08:11:09Z</time>
      </trkpt>
      <trkpt lat="43.5351" lon="3.73133">
        <ele>61.8</ele>
        <time>2021-04-13T08:11:10Z</time>
      </trkpt>
      <trkpt lat="43.53508" lon="3.7313">
        <ele>61.8</ele>
        <time>2021-04-13T08:11:11Z</time>
      </trkpt>
      <trkpt lat="43.53506" lon="3.73126">
        <ele>61.8</ele>
        <time>2021-04-13T08:11:12Z</time>
      </trkpt>
      <trkpt lat="43.53503" lon="3.73122">
        <ele>61.6</ele>
        <time>2021-04-13T08:11:13Z</time>
      </trkpt>
      <trkpt lat="43.53501" lon="3.73117">
        <ele>61.6</ele>
        <time>2021-04-13T08:11:14Z</time>
      </trkpt>
      <trkpt lat="43.53498" lon="3.73113">
        <ele>61.6</ele>
        <time>2021-04-13T08:11:15Z</time>
      </trkpt>
      <trkpt lat="43.53495" lon="3.73109">
        <ele>61.6</ele>
        <time>2021-04-13T08:11:16Z</time>
      </trkpt>
      <trkpt lat="43.53493" lon="3.73104">
        <ele>61.6</ele>
        <time>2021-04-13T08:11:17Z</time>
      </trkpt>
      <trkpt lat="43.53491" lon="3.731">
        <ele>61.4</ele>
        <time>2021-04-13T08:11:18Z</time>
      </trkpt>
      <trkpt lat="43.53488" lon="3.73096">
        <ele>61.4</ele>
        <time>2021-04-13T08:11:19Z</time>
      </trkpt>
      <trkpt lat="43.53486" lon="3.73093">
        <ele>61.4</ele>
        <time>2021-04-13T08:11:20Z</time>
      </trkpt>
      <trkpt lat="43.53483" lon="3.73088">
        <ele>61.4</ele>
        <time>2021-04-13T08:11:21Z</time>
      </trkpt>
      <trkpt lat="43.53481" lon="3.73084">
        <ele>61.4</ele>
        <time>2021-04-13T08:11:22Z</time>
      </trkpt>
      <trkpt lat="43.53479" lon="3.73079">
        <ele>61.4</ele>
        <time>2021-04-13T08:11:23Z</time>
      </trkpt>
      <trkpt lat="43.53476" lon="3.73075">
        <ele>61.4</ele>
        <time>2021-04-13T08:11:24Z</time>
      </trkpt>
      <trkpt lat="43.53474" lon="3.7307">
        <ele>61.4</ele>
        <time>2021-04-13T08:11:25Z</time>
      </trkpt>
      <trkpt lat="43.53471" lon="3.73066">
        <ele>61.4</ele>
        <time>2021-04-13T08:11:26Z</time>
      </trkpt>
      <trkpt lat="43.53469" lon="3.73061">
        <ele>61.4</ele>
        <time>2021-04-13T08:11:27Z</time>
      </trkpt>
      <trkpt lat="43.53466" lon="3.73057">
        <ele>61.4</ele>
        <time>2021-04-13T08:11:28Z</time>
      </trkpt>
      <trkpt lat="43.53464" lon="3.73053">
        <ele>61.4</ele>
        <time>2021-04-13T08:11:29Z</time>
      </trkpt>
      <trkpt lat="43.53462" lon="3.73048">
        <ele>61.4</ele>
        <time>2021-04-13T08:11:30Z</time>
      </trkpt>
      <trkpt lat="43.53459" lon="3.73044">
        <ele>61.2</ele>
        <time>2021-04-13T08:11:31Z</time>
      </trkpt>
      <trkpt lat="43.53456" lon="3.73041">
        <ele>61.2</ele>
        <time>2021-04-13T08:11:32Z</time>
      </trkpt>
      <trkpt lat="43.53453" lon="3.73039">
        <ele>61.2</ele>
        <time>2021-04-13T08:11:33Z</time>
      </trkpt>
      <trkpt lat="43.5345" lon="3.73036">
        <ele>61</ele>
        <time>2021-04-13T08:11:34Z</time>
      </trkpt>
      <trkpt lat="43.53449" lon="3.73032">
        <ele>61</ele>
        <time>2021-04-13T08:11:35Z</time>
      </trkpt>
      <trkpt lat="43.53447" lon="3.73028">
        <ele>61</ele>
        <time>2021-04-13T08:11:36Z</time>
      </trkpt>
      <trkpt lat="43.53445" lon="3.73024">
        <ele>61</ele>
        <time>2021-04-13T08:11:37Z</time>
      </trkpt>
      <trkpt lat="43.53444" lon="3.73021">
        <ele>61</ele>
        <time>2021-04-13T08:11:38Z</time>
      </trkpt>
      <trkpt lat="43.53442" lon="3.73016">
        <ele>60.8</ele>
        <time>2021-04-13T08:11:39Z</time>
      </trkpt>
      <trkpt lat="43.5344" lon="3.73012">
        <ele>60.6</ele>
        <time>2021-04-13T08:11:40Z</time>
      </trkpt>
      <trkpt lat="43.53439" lon="3.73007">
        <ele>60.6</ele>
        <time>2021-04-13T08:11:41Z</time>
      </trkpt>
      <trkpt lat="43.53436" lon="3.73003">
        <ele>60.6</ele>
        <time>2021-04-13T08:11:42Z</time>
      </trkpt>
      <trkpt lat="43.53434" lon="3.72999">
        <ele>60.4</ele>
        <time>2021-04-13T08:11:43Z</time>
      </trkpt>
      <trkpt lat="43.53431" lon="3.72995">
        <ele>60.4</ele>
        <time>2021-04-13T08:11:44Z</time>
      </trkpt>
      <trkpt lat="43.53429" lon="3.72991">
        <ele>60.4</ele>
        <time>2021-04-13T08:11:45Z</time>
      </trkpt>
      <trkpt lat="43.53426" lon="3.72987">
        <ele>60.4</ele>
        <time>2021-04-13T08:11:46Z</time>
      </trkpt>
      <trkpt lat="43.53424" lon="3.72984">
        <ele>60.4</ele>
        <time>2021-04-13T08:11:47Z</time>
      </trkpt>
      <trkpt lat="43.53422" lon="3.7298">
        <ele>60.4</ele>
        <time>2021-04-13T08:11:48Z</time>
      </trkpt>
      <trkpt lat="43.5342" lon="3.72976">
        <ele>60.4</ele>
        <time>2021-04-13T08:11:49Z</time>
      </trkpt>
      <trkpt lat="43.53418" lon="3.72972">
        <ele>60.4</ele>
        <time>2021-04-13T08:11:50Z</time>
      </trkpt>
      <trkpt lat="43.53416" lon="3.72968">
        <ele>60.4</ele>
        <time>2021-04-13T08:11:51Z</time>
      </trkpt>
      <trkpt lat="43.53414" lon="3.72965">
        <ele>60.4</ele>
        <time>2021-04-13T08:11:52Z</time>
      </trkpt>
      <trkpt lat="43.53412" lon="3.72961">
        <ele>60.4</ele>
        <time>2021-04-13T08:11:53Z</time>
      </trkpt>
      <trkpt lat="43.5341" lon="3.72958">
        <ele>60.4</ele>
        <time>2021-04-13T08:11:54Z</time>
      </trkpt>
      <trkpt lat="43.53409" lon="3.72954">
        <ele>60.4</ele>
        <time>2021-04-13T08:11:55Z</time>
      </trkpt>
      <trkpt lat="43.53407" lon="3.72951">
        <ele>60.4</ele>
        <time>2021-04-13T08:11:56Z</time>
      </trkpt>
      <trkpt lat="43.53404" lon="3.72948">
        <ele>60.4</ele>
        <time>2021-04-13T08:11:57Z</time>
      </trkpt>
      <trkpt lat="43.53402" lon="3.72945">
        <ele>60.4</ele>
        <time>2021-04-13T08:11:58Z</time>
      </trkpt>
      <trkpt lat="43.534" lon="3.72942">
        <ele>60.4</ele>
        <time>2021-04-13T08:11:59Z</time>
      </trkpt>
      <trkpt lat="43.53397" lon="3.72938">
        <ele>60.4</ele>
        <time>2021-04-13T08:12:00Z</time>
      </trkpt>
      <trkpt lat="43.53395" lon="3.72935">
        <ele>60.2</ele>
        <time>2021-04-13T08:12:01Z</time>
      </trkpt>
      <trkpt lat="43.53393" lon="3.72932">
        <ele>60.2</ele>
        <time>2021-04-13T08:12:02Z</time>
      </trkpt>
      <trkpt lat="43.53391" lon="3.72929">
        <ele>60.2</ele>
        <time>2021-04-13T08:12:03Z</time>
      </trkpt>
      <trkpt lat="43.53389" lon="3.72925">
        <ele>60.2</ele>
        <time>2021-04-13T08:12:04Z</time>
      </trkpt>
      <trkpt lat="43.53387" lon="3.72921">
        <ele>60.2</ele>
        <time>2021-04-13T08:12:05Z</time>
      </trkpt>
      <trkpt lat="43.53386" lon="3.72916">
        <ele>60.2</ele>
        <time>2021-04-13T08:12:06Z</time>
      </trkpt>
      <trkpt lat="43.53385" lon="3.72911">
        <ele>60.2</ele>
        <time>2021-04-13T08:12:07Z</time>
      </trkpt>
      <trkpt lat="43.53384" lon="3.72906">
        <ele>60.2</ele>
        <time>2021-04-13T08:12:08Z</time>
      </trkpt>
      <trkpt lat="43.53384" lon="3.729">
        <ele>60.6</ele>
        <time>2021-04-13T08:12:09Z</time>
      </trkpt>
      <trkpt lat="43.53384" lon="3.72895">
        <ele>60.6</ele>
        <time>2021-04-13T08:12:10Z</time>
      </trkpt>
      <trkpt lat="43.53384" lon="3.7289">
        <ele>61</ele>
        <time>2021-04-13T08:12:11Z</time>
      </trkpt>
      <trkpt lat="43.53384" lon="3.72885">
        <ele>61</ele>
        <time>2021-04-13T08:12:12Z</time>
      </trkpt>
      <trkpt lat="43.53384" lon="3.7288">
        <ele>61.4</ele>
        <time>2021-04-13T08:12:13Z</time>
      </trkpt>
      <trkpt lat="43.53383" lon="3.72875">
        <ele>61.4</ele>
        <time>2021-04-13T08:12:14Z</time>
      </trkpt>
      <trkpt lat="43.53383" lon="3.72871">
        <ele>61.6</ele>
        <time>2021-04-13T08:12:15Z</time>
      </trkpt>
      <trkpt lat="43.53383" lon="3.72866">
        <ele>61.8</ele>
        <time>2021-04-13T08:12:16Z</time>
      </trkpt>
      <trkpt lat="43.53382" lon="3.72861">
        <ele>61.8</ele>
        <time>2021-04-13T08:12:17Z</time>
      </trkpt>
      <trkpt lat="43.53382" lon="3.72857">
        <ele>62</ele>
        <time>2021-04-13T08:12:18Z</time>
      </trkpt>
      <trkpt lat="43.53382" lon="3.72852">
        <ele>62</ele>
        <time>2021-04-13T08:12:19Z</time>
      </trkpt>
      <trkpt lat="43.53381" lon="3.72847">
        <ele>62.2</ele>
        <time>2021-04-13T08:12:20Z</time>
      </trkpt>
      <trkpt lat="43.53381" lon="3.72842">
        <ele>62.2</ele>
        <time>2021-04-13T08:12:21Z</time>
      </trkpt>
      <trkpt lat="43.5338" lon="3.72837">
        <ele>62</ele>
        <time>2021-04-13T08:12:22Z</time>
      </trkpt>
      <trkpt lat="43.53379" lon="3.72833">
        <ele>61.8</ele>
        <time>2021-04-13T08:12:23Z</time>
      </trkpt>
      <trkpt lat="43.53378" lon="3.72828">
        <ele>61.8</ele>
        <time>2021-04-13T08:12:24Z</time>
      </trkpt>
      <trkpt lat="43.53378" lon="3.72823">
        <ele>61.8</ele>
        <time>2021-04-13T08:12:25Z</time>
      </trkpt>
      <trkpt lat="43.53377" lon="3.72817">
        <ele>61.4</ele>
        <time>2021-04-13T08:12:26Z</time>
      </trkpt>
      <trkpt lat="43.53377" lon="3.72812">
        <ele>61.4</ele>
        <time>2021-04-13T08:12:27Z</time>
      </trkpt>
      <trkpt lat="43.53377" lon="3.72806">
        <ele>61</ele>
        <time>2021-04-13T08:12:28Z</time>
      </trkpt>
      <trkpt lat="43.53377" lon="3.728">
        <ele>61</ele>
        <time>2021-04-13T08:12:29Z</time>
      </trkpt>
      <trkpt lat="43.53377" lon="3.72793">
        <ele>60.8</ele>
        <time>2021-04-13T08:12:30Z</time>
      </trkpt>
      <trkpt lat="43.53377" lon="3.72787">
        <ele>61</ele>
        <time>2021-04-13T08:12:31Z</time>
      </trkpt>
      <trkpt lat="43.53377" lon="3.7278">
        <ele>60.6</ele>
        <time>2021-04-13T08:12:32Z</time>
      </trkpt>
      <trkpt lat="43.53378" lon="3.72774">
        <ele>60.6</ele>
        <time>2021-04-13T08:12:33Z</time>
      </trkpt>
      <trkpt lat="43.53378" lon="3.72767">
        <ele>60.4</ele>
        <time>2021-04-13T08:12:34Z</time>
      </trkpt>
      <trkpt lat="43.53379" lon="3.72762">
        <ele>60.4</ele>
        <time>2021-04-13T08:12:35Z</time>
      </trkpt>
      <trkpt lat="43.53381" lon="3.72756">
        <ele>60.2</ele>
        <time>2021-04-13T08:12:36Z</time>
      </trkpt>
      <trkpt lat="43.53382" lon="3.7275">
        <ele>60.4</ele>
        <time>2021-04-13T08:12:37Z</time>
      </trkpt>
      <trkpt lat="43.53384" lon="3.72744">
        <ele>60.4</ele>
        <time>2021-04-13T08:12:38Z</time>
      </trkpt>
      <trkpt lat="43.53385" lon="3.72739">
        <ele>60.4</ele>
        <time>2021-04-13T08:12:39Z</time>
      </trkpt>
      <trkpt lat="43.53386" lon="3.72733">
        <ele>60.2</ele>
        <time>2021-04-13T08:12:40Z</time>
      </trkpt>
      <trkpt lat="43.53388" lon="3.72727">
        <ele>60.4</ele>
        <time>2021-04-13T08:12:41Z</time>
      </trkpt>
      <trkpt lat="43.53389" lon="3.72722">
        <ele>60.4</ele>
        <time>2021-04-13T08:12:42Z</time>
      </trkpt>
      <trkpt lat="43.5339" lon="3.72716">
        <ele>60.4</ele>
        <time>2021-04-13T08:12:43Z</time>
      </trkpt>
      <trkpt lat="43.53391" lon="3.7271">
        <ele>60.4</ele>
        <time>2021-04-13T08:12:44Z</time>
      </trkpt>
      <trkpt lat="43.53393" lon="3.72704">
        <ele>60.2</ele>
        <time>2021-04-13T08:12:45Z</time>
      </trkpt>
      <trkpt lat="43.53394" lon="3.72698">
        <ele>60.2</ele>
        <time>2021-04-13T08:12:46Z</time>
      </trkpt>
      <trkpt lat="43.53395" lon="3.72692">
        <ele>60.2</ele>
        <time>2021-04-13T08:12:47Z</time>
      </trkpt>
      <trkpt lat="43.53396" lon="3.72686">
        <ele>60.4</ele>
        <time>2021-04-13T08:12:48Z</time>
      </trkpt>
      <trkpt lat="43.53397" lon="3.7268">
        <ele>60.4</ele>
        <time>2021-04-13T08:12:49Z</time>
      </trkpt>
      <trkpt lat="43.53398" lon="3.72673">
        <ele>60</ele>
        <time>2021-04-13T08:12:50Z</time>
      </trkpt>
      <trkpt lat="43.53399" lon="3.72667">
        <ele>59.8</ele>
        <time>2021-04-13T08:12:51Z</time>
      </trkpt>
      <trkpt lat="43.53399" lon="3.7266">
        <ele>59.8</ele>
        <time>2021-04-13T08:12:52Z</time>
      </trkpt>
      <trkpt lat="43.534" lon="3.72653">
        <ele>59.8</ele>
        <time>2021-04-13T08:12:53Z</time>
      </trkpt>
      <trkpt lat="43.534" lon="3.72647">
        <ele>59.8</ele>
        <time>2021-04-13T08:12:54Z</time>
      </trkpt>
      <trkpt lat="43.53401" lon="3.7264">
        <ele>59.8</ele>
        <time>2021-04-13T08:12:55Z</time>
      </trkpt>
      <trkpt lat="43.53401" lon="3.72634">
        <ele>59.8</ele>
        <time>2021-04-13T08:12:56Z</time>
      </trkpt>
      <trkpt lat="43.53401" lon="3.72628">
        <ele>59.8</ele>
        <time>2021-04-13T08:12:57Z</time>
      </trkpt>
      <trkpt lat="43.53401" lon="3.72621">
        <ele>59.6</ele>
        <time>2021-04-13T08:12:58Z</time>
      </trkpt>
      <trkpt lat="43.53401" lon="3.72615">
        <ele>59.8</ele>
        <time>2021-04-13T08:12:59Z</time>
      </trkpt>
      <trkpt lat="43.53401" lon="3.72609">
        <ele>59.8</ele>
        <time>2021-04-13T08:13:00Z</time>
      </trkpt>
      <trkpt lat="43.53402" lon="3.72603">
        <ele>59.8</ele>
        <time>2021-04-13T08:13:01Z</time>
      </trkpt>
      <trkpt lat="43.53402" lon="3.72597">
        <ele>59.8</ele>
        <time>2021-04-13T08:13:02Z</time>
      </trkpt>
      <trkpt lat="43.53401" lon="3.72591">
        <ele>59.8</ele>
        <time>2021-04-13T08:13:03Z</time>
      </trkpt>
      <trkpt lat="43.53401" lon="3.72585">
        <ele>59.8</ele>
        <time>2021-04-13T08:13:04Z</time>
      </trkpt>
      <trkpt lat="43.53401" lon="3.72579">
        <ele>59.8</ele>
        <time>2021-04-13T08:13:05Z</time>
      </trkpt>
      <trkpt lat="43.534" lon="3.72573">
        <ele>59.8</ele>
        <time>2021-04-13T08:13:06Z</time>
      </trkpt>
      <trkpt lat="43.534" lon="3.72567">
        <ele>59.8</ele>
        <time>2021-04-13T08:13:07Z</time>
      </trkpt>
      <trkpt lat="43.53399" lon="3.72561">
        <ele>59.8</ele>
        <time>2021-04-13T08:13:08Z</time>
      </trkpt>
      <trkpt lat="43.53399" lon="3.72555">
        <ele>60</ele>
        <time>2021-04-13T08:13:09Z</time>
      </trkpt>
      <trkpt lat="43.53398" lon="3.7255">
        <ele>60</ele>
        <time>2021-04-13T08:13:10Z</time>
      </trkpt>
      <trkpt lat="43.53397" lon="3.72544">
        <ele>60.2</ele>
        <time>2021-04-13T08:13:11Z</time>
      </trkpt>
      <trkpt lat="43.53396" lon="3.72538">
        <ele>60.2</ele>
        <time>2021-04-13T08:13:12Z</time>
      </trkpt>
      <trkpt lat="43.53395" lon="3.72532">
        <ele>60.2</ele>
        <time>2021-04-13T08:13:13Z</time>
      </trkpt>
      <trkpt lat="43.53394" lon="3.72527">
        <ele>60.2</ele>
        <time>2021-04-13T08:13:14Z</time>
      </trkpt>
      <trkpt lat="43.53393" lon="3.72521">
        <ele>60.4</ele>
        <time>2021-04-13T08:13:15Z</time>
      </trkpt>
      <trkpt lat="43.53391" lon="3.72515">
        <ele>60.2</ele>
        <time>2021-04-13T08:13:16Z</time>
      </trkpt>
      <trkpt lat="43.5339" lon="3.72509">
        <ele>60.2</ele>
        <time>2021-04-13T08:13:17Z</time>
      </trkpt>
      <trkpt lat="43.53389" lon="3.72503">
        <ele>60.4</ele>
        <time>2021-04-13T08:13:18Z</time>
      </trkpt>
      <trkpt lat="43.53388" lon="3.72498">
        <ele>60.4</ele>
        <time>2021-04-13T08:13:19Z</time>
      </trkpt>
      <trkpt lat="43.53386" lon="3.72492">
        <ele>60.4</ele>
        <time>2021-04-13T08:13:20Z</time>
      </trkpt>
      <trkpt lat="43.53385" lon="3.72486">
        <ele>60.6</ele>
        <time>2021-04-13T08:13:21Z</time>
      </trkpt>
      <trkpt lat="43.53383" lon="3.72481">
        <ele>60.6</ele>
        <time>2021-04-13T08:13:22Z</time>
      </trkpt>
      <trkpt lat="43.53382" lon="3.72475">
        <ele>60.8</ele>
        <time>2021-04-13T08:13:23Z</time>
      </trkpt>
      <trkpt lat="43.53381" lon="3.72469">
        <ele>60.8</ele>
        <time>2021-04-13T08:13:24Z</time>
      </trkpt>
      <trkpt lat="43.5338" lon="3.72464">
        <ele>60.8</ele>
        <time>2021-04-13T08:13:25Z</time>
      </trkpt>
      <trkpt lat="43.5338" lon="3.72459">
        <ele>61</ele>
        <time>2021-04-13T08:13:26Z</time>
      </trkpt>
      <trkpt lat="43.53379" lon="3.72453">
        <ele>61</ele>
        <time>2021-04-13T08:13:27Z</time>
      </trkpt>
      <trkpt lat="43.53378" lon="3.72447">
        <ele>61.2</ele>
        <time>2021-04-13T08:13:28Z</time>
      </trkpt>
      <trkpt lat="43.53378" lon="3.72442">
        <ele>61.2</ele>
        <time>2021-04-13T08:13:29Z</time>
      </trkpt>
      <trkpt lat="43.53378" lon="3.72437">
        <ele>61.2</ele>
        <time>2021-04-13T08:13:30Z</time>
      </trkpt>
      <trkpt lat="43.53379" lon="3.72433">
        <ele>61.2</ele>
        <time>2021-04-13T08:13:31Z</time>
      </trkpt>
      <trkpt lat="43.53379" lon="3.72428">
        <ele>61.4</ele>
        <time>2021-04-13T08:13:32Z</time>
      </trkpt>
      <trkpt lat="43.5338" lon="3.72424">
        <ele>61.4</ele>
        <time>2021-04-13T08:13:33Z</time>
      </trkpt>
      <trkpt lat="43.5338" lon="3.72419">
        <ele>61.6</ele>
        <time>2021-04-13T08:13:34Z</time>
      </trkpt>
      <trkpt lat="43.53381" lon="3.72414">
        <ele>61.8</ele>
        <time>2021-04-13T08:13:35Z</time>
      </trkpt>
      <trkpt lat="43.53381" lon="3.7241">
        <ele>62</ele>
        <time>2021-04-13T08:13:36Z</time>
      </trkpt>
      <trkpt lat="43.53381" lon="3.72405">
        <ele>62.2</ele>
        <time>2021-04-13T08:13:37Z</time>
      </trkpt>
      <trkpt lat="43.53382" lon="3.72401">
        <ele>62.2</ele>
        <time>2021-04-13T08:13:38Z</time>
      </trkpt>
      <trkpt lat="43.53382" lon="3.72398">
        <ele>62.2</ele>
        <time>2021-04-13T08:13:39Z</time>
      </trkpt>
      <trkpt lat="43.53382" lon="3.72395">
        <ele>62.4</ele>
        <time>2021-04-13T08:13:40Z</time>
      </trkpt>
      <trkpt lat="43.53382" lon="3.72393">
        <ele>62.4</ele>
        <time>2021-04-13T08:13:41Z</time>
      </trkpt>
      <trkpt lat="43.53383" lon="3.72391">
        <ele>62.6</ele>
        <time>2021-04-13T08:13:42Z</time>
      </trkpt>
      <trkpt lat="43.53383" lon="3.7239">
        <ele>62.6</ele>
        <time>2021-04-13T08:13:43Z</time>
      </trkpt>
      <trkpt lat="43.53382" lon="3.7239">
        <ele>62.6</ele>
        <time>2021-04-13T08:13:44Z</time>
      </trkpt>
      <trkpt lat="43.53382" lon="3.72389">
        <ele>62.6</ele>
        <time>2021-04-13T08:13:45Z</time>
      </trkpt>
      <trkpt lat="43.53381" lon="3.7239">
        <ele>62.6</ele>
        <time>2021-04-13T08:13:46Z</time>
      </trkpt>
      <trkpt lat="43.53381" lon="3.72391">
        <ele>62.6</ele>
        <time>2021-04-13T08:13:47Z</time>
      </trkpt>
      <trkpt lat="43.53381" lon="3.72391">
        <ele>62.4</ele>
        <time>2021-04-13T08:13:48Z</time>
      </trkpt>
      <trkpt lat="43.5338" lon="3.72393">
        <ele>62.4</ele>
        <time>2021-04-13T08:13:49Z</time>
      </trkpt>
      <trkpt lat="43.5338" lon="3.72394">
        <ele>62.4</ele>
        <time>2021-04-13T08:13:50Z</time>
      </trkpt>
      <trkpt lat="43.5338" lon="3.72396">
        <ele>62.4</ele>
        <time>2021-04-13T08:13:51Z</time>
      </trkpt>
      <trkpt lat="43.5338" lon="3.72398">
        <ele>62.2</ele>
        <time>2021-04-13T08:13:52Z</time>
      </trkpt>
      <trkpt lat="43.5338" lon="3.72399">
        <ele>62.2</ele>
        <time>2021-04-13T08:13:53Z</time>
      </trkpt>
      <trkpt lat="43.53382" lon="3.72399">
        <ele>62.2</ele>
        <time>2021-04-13T08:13:54Z</time>
      </trkpt>
      <trkpt lat="43.53382" lon="3.72398">
        <ele>62.2</ele>
        <time>2021-04-13T08:13:55Z</time>
      </trkpt>
      <trkpt lat="43.53381" lon="3.72396">
        <ele>62.2</ele>
        <time>2021-04-13T08:13:56Z</time>
      </trkpt>
      <trkpt lat="43.53381" lon="3.72395">
        <ele>62.2</ele>
        <time>2021-04-13T08:13:57Z</time>
      </trkpt>
      <trkpt lat="43.53381" lon="3.72393">
        <ele>62.4</ele>
        <time>2021-04-13T08:13:58Z</time>
      </trkpt>
      <trkpt lat="43.53381" lon="3.7239">
        <ele>62.4</ele>
        <time>2021-04-13T08:13:59Z</time>
      </trkpt>
      <trkpt lat="43.53381" lon="3.72388">
        <ele>62.6</ele>
        <time>2021-04-13T08:14:00Z</time>
      </trkpt>
      <trkpt lat="43.5338" lon="3.72385">
        <ele>62.6</ele>
        <time>2021-04-13T08:14:01Z</time>
      </trkpt>
      <trkpt lat="43.53379" lon="3.72382">
        <ele>62.6</ele>
        <time>2021-04-13T08:14:02Z</time>
      </trkpt>
      <trkpt lat="43.53378" lon="3.72379">
        <ele>62.8</ele>
        <time>2021-04-13T08:14:03Z</time>
      </trkpt>
      <trkpt lat="43.53377" lon="3.72375">
        <ele>63</ele>
        <time>2021-04-13T08:14:04Z</time>
      </trkpt>
      <trkpt lat="43.53376" lon="3.72372">
        <ele>63</ele>
        <time>2021-04-13T08:14:05Z</time>
      </trkpt>
      <trkpt lat="43.53375" lon="3.72369">
        <ele>63.2</ele>
        <time>2021-04-13T08:14:06Z</time>
      </trkpt>
      <trkpt lat="43.53373" lon="3.72365">
        <ele>63.2</ele>
        <time>2021-04-13T08:14:07Z</time>
      </trkpt>
      <trkpt lat="43.53371" lon="3.72362">
        <ele>63.2</ele>
        <time>2021-04-13T08:14:08Z</time>
      </trkpt>
      <trkpt lat="43.53369" lon="3.72358">
        <ele>63.2</ele>
        <time>2021-04-13T08:14:09Z</time>
      </trkpt>
      <trkpt lat="43.53368" lon="3.72355">
        <ele>63.2</ele>
        <time>2021-04-13T08:14:10Z</time>
      </trkpt>
      <trkpt lat="43.53365" lon="3.72351">
        <ele>63.2</ele>
        <time>2021-04-13T08:14:11Z</time>
      </trkpt>
      <trkpt lat="43.53363" lon="3.72347">
        <ele>63.2</ele>
        <time>2021-04-13T08:14:12Z</time>
      </trkpt>
      <trkpt lat="43.53362" lon="3.72343">
        <ele>63.2</ele>
        <time>2021-04-13T08:14:13Z</time>
      </trkpt>
      <trkpt lat="43.5336" lon="3.72338">
        <ele>63.2</ele>
        <time>2021-04-13T08:14:14Z</time>
      </trkpt>
      <trkpt lat="43.53359" lon="3.72334">
        <ele>63.4</ele>
        <time>2021-04-13T08:14:15Z</time>
      </trkpt>
      <trkpt lat="43.53358" lon="3.72329">
        <ele>63.4</ele>
        <time>2021-04-13T08:14:16Z</time>
      </trkpt>
      <trkpt lat="43.53358" lon="3.72324">
        <ele>63.6</ele>
        <time>2021-04-13T08:14:17Z</time>
      </trkpt>
      <trkpt lat="43.53358" lon="3.72319">
        <ele>63.6</ele>
        <time>2021-04-13T08:14:18Z</time>
      </trkpt>
      <trkpt lat="43.53357" lon="3.72314">
        <ele>63.6</ele>
        <time>2021-04-13T08:14:19Z</time>
      </trkpt>
      <trkpt lat="43.53357" lon="3.72309">
        <ele>63.8</ele>
        <time>2021-04-13T08:14:20Z</time>
      </trkpt>
      <trkpt lat="43.53357" lon="3.72304">
        <ele>63.8</ele>
        <time>2021-04-13T08:14:21Z</time>
      </trkpt>
      <trkpt lat="43.53357" lon="3.72299">
        <ele>63.8</ele>
        <time>2021-04-13T08:14:22Z</time>
      </trkpt>
      <trkpt lat="43.53357" lon="3.72294">
        <ele>63.8</ele>
        <time>2021-04-13T08:14:23Z</time>
      </trkpt>
      <trkpt lat="43.53356" lon="3.72289">
        <ele>64</ele>
        <time>2021-04-13T08:14:24Z</time>
      </trkpt>
      <trkpt lat="43.53356" lon="3.72285">
        <ele>64.2</ele>
        <time>2021-04-13T08:14:25Z</time>
      </trkpt>
      <trkpt lat="43.53356" lon="3.7228">
        <ele>64.2</ele>
        <time>2021-04-13T08:14:26Z</time>
      </trkpt>
      <trkpt lat="43.53356" lon="3.72276">
        <ele>64.4</ele>
        <time>2021-04-13T08:14:27Z</time>
      </trkpt>
      <trkpt lat="43.53356" lon="3.72272">
        <ele>64.4</ele>
        <time>2021-04-13T08:14:28Z</time>
      </trkpt>
      <trkpt lat="43.53355" lon="3.72268">
        <ele>64.6</ele>
        <time>2021-04-13T08:14:29Z</time>
      </trkpt>
      <trkpt lat="43.53354" lon="3.72264">
        <ele>64.6</ele>
        <time>2021-04-13T08:14:30Z</time>
      </trkpt>
      <trkpt lat="43.53353" lon="3.7226">
        <ele>64.6</ele>
        <time>2021-04-13T08:14:31Z</time>
      </trkpt>
      <trkpt lat="43.53351" lon="3.72256">
        <ele>64.8</ele>
        <time>2021-04-13T08:14:32Z</time>
      </trkpt>
      <trkpt lat="43.53349" lon="3.72253">
        <ele>64.8</ele>
        <time>2021-04-13T08:14:33Z</time>
      </trkpt>
      <trkpt lat="43.53345" lon="3.72247">
        <ele>65</ele>
        <time>2021-04-13T08:14:34Z</time>
      </trkpt>
      <trkpt lat="43.53345" lon="3.72247">
        <ele>65</ele>
        <time>2021-04-13T08:14:35Z</time>
      </trkpt>
      <trkpt lat="43.53343" lon="3.72244">
        <ele>65</ele>
        <time>2021-04-13T08:14:36Z</time>
      </trkpt>
      <trkpt lat="43.53342" lon="3.7224">
        <ele>65</ele>
        <time>2021-04-13T08:14:37Z</time>
      </trkpt>
      <trkpt lat="43.53342" lon="3.72236">
        <ele>65.2</ele>
        <time>2021-04-13T08:14:38Z</time>
      </trkpt>
      <trkpt lat="43.53341" lon="3.72233">
        <ele>65.4</ele>
        <time>2021-04-13T08:14:39Z</time>
      </trkpt>
      <trkpt lat="43.53341" lon="3.72229">
        <ele>65.4</ele>
        <time>2021-04-13T08:14:40Z</time>
      </trkpt>
      <trkpt lat="43.53341" lon="3.72225">
        <ele>65.4</ele>
        <time>2021-04-13T08:14:41Z</time>
      </trkpt>
      <trkpt lat="43.53341" lon="3.72222">
        <ele>65.4</ele>
        <time>2021-04-13T08:14:42Z</time>
      </trkpt>
      <trkpt lat="43.53342" lon="3.72219">
        <ele>65.6</ele>
        <time>2021-04-13T08:14:43Z</time>
      </trkpt>
      <trkpt lat="43.53342" lon="3.72212">
        <ele>65.8</ele>
        <time>2021-04-13T08:14:44Z</time>
      </trkpt>
      <trkpt lat="43.53342" lon="3.72212">
        <ele>65.8</ele>
        <time>2021-04-13T08:14:45Z</time>
      </trkpt>
      <trkpt lat="43.53342" lon="3.72209">
        <ele>65.8</ele>
        <time>2021-04-13T08:14:46Z</time>
      </trkpt>
      <trkpt lat="43.53342" lon="3.72206">
        <ele>66</ele>
        <time>2021-04-13T08:14:47Z</time>
      </trkpt>
      <trkpt lat="43.53342" lon="3.72203">
        <ele>66</ele>
        <time>2021-04-13T08:14:48Z</time>
      </trkpt>
      <trkpt lat="43.53342" lon="3.722">
        <ele>66</ele>
        <time>2021-04-13T08:14:49Z</time>
      </trkpt>
      <trkpt lat="43.53342" lon="3.72197">
        <ele>66.2</ele>
        <time>2021-04-13T08:14:50Z</time>
      </trkpt>
      <trkpt lat="43.53343" lon="3.72195">
        <ele>66.4</ele>
        <time>2021-04-13T08:14:51Z</time>
      </trkpt>
      <trkpt lat="43.53344" lon="3.72192">
        <ele>66.4</ele>
        <time>2021-04-13T08:14:52Z</time>
      </trkpt>
      <trkpt lat="43.53345" lon="3.7219">
        <ele>66.6</ele>
        <time>2021-04-13T08:14:53Z</time>
      </trkpt>
      <trkpt lat="43.53346" lon="3.72187">
        <ele>66.6</ele>
        <time>2021-04-13T08:14:54Z</time>
      </trkpt>
      <trkpt lat="43.53346" lon="3.72184">
        <ele>66.4</ele>
        <time>2021-04-13T08:14:55Z</time>
      </trkpt>
      <trkpt lat="43.53346" lon="3.7218">
        <ele>66.4</ele>
        <time>2021-04-13T08:14:56Z</time>
      </trkpt>
      <trkpt lat="43.53346" lon="3.72176">
        <ele>66.4</ele>
        <time>2021-04-13T08:14:57Z</time>
      </trkpt>
      <trkpt lat="43.53344" lon="3.72172">
        <ele>66.6</ele>
        <time>2021-04-13T08:14:58Z</time>
      </trkpt>
      <trkpt lat="43.53343" lon="3.72168">
        <ele>66.8</ele>
        <time>2021-04-13T08:14:59Z</time>
      </trkpt>
      <trkpt lat="43.53342" lon="3.72165">
        <ele>66.8</ele>
        <time>2021-04-13T08:15:00Z</time>
      </trkpt>
      <trkpt lat="43.5334" lon="3.72161">
        <ele>67</ele>
        <time>2021-04-13T08:15:01Z</time>
      </trkpt>
      <trkpt lat="43.53338" lon="3.72157">
        <ele>67</ele>
        <time>2021-04-13T08:15:02Z</time>
      </trkpt>
      <trkpt lat="43.53337" lon="3.72153">
        <ele>67.2</ele>
        <time>2021-04-13T08:15:03Z</time>
      </trkpt>
      <trkpt lat="43.53335" lon="3.7215">
        <ele>67.4</ele>
        <time>2021-04-13T08:15:04Z</time>
      </trkpt>
      <trkpt lat="43.53333" lon="3.72146">
        <ele>67.4</ele>
        <time>2021-04-13T08:15:05Z</time>
      </trkpt>
      <trkpt lat="43.53329" lon="3.72138">
        <ele>67.4</ele>
        <time>2021-04-13T08:15:06Z</time>
      </trkpt>
      <trkpt lat="43.53329" lon="3.72138">
        <ele>67.4</ele>
        <time>2021-04-13T08:15:07Z</time>
      </trkpt>
      <trkpt lat="43.53327" lon="3.72134">
        <ele>67.4</ele>
        <time>2021-04-13T08:15:08Z</time>
      </trkpt>
      <trkpt lat="43.53325" lon="3.7213">
        <ele>67.4</ele>
        <time>2021-04-13T08:15:09Z</time>
      </trkpt>
      <trkpt lat="43.53322" lon="3.72126">
        <ele>67.4</ele>
        <time>2021-04-13T08:15:10Z</time>
      </trkpt>
      <trkpt lat="43.5332" lon="3.72122">
        <ele>67.4</ele>
        <time>2021-04-13T08:15:11Z</time>
      </trkpt>
      <trkpt lat="43.53317" lon="3.72118">
        <ele>67.4</ele>
        <time>2021-04-13T08:15:12Z</time>
      </trkpt>
      <trkpt lat="43.53315" lon="3.72114">
        <ele>67.6</ele>
        <time>2021-04-13T08:15:13Z</time>
      </trkpt>
      <trkpt lat="43.5331" lon="3.72107">
        <ele>67.6</ele>
        <time>2021-04-13T08:15:14Z</time>
      </trkpt>
      <trkpt lat="43.5331" lon="3.72107">
        <ele>67.6</ele>
        <time>2021-04-13T08:15:15Z</time>
      </trkpt>
      <trkpt lat="43.53307" lon="3.72103">
        <ele>67.6</ele>
        <time>2021-04-13T08:15:16Z</time>
      </trkpt>
      <trkpt lat="43.53305" lon="3.72101">
        <ele>67.6</ele>
        <time>2021-04-13T08:15:17Z</time>
      </trkpt>
      <trkpt lat="43.53305" lon="3.72099">
        <ele>67.6</ele>
        <time>2021-04-13T08:15:18Z</time>
      </trkpt>
      <trkpt lat="43.53305" lon="3.72099">
        <ele>67.6</ele>
        <time>2021-04-13T08:15:19Z</time>
      </trkpt>
      <trkpt lat="43.53305" lon="3.72099">
        <ele>67.4</ele>
        <time>2021-04-13T08:15:20Z</time>
      </trkpt>
      <trkpt lat="43.53305" lon="3.72099">
        <ele>67.2</ele>
        <time>2021-04-13T08:15:21Z</time>
      </trkpt>
      <trkpt lat="43.53305" lon="3.72099">
        <ele>67.2</ele>
        <time>2021-04-13T08:15:22Z</time>
      </trkpt>
      <trkpt lat="43.53305" lon="3.72099">
        <ele>67.4</ele>
        <time>2021-04-13T08:15:23Z</time>
      </trkpt>
      <trkpt lat="43.53305" lon="3.72099">
        <ele>67.4</ele>
        <time>2021-04-13T08:15:24Z</time>
      </trkpt>
      <trkpt lat="43.53305" lon="3.72099">
        <ele>67.4</ele>
        <time>2021-04-13T08:15:25Z</time>
      </trkpt>
      <trkpt lat="43.5328" lon="3.72071">
        <ele>68.2</ele>
        <time>2021-04-13T08:16:09Z</time>
      </trkpt>
      <trkpt lat="43.53274" lon="3.72064">
        <ele>68.2</ele>
        <time>2021-04-13T08:16:10Z</time>
      </trkpt>
      <trkpt lat="43.53271" lon="3.72061">
        <ele>68.2</ele>
        <time>2021-04-13T08:16:11Z</time>
      </trkpt>
      <trkpt lat="43.53268" lon="3.72058">
        <ele>68.4</ele>
        <time>2021-04-13T08:16:12Z</time>
      </trkpt>
      <trkpt lat="43.53268" lon="3.72058">
        <ele>68.4</ele>
        <time>2021-04-13T08:16:13Z</time>
      </trkpt>
      <trkpt lat="43.53263" lon="3.72053">
        <ele>68.6</ele>
        <time>2021-04-13T08:16:14Z</time>
      </trkpt>
      <trkpt lat="43.53263" lon="3.72053">
        <ele>68.6</ele>
        <time>2021-04-13T08:16:15Z</time>
      </trkpt>
      <trkpt lat="43.53261" lon="3.7205">
        <ele>68.6</ele>
        <time>2021-04-13T08:16:16Z</time>
      </trkpt>
      <trkpt lat="43.53258" lon="3.72047">
        <ele>68.6</ele>
        <time>2021-04-13T08:16:17Z</time>
      </trkpt>
      <trkpt lat="43.53256" lon="3.72045">
        <ele>68.8</ele>
        <time>2021-04-13T08:16:18Z</time>
      </trkpt>
      <trkpt lat="43.53256" lon="3.72045">
        <ele>68.8</ele>
        <time>2021-04-13T08:16:19Z</time>
      </trkpt>
      <trkpt lat="43.53252" lon="3.72043">
        <ele>68.8</ele>
        <time>2021-04-13T08:16:20Z</time>
      </trkpt>
      <trkpt lat="43.53251" lon="3.72041">
        <ele>68.6</ele>
        <time>2021-04-13T08:16:21Z</time>
      </trkpt>
      <trkpt lat="43.53249" lon="3.7204">
        <ele>68.6</ele>
        <time>2021-04-13T08:16:22Z</time>
      </trkpt>
      <trkpt lat="43.53248" lon="3.72039">
        <ele>68.6</ele>
        <time>2021-04-13T08:16:23Z</time>
      </trkpt>
      <trkpt lat="43.53247" lon="3.72037">
        <ele>68.6</ele>
        <time>2021-04-13T08:16:24Z</time>
      </trkpt>
      <trkpt lat="43.53246" lon="3.72036">
        <ele>68.6</ele>
        <time>2021-04-13T08:16:25Z</time>
      </trkpt>
      <trkpt lat="43.53246" lon="3.72036">
        <ele>68.6</ele>
        <time>2021-04-13T08:16:26Z</time>
      </trkpt>
      <trkpt lat="43.53244" lon="3.72034">
        <ele>68.6</ele>
        <time>2021-04-13T08:16:27Z</time>
      </trkpt>
      <trkpt lat="43.53243" lon="3.72033">
        <ele>68.4</ele>
        <time>2021-04-13T08:16:28Z</time>
      </trkpt>
      <trkpt lat="43.53243" lon="3.72033">
        <ele>68.6</ele>
        <time>2021-04-13T08:16:29Z</time>
      </trkpt>
      <trkpt lat="43.53242" lon="3.72033">
        <ele>68.6</ele>
        <time>2021-04-13T08:16:30Z</time>
      </trkpt>
      <trkpt lat="43.53241" lon="3.72034">
        <ele>68.6</ele>
        <time>2021-04-13T08:16:31Z</time>
      </trkpt>
      <trkpt lat="43.53241" lon="3.72034">
        <ele>68.6</ele>
        <time>2021-04-13T08:16:32Z</time>
      </trkpt>
      <trkpt lat="43.53241" lon="3.72035">
        <ele>68.6</ele>
        <time>2021-04-13T08:16:33Z</time>
      </trkpt>
      <trkpt lat="43.53244" lon="3.72038">
        <ele>68.8</ele>
        <time>2021-04-13T08:16:34Z</time>
      </trkpt>
      <trkpt lat="43.53244" lon="3.72038">
        <ele>68.6</ele>
        <time>2021-04-13T08:16:35Z</time>
      </trkpt>
      <trkpt lat="43.53248" lon="3.72041">
        <ele>68.6</ele>
        <time>2021-04-13T08:16:36Z</time>
      </trkpt>
      <trkpt lat="43.53251" lon="3.72043">
        <ele>68.6</ele>
        <time>2021-04-13T08:16:37Z</time>
      </trkpt>
      <trkpt lat="43.53254" lon="3.72045">
        <ele>68.6</ele>
        <time>2021-04-13T08:16:38Z</time>
      </trkpt>
      <trkpt lat="43.53257" lon="3.72046">
        <ele>68.8</ele>
        <time>2021-04-13T08:16:39Z</time>
      </trkpt>
      <trkpt lat="43.5326" lon="3.72046">
        <ele>68.6</ele>
        <time>2021-04-13T08:16:40Z</time>
      </trkpt>
      <trkpt lat="43.53263" lon="3.72044">
        <ele>68.6</ele>
        <time>2021-04-13T08:16:41Z</time>
      </trkpt>
      <trkpt lat="43.53265" lon="3.72041">
        <ele>68.8</ele>
        <time>2021-04-13T08:16:42Z</time>
      </trkpt>
      <trkpt lat="43.53265" lon="3.72037">
        <ele>68.6</ele>
        <time>2021-04-13T08:16:43Z</time>
      </trkpt>
      <trkpt lat="43.53265" lon="3.72037">
        <ele>68.6</ele>
        <time>2021-04-13T08:16:44Z</time>
      </trkpt>
      <trkpt lat="43.53264" lon="3.72029">
        <ele>68.4</ele>
        <time>2021-04-13T08:16:45Z</time>
      </trkpt>
      <trkpt lat="43.53262" lon="3.72025">
        <ele>68.4</ele>
        <time>2021-04-13T08:16:46Z</time>
      </trkpt>
      <trkpt lat="43.53262" lon="3.72025">
        <ele>68.4</ele>
        <time>2021-04-13T08:16:47Z</time>
      </trkpt>
      <trkpt lat="43.53257" lon="3.72019">
        <ele>68.6</ele>
        <time>2021-04-13T08:16:48Z</time>
      </trkpt>
      <trkpt lat="43.53254" lon="3.72017">
        <ele>68.6</ele>
        <time>2021-04-13T08:16:49Z</time>
      </trkpt>
      <trkpt lat="43.53252" lon="3.72013">
        <ele>68.6</ele>
        <time>2021-04-13T08:16:50Z</time>
      </trkpt>
      <trkpt lat="43.53252" lon="3.72013">
        <ele>68.6</ele>
        <time>2021-04-13T08:16:51Z</time>
      </trkpt>
      <trkpt lat="43.53248" lon="3.72007">
        <ele>68.8</ele>
        <time>2021-04-13T08:16:52Z</time>
      </trkpt>
      <trkpt lat="43.53246" lon="3.72003">
        <ele>69</ele>
        <time>2021-04-13T08:16:53Z</time>
      </trkpt>
      <trkpt lat="43.53244" lon="3.72">
        <ele>69.2</ele>
        <time>2021-04-13T08:16:54Z</time>
      </trkpt>
      <trkpt lat="43.53242" lon="3.71996">
        <ele>69.4</ele>
        <time>2021-04-13T08:16:55Z</time>
      </trkpt>
      <trkpt lat="43.5324" lon="3.71993">
        <ele>69.4</ele>
        <time>2021-04-13T08:16:56Z</time>
      </trkpt>
      <trkpt lat="43.53238" lon="3.71989">
        <ele>69.4</ele>
        <time>2021-04-13T08:16:57Z</time>
      </trkpt>
      <trkpt lat="43.53235" lon="3.71986">
        <ele>69.4</ele>
        <time>2021-04-13T08:16:58Z</time>
      </trkpt>
      <trkpt lat="43.53233" lon="3.71982">
        <ele>69.4</ele>
        <time>2021-04-13T08:16:59Z</time>
      </trkpt>
      <trkpt lat="43.53233" lon="3.71982">
        <ele>69.4</ele>
        <time>2021-04-13T08:17:00Z</time>
      </trkpt>
      <trkpt lat="43.53229" lon="3.71975">
        <ele>69.6</ele>
        <time>2021-04-13T08:17:01Z</time>
      </trkpt>
      <trkpt lat="43.53227" lon="3.71971">
        <ele>69.6</ele>
        <time>2021-04-13T08:17:02Z</time>
      </trkpt>
      <trkpt lat="43.53226" lon="3.71968">
        <ele>69.8</ele>
        <time>2021-04-13T08:17:03Z</time>
      </trkpt>
      <trkpt lat="43.53226" lon="3.71968">
        <ele>69.8</ele>
        <time>2021-04-13T08:17:04Z</time>
      </trkpt>
      <trkpt lat="43.53222" lon="3.71961">
        <ele>70</ele>
        <time>2021-04-13T08:17:05Z</time>
      </trkpt>
      <trkpt lat="43.5322" lon="3.71957">
        <ele>70</ele>
        <time>2021-04-13T08:17:06Z</time>
      </trkpt>
      <trkpt lat="43.53219" lon="3.71954">
        <ele>70</ele>
        <time>2021-04-13T08:17:07Z</time>
      </trkpt>
      <trkpt lat="43.53217" lon="3.7195">
        <ele>69.8</ele>
        <time>2021-04-13T08:17:08Z</time>
      </trkpt>
      <trkpt lat="43.53216" lon="3.71946">
        <ele>70.4</ele>
        <time>2021-04-13T08:17:09Z</time>
      </trkpt>
      <trkpt lat="43.53215" lon="3.71943">
        <ele>70.6</ele>
        <time>2021-04-13T08:17:10Z</time>
      </trkpt>
      <trkpt lat="43.53215" lon="3.71939">
        <ele>70.8</ele>
        <time>2021-04-13T08:17:11Z</time>
      </trkpt>
      <trkpt lat="43.53215" lon="3.71935">
        <ele>70.8</ele>
        <time>2021-04-13T08:17:12Z</time>
      </trkpt>
      <trkpt lat="43.53216" lon="3.71931">
        <ele>70.6</ele>
        <time>2021-04-13T08:17:13Z</time>
      </trkpt>
      <trkpt lat="43.53217" lon="3.71928">
        <ele>70.8</ele>
        <time>2021-04-13T08:17:14Z</time>
      </trkpt>
      <trkpt lat="43.53219" lon="3.71925">
        <ele>70.8</ele>
        <time>2021-04-13T08:17:15Z</time>
      </trkpt>
      <trkpt lat="43.53221" lon="3.71922">
        <ele>71</ele>
        <time>2021-04-13T08:17:16Z</time>
      </trkpt>
      <trkpt lat="43.53224" lon="3.71921">
        <ele>71</ele>
        <time>2021-04-13T08:17:17Z</time>
      </trkpt>
      <trkpt lat="43.53227" lon="3.7192">
        <ele>71</ele>
        <time>2021-04-13T08:17:18Z</time>
      </trkpt>
      <trkpt lat="43.53229" lon="3.71921">
        <ele>71.2</ele>
        <time>2021-04-13T08:17:19Z</time>
      </trkpt>
      <trkpt lat="43.53232" lon="3.71923">
        <ele>70.8</ele>
        <time>2021-04-13T08:17:20Z</time>
      </trkpt>
      <trkpt lat="43.53235" lon="3.71925">
        <ele>70.6</ele>
        <time>2021-04-13T08:17:21Z</time>
      </trkpt>
      <trkpt lat="43.53238" lon="3.71929">
        <ele>70.6</ele>
        <time>2021-04-13T08:17:22Z</time>
      </trkpt>
      <trkpt lat="43.53241" lon="3.71933">
        <ele>70</ele>
        <time>2021-04-13T08:17:23Z</time>
      </trkpt>
      <trkpt lat="43.53244" lon="3.71937">
        <ele>69.8</ele>
        <time>2021-04-13T08:17:24Z</time>
      </trkpt>
      <trkpt lat="43.53248" lon="3.71941">
        <ele>69</ele>
        <time>2021-04-13T08:17:25Z</time>
      </trkpt>
      <trkpt lat="43.53252" lon="3.71944">
        <ele>68.4</ele>
        <time>2021-04-13T08:17:26Z</time>
      </trkpt>
      <trkpt lat="43.53256" lon="3.71945">
        <ele>67.4</ele>
        <time>2021-04-13T08:17:27Z</time>
      </trkpt>
      <trkpt lat="43.53261" lon="3.71944">
        <ele>66.6</ele>
        <time>2021-04-13T08:17:28Z</time>
      </trkpt>
      <trkpt lat="43.53267" lon="3.7194">
        <ele>66</ele>
        <time>2021-04-13T08:17:29Z</time>
      </trkpt>
      <trkpt lat="43.53272" lon="3.71935">
        <ele>65.6</ele>
        <time>2021-04-13T08:17:30Z</time>
      </trkpt>
      <trkpt lat="43.53277" lon="3.71931">
        <ele>65.4</ele>
        <time>2021-04-13T08:17:31Z</time>
      </trkpt>
      <trkpt lat="43.53281" lon="3.71926">
        <ele>65.2</ele>
        <time>2021-04-13T08:17:32Z</time>
      </trkpt>
      <trkpt lat="43.53283" lon="3.7192">
        <ele>65</ele>
        <time>2021-04-13T08:17:33Z</time>
      </trkpt>
      <trkpt lat="43.53284" lon="3.71913">
        <ele>64</ele>
        <time>2021-04-13T08:17:34Z</time>
      </trkpt>
      <trkpt lat="43.53284" lon="3.71905">
        <ele>62.8</ele>
        <time>2021-04-13T08:17:35Z</time>
      </trkpt>
      <trkpt lat="43.53283" lon="3.71896">
        <ele>62</ele>
        <time>2021-04-13T08:17:36Z</time>
      </trkpt>
      <trkpt lat="43.53282" lon="3.71887">
        <ele>61.2</ele>
        <time>2021-04-13T08:17:37Z</time>
      </trkpt>
      <trkpt lat="43.53281" lon="3.71877">
        <ele>60.8</ele>
        <time>2021-04-13T08:17:38Z</time>
      </trkpt>
      <trkpt lat="43.53279" lon="3.71868">
        <ele>60.4</ele>
        <time>2021-04-13T08:17:39Z</time>
      </trkpt>
      <trkpt lat="43.53277" lon="3.71859">
        <ele>60</ele>
        <time>2021-04-13T08:17:40Z</time>
      </trkpt>
      <trkpt lat="43.53273" lon="3.7185">
        <ele>59.8</ele>
        <time>2021-04-13T08:17:41Z</time>
      </trkpt>
      <trkpt lat="43.5327" lon="3.71842">
        <ele>59.6</ele>
        <time>2021-04-13T08:17:42Z</time>
      </trkpt>
      <trkpt lat="43.53267" lon="3.71833">
        <ele>59.6</ele>
        <time>2021-04-13T08:17:43Z</time>
      </trkpt>
      <trkpt lat="43.53265" lon="3.71824">
        <ele>59.2</ele>
        <time>2021-04-13T08:17:44Z</time>
      </trkpt>
      <trkpt lat="43.53265" lon="3.71815">
        <ele>59</ele>
        <time>2021-04-13T08:17:45Z</time>
      </trkpt>
      <trkpt lat="43.53265" lon="3.71806">
        <ele>58.8</ele>
        <time>2021-04-13T08:17:46Z</time>
      </trkpt>
      <trkpt lat="43.53267" lon="3.71797">
        <ele>58.2</ele>
        <time>2021-04-13T08:17:47Z</time>
      </trkpt>
      <trkpt lat="43.53269" lon="3.71789">
        <ele>58</ele>
        <time>2021-04-13T08:17:48Z</time>
      </trkpt>
      <trkpt lat="43.5327" lon="3.71783">
        <ele>57.6</ele>
        <time>2021-04-13T08:17:49Z</time>
      </trkpt>
      <trkpt lat="43.53271" lon="3.71777">
        <ele>57.4</ele>
        <time>2021-04-13T08:17:50Z</time>
      </trkpt>
      <trkpt lat="43.53271" lon="3.71772">
        <ele>56.8</ele>
        <time>2021-04-13T08:17:51Z</time>
      </trkpt>
      <trkpt lat="43.5327" lon="3.71766">
        <ele>56.6</ele>
        <time>2021-04-13T08:17:52Z</time>
      </trkpt>
      <trkpt lat="43.53269" lon="3.71761">
        <ele>56.4</ele>
        <time>2021-04-13T08:17:53Z</time>
      </trkpt>
      <trkpt lat="43.53268" lon="3.71756">
        <ele>56.4</ele>
        <time>2021-04-13T08:17:54Z</time>
      </trkpt>
      <trkpt lat="43.53267" lon="3.71751">
        <ele>56.4</ele>
        <time>2021-04-13T08:17:55Z</time>
      </trkpt>
      <trkpt lat="43.53267" lon="3.71746">
        <ele>56.4</ele>
        <time>2021-04-13T08:17:56Z</time>
      </trkpt>
      <trkpt lat="43.53266" lon="3.71741">
        <ele>56.2</ele>
        <time>2021-04-13T08:17:57Z</time>
      </trkpt>
      <trkpt lat="43.53265" lon="3.71735">
        <ele>56</ele>
        <time>2021-04-13T08:17:58Z</time>
      </trkpt>
      <trkpt lat="43.53264" lon="3.7173">
        <ele>56</ele>
        <time>2021-04-13T08:17:59Z</time>
      </trkpt>
      <trkpt lat="43.53264" lon="3.71724">
        <ele>55.8</ele>
        <time>2021-04-13T08:18:00Z</time>
      </trkpt>
      <trkpt lat="43.53263" lon="3.71718">
        <ele>55.8</ele>
        <time>2021-04-13T08:18:01Z</time>
      </trkpt>
      <trkpt lat="43.53262" lon="3.71712">
        <ele>55.6</ele>
        <time>2021-04-13T08:18:02Z</time>
      </trkpt>
      <trkpt lat="43.53261" lon="3.71705">
        <ele>55.4</ele>
        <time>2021-04-13T08:18:03Z</time>
      </trkpt>
      <trkpt lat="43.5326" lon="3.71698">
        <ele>55.2</ele>
        <time>2021-04-13T08:18:04Z</time>
      </trkpt>
      <trkpt lat="43.53259" lon="3.71691">
        <ele>55</ele>
        <time>2021-04-13T08:18:05Z</time>
      </trkpt>
      <trkpt lat="43.53258" lon="3.71684">
        <ele>54.8</ele>
        <time>2021-04-13T08:18:06Z</time>
      </trkpt>
      <trkpt lat="43.53257" lon="3.71677">
        <ele>54.8</ele>
        <time>2021-04-13T08:18:07Z</time>
      </trkpt>
      <trkpt lat="43.53255" lon="3.7167">
        <ele>54.6</ele>
        <time>2021-04-13T08:18:08Z</time>
      </trkpt>
      <trkpt lat="43.53254" lon="3.71663">
        <ele>54.6</ele>
        <time>2021-04-13T08:18:09Z</time>
      </trkpt>
      <trkpt lat="43.53253" lon="3.71656">
        <ele>54.8</ele>
        <time>2021-04-13T08:18:10Z</time>
      </trkpt>
      <trkpt lat="43.53252" lon="3.71649">
        <ele>54.6</ele>
        <time>2021-04-13T08:18:11Z</time>
      </trkpt>
      <trkpt lat="43.5325" lon="3.71643">
        <ele>54.6</ele>
        <time>2021-04-13T08:18:12Z</time>
      </trkpt>
      <trkpt lat="43.53249" lon="3.71636">
        <ele>54.2</ele>
        <time>2021-04-13T08:18:13Z</time>
      </trkpt>
      <trkpt lat="43.53247" lon="3.71629">
        <ele>54.2</ele>
        <time>2021-04-13T08:18:14Z</time>
      </trkpt>
      <trkpt lat="43.53246" lon="3.71622">
        <ele>54.2</ele>
        <time>2021-04-13T08:18:15Z</time>
      </trkpt>
      <trkpt lat="43.53245" lon="3.71616">
        <ele>54.2</ele>
        <time>2021-04-13T08:18:16Z</time>
      </trkpt>
      <trkpt lat="43.53244" lon="3.71609">
        <ele>54.2</ele>
        <time>2021-04-13T08:18:17Z</time>
      </trkpt>
      <trkpt lat="43.53243" lon="3.71602">
        <ele>54.2</ele>
        <time>2021-04-13T08:18:18Z</time>
      </trkpt>
      <trkpt lat="43.53243" lon="3.71595">
        <ele>54</ele>
        <time>2021-04-13T08:18:19Z</time>
      </trkpt>
      <trkpt lat="43.53242" lon="3.71589">
        <ele>54</ele>
        <time>2021-04-13T08:18:20Z</time>
      </trkpt>
      <trkpt lat="43.53241" lon="3.71582">
        <ele>54</ele>
        <time>2021-04-13T08:18:21Z</time>
      </trkpt>
      <trkpt lat="43.53239" lon="3.71575">
        <ele>53.8</ele>
        <time>2021-04-13T08:18:22Z</time>
      </trkpt>
      <trkpt lat="43.53238" lon="3.71568">
        <ele>53.8</ele>
        <time>2021-04-13T08:18:23Z</time>
      </trkpt>
      <trkpt lat="43.53236" lon="3.71561">
        <ele>53.8</ele>
        <time>2021-04-13T08:18:24Z</time>
      </trkpt>
      <trkpt lat="43.53234" lon="3.71554">
        <ele>53.6</ele>
        <time>2021-04-13T08:18:25Z</time>
      </trkpt>
      <trkpt lat="43.53233" lon="3.71547">
        <ele>53.6</ele>
        <time>2021-04-13T08:18:26Z</time>
      </trkpt>
      <trkpt lat="43.53231" lon="3.7154">
        <ele>53.6</ele>
        <time>2021-04-13T08:18:27Z</time>
      </trkpt>
      <trkpt lat="43.53229" lon="3.71533">
        <ele>53.8</ele>
        <time>2021-04-13T08:18:28Z</time>
      </trkpt>
      <trkpt lat="43.53227" lon="3.71526">
        <ele>53.6</ele>
        <time>2021-04-13T08:18:29Z</time>
      </trkpt>
      <trkpt lat="43.53225" lon="3.71519">
        <ele>53.6</ele>
        <time>2021-04-13T08:18:30Z</time>
      </trkpt>
      <trkpt lat="43.53224" lon="3.71513">
        <ele>53.6</ele>
        <time>2021-04-13T08:18:31Z</time>
      </trkpt>
      <trkpt lat="43.53222" lon="3.71508">
        <ele>53.4</ele>
        <time>2021-04-13T08:18:32Z</time>
      </trkpt>
      <trkpt lat="43.53221" lon="3.71503">
        <ele>53.2</ele>
        <time>2021-04-13T08:18:33Z</time>
      </trkpt>
      <trkpt lat="43.5322" lon="3.71499">
        <ele>53</ele>
        <time>2021-04-13T08:18:34Z</time>
      </trkpt>
      <trkpt lat="43.53219" lon="3.71496">
        <ele>52.8</ele>
        <time>2021-04-13T08:18:35Z</time>
      </trkpt>
      <trkpt lat="43.53218" lon="3.71492">
        <ele>52.8</ele>
        <time>2021-04-13T08:18:36Z</time>
      </trkpt>
      <trkpt lat="43.53218" lon="3.71489">
        <ele>52.8</ele>
        <time>2021-04-13T08:18:37Z</time>
      </trkpt>
      <trkpt lat="43.53216" lon="3.71486">
        <ele>52.8</ele>
        <time>2021-04-13T08:18:38Z</time>
      </trkpt>
      <trkpt lat="43.53216" lon="3.71483">
        <ele>52.8</ele>
        <time>2021-04-13T08:18:39Z</time>
      </trkpt>
      <trkpt lat="43.53215" lon="3.7148">
        <ele>52.6</ele>
        <time>2021-04-13T08:18:40Z</time>
      </trkpt>
      <trkpt lat="43.53214" lon="3.71477">
        <ele>52.6</ele>
        <time>2021-04-13T08:18:41Z</time>
      </trkpt>
      <trkpt lat="43.53214" lon="3.71475">
        <ele>52.6</ele>
        <time>2021-04-13T08:18:42Z</time>
      </trkpt>
      <trkpt lat="43.53213" lon="3.71472">
        <ele>52.4</ele>
        <time>2021-04-13T08:18:43Z</time>
      </trkpt>
      <trkpt lat="43.53213" lon="3.71471">
        <ele>52.4</ele>
        <time>2021-04-13T08:18:44Z</time>
      </trkpt>
      <trkpt lat="43.53213" lon="3.71471">
        <ele>52.4</ele>
        <time>2021-04-13T08:18:45Z</time>
      </trkpt>
      <trkpt lat="43.53213" lon="3.71471">
        <ele>52.2</ele>
        <time>2021-04-13T08:18:46Z</time>
      </trkpt>
      <trkpt lat="43.53213" lon="3.7147">
        <ele>52.4</ele>
        <time>2021-04-13T08:18:47Z</time>
      </trkpt>
      <trkpt lat="43.53212" lon="3.71469">
        <ele>52.4</ele>
        <time>2021-04-13T08:18:48Z</time>
      </trkpt>
      <trkpt lat="43.53212" lon="3.71467">
        <ele>52.4</ele>
        <time>2021-04-13T08:18:49Z</time>
      </trkpt>
      <trkpt lat="43.53212" lon="3.71464">
        <ele>52.4</ele>
        <time>2021-04-13T08:18:50Z</time>
      </trkpt>
      <trkpt lat="43.53211" lon="3.71461">
        <ele>52.2</ele>
        <time>2021-04-13T08:18:51Z</time>
      </trkpt>
      <trkpt lat="43.53211" lon="3.71457">
        <ele>52.4</ele>
        <time>2021-04-13T08:18:52Z</time>
      </trkpt>
      <trkpt lat="43.5321" lon="3.71454">
        <ele>52.4</ele>
        <time>2021-04-13T08:18:53Z</time>
      </trkpt>
      <trkpt lat="43.5321" lon="3.7145">
        <ele>52.2</ele>
        <time>2021-04-13T08:18:54Z</time>
      </trkpt>
      <trkpt lat="43.53209" lon="3.71445">
        <ele>52.2</ele>
        <time>2021-04-13T08:18:55Z</time>
      </trkpt>
      <trkpt lat="43.53208" lon="3.71441">
        <ele>52.2</ele>
        <time>2021-04-13T08:18:56Z</time>
      </trkpt>
      <trkpt lat="43.53208" lon="3.71436">
        <ele>52</ele>
        <time>2021-04-13T08:18:57Z</time>
      </trkpt>
      <trkpt lat="43.53208" lon="3.7143">
        <ele>52.2</ele>
        <time>2021-04-13T08:18:58Z</time>
      </trkpt>
      <trkpt lat="43.53207" lon="3.71425">
        <ele>51.8</ele>
        <time>2021-04-13T08:18:59Z</time>
      </trkpt>
      <trkpt lat="43.53207" lon="3.71419">
        <ele>51.8</ele>
        <time>2021-04-13T08:19:00Z</time>
      </trkpt>
      <trkpt lat="43.53207" lon="3.71413">
        <ele>51.8</ele>
        <time>2021-04-13T08:19:01Z</time>
      </trkpt>
      <trkpt lat="43.53207" lon="3.71407">
        <ele>51.8</ele>
        <time>2021-04-13T08:19:02Z</time>
      </trkpt>
      <trkpt lat="43.53207" lon="3.71401">
        <ele>51.6</ele>
        <time>2021-04-13T08:19:03Z</time>
      </trkpt>
      <trkpt lat="43.53206" lon="3.71394">
        <ele>51.4</ele>
        <time>2021-04-13T08:19:04Z</time>
      </trkpt>
      <trkpt lat="43.53206" lon="3.71388">
        <ele>51.4</ele>
        <time>2021-04-13T08:19:05Z</time>
      </trkpt>
      <trkpt lat="43.53206" lon="3.71382">
        <ele>51.4</ele>
        <time>2021-04-13T08:19:06Z</time>
      </trkpt>
      <trkpt lat="43.53206" lon="3.71377">
        <ele>51</ele>
        <time>2021-04-13T08:19:07Z</time>
      </trkpt>
      <trkpt lat="43.53206" lon="3.71372">
        <ele>51</ele>
        <time>2021-04-13T08:19:08Z</time>
      </trkpt>
      <trkpt lat="43.53205" lon="3.71369">
        <ele>51</ele>
        <time>2021-04-13T08:19:09Z</time>
      </trkpt>
      <trkpt lat="43.53203" lon="3.71367">
        <ele>51</ele>
        <time>2021-04-13T08:19:10Z</time>
      </trkpt>
      <trkpt lat="43.53201" lon="3.71366">
        <ele>51</ele>
        <time>2021-04-13T08:19:11Z</time>
      </trkpt>
      <trkpt lat="43.532" lon="3.71367">
        <ele>51</ele>
        <time>2021-04-13T08:19:12Z</time>
      </trkpt>
      <trkpt lat="43.53198" lon="3.71368">
        <ele>51.4</ele>
        <time>2021-04-13T08:19:13Z</time>
      </trkpt>
      <trkpt lat="43.53197" lon="3.7137">
        <ele>51.6</ele>
        <time>2021-04-13T08:19:14Z</time>
      </trkpt>
      <trkpt lat="43.53195" lon="3.71371">
        <ele>51.6</ele>
        <time>2021-04-13T08:19:15Z</time>
      </trkpt>
      <trkpt lat="43.53195" lon="3.71371">
        <ele>51.8</ele>
        <time>2021-04-13T08:19:16Z</time>
      </trkpt>
      <trkpt lat="43.53193" lon="3.71373">
        <ele>51.8</ele>
        <time>2021-04-13T08:19:17Z</time>
      </trkpt>
      <trkpt lat="43.53192" lon="3.71375">
        <ele>52</ele>
        <time>2021-04-13T08:19:18Z</time>
      </trkpt>
      <trkpt lat="43.53191" lon="3.71376">
        <ele>52</ele>
        <time>2021-04-13T08:19:19Z</time>
      </trkpt>
      <trkpt lat="43.53189" lon="3.71378">
        <ele>52.2</ele>
        <time>2021-04-13T08:19:20Z</time>
      </trkpt>
      <trkpt lat="43.53188" lon="3.71379">
        <ele>52.2</ele>
        <time>2021-04-13T08:19:21Z</time>
      </trkpt>
      <trkpt lat="43.53187" lon="3.71381">
        <ele>52.2</ele>
        <time>2021-04-13T08:19:22Z</time>
      </trkpt>
      <trkpt lat="43.53186" lon="3.71383">
        <ele>52.4</ele>
        <time>2021-04-13T08:19:23Z</time>
      </trkpt>
      <trkpt lat="43.53184" lon="3.71385">
        <ele>52.4</ele>
        <time>2021-04-13T08:19:24Z</time>
      </trkpt>
      <trkpt lat="43.53183" lon="3.71387">
        <ele>52.8</ele>
        <time>2021-04-13T08:19:25Z</time>
      </trkpt>
      <trkpt lat="43.53182" lon="3.71389">
        <ele>53</ele>
        <time>2021-04-13T08:19:26Z</time>
      </trkpt>
      <trkpt lat="43.53181" lon="3.7139">
        <ele>53</ele>
        <time>2021-04-13T08:19:27Z</time>
      </trkpt>
      <trkpt lat="43.5318" lon="3.71392">
        <ele>53.2</ele>
        <time>2021-04-13T08:19:28Z</time>
      </trkpt>
      <trkpt lat="43.53178" lon="3.71393">
        <ele>53.2</ele>
        <time>2021-04-13T08:19:29Z</time>
      </trkpt>
      <trkpt lat="43.53177" lon="3.71395">
        <ele>53.2</ele>
        <time>2021-04-13T08:19:30Z</time>
      </trkpt>
      <trkpt lat="43.53176" lon="3.71396">
        <ele>53.2</ele>
        <time>2021-04-13T08:19:31Z</time>
      </trkpt>
      <trkpt lat="43.53174" lon="3.71398">
        <ele>53.4</ele>
        <time>2021-04-13T08:19:32Z</time>
      </trkpt>
      <trkpt lat="43.53173" lon="3.714">
        <ele>53.4</ele>
        <time>2021-04-13T08:19:33Z</time>
      </trkpt>
      <trkpt lat="43.53172" lon="3.71402">
        <ele>53.4</ele>
        <time>2021-04-13T08:19:34Z</time>
      </trkpt>
      <trkpt lat="43.5317" lon="3.71404">
        <ele>53.6</ele>
        <time>2021-04-13T08:19:35Z</time>
      </trkpt>
      <trkpt lat="43.53169" lon="3.71406">
        <ele>53.6</ele>
        <time>2021-04-13T08:19:36Z</time>
      </trkpt>
      <trkpt lat="43.53167" lon="3.71408">
        <ele>53.6</ele>
        <time>2021-04-13T08:19:37Z</time>
      </trkpt>
      <trkpt lat="43.53166" lon="3.7141">
        <ele>53.8</ele>
        <time>2021-04-13T08:19:38Z</time>
      </trkpt>
      <trkpt lat="43.53165" lon="3.71412">
        <ele>53.8</ele>
        <time>2021-04-13T08:19:39Z</time>
      </trkpt>
      <trkpt lat="43.53164" lon="3.71414">
        <ele>53.8</ele>
        <time>2021-04-13T08:19:40Z</time>
      </trkpt>
      <trkpt lat="43.53163" lon="3.71416">
        <ele>54.2</ele>
        <time>2021-04-13T08:19:41Z</time>
      </trkpt>
      <trkpt lat="43.53162" lon="3.71418">
        <ele>54.4</ele>
        <time>2021-04-13T08:19:42Z</time>
      </trkpt>
      <trkpt lat="43.53161" lon="3.7142">
        <ele>54.4</ele>
        <time>2021-04-13T08:19:43Z</time>
      </trkpt>
      <trkpt lat="43.5316" lon="3.71422">
        <ele>54.8</ele>
        <time>2021-04-13T08:19:44Z</time>
      </trkpt>
      <trkpt lat="43.5316" lon="3.71424">
        <ele>55.2</ele>
        <time>2021-04-13T08:19:45Z</time>
      </trkpt>
      <trkpt lat="43.5316" lon="3.71426">
        <ele>55.2</ele>
        <time>2021-04-13T08:19:46Z</time>
      </trkpt>
      <trkpt lat="43.5316" lon="3.71429">
        <ele>55.2</ele>
        <time>2021-04-13T08:19:47Z</time>
      </trkpt>
      <trkpt lat="43.5316" lon="3.71431">
        <ele>55.2</ele>
        <time>2021-04-13T08:19:48Z</time>
      </trkpt>
      <trkpt lat="43.5316" lon="3.71434">
        <ele>55.2</ele>
        <time>2021-04-13T08:19:49Z</time>
      </trkpt>
      <trkpt lat="43.5316" lon="3.71436">
        <ele>55.4</ele>
        <time>2021-04-13T08:19:50Z</time>
      </trkpt>
      <trkpt lat="43.53159" lon="3.71439">
        <ele>55.4</ele>
        <time>2021-04-13T08:19:51Z</time>
      </trkpt>
      <trkpt lat="43.53159" lon="3.71442">
        <ele>55.6</ele>
        <time>2021-04-13T08:19:52Z</time>
      </trkpt>
      <trkpt lat="43.53159" lon="3.71444">
        <ele>55.6</ele>
        <time>2021-04-13T08:19:53Z</time>
      </trkpt>
      <trkpt lat="43.53158" lon="3.71446">
        <ele>55.8</ele>
        <time>2021-04-13T08:19:54Z</time>
      </trkpt>
      <trkpt lat="43.53157" lon="3.71449">
        <ele>55.8</ele>
        <time>2021-04-13T08:19:55Z</time>
      </trkpt>
      <trkpt lat="43.53156" lon="3.71451">
        <ele>55.8</ele>
        <time>2021-04-13T08:19:56Z</time>
      </trkpt>
      <trkpt lat="43.53155" lon="3.71453">
        <ele>56</ele>
        <time>2021-04-13T08:19:57Z</time>
      </trkpt>
      <trkpt lat="43.53154" lon="3.71455">
        <ele>56</ele>
        <time>2021-04-13T08:19:58Z</time>
      </trkpt>
      <trkpt lat="43.53153" lon="3.71457">
        <ele>56.2</ele>
        <time>2021-04-13T08:19:59Z</time>
      </trkpt>
      <trkpt lat="43.53152" lon="3.71458">
        <ele>56.2</ele>
        <time>2021-04-13T08:20:00Z</time>
      </trkpt>
      <trkpt lat="43.53151" lon="3.7146">
        <ele>56.4</ele>
        <time>2021-04-13T08:20:01Z</time>
      </trkpt>
      <trkpt lat="43.5315" lon="3.71461">
        <ele>56.4</ele>
        <time>2021-04-13T08:20:02Z</time>
      </trkpt>
      <trkpt lat="43.53149" lon="3.71463">
        <ele>56.4</ele>
        <time>2021-04-13T08:20:03Z</time>
      </trkpt>
      <trkpt lat="43.53148" lon="3.71465">
        <ele>56.6</ele>
        <time>2021-04-13T08:20:04Z</time>
      </trkpt>
      <trkpt lat="43.53147" lon="3.71466">
        <ele>56.8</ele>
        <time>2021-04-13T08:20:05Z</time>
      </trkpt>
      <trkpt lat="43.53147" lon="3.71467">
        <ele>56.8</ele>
        <time>2021-04-13T08:20:06Z</time>
      </trkpt>
      <trkpt lat="43.53147" lon="3.71467">
        <ele>56.8</ele>
        <time>2021-04-13T08:20:07Z</time>
      </trkpt>
      <trkpt lat="43.53147" lon="3.71467">
        <ele>56.8</ele>
        <time>2021-04-13T08:20:08Z</time>
      </trkpt>
      <trkpt lat="43.53146" lon="3.71467">
        <ele>56.8</ele>
        <time>2021-04-13T08:20:09Z</time>
      </trkpt>
      <trkpt lat="43.53145" lon="3.71468">
        <ele>56.8</ele>
        <time>2021-04-13T08:20:10Z</time>
      </trkpt>
      <trkpt lat="43.53145" lon="3.71468">
        <ele>56.8</ele>
        <time>2021-04-13T08:20:11Z</time>
      </trkpt>
      <trkpt lat="43.53144" lon="3.71468">
        <ele>57</ele>
        <time>2021-04-13T08:20:12Z</time>
      </trkpt>
      <trkpt lat="43.53144" lon="3.71469">
        <ele>57</ele>
        <time>2021-04-13T08:20:13Z</time>
      </trkpt>
      <trkpt lat="43.53153" lon="3.71455">
        <ele>55.8</ele>
        <time>2021-04-13T08:23:48Z</time>
      </trkpt>
      <trkpt lat="43.53154" lon="3.71454">
        <ele>55.6</ele>
        <time>2021-04-13T08:23:49Z</time>
      </trkpt>
      <trkpt lat="43.53154" lon="3.71453">
        <ele>55.4</ele>
        <time>2021-04-13T08:23:50Z</time>
      </trkpt>
      <trkpt lat="43.53155" lon="3.71452">
        <ele>55.4</ele>
        <time>2021-04-13T08:23:51Z</time>
      </trkpt>
      <trkpt lat="43.53155" lon="3.71451">
        <ele>55.2</ele>
        <time>2021-04-13T08:23:52Z</time>
      </trkpt>
      <trkpt lat="43.53156" lon="3.71449">
        <ele>55.2</ele>
        <time>2021-04-13T08:23:53Z</time>
      </trkpt>
      <trkpt lat="43.53156" lon="3.71448">
        <ele>55</ele>
        <time>2021-04-13T08:23:54Z</time>
      </trkpt>
      <trkpt lat="43.53157" lon="3.71447">
        <ele>55</ele>
        <time>2021-04-13T08:23:55Z</time>
      </trkpt>
      <trkpt lat="43.53158" lon="3.71445">
        <ele>54.6</ele>
        <time>2021-04-13T08:23:56Z</time>
      </trkpt>
      <trkpt lat="43.53158" lon="3.71443">
        <ele>54.6</ele>
        <time>2021-04-13T08:23:57Z</time>
      </trkpt>
      <trkpt lat="43.53158" lon="3.71442">
        <ele>54.6</ele>
        <time>2021-04-13T08:23:58Z</time>
      </trkpt>
      <trkpt lat="43.53158" lon="3.7144">
        <ele>54.4</ele>
        <time>2021-04-13T08:23:59Z</time>
      </trkpt>
      <trkpt lat="43.53159" lon="3.71438">
        <ele>54.4</ele>
        <time>2021-04-13T08:24:00Z</time>
      </trkpt>
      <trkpt lat="43.53159" lon="3.71437">
        <ele>54.4</ele>
        <time>2021-04-13T08:24:01Z</time>
      </trkpt>
      <trkpt lat="43.53159" lon="3.71437">
        <ele>54.4</ele>
        <time>2021-04-13T08:24:02Z</time>
      </trkpt>
      <trkpt lat="43.53158" lon="3.71436">
        <ele>54.4</ele>
        <time>2021-04-13T08:24:03Z</time>
      </trkpt>
      <trkpt lat="43.53158" lon="3.71436">
        <ele>54</ele>
        <time>2021-04-13T08:24:04Z</time>
      </trkpt>
      <trkpt lat="43.53158" lon="3.71436">
        <ele>54</ele>
        <time>2021-04-13T08:24:05Z</time>
      </trkpt>
      <trkpt lat="43.53158" lon="3.71436">
        <ele>54</ele>
        <time>2021-04-13T08:24:06Z</time>
      </trkpt>
      <trkpt lat="43.53158" lon="3.71436">
        <ele>54</ele>
        <time>2021-04-13T08:24:07Z</time>
      </trkpt>
      <trkpt lat="43.53158" lon="3.71436">
        <ele>54</ele>
        <time>2021-04-13T08:24:08Z</time>
      </trkpt>
      <trkpt lat="43.53158" lon="3.71436">
        <ele>54.2</ele>
        <time>2021-04-13T08:24:09Z</time>
      </trkpt>
      <trkpt lat="43.53154" lon="3.71422">
        <ele>54.4</ele>
        <time>2021-04-13T08:24:19Z</time>
      </trkpt>
      <trkpt lat="43.53154" lon="3.71421">
        <ele>54.2</ele>
        <time>2021-04-13T08:24:20Z</time>
      </trkpt>
      <trkpt lat="43.53154" lon="3.71421">
        <ele>54</ele>
        <time>2021-04-13T08:24:21Z</time>
      </trkpt>
      <trkpt lat="43.53154" lon="3.71421">
        <ele>53.8</ele>
        <time>2021-04-13T08:24:22Z</time>
      </trkpt>
      <trkpt lat="43.53154" lon="3.71421">
        <ele>54</ele>
        <time>2021-04-13T08:24:23Z</time>
      </trkpt>
      <trkpt lat="43.53154" lon="3.71421">
        <ele>54</ele>
        <time>2021-04-13T08:24:24Z</time>
      </trkpt>
      <trkpt lat="43.53153" lon="3.71422">
        <ele>54</ele>
        <time>2021-04-13T08:24:25Z</time>
      </trkpt>
      <trkpt lat="43.53153" lon="3.71421">
        <ele>54</ele>
        <time>2021-04-13T08:24:26Z</time>
      </trkpt>
      <trkpt lat="43.53153" lon="3.71422">
        <ele>54</ele>
        <time>2021-04-13T08:24:27Z</time>
      </trkpt>
      <trkpt lat="43.53174" lon="3.71398">
        <ele>50.2</ele>
        <time>2021-04-13T08:28:12Z</time>
      </trkpt>
      <trkpt lat="43.53176" lon="3.71395">
        <ele>50.2</ele>
        <time>2021-04-13T08:28:13Z</time>
      </trkpt>
      <trkpt lat="43.53178" lon="3.71393">
        <ele>50</ele>
        <time>2021-04-13T08:28:14Z</time>
      </trkpt>
      <trkpt lat="43.5318" lon="3.71391">
        <ele>50</ele>
        <time>2021-04-13T08:28:15Z</time>
      </trkpt>
      <trkpt lat="43.53182" lon="3.71388">
        <ele>49.8</ele>
        <time>2021-04-13T08:28:16Z</time>
      </trkpt>
      <trkpt lat="43.53183" lon="3.71386">
        <ele>49.8</ele>
        <time>2021-04-13T08:28:17Z</time>
      </trkpt>
      <trkpt lat="43.53184" lon="3.71384">
        <ele>49.6</ele>
        <time>2021-04-13T08:28:18Z</time>
      </trkpt>
      <trkpt lat="43.53186" lon="3.71381">
        <ele>49.4</ele>
        <time>2021-04-13T08:28:19Z</time>
      </trkpt>
      <trkpt lat="43.53187" lon="3.71378">
        <ele>49.2</ele>
        <time>2021-04-13T08:28:20Z</time>
      </trkpt>
      <trkpt lat="43.53189" lon="3.71376">
        <ele>49.2</ele>
        <time>2021-04-13T08:28:21Z</time>
      </trkpt>
      <trkpt lat="43.53191" lon="3.71373">
        <ele>49</ele>
        <time>2021-04-13T08:28:22Z</time>
      </trkpt>
      <trkpt lat="43.53193" lon="3.71371">
        <ele>48.8</ele>
        <time>2021-04-13T08:28:23Z</time>
      </trkpt>
      <trkpt lat="43.53195" lon="3.71369">
        <ele>48.8</ele>
        <time>2021-04-13T08:28:24Z</time>
      </trkpt>
      <trkpt lat="43.53197" lon="3.71367">
        <ele>48.6</ele>
        <time>2021-04-13T08:28:25Z</time>
      </trkpt>
      <trkpt lat="43.53199" lon="3.71365">
        <ele>48.4</ele>
        <time>2021-04-13T08:28:26Z</time>
      </trkpt>
      <trkpt lat="43.53201" lon="3.71364">
        <ele>48.2</ele>
        <time>2021-04-13T08:28:27Z</time>
      </trkpt>
      <trkpt lat="43.53203" lon="3.71363">
        <ele>48.2</ele>
        <time>2021-04-13T08:28:28Z</time>
      </trkpt>
      <trkpt lat="43.53205" lon="3.71361">
        <ele>47.8</ele>
        <time>2021-04-13T08:28:29Z</time>
      </trkpt>
      <trkpt lat="43.53206" lon="3.71357">
        <ele>47.6</ele>
        <time>2021-04-13T08:28:30Z</time>
      </trkpt>
      <trkpt lat="43.53206" lon="3.71353">
        <ele>47.4</ele>
        <time>2021-04-13T08:28:31Z</time>
      </trkpt>
      <trkpt lat="43.53206" lon="3.71348">
        <ele>47.4</ele>
        <time>2021-04-13T08:28:32Z</time>
      </trkpt>
      <trkpt lat="43.53205" lon="3.71343">
        <ele>47.2</ele>
        <time>2021-04-13T08:28:33Z</time>
      </trkpt>
      <trkpt lat="43.53205" lon="3.71338">
        <ele>47.2</ele>
        <time>2021-04-13T08:28:34Z</time>
      </trkpt>
      <trkpt lat="43.53204" lon="3.71333">
        <ele>47</ele>
        <time>2021-04-13T08:28:35Z</time>
      </trkpt>
      <trkpt lat="43.53204" lon="3.71328">
        <ele>46.8</ele>
        <time>2021-04-13T08:28:36Z</time>
      </trkpt>
      <trkpt lat="43.53204" lon="3.71322">
        <ele>46.8</ele>
        <time>2021-04-13T08:28:37Z</time>
      </trkpt>
      <trkpt lat="43.53203" lon="3.71316">
        <ele>46.8</ele>
        <time>2021-04-13T08:28:38Z</time>
      </trkpt>
      <trkpt lat="43.53203" lon="3.7131">
        <ele>46.8</ele>
        <time>2021-04-13T08:28:39Z</time>
      </trkpt>
      <trkpt lat="43.53202" lon="3.71305">
        <ele>46.8</ele>
        <time>2021-04-13T08:28:40Z</time>
      </trkpt>
      <trkpt lat="43.53202" lon="3.71299">
        <ele>47</ele>
        <time>2021-04-13T08:28:41Z</time>
      </trkpt>
      <trkpt lat="43.53201" lon="3.71293">
        <ele>47</ele>
        <time>2021-04-13T08:28:42Z</time>
      </trkpt>
      <trkpt lat="43.53201" lon="3.71287">
        <ele>46.8</ele>
        <time>2021-04-13T08:28:43Z</time>
      </trkpt>
      <trkpt lat="43.532" lon="3.71281">
        <ele>46.8</ele>
        <time>2021-04-13T08:28:44Z</time>
      </trkpt>
      <trkpt lat="43.532" lon="3.71275">
        <ele>46.8</ele>
        <time>2021-04-13T08:28:45Z</time>
      </trkpt>
      <trkpt lat="43.53199" lon="3.71269">
        <ele>46.6</ele>
        <time>2021-04-13T08:28:46Z</time>
      </trkpt>
      <trkpt lat="43.53198" lon="3.71264">
        <ele>46.6</ele>
        <time>2021-04-13T08:28:47Z</time>
      </trkpt>
      <trkpt lat="43.53198" lon="3.71258">
        <ele>46.8</ele>
        <time>2021-04-13T08:28:48Z</time>
      </trkpt>
      <trkpt lat="43.53197" lon="3.71251">
        <ele>46.8</ele>
        <time>2021-04-13T08:28:49Z</time>
      </trkpt>
      <trkpt lat="43.53197" lon="3.71245">
        <ele>46.6</ele>
        <time>2021-04-13T08:28:50Z</time>
      </trkpt>
      <trkpt lat="43.53196" lon="3.71239">
        <ele>46.8</ele>
        <time>2021-04-13T08:28:51Z</time>
      </trkpt>
      <trkpt lat="43.53195" lon="3.71233">
        <ele>46.6</ele>
        <time>2021-04-13T08:28:52Z</time>
      </trkpt>
      <trkpt lat="43.53194" lon="3.71227">
        <ele>46.6</ele>
        <time>2021-04-13T08:28:53Z</time>
      </trkpt>
      <trkpt lat="43.53194" lon="3.7122">
        <ele>46.2</ele>
        <time>2021-04-13T08:28:54Z</time>
      </trkpt>
      <trkpt lat="43.53193" lon="3.71214">
        <ele>45.8</ele>
        <time>2021-04-13T08:28:55Z</time>
      </trkpt>
      <trkpt lat="43.53192" lon="3.71207">
        <ele>45.6</ele>
        <time>2021-04-13T08:28:56Z</time>
      </trkpt>
      <trkpt lat="43.53191" lon="3.71201">
        <ele>45.4</ele>
        <time>2021-04-13T08:28:57Z</time>
      </trkpt>
      <trkpt lat="43.53191" lon="3.71195">
        <ele>45.2</ele>
        <time>2021-04-13T08:28:58Z</time>
      </trkpt>
      <trkpt lat="43.53189" lon="3.71189">
        <ele>44.8</ele>
        <time>2021-04-13T08:28:59Z</time>
      </trkpt>
      <trkpt lat="43.53187" lon="3.71184">
        <ele>44.6</ele>
        <time>2021-04-13T08:29:00Z</time>
      </trkpt>
      <trkpt lat="43.53185" lon="3.71178">
        <ele>44.6</ele>
        <time>2021-04-13T08:29:01Z</time>
      </trkpt>
      <trkpt lat="43.53182" lon="3.71172">
        <ele>44.4</ele>
        <time>2021-04-13T08:29:02Z</time>
      </trkpt>
      <trkpt lat="43.5318" lon="3.71166">
        <ele>44.2</ele>
        <time>2021-04-13T08:29:03Z</time>
      </trkpt>
      <trkpt lat="43.53177" lon="3.7116">
        <ele>44</ele>
        <time>2021-04-13T08:29:04Z</time>
      </trkpt>
      <trkpt lat="43.53174" lon="3.71154">
        <ele>43.6</ele>
        <time>2021-04-13T08:29:05Z</time>
      </trkpt>
      <trkpt lat="43.5317" lon="3.71148">
        <ele>43.4</ele>
        <time>2021-04-13T08:29:06Z</time>
      </trkpt>
      <trkpt lat="43.53167" lon="3.71142">
        <ele>43.2</ele>
        <time>2021-04-13T08:29:07Z</time>
      </trkpt>
      <trkpt lat="43.53163" lon="3.71136">
        <ele>43</ele>
        <time>2021-04-13T08:29:08Z</time>
      </trkpt>
      <trkpt lat="43.53159" lon="3.7113">
        <ele>42.4</ele>
        <time>2021-04-13T08:29:09Z</time>
      </trkpt>
      <trkpt lat="43.53154" lon="3.71124">
        <ele>42.4</ele>
        <time>2021-04-13T08:29:10Z</time>
      </trkpt>
      <trkpt lat="43.5315" lon="3.71118">
        <ele>42.2</ele>
        <time>2021-04-13T08:29:11Z</time>
      </trkpt>
      <trkpt lat="43.53146" lon="3.71111">
        <ele>42</ele>
        <time>2021-04-13T08:29:12Z</time>
      </trkpt>
      <trkpt lat="43.53141" lon="3.71105">
        <ele>41.8</ele>
        <time>2021-04-13T08:29:13Z</time>
      </trkpt>
      <trkpt lat="43.53137" lon="3.71099">
        <ele>41.8</ele>
        <time>2021-04-13T08:29:14Z</time>
      </trkpt>
      <trkpt lat="43.53133" lon="3.71092">
        <ele>41.8</ele>
        <time>2021-04-13T08:29:15Z</time>
      </trkpt>
      <trkpt lat="43.53129" lon="3.71086">
        <ele>41.6</ele>
        <time>2021-04-13T08:29:16Z</time>
      </trkpt>
      <trkpt lat="43.53124" lon="3.7108">
        <ele>41.4</ele>
        <time>2021-04-13T08:29:17Z</time>
      </trkpt>
      <trkpt lat="43.5312" lon="3.71074">
        <ele>41.4</ele>
        <time>2021-04-13T08:29:18Z</time>
      </trkpt>
      <trkpt lat="43.53116" lon="3.71067">
        <ele>41.2</ele>
        <time>2021-04-13T08:29:19Z</time>
      </trkpt>
      <trkpt lat="43.53112" lon="3.71062">
        <ele>41.2</ele>
        <time>2021-04-13T08:29:20Z</time>
      </trkpt>
      <trkpt lat="43.53108" lon="3.71056">
        <ele>41.2</ele>
        <time>2021-04-13T08:29:21Z</time>
      </trkpt>
      <trkpt lat="43.53104" lon="3.7105">
        <ele>41.2</ele>
        <time>2021-04-13T08:29:22Z</time>
      </trkpt>
      <trkpt lat="43.53101" lon="3.71044">
        <ele>41.2</ele>
        <time>2021-04-13T08:29:23Z</time>
      </trkpt>
      <trkpt lat="43.53097" lon="3.71038">
        <ele>41</ele>
        <time>2021-04-13T08:29:24Z</time>
      </trkpt>
      <trkpt lat="43.53093" lon="3.71032">
        <ele>41</ele>
        <time>2021-04-13T08:29:25Z</time>
      </trkpt>
      <trkpt lat="43.53089" lon="3.71027">
        <ele>41</ele>
        <time>2021-04-13T08:29:26Z</time>
      </trkpt>
      <trkpt lat="43.53086" lon="3.71021">
        <ele>40.8</ele>
        <time>2021-04-13T08:29:27Z</time>
      </trkpt>
      <trkpt lat="43.53082" lon="3.71016">
        <ele>40.8</ele>
        <time>2021-04-13T08:29:28Z</time>
      </trkpt>
      <trkpt lat="43.53079" lon="3.71011">
        <ele>40.6</ele>
        <time>2021-04-13T08:29:29Z</time>
      </trkpt>
      <trkpt lat="43.53075" lon="3.71006">
        <ele>40.6</ele>
        <time>2021-04-13T08:29:30Z</time>
      </trkpt>
      <trkpt lat="43.53072" lon="3.71001">
        <ele>40.6</ele>
        <time>2021-04-13T08:29:31Z</time>
      </trkpt>
      <trkpt lat="43.53068" lon="3.70996">
        <ele>40.4</ele>
        <time>2021-04-13T08:29:32Z</time>
      </trkpt>
      <trkpt lat="43.53065" lon="3.70991">
        <ele>40.2</ele>
        <time>2021-04-13T08:29:33Z</time>
      </trkpt>
      <trkpt lat="43.53061" lon="3.70986">
        <ele>40.2</ele>
        <time>2021-04-13T08:29:34Z</time>
      </trkpt>
      <trkpt lat="43.53058" lon="3.70981">
        <ele>40.2</ele>
        <time>2021-04-13T08:29:35Z</time>
      </trkpt>
      <trkpt lat="43.53055" lon="3.70977">
        <ele>40.2</ele>
        <time>2021-04-13T08:29:36Z</time>
      </trkpt>
      <trkpt lat="43.53052" lon="3.70972">
        <ele>40.2</ele>
        <time>2021-04-13T08:29:37Z</time>
      </trkpt>
      <trkpt lat="43.53049" lon="3.70968">
        <ele>40.2</ele>
        <time>2021-04-13T08:29:38Z</time>
      </trkpt>
      <trkpt lat="43.53046" lon="3.70963">
        <ele>40</ele>
        <time>2021-04-13T08:29:39Z</time>
      </trkpt>
      <trkpt lat="43.53043" lon="3.70959">
        <ele>40.2</ele>
        <time>2021-04-13T08:29:40Z</time>
      </trkpt>
      <trkpt lat="43.5304" lon="3.70955">
        <ele>40.2</ele>
        <time>2021-04-13T08:29:41Z</time>
      </trkpt>
      <trkpt lat="43.53038" lon="3.70951">
        <ele>40.2</ele>
        <time>2021-04-13T08:29:42Z</time>
      </trkpt>
      <trkpt lat="43.53036" lon="3.70948">
        <ele>40.2</ele>
        <time>2021-04-13T08:29:43Z</time>
      </trkpt>
      <trkpt lat="43.53035" lon="3.70947">
        <ele>40.2</ele>
        <time>2021-04-13T08:29:44Z</time>
      </trkpt>
      <trkpt lat="43.53035" lon="3.70947">
        <ele>40.2</ele>
        <time>2021-04-13T08:29:45Z</time>
      </trkpt>
      <trkpt lat="43.53035" lon="3.70947">
        <ele>40.2</ele>
        <time>2021-04-13T08:29:46Z</time>
      </trkpt>
      <trkpt lat="43.53035" lon="3.70947">
        <ele>40.2</ele>
        <time>2021-04-13T08:29:47Z</time>
      </trkpt>
      <trkpt lat="43.53035" lon="3.70947">
        <ele>40.4</ele>
        <time>2021-04-13T08:29:48Z</time>
      </trkpt>
      <trkpt lat="43.53035" lon="3.70947">
        <ele>40.4</ele>
        <time>2021-04-13T08:29:49Z</time>
      </trkpt>
      <trkpt lat="43.53035" lon="3.70947">
        <ele>40.6</ele>
        <time>2021-04-13T08:29:50Z</time>
      </trkpt>
      <trkpt lat="43.53035" lon="3.70947">
        <ele>40.6</ele>
        <time>2021-04-13T08:29:51Z</time>
      </trkpt>
      <trkpt lat="43.53035" lon="3.70947">
        <ele>40.6</ele>
        <time>2021-04-13T08:29:52Z</time>
      </trkpt>
      <trkpt lat="43.53019" lon="3.70932">
        <ele>40.8</ele>
        <time>2021-04-13T08:30:35Z</time>
      </trkpt>
      <trkpt lat="43.53017" lon="3.70929">
        <ele>40.8</ele>
        <time>2021-04-13T08:30:36Z</time>
      </trkpt>
      <trkpt lat="43.53014" lon="3.70926">
        <ele>41</ele>
        <time>2021-04-13T08:30:37Z</time>
      </trkpt>
      <trkpt lat="43.53011" lon="3.70923">
        <ele>41</ele>
        <time>2021-04-13T08:30:38Z</time>
      </trkpt>
      <trkpt lat="43.53009" lon="3.7092">
        <ele>40.8</ele>
        <time>2021-04-13T08:30:39Z</time>
      </trkpt>
      <trkpt lat="43.53007" lon="3.70917">
        <ele>40.8</ele>
        <time>2021-04-13T08:30:40Z</time>
      </trkpt>
      <trkpt lat="43.53004" lon="3.70913">
        <ele>40.8</ele>
        <time>2021-04-13T08:30:41Z</time>
      </trkpt>
      <trkpt lat="43.53002" lon="3.7091">
        <ele>40.8</ele>
        <time>2021-04-13T08:30:42Z</time>
      </trkpt>
      <trkpt lat="43.53" lon="3.70906">
        <ele>41</ele>
        <time>2021-04-13T08:30:43Z</time>
      </trkpt>
      <trkpt lat="43.52998" lon="3.70902">
        <ele>40.8</ele>
        <time>2021-04-13T08:30:44Z</time>
      </trkpt>
      <trkpt lat="43.52996" lon="3.70899">
        <ele>40.8</ele>
        <time>2021-04-13T08:30:45Z</time>
      </trkpt>
      <trkpt lat="43.52993" lon="3.70896">
        <ele>40.6</ele>
        <time>2021-04-13T08:30:46Z</time>
      </trkpt>
      <trkpt lat="43.5299" lon="3.70893">
        <ele>40.8</ele>
        <time>2021-04-13T08:30:47Z</time>
      </trkpt>
      <trkpt lat="43.52987" lon="3.7089">
        <ele>40.6</ele>
        <time>2021-04-13T08:30:48Z</time>
      </trkpt>
      <trkpt lat="43.52984" lon="3.70886">
        <ele>40.8</ele>
        <time>2021-04-13T08:30:49Z</time>
      </trkpt>
      <trkpt lat="43.52981" lon="3.70883">
        <ele>40.8</ele>
        <time>2021-04-13T08:30:50Z</time>
      </trkpt>
      <trkpt lat="43.52978" lon="3.70879">
        <ele>40.8</ele>
        <time>2021-04-13T08:30:51Z</time>
      </trkpt>
      <trkpt lat="43.52974" lon="3.70875">
        <ele>40.8</ele>
        <time>2021-04-13T08:30:52Z</time>
      </trkpt>
      <trkpt lat="43.52971" lon="3.70871">
        <ele>40.6</ele>
        <time>2021-04-13T08:30:53Z</time>
      </trkpt>
      <trkpt lat="43.52968" lon="3.70867">
        <ele>40.8</ele>
        <time>2021-04-13T08:30:54Z</time>
      </trkpt>
      <trkpt lat="43.52966" lon="3.70864">
        <ele>40.8</ele>
        <time>2021-04-13T08:30:55Z</time>
      </trkpt>
      <trkpt lat="43.52963" lon="3.7086">
        <ele>40.8</ele>
        <time>2021-04-13T08:30:56Z</time>
      </trkpt>
      <trkpt lat="43.52961" lon="3.70856">
        <ele>40.8</ele>
        <time>2021-04-13T08:30:57Z</time>
      </trkpt>
      <trkpt lat="43.52958" lon="3.70851">
        <ele>40.8</ele>
        <time>2021-04-13T08:30:58Z</time>
      </trkpt>
      <trkpt lat="43.52955" lon="3.70847">
        <ele>40.8</ele>
        <time>2021-04-13T08:30:59Z</time>
      </trkpt>
      <trkpt lat="43.52953" lon="3.70842">
        <ele>40.8</ele>
        <time>2021-04-13T08:31:00Z</time>
      </trkpt>
      <trkpt lat="43.5295" lon="3.70838">
        <ele>40.8</ele>
        <time>2021-04-13T08:31:01Z</time>
      </trkpt>
      <trkpt lat="43.52948" lon="3.70834">
        <ele>41</ele>
        <time>2021-04-13T08:31:02Z</time>
      </trkpt>
      <trkpt lat="43.52945" lon="3.7083">
        <ele>41</ele>
        <time>2021-04-13T08:31:03Z</time>
      </trkpt>
      <trkpt lat="43.52943" lon="3.70825">
        <ele>41.2</ele>
        <time>2021-04-13T08:31:04Z</time>
      </trkpt>
      <trkpt lat="43.52941" lon="3.70821">
        <ele>41.2</ele>
        <time>2021-04-13T08:31:05Z</time>
      </trkpt>
      <trkpt lat="43.52938" lon="3.70816">
        <ele>41.2</ele>
        <time>2021-04-13T08:31:06Z</time>
      </trkpt>
      <trkpt lat="43.52936" lon="3.70812">
        <ele>41.2</ele>
        <time>2021-04-13T08:31:07Z</time>
      </trkpt>
      <trkpt lat="43.52934" lon="3.70807">
        <ele>41.2</ele>
        <time>2021-04-13T08:31:08Z</time>
      </trkpt>
      <trkpt lat="43.52932" lon="3.70802">
        <ele>41.2</ele>
        <time>2021-04-13T08:31:09Z</time>
      </trkpt>
      <trkpt lat="43.5293" lon="3.70797">
        <ele>41.2</ele>
        <time>2021-04-13T08:31:10Z</time>
      </trkpt>
      <trkpt lat="43.52928" lon="3.70793">
        <ele>41.4</ele>
        <time>2021-04-13T08:31:11Z</time>
      </trkpt>
      <trkpt lat="43.52926" lon="3.70788">
        <ele>41.4</ele>
        <time>2021-04-13T08:31:12Z</time>
      </trkpt>
      <trkpt lat="43.52924" lon="3.70784">
        <ele>41.6</ele>
        <time>2021-04-13T08:31:13Z</time>
      </trkpt>
      <trkpt lat="43.52923" lon="3.7078">
        <ele>42</ele>
        <time>2021-04-13T08:31:14Z</time>
      </trkpt>
      <trkpt lat="43.52922" lon="3.70777">
        <ele>42</ele>
        <time>2021-04-13T08:31:15Z</time>
      </trkpt>
      <trkpt lat="43.52921" lon="3.70774">
        <ele>42.2</ele>
        <time>2021-04-13T08:31:16Z</time>
      </trkpt>
      <trkpt lat="43.5292" lon="3.7077">
        <ele>42.4</ele>
        <time>2021-04-13T08:31:17Z</time>
      </trkpt>
      <trkpt lat="43.5292" lon="3.70767">
        <ele>42.6</ele>
        <time>2021-04-13T08:31:18Z</time>
      </trkpt>
      <trkpt lat="43.5292" lon="3.70764">
        <ele>42.8</ele>
        <time>2021-04-13T08:31:19Z</time>
      </trkpt>
      <trkpt lat="43.5292" lon="3.70762">
        <ele>43</ele>
        <time>2021-04-13T08:31:20Z</time>
      </trkpt>
      <trkpt lat="43.5292" lon="3.70759">
        <ele>43.2</ele>
        <time>2021-04-13T08:31:21Z</time>
      </trkpt>
      <trkpt lat="43.5292" lon="3.70757">
        <ele>43.2</ele>
        <time>2021-04-13T08:31:22Z</time>
      </trkpt>
      <trkpt lat="43.52921" lon="3.70754">
        <ele>43.2</ele>
        <time>2021-04-13T08:31:23Z</time>
      </trkpt>
      <trkpt lat="43.52921" lon="3.70751">
        <ele>43.2</ele>
        <time>2021-04-13T08:31:24Z</time>
      </trkpt>
      <trkpt lat="43.52922" lon="3.70748">
        <ele>43.4</ele>
        <time>2021-04-13T08:31:25Z</time>
      </trkpt>
      <trkpt lat="43.52922" lon="3.70745">
        <ele>43.6</ele>
        <time>2021-04-13T08:31:26Z</time>
      </trkpt>
      <trkpt lat="43.52924" lon="3.70743">
        <ele>43.6</ele>
        <time>2021-04-13T08:31:27Z</time>
      </trkpt>
      <trkpt lat="43.52925" lon="3.7074">
        <ele>43.8</ele>
        <time>2021-04-13T08:31:28Z</time>
      </trkpt>
      <trkpt lat="43.52926" lon="3.70737">
        <ele>43.8</ele>
        <time>2021-04-13T08:31:29Z</time>
      </trkpt>
      <trkpt lat="43.52928" lon="3.70735">
        <ele>44</ele>
        <time>2021-04-13T08:31:30Z</time>
      </trkpt>
      <trkpt lat="43.52929" lon="3.70732">
        <ele>44</ele>
        <time>2021-04-13T08:31:31Z</time>
      </trkpt>
      <trkpt lat="43.52931" lon="3.70729">
        <ele>44</ele>
        <time>2021-04-13T08:31:32Z</time>
      </trkpt>
      <trkpt lat="43.52933" lon="3.70726">
        <ele>44</ele>
        <time>2021-04-13T08:31:33Z</time>
      </trkpt>
      <trkpt lat="43.52935" lon="3.70723">
        <ele>44</ele>
        <time>2021-04-13T08:31:34Z</time>
      </trkpt>
      <trkpt lat="43.52938" lon="3.7072">
        <ele>44</ele>
        <time>2021-04-13T08:31:35Z</time>
      </trkpt>
      <trkpt lat="43.5294" lon="3.70716">
        <ele>44</ele>
        <time>2021-04-13T08:31:36Z</time>
      </trkpt>
      <trkpt lat="43.52942" lon="3.70713">
        <ele>44</ele>
        <time>2021-04-13T08:31:37Z</time>
      </trkpt>
      <trkpt lat="43.52945" lon="3.70709">
        <ele>44</ele>
        <time>2021-04-13T08:31:38Z</time>
      </trkpt>
      <trkpt lat="43.52947" lon="3.70705">
        <ele>44</ele>
        <time>2021-04-13T08:31:39Z</time>
      </trkpt>
      <trkpt lat="43.5295" lon="3.707">
        <ele>44</ele>
        <time>2021-04-13T08:31:40Z</time>
      </trkpt>
      <trkpt lat="43.52953" lon="3.70696">
        <ele>43.8</ele>
        <time>2021-04-13T08:31:41Z</time>
      </trkpt>
      <trkpt lat="43.52956" lon="3.70692">
        <ele>43.8</ele>
        <time>2021-04-13T08:31:42Z</time>
      </trkpt>
      <trkpt lat="43.52959" lon="3.70687">
        <ele>43.6</ele>
        <time>2021-04-13T08:31:43Z</time>
      </trkpt>
      <trkpt lat="43.52962" lon="3.70682">
        <ele>43.4</ele>
        <time>2021-04-13T08:31:44Z</time>
      </trkpt>
      <trkpt lat="43.52964" lon="3.70676">
        <ele>43</ele>
        <time>2021-04-13T08:31:45Z</time>
      </trkpt>
      <trkpt lat="43.52966" lon="3.7067">
        <ele>43</ele>
        <time>2021-04-13T08:31:46Z</time>
      </trkpt>
      <trkpt lat="43.52967" lon="3.70664">
        <ele>42.8</ele>
        <time>2021-04-13T08:31:47Z</time>
      </trkpt>
      <trkpt lat="43.52969" lon="3.70658">
        <ele>42.6</ele>
        <time>2021-04-13T08:31:48Z</time>
      </trkpt>
      <trkpt lat="43.52971" lon="3.70651">
        <ele>42.4</ele>
        <time>2021-04-13T08:31:49Z</time>
      </trkpt>
      <trkpt lat="43.52973" lon="3.70644">
        <ele>42</ele>
        <time>2021-04-13T08:31:50Z</time>
      </trkpt>
      <trkpt lat="43.52975" lon="3.70637">
        <ele>41.8</ele>
        <time>2021-04-13T08:31:51Z</time>
      </trkpt>
      <trkpt lat="43.52977" lon="3.7063">
        <ele>41.4</ele>
        <time>2021-04-13T08:31:52Z</time>
      </trkpt>
      <trkpt lat="43.52979" lon="3.70623">
        <ele>41.2</ele>
        <time>2021-04-13T08:31:53Z</time>
      </trkpt>
      <trkpt lat="43.52982" lon="3.70616">
        <ele>40.8</ele>
        <time>2021-04-13T08:31:54Z</time>
      </trkpt>
      <trkpt lat="43.52985" lon="3.70609">
        <ele>40.4</ele>
        <time>2021-04-13T08:31:55Z</time>
      </trkpt>
      <trkpt lat="43.52989" lon="3.70602">
        <ele>40.2</ele>
        <time>2021-04-13T08:31:56Z</time>
      </trkpt>
      <trkpt lat="43.52992" lon="3.70596">
        <ele>40.2</ele>
        <time>2021-04-13T08:31:57Z</time>
      </trkpt>
      <trkpt lat="43.52996" lon="3.70589">
        <ele>39.8</ele>
        <time>2021-04-13T08:31:58Z</time>
      </trkpt>
      <trkpt lat="43.52999" lon="3.70582">
        <ele>39.4</ele>
        <time>2021-04-13T08:31:59Z</time>
      </trkpt>
      <trkpt lat="43.53002" lon="3.70575">
        <ele>39.2</ele>
        <time>2021-04-13T08:32:00Z</time>
      </trkpt>
      <trkpt lat="43.53006" lon="3.70568">
        <ele>39</ele>
        <time>2021-04-13T08:32:01Z</time>
      </trkpt>
      <trkpt lat="43.53009" lon="3.70562">
        <ele>38.6</ele>
        <time>2021-04-13T08:32:02Z</time>
      </trkpt>
      <trkpt lat="43.53013" lon="3.70555">
        <ele>38.4</ele>
        <time>2021-04-13T08:32:03Z</time>
      </trkpt>
      <trkpt lat="43.53018" lon="3.7055">
        <ele>38.4</ele>
        <time>2021-04-13T08:32:04Z</time>
      </trkpt>
      <trkpt lat="43.53023" lon="3.70545">
        <ele>38.2</ele>
        <time>2021-04-13T08:32:05Z</time>
      </trkpt>
      <trkpt lat="43.53027" lon="3.7054">
        <ele>38.2</ele>
        <time>2021-04-13T08:32:06Z</time>
      </trkpt>
      <trkpt lat="43.53031" lon="3.70536">
        <ele>38.2</ele>
        <time>2021-04-13T08:32:07Z</time>
      </trkpt>
      <trkpt lat="43.53035" lon="3.70531">
        <ele>38.2</ele>
        <time>2021-04-13T08:32:08Z</time>
      </trkpt>
      <trkpt lat="43.53039" lon="3.70527">
        <ele>38.2</ele>
        <time>2021-04-13T08:32:09Z</time>
      </trkpt>
      <trkpt lat="43.53043" lon="3.70522">
        <ele>38.2</ele>
        <time>2021-04-13T08:32:10Z</time>
      </trkpt>
      <trkpt lat="43.53047" lon="3.70518">
        <ele>38.2</ele>
        <time>2021-04-13T08:32:11Z</time>
      </trkpt>
      <trkpt lat="43.53052" lon="3.70513">
        <ele>38</ele>
        <time>2021-04-13T08:32:12Z</time>
      </trkpt>
      <trkpt lat="43.53056" lon="3.70509">
        <ele>38</ele>
        <time>2021-04-13T08:32:13Z</time>
      </trkpt>
      <trkpt lat="43.5306" lon="3.70505">
        <ele>38</ele>
        <time>2021-04-13T08:32:14Z</time>
      </trkpt>
      <trkpt lat="43.53064" lon="3.70502">
        <ele>38</ele>
        <time>2021-04-13T08:32:15Z</time>
      </trkpt>
      <trkpt lat="43.53068" lon="3.70498">
        <ele>38</ele>
        <time>2021-04-13T08:32:16Z</time>
      </trkpt>
      <trkpt lat="43.53072" lon="3.70494">
        <ele>38</ele>
        <time>2021-04-13T08:32:17Z</time>
      </trkpt>
      <trkpt lat="43.53076" lon="3.70491">
        <ele>38</ele>
        <time>2021-04-13T08:32:18Z</time>
      </trkpt>
      <trkpt lat="43.5308" lon="3.70487">
        <ele>38.2</ele>
        <time>2021-04-13T08:32:19Z</time>
      </trkpt>
      <trkpt lat="43.53084" lon="3.70484">
        <ele>38.2</ele>
        <time>2021-04-13T08:32:20Z</time>
      </trkpt>
      <trkpt lat="43.53088" lon="3.70482">
        <ele>38.4</ele>
        <time>2021-04-13T08:32:21Z</time>
      </trkpt>
      <trkpt lat="43.53093" lon="3.7048">
        <ele>38.4</ele>
        <time>2021-04-13T08:32:22Z</time>
      </trkpt>
      <trkpt lat="43.53097" lon="3.70478">
        <ele>38.4</ele>
        <time>2021-04-13T08:32:23Z</time>
      </trkpt>
      <trkpt lat="43.53101" lon="3.70477">
        <ele>38.6</ele>
        <time>2021-04-13T08:32:24Z</time>
      </trkpt>
      <trkpt lat="43.53106" lon="3.70477">
        <ele>38.6</ele>
        <time>2021-04-13T08:32:25Z</time>
      </trkpt>
      <trkpt lat="43.5311" lon="3.70476">
        <ele>38.8</ele>
        <time>2021-04-13T08:32:26Z</time>
      </trkpt>
      <trkpt lat="43.53115" lon="3.70477">
        <ele>38.6</ele>
        <time>2021-04-13T08:32:27Z</time>
      </trkpt>
      <trkpt lat="43.53119" lon="3.70477">
        <ele>38.6</ele>
        <time>2021-04-13T08:32:28Z</time>
      </trkpt>
      <trkpt lat="43.53123" lon="3.70478">
        <ele>38.6</ele>
        <time>2021-04-13T08:32:29Z</time>
      </trkpt>
      <trkpt lat="43.53128" lon="3.70479">
        <ele>38.6</ele>
        <time>2021-04-13T08:32:30Z</time>
      </trkpt>
      <trkpt lat="43.53132" lon="3.7048">
        <ele>38.6</ele>
        <time>2021-04-13T08:32:31Z</time>
      </trkpt>
      <trkpt lat="43.53136" lon="3.70481">
        <ele>38.8</ele>
        <time>2021-04-13T08:32:32Z</time>
      </trkpt>
      <trkpt lat="43.5314" lon="3.70481">
        <ele>38.8</ele>
        <time>2021-04-13T08:32:33Z</time>
      </trkpt>
      <trkpt lat="43.53144" lon="3.70482">
        <ele>38.8</ele>
        <time>2021-04-13T08:32:34Z</time>
      </trkpt>
      <trkpt lat="43.53148" lon="3.70483">
        <ele>38.8</ele>
        <time>2021-04-13T08:32:35Z</time>
      </trkpt>
      <trkpt lat="43.53152" lon="3.70484">
        <ele>38.8</ele>
        <time>2021-04-13T08:32:36Z</time>
      </trkpt>
      <trkpt lat="43.53155" lon="3.70485">
        <ele>39</ele>
        <time>2021-04-13T08:32:37Z</time>
      </trkpt>
      <trkpt lat="43.53159" lon="3.70485">
        <ele>38.8</ele>
        <time>2021-04-13T08:32:38Z</time>
      </trkpt>
      <trkpt lat="43.53163" lon="3.70486">
        <ele>39</ele>
        <time>2021-04-13T08:32:39Z</time>
      </trkpt>
      <trkpt lat="43.53167" lon="3.70487">
        <ele>39</ele>
        <time>2021-04-13T08:32:40Z</time>
      </trkpt>
      <trkpt lat="43.53171" lon="3.70487">
        <ele>39</ele>
        <time>2021-04-13T08:32:41Z</time>
      </trkpt>
      <trkpt lat="43.53175" lon="3.70488">
        <ele>39</ele>
        <time>2021-04-13T08:32:42Z</time>
      </trkpt>
      <trkpt lat="43.53179" lon="3.70489">
        <ele>39</ele>
        <time>2021-04-13T08:32:43Z</time>
      </trkpt>
      <trkpt lat="43.53183" lon="3.7049">
        <ele>39.2</ele>
        <time>2021-04-13T08:32:44Z</time>
      </trkpt>
      <trkpt lat="43.53186" lon="3.7049">
        <ele>39.2</ele>
        <time>2021-04-13T08:32:45Z</time>
      </trkpt>
      <trkpt lat="43.5319" lon="3.70491">
        <ele>39.4</ele>
        <time>2021-04-13T08:32:46Z</time>
      </trkpt>
      <trkpt lat="43.53194" lon="3.70492">
        <ele>39.4</ele>
        <time>2021-04-13T08:32:47Z</time>
      </trkpt>
      <trkpt lat="43.53198" lon="3.70492">
        <ele>39.6</ele>
        <time>2021-04-13T08:32:48Z</time>
      </trkpt>
      <trkpt lat="43.53202" lon="3.70493">
        <ele>39.6</ele>
        <time>2021-04-13T08:32:49Z</time>
      </trkpt>
      <trkpt lat="43.53206" lon="3.70493">
        <ele>39.6</ele>
        <time>2021-04-13T08:32:50Z</time>
      </trkpt>
      <trkpt lat="43.5321" lon="3.70494">
        <ele>39.8</ele>
        <time>2021-04-13T08:32:51Z</time>
      </trkpt>
      <trkpt lat="43.53213" lon="3.70495">
        <ele>40</ele>
        <time>2021-04-13T08:32:52Z</time>
      </trkpt>
      <trkpt lat="43.53217" lon="3.70496">
        <ele>40</ele>
        <time>2021-04-13T08:32:53Z</time>
      </trkpt>
      <trkpt lat="43.53221" lon="3.70496">
        <ele>40</ele>
        <time>2021-04-13T08:32:54Z</time>
      </trkpt>
      <trkpt lat="43.53225" lon="3.70497">
        <ele>40</ele>
        <time>2021-04-13T08:32:55Z</time>
      </trkpt>
      <trkpt lat="43.53228" lon="3.70498">
        <ele>40.2</ele>
        <time>2021-04-13T08:32:56Z</time>
      </trkpt>
      <trkpt lat="43.53232" lon="3.70498">
        <ele>40.4</ele>
        <time>2021-04-13T08:32:57Z</time>
      </trkpt>
      <trkpt lat="43.53236" lon="3.70499">
        <ele>40.6</ele>
        <time>2021-04-13T08:32:58Z</time>
      </trkpt>
      <trkpt lat="43.53239" lon="3.705">
        <ele>40.6</ele>
        <time>2021-04-13T08:32:59Z</time>
      </trkpt>
      <trkpt lat="43.53243" lon="3.70501">
        <ele>40.6</ele>
        <time>2021-04-13T08:33:00Z</time>
      </trkpt>
      <trkpt lat="43.53247" lon="3.70502">
        <ele>40.8</ele>
        <time>2021-04-13T08:33:01Z</time>
      </trkpt>
      <trkpt lat="43.5325" lon="3.70502">
        <ele>40.8</ele>
        <time>2021-04-13T08:33:02Z</time>
      </trkpt>
      <trkpt lat="43.53254" lon="3.70503">
        <ele>41</ele>
        <time>2021-04-13T08:33:03Z</time>
      </trkpt>
      <trkpt lat="43.53257" lon="3.70504">
        <ele>41.2</ele>
        <time>2021-04-13T08:33:04Z</time>
      </trkpt>
      <trkpt lat="43.5326" lon="3.70505">
        <ele>41.2</ele>
        <time>2021-04-13T08:33:05Z</time>
      </trkpt>
      <trkpt lat="43.53263" lon="3.70506">
        <ele>41.2</ele>
        <time>2021-04-13T08:33:06Z</time>
      </trkpt>
      <trkpt lat="43.53266" lon="3.70507">
        <ele>41.2</ele>
        <time>2021-04-13T08:33:07Z</time>
      </trkpt>
      <trkpt lat="43.5327" lon="3.70508">
        <ele>41.2</ele>
        <time>2021-04-13T08:33:08Z</time>
      </trkpt>
      <trkpt lat="43.53273" lon="3.7051">
        <ele>41.2</ele>
        <time>2021-04-13T08:33:09Z</time>
      </trkpt>
      <trkpt lat="43.53276" lon="3.70511">
        <ele>41.2</ele>
        <time>2021-04-13T08:33:10Z</time>
      </trkpt>
      <trkpt lat="43.5328" lon="3.70511">
        <ele>41.4</ele>
        <time>2021-04-13T08:33:11Z</time>
      </trkpt>
      <trkpt lat="43.53283" lon="3.70512">
        <ele>41.4</ele>
        <time>2021-04-13T08:33:12Z</time>
      </trkpt>
      <trkpt lat="43.53287" lon="3.70512">
        <ele>41.6</ele>
        <time>2021-04-13T08:33:13Z</time>
      </trkpt>
      <trkpt lat="43.5329" lon="3.70513">
        <ele>41.6</ele>
        <time>2021-04-13T08:33:14Z</time>
      </trkpt>
      <trkpt lat="43.53293" lon="3.70514">
        <ele>41.8</ele>
        <time>2021-04-13T08:33:15Z</time>
      </trkpt>
      <trkpt lat="43.53296" lon="3.70515">
        <ele>41.8</ele>
        <time>2021-04-13T08:33:16Z</time>
      </trkpt>
      <trkpt lat="43.533" lon="3.70515">
        <ele>42</ele>
        <time>2021-04-13T08:33:17Z</time>
      </trkpt>
      <trkpt lat="43.53303" lon="3.70516">
        <ele>42</ele>
        <time>2021-04-13T08:33:18Z</time>
      </trkpt>
      <trkpt lat="43.53306" lon="3.70516">
        <ele>42.2</ele>
        <time>2021-04-13T08:33:19Z</time>
      </trkpt>
      <trkpt lat="43.53309" lon="3.70517">
        <ele>42.4</ele>
        <time>2021-04-13T08:33:20Z</time>
      </trkpt>
      <trkpt lat="43.53312" lon="3.70517">
        <ele>42.4</ele>
        <time>2021-04-13T08:33:21Z</time>
      </trkpt>
      <trkpt lat="43.53316" lon="3.70518">
        <ele>42.6</ele>
        <time>2021-04-13T08:33:22Z</time>
      </trkpt>
      <trkpt lat="43.53319" lon="3.70519">
        <ele>42.8</ele>
        <time>2021-04-13T08:33:23Z</time>
      </trkpt>
      <trkpt lat="43.53322" lon="3.70519">
        <ele>42.8</ele>
        <time>2021-04-13T08:33:24Z</time>
      </trkpt>
      <trkpt lat="43.53326" lon="3.7052">
        <ele>43</ele>
        <time>2021-04-13T08:33:25Z</time>
      </trkpt>
      <trkpt lat="43.53329" lon="3.70521">
        <ele>43.2</ele>
        <time>2021-04-13T08:33:26Z</time>
      </trkpt>
      <trkpt lat="43.53332" lon="3.70521">
        <ele>43.2</ele>
        <time>2021-04-13T08:33:27Z</time>
      </trkpt>
      <trkpt lat="43.53335" lon="3.70522">
        <ele>43.4</ele>
        <time>2021-04-13T08:33:28Z</time>
      </trkpt>
      <trkpt lat="43.53338" lon="3.70523">
        <ele>43.4</ele>
        <time>2021-04-13T08:33:29Z</time>
      </trkpt>
      <trkpt lat="43.53341" lon="3.70523">
        <ele>43.6</ele>
        <time>2021-04-13T08:33:30Z</time>
      </trkpt>
      <trkpt lat="43.53344" lon="3.70524">
        <ele>43.8</ele>
        <time>2021-04-13T08:33:31Z</time>
      </trkpt>
      <trkpt lat="43.53347" lon="3.70524">
        <ele>43.8</ele>
        <time>2021-04-13T08:33:32Z</time>
      </trkpt>
      <trkpt lat="43.5335" lon="3.70525">
        <ele>44</ele>
        <time>2021-04-13T08:33:33Z</time>
      </trkpt>
      <trkpt lat="43.53352" lon="3.70525">
        <ele>44</ele>
        <time>2021-04-13T08:33:34Z</time>
      </trkpt>
      <trkpt lat="43.53355" lon="3.70526">
        <ele>44.2</ele>
        <time>2021-04-13T08:33:35Z</time>
      </trkpt>
      <trkpt lat="43.53358" lon="3.70526">
        <ele>44.4</ele>
        <time>2021-04-13T08:33:36Z</time>
      </trkpt>
      <trkpt lat="43.53361" lon="3.70527">
        <ele>44.8</ele>
        <time>2021-04-13T08:33:37Z</time>
      </trkpt>
      <trkpt lat="43.53364" lon="3.70527">
        <ele>44.8</ele>
        <time>2021-04-13T08:33:38Z</time>
      </trkpt>
      <trkpt lat="43.53367" lon="3.70528">
        <ele>44.8</ele>
        <time>2021-04-13T08:33:39Z</time>
      </trkpt>
      <trkpt lat="43.5337" lon="3.70528">
        <ele>44.8</ele>
        <time>2021-04-13T08:33:40Z</time>
      </trkpt>
      <trkpt lat="43.53373" lon="3.70529">
        <ele>45</ele>
        <time>2021-04-13T08:33:41Z</time>
      </trkpt>
      <trkpt lat="43.53376" lon="3.7053">
        <ele>45</ele>
        <time>2021-04-13T08:33:42Z</time>
      </trkpt>
      <trkpt lat="43.53379" lon="3.7053">
        <ele>45.2</ele>
        <time>2021-04-13T08:33:43Z</time>
      </trkpt>
      <trkpt lat="43.53382" lon="3.70531">
        <ele>45.2</ele>
        <time>2021-04-13T08:33:44Z</time>
      </trkpt>
      <trkpt lat="43.53385" lon="3.70531">
        <ele>45.4</ele>
        <time>2021-04-13T08:33:45Z</time>
      </trkpt>
      <trkpt lat="43.53388" lon="3.70532">
        <ele>45.4</ele>
        <time>2021-04-13T08:33:46Z</time>
      </trkpt>
      <trkpt lat="43.53391" lon="3.70532">
        <ele>45.6</ele>
        <time>2021-04-13T08:33:47Z</time>
      </trkpt>
      <trkpt lat="43.53394" lon="3.70533">
        <ele>45.8</ele>
        <time>2021-04-13T08:33:48Z</time>
      </trkpt>
      <trkpt lat="43.53397" lon="3.70534">
        <ele>46</ele>
        <time>2021-04-13T08:33:49Z</time>
      </trkpt>
      <trkpt lat="43.534" lon="3.70534">
        <ele>46</ele>
        <time>2021-04-13T08:33:50Z</time>
      </trkpt>
      <trkpt lat="43.53403" lon="3.70535">
        <ele>46.2</ele>
        <time>2021-04-13T08:33:51Z</time>
      </trkpt>
      <trkpt lat="43.53407" lon="3.70535">
        <ele>46.2</ele>
        <time>2021-04-13T08:33:52Z</time>
      </trkpt>
      <trkpt lat="43.5341" lon="3.70536">
        <ele>46.2</ele>
        <time>2021-04-13T08:33:53Z</time>
      </trkpt>
      <trkpt lat="43.53413" lon="3.70536">
        <ele>46.2</ele>
        <time>2021-04-13T08:33:54Z</time>
      </trkpt>
      <trkpt lat="43.53416" lon="3.70537">
        <ele>46.4</ele>
        <time>2021-04-13T08:33:55Z</time>
      </trkpt>
      <trkpt lat="43.53419" lon="3.70538">
        <ele>46.4</ele>
        <time>2021-04-13T08:33:56Z</time>
      </trkpt>
      <trkpt lat="43.53422" lon="3.70538">
        <ele>46.4</ele>
        <time>2021-04-13T08:33:57Z</time>
      </trkpt>
      <trkpt lat="43.53425" lon="3.70539">
        <ele>46.4</ele>
        <time>2021-04-13T08:33:58Z</time>
      </trkpt>
      <trkpt lat="43.53428" lon="3.7054">
        <ele>46.6</ele>
        <time>2021-04-13T08:33:59Z</time>
      </trkpt>
      <trkpt lat="43.53431" lon="3.70541">
        <ele>46.6</ele>
        <time>2021-04-13T08:34:00Z</time>
      </trkpt>
      <trkpt lat="43.53433" lon="3.70541">
        <ele>46.6</ele>
        <time>2021-04-13T08:34:01Z</time>
      </trkpt>
      <trkpt lat="43.53436" lon="3.70542">
        <ele>46.8</ele>
        <time>2021-04-13T08:34:02Z</time>
      </trkpt>
      <trkpt lat="43.53439" lon="3.70542">
        <ele>46.8</ele>
        <time>2021-04-13T08:34:03Z</time>
      </trkpt>
      <trkpt lat="43.53442" lon="3.70543">
        <ele>46.8</ele>
        <time>2021-04-13T08:34:04Z</time>
      </trkpt>
      <trkpt lat="43.53445" lon="3.70544">
        <ele>47.2</ele>
        <time>2021-04-13T08:34:05Z</time>
      </trkpt>
      <trkpt lat="43.53447" lon="3.70545">
        <ele>47.2</ele>
        <time>2021-04-13T08:34:06Z</time>
      </trkpt>
      <trkpt lat="43.5345" lon="3.70545">
        <ele>47.2</ele>
        <time>2021-04-13T08:34:07Z</time>
      </trkpt>
      <trkpt lat="43.53453" lon="3.70547">
        <ele>47.2</ele>
        <time>2021-04-13T08:34:08Z</time>
      </trkpt>
      <trkpt lat="43.53456" lon="3.70549">
        <ele>47.2</ele>
        <time>2021-04-13T08:34:09Z</time>
      </trkpt>
      <trkpt lat="43.53459" lon="3.70551">
        <ele>47.4</ele>
        <time>2021-04-13T08:34:10Z</time>
      </trkpt>
      <trkpt lat="43.53462" lon="3.70553">
        <ele>47.4</ele>
        <time>2021-04-13T08:34:11Z</time>
      </trkpt>
      <trkpt lat="43.53465" lon="3.70555">
        <ele>47.6</ele>
        <time>2021-04-13T08:34:12Z</time>
      </trkpt>
      <trkpt lat="43.53467" lon="3.70558">
        <ele>47.8</ele>
        <time>2021-04-13T08:34:13Z</time>
      </trkpt>
      <trkpt lat="43.5347" lon="3.70561">
        <ele>47.6</ele>
        <time>2021-04-13T08:34:14Z</time>
      </trkpt>
      <trkpt lat="43.53472" lon="3.70564">
        <ele>47.6</ele>
        <time>2021-04-13T08:34:15Z</time>
      </trkpt>
      <trkpt lat="43.53474" lon="3.70567">
        <ele>47.6</ele>
        <time>2021-04-13T08:34:16Z</time>
      </trkpt>
      <trkpt lat="43.53476" lon="3.7057">
        <ele>47.8</ele>
        <time>2021-04-13T08:34:17Z</time>
      </trkpt>
      <trkpt lat="43.53478" lon="3.70573">
        <ele>47.8</ele>
        <time>2021-04-13T08:34:18Z</time>
      </trkpt>
      <trkpt lat="43.53481" lon="3.70576">
        <ele>48</ele>
        <time>2021-04-13T08:34:19Z</time>
      </trkpt>
      <trkpt lat="43.53483" lon="3.70579">
        <ele>48</ele>
        <time>2021-04-13T08:34:20Z</time>
      </trkpt>
      <trkpt lat="43.53485" lon="3.70582">
        <ele>48.2</ele>
        <time>2021-04-13T08:34:21Z</time>
      </trkpt>
      <trkpt lat="43.53487" lon="3.70585">
        <ele>48.4</ele>
        <time>2021-04-13T08:34:22Z</time>
      </trkpt>
      <trkpt lat="43.5349" lon="3.70587">
        <ele>48.4</ele>
        <time>2021-04-13T08:34:23Z</time>
      </trkpt>
      <trkpt lat="43.53492" lon="3.7059">
        <ele>48.6</ele>
        <time>2021-04-13T08:34:24Z</time>
      </trkpt>
      <trkpt lat="43.53495" lon="3.70593">
        <ele>48.6</ele>
        <time>2021-04-13T08:34:25Z</time>
      </trkpt>
      <trkpt lat="43.53497" lon="3.70595">
        <ele>48.8</ele>
        <time>2021-04-13T08:34:26Z</time>
      </trkpt>
      <trkpt lat="43.535" lon="3.70598">
        <ele>48.8</ele>
        <time>2021-04-13T08:34:27Z</time>
      </trkpt>
      <trkpt lat="43.53502" lon="3.70601">
        <ele>48.8</ele>
        <time>2021-04-13T08:34:28Z</time>
      </trkpt>
      <trkpt lat="43.53505" lon="3.70603">
        <ele>48.8</ele>
        <time>2021-04-13T08:34:29Z</time>
      </trkpt>
      <trkpt lat="43.53507" lon="3.70606">
        <ele>49.2</ele>
        <time>2021-04-13T08:34:30Z</time>
      </trkpt>
      <trkpt lat="43.5351" lon="3.70609">
        <ele>49.2</ele>
        <time>2021-04-13T08:34:31Z</time>
      </trkpt>
      <trkpt lat="43.53513" lon="3.70611">
        <ele>49.4</ele>
        <time>2021-04-13T08:34:32Z</time>
      </trkpt>
      <trkpt lat="43.53515" lon="3.70614">
        <ele>49.4</ele>
        <time>2021-04-13T08:34:33Z</time>
      </trkpt>
      <trkpt lat="43.53518" lon="3.70616">
        <ele>49.2</ele>
        <time>2021-04-13T08:34:34Z</time>
      </trkpt>
      <trkpt lat="43.53521" lon="3.70618">
        <ele>49.2</ele>
        <time>2021-04-13T08:34:35Z</time>
      </trkpt>
      <trkpt lat="43.53523" lon="3.70621">
        <ele>49.2</ele>
        <time>2021-04-13T08:34:36Z</time>
      </trkpt>
      <trkpt lat="43.53526" lon="3.70623">
        <ele>49.2</ele>
        <time>2021-04-13T08:34:37Z</time>
      </trkpt>
      <trkpt lat="43.53529" lon="3.70625">
        <ele>49.4</ele>
        <time>2021-04-13T08:34:38Z</time>
      </trkpt>
      <trkpt lat="43.53532" lon="3.70628">
        <ele>49.6</ele>
        <time>2021-04-13T08:34:39Z</time>
      </trkpt>
      <trkpt lat="43.53535" lon="3.7063">
        <ele>49.6</ele>
        <time>2021-04-13T08:34:40Z</time>
      </trkpt>
      <trkpt lat="43.53538" lon="3.70632">
        <ele>49.6</ele>
        <time>2021-04-13T08:34:41Z</time>
      </trkpt>
      <trkpt lat="43.53541" lon="3.70635">
        <ele>49.6</ele>
        <time>2021-04-13T08:34:42Z</time>
      </trkpt>
      <trkpt lat="43.53543" lon="3.70637">
        <ele>49.6</ele>
        <time>2021-04-13T08:34:43Z</time>
      </trkpt>
      <trkpt lat="43.53546" lon="3.70639">
        <ele>49.6</ele>
        <time>2021-04-13T08:34:44Z</time>
      </trkpt>
      <trkpt lat="43.53549" lon="3.70641">
        <ele>49.8</ele>
        <time>2021-04-13T08:34:45Z</time>
      </trkpt>
      <trkpt lat="43.53552" lon="3.70643">
        <ele>49.8</ele>
        <time>2021-04-13T08:34:46Z</time>
      </trkpt>
      <trkpt lat="43.53555" lon="3.70645">
        <ele>50</ele>
        <time>2021-04-13T08:34:47Z</time>
      </trkpt>
      <trkpt lat="43.53559" lon="3.70647">
        <ele>50</ele>
        <time>2021-04-13T08:34:48Z</time>
      </trkpt>
      <trkpt lat="43.53562" lon="3.70649">
        <ele>50</ele>
        <time>2021-04-13T08:34:49Z</time>
      </trkpt>
      <trkpt lat="43.53565" lon="3.7065">
        <ele>50</ele>
        <time>2021-04-13T08:34:50Z</time>
      </trkpt>
      <trkpt lat="43.53568" lon="3.70652">
        <ele>50</ele>
        <time>2021-04-13T08:34:51Z</time>
      </trkpt>
      <trkpt lat="43.53571" lon="3.70654">
        <ele>50.2</ele>
        <time>2021-04-13T08:34:52Z</time>
      </trkpt>
      <trkpt lat="43.53575" lon="3.70656">
        <ele>50.2</ele>
        <time>2021-04-13T08:34:53Z</time>
      </trkpt>
      <trkpt lat="43.53578" lon="3.70658">
        <ele>50.2</ele>
        <time>2021-04-13T08:34:54Z</time>
      </trkpt>
      <trkpt lat="43.53581" lon="3.70659">
        <ele>50.4</ele>
        <time>2021-04-13T08:34:55Z</time>
      </trkpt>
      <trkpt lat="43.53585" lon="3.70661">
        <ele>50.6</ele>
        <time>2021-04-13T08:34:56Z</time>
      </trkpt>
      <trkpt lat="43.53588" lon="3.70663">
        <ele>50.6</ele>
        <time>2021-04-13T08:34:57Z</time>
      </trkpt>
      <trkpt lat="43.53591" lon="3.70665">
        <ele>50.6</ele>
        <time>2021-04-13T08:34:58Z</time>
      </trkpt>
      <trkpt lat="43.53595" lon="3.70667">
        <ele>50.6</ele>
        <time>2021-04-13T08:34:59Z</time>
      </trkpt>
      <trkpt lat="43.53598" lon="3.70669">
        <ele>50.6</ele>
        <time>2021-04-13T08:35:00Z</time>
      </trkpt>
      <trkpt lat="43.53602" lon="3.70671">
        <ele>50.8</ele>
        <time>2021-04-13T08:35:01Z</time>
      </trkpt>
      <trkpt lat="43.53605" lon="3.70673">
        <ele>50.8</ele>
        <time>2021-04-13T08:35:02Z</time>
      </trkpt>
      <trkpt lat="43.53609" lon="3.70676">
        <ele>51</ele>
        <time>2021-04-13T08:35:03Z</time>
      </trkpt>
      <trkpt lat="43.53612" lon="3.70678">
        <ele>51.2</ele>
        <time>2021-04-13T08:35:04Z</time>
      </trkpt>
      <trkpt lat="43.53616" lon="3.70679">
        <ele>51</ele>
        <time>2021-04-13T08:35:05Z</time>
      </trkpt>
      <trkpt lat="43.53619" lon="3.70681">
        <ele>51</ele>
        <time>2021-04-13T08:35:06Z</time>
      </trkpt>
      <trkpt lat="43.53623" lon="3.70683">
        <ele>50.8</ele>
        <time>2021-04-13T08:35:07Z</time>
      </trkpt>
      <trkpt lat="43.53626" lon="3.70685">
        <ele>51</ele>
        <time>2021-04-13T08:35:08Z</time>
      </trkpt>
      <trkpt lat="43.5363" lon="3.70688">
        <ele>51</ele>
        <time>2021-04-13T08:35:09Z</time>
      </trkpt>
      <trkpt lat="43.53633" lon="3.7069">
        <ele>51</ele>
        <time>2021-04-13T08:35:10Z</time>
      </trkpt>
      <trkpt lat="43.53636" lon="3.70692">
        <ele>51</ele>
        <time>2021-04-13T08:35:11Z</time>
      </trkpt>
      <trkpt lat="43.5364" lon="3.70693">
        <ele>51.2</ele>
        <time>2021-04-13T08:35:12Z</time>
      </trkpt>
      <trkpt lat="43.53643" lon="3.70695">
        <ele>51.2</ele>
        <time>2021-04-13T08:35:13Z</time>
      </trkpt>
      <trkpt lat="43.53646" lon="3.70698">
        <ele>51.2</ele>
        <time>2021-04-13T08:35:14Z</time>
      </trkpt>
      <trkpt lat="43.53649" lon="3.707">
        <ele>51.4</ele>
        <time>2021-04-13T08:35:15Z</time>
      </trkpt>
      <trkpt lat="43.53652" lon="3.70702">
        <ele>51.4</ele>
        <time>2021-04-13T08:35:16Z</time>
      </trkpt>
      <trkpt lat="43.53656" lon="3.70704">
        <ele>51.4</ele>
        <time>2021-04-13T08:35:17Z</time>
      </trkpt>
      <trkpt lat="43.53659" lon="3.70706">
        <ele>51.4</ele>
        <time>2021-04-13T08:35:18Z</time>
      </trkpt>
      <trkpt lat="43.53662" lon="3.70709">
        <ele>51.2</ele>
        <time>2021-04-13T08:35:19Z</time>
      </trkpt>
      <trkpt lat="43.53666" lon="3.70711">
        <ele>51.2</ele>
        <time>2021-04-13T08:35:20Z</time>
      </trkpt>
      <trkpt lat="43.53669" lon="3.70714">
        <ele>51.4</ele>
        <time>2021-04-13T08:35:21Z</time>
      </trkpt>
      <trkpt lat="43.53673" lon="3.70717">
        <ele>51.4</ele>
        <time>2021-04-13T08:35:22Z</time>
      </trkpt>
      <trkpt lat="43.53676" lon="3.70719">
        <ele>51.4</ele>
        <time>2021-04-13T08:35:23Z</time>
      </trkpt>
      <trkpt lat="43.5368" lon="3.70721">
        <ele>51.4</ele>
        <time>2021-04-13T08:35:24Z</time>
      </trkpt>
      <trkpt lat="43.53683" lon="3.70724">
        <ele>51.4</ele>
        <time>2021-04-13T08:35:25Z</time>
      </trkpt>
      <trkpt lat="43.53686" lon="3.70726">
        <ele>51.4</ele>
        <time>2021-04-13T08:35:26Z</time>
      </trkpt>
      <trkpt lat="43.5369" lon="3.70729">
        <ele>51.6</ele>
        <time>2021-04-13T08:35:27Z</time>
      </trkpt>
      <trkpt lat="43.53693" lon="3.70731">
        <ele>51.6</ele>
        <time>2021-04-13T08:35:28Z</time>
      </trkpt>
      <trkpt lat="43.53697" lon="3.70734">
        <ele>51.6</ele>
        <time>2021-04-13T08:35:29Z</time>
      </trkpt>
      <trkpt lat="43.537" lon="3.70736">
        <ele>51.4</ele>
        <time>2021-04-13T08:35:30Z</time>
      </trkpt>
      <trkpt lat="43.53703" lon="3.70739">
        <ele>51.4</ele>
        <time>2021-04-13T08:35:31Z</time>
      </trkpt>
      <trkpt lat="43.53707" lon="3.70742">
        <ele>51.4</ele>
        <time>2021-04-13T08:35:32Z</time>
      </trkpt>
      <trkpt lat="43.5371" lon="3.70745">
        <ele>51.4</ele>
        <time>2021-04-13T08:35:33Z</time>
      </trkpt>
      <trkpt lat="43.53714" lon="3.70747">
        <ele>51.4</ele>
        <time>2021-04-13T08:35:34Z</time>
      </trkpt>
      <trkpt lat="43.53717" lon="3.7075">
        <ele>51.2</ele>
        <time>2021-04-13T08:35:35Z</time>
      </trkpt>
      <trkpt lat="43.53721" lon="3.70753">
        <ele>51.4</ele>
        <time>2021-04-13T08:35:36Z</time>
      </trkpt>
      <trkpt lat="43.53724" lon="3.70756">
        <ele>51.4</ele>
        <time>2021-04-13T08:35:37Z</time>
      </trkpt>
      <trkpt lat="43.53728" lon="3.70759">
        <ele>51.2</ele>
        <time>2021-04-13T08:35:38Z</time>
      </trkpt>
      <trkpt lat="43.53731" lon="3.70762">
        <ele>51.2</ele>
        <time>2021-04-13T08:35:39Z</time>
      </trkpt>
      <trkpt lat="43.53734" lon="3.70765">
        <ele>51.2</ele>
        <time>2021-04-13T08:35:40Z</time>
      </trkpt>
      <trkpt lat="43.53738" lon="3.70768">
        <ele>51.4</ele>
        <time>2021-04-13T08:35:41Z</time>
      </trkpt>
      <trkpt lat="43.53741" lon="3.70771">
        <ele>51.6</ele>
        <time>2021-04-13T08:35:42Z</time>
      </trkpt>
      <trkpt lat="43.53745" lon="3.70774">
        <ele>51.6</ele>
        <time>2021-04-13T08:35:43Z</time>
      </trkpt>
      <trkpt lat="43.53748" lon="3.70777">
        <ele>51.6</ele>
        <time>2021-04-13T08:35:44Z</time>
      </trkpt>
      <trkpt lat="43.53752" lon="3.7078">
        <ele>51.4</ele>
        <time>2021-04-13T08:35:45Z</time>
      </trkpt>
      <trkpt lat="43.53755" lon="3.70783">
        <ele>51.6</ele>
        <time>2021-04-13T08:35:46Z</time>
      </trkpt>
      <trkpt lat="43.53758" lon="3.70786">
        <ele>51.6</ele>
        <time>2021-04-13T08:35:47Z</time>
      </trkpt>
      <trkpt lat="43.53762" lon="3.7079">
        <ele>51.6</ele>
        <time>2021-04-13T08:35:48Z</time>
      </trkpt>
      <trkpt lat="43.53765" lon="3.70793">
        <ele>51.8</ele>
        <time>2021-04-13T08:35:49Z</time>
      </trkpt>
      <trkpt lat="43.53768" lon="3.70796">
        <ele>51.8</ele>
        <time>2021-04-13T08:35:50Z</time>
      </trkpt>
      <trkpt lat="43.53771" lon="3.70799">
        <ele>51.6</ele>
        <time>2021-04-13T08:35:51Z</time>
      </trkpt>
      <trkpt lat="43.53775" lon="3.70802">
        <ele>51.6</ele>
        <time>2021-04-13T08:35:52Z</time>
      </trkpt>
      <trkpt lat="43.53778" lon="3.70805">
        <ele>51.6</ele>
        <time>2021-04-13T08:35:53Z</time>
      </trkpt>
      <trkpt lat="43.53781" lon="3.70809">
        <ele>51.8</ele>
        <time>2021-04-13T08:35:54Z</time>
      </trkpt>
      <trkpt lat="43.53784" lon="3.70812">
        <ele>51.8</ele>
        <time>2021-04-13T08:35:55Z</time>
      </trkpt>
      <trkpt lat="43.53787" lon="3.70815">
        <ele>51.6</ele>
        <time>2021-04-13T08:35:56Z</time>
      </trkpt>
      <trkpt lat="43.5379" lon="3.70818">
        <ele>51.6</ele>
        <time>2021-04-13T08:35:57Z</time>
      </trkpt>
      <trkpt lat="43.53793" lon="3.70821">
        <ele>51.6</ele>
        <time>2021-04-13T08:35:58Z</time>
      </trkpt>
      <trkpt lat="43.53796" lon="3.70824">
        <ele>51.6</ele>
        <time>2021-04-13T08:35:59Z</time>
      </trkpt>
      <trkpt lat="43.53799" lon="3.70827">
        <ele>51.6</ele>
        <time>2021-04-13T08:36:00Z</time>
      </trkpt>
      <trkpt lat="43.53803" lon="3.7083">
        <ele>51.6</ele>
        <time>2021-04-13T08:36:01Z</time>
      </trkpt>
      <trkpt lat="43.53806" lon="3.70833">
        <ele>51.6</ele>
        <time>2021-04-13T08:36:02Z</time>
      </trkpt>
      <trkpt lat="43.53809" lon="3.70836">
        <ele>51.6</ele>
        <time>2021-04-13T08:36:03Z</time>
      </trkpt>
      <trkpt lat="43.53813" lon="3.70839">
        <ele>51.8</ele>
        <time>2021-04-13T08:36:04Z</time>
      </trkpt>
      <trkpt lat="43.53816" lon="3.70842">
        <ele>51.8</ele>
        <time>2021-04-13T08:36:05Z</time>
      </trkpt>
      <trkpt lat="43.53819" lon="3.70845">
        <ele>51.8</ele>
        <time>2021-04-13T08:36:06Z</time>
      </trkpt>
      <trkpt lat="43.53823" lon="3.70848">
        <ele>51.6</ele>
        <time>2021-04-13T08:36:07Z</time>
      </trkpt>
      <trkpt lat="43.53826" lon="3.70851">
        <ele>51.6</ele>
        <time>2021-04-13T08:36:08Z</time>
      </trkpt>
      <trkpt lat="43.53829" lon="3.70854">
        <ele>51.6</ele>
        <time>2021-04-13T08:36:09Z</time>
      </trkpt>
      <trkpt lat="43.53833" lon="3.70857">
        <ele>51.6</ele>
        <time>2021-04-13T08:36:10Z</time>
      </trkpt>
      <trkpt lat="43.53836" lon="3.7086">
        <ele>51.8</ele>
        <time>2021-04-13T08:36:11Z</time>
      </trkpt>
      <trkpt lat="43.5384" lon="3.70862">
        <ele>51.8</ele>
        <time>2021-04-13T08:36:12Z</time>
      </trkpt>
      <trkpt lat="43.53843" lon="3.70865">
        <ele>51.6</ele>
        <time>2021-04-13T08:36:13Z</time>
      </trkpt>
      <trkpt lat="43.53847" lon="3.70867">
        <ele>51.6</ele>
        <time>2021-04-13T08:36:14Z</time>
      </trkpt>
      <trkpt lat="43.5385" lon="3.7087">
        <ele>51.6</ele>
        <time>2021-04-13T08:36:15Z</time>
      </trkpt>
      <trkpt lat="43.53854" lon="3.70872">
        <ele>51.4</ele>
        <time>2021-04-13T08:36:16Z</time>
      </trkpt>
      <trkpt lat="43.53857" lon="3.70875">
        <ele>51.4</ele>
        <time>2021-04-13T08:36:17Z</time>
      </trkpt>
      <trkpt lat="43.5386" lon="3.70877">
        <ele>51.2</ele>
        <time>2021-04-13T08:36:18Z</time>
      </trkpt>
      <trkpt lat="43.53864" lon="3.7088">
        <ele>51.2</ele>
        <time>2021-04-13T08:36:19Z</time>
      </trkpt>
      <trkpt lat="43.53867" lon="3.70883">
        <ele>51.2</ele>
        <time>2021-04-13T08:36:20Z</time>
      </trkpt>
      <trkpt lat="43.53871" lon="3.70886">
        <ele>51</ele>
        <time>2021-04-13T08:36:21Z</time>
      </trkpt>
      <trkpt lat="43.53875" lon="3.70888">
        <ele>51</ele>
        <time>2021-04-13T08:36:22Z</time>
      </trkpt>
      <trkpt lat="43.53878" lon="3.70891">
        <ele>51</ele>
        <time>2021-04-13T08:36:23Z</time>
      </trkpt>
      <trkpt lat="43.53882" lon="3.70893">
        <ele>51</ele>
        <time>2021-04-13T08:36:24Z</time>
      </trkpt>
      <trkpt lat="43.53887" lon="3.70896">
        <ele>50.8</ele>
        <time>2021-04-13T08:36:25Z</time>
      </trkpt>
      <trkpt lat="43.53891" lon="3.70898">
        <ele>50.8</ele>
        <time>2021-04-13T08:36:26Z</time>
      </trkpt>
      <trkpt lat="43.53895" lon="3.709">
        <ele>50.8</ele>
        <time>2021-04-13T08:36:27Z</time>
      </trkpt>
      <trkpt lat="43.53899" lon="3.70903">
        <ele>51</ele>
        <time>2021-04-13T08:36:28Z</time>
      </trkpt>
      <trkpt lat="43.53903" lon="3.70905">
        <ele>51</ele>
        <time>2021-04-13T08:36:29Z</time>
      </trkpt>
      <trkpt lat="43.53907" lon="3.70907">
        <ele>51.2</ele>
        <time>2021-04-13T08:36:30Z</time>
      </trkpt>
      <trkpt lat="43.53911" lon="3.70909">
        <ele>51.4</ele>
        <time>2021-04-13T08:36:31Z</time>
      </trkpt>
      <trkpt lat="43.53915" lon="3.7091">
        <ele>51</ele>
        <time>2021-04-13T08:36:32Z</time>
      </trkpt>
      <trkpt lat="43.53919" lon="3.70911">
        <ele>50.8</ele>
        <time>2021-04-13T08:36:33Z</time>
      </trkpt>
      <trkpt lat="43.53923" lon="3.70912">
        <ele>50.8</ele>
        <time>2021-04-13T08:36:34Z</time>
      </trkpt>
      <trkpt lat="43.53927" lon="3.70912">
        <ele>50.8</ele>
        <time>2021-04-13T08:36:35Z</time>
      </trkpt>
      <trkpt lat="43.5393" lon="3.70912">
        <ele>50.8</ele>
        <time>2021-04-13T08:36:36Z</time>
      </trkpt>
      <trkpt lat="43.53934" lon="3.70913">
        <ele>50.8</ele>
        <time>2021-04-13T08:36:37Z</time>
      </trkpt>
      <trkpt lat="43.53939" lon="3.70912">
        <ele>50.6</ele>
        <time>2021-04-13T08:36:38Z</time>
      </trkpt>
      <trkpt lat="43.53943" lon="3.70912">
        <ele>50.6</ele>
        <time>2021-04-13T08:36:39Z</time>
      </trkpt>
      <trkpt lat="43.53947" lon="3.70912">
        <ele>50.6</ele>
        <time>2021-04-13T08:36:40Z</time>
      </trkpt>
      <trkpt lat="43.53951" lon="3.70912">
        <ele>50.4</ele>
        <time>2021-04-13T08:36:41Z</time>
      </trkpt>
      <trkpt lat="43.53956" lon="3.70911">
        <ele>50.2</ele>
        <time>2021-04-13T08:36:42Z</time>
      </trkpt>
      <trkpt lat="43.5396" lon="3.70911">
        <ele>50.2</ele>
        <time>2021-04-13T08:36:43Z</time>
      </trkpt>
      <trkpt lat="43.53965" lon="3.7091">
        <ele>50</ele>
        <time>2021-04-13T08:36:44Z</time>
      </trkpt>
      <trkpt lat="43.5397" lon="3.7091">
        <ele>49.8</ele>
        <time>2021-04-13T08:36:45Z</time>
      </trkpt>
      <trkpt lat="43.53975" lon="3.7091">
        <ele>49.6</ele>
        <time>2021-04-13T08:36:46Z</time>
      </trkpt>
      <trkpt lat="43.53979" lon="3.70909">
        <ele>49.4</ele>
        <time>2021-04-13T08:36:47Z</time>
      </trkpt>
      <trkpt lat="43.53984" lon="3.70908">
        <ele>49.6</ele>
        <time>2021-04-13T08:36:48Z</time>
      </trkpt>
      <trkpt lat="43.53989" lon="3.70907">
        <ele>49.4</ele>
        <time>2021-04-13T08:36:49Z</time>
      </trkpt>
      <trkpt lat="43.53994" lon="3.70906">
        <ele>49.4</ele>
        <time>2021-04-13T08:36:50Z</time>
      </trkpt>
      <trkpt lat="43.53999" lon="3.70904">
        <ele>49.4</ele>
        <time>2021-04-13T08:36:51Z</time>
      </trkpt>
      <trkpt lat="43.54003" lon="3.70903">
        <ele>49.2</ele>
        <time>2021-04-13T08:36:52Z</time>
      </trkpt>
      <trkpt lat="43.54008" lon="3.70901">
        <ele>49</ele>
        <time>2021-04-13T08:36:53Z</time>
      </trkpt>
      <trkpt lat="43.54013" lon="3.70899">
        <ele>49</ele>
        <time>2021-04-13T08:36:54Z</time>
      </trkpt>
      <trkpt lat="43.54017" lon="3.70898">
        <ele>49</ele>
        <time>2021-04-13T08:36:55Z</time>
      </trkpt>
      <trkpt lat="43.54022" lon="3.70896">
        <ele>49</ele>
        <time>2021-04-13T08:36:56Z</time>
      </trkpt>
      <trkpt lat="43.54026" lon="3.70895">
        <ele>48.8</ele>
        <time>2021-04-13T08:36:57Z</time>
      </trkpt>
      <trkpt lat="43.54031" lon="3.70893">
        <ele>48.8</ele>
        <time>2021-04-13T08:36:58Z</time>
      </trkpt>
      <trkpt lat="43.54036" lon="3.70892">
        <ele>48.6</ele>
        <time>2021-04-13T08:36:59Z</time>
      </trkpt>
      <trkpt lat="43.54041" lon="3.70891">
        <ele>48.4</ele>
        <time>2021-04-13T08:37:00Z</time>
      </trkpt>
      <trkpt lat="43.54046" lon="3.70891">
        <ele>48</ele>
        <time>2021-04-13T08:37:01Z</time>
      </trkpt>
      <trkpt lat="43.54051" lon="3.70892">
        <ele>48</ele>
        <time>2021-04-13T08:37:02Z</time>
      </trkpt>
      <trkpt lat="43.54056" lon="3.70893">
        <ele>47.8</ele>
        <time>2021-04-13T08:37:03Z</time>
      </trkpt>
      <trkpt lat="43.54061" lon="3.70894">
        <ele>47.6</ele>
        <time>2021-04-13T08:37:04Z</time>
      </trkpt>
      <trkpt lat="43.54066" lon="3.70895">
        <ele>47.6</ele>
        <time>2021-04-13T08:37:05Z</time>
      </trkpt>
      <trkpt lat="43.54071" lon="3.70897">
        <ele>47.6</ele>
        <time>2021-04-13T08:37:06Z</time>
      </trkpt>
      <trkpt lat="43.54075" lon="3.70899">
        <ele>47.6</ele>
        <time>2021-04-13T08:37:07Z</time>
      </trkpt>
      <trkpt lat="43.5408" lon="3.70901">
        <ele>47.6</ele>
        <time>2021-04-13T08:37:08Z</time>
      </trkpt>
      <trkpt lat="43.54085" lon="3.70902">
        <ele>47.6</ele>
        <time>2021-04-13T08:37:09Z</time>
      </trkpt>
      <trkpt lat="43.54089" lon="3.70904">
        <ele>47.6</ele>
        <time>2021-04-13T08:37:10Z</time>
      </trkpt>
      <trkpt lat="43.54093" lon="3.70906">
        <ele>47.6</ele>
        <time>2021-04-13T08:37:11Z</time>
      </trkpt>
      <trkpt lat="43.54098" lon="3.70907">
        <ele>47.6</ele>
        <time>2021-04-13T08:37:12Z</time>
      </trkpt>
      <trkpt lat="43.54102" lon="3.70909">
        <ele>47.6</ele>
        <time>2021-04-13T08:37:13Z</time>
      </trkpt>
      <trkpt lat="43.54106" lon="3.70911">
        <ele>47.6</ele>
        <time>2021-04-13T08:37:14Z</time>
      </trkpt>
      <trkpt lat="43.5411" lon="3.70912">
        <ele>47.6</ele>
        <time>2021-04-13T08:37:15Z</time>
      </trkpt>
      <trkpt lat="43.54113" lon="3.70914">
        <ele>47.4</ele>
        <time>2021-04-13T08:37:16Z</time>
      </trkpt>
      <trkpt lat="43.54116" lon="3.70915">
        <ele>47.4</ele>
        <time>2021-04-13T08:37:17Z</time>
      </trkpt>
      <trkpt lat="43.54119" lon="3.70916">
        <ele>47.2</ele>
        <time>2021-04-13T08:37:18Z</time>
      </trkpt>
      <trkpt lat="43.54121" lon="3.70917">
        <ele>47.2</ele>
        <time>2021-04-13T08:37:19Z</time>
      </trkpt>
      <trkpt lat="43.54124" lon="3.70917">
        <ele>47.4</ele>
        <time>2021-04-13T08:37:20Z</time>
      </trkpt>
      <trkpt lat="43.54126" lon="3.70916">
        <ele>47.2</ele>
        <time>2021-04-13T08:37:21Z</time>
      </trkpt>
      <trkpt lat="43.54128" lon="3.70914">
        <ele>47.2</ele>
        <time>2021-04-13T08:37:22Z</time>
      </trkpt>
      <trkpt lat="43.54131" lon="3.70912">
        <ele>47.2</ele>
        <time>2021-04-13T08:37:23Z</time>
      </trkpt>
      <trkpt lat="43.54133" lon="3.70909">
        <ele>47.2</ele>
        <time>2021-04-13T08:37:24Z</time>
      </trkpt>
      <trkpt lat="43.54135" lon="3.70907">
        <ele>47</ele>
        <time>2021-04-13T08:37:25Z</time>
      </trkpt>
      <trkpt lat="43.54137" lon="3.70906">
        <ele>47</ele>
        <time>2021-04-13T08:37:26Z</time>
      </trkpt>
      <trkpt lat="43.54139" lon="3.70904">
        <ele>47</ele>
        <time>2021-04-13T08:37:27Z</time>
      </trkpt>
      <trkpt lat="43.54142" lon="3.70903">
        <ele>47</ele>
        <time>2021-04-13T08:37:28Z</time>
      </trkpt>
      <trkpt lat="43.54143" lon="3.70902">
        <ele>47</ele>
        <time>2021-04-13T08:37:29Z</time>
      </trkpt>
      <trkpt lat="43.54145" lon="3.709">
        <ele>47</ele>
        <time>2021-04-13T08:37:30Z</time>
      </trkpt>
      <trkpt lat="43.54148" lon="3.70898">
        <ele>47</ele>
        <time>2021-04-13T08:37:31Z</time>
      </trkpt>
      <trkpt lat="43.5415" lon="3.70897">
        <ele>47</ele>
        <time>2021-04-13T08:37:32Z</time>
      </trkpt>
      <trkpt lat="43.54152" lon="3.70895">
        <ele>47</ele>
        <time>2021-04-13T08:37:33Z</time>
      </trkpt>
      <trkpt lat="43.54154" lon="3.70894">
        <ele>47</ele>
        <time>2021-04-13T08:37:34Z</time>
      </trkpt>
      <trkpt lat="43.54156" lon="3.70893">
        <ele>47</ele>
        <time>2021-04-13T08:37:35Z</time>
      </trkpt>
      <trkpt lat="43.54158" lon="3.70891">
        <ele>47</ele>
        <time>2021-04-13T08:37:36Z</time>
      </trkpt>
      <trkpt lat="43.5416" lon="3.7089">
        <ele>47</ele>
        <time>2021-04-13T08:37:37Z</time>
      </trkpt>
      <trkpt lat="43.54162" lon="3.70888">
        <ele>47</ele>
        <time>2021-04-13T08:37:38Z</time>
      </trkpt>
      <trkpt lat="43.54164" lon="3.70887">
        <ele>47.2</ele>
        <time>2021-04-13T08:37:39Z</time>
      </trkpt>
      <trkpt lat="43.54167" lon="3.70885">
        <ele>47.2</ele>
        <time>2021-04-13T08:37:40Z</time>
      </trkpt>
      <trkpt lat="43.54169" lon="3.70883">
        <ele>47.2</ele>
        <time>2021-04-13T08:37:41Z</time>
      </trkpt>
      <trkpt lat="43.54171" lon="3.70881">
        <ele>47.2</ele>
        <time>2021-04-13T08:37:42Z</time>
      </trkpt>
      <trkpt lat="43.54174" lon="3.70878">
        <ele>47.4</ele>
        <time>2021-04-13T08:37:43Z</time>
      </trkpt>
      <trkpt lat="43.54176" lon="3.70876">
        <ele>47.4</ele>
        <time>2021-04-13T08:37:44Z</time>
      </trkpt>
      <trkpt lat="43.54179" lon="3.70873">
        <ele>47.2</ele>
        <time>2021-04-13T08:37:45Z</time>
      </trkpt>
      <trkpt lat="43.54182" lon="3.70871">
        <ele>47.4</ele>
        <time>2021-04-13T08:37:46Z</time>
      </trkpt>
      <trkpt lat="43.54185" lon="3.70868">
        <ele>47.2</ele>
        <time>2021-04-13T08:37:47Z</time>
      </trkpt>
      <trkpt lat="43.54188" lon="3.70866">
        <ele>47.2</ele>
        <time>2021-04-13T08:37:48Z</time>
      </trkpt>
      <trkpt lat="43.54191" lon="3.70864">
        <ele>47</ele>
        <time>2021-04-13T08:37:49Z</time>
      </trkpt>
      <trkpt lat="43.54194" lon="3.70861">
        <ele>47.2</ele>
        <time>2021-04-13T08:37:50Z</time>
      </trkpt>
      <trkpt lat="43.54197" lon="3.70858">
        <ele>47.2</ele>
        <time>2021-04-13T08:37:51Z</time>
      </trkpt>
      <trkpt lat="43.542" lon="3.70856">
        <ele>47.2</ele>
        <time>2021-04-13T08:37:52Z</time>
      </trkpt>
      <trkpt lat="43.54203" lon="3.70853">
        <ele>47</ele>
        <time>2021-04-13T08:37:53Z</time>
      </trkpt>
      <trkpt lat="43.54206" lon="3.70851">
        <ele>47</ele>
        <time>2021-04-13T08:37:54Z</time>
      </trkpt>
      <trkpt lat="43.5421" lon="3.70848">
        <ele>47.2</ele>
        <time>2021-04-13T08:37:55Z</time>
      </trkpt>
      <trkpt lat="43.54213" lon="3.70846">
        <ele>47.2</ele>
        <time>2021-04-13T08:37:56Z</time>
      </trkpt>
      <trkpt lat="43.54216" lon="3.70843">
        <ele>47.2</ele>
        <time>2021-04-13T08:37:57Z</time>
      </trkpt>
      <trkpt lat="43.5422" lon="3.70841">
        <ele>47</ele>
        <time>2021-04-13T08:37:58Z</time>
      </trkpt>
      <trkpt lat="43.54223" lon="3.70838">
        <ele>47</ele>
        <time>2021-04-13T08:37:59Z</time>
      </trkpt>
      <trkpt lat="43.54226" lon="3.70836">
        <ele>46.6</ele>
        <time>2021-04-13T08:38:00Z</time>
      </trkpt>
      <trkpt lat="43.5423" lon="3.70833">
        <ele>47</ele>
        <time>2021-04-13T08:38:01Z</time>
      </trkpt>
      <trkpt lat="43.54233" lon="3.70831">
        <ele>47</ele>
        <time>2021-04-13T08:38:02Z</time>
      </trkpt>
      <trkpt lat="43.54237" lon="3.70828">
        <ele>47.2</ele>
        <time>2021-04-13T08:38:03Z</time>
      </trkpt>
      <trkpt lat="43.5424" lon="3.70826">
        <ele>47.2</ele>
        <time>2021-04-13T08:38:04Z</time>
      </trkpt>
      <trkpt lat="43.54243" lon="3.70823">
        <ele>47.4</ele>
        <time>2021-04-13T08:38:05Z</time>
      </trkpt>
      <trkpt lat="43.54247" lon="3.7082">
        <ele>47.6</ele>
        <time>2021-04-13T08:38:06Z</time>
      </trkpt>
      <trkpt lat="43.5425" lon="3.70817">
        <ele>47.4</ele>
        <time>2021-04-13T08:38:07Z</time>
      </trkpt>
      <trkpt lat="43.54253" lon="3.70814">
        <ele>47.6</ele>
        <time>2021-04-13T08:38:08Z</time>
      </trkpt>
      <trkpt lat="43.54257" lon="3.70811">
        <ele>47.6</ele>
        <time>2021-04-13T08:38:09Z</time>
      </trkpt>
      <trkpt lat="43.5426" lon="3.70808">
        <ele>47.6</ele>
        <time>2021-04-13T08:38:10Z</time>
      </trkpt>
      <trkpt lat="43.54264" lon="3.70805">
        <ele>47.6</ele>
        <time>2021-04-13T08:38:11Z</time>
      </trkpt>
      <trkpt lat="43.54267" lon="3.70802">
        <ele>47.8</ele>
        <time>2021-04-13T08:38:12Z</time>
      </trkpt>
      <trkpt lat="43.54271" lon="3.70799">
        <ele>47.8</ele>
        <time>2021-04-13T08:38:13Z</time>
      </trkpt>
      <trkpt lat="43.54274" lon="3.70796">
        <ele>48</ele>
        <time>2021-04-13T08:38:14Z</time>
      </trkpt>
      <trkpt lat="43.54278" lon="3.70793">
        <ele>48</ele>
        <time>2021-04-13T08:38:15Z</time>
      </trkpt>
      <trkpt lat="43.54281" lon="3.7079">
        <ele>48</ele>
        <time>2021-04-13T08:38:16Z</time>
      </trkpt>
      <trkpt lat="43.54285" lon="3.70787">
        <ele>48.2</ele>
        <time>2021-04-13T08:38:17Z</time>
      </trkpt>
      <trkpt lat="43.54288" lon="3.70784">
        <ele>48.2</ele>
        <time>2021-04-13T08:38:18Z</time>
      </trkpt>
      <trkpt lat="43.54291" lon="3.70781">
        <ele>48.2</ele>
        <time>2021-04-13T08:38:19Z</time>
      </trkpt>
      <trkpt lat="43.54294" lon="3.70779">
        <ele>48.4</ele>
        <time>2021-04-13T08:38:20Z</time>
      </trkpt>
      <trkpt lat="43.54297" lon="3.70777">
        <ele>48.4</ele>
        <time>2021-04-13T08:38:21Z</time>
      </trkpt>
      <trkpt lat="43.543" lon="3.70776">
        <ele>48.6</ele>
        <time>2021-04-13T08:38:22Z</time>
      </trkpt>
      <trkpt lat="43.54303" lon="3.70774">
        <ele>48.4</ele>
        <time>2021-04-13T08:38:23Z</time>
      </trkpt>
      <trkpt lat="43.54306" lon="3.70772">
        <ele>48.6</ele>
        <time>2021-04-13T08:38:24Z</time>
      </trkpt>
      <trkpt lat="43.54309" lon="3.70769">
        <ele>48.6</ele>
        <time>2021-04-13T08:38:25Z</time>
      </trkpt>
      <trkpt lat="43.54312" lon="3.70766">
        <ele>48.6</ele>
        <time>2021-04-13T08:38:26Z</time>
      </trkpt>
      <trkpt lat="43.54314" lon="3.70763">
        <ele>48.6</ele>
        <time>2021-04-13T08:38:27Z</time>
      </trkpt>
      <trkpt lat="43.54317" lon="3.70761">
        <ele>48.8</ele>
        <time>2021-04-13T08:38:28Z</time>
      </trkpt>
      <trkpt lat="43.5432" lon="3.70758">
        <ele>49</ele>
        <time>2021-04-13T08:38:29Z</time>
      </trkpt>
      <trkpt lat="43.54324" lon="3.70756">
        <ele>49</ele>
        <time>2021-04-13T08:38:30Z</time>
      </trkpt>
      <trkpt lat="43.54327" lon="3.70754">
        <ele>49.2</ele>
        <time>2021-04-13T08:38:31Z</time>
      </trkpt>
      <trkpt lat="43.5433" lon="3.70751">
        <ele>49.4</ele>
        <time>2021-04-13T08:38:32Z</time>
      </trkpt>
      <trkpt lat="43.54333" lon="3.70749">
        <ele>49.4</ele>
        <time>2021-04-13T08:38:33Z</time>
      </trkpt>
      <trkpt lat="43.54337" lon="3.70746">
        <ele>49.4</ele>
        <time>2021-04-13T08:38:34Z</time>
      </trkpt>
      <trkpt lat="43.5434" lon="3.70744">
        <ele>49.6</ele>
        <time>2021-04-13T08:38:35Z</time>
      </trkpt>
      <trkpt lat="43.54343" lon="3.70741">
        <ele>49.8</ele>
        <time>2021-04-13T08:38:36Z</time>
      </trkpt>
      <trkpt lat="43.54347" lon="3.70738">
        <ele>49.8</ele>
        <time>2021-04-13T08:38:37Z</time>
      </trkpt>
      <trkpt lat="43.5435" lon="3.70735">
        <ele>50</ele>
        <time>2021-04-13T08:38:38Z</time>
      </trkpt>
      <trkpt lat="43.54353" lon="3.70732">
        <ele>50.2</ele>
        <time>2021-04-13T08:38:39Z</time>
      </trkpt>
      <trkpt lat="43.54357" lon="3.70729">
        <ele>50.2</ele>
        <time>2021-04-13T08:38:40Z</time>
      </trkpt>
      <trkpt lat="43.5436" lon="3.70725">
        <ele>50.4</ele>
        <time>2021-04-13T08:38:41Z</time>
      </trkpt>
      <trkpt lat="43.54363" lon="3.70722">
        <ele>50.6</ele>
        <time>2021-04-13T08:38:42Z</time>
      </trkpt>
      <trkpt lat="43.54366" lon="3.7072">
        <ele>50.6</ele>
        <time>2021-04-13T08:38:43Z</time>
      </trkpt>
      <trkpt lat="43.5437" lon="3.70717">
        <ele>50.8</ele>
        <time>2021-04-13T08:38:44Z</time>
      </trkpt>
      <trkpt lat="43.54373" lon="3.70713">
        <ele>50.8</ele>
        <time>2021-04-13T08:38:45Z</time>
      </trkpt>
      <trkpt lat="43.54376" lon="3.70711">
        <ele>50.8</ele>
        <time>2021-04-13T08:38:46Z</time>
      </trkpt>
      <trkpt lat="43.54379" lon="3.70708">
        <ele>51</ele>
        <time>2021-04-13T08:38:47Z</time>
      </trkpt>
      <trkpt lat="43.54383" lon="3.70705">
        <ele>51</ele>
        <time>2021-04-13T08:38:48Z</time>
      </trkpt>
      <trkpt lat="43.54386" lon="3.70703">
        <ele>51</ele>
        <time>2021-04-13T08:38:49Z</time>
      </trkpt>
      <trkpt lat="43.5439" lon="3.70702">
        <ele>51.2</ele>
        <time>2021-04-13T08:38:50Z</time>
      </trkpt>
      <trkpt lat="43.54393" lon="3.70701">
        <ele>51.2</ele>
        <time>2021-04-13T08:38:51Z</time>
      </trkpt>
      <trkpt lat="43.54397" lon="3.707">
        <ele>51.2</ele>
        <time>2021-04-13T08:38:52Z</time>
      </trkpt>
      <trkpt lat="43.544" lon="3.70699">
        <ele>51.4</ele>
        <time>2021-04-13T08:38:53Z</time>
      </trkpt>
      <trkpt lat="43.54404" lon="3.70699">
        <ele>51.6</ele>
        <time>2021-04-13T08:38:54Z</time>
      </trkpt>
      <trkpt lat="43.54407" lon="3.70698">
        <ele>51.6</ele>
        <time>2021-04-13T08:38:55Z</time>
      </trkpt>
      <trkpt lat="43.54411" lon="3.70698">
        <ele>51.6</ele>
        <time>2021-04-13T08:38:56Z</time>
      </trkpt>
      <trkpt lat="43.54414" lon="3.70698">
        <ele>51.8</ele>
        <time>2021-04-13T08:38:57Z</time>
      </trkpt>
      <trkpt lat="43.54417" lon="3.70698">
        <ele>51.8</ele>
        <time>2021-04-13T08:38:58Z</time>
      </trkpt>
      <trkpt lat="43.54421" lon="3.70697">
        <ele>52</ele>
        <time>2021-04-13T08:38:59Z</time>
      </trkpt>
      <trkpt lat="43.54424" lon="3.70697">
        <ele>52.2</ele>
        <time>2021-04-13T08:39:00Z</time>
      </trkpt>
      <trkpt lat="43.54427" lon="3.70696">
        <ele>52.2</ele>
        <time>2021-04-13T08:39:01Z</time>
      </trkpt>
      <trkpt lat="43.5443" lon="3.70694">
        <ele>52.4</ele>
        <time>2021-04-13T08:39:02Z</time>
      </trkpt>
      <trkpt lat="43.54434" lon="3.70693">
        <ele>52.4</ele>
        <time>2021-04-13T08:39:03Z</time>
      </trkpt>
      <trkpt lat="43.54437" lon="3.7069">
        <ele>52.6</ele>
        <time>2021-04-13T08:39:04Z</time>
      </trkpt>
      <trkpt lat="43.5444" lon="3.70688">
        <ele>52.6</ele>
        <time>2021-04-13T08:39:05Z</time>
      </trkpt>
      <trkpt lat="43.54442" lon="3.70686">
        <ele>52.8</ele>
        <time>2021-04-13T08:39:06Z</time>
      </trkpt>
      <trkpt lat="43.54445" lon="3.70683">
        <ele>52.8</ele>
        <time>2021-04-13T08:39:07Z</time>
      </trkpt>
      <trkpt lat="43.54448" lon="3.7068">
        <ele>52.8</ele>
        <time>2021-04-13T08:39:08Z</time>
      </trkpt>
      <trkpt lat="43.5445" lon="3.70677">
        <ele>53</ele>
        <time>2021-04-13T08:39:09Z</time>
      </trkpt>
      <trkpt lat="43.54453" lon="3.70674">
        <ele>53</ele>
        <time>2021-04-13T08:39:10Z</time>
      </trkpt>
      <trkpt lat="43.54455" lon="3.70671">
        <ele>53.2</ele>
        <time>2021-04-13T08:39:11Z</time>
      </trkpt>
      <trkpt lat="43.54458" lon="3.70668">
        <ele>53.4</ele>
        <time>2021-04-13T08:39:12Z</time>
      </trkpt>
      <trkpt lat="43.5446" lon="3.70665">
        <ele>53.4</ele>
        <time>2021-04-13T08:39:13Z</time>
      </trkpt>
      <trkpt lat="43.54462" lon="3.70662">
        <ele>53.6</ele>
        <time>2021-04-13T08:39:14Z</time>
      </trkpt>
      <trkpt lat="43.54465" lon="3.70659">
        <ele>53.6</ele>
        <time>2021-04-13T08:39:15Z</time>
      </trkpt>
      <trkpt lat="43.54467" lon="3.70655">
        <ele>53.6</ele>
        <time>2021-04-13T08:39:16Z</time>
      </trkpt>
      <trkpt lat="43.54469" lon="3.70652">
        <ele>53.8</ele>
        <time>2021-04-13T08:39:17Z</time>
      </trkpt>
      <trkpt lat="43.54471" lon="3.70649">
        <ele>54</ele>
        <time>2021-04-13T08:39:18Z</time>
      </trkpt>
      <trkpt lat="43.54473" lon="3.70646">
        <ele>54</ele>
        <time>2021-04-13T08:39:19Z</time>
      </trkpt>
      <trkpt lat="43.54475" lon="3.70642">
        <ele>54</ele>
        <time>2021-04-13T08:39:20Z</time>
      </trkpt>
      <trkpt lat="43.54477" lon="3.70639">
        <ele>54</ele>
        <time>2021-04-13T08:39:21Z</time>
      </trkpt>
      <trkpt lat="43.54479" lon="3.70636">
        <ele>54</ele>
        <time>2021-04-13T08:39:22Z</time>
      </trkpt>
      <trkpt lat="43.54481" lon="3.70632">
        <ele>54.2</ele>
        <time>2021-04-13T08:39:23Z</time>
      </trkpt>
      <trkpt lat="43.54483" lon="3.70629">
        <ele>54.2</ele>
        <time>2021-04-13T08:39:24Z</time>
      </trkpt>
      <trkpt lat="43.54485" lon="3.70626">
        <ele>54.4</ele>
        <time>2021-04-13T08:39:25Z</time>
      </trkpt>
      <trkpt lat="43.54487" lon="3.70622">
        <ele>54.6</ele>
        <time>2021-04-13T08:39:26Z</time>
      </trkpt>
      <trkpt lat="43.54489" lon="3.70619">
        <ele>54.6</ele>
        <time>2021-04-13T08:39:27Z</time>
      </trkpt>
      <trkpt lat="43.54491" lon="3.70616">
        <ele>54.6</ele>
        <time>2021-04-13T08:39:28Z</time>
      </trkpt>
      <trkpt lat="43.54494" lon="3.70613">
        <ele>54.8</ele>
        <time>2021-04-13T08:39:29Z</time>
      </trkpt>
      <trkpt lat="43.54496" lon="3.7061">
        <ele>54.8</ele>
        <time>2021-04-13T08:39:30Z</time>
      </trkpt>
      <trkpt lat="43.54498" lon="3.70607">
        <ele>55</ele>
        <time>2021-04-13T08:39:31Z</time>
      </trkpt>
      <trkpt lat="43.545" lon="3.70604">
        <ele>55.2</ele>
        <time>2021-04-13T08:39:32Z</time>
      </trkpt>
      <trkpt lat="43.54501" lon="3.706">
        <ele>55.2</ele>
        <time>2021-04-13T08:39:33Z</time>
      </trkpt>
      <trkpt lat="43.54503" lon="3.70596">
        <ele>55.2</ele>
        <time>2021-04-13T08:39:34Z</time>
      </trkpt>
      <trkpt lat="43.54504" lon="3.70593">
        <ele>55.4</ele>
        <time>2021-04-13T08:39:35Z</time>
      </trkpt>
      <trkpt lat="43.54505" lon="3.70589">
        <ele>55.4</ele>
        <time>2021-04-13T08:39:36Z</time>
      </trkpt>
      <trkpt lat="43.54507" lon="3.70585">
        <ele>55.6</ele>
        <time>2021-04-13T08:39:37Z</time>
      </trkpt>
      <trkpt lat="43.54507" lon="3.70581">
        <ele>55.8</ele>
        <time>2021-04-13T08:39:38Z</time>
      </trkpt>
      <trkpt lat="43.54508" lon="3.70578">
        <ele>55.8</ele>
        <time>2021-04-13T08:39:39Z</time>
      </trkpt>
      <trkpt lat="43.54508" lon="3.70574">
        <ele>56</ele>
        <time>2021-04-13T08:39:40Z</time>
      </trkpt>
      <trkpt lat="43.54508" lon="3.70571">
        <ele>56</ele>
        <time>2021-04-13T08:39:41Z</time>
      </trkpt>
      <trkpt lat="43.54508" lon="3.70567">
        <ele>56.2</ele>
        <time>2021-04-13T08:39:42Z</time>
      </trkpt>
      <trkpt lat="43.54508" lon="3.70564">
        <ele>56.2</ele>
        <time>2021-04-13T08:39:43Z</time>
      </trkpt>
      <trkpt lat="43.54509" lon="3.70562">
        <ele>56.4</ele>
        <time>2021-04-13T08:39:44Z</time>
      </trkpt>
      <trkpt lat="43.54509" lon="3.7056">
        <ele>56.4</ele>
        <time>2021-04-13T08:39:45Z</time>
      </trkpt>
      <trkpt lat="43.54509" lon="3.70557">
        <ele>56.4</ele>
        <time>2021-04-13T08:39:46Z</time>
      </trkpt>
      <trkpt lat="43.5451" lon="3.70555">
        <ele>56.6</ele>
        <time>2021-04-13T08:39:47Z</time>
      </trkpt>
      <trkpt lat="43.54511" lon="3.70552">
        <ele>56.8</ele>
        <time>2021-04-13T08:39:48Z</time>
      </trkpt>
      <trkpt lat="43.54511" lon="3.70549">
        <ele>57</ele>
        <time>2021-04-13T08:39:49Z</time>
      </trkpt>
      <trkpt lat="43.54513" lon="3.70547">
        <ele>57</ele>
        <time>2021-04-13T08:39:50Z</time>
      </trkpt>
      <trkpt lat="43.54514" lon="3.70545">
        <ele>57.2</ele>
        <time>2021-04-13T08:39:51Z</time>
      </trkpt>
      <trkpt lat="43.54516" lon="3.70542">
        <ele>57.4</ele>
        <time>2021-04-13T08:39:52Z</time>
      </trkpt>
      <trkpt lat="43.54519" lon="3.70541">
        <ele>57.4</ele>
        <time>2021-04-13T08:39:53Z</time>
      </trkpt>
      <trkpt lat="43.54521" lon="3.70539">
        <ele>57.4</ele>
        <time>2021-04-13T08:39:54Z</time>
      </trkpt>
      <trkpt lat="43.54524" lon="3.70537">
        <ele>57.6</ele>
        <time>2021-04-13T08:39:55Z</time>
      </trkpt>
      <trkpt lat="43.54526" lon="3.70535">
        <ele>57.6</ele>
        <time>2021-04-13T08:39:56Z</time>
      </trkpt>
      <trkpt lat="43.54529" lon="3.70533">
        <ele>57.8</ele>
        <time>2021-04-13T08:39:57Z</time>
      </trkpt>
      <trkpt lat="43.54531" lon="3.70531">
        <ele>57.8</ele>
        <time>2021-04-13T08:39:58Z</time>
      </trkpt>
      <trkpt lat="43.54534" lon="3.70528">
        <ele>57.8</ele>
        <time>2021-04-13T08:39:59Z</time>
      </trkpt>
      <trkpt lat="43.54536" lon="3.70525">
        <ele>58</ele>
        <time>2021-04-13T08:40:00Z</time>
      </trkpt>
      <trkpt lat="43.54537" lon="3.70522">
        <ele>58</ele>
        <time>2021-04-13T08:40:01Z</time>
      </trkpt>
      <trkpt lat="43.54539" lon="3.70519">
        <ele>58.2</ele>
        <time>2021-04-13T08:40:02Z</time>
      </trkpt>
      <trkpt lat="43.54542" lon="3.70516">
        <ele>58.2</ele>
        <time>2021-04-13T08:40:03Z</time>
      </trkpt>
      <trkpt lat="43.54544" lon="3.70513">
        <ele>58.2</ele>
        <time>2021-04-13T08:40:04Z</time>
      </trkpt>
      <trkpt lat="43.54547" lon="3.7051">
        <ele>58.2</ele>
        <time>2021-04-13T08:40:05Z</time>
      </trkpt>
      <trkpt lat="43.54549" lon="3.70508">
        <ele>58.4</ele>
        <time>2021-04-13T08:40:06Z</time>
      </trkpt>
      <trkpt lat="43.54552" lon="3.70506">
        <ele>58.4</ele>
        <time>2021-04-13T08:40:07Z</time>
      </trkpt>
      <trkpt lat="43.54555" lon="3.70505">
        <ele>58.4</ele>
        <time>2021-04-13T08:40:08Z</time>
      </trkpt>
      <trkpt lat="43.54558" lon="3.70504">
        <ele>58.6</ele>
        <time>2021-04-13T08:40:09Z</time>
      </trkpt>
      <trkpt lat="43.5456" lon="3.70504">
        <ele>58.6</ele>
        <time>2021-04-13T08:40:10Z</time>
      </trkpt>
      <trkpt lat="43.54562" lon="3.70503">
        <ele>58.8</ele>
        <time>2021-04-13T08:40:11Z</time>
      </trkpt>
      <trkpt lat="43.54564" lon="3.70502">
        <ele>58.6</ele>
        <time>2021-04-13T08:40:12Z</time>
      </trkpt>
      <trkpt lat="43.54565" lon="3.70501">
        <ele>58.8</ele>
        <time>2021-04-13T08:40:13Z</time>
      </trkpt>
      <trkpt lat="43.54566" lon="3.70499">
        <ele>58.8</ele>
        <time>2021-04-13T08:40:14Z</time>
      </trkpt>
      <trkpt lat="43.54568" lon="3.70497">
        <ele>59</ele>
        <time>2021-04-13T08:40:15Z</time>
      </trkpt>
      <trkpt lat="43.54569" lon="3.70495">
        <ele>59</ele>
        <time>2021-04-13T08:40:16Z</time>
      </trkpt>
      <trkpt lat="43.54571" lon="3.70492">
        <ele>59</ele>
        <time>2021-04-13T08:40:17Z</time>
      </trkpt>
      <trkpt lat="43.54573" lon="3.70489">
        <ele>59</ele>
        <time>2021-04-13T08:40:18Z</time>
      </trkpt>
      <trkpt lat="43.54576" lon="3.70487">
        <ele>59</ele>
        <time>2021-04-13T08:40:19Z</time>
      </trkpt>
      <trkpt lat="43.54579" lon="3.70485">
        <ele>59</ele>
        <time>2021-04-13T08:40:20Z</time>
      </trkpt>
      <trkpt lat="43.54581" lon="3.70483">
        <ele>59.2</ele>
        <time>2021-04-13T08:40:21Z</time>
      </trkpt>
      <trkpt lat="43.54584" lon="3.70481">
        <ele>59.4</ele>
        <time>2021-04-13T08:40:22Z</time>
      </trkpt>
      <trkpt lat="43.54586" lon="3.70478">
        <ele>59.4</ele>
        <time>2021-04-13T08:40:23Z</time>
      </trkpt>
      <trkpt lat="43.54589" lon="3.70476">
        <ele>59.4</ele>
        <time>2021-04-13T08:40:24Z</time>
      </trkpt>
      <trkpt lat="43.54592" lon="3.70474">
        <ele>59.6</ele>
        <time>2021-04-13T08:40:25Z</time>
      </trkpt>
      <trkpt lat="43.54594" lon="3.70472">
        <ele>59.4</ele>
        <time>2021-04-13T08:40:26Z</time>
      </trkpt>
      <trkpt lat="43.54596" lon="3.7047">
        <ele>59.6</ele>
        <time>2021-04-13T08:40:27Z</time>
      </trkpt>
      <trkpt lat="43.54598" lon="3.70469">
        <ele>59.8</ele>
        <time>2021-04-13T08:40:28Z</time>
      </trkpt>
      <trkpt lat="43.546" lon="3.70469">
        <ele>59.8</ele>
        <time>2021-04-13T08:40:29Z</time>
      </trkpt>
      <trkpt lat="43.54603" lon="3.70468">
        <ele>60</ele>
        <time>2021-04-13T08:40:30Z</time>
      </trkpt>
      <trkpt lat="43.54605" lon="3.70466">
        <ele>60.2</ele>
        <time>2021-04-13T08:40:31Z</time>
      </trkpt>
      <trkpt lat="43.54607" lon="3.70465">
        <ele>60.6</ele>
        <time>2021-04-13T08:40:32Z</time>
      </trkpt>
      <trkpt lat="43.5461" lon="3.70464">
        <ele>60.8</ele>
        <time>2021-04-13T08:40:33Z</time>
      </trkpt>
      <trkpt lat="43.54612" lon="3.70463">
        <ele>60.8</ele>
        <time>2021-04-13T08:40:34Z</time>
      </trkpt>
      <trkpt lat="43.54615" lon="3.70462">
        <ele>60.8</ele>
        <time>2021-04-13T08:40:35Z</time>
      </trkpt>
      <trkpt lat="43.54618" lon="3.70461">
        <ele>61</ele>
        <time>2021-04-13T08:40:36Z</time>
      </trkpt>
      <trkpt lat="43.54621" lon="3.70461">
        <ele>61</ele>
        <time>2021-04-13T08:40:37Z</time>
      </trkpt>
      <trkpt lat="43.54623" lon="3.7046">
        <ele>61.2</ele>
        <time>2021-04-13T08:40:38Z</time>
      </trkpt>
      <trkpt lat="43.54626" lon="3.70459">
        <ele>61.4</ele>
        <time>2021-04-13T08:40:39Z</time>
      </trkpt>
      <trkpt lat="43.54629" lon="3.70458">
        <ele>61.8</ele>
        <time>2021-04-13T08:40:40Z</time>
      </trkpt>
      <trkpt lat="43.54631" lon="3.70457">
        <ele>62</ele>
        <time>2021-04-13T08:40:41Z</time>
      </trkpt>
      <trkpt lat="43.54634" lon="3.70455">
        <ele>62</ele>
        <time>2021-04-13T08:40:42Z</time>
      </trkpt>
      <trkpt lat="43.54637" lon="3.70454">
        <ele>62</ele>
        <time>2021-04-13T08:40:43Z</time>
      </trkpt>
      <trkpt lat="43.54639" lon="3.70453">
        <ele>62.2</ele>
        <time>2021-04-13T08:40:44Z</time>
      </trkpt>
      <trkpt lat="43.54642" lon="3.70452">
        <ele>62.2</ele>
        <time>2021-04-13T08:40:45Z</time>
      </trkpt>
      <trkpt lat="43.54645" lon="3.70451">
        <ele>62.4</ele>
        <time>2021-04-13T08:40:46Z</time>
      </trkpt>
      <trkpt lat="43.54647" lon="3.7045">
        <ele>62.4</ele>
        <time>2021-04-13T08:40:47Z</time>
      </trkpt>
      <trkpt lat="43.5465" lon="3.70449">
        <ele>62.6</ele>
        <time>2021-04-13T08:40:48Z</time>
      </trkpt>
      <trkpt lat="43.54652" lon="3.70448">
        <ele>63</ele>
        <time>2021-04-13T08:40:49Z</time>
      </trkpt>
      <trkpt lat="43.54655" lon="3.70447">
        <ele>63.2</ele>
        <time>2021-04-13T08:40:50Z</time>
      </trkpt>
      <trkpt lat="43.54657" lon="3.70447">
        <ele>63.4</ele>
        <time>2021-04-13T08:40:51Z</time>
      </trkpt>
      <trkpt lat="43.5466" lon="3.70447">
        <ele>63.6</ele>
        <time>2021-04-13T08:40:52Z</time>
      </trkpt>
      <trkpt lat="43.54662" lon="3.70446">
        <ele>63.6</ele>
        <time>2021-04-13T08:40:53Z</time>
      </trkpt>
      <trkpt lat="43.54664" lon="3.70446">
        <ele>64.4</ele>
        <time>2021-04-13T08:40:54Z</time>
      </trkpt>
      <trkpt lat="43.54667" lon="3.70446">
        <ele>64.2</ele>
        <time>2021-04-13T08:40:55Z</time>
      </trkpt>
      <trkpt lat="43.5467" lon="3.70446">
        <ele>64.2</ele>
        <time>2021-04-13T08:40:56Z</time>
      </trkpt>
      <trkpt lat="43.54672" lon="3.70446">
        <ele>64.2</ele>
        <time>2021-04-13T08:40:57Z</time>
      </trkpt>
      <trkpt lat="43.54675" lon="3.70447">
        <ele>64.4</ele>
        <time>2021-04-13T08:40:58Z</time>
      </trkpt>
      <trkpt lat="43.54677" lon="3.70447">
        <ele>64.4</ele>
        <time>2021-04-13T08:40:59Z</time>
      </trkpt>
      <trkpt lat="43.5468" lon="3.70447">
        <ele>64.6</ele>
        <time>2021-04-13T08:41:00Z</time>
      </trkpt>
      <trkpt lat="43.54683" lon="3.70448">
        <ele>64.8</ele>
        <time>2021-04-13T08:41:01Z</time>
      </trkpt>
      <trkpt lat="43.54685" lon="3.70448">
        <ele>65</ele>
        <time>2021-04-13T08:41:02Z</time>
      </trkpt>
      <trkpt lat="43.54687" lon="3.70448">
        <ele>65</ele>
        <time>2021-04-13T08:41:03Z</time>
      </trkpt>
      <trkpt lat="43.54689" lon="3.70447">
        <ele>65.2</ele>
        <time>2021-04-13T08:41:04Z</time>
      </trkpt>
      <trkpt lat="43.54691" lon="3.70448">
        <ele>65.4</ele>
        <time>2021-04-13T08:41:05Z</time>
      </trkpt>
      <trkpt lat="43.54693" lon="3.70449">
        <ele>65.6</ele>
        <time>2021-04-13T08:41:06Z</time>
      </trkpt>
      <trkpt lat="43.54696" lon="3.7045">
        <ele>65.6</ele>
        <time>2021-04-13T08:41:07Z</time>
      </trkpt>
      <trkpt lat="43.54698" lon="3.70451">
        <ele>65.8</ele>
        <time>2021-04-13T08:41:08Z</time>
      </trkpt>
      <trkpt lat="43.54701" lon="3.70452">
        <ele>65.8</ele>
        <time>2021-04-13T08:41:09Z</time>
      </trkpt>
      <trkpt lat="43.54703" lon="3.70452">
        <ele>66</ele>
        <time>2021-04-13T08:41:10Z</time>
      </trkpt>
      <trkpt lat="43.54705" lon="3.70453">
        <ele>66.2</ele>
        <time>2021-04-13T08:41:11Z</time>
      </trkpt>
      <trkpt lat="43.54708" lon="3.70453">
        <ele>66.4</ele>
        <time>2021-04-13T08:41:12Z</time>
      </trkpt>
      <trkpt lat="43.5471" lon="3.70453">
        <ele>66.6</ele>
        <time>2021-04-13T08:41:13Z</time>
      </trkpt>
      <trkpt lat="43.54713" lon="3.70454">
        <ele>66.8</ele>
        <time>2021-04-13T08:41:14Z</time>
      </trkpt>
      <trkpt lat="43.54715" lon="3.70454">
        <ele>67</ele>
        <time>2021-04-13T08:41:15Z</time>
      </trkpt>
      <trkpt lat="43.54718" lon="3.70454">
        <ele>67</ele>
        <time>2021-04-13T08:41:16Z</time>
      </trkpt>
      <trkpt lat="43.5472" lon="3.70454">
        <ele>67.2</ele>
        <time>2021-04-13T08:41:17Z</time>
      </trkpt>
      <trkpt lat="43.54723" lon="3.70454">
        <ele>67.4</ele>
        <time>2021-04-13T08:41:18Z</time>
      </trkpt>
      <trkpt lat="43.54725" lon="3.70455">
        <ele>67.6</ele>
        <time>2021-04-13T08:41:19Z</time>
      </trkpt>
      <trkpt lat="43.54727" lon="3.70455">
        <ele>67.8</ele>
        <time>2021-04-13T08:41:20Z</time>
      </trkpt>
      <trkpt lat="43.5473" lon="3.70455">
        <ele>68</ele>
        <time>2021-04-13T08:41:21Z</time>
      </trkpt>
      <trkpt lat="43.54732" lon="3.70456">
        <ele>68.2</ele>
        <time>2021-04-13T08:41:22Z</time>
      </trkpt>
      <trkpt lat="43.54735" lon="3.70456">
        <ele>68.4</ele>
        <time>2021-04-13T08:41:23Z</time>
      </trkpt>
      <trkpt lat="43.54737" lon="3.70455">
        <ele>68.4</ele>
        <time>2021-04-13T08:41:24Z</time>
      </trkpt>
      <trkpt lat="43.54739" lon="3.70456">
        <ele>68.6</ele>
        <time>2021-04-13T08:41:25Z</time>
      </trkpt>
      <trkpt lat="43.54741" lon="3.70456">
        <ele>68.8</ele>
        <time>2021-04-13T08:41:26Z</time>
      </trkpt>
      <trkpt lat="43.54743" lon="3.70456">
        <ele>68.8</ele>
        <time>2021-04-13T08:41:27Z</time>
      </trkpt>
      <trkpt lat="43.54745" lon="3.70457">
        <ele>69</ele>
        <time>2021-04-13T08:41:28Z</time>
      </trkpt>
      <trkpt lat="43.54747" lon="3.70459">
        <ele>69.2</ele>
        <time>2021-04-13T08:41:29Z</time>
      </trkpt>
      <trkpt lat="43.5475" lon="3.7046">
        <ele>69.4</ele>
        <time>2021-04-13T08:41:30Z</time>
      </trkpt>
      <trkpt lat="43.54752" lon="3.7046">
        <ele>69.6</ele>
        <time>2021-04-13T08:41:31Z</time>
      </trkpt>
      <trkpt lat="43.54754" lon="3.7046">
        <ele>69.8</ele>
        <time>2021-04-13T08:41:32Z</time>
      </trkpt>
      <trkpt lat="43.54756" lon="3.7046">
        <ele>69.8</ele>
        <time>2021-04-13T08:41:33Z</time>
      </trkpt>
      <trkpt lat="43.54758" lon="3.7046">
        <ele>70</ele>
        <time>2021-04-13T08:41:34Z</time>
      </trkpt>
      <trkpt lat="43.5476" lon="3.70461">
        <ele>70.2</ele>
        <time>2021-04-13T08:41:35Z</time>
      </trkpt>
      <trkpt lat="43.54763" lon="3.70462">
        <ele>70.4</ele>
        <time>2021-04-13T08:41:36Z</time>
      </trkpt>
      <trkpt lat="43.54765" lon="3.70462">
        <ele>70.4</ele>
        <time>2021-04-13T08:41:37Z</time>
      </trkpt>
      <trkpt lat="43.54766" lon="3.70463">
        <ele>70.8</ele>
        <time>2021-04-13T08:41:38Z</time>
      </trkpt>
      <trkpt lat="43.54768" lon="3.70463">
        <ele>71</ele>
        <time>2021-04-13T08:41:39Z</time>
      </trkpt>
      <trkpt lat="43.5477" lon="3.70464">
        <ele>71</ele>
        <time>2021-04-13T08:41:40Z</time>
      </trkpt>
      <trkpt lat="43.54772" lon="3.70464">
        <ele>71.2</ele>
        <time>2021-04-13T08:41:41Z</time>
      </trkpt>
      <trkpt lat="43.54774" lon="3.70465">
        <ele>71.4</ele>
        <time>2021-04-13T08:41:42Z</time>
      </trkpt>
      <trkpt lat="43.54776" lon="3.70466">
        <ele>71.6</ele>
        <time>2021-04-13T08:41:43Z</time>
      </trkpt>
      <trkpt lat="43.54777" lon="3.70467">
        <ele>71.8</ele>
        <time>2021-04-13T08:41:44Z</time>
      </trkpt>
      <trkpt lat="43.54779" lon="3.70467">
        <ele>72.2</ele>
        <time>2021-04-13T08:41:45Z</time>
      </trkpt>
      <trkpt lat="43.5478" lon="3.70468">
        <ele>72.4</ele>
        <time>2021-04-13T08:41:46Z</time>
      </trkpt>
      <trkpt lat="43.54782" lon="3.70469">
        <ele>72.4</ele>
        <time>2021-04-13T08:41:47Z</time>
      </trkpt>
      <trkpt lat="43.54783" lon="3.70468">
        <ele>72.6</ele>
        <time>2021-04-13T08:41:48Z</time>
      </trkpt>
      <trkpt lat="43.54784" lon="3.70468">
        <ele>72.8</ele>
        <time>2021-04-13T08:41:49Z</time>
      </trkpt>
      <trkpt lat="43.54785" lon="3.70468">
        <ele>72.8</ele>
        <time>2021-04-13T08:41:50Z</time>
      </trkpt>
      <trkpt lat="43.54786" lon="3.70468">
        <ele>73</ele>
        <time>2021-04-13T08:41:51Z</time>
      </trkpt>
      <trkpt lat="43.54787" lon="3.70469">
        <ele>73.4</ele>
        <time>2021-04-13T08:41:52Z</time>
      </trkpt>
      <trkpt lat="43.54789" lon="3.7047">
        <ele>73.4</ele>
        <time>2021-04-13T08:41:53Z</time>
      </trkpt>
      <trkpt lat="43.54791" lon="3.70471">
        <ele>73.6</ele>
        <time>2021-04-13T08:41:54Z</time>
      </trkpt>
      <trkpt lat="43.54792" lon="3.70471">
        <ele>73.8</ele>
        <time>2021-04-13T08:41:55Z</time>
      </trkpt>
      <trkpt lat="43.54795" lon="3.70472">
        <ele>74</ele>
        <time>2021-04-13T08:41:56Z</time>
      </trkpt>
      <trkpt lat="43.54798" lon="3.70472">
        <ele>74</ele>
        <time>2021-04-13T08:41:57Z</time>
      </trkpt>
      <trkpt lat="43.548" lon="3.70473">
        <ele>74</ele>
        <time>2021-04-13T08:41:58Z</time>
      </trkpt>
      <trkpt lat="43.54802" lon="3.70474">
        <ele>74</ele>
        <time>2021-04-13T08:41:59Z</time>
      </trkpt>
      <trkpt lat="43.54804" lon="3.70474">
        <ele>74.2</ele>
        <time>2021-04-13T08:42:00Z</time>
      </trkpt>
      <trkpt lat="43.54806" lon="3.70475">
        <ele>74.4</ele>
        <time>2021-04-13T08:42:01Z</time>
      </trkpt>
      <trkpt lat="43.54808" lon="3.70476">
        <ele>74.6</ele>
        <time>2021-04-13T08:42:02Z</time>
      </trkpt>
      <trkpt lat="43.54811" lon="3.70477">
        <ele>74.8</ele>
        <time>2021-04-13T08:42:03Z</time>
      </trkpt>
      <trkpt lat="43.54813" lon="3.70478">
        <ele>74.8</ele>
        <time>2021-04-13T08:42:04Z</time>
      </trkpt>
      <trkpt lat="43.54816" lon="3.70479">
        <ele>75</ele>
        <time>2021-04-13T08:42:05Z</time>
      </trkpt>
      <trkpt lat="43.54818" lon="3.7048">
        <ele>75</ele>
        <time>2021-04-13T08:42:06Z</time>
      </trkpt>
      <trkpt lat="43.54821" lon="3.70482">
        <ele>75.2</ele>
        <time>2021-04-13T08:42:07Z</time>
      </trkpt>
      <trkpt lat="43.54823" lon="3.70483">
        <ele>75.2</ele>
        <time>2021-04-13T08:42:08Z</time>
      </trkpt>
      <trkpt lat="43.54824" lon="3.70484">
        <ele>75.2</ele>
        <time>2021-04-13T08:42:09Z</time>
      </trkpt>
      <trkpt lat="43.54825" lon="3.70484">
        <ele>75.2</ele>
        <time>2021-04-13T08:42:10Z</time>
      </trkpt>
      <trkpt lat="43.54827" lon="3.70485">
        <ele>75.2</ele>
        <time>2021-04-13T08:42:11Z</time>
      </trkpt>
      <trkpt lat="43.54829" lon="3.70486">
        <ele>75.2</ele>
        <time>2021-04-13T08:42:12Z</time>
      </trkpt>
      <trkpt lat="43.54831" lon="3.70488">
        <ele>75</ele>
        <time>2021-04-13T08:42:13Z</time>
      </trkpt>
      <trkpt lat="43.54834" lon="3.70488">
        <ele>74.8</ele>
        <time>2021-04-13T08:42:14Z</time>
      </trkpt>
      <trkpt lat="43.54837" lon="3.7049">
        <ele>75</ele>
        <time>2021-04-13T08:42:15Z</time>
      </trkpt>
      <trkpt lat="43.5484" lon="3.7049">
        <ele>75</ele>
        <time>2021-04-13T08:42:16Z</time>
      </trkpt>
      <trkpt lat="43.54843" lon="3.70492">
        <ele>75.4</ele>
        <time>2021-04-13T08:42:17Z</time>
      </trkpt>
      <trkpt lat="43.54845" lon="3.70493">
        <ele>75.4</ele>
        <time>2021-04-13T08:42:18Z</time>
      </trkpt>
      <trkpt lat="43.54847" lon="3.70494">
        <ele>75.2</ele>
        <time>2021-04-13T08:42:19Z</time>
      </trkpt>
      <trkpt lat="43.54849" lon="3.70495">
        <ele>75.2</ele>
        <time>2021-04-13T08:42:20Z</time>
      </trkpt>
      <trkpt lat="43.54852" lon="3.70495">
        <ele>75.2</ele>
        <time>2021-04-13T08:42:21Z</time>
      </trkpt>
      <trkpt lat="43.54855" lon="3.70494">
        <ele>75.4</ele>
        <time>2021-04-13T08:42:22Z</time>
      </trkpt>
      <trkpt lat="43.54857" lon="3.70493">
        <ele>75.4</ele>
        <time>2021-04-13T08:42:23Z</time>
      </trkpt>
      <trkpt lat="43.5486" lon="3.70493">
        <ele>75.6</ele>
        <time>2021-04-13T08:42:24Z</time>
      </trkpt>
      <trkpt lat="43.54862" lon="3.70492">
        <ele>75.6</ele>
        <time>2021-04-13T08:42:25Z</time>
      </trkpt>
      <trkpt lat="43.54864" lon="3.7049">
        <ele>75.8</ele>
        <time>2021-04-13T08:42:26Z</time>
      </trkpt>
      <trkpt lat="43.54866" lon="3.70489">
        <ele>75.8</ele>
        <time>2021-04-13T08:42:27Z</time>
      </trkpt>
      <trkpt lat="43.54869" lon="3.70488">
        <ele>76.2</ele>
        <time>2021-04-13T08:42:28Z</time>
      </trkpt>
      <trkpt lat="43.54871" lon="3.70486">
        <ele>76.4</ele>
        <time>2021-04-13T08:42:29Z</time>
      </trkpt>
      <trkpt lat="43.54872" lon="3.70485">
        <ele>76.6</ele>
        <time>2021-04-13T08:42:30Z</time>
      </trkpt>
      <trkpt lat="43.54872" lon="3.70484">
        <ele>76.8</ele>
        <time>2021-04-13T08:42:31Z</time>
      </trkpt>
      <trkpt lat="43.54872" lon="3.70484">
        <ele>77</ele>
        <time>2021-04-13T08:42:32Z</time>
      </trkpt>
      <trkpt lat="43.54873" lon="3.70483">
        <ele>77.4</ele>
        <time>2021-04-13T08:42:33Z</time>
      </trkpt>
      <trkpt lat="43.54873" lon="3.70483">
        <ele>77.4</ele>
        <time>2021-04-13T08:42:34Z</time>
      </trkpt>
      <trkpt lat="43.54874" lon="3.70483">
        <ele>77.4</ele>
        <time>2021-04-13T08:42:35Z</time>
      </trkpt>
      <trkpt lat="43.54875" lon="3.70484">
        <ele>77.2</ele>
        <time>2021-04-13T08:42:36Z</time>
      </trkpt>
      <trkpt lat="43.54876" lon="3.70484">
        <ele>77.4</ele>
        <time>2021-04-13T08:42:37Z</time>
      </trkpt>
      <trkpt lat="43.54876" lon="3.70484">
        <ele>77.4</ele>
        <time>2021-04-13T08:42:38Z</time>
      </trkpt>
      <trkpt lat="43.54876" lon="3.70483">
        <ele>77.6</ele>
        <time>2021-04-13T08:42:39Z</time>
      </trkpt>
      <trkpt lat="43.54877" lon="3.70483">
        <ele>77.6</ele>
        <time>2021-04-13T08:42:40Z</time>
      </trkpt>
      <trkpt lat="43.54878" lon="3.70483">
        <ele>77.8</ele>
        <time>2021-04-13T08:42:41Z</time>
      </trkpt>
      <trkpt lat="43.54878" lon="3.70483">
        <ele>78</ele>
        <time>2021-04-13T08:42:42Z</time>
      </trkpt>
      <trkpt lat="43.5488" lon="3.70483">
        <ele>77.8</ele>
        <time>2021-04-13T08:42:43Z</time>
      </trkpt>
      <trkpt lat="43.54881" lon="3.70483">
        <ele>77.8</ele>
        <time>2021-04-13T08:42:44Z</time>
      </trkpt>
      <trkpt lat="43.54883" lon="3.70483">
        <ele>77.8</ele>
        <time>2021-04-13T08:42:45Z</time>
      </trkpt>
      <trkpt lat="43.54894" lon="3.70481">
        <ele>78.8</ele>
        <time>2021-04-13T08:42:52Z</time>
      </trkpt>
      <trkpt lat="43.54895" lon="3.70482">
        <ele>79</ele>
        <time>2021-04-13T08:42:53Z</time>
      </trkpt>
      <trkpt lat="43.54897" lon="3.70482">
        <ele>79.2</ele>
        <time>2021-04-13T08:42:54Z</time>
      </trkpt>
      <trkpt lat="43.54899" lon="3.70482">
        <ele>79.2</ele>
        <time>2021-04-13T08:42:55Z</time>
      </trkpt>
      <trkpt lat="43.54901" lon="3.70482">
        <ele>79.4</ele>
        <time>2021-04-13T08:42:56Z</time>
      </trkpt>
      <trkpt lat="43.54901" lon="3.7048">
        <ele>79.6</ele>
        <time>2021-04-13T08:42:57Z</time>
      </trkpt>
      <trkpt lat="43.549" lon="3.70478">
        <ele>79.8</ele>
        <time>2021-04-13T08:42:58Z</time>
      </trkpt>
      <trkpt lat="43.549" lon="3.70476">
        <ele>80</ele>
        <time>2021-04-13T08:42:59Z</time>
      </trkpt>
      <trkpt lat="43.549" lon="3.70474">
        <ele>80.2</ele>
        <time>2021-04-13T08:43:00Z</time>
      </trkpt>
      <trkpt lat="43.54899" lon="3.70472">
        <ele>80.4</ele>
        <time>2021-04-13T08:43:01Z</time>
      </trkpt>
      <trkpt lat="43.54899" lon="3.7047">
        <ele>80.6</ele>
        <time>2021-04-13T08:43:02Z</time>
      </trkpt>
      <trkpt lat="43.54899" lon="3.70467">
        <ele>80.6</ele>
        <time>2021-04-13T08:43:03Z</time>
      </trkpt>
      <trkpt lat="43.549" lon="3.70465">
        <ele>81</ele>
        <time>2021-04-13T08:43:04Z</time>
      </trkpt>
      <trkpt lat="43.54899" lon="3.70463">
        <ele>81.2</ele>
        <time>2021-04-13T08:43:05Z</time>
      </trkpt>
      <trkpt lat="43.54899" lon="3.7046">
        <ele>81.4</ele>
        <time>2021-04-13T08:43:06Z</time>
      </trkpt>
      <trkpt lat="43.54899" lon="3.70458">
        <ele>81.6</ele>
        <time>2021-04-13T08:43:07Z</time>
      </trkpt>
      <trkpt lat="43.54899" lon="3.70455">
        <ele>81.8</ele>
        <time>2021-04-13T08:43:08Z</time>
      </trkpt>
      <trkpt lat="43.54899" lon="3.70453">
        <ele>82</ele>
        <time>2021-04-13T08:43:09Z</time>
      </trkpt>
      <trkpt lat="43.54898" lon="3.70451">
        <ele>82.2</ele>
        <time>2021-04-13T08:43:10Z</time>
      </trkpt>
      <trkpt lat="43.54898" lon="3.70449">
        <ele>82.4</ele>
        <time>2021-04-13T08:43:11Z</time>
      </trkpt>
      <trkpt lat="43.54898" lon="3.70447">
        <ele>82.6</ele>
        <time>2021-04-13T08:43:12Z</time>
      </trkpt>
      <trkpt lat="43.54897" lon="3.70445">
        <ele>82.8</ele>
        <time>2021-04-13T08:43:13Z</time>
      </trkpt>
      <trkpt lat="43.54896" lon="3.70443">
        <ele>83</ele>
        <time>2021-04-13T08:43:14Z</time>
      </trkpt>
      <trkpt lat="43.54897" lon="3.70441">
        <ele>83.2</ele>
        <time>2021-04-13T08:43:15Z</time>
      </trkpt>
      <trkpt lat="43.54897" lon="3.70439">
        <ele>83.4</ele>
        <time>2021-04-13T08:43:16Z</time>
      </trkpt>
      <trkpt lat="43.54896" lon="3.70436">
        <ele>83.4</ele>
        <time>2021-04-13T08:43:17Z</time>
      </trkpt>
      <trkpt lat="43.54896" lon="3.70434">
        <ele>83.4</ele>
        <time>2021-04-13T08:43:18Z</time>
      </trkpt>
      <trkpt lat="43.54896" lon="3.70432">
        <ele>83.6</ele>
        <time>2021-04-13T08:43:19Z</time>
      </trkpt>
      <trkpt lat="43.54896" lon="3.7043">
        <ele>83.8</ele>
        <time>2021-04-13T08:43:20Z</time>
      </trkpt>
      <trkpt lat="43.54896" lon="3.70428">
        <ele>84</ele>
        <time>2021-04-13T08:43:21Z</time>
      </trkpt>
      <trkpt lat="43.54896" lon="3.70426">
        <ele>84.2</ele>
        <time>2021-04-13T08:43:22Z</time>
      </trkpt>
      <trkpt lat="43.54897" lon="3.70425">
        <ele>84.4</ele>
        <time>2021-04-13T08:43:23Z</time>
      </trkpt>
      <trkpt lat="43.54897" lon="3.70423">
        <ele>84.8</ele>
        <time>2021-04-13T08:43:24Z</time>
      </trkpt>
      <trkpt lat="43.54897" lon="3.70421">
        <ele>85</ele>
        <time>2021-04-13T08:43:25Z</time>
      </trkpt>
      <trkpt lat="43.54897" lon="3.70419">
        <ele>85.2</ele>
        <time>2021-04-13T08:43:26Z</time>
      </trkpt>
      <trkpt lat="43.54896" lon="3.70417">
        <ele>85.4</ele>
        <time>2021-04-13T08:43:27Z</time>
      </trkpt>
      <trkpt lat="43.54895" lon="3.70415">
        <ele>85.8</ele>
        <time>2021-04-13T08:43:28Z</time>
      </trkpt>
      <trkpt lat="43.54895" lon="3.70412">
        <ele>86</ele>
        <time>2021-04-13T08:43:29Z</time>
      </trkpt>
      <trkpt lat="43.54894" lon="3.7041">
        <ele>86.2</ele>
        <time>2021-04-13T08:43:30Z</time>
      </trkpt>
      <trkpt lat="43.54894" lon="3.70408">
        <ele>86.4</ele>
        <time>2021-04-13T08:43:31Z</time>
      </trkpt>
      <trkpt lat="43.54893" lon="3.70406">
        <ele>86.6</ele>
        <time>2021-04-13T08:43:32Z</time>
      </trkpt>
      <trkpt lat="43.54892" lon="3.70405">
        <ele>86.8</ele>
        <time>2021-04-13T08:43:33Z</time>
      </trkpt>
      <trkpt lat="43.54892" lon="3.70403">
        <ele>87</ele>
        <time>2021-04-13T08:43:34Z</time>
      </trkpt>
      <trkpt lat="43.54891" lon="3.70402">
        <ele>87.2</ele>
        <time>2021-04-13T08:43:35Z</time>
      </trkpt>
      <trkpt lat="43.5489" lon="3.70401">
        <ele>87.4</ele>
        <time>2021-04-13T08:43:36Z</time>
      </trkpt>
      <trkpt lat="43.54889" lon="3.704">
        <ele>87.4</ele>
        <time>2021-04-13T08:43:37Z</time>
      </trkpt>
      <trkpt lat="43.54889" lon="3.70399">
        <ele>87.6</ele>
        <time>2021-04-13T08:43:38Z</time>
      </trkpt>
      <trkpt lat="43.54888" lon="3.70397">
        <ele>87.8</ele>
        <time>2021-04-13T08:43:39Z</time>
      </trkpt>
      <trkpt lat="43.54887" lon="3.70395">
        <ele>88</ele>
        <time>2021-04-13T08:43:40Z</time>
      </trkpt>
      <trkpt lat="43.54887" lon="3.70394">
        <ele>88.2</ele>
        <time>2021-04-13T08:43:41Z</time>
      </trkpt>
      <trkpt lat="43.54887" lon="3.70393">
        <ele>88.2</ele>
        <time>2021-04-13T08:43:42Z</time>
      </trkpt>
      <trkpt lat="43.54886" lon="3.70392">
        <ele>88.4</ele>
        <time>2021-04-13T08:43:43Z</time>
      </trkpt>
      <trkpt lat="43.54885" lon="3.70391">
        <ele>88.4</ele>
        <time>2021-04-13T08:43:44Z</time>
      </trkpt>
      <trkpt lat="43.54884" lon="3.70389">
        <ele>88.4</ele>
        <time>2021-04-13T08:43:45Z</time>
      </trkpt>
      <trkpt lat="43.54883" lon="3.70388">
        <ele>88.6</ele>
        <time>2021-04-13T08:43:46Z</time>
      </trkpt>
      <trkpt lat="43.54882" lon="3.70388">
        <ele>88.6</ele>
        <time>2021-04-13T08:43:47Z</time>
      </trkpt>
      <trkpt lat="43.54881" lon="3.70387">
        <ele>88.6</ele>
        <time>2021-04-13T08:43:48Z</time>
      </trkpt>
      <trkpt lat="43.5488" lon="3.70386">
        <ele>88.8</ele>
        <time>2021-04-13T08:43:49Z</time>
      </trkpt>
      <trkpt lat="43.54879" lon="3.70385">
        <ele>88.8</ele>
        <time>2021-04-13T08:43:50Z</time>
      </trkpt>
      <trkpt lat="43.54878" lon="3.70384">
        <ele>89</ele>
        <time>2021-04-13T08:43:51Z</time>
      </trkpt>
      <trkpt lat="43.54878" lon="3.70382">
        <ele>89.2</ele>
        <time>2021-04-13T08:43:52Z</time>
      </trkpt>
      <trkpt lat="43.54877" lon="3.70381">
        <ele>89.4</ele>
        <time>2021-04-13T08:43:53Z</time>
      </trkpt>
      <trkpt lat="43.54876" lon="3.7038">
        <ele>89.4</ele>
        <time>2021-04-13T08:43:54Z</time>
      </trkpt>
      <trkpt lat="43.54876" lon="3.7038">
        <ele>89.8</ele>
        <time>2021-04-13T08:43:55Z</time>
      </trkpt>
      <trkpt lat="43.54874" lon="3.7038">
        <ele>89.8</ele>
        <time>2021-04-13T08:43:56Z</time>
      </trkpt>
      <trkpt lat="43.54873" lon="3.70376">
        <ele>90</ele>
        <time>2021-04-13T08:43:57Z</time>
      </trkpt>
      <trkpt lat="43.54872" lon="3.70374">
        <ele>90.2</ele>
        <time>2021-04-13T08:43:58Z</time>
      </trkpt>
      <trkpt lat="43.54871" lon="3.70373">
        <ele>90.2</ele>
        <time>2021-04-13T08:43:59Z</time>
      </trkpt>
      <trkpt lat="43.5487" lon="3.70372">
        <ele>90.2</ele>
        <time>2021-04-13T08:44:00Z</time>
      </trkpt>
      <trkpt lat="43.54869" lon="3.70371">
        <ele>90.2</ele>
        <time>2021-04-13T08:44:01Z</time>
      </trkpt>
      <trkpt lat="43.54868" lon="3.7037">
        <ele>90.2</ele>
        <time>2021-04-13T08:44:02Z</time>
      </trkpt>
      <trkpt lat="43.54866" lon="3.7037">
        <ele>90.2</ele>
        <time>2021-04-13T08:44:03Z</time>
      </trkpt>
      <trkpt lat="43.54865" lon="3.7037">
        <ele>90.4</ele>
        <time>2021-04-13T08:44:04Z</time>
      </trkpt>
      <trkpt lat="43.54865" lon="3.70369">
        <ele>90.2</ele>
        <time>2021-04-13T08:44:05Z</time>
      </trkpt>
      <trkpt lat="43.54863" lon="3.70369">
        <ele>90.2</ele>
        <time>2021-04-13T08:44:06Z</time>
      </trkpt>
      <trkpt lat="43.54863" lon="3.70369">
        <ele>90.2</ele>
        <time>2021-04-13T08:44:07Z</time>
      </trkpt>
      <trkpt lat="43.54862" lon="3.70369">
        <ele>90</ele>
        <time>2021-04-13T08:44:08Z</time>
      </trkpt>
      <trkpt lat="43.54861" lon="3.70368">
        <ele>90</ele>
        <time>2021-04-13T08:44:09Z</time>
      </trkpt>
      <trkpt lat="43.54861" lon="3.70368">
        <ele>90</ele>
        <time>2021-04-13T08:44:10Z</time>
      </trkpt>
      <trkpt lat="43.5486" lon="3.70367">
        <ele>90.2</ele>
        <time>2021-04-13T08:44:11Z</time>
      </trkpt>
      <trkpt lat="43.5486" lon="3.70366">
        <ele>90.4</ele>
        <time>2021-04-13T08:44:12Z</time>
      </trkpt>
      <trkpt lat="43.5486" lon="3.70365">
        <ele>90.4</ele>
        <time>2021-04-13T08:44:13Z</time>
      </trkpt>
      <trkpt lat="43.54861" lon="3.70363">
        <ele>90.6</ele>
        <time>2021-04-13T08:44:14Z</time>
      </trkpt>
      <trkpt lat="43.54861" lon="3.70362">
        <ele>90.8</ele>
        <time>2021-04-13T08:44:15Z</time>
      </trkpt>
      <trkpt lat="43.54861" lon="3.70361">
        <ele>90.8</ele>
        <time>2021-04-13T08:44:16Z</time>
      </trkpt>
      <trkpt lat="43.54902" lon="3.70301">
        <ele>95.6</ele>
        <time>2021-04-13T08:48:38Z</time>
      </trkpt>
      <trkpt lat="43.54904" lon="3.703">
        <ele>95.6</ele>
        <time>2021-04-13T08:48:39Z</time>
      </trkpt>
      <trkpt lat="43.54905" lon="3.70298">
        <ele>95.4</ele>
        <time>2021-04-13T08:48:40Z</time>
      </trkpt>
      <trkpt lat="43.54906" lon="3.70295">
        <ele>95.6</ele>
        <time>2021-04-13T08:48:41Z</time>
      </trkpt>
      <trkpt lat="43.54906" lon="3.70293">
        <ele>95.6</ele>
        <time>2021-04-13T08:48:42Z</time>
      </trkpt>
      <trkpt lat="43.54906" lon="3.7029">
        <ele>95.6</ele>
        <time>2021-04-13T08:48:43Z</time>
      </trkpt>
      <trkpt lat="43.54906" lon="3.70287">
        <ele>95.6</ele>
        <time>2021-04-13T08:48:44Z</time>
      </trkpt>
      <trkpt lat="43.54906" lon="3.70284">
        <ele>95.6</ele>
        <time>2021-04-13T08:48:45Z</time>
      </trkpt>
      <trkpt lat="43.54906" lon="3.70281">
        <ele>95.6</ele>
        <time>2021-04-13T08:48:46Z</time>
      </trkpt>
      <trkpt lat="43.54906" lon="3.70279">
        <ele>95.6</ele>
        <time>2021-04-13T08:48:47Z</time>
      </trkpt>
      <trkpt lat="43.54906" lon="3.70276">
        <ele>95.6</ele>
        <time>2021-04-13T08:48:48Z</time>
      </trkpt>
      <trkpt lat="43.54906" lon="3.70273">
        <ele>95.6</ele>
        <time>2021-04-13T08:48:49Z</time>
      </trkpt>
      <trkpt lat="43.54907" lon="3.70272">
        <ele>95.6</ele>
        <time>2021-04-13T08:48:50Z</time>
      </trkpt>
      <trkpt lat="43.54908" lon="3.70271">
        <ele>95.8</ele>
        <time>2021-04-13T08:48:51Z</time>
      </trkpt>
      <trkpt lat="43.54909" lon="3.7027">
        <ele>96</ele>
        <time>2021-04-13T08:48:52Z</time>
      </trkpt>
      <trkpt lat="43.54911" lon="3.70269">
        <ele>96.2</ele>
        <time>2021-04-13T08:48:53Z</time>
      </trkpt>
      <trkpt lat="43.54913" lon="3.70269">
        <ele>96.2</ele>
        <time>2021-04-13T08:48:54Z</time>
      </trkpt>
      <trkpt lat="43.54915" lon="3.70268">
        <ele>96.2</ele>
        <time>2021-04-13T08:48:55Z</time>
      </trkpt>
      <trkpt lat="43.54916" lon="3.70268">
        <ele>96.4</ele>
        <time>2021-04-13T08:48:56Z</time>
      </trkpt>
      <trkpt lat="43.54917" lon="3.70268">
        <ele>96.6</ele>
        <time>2021-04-13T08:48:57Z</time>
      </trkpt>
      <trkpt lat="43.54918" lon="3.70269">
        <ele>96.6</ele>
        <time>2021-04-13T08:48:58Z</time>
      </trkpt>
      <trkpt lat="43.54919" lon="3.7027">
        <ele>96.6</ele>
        <time>2021-04-13T08:48:59Z</time>
      </trkpt>
      <trkpt lat="43.5492" lon="3.7027">
        <ele>96.6</ele>
        <time>2021-04-13T08:49:00Z</time>
      </trkpt>
      <trkpt lat="43.54921" lon="3.70271">
        <ele>96.6</ele>
        <time>2021-04-13T08:49:01Z</time>
      </trkpt>
      <trkpt lat="43.54922" lon="3.70272">
        <ele>96.4</ele>
        <time>2021-04-13T08:49:02Z</time>
      </trkpt>
      <trkpt lat="43.54923" lon="3.70273">
        <ele>96.6</ele>
        <time>2021-04-13T08:49:03Z</time>
      </trkpt>
      <trkpt lat="43.54924" lon="3.70274">
        <ele>96.6</ele>
        <time>2021-04-13T08:49:04Z</time>
      </trkpt>
      <trkpt lat="43.54926" lon="3.70275">
        <ele>96.6</ele>
        <time>2021-04-13T08:49:05Z</time>
      </trkpt>
      <trkpt lat="43.54927" lon="3.70275">
        <ele>96.8</ele>
        <time>2021-04-13T08:49:06Z</time>
      </trkpt>
      <trkpt lat="43.54929" lon="3.70276">
        <ele>97</ele>
        <time>2021-04-13T08:49:07Z</time>
      </trkpt>
      <trkpt lat="43.5493" lon="3.70277">
        <ele>97</ele>
        <time>2021-04-13T08:49:08Z</time>
      </trkpt>
      <trkpt lat="43.54931" lon="3.70278">
        <ele>97</ele>
        <time>2021-04-13T08:49:09Z</time>
      </trkpt>
      <trkpt lat="43.54933" lon="3.70279">
        <ele>96.6</ele>
        <time>2021-04-13T08:49:10Z</time>
      </trkpt>
      <trkpt lat="43.54935" lon="3.70279">
        <ele>96.4</ele>
        <time>2021-04-13T08:49:11Z</time>
      </trkpt>
      <trkpt lat="43.54937" lon="3.70278">
        <ele>96.4</ele>
        <time>2021-04-13T08:49:12Z</time>
      </trkpt>
      <trkpt lat="43.54938" lon="3.70277">
        <ele>96.4</ele>
        <time>2021-04-13T08:49:13Z</time>
      </trkpt>
      <trkpt lat="43.5494" lon="3.70276">
        <ele>96.4</ele>
        <time>2021-04-13T08:49:14Z</time>
      </trkpt>
      <trkpt lat="43.54941" lon="3.70275">
        <ele>96.4</ele>
        <time>2021-04-13T08:49:15Z</time>
      </trkpt>
      <trkpt lat="43.54942" lon="3.70273">
        <ele>96.4</ele>
        <time>2021-04-13T08:49:16Z</time>
      </trkpt>
      <trkpt lat="43.54943" lon="3.70271">
        <ele>96.6</ele>
        <time>2021-04-13T08:49:17Z</time>
      </trkpt>
      <trkpt lat="43.54944" lon="3.70269">
        <ele>96.8</ele>
        <time>2021-04-13T08:49:18Z</time>
      </trkpt>
      <trkpt lat="43.54944" lon="3.70268">
        <ele>96.8</ele>
        <time>2021-04-13T08:49:19Z</time>
      </trkpt>
      <trkpt lat="43.54945" lon="3.70266">
        <ele>97</ele>
        <time>2021-04-13T08:49:20Z</time>
      </trkpt>
      <trkpt lat="43.54946" lon="3.70264">
        <ele>97.2</ele>
        <time>2021-04-13T08:49:21Z</time>
      </trkpt>
      <trkpt lat="43.54947" lon="3.70263">
        <ele>97.2</ele>
        <time>2021-04-13T08:49:22Z</time>
      </trkpt>
      <trkpt lat="43.54948" lon="3.70261">
        <ele>97.4</ele>
        <time>2021-04-13T08:49:23Z</time>
      </trkpt>
      <trkpt lat="43.54949" lon="3.70259">
        <ele>97.4</ele>
        <time>2021-04-13T08:49:24Z</time>
      </trkpt>
      <trkpt lat="43.5495" lon="3.70258">
        <ele>97.6</ele>
        <time>2021-04-13T08:49:25Z</time>
      </trkpt>
      <trkpt lat="43.54951" lon="3.70257">
        <ele>97.6</ele>
        <time>2021-04-13T08:49:26Z</time>
      </trkpt>
      <trkpt lat="43.54952" lon="3.70256">
        <ele>97.8</ele>
        <time>2021-04-13T08:49:27Z</time>
      </trkpt>
      <trkpt lat="43.54953" lon="3.70254">
        <ele>98</ele>
        <time>2021-04-13T08:49:28Z</time>
      </trkpt>
      <trkpt lat="43.54953" lon="3.70252">
        <ele>98</ele>
        <time>2021-04-13T08:49:29Z</time>
      </trkpt>
      <trkpt lat="43.54953" lon="3.70251">
        <ele>98</ele>
        <time>2021-04-13T08:49:30Z</time>
      </trkpt>
      <trkpt lat="43.54952" lon="3.70251">
        <ele>97.8</ele>
        <time>2021-04-13T08:49:31Z</time>
      </trkpt>
      <trkpt lat="43.54951" lon="3.70252">
        <ele>97.8</ele>
        <time>2021-04-13T08:49:32Z</time>
      </trkpt>
      <trkpt lat="43.5495" lon="3.70254">
        <ele>97.8</ele>
        <time>2021-04-13T08:49:33Z</time>
      </trkpt>
      <trkpt lat="43.54949" lon="3.70256">
        <ele>97.6</ele>
        <time>2021-04-13T08:49:34Z</time>
      </trkpt>
      <trkpt lat="43.54947" lon="3.70258">
        <ele>97.6</ele>
        <time>2021-04-13T08:49:35Z</time>
      </trkpt>
      <trkpt lat="43.54946" lon="3.70261">
        <ele>97.6</ele>
        <time>2021-04-13T08:49:36Z</time>
      </trkpt>
      <trkpt lat="43.54944" lon="3.70263">
        <ele>97.4</ele>
        <time>2021-04-13T08:49:37Z</time>
      </trkpt>
      <trkpt lat="43.54943" lon="3.70266">
        <ele>97.4</ele>
        <time>2021-04-13T08:49:38Z</time>
      </trkpt>
      <trkpt lat="43.54942" lon="3.70268">
        <ele>97.2</ele>
        <time>2021-04-13T08:49:39Z</time>
      </trkpt>
      <trkpt lat="43.54942" lon="3.70271">
        <ele>97</ele>
        <time>2021-04-13T08:49:40Z</time>
      </trkpt>
      <trkpt lat="43.54941" lon="3.70274">
        <ele>97</ele>
        <time>2021-04-13T08:49:41Z</time>
      </trkpt>
      <trkpt lat="43.54939" lon="3.70276">
        <ele>97</ele>
        <time>2021-04-13T08:49:42Z</time>
      </trkpt>
      <trkpt lat="43.54936" lon="3.70277">
        <ele>97</ele>
        <time>2021-04-13T08:49:43Z</time>
      </trkpt>
      <trkpt lat="43.54933" lon="3.70277">
        <ele>97</ele>
        <time>2021-04-13T08:49:44Z</time>
      </trkpt>
      <trkpt lat="43.54931" lon="3.70276">
        <ele>97</ele>
        <time>2021-04-13T08:49:45Z</time>
      </trkpt>
      <trkpt lat="43.54929" lon="3.70274">
        <ele>97</ele>
        <time>2021-04-13T08:49:46Z</time>
      </trkpt>
      <trkpt lat="43.54927" lon="3.70273">
        <ele>97</ele>
        <time>2021-04-13T08:49:47Z</time>
      </trkpt>
      <trkpt lat="43.54926" lon="3.70273">
        <ele>96.8</ele>
        <time>2021-04-13T08:49:48Z</time>
      </trkpt>
      <trkpt lat="43.54925" lon="3.70272">
        <ele>96.8</ele>
        <time>2021-04-13T08:49:49Z</time>
      </trkpt>
      <trkpt lat="43.54924" lon="3.70271">
        <ele>96.8</ele>
        <time>2021-04-13T08:49:50Z</time>
      </trkpt>
      <trkpt lat="43.54922" lon="3.70271">
        <ele>96.8</ele>
        <time>2021-04-13T08:49:51Z</time>
      </trkpt>
      <trkpt lat="43.54921" lon="3.70271">
        <ele>96.6</ele>
        <time>2021-04-13T08:49:52Z</time>
      </trkpt>
      <trkpt lat="43.5492" lon="3.70271">
        <ele>96.6</ele>
        <time>2021-04-13T08:49:53Z</time>
      </trkpt>
      <trkpt lat="43.54919" lon="3.7027">
        <ele>96.6</ele>
        <time>2021-04-13T08:49:54Z</time>
      </trkpt>
      <trkpt lat="43.54918" lon="3.7027">
        <ele>96.6</ele>
        <time>2021-04-13T08:49:55Z</time>
      </trkpt>
      <trkpt lat="43.54918" lon="3.70269">
        <ele>96.6</ele>
        <time>2021-04-13T08:49:56Z</time>
      </trkpt>
      <trkpt lat="43.54918" lon="3.70268">
        <ele>96.6</ele>
        <time>2021-04-13T08:49:57Z</time>
      </trkpt>
      <trkpt lat="43.54919" lon="3.70268">
        <ele>96.8</ele>
        <time>2021-04-13T08:49:58Z</time>
      </trkpt>
      <trkpt lat="43.5492" lon="3.70268">
        <ele>96.8</ele>
        <time>2021-04-13T08:49:59Z</time>
      </trkpt>
      <trkpt lat="43.54921" lon="3.70269">
        <ele>96.8</ele>
        <time>2021-04-13T08:50:00Z</time>
      </trkpt>
      <trkpt lat="43.54922" lon="3.70271">
        <ele>97</ele>
        <time>2021-04-13T08:50:01Z</time>
      </trkpt>
      <trkpt lat="43.54924" lon="3.70273">
        <ele>97</ele>
        <time>2021-04-13T08:50:02Z</time>
      </trkpt>
      <trkpt lat="43.54926" lon="3.70275">
        <ele>97.2</ele>
        <time>2021-04-13T08:50:03Z</time>
      </trkpt>
      <trkpt lat="43.54928" lon="3.70277">
        <ele>97</ele>
        <time>2021-04-13T08:50:04Z</time>
      </trkpt>
      <trkpt lat="43.54931" lon="3.70278">
        <ele>97</ele>
        <time>2021-04-13T08:50:05Z</time>
      </trkpt>
      <trkpt lat="43.54934" lon="3.70279">
        <ele>97</ele>
        <time>2021-04-13T08:50:06Z</time>
      </trkpt>
      <trkpt lat="43.54937" lon="3.70277">
        <ele>97</ele>
        <time>2021-04-13T08:50:07Z</time>
      </trkpt>
      <trkpt lat="43.54938" lon="3.70275">
        <ele>97</ele>
        <time>2021-04-13T08:50:08Z</time>
      </trkpt>
      <trkpt lat="43.5494" lon="3.70272">
        <ele>97.2</ele>
        <time>2021-04-13T08:50:09Z</time>
      </trkpt>
      <trkpt lat="43.54941" lon="3.70269">
        <ele>97.2</ele>
        <time>2021-04-13T08:50:10Z</time>
      </trkpt>
      <trkpt lat="43.54942" lon="3.70267">
        <ele>97.2</ele>
        <time>2021-04-13T08:50:11Z</time>
      </trkpt>
      <trkpt lat="43.54943" lon="3.70264">
        <ele>97.4</ele>
        <time>2021-04-13T08:50:12Z</time>
      </trkpt>
      <trkpt lat="43.54944" lon="3.70262">
        <ele>97.6</ele>
        <time>2021-04-13T08:50:13Z</time>
      </trkpt>
      <trkpt lat="43.54945" lon="3.7026">
        <ele>97.6</ele>
        <time>2021-04-13T08:50:14Z</time>
      </trkpt>
      <trkpt lat="43.54947" lon="3.70258">
        <ele>97.8</ele>
        <time>2021-04-13T08:50:15Z</time>
      </trkpt>
      <trkpt lat="43.54948" lon="3.70256">
        <ele>98</ele>
        <time>2021-04-13T08:50:16Z</time>
      </trkpt>
      <trkpt lat="43.5495" lon="3.70254">
        <ele>98.2</ele>
        <time>2021-04-13T08:50:17Z</time>
      </trkpt>
      <trkpt lat="43.54951" lon="3.70252">
        <ele>98.2</ele>
        <time>2021-04-13T08:50:18Z</time>
      </trkpt>
      <trkpt lat="43.54953" lon="3.7025">
        <ele>98.4</ele>
        <time>2021-04-13T08:50:19Z</time>
      </trkpt>
      <trkpt lat="43.54954" lon="3.70248">
        <ele>98.4</ele>
        <time>2021-04-13T08:50:20Z</time>
      </trkpt>
      <trkpt lat="43.54956" lon="3.70246">
        <ele>98.4</ele>
        <time>2021-04-13T08:50:21Z</time>
      </trkpt>
      <trkpt lat="43.54957" lon="3.70244">
        <ele>98.6</ele>
        <time>2021-04-13T08:50:22Z</time>
      </trkpt>
      <trkpt lat="43.54959" lon="3.70242">
        <ele>98.8</ele>
        <time>2021-04-13T08:50:23Z</time>
      </trkpt>
      <trkpt lat="43.5496" lon="3.7024">
        <ele>99</ele>
        <time>2021-04-13T08:50:24Z</time>
      </trkpt>
      <trkpt lat="43.54962" lon="3.70237">
        <ele>99</ele>
        <time>2021-04-13T08:50:25Z</time>
      </trkpt>
      <trkpt lat="43.54963" lon="3.70235">
        <ele>99</ele>
        <time>2021-04-13T08:50:26Z</time>
      </trkpt>
      <trkpt lat="43.54965" lon="3.70233">
        <ele>99.2</ele>
        <time>2021-04-13T08:50:27Z</time>
      </trkpt>
      <trkpt lat="43.54966" lon="3.7023">
        <ele>99.2</ele>
        <time>2021-04-13T08:50:28Z</time>
      </trkpt>
      <trkpt lat="43.54968" lon="3.70228">
        <ele>99.4</ele>
        <time>2021-04-13T08:50:29Z</time>
      </trkpt>
      <trkpt lat="43.54969" lon="3.70225">
        <ele>99.6</ele>
        <time>2021-04-13T08:50:30Z</time>
      </trkpt>
      <trkpt lat="43.54971" lon="3.70222">
        <ele>99.8</ele>
        <time>2021-04-13T08:50:31Z</time>
      </trkpt>
      <trkpt lat="43.54972" lon="3.7022">
        <ele>99.8</ele>
        <time>2021-04-13T08:50:32Z</time>
      </trkpt>
      <trkpt lat="43.54974" lon="3.70217">
        <ele>99.8</ele>
        <time>2021-04-13T08:50:33Z</time>
      </trkpt>
      <trkpt lat="43.54976" lon="3.70215">
        <ele>99.6</ele>
        <time>2021-04-13T08:50:34Z</time>
      </trkpt>
      <trkpt lat="43.54977" lon="3.70213">
        <ele>99.8</ele>
        <time>2021-04-13T08:50:35Z</time>
      </trkpt>
      <trkpt lat="43.54979" lon="3.7021">
        <ele>100</ele>
        <time>2021-04-13T08:50:36Z</time>
      </trkpt>
      <trkpt lat="43.5498" lon="3.70208">
        <ele>100</ele>
        <time>2021-04-13T08:50:37Z</time>
      </trkpt>
      <trkpt lat="43.54981" lon="3.70205">
        <ele>100.2</ele>
        <time>2021-04-13T08:50:38Z</time>
      </trkpt>
      <trkpt lat="43.54983" lon="3.70204">
        <ele>100.2</ele>
        <time>2021-04-13T08:50:39Z</time>
      </trkpt>
      <trkpt lat="43.54984" lon="3.70202">
        <ele>100.4</ele>
        <time>2021-04-13T08:50:40Z</time>
      </trkpt>
      <trkpt lat="43.54985" lon="3.702">
        <ele>100.4</ele>
        <time>2021-04-13T08:50:41Z</time>
      </trkpt>
      <trkpt lat="43.54986" lon="3.70198">
        <ele>100.6</ele>
        <time>2021-04-13T08:50:42Z</time>
      </trkpt>
      <trkpt lat="43.54988" lon="3.70196">
        <ele>100.8</ele>
        <time>2021-04-13T08:50:43Z</time>
      </trkpt>
      <trkpt lat="43.54989" lon="3.70193">
        <ele>100.8</ele>
        <time>2021-04-13T08:50:44Z</time>
      </trkpt>
      <trkpt lat="43.54991" lon="3.70191">
        <ele>101</ele>
        <time>2021-04-13T08:50:45Z</time>
      </trkpt>
      <trkpt lat="43.54992" lon="3.70189">
        <ele>101</ele>
        <time>2021-04-13T08:50:46Z</time>
      </trkpt>
      <trkpt lat="43.54994" lon="3.70187">
        <ele>101</ele>
        <time>2021-04-13T08:50:47Z</time>
      </trkpt>
      <trkpt lat="43.54995" lon="3.70184">
        <ele>101.2</ele>
        <time>2021-04-13T08:50:48Z</time>
      </trkpt>
      <trkpt lat="43.54995" lon="3.70182">
        <ele>101</ele>
        <time>2021-04-13T08:50:49Z</time>
      </trkpt>
      <trkpt lat="43.54996" lon="3.7018">
        <ele>101.2</ele>
        <time>2021-04-13T08:50:50Z</time>
      </trkpt>
      <trkpt lat="43.54997" lon="3.70178">
        <ele>101.2</ele>
        <time>2021-04-13T08:50:51Z</time>
      </trkpt>
      <trkpt lat="43.54998" lon="3.70176">
        <ele>101.2</ele>
        <time>2021-04-13T08:50:52Z</time>
      </trkpt>
      <trkpt lat="43.54999" lon="3.70175">
        <ele>101.2</ele>
        <time>2021-04-13T08:50:53Z</time>
      </trkpt>
      <trkpt lat="43.54999" lon="3.70174">
        <ele>101.2</ele>
        <time>2021-04-13T08:50:54Z</time>
      </trkpt>
      <trkpt lat="43.54999" lon="3.70174">
        <ele>101.2</ele>
        <time>2021-04-13T08:50:55Z</time>
      </trkpt>
      <trkpt lat="43.54998" lon="3.70173">
        <ele>101.2</ele>
        <time>2021-04-13T08:50:56Z</time>
      </trkpt>
      <trkpt lat="43.54998" lon="3.70173">
        <ele>101.2</ele>
        <time>2021-04-13T08:50:57Z</time>
      </trkpt>
      <trkpt lat="43.54998" lon="3.70173">
        <ele>101.2</ele>
        <time>2021-04-13T08:50:58Z</time>
      </trkpt>
      <trkpt lat="43.54998" lon="3.70173">
        <ele>101.2</ele>
        <time>2021-04-13T08:50:59Z</time>
      </trkpt>
      <trkpt lat="43.54998" lon="3.70173">
        <ele>101.2</ele>
        <time>2021-04-13T08:51:00Z</time>
      </trkpt>
      <trkpt lat="43.54998" lon="3.70173">
        <ele>101.2</ele>
        <time>2021-04-13T08:51:01Z</time>
      </trkpt>
      <trkpt lat="43.5501" lon="3.70158">
        <ele>101.8</ele>
        <time>2021-04-13T08:51:16Z</time>
      </trkpt>
      <trkpt lat="43.5501" lon="3.70159">
        <ele>101.8</ele>
        <time>2021-04-13T08:51:17Z</time>
      </trkpt>
      <trkpt lat="43.55011" lon="3.7016">
        <ele>101.8</ele>
        <time>2021-04-13T08:51:18Z</time>
      </trkpt>
      <trkpt lat="43.55011" lon="3.70162">
        <ele>101.8</ele>
        <time>2021-04-13T08:51:19Z</time>
      </trkpt>
      <trkpt lat="43.55012" lon="3.70163">
        <ele>101.8</ele>
        <time>2021-04-13T08:51:20Z</time>
      </trkpt>
      <trkpt lat="43.55013" lon="3.70164">
        <ele>101.8</ele>
        <time>2021-04-13T08:51:21Z</time>
      </trkpt>
      <trkpt lat="43.55015" lon="3.70164">
        <ele>101.8</ele>
        <time>2021-04-13T08:51:22Z</time>
      </trkpt>
      <trkpt lat="43.55016" lon="3.70165">
        <ele>102</ele>
        <time>2021-04-13T08:51:23Z</time>
      </trkpt>
      <trkpt lat="43.55018" lon="3.70165">
        <ele>102</ele>
        <time>2021-04-13T08:51:24Z</time>
      </trkpt>
      <trkpt lat="43.5502" lon="3.70165">
        <ele>102</ele>
        <time>2021-04-13T08:51:25Z</time>
      </trkpt>
      <trkpt lat="43.55021" lon="3.70166">
        <ele>102</ele>
        <time>2021-04-13T08:51:26Z</time>
      </trkpt>
      <trkpt lat="43.55023" lon="3.70166">
        <ele>102</ele>
        <time>2021-04-13T08:51:27Z</time>
      </trkpt>
      <trkpt lat="43.55025" lon="3.70166">
        <ele>102</ele>
        <time>2021-04-13T08:51:28Z</time>
      </trkpt>
      <trkpt lat="43.55027" lon="3.70167">
        <ele>102</ele>
        <time>2021-04-13T08:51:29Z</time>
      </trkpt>
      <trkpt lat="43.55029" lon="3.70168">
        <ele>102</ele>
        <time>2021-04-13T08:51:30Z</time>
      </trkpt>
      <trkpt lat="43.55031" lon="3.70168">
        <ele>102.2</ele>
        <time>2021-04-13T08:51:31Z</time>
      </trkpt>
      <trkpt lat="43.55033" lon="3.70169">
        <ele>102</ele>
        <time>2021-04-13T08:51:32Z</time>
      </trkpt>
      <trkpt lat="43.55035" lon="3.7017">
        <ele>101.8</ele>
        <time>2021-04-13T08:51:33Z</time>
      </trkpt>
      <trkpt lat="43.55038" lon="3.7017">
        <ele>101.8</ele>
        <time>2021-04-13T08:51:34Z</time>
      </trkpt>
      <trkpt lat="43.5504" lon="3.70171">
        <ele>101.8</ele>
        <time>2021-04-13T08:51:35Z</time>
      </trkpt>
      <trkpt lat="43.55043" lon="3.70171">
        <ele>101.8</ele>
        <time>2021-04-13T08:51:36Z</time>
      </trkpt>
      <trkpt lat="43.55045" lon="3.70172">
        <ele>101.6</ele>
        <time>2021-04-13T08:51:37Z</time>
      </trkpt>
      <trkpt lat="43.55048" lon="3.70173">
        <ele>101.6</ele>
        <time>2021-04-13T08:51:38Z</time>
      </trkpt>
      <trkpt lat="43.5505" lon="3.70174">
        <ele>101.6</ele>
        <time>2021-04-13T08:51:39Z</time>
      </trkpt>
      <trkpt lat="43.55053" lon="3.70175">
        <ele>101.4</ele>
        <time>2021-04-13T08:51:40Z</time>
      </trkpt>
      <trkpt lat="43.55056" lon="3.70175">
        <ele>101.2</ele>
        <time>2021-04-13T08:51:41Z</time>
      </trkpt>
      <trkpt lat="43.55059" lon="3.70176">
        <ele>101</ele>
        <time>2021-04-13T08:51:42Z</time>
      </trkpt>
      <trkpt lat="43.55062" lon="3.70178">
        <ele>100.8</ele>
        <time>2021-04-13T08:51:43Z</time>
      </trkpt>
      <trkpt lat="43.55065" lon="3.70179">
        <ele>100.8</ele>
        <time>2021-04-13T08:51:44Z</time>
      </trkpt>
      <trkpt lat="43.55068" lon="3.70181">
        <ele>100.6</ele>
        <time>2021-04-13T08:51:45Z</time>
      </trkpt>
      <trkpt lat="43.5507" lon="3.70183">
        <ele>100.4</ele>
        <time>2021-04-13T08:51:46Z</time>
      </trkpt>
      <trkpt lat="43.55073" lon="3.70186">
        <ele>100.2</ele>
        <time>2021-04-13T08:51:47Z</time>
      </trkpt>
      <trkpt lat="43.55075" lon="3.7019">
        <ele>99.8</ele>
        <time>2021-04-13T08:51:48Z</time>
      </trkpt>
      <trkpt lat="43.55078" lon="3.70193">
        <ele>99.4</ele>
        <time>2021-04-13T08:51:49Z</time>
      </trkpt>
      <trkpt lat="43.55081" lon="3.70196">
        <ele>99</ele>
        <time>2021-04-13T08:51:50Z</time>
      </trkpt>
      <trkpt lat="43.55084" lon="3.70199">
        <ele>98.8</ele>
        <time>2021-04-13T08:51:51Z</time>
      </trkpt>
      <trkpt lat="43.55086" lon="3.70201">
        <ele>98.6</ele>
        <time>2021-04-13T08:51:52Z</time>
      </trkpt>
      <trkpt lat="43.55089" lon="3.70204">
        <ele>98.2</ele>
        <time>2021-04-13T08:51:53Z</time>
      </trkpt>
      <trkpt lat="43.55092" lon="3.70206">
        <ele>97.8</ele>
        <time>2021-04-13T08:51:54Z</time>
      </trkpt>
      <trkpt lat="43.55094" lon="3.70209">
        <ele>97.4</ele>
        <time>2021-04-13T08:51:55Z</time>
      </trkpt>
      <trkpt lat="43.55096" lon="3.70212">
        <ele>97</ele>
        <time>2021-04-13T08:51:56Z</time>
      </trkpt>
      <trkpt lat="43.55098" lon="3.70215">
        <ele>96.8</ele>
        <time>2021-04-13T08:51:57Z</time>
      </trkpt>
      <trkpt lat="43.551" lon="3.70217">
        <ele>96.4</ele>
        <time>2021-04-13T08:51:58Z</time>
      </trkpt>
      <trkpt lat="43.55102" lon="3.70219">
        <ele>96.2</ele>
        <time>2021-04-13T08:51:59Z</time>
      </trkpt>
      <trkpt lat="43.55103" lon="3.70221">
        <ele>95.8</ele>
        <time>2021-04-13T08:52:00Z</time>
      </trkpt>
      <trkpt lat="43.55103" lon="3.70222">
        <ele>95.8</ele>
        <time>2021-04-13T08:52:01Z</time>
      </trkpt>
      <trkpt lat="43.55104" lon="3.70223">
        <ele>95.8</ele>
        <time>2021-04-13T08:52:02Z</time>
      </trkpt>
      <trkpt lat="43.55105" lon="3.70225">
        <ele>95.6</ele>
        <time>2021-04-13T08:52:03Z</time>
      </trkpt>
      <trkpt lat="43.55105" lon="3.70226">
        <ele>95.6</ele>
        <time>2021-04-13T08:52:04Z</time>
      </trkpt>
      <trkpt lat="43.55105" lon="3.70228">
        <ele>95.6</ele>
        <time>2021-04-13T08:52:05Z</time>
      </trkpt>
      <trkpt lat="43.55104" lon="3.7023">
        <ele>95.4</ele>
        <time>2021-04-13T08:52:06Z</time>
      </trkpt>
      <trkpt lat="43.55104" lon="3.70231">
        <ele>95.4</ele>
        <time>2021-04-13T08:52:07Z</time>
      </trkpt>
      <trkpt lat="43.55105" lon="3.70233">
        <ele>95.4</ele>
        <time>2021-04-13T08:52:08Z</time>
      </trkpt>
      <trkpt lat="43.55107" lon="3.70233">
        <ele>95.4</ele>
        <time>2021-04-13T08:52:09Z</time>
      </trkpt>
      <trkpt lat="43.55109" lon="3.70232">
        <ele>95.2</ele>
        <time>2021-04-13T08:52:10Z</time>
      </trkpt>
      <trkpt lat="43.5511" lon="3.70231">
        <ele>95.4</ele>
        <time>2021-04-13T08:52:11Z</time>
      </trkpt>
      <trkpt lat="43.55111" lon="3.7023">
        <ele>95.4</ele>
        <time>2021-04-13T08:52:12Z</time>
      </trkpt>
      <trkpt lat="43.55111" lon="3.70229">
        <ele>95.4</ele>
        <time>2021-04-13T08:52:13Z</time>
      </trkpt>
      <trkpt lat="43.55112" lon="3.70228">
        <ele>95.4</ele>
        <time>2021-04-13T08:52:14Z</time>
      </trkpt>
      <trkpt lat="43.55112" lon="3.70227">
        <ele>95.4</ele>
        <time>2021-04-13T08:52:15Z</time>
      </trkpt>
      <trkpt lat="43.55112" lon="3.70226">
        <ele>95.4</ele>
        <time>2021-04-13T08:52:16Z</time>
      </trkpt>
      <trkpt lat="43.55111" lon="3.70226">
        <ele>95.4</ele>
        <time>2021-04-13T08:52:17Z</time>
      </trkpt>
      <trkpt lat="43.5511" lon="3.70226">
        <ele>95.4</ele>
        <time>2021-04-13T08:52:18Z</time>
      </trkpt>
      <trkpt lat="43.55109" lon="3.70224">
        <ele>95.6</ele>
        <time>2021-04-13T08:52:19Z</time>
      </trkpt>
      <trkpt lat="43.55108" lon="3.70223">
        <ele>95.6</ele>
        <time>2021-04-13T08:52:20Z</time>
      </trkpt>
      <trkpt lat="43.55107" lon="3.70222">
        <ele>95.6</ele>
        <time>2021-04-13T08:52:21Z</time>
      </trkpt>
      <trkpt lat="43.55107" lon="3.70221">
        <ele>95.8</ele>
        <time>2021-04-13T08:52:22Z</time>
      </trkpt>
      <trkpt lat="43.55107" lon="3.70221">
        <ele>95.8</ele>
        <time>2021-04-13T08:52:23Z</time>
      </trkpt>
      <trkpt lat="43.55107" lon="3.70221">
        <ele>95.8</ele>
        <time>2021-04-13T08:52:24Z</time>
      </trkpt>
      <trkpt lat="43.55107" lon="3.70221">
        <ele>95.8</ele>
        <time>2021-04-13T08:52:25Z</time>
      </trkpt>
      <trkpt lat="43.55107" lon="3.70221">
        <ele>95.8</ele>
        <time>2021-04-13T08:52:26Z</time>
      </trkpt>
      <trkpt lat="43.55107" lon="3.70221">
        <ele>95.8</ele>
        <time>2021-04-13T08:52:27Z</time>
      </trkpt>
      <trkpt lat="43.55107" lon="3.70221">
        <ele>95.8</ele>
        <time>2021-04-13T08:52:28Z</time>
      </trkpt>
      <trkpt lat="43.55104" lon="3.70255">
        <ele>94.4</ele>
        <time>2021-04-13T08:52:40Z</time>
      </trkpt>
      <trkpt lat="43.55105" lon="3.70262">
        <ele>94</ele>
        <time>2021-04-13T08:52:41Z</time>
      </trkpt>
      <trkpt lat="43.55106" lon="3.70269">
        <ele>93.4</ele>
        <time>2021-04-13T08:52:42Z</time>
      </trkpt>
      <trkpt lat="43.55109" lon="3.70277">
        <ele>92.8</ele>
        <time>2021-04-13T08:52:43Z</time>
      </trkpt>
      <trkpt lat="43.55113" lon="3.70284">
        <ele>92.2</ele>
        <time>2021-04-13T08:52:44Z</time>
      </trkpt>
      <trkpt lat="43.55117" lon="3.70291">
        <ele>91.8</ele>
        <time>2021-04-13T08:52:45Z</time>
      </trkpt>
      <trkpt lat="43.55122" lon="3.70298">
        <ele>91.2</ele>
        <time>2021-04-13T08:52:46Z</time>
      </trkpt>
      <trkpt lat="43.55128" lon="3.70304">
        <ele>90.8</ele>
        <time>2021-04-13T08:52:47Z</time>
      </trkpt>
      <trkpt lat="43.55133" lon="3.7031">
        <ele>90.6</ele>
        <time>2021-04-13T08:52:48Z</time>
      </trkpt>
      <trkpt lat="43.55139" lon="3.70316">
        <ele>90.4</ele>
        <time>2021-04-13T08:52:49Z</time>
      </trkpt>
      <trkpt lat="43.55145" lon="3.70321">
        <ele>90.4</ele>
        <time>2021-04-13T08:52:50Z</time>
      </trkpt>
      <trkpt lat="43.5515" lon="3.70327">
        <ele>90.4</ele>
        <time>2021-04-13T08:52:51Z</time>
      </trkpt>
      <trkpt lat="43.55155" lon="3.70332">
        <ele>90.4</ele>
        <time>2021-04-13T08:52:52Z</time>
      </trkpt>
      <trkpt lat="43.55161" lon="3.70338">
        <ele>90.4</ele>
        <time>2021-04-13T08:52:53Z</time>
      </trkpt>
      <trkpt lat="43.55166" lon="3.70343">
        <ele>90.2</ele>
        <time>2021-04-13T08:52:54Z</time>
      </trkpt>
      <trkpt lat="43.55171" lon="3.70348">
        <ele>90</ele>
        <time>2021-04-13T08:52:55Z</time>
      </trkpt>
      <trkpt lat="43.55176" lon="3.70353">
        <ele>90</ele>
        <time>2021-04-13T08:52:56Z</time>
      </trkpt>
      <trkpt lat="43.5518" lon="3.70358">
        <ele>89.8</ele>
        <time>2021-04-13T08:52:57Z</time>
      </trkpt>
      <trkpt lat="43.55185" lon="3.70363">
        <ele>89.8</ele>
        <time>2021-04-13T08:52:58Z</time>
      </trkpt>
      <trkpt lat="43.5519" lon="3.70367">
        <ele>89.8</ele>
        <time>2021-04-13T08:52:59Z</time>
      </trkpt>
      <trkpt lat="43.55195" lon="3.7037">
        <ele>89.8</ele>
        <time>2021-04-13T08:53:00Z</time>
      </trkpt>
      <trkpt lat="43.552" lon="3.70374">
        <ele>89.8</ele>
        <time>2021-04-13T08:53:01Z</time>
      </trkpt>
      <trkpt lat="43.55205" lon="3.70377">
        <ele>89.6</ele>
        <time>2021-04-13T08:53:02Z</time>
      </trkpt>
      <trkpt lat="43.55209" lon="3.70379">
        <ele>89.8</ele>
        <time>2021-04-13T08:53:03Z</time>
      </trkpt>
      <trkpt lat="43.55214" lon="3.70382">
        <ele>89.8</ele>
        <time>2021-04-13T08:53:04Z</time>
      </trkpt>
      <trkpt lat="43.55218" lon="3.70384">
        <ele>89.8</ele>
        <time>2021-04-13T08:53:05Z</time>
      </trkpt>
      <trkpt lat="43.55223" lon="3.70385">
        <ele>90</ele>
        <time>2021-04-13T08:53:06Z</time>
      </trkpt>
      <trkpt lat="43.55227" lon="3.70387">
        <ele>90</ele>
        <time>2021-04-13T08:53:07Z</time>
      </trkpt>
      <trkpt lat="43.55231" lon="3.70389">
        <ele>90.2</ele>
        <time>2021-04-13T08:53:08Z</time>
      </trkpt>
      <trkpt lat="43.55235" lon="3.7039">
        <ele>90.2</ele>
        <time>2021-04-13T08:53:09Z</time>
      </trkpt>
      <trkpt lat="43.5524" lon="3.70391">
        <ele>90.4</ele>
        <time>2021-04-13T08:53:10Z</time>
      </trkpt>
      <trkpt lat="43.55244" lon="3.70391">
        <ele>90.4</ele>
        <time>2021-04-13T08:53:11Z</time>
      </trkpt>
      <trkpt lat="43.55248" lon="3.70392">
        <ele>90.6</ele>
        <time>2021-04-13T08:53:12Z</time>
      </trkpt>
      <trkpt lat="43.55252" lon="3.70393">
        <ele>90.4</ele>
        <time>2021-04-13T08:53:13Z</time>
      </trkpt>
      <trkpt lat="43.55256" lon="3.70395">
        <ele>90.6</ele>
        <time>2021-04-13T08:53:14Z</time>
      </trkpt>
      <trkpt lat="43.55259" lon="3.70395">
        <ele>90.6</ele>
        <time>2021-04-13T08:53:15Z</time>
      </trkpt>
      <trkpt lat="43.55263" lon="3.70397">
        <ele>90.6</ele>
        <time>2021-04-13T08:53:16Z</time>
      </trkpt>
      <trkpt lat="43.55267" lon="3.70398">
        <ele>90.6</ele>
        <time>2021-04-13T08:53:17Z</time>
      </trkpt>
      <trkpt lat="43.55271" lon="3.70398">
        <ele>90.4</ele>
        <time>2021-04-13T08:53:18Z</time>
      </trkpt>
      <trkpt lat="43.55274" lon="3.70398">
        <ele>90.4</ele>
        <time>2021-04-13T08:53:19Z</time>
      </trkpt>
      <trkpt lat="43.55278" lon="3.70399">
        <ele>90.2</ele>
        <time>2021-04-13T08:53:20Z</time>
      </trkpt>
      <trkpt lat="43.55281" lon="3.70399">
        <ele>90.2</ele>
        <time>2021-04-13T08:53:21Z</time>
      </trkpt>
      <trkpt lat="43.55284" lon="3.704">
        <ele>90</ele>
        <time>2021-04-13T08:53:22Z</time>
      </trkpt>
      <trkpt lat="43.55287" lon="3.70399">
        <ele>89.8</ele>
        <time>2021-04-13T08:53:23Z</time>
      </trkpt>
      <trkpt lat="43.55291" lon="3.70399">
        <ele>89.8</ele>
        <time>2021-04-13T08:53:24Z</time>
      </trkpt>
      <trkpt lat="43.55294" lon="3.70399">
        <ele>89.8</ele>
        <time>2021-04-13T08:53:25Z</time>
      </trkpt>
      <trkpt lat="43.55298" lon="3.70401">
        <ele>89.8</ele>
        <time>2021-04-13T08:53:26Z</time>
      </trkpt>
      <trkpt lat="43.55302" lon="3.70404">
        <ele>89.4</ele>
        <time>2021-04-13T08:53:27Z</time>
      </trkpt>
      <trkpt lat="43.55305" lon="3.70408">
        <ele>88.8</ele>
        <time>2021-04-13T08:53:28Z</time>
      </trkpt>
      <trkpt lat="43.55309" lon="3.70411">
        <ele>88.4</ele>
        <time>2021-04-13T08:53:29Z</time>
      </trkpt>
      <trkpt lat="43.55314" lon="3.70415">
        <ele>87.8</ele>
        <time>2021-04-13T08:53:30Z</time>
      </trkpt>
      <trkpt lat="43.55318" lon="3.70419">
        <ele>87.4</ele>
        <time>2021-04-13T08:53:31Z</time>
      </trkpt>
      <trkpt lat="43.55324" lon="3.70422">
        <ele>86.4</ele>
        <time>2021-04-13T08:53:32Z</time>
      </trkpt>
      <trkpt lat="43.5533" lon="3.70425">
        <ele>85.8</ele>
        <time>2021-04-13T08:53:33Z</time>
      </trkpt>
      <trkpt lat="43.55336" lon="3.70428">
        <ele>85</ele>
        <time>2021-04-13T08:53:34Z</time>
      </trkpt>
      <trkpt lat="43.55342" lon="3.70429">
        <ele>84.2</ele>
        <time>2021-04-13T08:53:35Z</time>
      </trkpt>
      <trkpt lat="43.55347" lon="3.7043">
        <ele>83.2</ele>
        <time>2021-04-13T08:53:36Z</time>
      </trkpt>
      <trkpt lat="43.55354" lon="3.70431">
        <ele>82.8</ele>
        <time>2021-04-13T08:53:37Z</time>
      </trkpt>
      <trkpt lat="43.5536" lon="3.70433">
        <ele>82.2</ele>
        <time>2021-04-13T08:53:38Z</time>
      </trkpt>
      <trkpt lat="43.55366" lon="3.70434">
        <ele>81.6</ele>
        <time>2021-04-13T08:53:39Z</time>
      </trkpt>
      <trkpt lat="43.55372" lon="3.70435">
        <ele>80.6</ele>
        <time>2021-04-13T08:53:40Z</time>
      </trkpt>
      <trkpt lat="43.55379" lon="3.70437">
        <ele>79.8</ele>
        <time>2021-04-13T08:53:41Z</time>
      </trkpt>
      <trkpt lat="43.55386" lon="3.7044">
        <ele>79</ele>
        <time>2021-04-13T08:53:42Z</time>
      </trkpt>
      <trkpt lat="43.55393" lon="3.70442">
        <ele>78.2</ele>
        <time>2021-04-13T08:53:43Z</time>
      </trkpt>
      <trkpt lat="43.554" lon="3.70446">
        <ele>77.8</ele>
        <time>2021-04-13T08:53:44Z</time>
      </trkpt>
      <trkpt lat="43.55407" lon="3.7045">
        <ele>77.2</ele>
        <time>2021-04-13T08:53:45Z</time>
      </trkpt>
      <trkpt lat="43.55412" lon="3.70454">
        <ele>76.6</ele>
        <time>2021-04-13T08:53:46Z</time>
      </trkpt>
      <trkpt lat="43.55417" lon="3.70459">
        <ele>76</ele>
        <time>2021-04-13T08:53:47Z</time>
      </trkpt>
      <trkpt lat="43.55421" lon="3.70464">
        <ele>75.6</ele>
        <time>2021-04-13T08:53:48Z</time>
      </trkpt>
      <trkpt lat="43.55425" lon="3.70469">
        <ele>75</ele>
        <time>2021-04-13T08:53:49Z</time>
      </trkpt>
      <trkpt lat="43.55429" lon="3.70474">
        <ele>74</ele>
        <time>2021-04-13T08:53:50Z</time>
      </trkpt>
      <trkpt lat="43.55431" lon="3.7048">
        <ele>73.4</ele>
        <time>2021-04-13T08:53:51Z</time>
      </trkpt>
      <trkpt lat="43.55433" lon="3.70488">
        <ele>72.4</ele>
        <time>2021-04-13T08:53:52Z</time>
      </trkpt>
      <trkpt lat="43.55434" lon="3.70496">
        <ele>71.4</ele>
        <time>2021-04-13T08:53:53Z</time>
      </trkpt>
      <trkpt lat="43.55433" lon="3.70505">
        <ele>70.6</ele>
        <time>2021-04-13T08:53:54Z</time>
      </trkpt>
      <trkpt lat="43.55431" lon="3.70515">
        <ele>70.2</ele>
        <time>2021-04-13T08:53:55Z</time>
      </trkpt>
      <trkpt lat="43.55429" lon="3.70523">
        <ele>69.4</ele>
        <time>2021-04-13T08:53:56Z</time>
      </trkpt>
      <trkpt lat="43.55426" lon="3.70531">
        <ele>68.6</ele>
        <time>2021-04-13T08:53:57Z</time>
      </trkpt>
      <trkpt lat="43.55425" lon="3.7054">
        <ele>68.2</ele>
        <time>2021-04-13T08:53:58Z</time>
      </trkpt>
      <trkpt lat="43.55425" lon="3.70546">
        <ele>67.6</ele>
        <time>2021-04-13T08:53:59Z</time>
      </trkpt>
      <trkpt lat="43.55427" lon="3.70552">
        <ele>67.4</ele>
        <time>2021-04-13T08:54:00Z</time>
      </trkpt>
      <trkpt lat="43.5543" lon="3.70556">
        <ele>67.4</ele>
        <time>2021-04-13T08:54:01Z</time>
      </trkpt>
      <trkpt lat="43.55432" lon="3.7056">
        <ele>67</ele>
        <time>2021-04-13T08:54:02Z</time>
      </trkpt>
      <trkpt lat="43.55434" lon="3.70564">
        <ele>66.6</ele>
        <time>2021-04-13T08:54:03Z</time>
      </trkpt>
      <trkpt lat="43.55435" lon="3.70568">
        <ele>66.4</ele>
        <time>2021-04-13T08:54:04Z</time>
      </trkpt>
      <trkpt lat="43.55435" lon="3.70573">
        <ele>66.2</ele>
        <time>2021-04-13T08:54:05Z</time>
      </trkpt>
      <trkpt lat="43.55435" lon="3.70578">
        <ele>66</ele>
        <time>2021-04-13T08:54:06Z</time>
      </trkpt>
      <trkpt lat="43.55434" lon="3.70584">
        <ele>66</ele>
        <time>2021-04-13T08:54:07Z</time>
      </trkpt>
      <trkpt lat="43.55432" lon="3.7059">
        <ele>65.8</ele>
        <time>2021-04-13T08:54:08Z</time>
      </trkpt>
      <trkpt lat="43.5543" lon="3.70595">
        <ele>65.6</ele>
        <time>2021-04-13T08:54:09Z</time>
      </trkpt>
      <trkpt lat="43.55429" lon="3.70601">
        <ele>65.4</ele>
        <time>2021-04-13T08:54:10Z</time>
      </trkpt>
      <trkpt lat="43.55427" lon="3.70607">
        <ele>65.2</ele>
        <time>2021-04-13T08:54:11Z</time>
      </trkpt>
      <trkpt lat="43.55426" lon="3.70613">
        <ele>65</ele>
        <time>2021-04-13T08:54:12Z</time>
      </trkpt>
      <trkpt lat="43.55425" lon="3.70618">
        <ele>64.8</ele>
        <time>2021-04-13T08:54:13Z</time>
      </trkpt>
      <trkpt lat="43.55425" lon="3.70624">
        <ele>64.8</ele>
        <time>2021-04-13T08:54:14Z</time>
      </trkpt>
      <trkpt lat="43.55425" lon="3.70628">
        <ele>64.4</ele>
        <time>2021-04-13T08:54:15Z</time>
      </trkpt>
      <trkpt lat="43.55426" lon="3.70632">
        <ele>64.4</ele>
        <time>2021-04-13T08:54:16Z</time>
      </trkpt>
      <trkpt lat="43.55427" lon="3.70635">
        <ele>64</ele>
        <time>2021-04-13T08:54:17Z</time>
      </trkpt>
      <trkpt lat="43.55429" lon="3.70639">
        <ele>63.8</ele>
        <time>2021-04-13T08:54:18Z</time>
      </trkpt>
      <trkpt lat="43.55432" lon="3.70642">
        <ele>63.6</ele>
        <time>2021-04-13T08:54:19Z</time>
      </trkpt>
      <trkpt lat="43.55434" lon="3.70646">
        <ele>63.2</ele>
        <time>2021-04-13T08:54:20Z</time>
      </trkpt>
      <trkpt lat="43.55436" lon="3.70651">
        <ele>63.2</ele>
        <time>2021-04-13T08:54:21Z</time>
      </trkpt>
      <trkpt lat="43.55438" lon="3.70655">
        <ele>63.4</ele>
        <time>2021-04-13T08:54:22Z</time>
      </trkpt>
      <trkpt lat="43.55439" lon="3.70659">
        <ele>63.4</ele>
        <time>2021-04-13T08:54:23Z</time>
      </trkpt>
      <trkpt lat="43.5544" lon="3.70662">
        <ele>63.8</ele>
        <time>2021-04-13T08:54:24Z</time>
      </trkpt>
      <trkpt lat="43.5544" lon="3.70664">
        <ele>63.8</ele>
        <time>2021-04-13T08:54:25Z</time>
      </trkpt>
      <trkpt lat="43.55441" lon="3.70666">
        <ele>64</ele>
        <time>2021-04-13T08:54:26Z</time>
      </trkpt>
      <trkpt lat="43.55441" lon="3.70668">
        <ele>64.2</ele>
        <time>2021-04-13T08:54:27Z</time>
      </trkpt>
      <trkpt lat="43.55442" lon="3.70669">
        <ele>64.2</ele>
        <time>2021-04-13T08:54:28Z</time>
      </trkpt>
      <trkpt lat="43.55442" lon="3.7067">
        <ele>64.2</ele>
        <time>2021-04-13T08:54:29Z</time>
      </trkpt>
      <trkpt lat="43.55442" lon="3.70671">
        <ele>64</ele>
        <time>2021-04-13T08:54:30Z</time>
      </trkpt>
      <trkpt lat="43.55442" lon="3.70673">
        <ele>64</ele>
        <time>2021-04-13T08:54:31Z</time>
      </trkpt>
      <trkpt lat="43.55443" lon="3.70674">
        <ele>63.8</ele>
        <time>2021-04-13T08:54:32Z</time>
      </trkpt>
      <trkpt lat="43.55444" lon="3.70675">
        <ele>63.8</ele>
        <time>2021-04-13T08:54:33Z</time>
      </trkpt>
      <trkpt lat="43.55444" lon="3.70675">
        <ele>63.8</ele>
        <time>2021-04-13T08:54:34Z</time>
      </trkpt>
      <trkpt lat="43.55445" lon="3.70674">
        <ele>63.6</ele>
        <time>2021-04-13T08:54:35Z</time>
      </trkpt>
      <trkpt lat="43.55444" lon="3.70673">
        <ele>63.6</ele>
        <time>2021-04-13T08:54:36Z</time>
      </trkpt>
      <trkpt lat="43.55444" lon="3.70673">
        <ele>63.6</ele>
        <time>2021-04-13T08:54:37Z</time>
      </trkpt>
      <trkpt lat="43.55443" lon="3.70674">
        <ele>63.4</ele>
        <time>2021-04-13T08:54:38Z</time>
      </trkpt>
      <trkpt lat="43.55443" lon="3.70675">
        <ele>63.2</ele>
        <time>2021-04-13T08:54:39Z</time>
      </trkpt>
      <trkpt lat="43.55443" lon="3.70676">
        <ele>63.4</ele>
        <time>2021-04-13T08:54:40Z</time>
      </trkpt>
      <trkpt lat="43.55444" lon="3.70677">
        <ele>63.6</ele>
        <time>2021-04-13T08:54:41Z</time>
      </trkpt>
      <trkpt lat="43.55445" lon="3.70678">
        <ele>63.6</ele>
        <time>2021-04-13T08:54:42Z</time>
      </trkpt>
      <trkpt lat="43.55446" lon="3.7068">
        <ele>63.4</ele>
        <time>2021-04-13T08:54:43Z</time>
      </trkpt>
      <trkpt lat="43.55446" lon="3.70682">
        <ele>63.6</ele>
        <time>2021-04-13T08:54:44Z</time>
      </trkpt>
      <trkpt lat="43.55447" lon="3.70684">
        <ele>63.8</ele>
        <time>2021-04-13T08:54:45Z</time>
      </trkpt>
      <trkpt lat="43.55447" lon="3.70687">
        <ele>63.8</ele>
        <time>2021-04-13T08:54:46Z</time>
      </trkpt>
      <trkpt lat="43.55449" lon="3.7069">
        <ele>63.8</ele>
        <time>2021-04-13T08:54:47Z</time>
      </trkpt>
      <trkpt lat="43.5545" lon="3.70694">
        <ele>63.8</ele>
        <time>2021-04-13T08:54:48Z</time>
      </trkpt>
      <trkpt lat="43.5545" lon="3.70697">
        <ele>64</ele>
        <time>2021-04-13T08:54:49Z</time>
      </trkpt>
      <trkpt lat="43.55451" lon="3.70702">
        <ele>64</ele>
        <time>2021-04-13T08:54:50Z</time>
      </trkpt>
      <trkpt lat="43.55453" lon="3.70706">
        <ele>64</ele>
        <time>2021-04-13T08:54:51Z</time>
      </trkpt>
      <trkpt lat="43.55454" lon="3.70711">
        <ele>64</ele>
        <time>2021-04-13T08:54:52Z</time>
      </trkpt>
      <trkpt lat="43.55456" lon="3.70716">
        <ele>64</ele>
        <time>2021-04-13T08:54:53Z</time>
      </trkpt>
      <trkpt lat="43.55457" lon="3.70721">
        <ele>64</ele>
        <time>2021-04-13T08:54:54Z</time>
      </trkpt>
      <trkpt lat="43.55459" lon="3.70726">
        <ele>64.2</ele>
        <time>2021-04-13T08:54:55Z</time>
      </trkpt>
      <trkpt lat="43.5546" lon="3.70731">
        <ele>64.2</ele>
        <time>2021-04-13T08:54:56Z</time>
      </trkpt>
      <trkpt lat="43.55462" lon="3.70736">
        <ele>64.4</ele>
        <time>2021-04-13T08:54:57Z</time>
      </trkpt>
      <trkpt lat="43.55464" lon="3.70741">
        <ele>64.4</ele>
        <time>2021-04-13T08:54:58Z</time>
      </trkpt>
      <trkpt lat="43.55465" lon="3.70746">
        <ele>64.4</ele>
        <time>2021-04-13T08:54:59Z</time>
      </trkpt>
      <trkpt lat="43.55467" lon="3.70751">
        <ele>64.6</ele>
        <time>2021-04-13T08:55:00Z</time>
      </trkpt>
      <trkpt lat="43.55469" lon="3.70755">
        <ele>64.6</ele>
        <time>2021-04-13T08:55:01Z</time>
      </trkpt>
      <trkpt lat="43.5547" lon="3.7076">
        <ele>64.8</ele>
        <time>2021-04-13T08:55:02Z</time>
      </trkpt>
      <trkpt lat="43.55471" lon="3.70764">
        <ele>64.6</ele>
        <time>2021-04-13T08:55:03Z</time>
      </trkpt>
      <trkpt lat="43.55473" lon="3.70768">
        <ele>64.6</ele>
        <time>2021-04-13T08:55:04Z</time>
      </trkpt>
      <trkpt lat="43.55473" lon="3.70772">
        <ele>64.6</ele>
        <time>2021-04-13T08:55:05Z</time>
      </trkpt>
      <trkpt lat="43.55473" lon="3.70775">
        <ele>64.8</ele>
        <time>2021-04-13T08:55:06Z</time>
      </trkpt>
      <trkpt lat="43.55473" lon="3.70779">
        <ele>64.8</ele>
        <time>2021-04-13T08:55:07Z</time>
      </trkpt>
      <trkpt lat="43.55473" lon="3.70782">
        <ele>64.8</ele>
        <time>2021-04-13T08:55:08Z</time>
      </trkpt>
      <trkpt lat="43.55472" lon="3.70785">
        <ele>64.6</ele>
        <time>2021-04-13T08:55:09Z</time>
      </trkpt>
      <trkpt lat="43.5547" lon="3.70789">
        <ele>64.6</ele>
        <time>2021-04-13T08:55:10Z</time>
      </trkpt>
      <trkpt lat="43.55469" lon="3.70792">
        <ele>64.6</ele>
        <time>2021-04-13T08:55:11Z</time>
      </trkpt>
      <trkpt lat="43.55467" lon="3.70796">
        <ele>64.4</ele>
        <time>2021-04-13T08:55:12Z</time>
      </trkpt>
      <trkpt lat="43.55465" lon="3.708">
        <ele>64.4</ele>
        <time>2021-04-13T08:55:13Z</time>
      </trkpt>
      <trkpt lat="43.55462" lon="3.70803">
        <ele>64.2</ele>
        <time>2021-04-13T08:55:14Z</time>
      </trkpt>
      <trkpt lat="43.55461" lon="3.70806">
        <ele>64.2</ele>
        <time>2021-04-13T08:55:15Z</time>
      </trkpt>
      <trkpt lat="43.55459" lon="3.70809">
        <ele>64</ele>
        <time>2021-04-13T08:55:16Z</time>
      </trkpt>
      <trkpt lat="43.55457" lon="3.70814">
        <ele>63.8</ele>
        <time>2021-04-13T08:55:17Z</time>
      </trkpt>
      <trkpt lat="43.55455" lon="3.70819">
        <ele>63.6</ele>
        <time>2021-04-13T08:55:18Z</time>
      </trkpt>
      <trkpt lat="43.55454" lon="3.70825">
        <ele>63.4</ele>
        <time>2021-04-13T08:55:19Z</time>
      </trkpt>
      <trkpt lat="43.55453" lon="3.70829">
        <ele>63.4</ele>
        <time>2021-04-13T08:55:20Z</time>
      </trkpt>
      <trkpt lat="43.55453" lon="3.70833">
        <ele>63.2</ele>
        <time>2021-04-13T08:55:21Z</time>
      </trkpt>
      <trkpt lat="43.55453" lon="3.70837">
        <ele>63.2</ele>
        <time>2021-04-13T08:55:22Z</time>
      </trkpt>
      <trkpt lat="43.55455" lon="3.7084">
        <ele>63.2</ele>
        <time>2021-04-13T08:55:23Z</time>
      </trkpt>
      <trkpt lat="43.55457" lon="3.70842">
        <ele>63.4</ele>
        <time>2021-04-13T08:55:24Z</time>
      </trkpt>
      <trkpt lat="43.55459" lon="3.70844">
        <ele>63.6</ele>
        <time>2021-04-13T08:55:25Z</time>
      </trkpt>
      <trkpt lat="43.55462" lon="3.70845">
        <ele>63.8</ele>
        <time>2021-04-13T08:55:26Z</time>
      </trkpt>
      <trkpt lat="43.55464" lon="3.70847">
        <ele>64</ele>
        <time>2021-04-13T08:55:27Z</time>
      </trkpt>
      <trkpt lat="43.55466" lon="3.7085">
        <ele>64</ele>
        <time>2021-04-13T08:55:28Z</time>
      </trkpt>
      <trkpt lat="43.55468" lon="3.70851">
        <ele>64.2</ele>
        <time>2021-04-13T08:55:29Z</time>
      </trkpt>
      <trkpt lat="43.55471" lon="3.70853">
        <ele>64.4</ele>
        <time>2021-04-13T08:55:30Z</time>
      </trkpt>
      <trkpt lat="43.55474" lon="3.70855">
        <ele>64.6</ele>
        <time>2021-04-13T08:55:31Z</time>
      </trkpt>
      <trkpt lat="43.55477" lon="3.70857">
        <ele>64.6</ele>
        <time>2021-04-13T08:55:32Z</time>
      </trkpt>
      <trkpt lat="43.55479" lon="3.70858">
        <ele>64.8</ele>
        <time>2021-04-13T08:55:33Z</time>
      </trkpt>
      <trkpt lat="43.55482" lon="3.7086">
        <ele>64.8</ele>
        <time>2021-04-13T08:55:34Z</time>
      </trkpt>
      <trkpt lat="43.55485" lon="3.70861">
        <ele>65</ele>
        <time>2021-04-13T08:55:35Z</time>
      </trkpt>
      <trkpt lat="43.55487" lon="3.70863">
        <ele>65</ele>
        <time>2021-04-13T08:55:36Z</time>
      </trkpt>
      <trkpt lat="43.5549" lon="3.70865">
        <ele>65.2</ele>
        <time>2021-04-13T08:55:37Z</time>
      </trkpt>
      <trkpt lat="43.55492" lon="3.70866">
        <ele>65.4</ele>
        <time>2021-04-13T08:55:38Z</time>
      </trkpt>
      <trkpt lat="43.55495" lon="3.70868">
        <ele>65.4</ele>
        <time>2021-04-13T08:55:39Z</time>
      </trkpt>
      <trkpt lat="43.55498" lon="3.70869">
        <ele>65.2</ele>
        <time>2021-04-13T08:55:40Z</time>
      </trkpt>
      <trkpt lat="43.55501" lon="3.7087">
        <ele>65.2</ele>
        <time>2021-04-13T08:55:41Z</time>
      </trkpt>
      <trkpt lat="43.55504" lon="3.70872">
        <ele>65.4</ele>
        <time>2021-04-13T08:55:42Z</time>
      </trkpt>
      <trkpt lat="43.55508" lon="3.70873">
        <ele>65.6</ele>
        <time>2021-04-13T08:55:43Z</time>
      </trkpt>
      <trkpt lat="43.55511" lon="3.70874">
        <ele>65.4</ele>
        <time>2021-04-13T08:55:44Z</time>
      </trkpt>
      <trkpt lat="43.55514" lon="3.70875">
        <ele>65.6</ele>
        <time>2021-04-13T08:55:45Z</time>
      </trkpt>
      <trkpt lat="43.55518" lon="3.70876">
        <ele>65.6</ele>
        <time>2021-04-13T08:55:46Z</time>
      </trkpt>
      <trkpt lat="43.55521" lon="3.70877">
        <ele>65.8</ele>
        <time>2021-04-13T08:55:47Z</time>
      </trkpt>
      <trkpt lat="43.55524" lon="3.70878">
        <ele>65.8</ele>
        <time>2021-04-13T08:55:48Z</time>
      </trkpt>
      <trkpt lat="43.55527" lon="3.70879">
        <ele>66</ele>
        <time>2021-04-13T08:55:49Z</time>
      </trkpt>
      <trkpt lat="43.55529" lon="3.7088">
        <ele>66.2</ele>
        <time>2021-04-13T08:55:50Z</time>
      </trkpt>
      <trkpt lat="43.55532" lon="3.70881">
        <ele>66.4</ele>
        <time>2021-04-13T08:55:51Z</time>
      </trkpt>
      <trkpt lat="43.55535" lon="3.70883">
        <ele>66.4</ele>
        <time>2021-04-13T08:55:52Z</time>
      </trkpt>
      <trkpt lat="43.55538" lon="3.70885">
        <ele>66.4</ele>
        <time>2021-04-13T08:55:53Z</time>
      </trkpt>
      <trkpt lat="43.55541" lon="3.70887">
        <ele>66.4</ele>
        <time>2021-04-13T08:55:54Z</time>
      </trkpt>
      <trkpt lat="43.55544" lon="3.70888">
        <ele>66.4</ele>
        <time>2021-04-13T08:55:55Z</time>
      </trkpt>
      <trkpt lat="43.55547" lon="3.7089">
        <ele>66.4</ele>
        <time>2021-04-13T08:55:56Z</time>
      </trkpt>
      <trkpt lat="43.55549" lon="3.70891">
        <ele>66.2</ele>
        <time>2021-04-13T08:55:57Z</time>
      </trkpt>
      <trkpt lat="43.55553" lon="3.70892">
        <ele>66.2</ele>
        <time>2021-04-13T08:55:58Z</time>
      </trkpt>
      <trkpt lat="43.55556" lon="3.70894">
        <ele>66.4</ele>
        <time>2021-04-13T08:55:59Z</time>
      </trkpt>
      <trkpt lat="43.55559" lon="3.70895">
        <ele>66.4</ele>
        <time>2021-04-13T08:56:00Z</time>
      </trkpt>
      <trkpt lat="43.55562" lon="3.70896">
        <ele>66.4</ele>
        <time>2021-04-13T08:56:01Z</time>
      </trkpt>
      <trkpt lat="43.55566" lon="3.70897">
        <ele>66.4</ele>
        <time>2021-04-13T08:56:02Z</time>
      </trkpt>
      <trkpt lat="43.55569" lon="3.70898">
        <ele>66.4</ele>
        <time>2021-04-13T08:56:03Z</time>
      </trkpt>
      <trkpt lat="43.55573" lon="3.709">
        <ele>66.6</ele>
        <time>2021-04-13T08:56:04Z</time>
      </trkpt>
      <trkpt lat="43.55576" lon="3.70902">
        <ele>66.2</ele>
        <time>2021-04-13T08:56:05Z</time>
      </trkpt>
      <trkpt lat="43.5558" lon="3.70903">
        <ele>66.2</ele>
        <time>2021-04-13T08:56:06Z</time>
      </trkpt>
      <trkpt lat="43.55583" lon="3.70906">
        <ele>66.2</ele>
        <time>2021-04-13T08:56:07Z</time>
      </trkpt>
      <trkpt lat="43.55587" lon="3.70908">
        <ele>66</ele>
        <time>2021-04-13T08:56:08Z</time>
      </trkpt>
      <trkpt lat="43.5559" lon="3.7091">
        <ele>66</ele>
        <time>2021-04-13T08:56:09Z</time>
      </trkpt>
      <trkpt lat="43.55594" lon="3.70912">
        <ele>66</ele>
        <time>2021-04-13T08:56:10Z</time>
      </trkpt>
      <trkpt lat="43.55597" lon="3.70914">
        <ele>65.8</ele>
        <time>2021-04-13T08:56:11Z</time>
      </trkpt>
      <trkpt lat="43.55601" lon="3.70917">
        <ele>65.8</ele>
        <time>2021-04-13T08:56:12Z</time>
      </trkpt>
      <trkpt lat="43.55604" lon="3.70919">
        <ele>65.8</ele>
        <time>2021-04-13T08:56:13Z</time>
      </trkpt>
      <trkpt lat="43.55607" lon="3.70922">
        <ele>65.8</ele>
        <time>2021-04-13T08:56:14Z</time>
      </trkpt>
      <trkpt lat="43.55611" lon="3.70925">
        <ele>65.6</ele>
        <time>2021-04-13T08:56:15Z</time>
      </trkpt>
      <trkpt lat="43.55614" lon="3.70927">
        <ele>65.6</ele>
        <time>2021-04-13T08:56:16Z</time>
      </trkpt>
      <trkpt lat="43.55618" lon="3.7093">
        <ele>65.4</ele>
        <time>2021-04-13T08:56:17Z</time>
      </trkpt>
      <trkpt lat="43.55621" lon="3.70933">
        <ele>65.4</ele>
        <time>2021-04-13T08:56:18Z</time>
      </trkpt>
      <trkpt lat="43.55624" lon="3.70937">
        <ele>65.2</ele>
        <time>2021-04-13T08:56:19Z</time>
      </trkpt>
      <trkpt lat="43.55627" lon="3.70941">
        <ele>65</ele>
        <time>2021-04-13T08:56:20Z</time>
      </trkpt>
      <trkpt lat="43.55629" lon="3.70945">
        <ele>64.6</ele>
        <time>2021-04-13T08:56:21Z</time>
      </trkpt>
      <trkpt lat="43.55632" lon="3.70949">
        <ele>64.4</ele>
        <time>2021-04-13T08:56:22Z</time>
      </trkpt>
      <trkpt lat="43.55636" lon="3.70952">
        <ele>64</ele>
        <time>2021-04-13T08:56:23Z</time>
      </trkpt>
      <trkpt lat="43.55639" lon="3.70955">
        <ele>63.6</ele>
        <time>2021-04-13T08:56:24Z</time>
      </trkpt>
      <trkpt lat="43.55641" lon="3.70958">
        <ele>63.4</ele>
        <time>2021-04-13T08:56:25Z</time>
      </trkpt>
      <trkpt lat="43.55643" lon="3.7096">
        <ele>63.4</ele>
        <time>2021-04-13T08:56:26Z</time>
      </trkpt>
      <trkpt lat="43.55644" lon="3.70961">
        <ele>63.4</ele>
        <time>2021-04-13T08:56:27Z</time>
      </trkpt>
      <trkpt lat="43.55646" lon="3.70961">
        <ele>63.4</ele>
        <time>2021-04-13T08:56:28Z</time>
      </trkpt>
      <trkpt lat="43.55647" lon="3.70962">
        <ele>63.6</ele>
        <time>2021-04-13T08:56:29Z</time>
      </trkpt>
      <trkpt lat="43.55649" lon="3.70963">
        <ele>63.6</ele>
        <time>2021-04-13T08:56:30Z</time>
      </trkpt>
      <trkpt lat="43.5565" lon="3.70963">
        <ele>64</ele>
        <time>2021-04-13T08:56:31Z</time>
      </trkpt>
      <trkpt lat="43.55652" lon="3.70963">
        <ele>64</ele>
        <time>2021-04-13T08:56:32Z</time>
      </trkpt>
      <trkpt lat="43.55655" lon="3.70964">
        <ele>63.6</ele>
        <time>2021-04-13T08:56:33Z</time>
      </trkpt>
      <trkpt lat="43.55657" lon="3.70966">
        <ele>63.4</ele>
        <time>2021-04-13T08:56:34Z</time>
      </trkpt>
      <trkpt lat="43.5566" lon="3.70968">
        <ele>63.4</ele>
        <time>2021-04-13T08:56:35Z</time>
      </trkpt>
      <trkpt lat="43.55662" lon="3.70971">
        <ele>63.4</ele>
        <time>2021-04-13T08:56:36Z</time>
      </trkpt>
      <trkpt lat="43.55665" lon="3.70974">
        <ele>63.4</ele>
        <time>2021-04-13T08:56:37Z</time>
      </trkpt>
      <trkpt lat="43.55667" lon="3.70977">
        <ele>63.2</ele>
        <time>2021-04-13T08:56:38Z</time>
      </trkpt>
      <trkpt lat="43.55669" lon="3.7098">
        <ele>63.2</ele>
        <time>2021-04-13T08:56:39Z</time>
      </trkpt>
      <trkpt lat="43.55672" lon="3.70982">
        <ele>63.2</ele>
        <time>2021-04-13T08:56:40Z</time>
      </trkpt>
      <trkpt lat="43.55675" lon="3.70984">
        <ele>63.4</ele>
        <time>2021-04-13T08:56:41Z</time>
      </trkpt>
      <trkpt lat="43.55678" lon="3.70985">
        <ele>63.6</ele>
        <time>2021-04-13T08:56:42Z</time>
      </trkpt>
      <trkpt lat="43.55681" lon="3.70986">
        <ele>63.8</ele>
        <time>2021-04-13T08:56:43Z</time>
      </trkpt>
      <trkpt lat="43.55683" lon="3.70987">
        <ele>63.8</ele>
        <time>2021-04-13T08:56:44Z</time>
      </trkpt>
      <trkpt lat="43.55686" lon="3.70989">
        <ele>63.6</ele>
        <time>2021-04-13T08:56:45Z</time>
      </trkpt>
      <trkpt lat="43.55689" lon="3.70991">
        <ele>63.8</ele>
        <time>2021-04-13T08:56:46Z</time>
      </trkpt>
      <trkpt lat="43.55692" lon="3.70992">
        <ele>63.8</ele>
        <time>2021-04-13T08:56:47Z</time>
      </trkpt>
      <trkpt lat="43.55695" lon="3.70994">
        <ele>64</ele>
        <time>2021-04-13T08:56:48Z</time>
      </trkpt>
      <trkpt lat="43.55698" lon="3.70995">
        <ele>64</ele>
        <time>2021-04-13T08:56:49Z</time>
      </trkpt>
      <trkpt lat="43.55701" lon="3.70997">
        <ele>63.8</ele>
        <time>2021-04-13T08:56:50Z</time>
      </trkpt>
      <trkpt lat="43.55704" lon="3.70999">
        <ele>63.6</ele>
        <time>2021-04-13T08:56:51Z</time>
      </trkpt>
      <trkpt lat="43.55706" lon="3.71001">
        <ele>63.6</ele>
        <time>2021-04-13T08:56:52Z</time>
      </trkpt>
      <trkpt lat="43.55709" lon="3.71003">
        <ele>63.4</ele>
        <time>2021-04-13T08:56:53Z</time>
      </trkpt>
      <trkpt lat="43.55712" lon="3.71004">
        <ele>63.4</ele>
        <time>2021-04-13T08:56:54Z</time>
      </trkpt>
      <trkpt lat="43.55715" lon="3.71005">
        <ele>63.4</ele>
        <time>2021-04-13T08:56:55Z</time>
      </trkpt>
      <trkpt lat="43.55718" lon="3.71006">
        <ele>63.2</ele>
        <time>2021-04-13T08:56:56Z</time>
      </trkpt>
      <trkpt lat="43.55721" lon="3.71008">
        <ele>63</ele>
        <time>2021-04-13T08:56:57Z</time>
      </trkpt>
      <trkpt lat="43.55724" lon="3.71009">
        <ele>63</ele>
        <time>2021-04-13T08:56:58Z</time>
      </trkpt>
      <trkpt lat="43.55727" lon="3.71011">
        <ele>62.8</ele>
        <time>2021-04-13T08:56:59Z</time>
      </trkpt>
      <trkpt lat="43.55731" lon="3.71014">
        <ele>63</ele>
        <time>2021-04-13T08:57:00Z</time>
      </trkpt>
      <trkpt lat="43.55734" lon="3.71017">
        <ele>62.8</ele>
        <time>2021-04-13T08:57:01Z</time>
      </trkpt>
      <trkpt lat="43.55738" lon="3.7102">
        <ele>62.4</ele>
        <time>2021-04-13T08:57:02Z</time>
      </trkpt>
      <trkpt lat="43.55742" lon="3.71023">
        <ele>62</ele>
        <time>2021-04-13T08:57:03Z</time>
      </trkpt>
      <trkpt lat="43.55745" lon="3.71027">
        <ele>61.8</ele>
        <time>2021-04-13T08:57:04Z</time>
      </trkpt>
      <trkpt lat="43.55748" lon="3.71033">
        <ele>61.6</ele>
        <time>2021-04-13T08:57:05Z</time>
      </trkpt>
      <trkpt lat="43.55751" lon="3.71039">
        <ele>61.4</ele>
        <time>2021-04-13T08:57:06Z</time>
      </trkpt>
      <trkpt lat="43.55755" lon="3.71044">
        <ele>61.2</ele>
        <time>2021-04-13T08:57:07Z</time>
      </trkpt>
      <trkpt lat="43.55759" lon="3.7105">
        <ele>61</ele>
        <time>2021-04-13T08:57:08Z</time>
      </trkpt>
      <trkpt lat="43.55763" lon="3.71055">
        <ele>60.8</ele>
        <time>2021-04-13T08:57:09Z</time>
      </trkpt>
      <trkpt lat="43.55767" lon="3.7106">
        <ele>60.8</ele>
        <time>2021-04-13T08:57:10Z</time>
      </trkpt>
      <trkpt lat="43.55771" lon="3.71065">
        <ele>60.8</ele>
        <time>2021-04-13T08:57:11Z</time>
      </trkpt>
      <trkpt lat="43.55775" lon="3.7107">
        <ele>60.8</ele>
        <time>2021-04-13T08:57:12Z</time>
      </trkpt>
      <trkpt lat="43.55779" lon="3.71075">
        <ele>60.8</ele>
        <time>2021-04-13T08:57:13Z</time>
      </trkpt>
      <trkpt lat="43.55782" lon="3.71079">
        <ele>60.6</ele>
        <time>2021-04-13T08:57:14Z</time>
      </trkpt>
      <trkpt lat="43.55785" lon="3.71085">
        <ele>60.4</ele>
        <time>2021-04-13T08:57:15Z</time>
      </trkpt>
      <trkpt lat="43.55787" lon="3.71091">
        <ele>60.4</ele>
        <time>2021-04-13T08:57:16Z</time>
      </trkpt>
      <trkpt lat="43.5579" lon="3.71096">
        <ele>60.6</ele>
        <time>2021-04-13T08:57:17Z</time>
      </trkpt>
      <trkpt lat="43.55793" lon="3.71102">
        <ele>60.4</ele>
        <time>2021-04-13T08:57:18Z</time>
      </trkpt>
      <trkpt lat="43.55796" lon="3.71107">
        <ele>60.4</ele>
        <time>2021-04-13T08:57:19Z</time>
      </trkpt>
      <trkpt lat="43.55799" lon="3.71113">
        <ele>60.2</ele>
        <time>2021-04-13T08:57:20Z</time>
      </trkpt>
      <trkpt lat="43.55801" lon="3.71119">
        <ele>60</ele>
        <time>2021-04-13T08:57:21Z</time>
      </trkpt>
      <trkpt lat="43.55803" lon="3.71125">
        <ele>59.8</ele>
        <time>2021-04-13T08:57:22Z</time>
      </trkpt>
      <trkpt lat="43.55805" lon="3.71131">
        <ele>59.8</ele>
        <time>2021-04-13T08:57:23Z</time>
      </trkpt>
      <trkpt lat="43.55807" lon="3.71137">
        <ele>59.6</ele>
        <time>2021-04-13T08:57:24Z</time>
      </trkpt>
      <trkpt lat="43.55809" lon="3.71143">
        <ele>59.4</ele>
        <time>2021-04-13T08:57:25Z</time>
      </trkpt>
      <trkpt lat="43.55812" lon="3.7115">
        <ele>59.2</ele>
        <time>2021-04-13T08:57:26Z</time>
      </trkpt>
      <trkpt lat="43.55814" lon="3.71156">
        <ele>59</ele>
        <time>2021-04-13T08:57:27Z</time>
      </trkpt>
      <trkpt lat="43.55816" lon="3.71162">
        <ele>59</ele>
        <time>2021-04-13T08:57:28Z</time>
      </trkpt>
      <trkpt lat="43.55818" lon="3.71168">
        <ele>58.8</ele>
        <time>2021-04-13T08:57:29Z</time>
      </trkpt>
      <trkpt lat="43.5582" lon="3.71175">
        <ele>58.8</ele>
        <time>2021-04-13T08:57:30Z</time>
      </trkpt>
      <trkpt lat="43.55822" lon="3.71181">
        <ele>58.6</ele>
        <time>2021-04-13T08:57:31Z</time>
      </trkpt>
      <trkpt lat="43.55824" lon="3.71187">
        <ele>58.6</ele>
        <time>2021-04-13T08:57:32Z</time>
      </trkpt>
      <trkpt lat="43.55826" lon="3.71192">
        <ele>58.4</ele>
        <time>2021-04-13T08:57:33Z</time>
      </trkpt>
      <trkpt lat="43.55828" lon="3.71197">
        <ele>58.2</ele>
        <time>2021-04-13T08:57:34Z</time>
      </trkpt>
      <trkpt lat="43.55829" lon="3.71201">
        <ele>58</ele>
        <time>2021-04-13T08:57:35Z</time>
      </trkpt>
      <trkpt lat="43.5583" lon="3.71204">
        <ele>57.8</ele>
        <time>2021-04-13T08:57:36Z</time>
      </trkpt>
      <trkpt lat="43.5583" lon="3.71206">
        <ele>57.6</ele>
        <time>2021-04-13T08:57:37Z</time>
      </trkpt>
      <trkpt lat="43.5583" lon="3.71208">
        <ele>57.4</ele>
        <time>2021-04-13T08:57:38Z</time>
      </trkpt>
      <trkpt lat="43.5583" lon="3.7121">
        <ele>57.6</ele>
        <time>2021-04-13T08:57:39Z</time>
      </trkpt>
      <trkpt lat="43.5583" lon="3.71212">
        <ele>57.6</ele>
        <time>2021-04-13T08:57:40Z</time>
      </trkpt>
      <trkpt lat="43.55829" lon="3.71214">
        <ele>57.6</ele>
        <time>2021-04-13T08:57:41Z</time>
      </trkpt>
      <trkpt lat="43.55827" lon="3.71217">
        <ele>57.6</ele>
        <time>2021-04-13T08:57:42Z</time>
      </trkpt>
      <trkpt lat="43.55825" lon="3.71219">
        <ele>57.6</ele>
        <time>2021-04-13T08:57:43Z</time>
      </trkpt>
      <trkpt lat="43.55823" lon="3.71222">
        <ele>57.6</ele>
        <time>2021-04-13T08:57:44Z</time>
      </trkpt>
      <trkpt lat="43.5582" lon="3.71225">
        <ele>57.6</ele>
        <time>2021-04-13T08:57:45Z</time>
      </trkpt>
      <trkpt lat="43.55818" lon="3.71228">
        <ele>57.6</ele>
        <time>2021-04-13T08:57:46Z</time>
      </trkpt>
      <trkpt lat="43.55815" lon="3.71231">
        <ele>57.6</ele>
        <time>2021-04-13T08:57:47Z</time>
      </trkpt>
      <trkpt lat="43.55813" lon="3.71234">
        <ele>57.6</ele>
        <time>2021-04-13T08:57:48Z</time>
      </trkpt>
      <trkpt lat="43.5581" lon="3.71238">
        <ele>57.6</ele>
        <time>2021-04-13T08:57:49Z</time>
      </trkpt>
      <trkpt lat="43.55808" lon="3.71241">
        <ele>57.6</ele>
        <time>2021-04-13T08:57:50Z</time>
      </trkpt>
      <trkpt lat="43.55806" lon="3.71244">
        <ele>57.6</ele>
        <time>2021-04-13T08:57:51Z</time>
      </trkpt>
      <trkpt lat="43.55806" lon="3.71248">
        <ele>57.6</ele>
        <time>2021-04-13T08:57:52Z</time>
      </trkpt>
      <trkpt lat="43.55807" lon="3.71252">
        <ele>57.8</ele>
        <time>2021-04-13T08:57:53Z</time>
      </trkpt>
      <trkpt lat="43.55809" lon="3.71255">
        <ele>57.8</ele>
        <time>2021-04-13T08:57:54Z</time>
      </trkpt>
      <trkpt lat="43.55811" lon="3.71258">
        <ele>57.6</ele>
        <time>2021-04-13T08:57:55Z</time>
      </trkpt>
      <trkpt lat="43.55814" lon="3.71261">
        <ele>57.8</ele>
        <time>2021-04-13T08:57:56Z</time>
      </trkpt>
      <trkpt lat="43.55817" lon="3.71263">
        <ele>57.8</ele>
        <time>2021-04-13T08:57:57Z</time>
      </trkpt>
      <trkpt lat="43.55821" lon="3.71266">
        <ele>57.8</ele>
        <time>2021-04-13T08:57:58Z</time>
      </trkpt>
      <trkpt lat="43.55824" lon="3.71269">
        <ele>57.8</ele>
        <time>2021-04-13T08:57:59Z</time>
      </trkpt>
      <trkpt lat="43.55828" lon="3.71271">
        <ele>57.8</ele>
        <time>2021-04-13T08:58:00Z</time>
      </trkpt>
      <trkpt lat="43.55831" lon="3.71274">
        <ele>58</ele>
        <time>2021-04-13T08:58:01Z</time>
      </trkpt>
      <trkpt lat="43.55835" lon="3.71276">
        <ele>58</ele>
        <time>2021-04-13T08:58:02Z</time>
      </trkpt>
      <trkpt lat="43.55839" lon="3.71279">
        <ele>58</ele>
        <time>2021-04-13T08:58:03Z</time>
      </trkpt>
      <trkpt lat="43.55842" lon="3.71281">
        <ele>57.8</ele>
        <time>2021-04-13T08:58:04Z</time>
      </trkpt>
      <trkpt lat="43.55846" lon="3.71284">
        <ele>57.8</ele>
        <time>2021-04-13T08:58:05Z</time>
      </trkpt>
      <trkpt lat="43.5585" lon="3.71286">
        <ele>58</ele>
        <time>2021-04-13T08:58:06Z</time>
      </trkpt>
      <trkpt lat="43.55853" lon="3.71288">
        <ele>57.8</ele>
        <time>2021-04-13T08:58:07Z</time>
      </trkpt>
      <trkpt lat="43.55857" lon="3.71291">
        <ele>57.8</ele>
        <time>2021-04-13T08:58:08Z</time>
      </trkpt>
      <trkpt lat="43.55861" lon="3.71293">
        <ele>57.6</ele>
        <time>2021-04-13T08:58:09Z</time>
      </trkpt>
      <trkpt lat="43.55865" lon="3.71296">
        <ele>57.6</ele>
        <time>2021-04-13T08:58:10Z</time>
      </trkpt>
      <trkpt lat="43.55869" lon="3.71299">
        <ele>57.6</ele>
        <time>2021-04-13T08:58:11Z</time>
      </trkpt>
      <trkpt lat="43.55873" lon="3.71302">
        <ele>57.6</ele>
        <time>2021-04-13T08:58:12Z</time>
      </trkpt>
      <trkpt lat="43.55876" lon="3.71306">
        <ele>57.6</ele>
        <time>2021-04-13T08:58:13Z</time>
      </trkpt>
      <trkpt lat="43.5588" lon="3.71309">
        <ele>57.6</ele>
        <time>2021-04-13T08:58:14Z</time>
      </trkpt>
      <trkpt lat="43.55884" lon="3.71312">
        <ele>57.6</ele>
        <time>2021-04-13T08:58:15Z</time>
      </trkpt>
      <trkpt lat="43.55888" lon="3.71315">
        <ele>57.4</ele>
        <time>2021-04-13T08:58:16Z</time>
      </trkpt>
      <trkpt lat="43.55892" lon="3.71318">
        <ele>57.4</ele>
        <time>2021-04-13T08:58:17Z</time>
      </trkpt>
      <trkpt lat="43.55896" lon="3.71321">
        <ele>57.4</ele>
        <time>2021-04-13T08:58:18Z</time>
      </trkpt>
      <trkpt lat="43.559" lon="3.71324">
        <ele>57.2</ele>
        <time>2021-04-13T08:58:19Z</time>
      </trkpt>
      <trkpt lat="43.55903" lon="3.71327">
        <ele>57.2</ele>
        <time>2021-04-13T08:58:20Z</time>
      </trkpt>
      <trkpt lat="43.55907" lon="3.7133">
        <ele>57.2</ele>
        <time>2021-04-13T08:58:21Z</time>
      </trkpt>
      <trkpt lat="43.55911" lon="3.71332">
        <ele>57.2</ele>
        <time>2021-04-13T08:58:22Z</time>
      </trkpt>
      <trkpt lat="43.55915" lon="3.71335">
        <ele>57</ele>
        <time>2021-04-13T08:58:23Z</time>
      </trkpt>
      <trkpt lat="43.55919" lon="3.71338">
        <ele>57</ele>
        <time>2021-04-13T08:58:24Z</time>
      </trkpt>
      <trkpt lat="43.55923" lon="3.71341">
        <ele>56.8</ele>
        <time>2021-04-13T08:58:25Z</time>
      </trkpt>
      <trkpt lat="43.55928" lon="3.71344">
        <ele>57</ele>
        <time>2021-04-13T08:58:26Z</time>
      </trkpt>
      <trkpt lat="43.55932" lon="3.71347">
        <ele>56.8</ele>
        <time>2021-04-13T08:58:27Z</time>
      </trkpt>
      <trkpt lat="43.55937" lon="3.7135">
        <ele>56.6</ele>
        <time>2021-04-13T08:58:28Z</time>
      </trkpt>
      <trkpt lat="43.55941" lon="3.71353">
        <ele>56.6</ele>
        <time>2021-04-13T08:58:29Z</time>
      </trkpt>
      <trkpt lat="43.55945" lon="3.71356">
        <ele>56.6</ele>
        <time>2021-04-13T08:58:30Z</time>
      </trkpt>
      <trkpt lat="43.55949" lon="3.71359">
        <ele>56.6</ele>
        <time>2021-04-13T08:58:31Z</time>
      </trkpt>
      <trkpt lat="43.55954" lon="3.71362">
        <ele>56.2</ele>
        <time>2021-04-13T08:58:32Z</time>
      </trkpt>
      <trkpt lat="43.55958" lon="3.71365">
        <ele>56</ele>
        <time>2021-04-13T08:58:33Z</time>
      </trkpt>
      <trkpt lat="43.55962" lon="3.71368">
        <ele>56</ele>
        <time>2021-04-13T08:58:34Z</time>
      </trkpt>
      <trkpt lat="43.55966" lon="3.7137">
        <ele>56</ele>
        <time>2021-04-13T08:58:35Z</time>
      </trkpt>
      <trkpt lat="43.5597" lon="3.71373">
        <ele>56</ele>
        <time>2021-04-13T08:58:36Z</time>
      </trkpt>
      <trkpt lat="43.55975" lon="3.71375">
        <ele>56</ele>
        <time>2021-04-13T08:58:37Z</time>
      </trkpt>
      <trkpt lat="43.55979" lon="3.71378">
        <ele>55.8</ele>
        <time>2021-04-13T08:58:38Z</time>
      </trkpt>
      <trkpt lat="43.55983" lon="3.7138">
        <ele>55.8</ele>
        <time>2021-04-13T08:58:39Z</time>
      </trkpt>
      <trkpt lat="43.55987" lon="3.71382">
        <ele>55.8</ele>
        <time>2021-04-13T08:58:40Z</time>
      </trkpt>
      <trkpt lat="43.55991" lon="3.71385">
        <ele>55.6</ele>
        <time>2021-04-13T08:58:41Z</time>
      </trkpt>
      <trkpt lat="43.55994" lon="3.71388">
        <ele>55.8</ele>
        <time>2021-04-13T08:58:42Z</time>
      </trkpt>
      <trkpt lat="43.55998" lon="3.7139">
        <ele>56</ele>
        <time>2021-04-13T08:58:43Z</time>
      </trkpt>
      <trkpt lat="43.56001" lon="3.71393">
        <ele>56</ele>
        <time>2021-04-13T08:58:44Z</time>
      </trkpt>
      <trkpt lat="43.56004" lon="3.71395">
        <ele>56</ele>
        <time>2021-04-13T08:58:45Z</time>
      </trkpt>
      <trkpt lat="43.56007" lon="3.71397">
        <ele>56</ele>
        <time>2021-04-13T08:58:46Z</time>
      </trkpt>
      <trkpt lat="43.56009" lon="3.71399">
        <ele>55.8</ele>
        <time>2021-04-13T08:58:47Z</time>
      </trkpt>
      <trkpt lat="43.56011" lon="3.71401">
        <ele>55.8</ele>
        <time>2021-04-13T08:58:48Z</time>
      </trkpt>
      <trkpt lat="43.56013" lon="3.71402">
        <ele>55.8</ele>
        <time>2021-04-13T08:58:49Z</time>
      </trkpt>
      <trkpt lat="43.56014" lon="3.71403">
        <ele>55.6</ele>
        <time>2021-04-13T08:58:50Z</time>
      </trkpt>
      <trkpt lat="43.56015" lon="3.71404">
        <ele>55.6</ele>
        <time>2021-04-13T08:58:51Z</time>
      </trkpt>
      <trkpt lat="43.56017" lon="3.71405">
        <ele>55.6</ele>
        <time>2021-04-13T08:58:52Z</time>
      </trkpt>
      <trkpt lat="43.56018" lon="3.71405">
        <ele>55.6</ele>
        <time>2021-04-13T08:58:53Z</time>
      </trkpt>
      <trkpt lat="43.56018" lon="3.71405">
        <ele>55.6</ele>
        <time>2021-04-13T08:58:54Z</time>
      </trkpt>
      <trkpt lat="43.56019" lon="3.71405">
        <ele>55.6</ele>
        <time>2021-04-13T08:58:55Z</time>
      </trkpt>
      <trkpt lat="43.56019" lon="3.71405">
        <ele>55.6</ele>
        <time>2021-04-13T08:58:56Z</time>
      </trkpt>
      <trkpt lat="43.56019" lon="3.71405">
        <ele>55.6</ele>
        <time>2021-04-13T08:58:57Z</time>
      </trkpt>
      <trkpt lat="43.5602" lon="3.71405">
        <ele>55.6</ele>
        <time>2021-04-13T08:58:58Z</time>
      </trkpt>
      <trkpt lat="43.5602" lon="3.71405">
        <ele>55.6</ele>
        <time>2021-04-13T08:58:59Z</time>
      </trkpt>
      <trkpt lat="43.5602" lon="3.71405">
        <ele>55.6</ele>
        <time>2021-04-13T08:59:00Z</time>
      </trkpt>
      <trkpt lat="43.56031" lon="3.71409">
        <ele>55.4</ele>
        <time>2021-04-13T08:59:25Z</time>
      </trkpt>
      <trkpt lat="43.56033" lon="3.71411">
        <ele>55.6</ele>
        <time>2021-04-13T08:59:26Z</time>
      </trkpt>
      <trkpt lat="43.56035" lon="3.71413">
        <ele>55.6</ele>
        <time>2021-04-13T08:59:27Z</time>
      </trkpt>
      <trkpt lat="43.56037" lon="3.71415">
        <ele>55.6</ele>
        <time>2021-04-13T08:59:28Z</time>
      </trkpt>
      <trkpt lat="43.5604" lon="3.71416">
        <ele>55.6</ele>
        <time>2021-04-13T08:59:29Z</time>
      </trkpt>
      <trkpt lat="43.56042" lon="3.71418">
        <ele>55.6</ele>
        <time>2021-04-13T08:59:30Z</time>
      </trkpt>
      <trkpt lat="43.56045" lon="3.71421">
        <ele>55.6</ele>
        <time>2021-04-13T08:59:31Z</time>
      </trkpt>
      <trkpt lat="43.56048" lon="3.71424">
        <ele>55.8</ele>
        <time>2021-04-13T08:59:32Z</time>
      </trkpt>
      <trkpt lat="43.56051" lon="3.71426">
        <ele>55.6</ele>
        <time>2021-04-13T08:59:33Z</time>
      </trkpt>
      <trkpt lat="43.56054" lon="3.71428">
        <ele>55.6</ele>
        <time>2021-04-13T08:59:34Z</time>
      </trkpt>
      <trkpt lat="43.56057" lon="3.71431">
        <ele>55.6</ele>
        <time>2021-04-13T08:59:35Z</time>
      </trkpt>
      <trkpt lat="43.56061" lon="3.71433">
        <ele>55.6</ele>
        <time>2021-04-13T08:59:36Z</time>
      </trkpt>
      <trkpt lat="43.56065" lon="3.71435">
        <ele>55.6</ele>
        <time>2021-04-13T08:59:37Z</time>
      </trkpt>
      <trkpt lat="43.56068" lon="3.71438">
        <ele>55.6</ele>
        <time>2021-04-13T08:59:38Z</time>
      </trkpt>
      <trkpt lat="43.56072" lon="3.7144">
        <ele>55.6</ele>
        <time>2021-04-13T08:59:39Z</time>
      </trkpt>
      <trkpt lat="43.56076" lon="3.71443">
        <ele>55.6</ele>
        <time>2021-04-13T08:59:40Z</time>
      </trkpt>
      <trkpt lat="43.5608" lon="3.71446">
        <ele>55.6</ele>
        <time>2021-04-13T08:59:41Z</time>
      </trkpt>
      <trkpt lat="43.56083" lon="3.71449">
        <ele>55.6</ele>
        <time>2021-04-13T08:59:42Z</time>
      </trkpt>
      <trkpt lat="43.56087" lon="3.71451">
        <ele>55.6</ele>
        <time>2021-04-13T08:59:43Z</time>
      </trkpt>
      <trkpt lat="43.5609" lon="3.71454">
        <ele>55.8</ele>
        <time>2021-04-13T08:59:44Z</time>
      </trkpt>
      <trkpt lat="43.56094" lon="3.71456">
        <ele>56</ele>
        <time>2021-04-13T08:59:45Z</time>
      </trkpt>
      <trkpt lat="43.56097" lon="3.71459">
        <ele>56</ele>
        <time>2021-04-13T08:59:46Z</time>
      </trkpt>
      <trkpt lat="43.561" lon="3.71461">
        <ele>56.2</ele>
        <time>2021-04-13T08:59:47Z</time>
      </trkpt>
      <trkpt lat="43.56104" lon="3.71464">
        <ele>56.2</ele>
        <time>2021-04-13T08:59:48Z</time>
      </trkpt>
      <trkpt lat="43.56107" lon="3.71466">
        <ele>56.2</ele>
        <time>2021-04-13T08:59:49Z</time>
      </trkpt>
      <trkpt lat="43.5611" lon="3.71469">
        <ele>56</ele>
        <time>2021-04-13T08:59:50Z</time>
      </trkpt>
      <trkpt lat="43.56113" lon="3.71471">
        <ele>56.2</ele>
        <time>2021-04-13T08:59:51Z</time>
      </trkpt>
      <trkpt lat="43.56116" lon="3.71472">
        <ele>56.4</ele>
        <time>2021-04-13T08:59:52Z</time>
      </trkpt>
      <trkpt lat="43.56118" lon="3.71473">
        <ele>56.2</ele>
        <time>2021-04-13T08:59:53Z</time>
      </trkpt>
      <trkpt lat="43.56118" lon="3.71473">
        <ele>56</ele>
        <time>2021-04-13T08:59:54Z</time>
      </trkpt>
      <trkpt lat="43.56118" lon="3.71473">
        <ele>56</ele>
        <time>2021-04-13T08:59:55Z</time>
      </trkpt>
      <trkpt lat="43.56118" lon="3.71473">
        <ele>56.2</ele>
        <time>2021-04-13T08:59:56Z</time>
      </trkpt>
      <trkpt lat="43.56118" lon="3.71473">
        <ele>56.2</ele>
        <time>2021-04-13T08:59:57Z</time>
      </trkpt>
      <trkpt lat="43.56119" lon="3.71473">
        <ele>56.2</ele>
        <time>2021-04-13T08:59:58Z</time>
      </trkpt>
      <trkpt lat="43.56119" lon="3.71473">
        <ele>56</ele>
        <time>2021-04-13T08:59:59Z</time>
      </trkpt>
      <trkpt lat="43.56119" lon="3.71473">
        <ele>56.2</ele>
        <time>2021-04-13T09:00:00Z</time>
      </trkpt>
      <trkpt lat="43.56119" lon="3.71473">
        <ele>56.2</ele>
        <time>2021-04-13T09:00:01Z</time>
      </trkpt>
      <trkpt lat="43.56133" lon="3.71485">
        <ele>56.4</ele>
        <time>2021-04-13T09:00:26Z</time>
      </trkpt>
      <trkpt lat="43.56135" lon="3.71487">
        <ele>56.4</ele>
        <time>2021-04-13T09:00:27Z</time>
      </trkpt>
      <trkpt lat="43.56137" lon="3.71488">
        <ele>56.6</ele>
        <time>2021-04-13T09:00:28Z</time>
      </trkpt>
      <trkpt lat="43.56139" lon="3.7149">
        <ele>56.4</ele>
        <time>2021-04-13T09:00:29Z</time>
      </trkpt>
      <trkpt lat="43.56142" lon="3.71492">
        <ele>56.2</ele>
        <time>2021-04-13T09:00:30Z</time>
      </trkpt>
      <trkpt lat="43.56144" lon="3.71493">
        <ele>56.4</ele>
        <time>2021-04-13T09:00:31Z</time>
      </trkpt>
      <trkpt lat="43.56146" lon="3.71495">
        <ele>56.4</ele>
        <time>2021-04-13T09:00:32Z</time>
      </trkpt>
      <trkpt lat="43.56149" lon="3.71497">
        <ele>56.4</ele>
        <time>2021-04-13T09:00:33Z</time>
      </trkpt>
      <trkpt lat="43.56151" lon="3.71499">
        <ele>56.4</ele>
        <time>2021-04-13T09:00:34Z</time>
      </trkpt>
      <trkpt lat="43.56154" lon="3.71501">
        <ele>56.6</ele>
        <time>2021-04-13T09:00:35Z</time>
      </trkpt>
      <trkpt lat="43.56156" lon="3.71502">
        <ele>56.4</ele>
        <time>2021-04-13T09:00:36Z</time>
      </trkpt>
      <trkpt lat="43.56158" lon="3.71504">
        <ele>56.4</ele>
        <time>2021-04-13T09:00:37Z</time>
      </trkpt>
      <trkpt lat="43.5616" lon="3.71506">
        <ele>56.2</ele>
        <time>2021-04-13T09:00:38Z</time>
      </trkpt>
      <trkpt lat="43.56161" lon="3.71507">
        <ele>56.2</ele>
        <time>2021-04-13T09:00:39Z</time>
      </trkpt>
      <trkpt lat="43.56163" lon="3.71508">
        <ele>56.2</ele>
        <time>2021-04-13T09:00:40Z</time>
      </trkpt>
      <trkpt lat="43.56163" lon="3.71509">
        <ele>56</ele>
        <time>2021-04-13T09:00:41Z</time>
      </trkpt>
      <trkpt lat="43.56164" lon="3.71509">
        <ele>56.2</ele>
        <time>2021-04-13T09:00:42Z</time>
      </trkpt>
      <trkpt lat="43.56166" lon="3.7151">
        <ele>56.2</ele>
        <time>2021-04-13T09:00:43Z</time>
      </trkpt>
      <trkpt lat="43.56167" lon="3.71511">
        <ele>56.2</ele>
        <time>2021-04-13T09:00:44Z</time>
      </trkpt>
      <trkpt lat="43.56169" lon="3.71512">
        <ele>56.2</ele>
        <time>2021-04-13T09:00:45Z</time>
      </trkpt>
      <trkpt lat="43.56172" lon="3.71514">
        <ele>56.2</ele>
        <time>2021-04-13T09:00:46Z</time>
      </trkpt>
      <trkpt lat="43.56174" lon="3.71515">
        <ele>56.2</ele>
        <time>2021-04-13T09:00:47Z</time>
      </trkpt>
      <trkpt lat="43.56177" lon="3.71517">
        <ele>56.2</ele>
        <time>2021-04-13T09:00:48Z</time>
      </trkpt>
      <trkpt lat="43.56179" lon="3.71518">
        <ele>56.2</ele>
        <time>2021-04-13T09:00:49Z</time>
      </trkpt>
      <trkpt lat="43.56182" lon="3.7152">
        <ele>56.4</ele>
        <time>2021-04-13T09:00:50Z</time>
      </trkpt>
      <trkpt lat="43.56184" lon="3.71523">
        <ele>56.4</ele>
        <time>2021-04-13T09:00:51Z</time>
      </trkpt>
      <trkpt lat="43.56186" lon="3.71526">
        <ele>56.4</ele>
        <time>2021-04-13T09:00:52Z</time>
      </trkpt>
      <trkpt lat="43.56188" lon="3.71529">
        <ele>56.2</ele>
        <time>2021-04-13T09:00:53Z</time>
      </trkpt>
      <trkpt lat="43.56189" lon="3.71533">
        <ele>56.2</ele>
        <time>2021-04-13T09:00:54Z</time>
      </trkpt>
      <trkpt lat="43.56192" lon="3.71535">
        <ele>56.2</ele>
        <time>2021-04-13T09:00:55Z</time>
      </trkpt>
      <trkpt lat="43.56194" lon="3.71538">
        <ele>56.4</ele>
        <time>2021-04-13T09:00:56Z</time>
      </trkpt>
      <trkpt lat="43.56197" lon="3.7154">
        <ele>56.4</ele>
        <time>2021-04-13T09:00:57Z</time>
      </trkpt>
      <trkpt lat="43.56199" lon="3.71543">
        <ele>56.6</ele>
        <time>2021-04-13T09:00:58Z</time>
      </trkpt>
      <trkpt lat="43.56202" lon="3.71546">
        <ele>56.8</ele>
        <time>2021-04-13T09:00:59Z</time>
      </trkpt>
      <trkpt lat="43.56204" lon="3.71548">
        <ele>56.8</ele>
        <time>2021-04-13T09:01:00Z</time>
      </trkpt>
      <trkpt lat="43.56206" lon="3.71551">
        <ele>56.8</ele>
        <time>2021-04-13T09:01:01Z</time>
      </trkpt>
      <trkpt lat="43.56209" lon="3.71553">
        <ele>56.8</ele>
        <time>2021-04-13T09:01:02Z</time>
      </trkpt>
      <trkpt lat="43.56211" lon="3.71555">
        <ele>56.8</ele>
        <time>2021-04-13T09:01:03Z</time>
      </trkpt>
      <trkpt lat="43.56214" lon="3.71558">
        <ele>56.6</ele>
        <time>2021-04-13T09:01:04Z</time>
      </trkpt>
      <trkpt lat="43.56216" lon="3.7156">
        <ele>57</ele>
        <time>2021-04-13T09:01:05Z</time>
      </trkpt>
      <trkpt lat="43.56218" lon="3.71561">
        <ele>57</ele>
        <time>2021-04-13T09:01:06Z</time>
      </trkpt>
      <trkpt lat="43.5622" lon="3.71563">
        <ele>56.8</ele>
        <time>2021-04-13T09:01:07Z</time>
      </trkpt>
      <trkpt lat="43.56222" lon="3.71564">
        <ele>56.8</ele>
        <time>2021-04-13T09:01:08Z</time>
      </trkpt>
      <trkpt lat="43.56222" lon="3.71565">
        <ele>57</ele>
        <time>2021-04-13T09:01:09Z</time>
      </trkpt>
      <trkpt lat="43.56223" lon="3.71565">
        <ele>57</ele>
        <time>2021-04-13T09:01:10Z</time>
      </trkpt>
      <trkpt lat="43.56223" lon="3.71565">
        <ele>57.2</ele>
        <time>2021-04-13T09:01:11Z</time>
      </trkpt>
      <trkpt lat="43.56223" lon="3.71565">
        <ele>57.4</ele>
        <time>2021-04-13T09:01:12Z</time>
      </trkpt>
      <trkpt lat="43.56223" lon="3.71565">
        <ele>57.4</ele>
        <time>2021-04-13T09:01:13Z</time>
      </trkpt>
      <trkpt lat="43.56223" lon="3.71565">
        <ele>57.2</ele>
        <time>2021-04-13T09:01:14Z</time>
      </trkpt>
      <trkpt lat="43.56223" lon="3.71565">
        <ele>57.2</ele>
        <time>2021-04-13T09:01:15Z</time>
      </trkpt>
      <trkpt lat="43.56223" lon="3.71565">
        <ele>57.2</ele>
        <time>2021-04-13T09:01:16Z</time>
      </trkpt>
      <trkpt lat="43.56237" lon="3.71583">
        <ele>57.2</ele>
        <time>2021-04-13T09:01:56Z</time>
      </trkpt>
      <trkpt lat="43.56238" lon="3.71585">
        <ele>57.2</ele>
        <time>2021-04-13T09:01:57Z</time>
      </trkpt>
      <trkpt lat="43.56239" lon="3.71587">
        <ele>57.2</ele>
        <time>2021-04-13T09:01:58Z</time>
      </trkpt>
      <trkpt lat="43.5624" lon="3.7159">
        <ele>57.2</ele>
        <time>2021-04-13T09:01:59Z</time>
      </trkpt>
      <trkpt lat="43.56241" lon="3.71592">
        <ele>57.2</ele>
        <time>2021-04-13T09:02:00Z</time>
      </trkpt>
      <trkpt lat="43.56242" lon="3.71594">
        <ele>57.2</ele>
        <time>2021-04-13T09:02:01Z</time>
      </trkpt>
      <trkpt lat="43.56244" lon="3.71597">
        <ele>57.2</ele>
        <time>2021-04-13T09:02:02Z</time>
      </trkpt>
      <trkpt lat="43.56245" lon="3.71599">
        <ele>57.2</ele>
        <time>2021-04-13T09:02:03Z</time>
      </trkpt>
      <trkpt lat="43.56246" lon="3.71601">
        <ele>57.2</ele>
        <time>2021-04-13T09:02:04Z</time>
      </trkpt>
      <trkpt lat="43.56248" lon="3.71603">
        <ele>57.2</ele>
        <time>2021-04-13T09:02:05Z</time>
      </trkpt>
      <trkpt lat="43.56249" lon="3.71605">
        <ele>57.4</ele>
        <time>2021-04-13T09:02:06Z</time>
      </trkpt>
      <trkpt lat="43.56251" lon="3.71607">
        <ele>57.4</ele>
        <time>2021-04-13T09:02:07Z</time>
      </trkpt>
      <trkpt lat="43.56252" lon="3.71609">
        <ele>57.4</ele>
        <time>2021-04-13T09:02:08Z</time>
      </trkpt>
      <trkpt lat="43.56254" lon="3.71611">
        <ele>57.6</ele>
        <time>2021-04-13T09:02:09Z</time>
      </trkpt>
      <trkpt lat="43.56255" lon="3.71613">
        <ele>57.6</ele>
        <time>2021-04-13T09:02:10Z</time>
      </trkpt>
      <trkpt lat="43.56256" lon="3.71616">
        <ele>57.8</ele>
        <time>2021-04-13T09:02:11Z</time>
      </trkpt>
      <trkpt lat="43.56257" lon="3.71618">
        <ele>57.6</ele>
        <time>2021-04-13T09:02:12Z</time>
      </trkpt>
      <trkpt lat="43.56258" lon="3.71621">
        <ele>57.6</ele>
        <time>2021-04-13T09:02:13Z</time>
      </trkpt>
      <trkpt lat="43.56259" lon="3.71624">
        <ele>57.6</ele>
        <time>2021-04-13T09:02:14Z</time>
      </trkpt>
      <trkpt lat="43.5626" lon="3.71626">
        <ele>57.6</ele>
        <time>2021-04-13T09:02:15Z</time>
      </trkpt>
      <trkpt lat="43.56261" lon="3.71628">
        <ele>57.8</ele>
        <time>2021-04-13T09:02:16Z</time>
      </trkpt>
      <trkpt lat="43.56262" lon="3.7163">
        <ele>57.8</ele>
        <time>2021-04-13T09:02:17Z</time>
      </trkpt>
      <trkpt lat="43.56263" lon="3.71631">
        <ele>57.8</ele>
        <time>2021-04-13T09:02:18Z</time>
      </trkpt>
      <trkpt lat="43.56263" lon="3.71631">
        <ele>57.8</ele>
        <time>2021-04-13T09:02:19Z</time>
      </trkpt>
      <trkpt lat="43.56263" lon="3.71631">
        <ele>57.8</ele>
        <time>2021-04-13T09:02:20Z</time>
      </trkpt>
      <trkpt lat="43.56264" lon="3.71632">
        <ele>57.6</ele>
        <time>2021-04-13T09:02:21Z</time>
      </trkpt>
      <trkpt lat="43.56264" lon="3.71633">
        <ele>57.6</ele>
        <time>2021-04-13T09:02:22Z</time>
      </trkpt>
      <trkpt lat="43.56265" lon="3.71634">
        <ele>57.6</ele>
        <time>2021-04-13T09:02:23Z</time>
      </trkpt>
      <trkpt lat="43.56266" lon="3.71635">
        <ele>57.8</ele>
        <time>2021-04-13T09:02:24Z</time>
      </trkpt>
      <trkpt lat="43.56267" lon="3.71637">
        <ele>57.8</ele>
        <time>2021-04-13T09:02:25Z</time>
      </trkpt>
      <trkpt lat="43.56268" lon="3.71638">
        <ele>57.8</ele>
        <time>2021-04-13T09:02:26Z</time>
      </trkpt>
      <trkpt lat="43.56269" lon="3.71639">
        <ele>57.8</ele>
        <time>2021-04-13T09:02:27Z</time>
      </trkpt>
      <trkpt lat="43.5627" lon="3.71641">
        <ele>58</ele>
        <time>2021-04-13T09:02:28Z</time>
      </trkpt>
      <trkpt lat="43.56271" lon="3.71642">
        <ele>58</ele>
        <time>2021-04-13T09:02:29Z</time>
      </trkpt>
      <trkpt lat="43.56271" lon="3.71643">
        <ele>58</ele>
        <time>2021-04-13T09:02:30Z</time>
      </trkpt>
      <trkpt lat="43.56272" lon="3.71645">
        <ele>58</ele>
        <time>2021-04-13T09:02:31Z</time>
      </trkpt>
      <trkpt lat="43.56273" lon="3.71645">
        <ele>58</ele>
        <time>2021-04-13T09:02:32Z</time>
      </trkpt>
      <trkpt lat="43.56274" lon="3.71646">
        <ele>58</ele>
        <time>2021-04-13T09:02:33Z</time>
      </trkpt>
      <trkpt lat="43.56274" lon="3.71647">
        <ele>58</ele>
        <time>2021-04-13T09:02:34Z</time>
      </trkpt>
      <trkpt lat="43.56275" lon="3.71649">
        <ele>58</ele>
        <time>2021-04-13T09:02:35Z</time>
      </trkpt>
      <trkpt lat="43.56276" lon="3.7165">
        <ele>58</ele>
        <time>2021-04-13T09:02:36Z</time>
      </trkpt>
      <trkpt lat="43.56277" lon="3.71651">
        <ele>58</ele>
        <time>2021-04-13T09:02:37Z</time>
      </trkpt>
      <trkpt lat="43.56278" lon="3.71652">
        <ele>58</ele>
        <time>2021-04-13T09:02:38Z</time>
      </trkpt>
      <trkpt lat="43.56279" lon="3.71653">
        <ele>58</ele>
        <time>2021-04-13T09:02:39Z</time>
      </trkpt>
      <trkpt lat="43.5628" lon="3.71654">
        <ele>58.2</ele>
        <time>2021-04-13T09:02:40Z</time>
      </trkpt>
      <trkpt lat="43.56281" lon="3.71655">
        <ele>58.2</ele>
        <time>2021-04-13T09:02:41Z</time>
      </trkpt>
      <trkpt lat="43.56282" lon="3.71656">
        <ele>58.2</ele>
        <time>2021-04-13T09:02:42Z</time>
      </trkpt>
      <trkpt lat="43.56284" lon="3.71658">
        <ele>58.2</ele>
        <time>2021-04-13T09:02:43Z</time>
      </trkpt>
      <trkpt lat="43.56285" lon="3.71659">
        <ele>58.2</ele>
        <time>2021-04-13T09:02:44Z</time>
      </trkpt>
      <trkpt lat="43.56286" lon="3.71661">
        <ele>58.2</ele>
        <time>2021-04-13T09:02:45Z</time>
      </trkpt>
      <trkpt lat="43.56286" lon="3.71663">
        <ele>58.2</ele>
        <time>2021-04-13T09:02:46Z</time>
      </trkpt>
      <trkpt lat="43.56287" lon="3.71664">
        <ele>58.4</ele>
        <time>2021-04-13T09:02:47Z</time>
      </trkpt>
      <trkpt lat="43.56288" lon="3.71666">
        <ele>58.4</ele>
        <time>2021-04-13T09:02:48Z</time>
      </trkpt>
      <trkpt lat="43.56288" lon="3.71667">
        <ele>58.4</ele>
        <time>2021-04-13T09:02:49Z</time>
      </trkpt>
      <trkpt lat="43.56289" lon="3.71668">
        <ele>58.4</ele>
        <time>2021-04-13T09:02:50Z</time>
      </trkpt>
      <trkpt lat="43.56289" lon="3.7167">
        <ele>58.4</ele>
        <time>2021-04-13T09:02:51Z</time>
      </trkpt>
      <trkpt lat="43.5629" lon="3.71672">
        <ele>58.4</ele>
        <time>2021-04-13T09:02:52Z</time>
      </trkpt>
      <trkpt lat="43.5629" lon="3.71674">
        <ele>58.4</ele>
        <time>2021-04-13T09:02:53Z</time>
      </trkpt>
      <trkpt lat="43.56291" lon="3.71675">
        <ele>58.6</ele>
        <time>2021-04-13T09:02:54Z</time>
      </trkpt>
      <trkpt lat="43.56292" lon="3.71677">
        <ele>58.6</ele>
        <time>2021-04-13T09:02:55Z</time>
      </trkpt>
      <trkpt lat="43.56293" lon="3.71679">
        <ele>58.6</ele>
        <time>2021-04-13T09:02:56Z</time>
      </trkpt>
      <trkpt lat="43.56293" lon="3.7168">
        <ele>58.4</ele>
        <time>2021-04-13T09:02:57Z</time>
      </trkpt>
      <trkpt lat="43.56294" lon="3.71682">
        <ele>58.4</ele>
        <time>2021-04-13T09:02:58Z</time>
      </trkpt>
      <trkpt lat="43.56295" lon="3.71684">
        <ele>58.6</ele>
        <time>2021-04-13T09:02:59Z</time>
      </trkpt>
      <trkpt lat="43.56295" lon="3.71685">
        <ele>58.6</ele>
        <time>2021-04-13T09:03:00Z</time>
      </trkpt>
      <trkpt lat="43.56296" lon="3.71687">
        <ele>58.4</ele>
        <time>2021-04-13T09:03:01Z</time>
      </trkpt>
      <trkpt lat="43.56296" lon="3.71689">
        <ele>58.6</ele>
        <time>2021-04-13T09:03:02Z</time>
      </trkpt>
      <trkpt lat="43.56296" lon="3.71691">
        <ele>58.6</ele>
        <time>2021-04-13T09:03:03Z</time>
      </trkpt>
      <trkpt lat="43.56297" lon="3.71692">
        <ele>58.6</ele>
        <time>2021-04-13T09:03:04Z</time>
      </trkpt>
      <trkpt lat="43.56298" lon="3.71694">
        <ele>58.6</ele>
        <time>2021-04-13T09:03:05Z</time>
      </trkpt>
      <trkpt lat="43.56298" lon="3.71695">
        <ele>58.6</ele>
        <time>2021-04-13T09:03:06Z</time>
      </trkpt>
      <trkpt lat="43.56299" lon="3.71697">
        <ele>58.6</ele>
        <time>2021-04-13T09:03:07Z</time>
      </trkpt>
      <trkpt lat="43.56299" lon="3.71698">
        <ele>58.8</ele>
        <time>2021-04-13T09:03:08Z</time>
      </trkpt>
      <trkpt lat="43.56299" lon="3.717">
        <ele>58.8</ele>
        <time>2021-04-13T09:03:09Z</time>
      </trkpt>
      <trkpt lat="43.563" lon="3.71701">
        <ele>58.8</ele>
        <time>2021-04-13T09:03:10Z</time>
      </trkpt>
      <trkpt lat="43.56301" lon="3.71703">
        <ele>58.8</ele>
        <time>2021-04-13T09:03:11Z</time>
      </trkpt>
      <trkpt lat="43.56302" lon="3.71704">
        <ele>58.8</ele>
        <time>2021-04-13T09:03:12Z</time>
      </trkpt>
      <trkpt lat="43.56302" lon="3.71706">
        <ele>59</ele>
        <time>2021-04-13T09:03:13Z</time>
      </trkpt>
      <trkpt lat="43.56302" lon="3.71708">
        <ele>59</ele>
        <time>2021-04-13T09:03:14Z</time>
      </trkpt>
      <trkpt lat="43.56303" lon="3.71709">
        <ele>59</ele>
        <time>2021-04-13T09:03:15Z</time>
      </trkpt>
      <trkpt lat="43.56303" lon="3.71711">
        <ele>59</ele>
        <time>2021-04-13T09:03:16Z</time>
      </trkpt>
      <trkpt lat="43.56304" lon="3.71713">
        <ele>59</ele>
        <time>2021-04-13T09:03:17Z</time>
      </trkpt>
      <trkpt lat="43.56304" lon="3.71714">
        <ele>59</ele>
        <time>2021-04-13T09:03:18Z</time>
      </trkpt>
      <trkpt lat="43.56305" lon="3.71716">
        <ele>59</ele>
        <time>2021-04-13T09:03:19Z</time>
      </trkpt>
      <trkpt lat="43.56305" lon="3.71717">
        <ele>59</ele>
        <time>2021-04-13T09:03:20Z</time>
      </trkpt>
      <trkpt lat="43.56306" lon="3.71719">
        <ele>59</ele>
        <time>2021-04-13T09:03:21Z</time>
      </trkpt>
      <trkpt lat="43.56306" lon="3.71721">
        <ele>59</ele>
        <time>2021-04-13T09:03:22Z</time>
      </trkpt>
      <trkpt lat="43.56307" lon="3.71722">
        <ele>59</ele>
        <time>2021-04-13T09:03:23Z</time>
      </trkpt>
      <trkpt lat="43.56308" lon="3.71724">
        <ele>59</ele>
        <time>2021-04-13T09:03:24Z</time>
      </trkpt>
      <trkpt lat="43.56308" lon="3.71725">
        <ele>59</ele>
        <time>2021-04-13T09:03:25Z</time>
      </trkpt>
      <trkpt lat="43.56309" lon="3.71726">
        <ele>59</ele>
        <time>2021-04-13T09:03:26Z</time>
      </trkpt>
      <trkpt lat="43.56309" lon="3.71727">
        <ele>59.2</ele>
        <time>2021-04-13T09:03:27Z</time>
      </trkpt>
      <trkpt lat="43.5631" lon="3.71729">
        <ele>59.2</ele>
        <time>2021-04-13T09:03:28Z</time>
      </trkpt>
      <trkpt lat="43.5631" lon="3.7173">
        <ele>59.2</ele>
        <time>2021-04-13T09:03:29Z</time>
      </trkpt>
      <trkpt lat="43.5631" lon="3.71732">
        <ele>59.2</ele>
        <time>2021-04-13T09:03:30Z</time>
      </trkpt>
      <trkpt lat="43.5631" lon="3.71733">
        <ele>59.2</ele>
        <time>2021-04-13T09:03:31Z</time>
      </trkpt>
      <trkpt lat="43.56311" lon="3.71735">
        <ele>59.2</ele>
        <time>2021-04-13T09:03:32Z</time>
      </trkpt>
      <trkpt lat="43.56311" lon="3.71736">
        <ele>59.2</ele>
        <time>2021-04-13T09:03:33Z</time>
      </trkpt>
      <trkpt lat="43.56312" lon="3.71738">
        <ele>59.4</ele>
        <time>2021-04-13T09:03:34Z</time>
      </trkpt>
      <trkpt lat="43.56313" lon="3.71739">
        <ele>59.4</ele>
        <time>2021-04-13T09:03:35Z</time>
      </trkpt>
      <trkpt lat="43.56313" lon="3.71741">
        <ele>59.2</ele>
        <time>2021-04-13T09:03:36Z</time>
      </trkpt>
      <trkpt lat="43.56314" lon="3.71742">
        <ele>59.2</ele>
        <time>2021-04-13T09:03:37Z</time>
      </trkpt>
      <trkpt lat="43.56314" lon="3.71744">
        <ele>59.2</ele>
        <time>2021-04-13T09:03:38Z</time>
      </trkpt>
      <trkpt lat="43.56314" lon="3.71746">
        <ele>59.2</ele>
        <time>2021-04-13T09:03:39Z</time>
      </trkpt>
      <trkpt lat="43.56315" lon="3.71748">
        <ele>59.2</ele>
        <time>2021-04-13T09:03:40Z</time>
      </trkpt>
      <trkpt lat="43.56315" lon="3.71749">
        <ele>59.2</ele>
        <time>2021-04-13T09:03:41Z</time>
      </trkpt>
      <trkpt lat="43.56316" lon="3.71751">
        <ele>59.2</ele>
        <time>2021-04-13T09:03:42Z</time>
      </trkpt>
      <trkpt lat="43.56316" lon="3.71752">
        <ele>59.2</ele>
        <time>2021-04-13T09:03:43Z</time>
      </trkpt>
      <trkpt lat="43.56316" lon="3.71754">
        <ele>59.4</ele>
        <time>2021-04-13T09:03:44Z</time>
      </trkpt>
      <trkpt lat="43.56317" lon="3.71756">
        <ele>59.4</ele>
        <time>2021-04-13T09:03:45Z</time>
      </trkpt>
      <trkpt lat="43.56317" lon="3.71757">
        <ele>59.4</ele>
        <time>2021-04-13T09:03:46Z</time>
      </trkpt>
      <trkpt lat="43.56318" lon="3.71759">
        <ele>59.2</ele>
        <time>2021-04-13T09:03:47Z</time>
      </trkpt>
      <trkpt lat="43.56318" lon="3.7176">
        <ele>59.2</ele>
        <time>2021-04-13T09:03:48Z</time>
      </trkpt>
      <trkpt lat="43.56319" lon="3.71762">
        <ele>59.2</ele>
        <time>2021-04-13T09:03:49Z</time>
      </trkpt>
      <trkpt lat="43.56319" lon="3.71763">
        <ele>59.2</ele>
        <time>2021-04-13T09:03:50Z</time>
      </trkpt>
      <trkpt lat="43.5632" lon="3.71764">
        <ele>59.2</ele>
        <time>2021-04-13T09:03:51Z</time>
      </trkpt>
      <trkpt lat="43.5632" lon="3.71765">
        <ele>59.2</ele>
        <time>2021-04-13T09:03:52Z</time>
      </trkpt>
      <trkpt lat="43.5632" lon="3.71767">
        <ele>59.2</ele>
        <time>2021-04-13T09:03:53Z</time>
      </trkpt>
      <trkpt lat="43.56321" lon="3.7177">
        <ele>59.4</ele>
        <time>2021-04-13T09:03:54Z</time>
      </trkpt>
      <trkpt lat="43.56321" lon="3.71772">
        <ele>59.2</ele>
        <time>2021-04-13T09:03:55Z</time>
      </trkpt>
      <trkpt lat="43.56322" lon="3.71774">
        <ele>59.4</ele>
        <time>2021-04-13T09:03:56Z</time>
      </trkpt>
      <trkpt lat="43.56323" lon="3.71777">
        <ele>59.4</ele>
        <time>2021-04-13T09:03:57Z</time>
      </trkpt>
      <trkpt lat="43.56324" lon="3.71779">
        <ele>59.4</ele>
        <time>2021-04-13T09:03:58Z</time>
      </trkpt>
      <trkpt lat="43.56324" lon="3.71783">
        <ele>59.6</ele>
        <time>2021-04-13T09:03:59Z</time>
      </trkpt>
      <trkpt lat="43.56325" lon="3.71786">
        <ele>59.4</ele>
        <time>2021-04-13T09:04:00Z</time>
      </trkpt>
      <trkpt lat="43.56326" lon="3.71789">
        <ele>59.4</ele>
        <time>2021-04-13T09:04:01Z</time>
      </trkpt>
      <trkpt lat="43.56326" lon="3.71793">
        <ele>59.4</ele>
        <time>2021-04-13T09:04:02Z</time>
      </trkpt>
      <trkpt lat="43.56326" lon="3.71797">
        <ele>59.4</ele>
        <time>2021-04-13T09:04:03Z</time>
      </trkpt>
      <trkpt lat="43.56326" lon="3.718">
        <ele>59.4</ele>
        <time>2021-04-13T09:04:04Z</time>
      </trkpt>
      <trkpt lat="43.56326" lon="3.71805">
        <ele>59.4</ele>
        <time>2021-04-13T09:04:05Z</time>
      </trkpt>
      <trkpt lat="43.56327" lon="3.71809">
        <ele>59.6</ele>
        <time>2021-04-13T09:04:06Z</time>
      </trkpt>
      <trkpt lat="43.56327" lon="3.71812">
        <ele>59.6</ele>
        <time>2021-04-13T09:04:07Z</time>
      </trkpt>
      <trkpt lat="43.56328" lon="3.71816">
        <ele>59.6</ele>
        <time>2021-04-13T09:04:08Z</time>
      </trkpt>
      <trkpt lat="43.56328" lon="3.7182">
        <ele>59.8</ele>
        <time>2021-04-13T09:04:09Z</time>
      </trkpt>
      <trkpt lat="43.56329" lon="3.71824">
        <ele>59.6</ele>
        <time>2021-04-13T09:04:10Z</time>
      </trkpt>
      <trkpt lat="43.56329" lon="3.71828">
        <ele>59.4</ele>
        <time>2021-04-13T09:04:11Z</time>
      </trkpt>
      <trkpt lat="43.5633" lon="3.71832">
        <ele>59.4</ele>
        <time>2021-04-13T09:04:12Z</time>
      </trkpt>
      <trkpt lat="43.5633" lon="3.71836">
        <ele>59.4</ele>
        <time>2021-04-13T09:04:13Z</time>
      </trkpt>
      <trkpt lat="43.56331" lon="3.71841">
        <ele>59.2</ele>
        <time>2021-04-13T09:04:14Z</time>
      </trkpt>
      <trkpt lat="43.56332" lon="3.71846">
        <ele>59.2</ele>
        <time>2021-04-13T09:04:15Z</time>
      </trkpt>
      <trkpt lat="43.56333" lon="3.7185">
        <ele>59.4</ele>
        <time>2021-04-13T09:04:16Z</time>
      </trkpt>
      <trkpt lat="43.56333" lon="3.71855">
        <ele>59.2</ele>
        <time>2021-04-13T09:04:17Z</time>
      </trkpt>
      <trkpt lat="43.56333" lon="3.71859">
        <ele>59.4</ele>
        <time>2021-04-13T09:04:18Z</time>
      </trkpt>
      <trkpt lat="43.56333" lon="3.71864">
        <ele>59.2</ele>
        <time>2021-04-13T09:04:19Z</time>
      </trkpt>
      <trkpt lat="43.56333" lon="3.71868">
        <ele>59.4</ele>
        <time>2021-04-13T09:04:20Z</time>
      </trkpt>
      <trkpt lat="43.56333" lon="3.71872">
        <ele>59.2</ele>
        <time>2021-04-13T09:04:21Z</time>
      </trkpt>
      <trkpt lat="43.56334" lon="3.71877">
        <ele>59.2</ele>
        <time>2021-04-13T09:04:22Z</time>
      </trkpt>
      <trkpt lat="43.56334" lon="3.71881">
        <ele>59.2</ele>
        <time>2021-04-13T09:04:23Z</time>
      </trkpt>
      <trkpt lat="43.56333" lon="3.71886">
        <ele>59.2</ele>
        <time>2021-04-13T09:04:24Z</time>
      </trkpt>
      <trkpt lat="43.56333" lon="3.7189">
        <ele>59.2</ele>
        <time>2021-04-13T09:04:25Z</time>
      </trkpt>
      <trkpt lat="43.56332" lon="3.71894">
        <ele>59.2</ele>
        <time>2021-04-13T09:04:26Z</time>
      </trkpt>
      <trkpt lat="43.56332" lon="3.71898">
        <ele>59.2</ele>
        <time>2021-04-13T09:04:27Z</time>
      </trkpt>
      <trkpt lat="43.56333" lon="3.71902">
        <ele>59</ele>
        <time>2021-04-13T09:04:28Z</time>
      </trkpt>
      <trkpt lat="43.56333" lon="3.71906">
        <ele>59</ele>
        <time>2021-04-13T09:04:29Z</time>
      </trkpt>
      <trkpt lat="43.56334" lon="3.7191">
        <ele>58.8</ele>
        <time>2021-04-13T09:04:30Z</time>
      </trkpt>
      <trkpt lat="43.56333" lon="3.71914">
        <ele>58.8</ele>
        <time>2021-04-13T09:04:31Z</time>
      </trkpt>
      <trkpt lat="43.56333" lon="3.71918">
        <ele>58.6</ele>
        <time>2021-04-13T09:04:32Z</time>
      </trkpt>
      <trkpt lat="43.56334" lon="3.71922">
        <ele>58.6</ele>
        <time>2021-04-13T09:04:33Z</time>
      </trkpt>
      <trkpt lat="43.56334" lon="3.71927">
        <ele>58.6</ele>
        <time>2021-04-13T09:04:34Z</time>
      </trkpt>
      <trkpt lat="43.56334" lon="3.71931">
        <ele>58.6</ele>
        <time>2021-04-13T09:04:35Z</time>
      </trkpt>
      <trkpt lat="43.56334" lon="3.71935">
        <ele>58.6</ele>
        <time>2021-04-13T09:04:36Z</time>
      </trkpt>
      <trkpt lat="43.56334" lon="3.71938">
        <ele>58.6</ele>
        <time>2021-04-13T09:04:37Z</time>
      </trkpt>
      <trkpt lat="43.56334" lon="3.71942">
        <ele>58.6</ele>
        <time>2021-04-13T09:04:38Z</time>
      </trkpt>
      <trkpt lat="43.56334" lon="3.71946">
        <ele>58.6</ele>
        <time>2021-04-13T09:04:39Z</time>
      </trkpt>
      <trkpt lat="43.56334" lon="3.7195">
        <ele>58.6</ele>
        <time>2021-04-13T09:04:40Z</time>
      </trkpt>
      <trkpt lat="43.56333" lon="3.71954">
        <ele>58.6</ele>
        <time>2021-04-13T09:04:41Z</time>
      </trkpt>
      <trkpt lat="43.56332" lon="3.71958">
        <ele>58.6</ele>
        <time>2021-04-13T09:04:42Z</time>
      </trkpt>
      <trkpt lat="43.56331" lon="3.71962">
        <ele>58.6</ele>
        <time>2021-04-13T09:04:43Z</time>
      </trkpt>
      <trkpt lat="43.56331" lon="3.71965">
        <ele>58.6</ele>
        <time>2021-04-13T09:04:44Z</time>
      </trkpt>
      <trkpt lat="43.56331" lon="3.71969">
        <ele>58.6</ele>
        <time>2021-04-13T09:04:45Z</time>
      </trkpt>
      <trkpt lat="43.56331" lon="3.71973">
        <ele>58.6</ele>
        <time>2021-04-13T09:04:46Z</time>
      </trkpt>
      <trkpt lat="43.56332" lon="3.71977">
        <ele>58.4</ele>
        <time>2021-04-13T09:04:47Z</time>
      </trkpt>
      <trkpt lat="43.56333" lon="3.71981">
        <ele>58.4</ele>
        <time>2021-04-13T09:04:48Z</time>
      </trkpt>
      <trkpt lat="43.56334" lon="3.71984">
        <ele>58.4</ele>
        <time>2021-04-13T09:04:49Z</time>
      </trkpt>
      <trkpt lat="43.56334" lon="3.71988">
        <ele>58.4</ele>
        <time>2021-04-13T09:04:50Z</time>
      </trkpt>
      <trkpt lat="43.56333" lon="3.71992">
        <ele>58.4</ele>
        <time>2021-04-13T09:04:51Z</time>
      </trkpt>
      <trkpt lat="43.56333" lon="3.71996">
        <ele>58.4</ele>
        <time>2021-04-13T09:04:52Z</time>
      </trkpt>
      <trkpt lat="43.56333" lon="3.71999">
        <ele>58.4</ele>
        <time>2021-04-13T09:04:53Z</time>
      </trkpt>
      <trkpt lat="43.56332" lon="3.72003">
        <ele>58.2</ele>
        <time>2021-04-13T09:04:54Z</time>
      </trkpt>
      <trkpt lat="43.56332" lon="3.72006">
        <ele>58.2</ele>
        <time>2021-04-13T09:04:55Z</time>
      </trkpt>
      <trkpt lat="43.56331" lon="3.7201">
        <ele>58.2</ele>
        <time>2021-04-13T09:04:56Z</time>
      </trkpt>
      <trkpt lat="43.56331" lon="3.72013">
        <ele>58.2</ele>
        <time>2021-04-13T09:04:57Z</time>
      </trkpt>
      <trkpt lat="43.56331" lon="3.72017">
        <ele>58.2</ele>
        <time>2021-04-13T09:04:58Z</time>
      </trkpt>
      <trkpt lat="43.56331" lon="3.7202">
        <ele>58</ele>
        <time>2021-04-13T09:04:59Z</time>
      </trkpt>
      <trkpt lat="43.56331" lon="3.72023">
        <ele>58</ele>
        <time>2021-04-13T09:05:00Z</time>
      </trkpt>
      <trkpt lat="43.56331" lon="3.72027">
        <ele>58</ele>
        <time>2021-04-13T09:05:01Z</time>
      </trkpt>
      <trkpt lat="43.56331" lon="3.72031">
        <ele>58</ele>
        <time>2021-04-13T09:05:02Z</time>
      </trkpt>
      <trkpt lat="43.56331" lon="3.72034">
        <ele>57.8</ele>
        <time>2021-04-13T09:05:03Z</time>
      </trkpt>
      <trkpt lat="43.56331" lon="3.72038">
        <ele>57.8</ele>
        <time>2021-04-13T09:05:04Z</time>
      </trkpt>
      <trkpt lat="43.56331" lon="3.72043">
        <ele>57.8</ele>
        <time>2021-04-13T09:05:05Z</time>
      </trkpt>
      <trkpt lat="43.56331" lon="3.72047">
        <ele>57.8</ele>
        <time>2021-04-13T09:05:06Z</time>
      </trkpt>
      <trkpt lat="43.56331" lon="3.72051">
        <ele>57.8</ele>
        <time>2021-04-13T09:05:07Z</time>
      </trkpt>
      <trkpt lat="43.56331" lon="3.72056">
        <ele>57.6</ele>
        <time>2021-04-13T09:05:08Z</time>
      </trkpt>
      <trkpt lat="43.56331" lon="3.7206">
        <ele>57.6</ele>
        <time>2021-04-13T09:05:09Z</time>
      </trkpt>
      <trkpt lat="43.56331" lon="3.72064">
        <ele>57.4</ele>
        <time>2021-04-13T09:05:10Z</time>
      </trkpt>
      <trkpt lat="43.56331" lon="3.72069">
        <ele>57.4</ele>
        <time>2021-04-13T09:05:11Z</time>
      </trkpt>
      <trkpt lat="43.56332" lon="3.72073">
        <ele>57.4</ele>
        <time>2021-04-13T09:05:12Z</time>
      </trkpt>
      <trkpt lat="43.56333" lon="3.72076">
        <ele>57.4</ele>
        <time>2021-04-13T09:05:13Z</time>
      </trkpt>
      <trkpt lat="43.56334" lon="3.72079">
        <ele>57.6</ele>
        <time>2021-04-13T09:05:14Z</time>
      </trkpt>
      <trkpt lat="43.56334" lon="3.72083">
        <ele>57.6</ele>
        <time>2021-04-13T09:05:15Z</time>
      </trkpt>
      <trkpt lat="43.56334" lon="3.72086">
        <ele>57.6</ele>
        <time>2021-04-13T09:05:16Z</time>
      </trkpt>
      <trkpt lat="43.56333" lon="3.7209">
        <ele>57.4</ele>
        <time>2021-04-13T09:05:17Z</time>
      </trkpt>
      <trkpt lat="43.56332" lon="3.72093">
        <ele>57.2</ele>
        <time>2021-04-13T09:05:18Z</time>
      </trkpt>
      <trkpt lat="43.56332" lon="3.72097">
        <ele>57.2</ele>
        <time>2021-04-13T09:05:19Z</time>
      </trkpt>
      <trkpt lat="43.56332" lon="3.72101">
        <ele>57</ele>
        <time>2021-04-13T09:05:20Z</time>
      </trkpt>
      <trkpt lat="43.56332" lon="3.72105">
        <ele>57</ele>
        <time>2021-04-13T09:05:21Z</time>
      </trkpt>
      <trkpt lat="43.56332" lon="3.72108">
        <ele>57</ele>
        <time>2021-04-13T09:05:22Z</time>
      </trkpt>
      <trkpt lat="43.56331" lon="3.7211">
        <ele>57</ele>
        <time>2021-04-13T09:05:23Z</time>
      </trkpt>
      <trkpt lat="43.56331" lon="3.7211">
        <ele>56.8</ele>
        <time>2021-04-13T09:05:24Z</time>
      </trkpt>
      <trkpt lat="43.56331" lon="3.7211">
        <ele>56.8</ele>
        <time>2021-04-13T09:05:25Z</time>
      </trkpt>
      <trkpt lat="43.56331" lon="3.7211">
        <ele>56.8</ele>
        <time>2021-04-13T09:05:26Z</time>
      </trkpt>
      <trkpt lat="43.56331" lon="3.72109">
        <ele>56.8</ele>
        <time>2021-04-13T09:05:27Z</time>
      </trkpt>
      <trkpt lat="43.56331" lon="3.72109">
        <ele>56.8</ele>
        <time>2021-04-13T09:05:28Z</time>
      </trkpt>
      <trkpt lat="43.56331" lon="3.72109">
        <ele>56.8</ele>
        <time>2021-04-13T09:05:29Z</time>
      </trkpt>
      <trkpt lat="43.56332" lon="3.72109">
        <ele>56.8</ele>
        <time>2021-04-13T09:05:30Z</time>
      </trkpt>
      <trkpt lat="43.56333" lon="3.72133">
        <ele>56.8</ele>
        <time>2021-04-13T09:06:13Z</time>
      </trkpt>
      <trkpt lat="43.56333" lon="3.72136">
        <ele>56.8</ele>
        <time>2021-04-13T09:06:14Z</time>
      </trkpt>
      <trkpt lat="43.56332" lon="3.7214">
        <ele>56.6</ele>
        <time>2021-04-13T09:06:15Z</time>
      </trkpt>
      <trkpt lat="43.56333" lon="3.72143">
        <ele>56.6</ele>
        <time>2021-04-13T09:06:16Z</time>
      </trkpt>
      <trkpt lat="43.56334" lon="3.72147">
        <ele>56.6</ele>
        <time>2021-04-13T09:06:17Z</time>
      </trkpt>
      <trkpt lat="43.56335" lon="3.7215">
        <ele>56.4</ele>
        <time>2021-04-13T09:06:18Z</time>
      </trkpt>
      <trkpt lat="43.56335" lon="3.72154">
        <ele>56.6</ele>
        <time>2021-04-13T09:06:19Z</time>
      </trkpt>
      <trkpt lat="43.56335" lon="3.72157">
        <ele>56.4</ele>
        <time>2021-04-13T09:06:20Z</time>
      </trkpt>
      <trkpt lat="43.56335" lon="3.72161">
        <ele>56.4</ele>
        <time>2021-04-13T09:06:21Z</time>
      </trkpt>
      <trkpt lat="43.56335" lon="3.72165">
        <ele>56.4</ele>
        <time>2021-04-13T09:06:22Z</time>
      </trkpt>
      <trkpt lat="43.56335" lon="3.72168">
        <ele>56.4</ele>
        <time>2021-04-13T09:06:23Z</time>
      </trkpt>
      <trkpt lat="43.56336" lon="3.72172">
        <ele>56.2</ele>
        <time>2021-04-13T09:06:24Z</time>
      </trkpt>
      <trkpt lat="43.56336" lon="3.72175">
        <ele>56.4</ele>
        <time>2021-04-13T09:06:25Z</time>
      </trkpt>
      <trkpt lat="43.56335" lon="3.72179">
        <ele>56.4</ele>
        <time>2021-04-13T09:06:26Z</time>
      </trkpt>
      <trkpt lat="43.56334" lon="3.72182">
        <ele>56.4</ele>
        <time>2021-04-13T09:06:27Z</time>
      </trkpt>
      <trkpt lat="43.56334" lon="3.72185">
        <ele>56.2</ele>
        <time>2021-04-13T09:06:28Z</time>
      </trkpt>
      <trkpt lat="43.56335" lon="3.72188">
        <ele>56.2</ele>
        <time>2021-04-13T09:06:29Z</time>
      </trkpt>
      <trkpt lat="43.56335" lon="3.72191">
        <ele>56.2</ele>
        <time>2021-04-13T09:06:30Z</time>
      </trkpt>
      <trkpt lat="43.56336" lon="3.72195">
        <ele>56.2</ele>
        <time>2021-04-13T09:06:31Z</time>
      </trkpt>
      <trkpt lat="43.56336" lon="3.72198">
        <ele>56.2</ele>
        <time>2021-04-13T09:06:32Z</time>
      </trkpt>
      <trkpt lat="43.56336" lon="3.722">
        <ele>56.2</ele>
        <time>2021-04-13T09:06:33Z</time>
      </trkpt>
      <trkpt lat="43.56336" lon="3.72204">
        <ele>56</ele>
        <time>2021-04-13T09:06:34Z</time>
      </trkpt>
      <trkpt lat="43.56337" lon="3.72208">
        <ele>56</ele>
        <time>2021-04-13T09:06:35Z</time>
      </trkpt>
      <trkpt lat="43.56337" lon="3.72212">
        <ele>56</ele>
        <time>2021-04-13T09:06:36Z</time>
      </trkpt>
      <trkpt lat="43.56338" lon="3.72216">
        <ele>56</ele>
        <time>2021-04-13T09:06:37Z</time>
      </trkpt>
      <trkpt lat="43.56338" lon="3.7222">
        <ele>56.2</ele>
        <time>2021-04-13T09:06:38Z</time>
      </trkpt>
      <trkpt lat="43.56339" lon="3.72223">
        <ele>56</ele>
        <time>2021-04-13T09:06:39Z</time>
      </trkpt>
      <trkpt lat="43.56339" lon="3.72226">
        <ele>56.2</ele>
        <time>2021-04-13T09:06:40Z</time>
      </trkpt>
      <trkpt lat="43.5634" lon="3.72229">
        <ele>56.2</ele>
        <time>2021-04-13T09:06:41Z</time>
      </trkpt>
      <trkpt lat="43.5634" lon="3.72232">
        <ele>56.2</ele>
        <time>2021-04-13T09:06:42Z</time>
      </trkpt>
      <trkpt lat="43.56341" lon="3.72235">
        <ele>56</ele>
        <time>2021-04-13T09:06:43Z</time>
      </trkpt>
      <trkpt lat="43.56342" lon="3.72238">
        <ele>56</ele>
        <time>2021-04-13T09:06:44Z</time>
      </trkpt>
      <trkpt lat="43.56343" lon="3.72242">
        <ele>56</ele>
        <time>2021-04-13T09:06:45Z</time>
      </trkpt>
      <trkpt lat="43.56344" lon="3.72246">
        <ele>56.2</ele>
        <time>2021-04-13T09:06:46Z</time>
      </trkpt>
      <trkpt lat="43.56345" lon="3.72249">
        <ele>56.2</ele>
        <time>2021-04-13T09:06:47Z</time>
      </trkpt>
      <trkpt lat="43.56345" lon="3.72252">
        <ele>56.2</ele>
        <time>2021-04-13T09:06:48Z</time>
      </trkpt>
      <trkpt lat="43.56347" lon="3.72255">
        <ele>56.2</ele>
        <time>2021-04-13T09:06:49Z</time>
      </trkpt>
      <trkpt lat="43.56348" lon="3.72259">
        <ele>56</ele>
        <time>2021-04-13T09:06:50Z</time>
      </trkpt>
      <trkpt lat="43.5635" lon="3.72263">
        <ele>56.2</ele>
        <time>2021-04-13T09:06:51Z</time>
      </trkpt>
      <trkpt lat="43.56351" lon="3.72266">
        <ele>56</ele>
        <time>2021-04-13T09:06:52Z</time>
      </trkpt>
      <trkpt lat="43.56352" lon="3.7227">
        <ele>56</ele>
        <time>2021-04-13T09:06:53Z</time>
      </trkpt>
      <trkpt lat="43.56353" lon="3.72273">
        <ele>56.2</ele>
        <time>2021-04-13T09:06:54Z</time>
      </trkpt>
      <trkpt lat="43.56354" lon="3.72276">
        <ele>56.2</ele>
        <time>2021-04-13T09:06:55Z</time>
      </trkpt>
      <trkpt lat="43.56354" lon="3.7228">
        <ele>56.2</ele>
        <time>2021-04-13T09:06:56Z</time>
      </trkpt>
      <trkpt lat="43.56355" lon="3.72283">
        <ele>56.2</ele>
        <time>2021-04-13T09:06:57Z</time>
      </trkpt>
      <trkpt lat="43.56356" lon="3.72286">
        <ele>56.2</ele>
        <time>2021-04-13T09:06:58Z</time>
      </trkpt>
      <trkpt lat="43.56357" lon="3.72289">
        <ele>56.2</ele>
        <time>2021-04-13T09:06:59Z</time>
      </trkpt>
      <trkpt lat="43.56359" lon="3.72293">
        <ele>56.4</ele>
        <time>2021-04-13T09:07:00Z</time>
      </trkpt>
      <trkpt lat="43.5636" lon="3.72297">
        <ele>56.4</ele>
        <time>2021-04-13T09:07:01Z</time>
      </trkpt>
      <trkpt lat="43.56362" lon="3.72301">
        <ele>56.4</ele>
        <time>2021-04-13T09:07:02Z</time>
      </trkpt>
      <trkpt lat="43.56364" lon="3.72305">
        <ele>56.2</ele>
        <time>2021-04-13T09:07:03Z</time>
      </trkpt>
      <trkpt lat="43.56366" lon="3.72309">
        <ele>56.2</ele>
        <time>2021-04-13T09:07:04Z</time>
      </trkpt>
      <trkpt lat="43.56367" lon="3.72313">
        <ele>56.4</ele>
        <time>2021-04-13T09:07:05Z</time>
      </trkpt>
      <trkpt lat="43.56369" lon="3.72317">
        <ele>56.4</ele>
        <time>2021-04-13T09:07:06Z</time>
      </trkpt>
      <trkpt lat="43.5637" lon="3.72322">
        <ele>56.4</ele>
        <time>2021-04-13T09:07:07Z</time>
      </trkpt>
      <trkpt lat="43.56372" lon="3.72326">
        <ele>56.6</ele>
        <time>2021-04-13T09:07:08Z</time>
      </trkpt>
      <trkpt lat="43.56374" lon="3.7233">
        <ele>56.6</ele>
        <time>2021-04-13T09:07:09Z</time>
      </trkpt>
      <trkpt lat="43.56376" lon="3.72334">
        <ele>56.4</ele>
        <time>2021-04-13T09:07:10Z</time>
      </trkpt>
      <trkpt lat="43.56377" lon="3.72338">
        <ele>56.6</ele>
        <time>2021-04-13T09:07:11Z</time>
      </trkpt>
      <trkpt lat="43.56379" lon="3.72342">
        <ele>56.6</ele>
        <time>2021-04-13T09:07:12Z</time>
      </trkpt>
      <trkpt lat="43.5638" lon="3.72346">
        <ele>56.6</ele>
        <time>2021-04-13T09:07:13Z</time>
      </trkpt>
      <trkpt lat="43.56382" lon="3.7235">
        <ele>56.6</ele>
        <time>2021-04-13T09:07:14Z</time>
      </trkpt>
      <trkpt lat="43.56383" lon="3.72355">
        <ele>56.4</ele>
        <time>2021-04-13T09:07:15Z</time>
      </trkpt>
      <trkpt lat="43.56385" lon="3.72359">
        <ele>56.6</ele>
        <time>2021-04-13T09:07:16Z</time>
      </trkpt>
      <trkpt lat="43.56387" lon="3.72363">
        <ele>56.6</ele>
        <time>2021-04-13T09:07:17Z</time>
      </trkpt>
      <trkpt lat="43.56389" lon="3.72367">
        <ele>56.6</ele>
        <time>2021-04-13T09:07:18Z</time>
      </trkpt>
      <trkpt lat="43.56392" lon="3.72371">
        <ele>56.6</ele>
        <time>2021-04-13T09:07:19Z</time>
      </trkpt>
      <trkpt lat="43.56394" lon="3.72374">
        <ele>56.6</ele>
        <time>2021-04-13T09:07:20Z</time>
      </trkpt>
      <trkpt lat="43.56397" lon="3.72377">
        <ele>56.6</ele>
        <time>2021-04-13T09:07:21Z</time>
      </trkpt>
      <trkpt lat="43.564" lon="3.72381">
        <ele>57</ele>
        <time>2021-04-13T09:07:22Z</time>
      </trkpt>
      <trkpt lat="43.56403" lon="3.72384">
        <ele>57</ele>
        <time>2021-04-13T09:07:23Z</time>
      </trkpt>
      <trkpt lat="43.56406" lon="3.72388">
        <ele>57.2</ele>
        <time>2021-04-13T09:07:24Z</time>
      </trkpt>
      <trkpt lat="43.56408" lon="3.72392">
        <ele>57.2</ele>
        <time>2021-04-13T09:07:25Z</time>
      </trkpt>
      <trkpt lat="43.56411" lon="3.72396">
        <ele>57.2</ele>
        <time>2021-04-13T09:07:26Z</time>
      </trkpt>
      <trkpt lat="43.56413" lon="3.724">
        <ele>57.2</ele>
        <time>2021-04-13T09:07:27Z</time>
      </trkpt>
      <trkpt lat="43.56416" lon="3.72404">
        <ele>57.2</ele>
        <time>2021-04-13T09:07:28Z</time>
      </trkpt>
      <trkpt lat="43.56419" lon="3.72407">
        <ele>57.2</ele>
        <time>2021-04-13T09:07:29Z</time>
      </trkpt>
      <trkpt lat="43.56422" lon="3.72411">
        <ele>57</ele>
        <time>2021-04-13T09:07:30Z</time>
      </trkpt>
      <trkpt lat="43.56425" lon="3.72415">
        <ele>57</ele>
        <time>2021-04-13T09:07:31Z</time>
      </trkpt>
      <trkpt lat="43.56428" lon="3.72419">
        <ele>57.2</ele>
        <time>2021-04-13T09:07:32Z</time>
      </trkpt>
      <trkpt lat="43.56431" lon="3.72423">
        <ele>57.2</ele>
        <time>2021-04-13T09:07:33Z</time>
      </trkpt>
      <trkpt lat="43.56434" lon="3.72426">
        <ele>57.2</ele>
        <time>2021-04-13T09:07:34Z</time>
      </trkpt>
      <trkpt lat="43.56437" lon="3.7243">
        <ele>57.2</ele>
        <time>2021-04-13T09:07:35Z</time>
      </trkpt>
      <trkpt lat="43.5644" lon="3.72433">
        <ele>57.2</ele>
        <time>2021-04-13T09:07:36Z</time>
      </trkpt>
      <trkpt lat="43.56444" lon="3.72436">
        <ele>57.2</ele>
        <time>2021-04-13T09:07:37Z</time>
      </trkpt>
      <trkpt lat="43.56447" lon="3.7244">
        <ele>57.2</ele>
        <time>2021-04-13T09:07:38Z</time>
      </trkpt>
      <trkpt lat="43.5645" lon="3.72443">
        <ele>57.2</ele>
        <time>2021-04-13T09:07:39Z</time>
      </trkpt>
      <trkpt lat="43.56453" lon="3.72446">
        <ele>57.2</ele>
        <time>2021-04-13T09:07:40Z</time>
      </trkpt>
      <trkpt lat="43.56456" lon="3.72449">
        <ele>57.2</ele>
        <time>2021-04-13T09:07:41Z</time>
      </trkpt>
      <trkpt lat="43.56459" lon="3.72452">
        <ele>57.2</ele>
        <time>2021-04-13T09:07:42Z</time>
      </trkpt>
      <trkpt lat="43.56462" lon="3.72455">
        <ele>57.2</ele>
        <time>2021-04-13T09:07:43Z</time>
      </trkpt>
      <trkpt lat="43.56466" lon="3.72458">
        <ele>57.2</ele>
        <time>2021-04-13T09:07:44Z</time>
      </trkpt>
      <trkpt lat="43.56469" lon="3.72462">
        <ele>57.2</ele>
        <time>2021-04-13T09:07:45Z</time>
      </trkpt>
      <trkpt lat="43.56472" lon="3.72465">
        <ele>57.2</ele>
        <time>2021-04-13T09:07:46Z</time>
      </trkpt>
      <trkpt lat="43.56476" lon="3.72468">
        <ele>57.2</ele>
        <time>2021-04-13T09:07:47Z</time>
      </trkpt>
      <trkpt lat="43.56479" lon="3.72471">
        <ele>57.4</ele>
        <time>2021-04-13T09:07:48Z</time>
      </trkpt>
      <trkpt lat="43.56482" lon="3.72474">
        <ele>57.4</ele>
        <time>2021-04-13T09:07:49Z</time>
      </trkpt>
      <trkpt lat="43.56485" lon="3.72478">
        <ele>57.4</ele>
        <time>2021-04-13T09:07:50Z</time>
      </trkpt>
      <trkpt lat="43.56489" lon="3.72481">
        <ele>57.4</ele>
        <time>2021-04-13T09:07:51Z</time>
      </trkpt>
      <trkpt lat="43.56492" lon="3.72484">
        <ele>57.6</ele>
        <time>2021-04-13T09:07:52Z</time>
      </trkpt>
      <trkpt lat="43.56495" lon="3.72487">
        <ele>57.6</ele>
        <time>2021-04-13T09:07:53Z</time>
      </trkpt>
      <trkpt lat="43.56499" lon="3.7249">
        <ele>57.6</ele>
        <time>2021-04-13T09:07:54Z</time>
      </trkpt>
      <trkpt lat="43.56502" lon="3.72493">
        <ele>57.4</ele>
        <time>2021-04-13T09:07:55Z</time>
      </trkpt>
      <trkpt lat="43.56506" lon="3.72496">
        <ele>57.4</ele>
        <time>2021-04-13T09:07:56Z</time>
      </trkpt>
      <trkpt lat="43.56509" lon="3.72499">
        <ele>57.6</ele>
        <time>2021-04-13T09:07:57Z</time>
      </trkpt>
      <trkpt lat="43.56512" lon="3.72501">
        <ele>57.6</ele>
        <time>2021-04-13T09:07:58Z</time>
      </trkpt>
      <trkpt lat="43.56516" lon="3.72504">
        <ele>57.6</ele>
        <time>2021-04-13T09:07:59Z</time>
      </trkpt>
      <trkpt lat="43.56519" lon="3.72507">
        <ele>57.6</ele>
        <time>2021-04-13T09:08:00Z</time>
      </trkpt>
      <trkpt lat="43.56522" lon="3.7251">
        <ele>57.6</ele>
        <time>2021-04-13T09:08:01Z</time>
      </trkpt>
      <trkpt lat="43.56525" lon="3.72513">
        <ele>57.8</ele>
        <time>2021-04-13T09:08:02Z</time>
      </trkpt>
      <trkpt lat="43.56528" lon="3.72516">
        <ele>57.8</ele>
        <time>2021-04-13T09:08:03Z</time>
      </trkpt>
      <trkpt lat="43.56531" lon="3.72519">
        <ele>57.8</ele>
        <time>2021-04-13T09:08:04Z</time>
      </trkpt>
      <trkpt lat="43.56534" lon="3.72522">
        <ele>57.8</ele>
        <time>2021-04-13T09:08:05Z</time>
      </trkpt>
      <trkpt lat="43.56537" lon="3.72525">
        <ele>57.8</ele>
        <time>2021-04-13T09:08:06Z</time>
      </trkpt>
      <trkpt lat="43.56539" lon="3.72529">
        <ele>57.6</ele>
        <time>2021-04-13T09:08:07Z</time>
      </trkpt>
      <trkpt lat="43.56542" lon="3.72532">
        <ele>58</ele>
        <time>2021-04-13T09:08:08Z</time>
      </trkpt>
      <trkpt lat="43.56545" lon="3.72536">
        <ele>58</ele>
        <time>2021-04-13T09:08:09Z</time>
      </trkpt>
      <trkpt lat="43.56548" lon="3.7254">
        <ele>57.8</ele>
        <time>2021-04-13T09:08:10Z</time>
      </trkpt>
      <trkpt lat="43.5655" lon="3.72543">
        <ele>57.8</ele>
        <time>2021-04-13T09:08:11Z</time>
      </trkpt>
      <trkpt lat="43.56554" lon="3.72546">
        <ele>57.8</ele>
        <time>2021-04-13T09:08:12Z</time>
      </trkpt>
      <trkpt lat="43.56557" lon="3.72549">
        <ele>58</ele>
        <time>2021-04-13T09:08:13Z</time>
      </trkpt>
      <trkpt lat="43.56559" lon="3.72553">
        <ele>58</ele>
        <time>2021-04-13T09:08:14Z</time>
      </trkpt>
      <trkpt lat="43.56561" lon="3.72557">
        <ele>58.4</ele>
        <time>2021-04-13T09:08:15Z</time>
      </trkpt>
      <trkpt lat="43.56563" lon="3.7256">
        <ele>58.6</ele>
        <time>2021-04-13T09:08:16Z</time>
      </trkpt>
      <trkpt lat="43.56565" lon="3.72563">
        <ele>59</ele>
        <time>2021-04-13T09:08:17Z</time>
      </trkpt>
      <trkpt lat="43.56567" lon="3.72566">
        <ele>59</ele>
        <time>2021-04-13T09:08:18Z</time>
      </trkpt>
      <trkpt lat="43.5657" lon="3.72568">
        <ele>59</ele>
        <time>2021-04-13T09:08:19Z</time>
      </trkpt>
      <trkpt lat="43.56572" lon="3.7257">
        <ele>59</ele>
        <time>2021-04-13T09:08:20Z</time>
      </trkpt>
      <trkpt lat="43.56574" lon="3.72571">
        <ele>59.2</ele>
        <time>2021-04-13T09:08:21Z</time>
      </trkpt>
      <trkpt lat="43.56576" lon="3.72573">
        <ele>59.2</ele>
        <time>2021-04-13T09:08:22Z</time>
      </trkpt>
      <trkpt lat="43.56578" lon="3.72575">
        <ele>59.2</ele>
        <time>2021-04-13T09:08:23Z</time>
      </trkpt>
      <trkpt lat="43.5658" lon="3.72577">
        <ele>59.4</ele>
        <time>2021-04-13T09:08:24Z</time>
      </trkpt>
      <trkpt lat="43.56582" lon="3.72578">
        <ele>59.6</ele>
        <time>2021-04-13T09:08:25Z</time>
      </trkpt>
      <trkpt lat="43.56584" lon="3.72579">
        <ele>59.8</ele>
        <time>2021-04-13T09:08:26Z</time>
      </trkpt>
      <trkpt lat="43.56585" lon="3.72581">
        <ele>59.6</ele>
        <time>2021-04-13T09:08:27Z</time>
      </trkpt>
      <trkpt lat="43.56587" lon="3.72583">
        <ele>59.6</ele>
        <time>2021-04-13T09:08:28Z</time>
      </trkpt>
      <trkpt lat="43.56588" lon="3.72583">
        <ele>59.8</ele>
        <time>2021-04-13T09:08:29Z</time>
      </trkpt>
      <trkpt lat="43.56588" lon="3.72583">
        <ele>59.8</ele>
        <time>2021-04-13T09:08:30Z</time>
      </trkpt>
      <trkpt lat="43.56588" lon="3.72584">
        <ele>59.8</ele>
        <time>2021-04-13T09:08:31Z</time>
      </trkpt>
      <trkpt lat="43.56589" lon="3.72585">
        <ele>59.6</ele>
        <time>2021-04-13T09:08:32Z</time>
      </trkpt>
      <trkpt lat="43.56589" lon="3.72587">
        <ele>59.8</ele>
        <time>2021-04-13T09:08:33Z</time>
      </trkpt>
      <trkpt lat="43.56591" lon="3.72589">
        <ele>59.8</ele>
        <time>2021-04-13T09:08:34Z</time>
      </trkpt>
      <trkpt lat="43.56593" lon="3.7259">
        <ele>59.8</ele>
        <time>2021-04-13T09:08:35Z</time>
      </trkpt>
      <trkpt lat="43.56596" lon="3.72591">
        <ele>59.8</ele>
        <time>2021-04-13T09:08:36Z</time>
      </trkpt>
      <trkpt lat="43.56598" lon="3.72593">
        <ele>59.8</ele>
        <time>2021-04-13T09:08:37Z</time>
      </trkpt>
      <trkpt lat="43.56601" lon="3.72595">
        <ele>59.6</ele>
        <time>2021-04-13T09:08:38Z</time>
      </trkpt>
      <trkpt lat="43.56605" lon="3.72597">
        <ele>59.6</ele>
        <time>2021-04-13T09:08:39Z</time>
      </trkpt>
      <trkpt lat="43.56608" lon="3.726">
        <ele>59.6</ele>
        <time>2021-04-13T09:08:40Z</time>
      </trkpt>
      <trkpt lat="43.56611" lon="3.72603">
        <ele>59.6</ele>
        <time>2021-04-13T09:08:41Z</time>
      </trkpt>
      <trkpt lat="43.56614" lon="3.72605">
        <ele>59.6</ele>
        <time>2021-04-13T09:08:42Z</time>
      </trkpt>
      <trkpt lat="43.56617" lon="3.72609">
        <ele>59.6</ele>
        <time>2021-04-13T09:08:43Z</time>
      </trkpt>
      <trkpt lat="43.56621" lon="3.72612">
        <ele>59.8</ele>
        <time>2021-04-13T09:08:44Z</time>
      </trkpt>
      <trkpt lat="43.56625" lon="3.72615">
        <ele>59.8</ele>
        <time>2021-04-13T09:08:45Z</time>
      </trkpt>
      <trkpt lat="43.56628" lon="3.72618">
        <ele>59.6</ele>
        <time>2021-04-13T09:08:46Z</time>
      </trkpt>
      <trkpt lat="43.56632" lon="3.72622">
        <ele>59.4</ele>
        <time>2021-04-13T09:08:47Z</time>
      </trkpt>
      <trkpt lat="43.56636" lon="3.72625">
        <ele>59.2</ele>
        <time>2021-04-13T09:08:48Z</time>
      </trkpt>
      <trkpt lat="43.56639" lon="3.72628">
        <ele>59.2</ele>
        <time>2021-04-13T09:08:49Z</time>
      </trkpt>
      <trkpt lat="43.56643" lon="3.72632">
        <ele>59</ele>
        <time>2021-04-13T09:08:50Z</time>
      </trkpt>
      <trkpt lat="43.56647" lon="3.72635">
        <ele>58.8</ele>
        <time>2021-04-13T09:08:51Z</time>
      </trkpt>
      <trkpt lat="43.5665" lon="3.72639">
        <ele>58.6</ele>
        <time>2021-04-13T09:08:52Z</time>
      </trkpt>
      <trkpt lat="43.56654" lon="3.72643">
        <ele>58.4</ele>
        <time>2021-04-13T09:08:53Z</time>
      </trkpt>
      <trkpt lat="43.56657" lon="3.72647">
        <ele>58.2</ele>
        <time>2021-04-13T09:08:54Z</time>
      </trkpt>
      <trkpt lat="43.56661" lon="3.72652">
        <ele>58.2</ele>
        <time>2021-04-13T09:08:55Z</time>
      </trkpt>
      <trkpt lat="43.56665" lon="3.72655">
        <ele>58.2</ele>
        <time>2021-04-13T09:08:56Z</time>
      </trkpt>
      <trkpt lat="43.56669" lon="3.72659">
        <ele>58.2</ele>
        <time>2021-04-13T09:08:57Z</time>
      </trkpt>
      <trkpt lat="43.56673" lon="3.72663">
        <ele>58</ele>
        <time>2021-04-13T09:08:58Z</time>
      </trkpt>
      <trkpt lat="43.56677" lon="3.72668">
        <ele>57.6</ele>
        <time>2021-04-13T09:08:59Z</time>
      </trkpt>
      <trkpt lat="43.5668" lon="3.72673">
        <ele>57.4</ele>
        <time>2021-04-13T09:09:00Z</time>
      </trkpt>
      <trkpt lat="43.56684" lon="3.72678">
        <ele>57.8</ele>
        <time>2021-04-13T09:09:01Z</time>
      </trkpt>
      <trkpt lat="43.56688" lon="3.72683">
        <ele>57.6</ele>
        <time>2021-04-13T09:09:02Z</time>
      </trkpt>
      <trkpt lat="43.56691" lon="3.72688">
        <ele>57.4</ele>
        <time>2021-04-13T09:09:03Z</time>
      </trkpt>
      <trkpt lat="43.56694" lon="3.72693">
        <ele>57.2</ele>
        <time>2021-04-13T09:09:04Z</time>
      </trkpt>
      <trkpt lat="43.56697" lon="3.72698">
        <ele>57</ele>
        <time>2021-04-13T09:09:05Z</time>
      </trkpt>
      <trkpt lat="43.567" lon="3.72704">
        <ele>56.8</ele>
        <time>2021-04-13T09:09:06Z</time>
      </trkpt>
      <trkpt lat="43.56702" lon="3.72709">
        <ele>56.6</ele>
        <time>2021-04-13T09:09:07Z</time>
      </trkpt>
      <trkpt lat="43.56704" lon="3.72714">
        <ele>56.8</ele>
        <time>2021-04-13T09:09:08Z</time>
      </trkpt>
      <trkpt lat="43.56706" lon="3.7272">
        <ele>56.6</ele>
        <time>2021-04-13T09:09:09Z</time>
      </trkpt>
      <trkpt lat="43.56709" lon="3.72725">
        <ele>56.8</ele>
        <time>2021-04-13T09:09:10Z</time>
      </trkpt>
      <trkpt lat="43.56711" lon="3.72731">
        <ele>56.6</ele>
        <time>2021-04-13T09:09:11Z</time>
      </trkpt>
      <trkpt lat="43.56713" lon="3.72735">
        <ele>56.4</ele>
        <time>2021-04-13T09:09:12Z</time>
      </trkpt>
      <trkpt lat="43.56715" lon="3.7274">
        <ele>56.2</ele>
        <time>2021-04-13T09:09:13Z</time>
      </trkpt>
      <trkpt lat="43.56718" lon="3.72743">
        <ele>56.4</ele>
        <time>2021-04-13T09:09:14Z</time>
      </trkpt>
      <trkpt lat="43.56721" lon="3.72745">
        <ele>56.6</ele>
        <time>2021-04-13T09:09:15Z</time>
      </trkpt>
      <trkpt lat="43.56724" lon="3.72745">
        <ele>56.6</ele>
        <time>2021-04-13T09:09:16Z</time>
      </trkpt>
      <trkpt lat="43.56727" lon="3.72746">
        <ele>56.8</ele>
        <time>2021-04-13T09:09:17Z</time>
      </trkpt>
      <trkpt lat="43.56729" lon="3.72746">
        <ele>57</ele>
        <time>2021-04-13T09:09:18Z</time>
      </trkpt>
      <trkpt lat="43.56732" lon="3.72747">
        <ele>57.2</ele>
        <time>2021-04-13T09:09:19Z</time>
      </trkpt>
      <trkpt lat="43.56734" lon="3.72748">
        <ele>57.2</ele>
        <time>2021-04-13T09:09:20Z</time>
      </trkpt>
      <trkpt lat="43.56737" lon="3.72749">
        <ele>57.4</ele>
        <time>2021-04-13T09:09:21Z</time>
      </trkpt>
      <trkpt lat="43.5674" lon="3.7275">
        <ele>57.4</ele>
        <time>2021-04-13T09:09:22Z</time>
      </trkpt>
      <trkpt lat="43.56743" lon="3.72749">
        <ele>57.2</ele>
        <time>2021-04-13T09:09:23Z</time>
      </trkpt>
      <trkpt lat="43.56745" lon="3.72748">
        <ele>57.4</ele>
        <time>2021-04-13T09:09:24Z</time>
      </trkpt>
      <trkpt lat="43.56747" lon="3.72748">
        <ele>57.2</ele>
        <time>2021-04-13T09:09:25Z</time>
      </trkpt>
      <trkpt lat="43.56748" lon="3.72749">
        <ele>57.4</ele>
        <time>2021-04-13T09:09:26Z</time>
      </trkpt>
      <trkpt lat="43.5675" lon="3.7275">
        <ele>57.4</ele>
        <time>2021-04-13T09:09:27Z</time>
      </trkpt>
      <trkpt lat="43.56751" lon="3.72752">
        <ele>57.2</ele>
        <time>2021-04-13T09:09:28Z</time>
      </trkpt>
      <trkpt lat="43.56753" lon="3.72753">
        <ele>57.4</ele>
        <time>2021-04-13T09:09:29Z</time>
      </trkpt>
      <trkpt lat="43.56755" lon="3.72755">
        <ele>57.4</ele>
        <time>2021-04-13T09:09:30Z</time>
      </trkpt>
      <trkpt lat="43.56756" lon="3.72757">
        <ele>57.4</ele>
        <time>2021-04-13T09:09:31Z</time>
      </trkpt>
      <trkpt lat="43.56758" lon="3.72759">
        <ele>57.4</ele>
        <time>2021-04-13T09:09:32Z</time>
      </trkpt>
      <trkpt lat="43.5676" lon="3.7276">
        <ele>57.4</ele>
        <time>2021-04-13T09:09:33Z</time>
      </trkpt>
      <trkpt lat="43.56762" lon="3.72763">
        <ele>57.4</ele>
        <time>2021-04-13T09:09:34Z</time>
      </trkpt>
      <trkpt lat="43.56763" lon="3.72765">
        <ele>57.6</ele>
        <time>2021-04-13T09:09:35Z</time>
      </trkpt>
      <trkpt lat="43.56765" lon="3.72768">
        <ele>57.8</ele>
        <time>2021-04-13T09:09:36Z</time>
      </trkpt>
      <trkpt lat="43.56767" lon="3.7277">
        <ele>57.8</ele>
        <time>2021-04-13T09:09:37Z</time>
      </trkpt>
      <trkpt lat="43.56769" lon="3.72773">
        <ele>57.8</ele>
        <time>2021-04-13T09:09:38Z</time>
      </trkpt>
      <trkpt lat="43.56771" lon="3.72775">
        <ele>57.8</ele>
        <time>2021-04-13T09:09:39Z</time>
      </trkpt>
      <trkpt lat="43.56773" lon="3.72778">
        <ele>57.8</ele>
        <time>2021-04-13T09:09:40Z</time>
      </trkpt>
      <trkpt lat="43.56775" lon="3.72781">
        <ele>58</ele>
        <time>2021-04-13T09:09:41Z</time>
      </trkpt>
      <trkpt lat="43.56777" lon="3.72783">
        <ele>58.2</ele>
        <time>2021-04-13T09:09:42Z</time>
      </trkpt>
      <trkpt lat="43.56779" lon="3.72786">
        <ele>58.2</ele>
        <time>2021-04-13T09:09:43Z</time>
      </trkpt>
      <trkpt lat="43.56781" lon="3.72788">
        <ele>58.4</ele>
        <time>2021-04-13T09:09:44Z</time>
      </trkpt>
      <trkpt lat="43.56783" lon="3.7279">
        <ele>58.6</ele>
        <time>2021-04-13T09:09:45Z</time>
      </trkpt>
      <trkpt lat="43.56785" lon="3.72792">
        <ele>58.6</ele>
        <time>2021-04-13T09:09:46Z</time>
      </trkpt>
      <trkpt lat="43.56787" lon="3.72794">
        <ele>58.8</ele>
        <time>2021-04-13T09:09:47Z</time>
      </trkpt>
      <trkpt lat="43.56789" lon="3.72797">
        <ele>58.8</ele>
        <time>2021-04-13T09:09:48Z</time>
      </trkpt>
      <trkpt lat="43.5679" lon="3.728">
        <ele>58.8</ele>
        <time>2021-04-13T09:09:49Z</time>
      </trkpt>
      <trkpt lat="43.56792" lon="3.72803">
        <ele>58.8</ele>
        <time>2021-04-13T09:09:50Z</time>
      </trkpt>
      <trkpt lat="43.56793" lon="3.72806">
        <ele>58.8</ele>
        <time>2021-04-13T09:09:51Z</time>
      </trkpt>
      <trkpt lat="43.56795" lon="3.72808">
        <ele>58.8</ele>
        <time>2021-04-13T09:09:52Z</time>
      </trkpt>
      <trkpt lat="43.56797" lon="3.7281">
        <ele>58.8</ele>
        <time>2021-04-13T09:09:53Z</time>
      </trkpt>
      <trkpt lat="43.56798" lon="3.72812">
        <ele>59</ele>
        <time>2021-04-13T09:09:54Z</time>
      </trkpt>
      <trkpt lat="43.56799" lon="3.72813">
        <ele>59</ele>
        <time>2021-04-13T09:09:55Z</time>
      </trkpt>
      <trkpt lat="43.568" lon="3.72815">
        <ele>59</ele>
        <time>2021-04-13T09:09:56Z</time>
      </trkpt>
      <trkpt lat="43.568" lon="3.72817">
        <ele>59</ele>
        <time>2021-04-13T09:09:57Z</time>
      </trkpt>
      <trkpt lat="43.56801" lon="3.72819">
        <ele>59</ele>
        <time>2021-04-13T09:09:58Z</time>
      </trkpt>
      <trkpt lat="43.56802" lon="3.72821">
        <ele>59.2</ele>
        <time>2021-04-13T09:09:59Z</time>
      </trkpt>
      <trkpt lat="43.56804" lon="3.72822">
        <ele>59.2</ele>
        <time>2021-04-13T09:10:00Z</time>
      </trkpt>
      <trkpt lat="43.56806" lon="3.72824">
        <ele>59.2</ele>
        <time>2021-04-13T09:10:01Z</time>
      </trkpt>
      <trkpt lat="43.56807" lon="3.72826">
        <ele>59.4</ele>
        <time>2021-04-13T09:10:02Z</time>
      </trkpt>
      <trkpt lat="43.56809" lon="3.72828">
        <ele>59.4</ele>
        <time>2021-04-13T09:10:03Z</time>
      </trkpt>
      <trkpt lat="43.56811" lon="3.7283">
        <ele>59.4</ele>
        <time>2021-04-13T09:10:04Z</time>
      </trkpt>
      <trkpt lat="43.56812" lon="3.72832">
        <ele>59.6</ele>
        <time>2021-04-13T09:10:05Z</time>
      </trkpt>
      <trkpt lat="43.56814" lon="3.72834">
        <ele>59.6</ele>
        <time>2021-04-13T09:10:06Z</time>
      </trkpt>
      <trkpt lat="43.56816" lon="3.72837">
        <ele>59.8</ele>
        <time>2021-04-13T09:10:07Z</time>
      </trkpt>
      <trkpt lat="43.56818" lon="3.72839">
        <ele>59.8</ele>
        <time>2021-04-13T09:10:08Z</time>
      </trkpt>
      <trkpt lat="43.56819" lon="3.72841">
        <ele>59.8</ele>
        <time>2021-04-13T09:10:09Z</time>
      </trkpt>
      <trkpt lat="43.56821" lon="3.72844">
        <ele>59.8</ele>
        <time>2021-04-13T09:10:10Z</time>
      </trkpt>
      <trkpt lat="43.56823" lon="3.72847">
        <ele>59.8</ele>
        <time>2021-04-13T09:10:11Z</time>
      </trkpt>
      <trkpt lat="43.56824" lon="3.7285">
        <ele>59.8</ele>
        <time>2021-04-13T09:10:12Z</time>
      </trkpt>
      <trkpt lat="43.56826" lon="3.72852">
        <ele>59.8</ele>
        <time>2021-04-13T09:10:13Z</time>
      </trkpt>
      <trkpt lat="43.56827" lon="3.72855">
        <ele>59.8</ele>
        <time>2021-04-13T09:10:14Z</time>
      </trkpt>
      <trkpt lat="43.56828" lon="3.72858">
        <ele>60</ele>
        <time>2021-04-13T09:10:15Z</time>
      </trkpt>
      <trkpt lat="43.5683" lon="3.72861">
        <ele>60.2</ele>
        <time>2021-04-13T09:10:16Z</time>
      </trkpt>
      <trkpt lat="43.56832" lon="3.72864">
        <ele>60.2</ele>
        <time>2021-04-13T09:10:17Z</time>
      </trkpt>
      <trkpt lat="43.56833" lon="3.72866">
        <ele>60.4</ele>
        <time>2021-04-13T09:10:18Z</time>
      </trkpt>
      <trkpt lat="43.56835" lon="3.72869">
        <ele>60.4</ele>
        <time>2021-04-13T09:10:19Z</time>
      </trkpt>
      <trkpt lat="43.56837" lon="3.72871">
        <ele>60.6</ele>
        <time>2021-04-13T09:10:20Z</time>
      </trkpt>
      <trkpt lat="43.56839" lon="3.72873">
        <ele>60.8</ele>
        <time>2021-04-13T09:10:21Z</time>
      </trkpt>
      <trkpt lat="43.56841" lon="3.72875">
        <ele>60.8</ele>
        <time>2021-04-13T09:10:22Z</time>
      </trkpt>
      <trkpt lat="43.56844" lon="3.72877">
        <ele>61</ele>
        <time>2021-04-13T09:10:23Z</time>
      </trkpt>
      <trkpt lat="43.56846" lon="3.72878">
        <ele>61.2</ele>
        <time>2021-04-13T09:10:24Z</time>
      </trkpt>
      <trkpt lat="43.56848" lon="3.72879">
        <ele>61.4</ele>
        <time>2021-04-13T09:10:25Z</time>
      </trkpt>
      <trkpt lat="43.56849" lon="3.7288">
        <ele>61.4</ele>
        <time>2021-04-13T09:10:26Z</time>
      </trkpt>
      <trkpt lat="43.56851" lon="3.72881">
        <ele>61.6</ele>
        <time>2021-04-13T09:10:27Z</time>
      </trkpt>
      <trkpt lat="43.56853" lon="3.72883">
        <ele>61.6</ele>
        <time>2021-04-13T09:10:28Z</time>
      </trkpt>
      <trkpt lat="43.56854" lon="3.72885">
        <ele>61.8</ele>
        <time>2021-04-13T09:10:29Z</time>
      </trkpt>
      <trkpt lat="43.56855" lon="3.72887">
        <ele>61.8</ele>
        <time>2021-04-13T09:10:30Z</time>
      </trkpt>
      <trkpt lat="43.56857" lon="3.7289">
        <ele>61.8</ele>
        <time>2021-04-13T09:10:31Z</time>
      </trkpt>
      <trkpt lat="43.56858" lon="3.72892">
        <ele>62</ele>
        <time>2021-04-13T09:10:32Z</time>
      </trkpt>
      <trkpt lat="43.5686" lon="3.72895">
        <ele>62.2</ele>
        <time>2021-04-13T09:10:33Z</time>
      </trkpt>
      <trkpt lat="43.56861" lon="3.72897">
        <ele>62.2</ele>
        <time>2021-04-13T09:10:34Z</time>
      </trkpt>
      <trkpt lat="43.56863" lon="3.729">
        <ele>62.2</ele>
        <time>2021-04-13T09:10:35Z</time>
      </trkpt>
      <trkpt lat="43.56864" lon="3.72902">
        <ele>61.8</ele>
        <time>2021-04-13T09:10:36Z</time>
      </trkpt>
      <trkpt lat="43.56866" lon="3.72905">
        <ele>61.6</ele>
        <time>2021-04-13T09:10:37Z</time>
      </trkpt>
      <trkpt lat="43.56867" lon="3.72908">
        <ele>61.6</ele>
        <time>2021-04-13T09:10:38Z</time>
      </trkpt>
      <trkpt lat="43.56869" lon="3.72911">
        <ele>61.6</ele>
        <time>2021-04-13T09:10:39Z</time>
      </trkpt>
      <trkpt lat="43.5687" lon="3.72913">
        <ele>61.8</ele>
        <time>2021-04-13T09:10:40Z</time>
      </trkpt>
      <trkpt lat="43.56872" lon="3.72916">
        <ele>61.6</ele>
        <time>2021-04-13T09:10:41Z</time>
      </trkpt>
      <trkpt lat="43.56873" lon="3.72919">
        <ele>61.6</ele>
        <time>2021-04-13T09:10:42Z</time>
      </trkpt>
      <trkpt lat="43.56874" lon="3.72922">
        <ele>61.6</ele>
        <time>2021-04-13T09:10:43Z</time>
      </trkpt>
      <trkpt lat="43.56875" lon="3.72924">
        <ele>61.4</ele>
        <time>2021-04-13T09:10:44Z</time>
      </trkpt>
      <trkpt lat="43.56877" lon="3.72927">
        <ele>61.6</ele>
        <time>2021-04-13T09:10:45Z</time>
      </trkpt>
      <trkpt lat="43.56878" lon="3.72929">
        <ele>61.6</ele>
        <time>2021-04-13T09:10:46Z</time>
      </trkpt>
      <trkpt lat="43.5688" lon="3.72932">
        <ele>61.6</ele>
        <time>2021-04-13T09:10:47Z</time>
      </trkpt>
      <trkpt lat="43.56881" lon="3.72935">
        <ele>61.6</ele>
        <time>2021-04-13T09:10:48Z</time>
      </trkpt>
      <trkpt lat="43.56882" lon="3.72937">
        <ele>61.6</ele>
        <time>2021-04-13T09:10:49Z</time>
      </trkpt>
      <trkpt lat="43.56884" lon="3.7294">
        <ele>61.6</ele>
        <time>2021-04-13T09:10:50Z</time>
      </trkpt>
      <trkpt lat="43.56886" lon="3.72941">
        <ele>61.6</ele>
        <time>2021-04-13T09:10:51Z</time>
      </trkpt>
      <trkpt lat="43.56888" lon="3.72942">
        <ele>61.8</ele>
        <time>2021-04-13T09:10:52Z</time>
      </trkpt>
      <trkpt lat="43.56889" lon="3.72945">
        <ele>61.6</ele>
        <time>2021-04-13T09:10:53Z</time>
      </trkpt>
      <trkpt lat="43.56891" lon="3.72947">
        <ele>61.8</ele>
        <time>2021-04-13T09:10:54Z</time>
      </trkpt>
      <trkpt lat="43.56892" lon="3.72949">
        <ele>61.8</ele>
        <time>2021-04-13T09:10:55Z</time>
      </trkpt>
      <trkpt lat="43.56893" lon="3.72951">
        <ele>61.8</ele>
        <time>2021-04-13T09:10:56Z</time>
      </trkpt>
      <trkpt lat="43.56894" lon="3.72953">
        <ele>61.8</ele>
        <time>2021-04-13T09:10:57Z</time>
      </trkpt>
      <trkpt lat="43.56895" lon="3.72955">
        <ele>62</ele>
        <time>2021-04-13T09:10:58Z</time>
      </trkpt>
      <trkpt lat="43.56896" lon="3.72957">
        <ele>62.2</ele>
        <time>2021-04-13T09:10:59Z</time>
      </trkpt>
      <trkpt lat="43.56897" lon="3.72959">
        <ele>62.2</ele>
        <time>2021-04-13T09:11:00Z</time>
      </trkpt>
      <trkpt lat="43.56899" lon="3.72961">
        <ele>62</ele>
        <time>2021-04-13T09:11:01Z</time>
      </trkpt>
      <trkpt lat="43.569" lon="3.72963">
        <ele>62</ele>
        <time>2021-04-13T09:11:02Z</time>
      </trkpt>
      <trkpt lat="43.56901" lon="3.72965">
        <ele>62</ele>
        <time>2021-04-13T09:11:03Z</time>
      </trkpt>
      <trkpt lat="43.56903" lon="3.72967">
        <ele>62</ele>
        <time>2021-04-13T09:11:04Z</time>
      </trkpt>
      <trkpt lat="43.56904" lon="3.7297">
        <ele>62</ele>
        <time>2021-04-13T09:11:05Z</time>
      </trkpt>
      <trkpt lat="43.56905" lon="3.72972">
        <ele>62.2</ele>
        <time>2021-04-13T09:11:06Z</time>
      </trkpt>
      <trkpt lat="43.56907" lon="3.72974">
        <ele>62.2</ele>
        <time>2021-04-13T09:11:07Z</time>
      </trkpt>
      <trkpt lat="43.56908" lon="3.72976">
        <ele>62.2</ele>
        <time>2021-04-13T09:11:08Z</time>
      </trkpt>
      <trkpt lat="43.56909" lon="3.72979">
        <ele>62.4</ele>
        <time>2021-04-13T09:11:09Z</time>
      </trkpt>
      <trkpt lat="43.5691" lon="3.72981">
        <ele>62.4</ele>
        <time>2021-04-13T09:11:10Z</time>
      </trkpt>
      <trkpt lat="43.56911" lon="3.72983">
        <ele>62.6</ele>
        <time>2021-04-13T09:11:11Z</time>
      </trkpt>
      <trkpt lat="43.56912" lon="3.72986">
        <ele>62.4</ele>
        <time>2021-04-13T09:11:12Z</time>
      </trkpt>
      <trkpt lat="43.56913" lon="3.72988">
        <ele>62.4</ele>
        <time>2021-04-13T09:11:13Z</time>
      </trkpt>
      <trkpt lat="43.56915" lon="3.72989">
        <ele>62.4</ele>
        <time>2021-04-13T09:11:14Z</time>
      </trkpt>
      <trkpt lat="43.56917" lon="3.72991">
        <ele>62.4</ele>
        <time>2021-04-13T09:11:15Z</time>
      </trkpt>
      <trkpt lat="43.56918" lon="3.72993">
        <ele>62.6</ele>
        <time>2021-04-13T09:11:16Z</time>
      </trkpt>
      <trkpt lat="43.56919" lon="3.72996">
        <ele>62.6</ele>
        <time>2021-04-13T09:11:17Z</time>
      </trkpt>
      <trkpt lat="43.5692" lon="3.72998">
        <ele>62.6</ele>
        <time>2021-04-13T09:11:18Z</time>
      </trkpt>
      <trkpt lat="43.56921" lon="3.72999">
        <ele>62.6</ele>
        <time>2021-04-13T09:11:19Z</time>
      </trkpt>
      <trkpt lat="43.56923" lon="3.73001">
        <ele>62.4</ele>
        <time>2021-04-13T09:11:20Z</time>
      </trkpt>
      <trkpt lat="43.56924" lon="3.73003">
        <ele>62.6</ele>
        <time>2021-04-13T09:11:21Z</time>
      </trkpt>
      <trkpt lat="43.56925" lon="3.73004">
        <ele>62.6</ele>
        <time>2021-04-13T09:11:22Z</time>
      </trkpt>
      <trkpt lat="43.56926" lon="3.73006">
        <ele>62.6</ele>
        <time>2021-04-13T09:11:23Z</time>
      </trkpt>
      <trkpt lat="43.56927" lon="3.73008">
        <ele>62.6</ele>
        <time>2021-04-13T09:11:24Z</time>
      </trkpt>
      <trkpt lat="43.56929" lon="3.7301">
        <ele>62.6</ele>
        <time>2021-04-13T09:11:25Z</time>
      </trkpt>
      <trkpt lat="43.5693" lon="3.73013">
        <ele>62.6</ele>
        <time>2021-04-13T09:11:27Z</time>
      </trkpt>
      <trkpt lat="43.56932" lon="3.73017">
        <ele>62.6</ele>
        <time>2021-04-13T09:11:29Z</time>
      </trkpt>
      <trkpt lat="43.56934" lon="3.73021">
        <ele>62.6</ele>
        <time>2021-04-13T09:11:30Z</time>
      </trkpt>
      <trkpt lat="43.56936" lon="3.73022">
        <ele>62.8</ele>
        <time>2021-04-13T09:11:31Z</time>
      </trkpt>
      <trkpt lat="43.56937" lon="3.73024">
        <ele>62.8</ele>
        <time>2021-04-13T09:11:33Z</time>
      </trkpt>
      <trkpt lat="43.56939" lon="3.73027">
        <ele>62.8</ele>
        <time>2021-04-13T09:11:35Z</time>
      </trkpt>
      <trkpt lat="43.56941" lon="3.7303">
        <ele>62.8</ele>
        <time>2021-04-13T09:11:36Z</time>
      </trkpt>
      <trkpt lat="43.56942" lon="3.73031">
        <ele>62.8</ele>
        <time>2021-04-13T09:11:37Z</time>
      </trkpt>
      <trkpt lat="43.56943" lon="3.73033">
        <ele>62.8</ele>
        <time>2021-04-13T09:11:38Z</time>
      </trkpt>
      <trkpt lat="43.56944" lon="3.73034">
        <ele>62.8</ele>
        <time>2021-04-13T09:11:39Z</time>
      </trkpt>
      <trkpt lat="43.56945" lon="3.73036">
        <ele>62.8</ele>
        <time>2021-04-13T09:11:40Z</time>
      </trkpt>
      <trkpt lat="43.56947" lon="3.73037">
        <ele>62.8</ele>
        <time>2021-04-13T09:11:41Z</time>
      </trkpt>
      <trkpt lat="43.56948" lon="3.73039">
        <ele>62.8</ele>
        <time>2021-04-13T09:11:42Z</time>
      </trkpt>
      <trkpt lat="43.56949" lon="3.73042">
        <ele>63</ele>
        <time>2021-04-13T09:11:43Z</time>
      </trkpt>
      <trkpt lat="43.56951" lon="3.73044">
        <ele>63</ele>
        <time>2021-04-13T09:11:44Z</time>
      </trkpt>
      <trkpt lat="43.56952" lon="3.73046">
        <ele>63</ele>
        <time>2021-04-13T09:11:45Z</time>
      </trkpt>
      <trkpt lat="43.56953" lon="3.73049">
        <ele>63</ele>
        <time>2021-04-13T09:11:47Z</time>
      </trkpt>
      <trkpt lat="43.56956" lon="3.73053">
        <ele>63.2</ele>
        <time>2021-04-13T09:11:48Z</time>
      </trkpt>
      <trkpt lat="43.56958" lon="3.73055">
        <ele>63.2</ele>
        <time>2021-04-13T09:11:50Z</time>
      </trkpt>
      <trkpt lat="43.5696" lon="3.7306">
        <ele>63.4</ele>
        <time>2021-04-13T09:11:51Z</time>
      </trkpt>
      <trkpt lat="43.56961" lon="3.73062">
        <ele>63.4</ele>
        <time>2021-04-13T09:11:52Z</time>
      </trkpt>
      <trkpt lat="43.56962" lon="3.73064">
        <ele>63.2</ele>
        <time>2021-04-13T09:11:54Z</time>
      </trkpt>
      <trkpt lat="43.56964" lon="3.73068">
        <ele>63.4</ele>
        <time>2021-04-13T09:11:55Z</time>
      </trkpt>
      <trkpt lat="43.56965" lon="3.7307">
        <ele>63.2</ele>
        <time>2021-04-13T09:11:56Z</time>
      </trkpt>
      <trkpt lat="43.56966" lon="3.73072">
        <ele>63.2</ele>
        <time>2021-04-13T09:11:57Z</time>
      </trkpt>
      <trkpt lat="43.56967" lon="3.73074">
        <ele>63.4</ele>
        <time>2021-04-13T09:11:59Z</time>
      </trkpt>
      <trkpt lat="43.5697" lon="3.73078">
        <ele>63</ele>
        <time>2021-04-13T09:12:00Z</time>
      </trkpt>
      <trkpt lat="43.56971" lon="3.7308">
        <ele>63.4</ele>
        <time>2021-04-13T09:12:01Z</time>
      </trkpt>
      <trkpt lat="43.56972" lon="3.73082">
        <ele>63.2</ele>
        <time>2021-04-13T09:12:03Z</time>
      </trkpt>
      <trkpt lat="43.56975" lon="3.73086">
        <ele>63.2</ele>
        <time>2021-04-13T09:12:04Z</time>
      </trkpt>
      <trkpt lat="43.56976" lon="3.73088">
        <ele>63.2</ele>
        <time>2021-04-13T09:12:05Z</time>
      </trkpt>
      <trkpt lat="43.56977" lon="3.73091">
        <ele>63.2</ele>
        <time>2021-04-13T09:12:06Z</time>
      </trkpt>
      <trkpt lat="43.56979" lon="3.73093">
        <ele>63.2</ele>
        <time>2021-04-13T09:12:07Z</time>
      </trkpt>
      <trkpt lat="43.5698" lon="3.73095">
        <ele>63.2</ele>
        <time>2021-04-13T09:12:08Z</time>
      </trkpt>
      <trkpt lat="43.56981" lon="3.73096">
        <ele>63.4</ele>
        <time>2021-04-13T09:12:09Z</time>
      </trkpt>
      <trkpt lat="43.56982" lon="3.73098">
        <ele>63.4</ele>
        <time>2021-04-13T09:12:11Z</time>
      </trkpt>
      <trkpt lat="43.56984" lon="3.73102">
        <ele>63.4</ele>
        <time>2021-04-13T09:12:12Z</time>
      </trkpt>
      <trkpt lat="43.56985" lon="3.73104">
        <ele>63.4</ele>
        <time>2021-04-13T09:12:13Z</time>
      </trkpt>
      <trkpt lat="43.56987" lon="3.73107">
        <ele>63.2</ele>
        <time>2021-04-13T09:12:14Z</time>
      </trkpt>
      <trkpt lat="43.56988" lon="3.73108">
        <ele>63.2</ele>
        <time>2021-04-13T09:12:15Z</time>
      </trkpt>
      <trkpt lat="43.5699" lon="3.7311">
        <ele>63.4</ele>
        <time>2021-04-13T09:12:16Z</time>
      </trkpt>
      <trkpt lat="43.56992" lon="3.73112">
        <ele>63.4</ele>
        <time>2021-04-13T09:12:17Z</time>
      </trkpt>
      <trkpt lat="43.56993" lon="3.73114">
        <ele>63.4</ele>
        <time>2021-04-13T09:12:18Z</time>
      </trkpt>
      <trkpt lat="43.56994" lon="3.73117">
        <ele>63.4</ele>
        <time>2021-04-13T09:12:19Z</time>
      </trkpt>
      <trkpt lat="43.56995" lon="3.7312">
        <ele>63.4</ele>
        <time>2021-04-13T09:12:20Z</time>
      </trkpt>
      <trkpt lat="43.56996" lon="3.73122">
        <ele>63.4</ele>
        <time>2021-04-13T09:12:21Z</time>
      </trkpt>
      <trkpt lat="43.56997" lon="3.73125">
        <ele>63.2</ele>
        <time>2021-04-13T09:12:22Z</time>
      </trkpt>
      <trkpt lat="43.56999" lon="3.73128">
        <ele>63.2</ele>
        <time>2021-04-13T09:12:23Z</time>
      </trkpt>
      <trkpt lat="43.57" lon="3.73131">
        <ele>63.4</ele>
        <time>2021-04-13T09:12:24Z</time>
      </trkpt>
      <trkpt lat="43.57002" lon="3.73134">
        <ele>63.4</ele>
        <time>2021-04-13T09:12:25Z</time>
      </trkpt>
      <trkpt lat="43.57003" lon="3.73137">
        <ele>63.2</ele>
        <time>2021-04-13T09:12:27Z</time>
      </trkpt>
      <trkpt lat="43.57007" lon="3.73142">
        <ele>63.4</ele>
        <time>2021-04-13T09:12:29Z</time>
      </trkpt>
      <trkpt lat="43.57011" lon="3.73147">
        <ele>63.6</ele>
        <time>2021-04-13T09:12:31Z</time>
      </trkpt>
      <trkpt lat="43.57014" lon="3.73151">
        <ele>63.4</ele>
        <time>2021-04-13T09:12:33Z</time>
      </trkpt>
      <trkpt lat="43.57018" lon="3.73156">
        <ele>63.4</ele>
        <time>2021-04-13T09:12:35Z</time>
      </trkpt>
      <trkpt lat="43.5702" lon="3.73158">
        <ele>63.6</ele>
        <time>2021-04-13T09:12:36Z</time>
      </trkpt>
      <trkpt lat="43.57021" lon="3.73161">
        <ele>63.6</ele>
        <time>2021-04-13T09:12:37Z</time>
      </trkpt>
      <trkpt lat="43.57022" lon="3.73164">
        <ele>63.4</ele>
        <time>2021-04-13T09:12:38Z</time>
      </trkpt>
      <trkpt lat="43.57024" lon="3.73166">
        <ele>63.6</ele>
        <time>2021-04-13T09:12:39Z</time>
      </trkpt>
      <trkpt lat="43.57026" lon="3.73172">
        <ele>63.8</ele>
        <time>2021-04-13T09:12:41Z</time>
      </trkpt>
      <trkpt lat="43.57028" lon="3.73175">
        <ele>63.8</ele>
        <time>2021-04-13T09:12:42Z</time>
      </trkpt>
      <trkpt lat="43.57029" lon="3.73177">
        <ele>63.8</ele>
        <time>2021-04-13T09:12:43Z</time>
      </trkpt>
      <trkpt lat="43.5703" lon="3.7318">
        <ele>63.8</ele>
        <time>2021-04-13T09:12:44Z</time>
      </trkpt>
      <trkpt lat="43.57032" lon="3.73184">
        <ele>64</ele>
        <time>2021-04-13T09:12:45Z</time>
      </trkpt>
      <trkpt lat="43.57033" lon="3.73186">
        <ele>64</ele>
        <time>2021-04-13T09:12:47Z</time>
      </trkpt>
      <trkpt lat="43.57035" lon="3.73188">
        <ele>63.8</ele>
        <time>2021-04-13T09:12:48Z</time>
      </trkpt>
      <trkpt lat="43.57036" lon="3.7319">
        <ele>63.6</ele>
        <time>2021-04-13T09:12:49Z</time>
      </trkpt>
      <trkpt lat="43.57037" lon="3.73193">
        <ele>63.6</ele>
        <time>2021-04-13T09:12:50Z</time>
      </trkpt>
      <trkpt lat="43.57039" lon="3.73195">
        <ele>63.6</ele>
        <time>2021-04-13T09:12:51Z</time>
      </trkpt>
      <trkpt lat="43.57041" lon="3.73198">
        <ele>63.6</ele>
        <time>2021-04-13T09:12:52Z</time>
      </trkpt>
      <trkpt lat="43.57042" lon="3.732">
        <ele>63.4</ele>
        <time>2021-04-13T09:12:53Z</time>
      </trkpt>
      <trkpt lat="43.57044" lon="3.73203">
        <ele>63.4</ele>
        <time>2021-04-13T09:12:54Z</time>
      </trkpt>
      <trkpt lat="43.57045" lon="3.73205">
        <ele>63.6</ele>
        <time>2021-04-13T09:12:55Z</time>
      </trkpt>
      <trkpt lat="43.57046" lon="3.73207">
        <ele>63.4</ele>
        <time>2021-04-13T09:12:56Z</time>
      </trkpt>
      <trkpt lat="43.57047" lon="3.7321">
        <ele>63.4</ele>
        <time>2021-04-13T09:12:57Z</time>
      </trkpt>
      <trkpt lat="43.57048" lon="3.73212">
        <ele>63.6</ele>
        <time>2021-04-13T09:12:58Z</time>
      </trkpt>
      <trkpt lat="43.5705" lon="3.73215">
        <ele>63.6</ele>
        <time>2021-04-13T09:12:59Z</time>
      </trkpt>
      <trkpt lat="43.57051" lon="3.73217">
        <ele>63.4</ele>
        <time>2021-04-13T09:13:00Z</time>
      </trkpt>
      <trkpt lat="43.57052" lon="3.7322">
        <ele>63.4</ele>
        <time>2021-04-13T09:13:01Z</time>
      </trkpt>
      <trkpt lat="43.57053" lon="3.73222">
        <ele>63.4</ele>
        <time>2021-04-13T09:13:02Z</time>
      </trkpt>
      <trkpt lat="43.57055" lon="3.73224">
        <ele>63.4</ele>
        <time>2021-04-13T09:13:03Z</time>
      </trkpt>
      <trkpt lat="43.57056" lon="3.73227">
        <ele>63.4</ele>
        <time>2021-04-13T09:13:04Z</time>
      </trkpt>
      <trkpt lat="43.57058" lon="3.73229">
        <ele>63.6</ele>
        <time>2021-04-13T09:13:05Z</time>
      </trkpt>
      <trkpt lat="43.5706" lon="3.73231">
        <ele>63.4</ele>
        <time>2021-04-13T09:13:06Z</time>
      </trkpt>
      <trkpt lat="43.57062" lon="3.73234">
        <ele>63.4</ele>
        <time>2021-04-13T09:13:07Z</time>
      </trkpt>
      <trkpt lat="43.57064" lon="3.73237">
        <ele>63.4</ele>
        <time>2021-04-13T09:13:08Z</time>
      </trkpt>
      <trkpt lat="43.57066" lon="3.7324">
        <ele>63.4</ele>
        <time>2021-04-13T09:13:09Z</time>
      </trkpt>
      <trkpt lat="43.57068" lon="3.73243">
        <ele>63.2</ele>
        <time>2021-04-13T09:13:10Z</time>
      </trkpt>
      <trkpt lat="43.57069" lon="3.73246">
        <ele>63.2</ele>
        <time>2021-04-13T09:13:11Z</time>
      </trkpt>
      <trkpt lat="43.57071" lon="3.73249">
        <ele>63.2</ele>
        <time>2021-04-13T09:13:12Z</time>
      </trkpt>
      <trkpt lat="43.57073" lon="3.73252">
        <ele>63.2</ele>
        <time>2021-04-13T09:13:13Z</time>
      </trkpt>
      <trkpt lat="43.57075" lon="3.73255">
        <ele>63.2</ele>
        <time>2021-04-13T09:13:14Z</time>
      </trkpt>
      <trkpt lat="43.57077" lon="3.73258">
        <ele>63.2</ele>
        <time>2021-04-13T09:13:15Z</time>
      </trkpt>
      <trkpt lat="43.57079" lon="3.7326">
        <ele>63.2</ele>
        <time>2021-04-13T09:13:16Z</time>
      </trkpt>
      <trkpt lat="43.57081" lon="3.73263">
        <ele>63.2</ele>
        <time>2021-04-13T09:13:17Z</time>
      </trkpt>
      <trkpt lat="43.57082" lon="3.73266">
        <ele>63</ele>
        <time>2021-04-13T09:13:18Z</time>
      </trkpt>
      <trkpt lat="43.57085" lon="3.73269">
        <ele>63</ele>
        <time>2021-04-13T09:13:19Z</time>
      </trkpt>
      <trkpt lat="43.57086" lon="3.73273">
        <ele>63</ele>
        <time>2021-04-13T09:13:20Z</time>
      </trkpt>
      <trkpt lat="43.57088" lon="3.73277">
        <ele>63.2</ele>
        <time>2021-04-13T09:13:21Z</time>
      </trkpt>
      <trkpt lat="43.5709" lon="3.73281">
        <ele>63</ele>
        <time>2021-04-13T09:13:22Z</time>
      </trkpt>
      <trkpt lat="43.57092" lon="3.73284">
        <ele>62.8</ele>
        <time>2021-04-13T09:13:23Z</time>
      </trkpt>
      <trkpt lat="43.57094" lon="3.73288">
        <ele>62.8</ele>
        <time>2021-04-13T09:13:24Z</time>
      </trkpt>
      <trkpt lat="43.57096" lon="3.73291">
        <ele>62.8</ele>
        <time>2021-04-13T09:13:25Z</time>
      </trkpt>
      <trkpt lat="43.57098" lon="3.73294">
        <ele>62.8</ele>
        <time>2021-04-13T09:13:26Z</time>
      </trkpt>
      <trkpt lat="43.571" lon="3.73298">
        <ele>62.8</ele>
        <time>2021-04-13T09:13:27Z</time>
      </trkpt>
      <trkpt lat="43.57102" lon="3.73301">
        <ele>62.8</ele>
        <time>2021-04-13T09:13:28Z</time>
      </trkpt>
      <trkpt lat="43.57104" lon="3.73305">
        <ele>62.8</ele>
        <time>2021-04-13T09:13:29Z</time>
      </trkpt>
      <trkpt lat="43.57105" lon="3.73308">
        <ele>62.6</ele>
        <time>2021-04-13T09:13:30Z</time>
      </trkpt>
      <trkpt lat="43.57106" lon="3.73311">
        <ele>62.6</ele>
        <time>2021-04-13T09:13:31Z</time>
      </trkpt>
      <trkpt lat="43.57108" lon="3.73315">
        <ele>62.6</ele>
        <time>2021-04-13T09:13:32Z</time>
      </trkpt>
      <trkpt lat="43.57109" lon="3.73318">
        <ele>62.6</ele>
        <time>2021-04-13T09:13:33Z</time>
      </trkpt>
      <trkpt lat="43.5711" lon="3.7332">
        <ele>62.4</ele>
        <time>2021-04-13T09:13:34Z</time>
      </trkpt>
      <trkpt lat="43.57112" lon="3.73323">
        <ele>62.6</ele>
        <time>2021-04-13T09:13:35Z</time>
      </trkpt>
      <trkpt lat="43.57113" lon="3.73325">
        <ele>62.8</ele>
        <time>2021-04-13T09:13:36Z</time>
      </trkpt>
      <trkpt lat="43.57115" lon="3.73328">
        <ele>62.8</ele>
        <time>2021-04-13T09:13:37Z</time>
      </trkpt>
      <trkpt lat="43.57117" lon="3.7333">
        <ele>62.6</ele>
        <time>2021-04-13T09:13:38Z</time>
      </trkpt>
      <trkpt lat="43.57119" lon="3.73333">
        <ele>62.6</ele>
        <time>2021-04-13T09:13:39Z</time>
      </trkpt>
      <trkpt lat="43.5712" lon="3.73336">
        <ele>62.4</ele>
        <time>2021-04-13T09:13:40Z</time>
      </trkpt>
      <trkpt lat="43.57122" lon="3.73339">
        <ele>62.8</ele>
        <time>2021-04-13T09:13:41Z</time>
      </trkpt>
      <trkpt lat="43.57124" lon="3.73342">
        <ele>62.6</ele>
        <time>2021-04-13T09:13:42Z</time>
      </trkpt>
      <trkpt lat="43.57126" lon="3.73345">
        <ele>62.4</ele>
        <time>2021-04-13T09:13:43Z</time>
      </trkpt>
      <trkpt lat="43.57128" lon="3.73348">
        <ele>62.4</ele>
        <time>2021-04-13T09:13:44Z</time>
      </trkpt>
      <trkpt lat="43.5713" lon="3.7335">
        <ele>62.2</ele>
        <time>2021-04-13T09:13:45Z</time>
      </trkpt>
      <trkpt lat="43.57132" lon="3.73353">
        <ele>62.4</ele>
        <time>2021-04-13T09:13:46Z</time>
      </trkpt>
      <trkpt lat="43.57134" lon="3.73356">
        <ele>62.2</ele>
        <time>2021-04-13T09:13:47Z</time>
      </trkpt>
      <trkpt lat="43.57136" lon="3.73359">
        <ele>62.2</ele>
        <time>2021-04-13T09:13:48Z</time>
      </trkpt>
      <trkpt lat="43.57137" lon="3.73362">
        <ele>62.2</ele>
        <time>2021-04-13T09:13:49Z</time>
      </trkpt>
      <trkpt lat="43.57139" lon="3.73364">
        <ele>62.2</ele>
        <time>2021-04-13T09:13:50Z</time>
      </trkpt>
      <trkpt lat="43.5714" lon="3.73367">
        <ele>62</ele>
        <time>2021-04-13T09:13:51Z</time>
      </trkpt>
      <trkpt lat="43.57141" lon="3.73369">
        <ele>62</ele>
        <time>2021-04-13T09:13:52Z</time>
      </trkpt>
      <trkpt lat="43.57142" lon="3.73372">
        <ele>62.2</ele>
        <time>2021-04-13T09:13:53Z</time>
      </trkpt>
      <trkpt lat="43.57143" lon="3.73374">
        <ele>62.4</ele>
        <time>2021-04-13T09:13:54Z</time>
      </trkpt>
      <trkpt lat="43.57144" lon="3.73377">
        <ele>62.2</ele>
        <time>2021-04-13T09:13:55Z</time>
      </trkpt>
      <trkpt lat="43.57145" lon="3.73379">
        <ele>62</ele>
        <time>2021-04-13T09:13:56Z</time>
      </trkpt>
      <trkpt lat="43.57146" lon="3.73381">
        <ele>62</ele>
        <time>2021-04-13T09:13:57Z</time>
      </trkpt>
      <trkpt lat="43.57148" lon="3.73383">
        <ele>62</ele>
        <time>2021-04-13T09:13:58Z</time>
      </trkpt>
      <trkpt lat="43.57149" lon="3.73385">
        <ele>62</ele>
        <time>2021-04-13T09:13:59Z</time>
      </trkpt>
      <trkpt lat="43.5715" lon="3.73387">
        <ele>61.8</ele>
        <time>2021-04-13T09:14:00Z</time>
      </trkpt>
      <trkpt lat="43.57152" lon="3.73389">
        <ele>62</ele>
        <time>2021-04-13T09:14:01Z</time>
      </trkpt>
      <trkpt lat="43.57153" lon="3.73392">
        <ele>62</ele>
        <time>2021-04-13T09:14:02Z</time>
      </trkpt>
      <trkpt lat="43.57154" lon="3.73394">
        <ele>61.8</ele>
        <time>2021-04-13T09:14:03Z</time>
      </trkpt>
      <trkpt lat="43.57155" lon="3.73396">
        <ele>61.8</ele>
        <time>2021-04-13T09:14:04Z</time>
      </trkpt>
      <trkpt lat="43.57156" lon="3.73398">
        <ele>61.6</ele>
        <time>2021-04-13T09:14:05Z</time>
      </trkpt>
      <trkpt lat="43.57158" lon="3.73401">
        <ele>61.6</ele>
        <time>2021-04-13T09:14:06Z</time>
      </trkpt>
      <trkpt lat="43.57159" lon="3.73402">
        <ele>61.6</ele>
        <time>2021-04-13T09:14:07Z</time>
      </trkpt>
      <trkpt lat="43.5716" lon="3.73404">
        <ele>61.6</ele>
        <time>2021-04-13T09:14:08Z</time>
      </trkpt>
      <trkpt lat="43.57161" lon="3.73406">
        <ele>61.6</ele>
        <time>2021-04-13T09:14:09Z</time>
      </trkpt>
      <trkpt lat="43.57162" lon="3.73409">
        <ele>61.6</ele>
        <time>2021-04-13T09:14:10Z</time>
      </trkpt>
      <trkpt lat="43.57163" lon="3.7341">
        <ele>61.6</ele>
        <time>2021-04-13T09:14:11Z</time>
      </trkpt>
      <trkpt lat="43.57165" lon="3.73412">
        <ele>61.6</ele>
        <time>2021-04-13T09:14:12Z</time>
      </trkpt>
      <trkpt lat="43.57166" lon="3.73413">
        <ele>61.8</ele>
        <time>2021-04-13T09:14:13Z</time>
      </trkpt>
      <trkpt lat="43.57167" lon="3.73415">
        <ele>61.6</ele>
        <time>2021-04-13T09:14:14Z</time>
      </trkpt>
      <trkpt lat="43.57168" lon="3.73417">
        <ele>61.6</ele>
        <time>2021-04-13T09:14:15Z</time>
      </trkpt>
      <trkpt lat="43.57169" lon="3.73419">
        <ele>61.6</ele>
        <time>2021-04-13T09:14:16Z</time>
      </trkpt>
      <trkpt lat="43.5717" lon="3.73421">
        <ele>61.8</ele>
        <time>2021-04-13T09:14:17Z</time>
      </trkpt>
      <trkpt lat="43.57171" lon="3.73423">
        <ele>61.8</ele>
        <time>2021-04-13T09:14:18Z</time>
      </trkpt>
      <trkpt lat="43.57172" lon="3.73423">
        <ele>61.8</ele>
        <time>2021-04-13T09:14:19Z</time>
      </trkpt>
      <trkpt lat="43.57172" lon="3.73423">
        <ele>61.8</ele>
        <time>2021-04-13T09:14:20Z</time>
      </trkpt>
      <trkpt lat="43.57172" lon="3.73423">
        <ele>61.6</ele>
        <time>2021-04-13T09:14:21Z</time>
      </trkpt>
      <trkpt lat="43.57172" lon="3.73423">
        <ele>61.6</ele>
        <time>2021-04-13T09:14:22Z</time>
      </trkpt>
      <trkpt lat="43.57172" lon="3.73423">
        <ele>61.8</ele>
        <time>2021-04-13T09:14:23Z</time>
      </trkpt>
      <trkpt lat="43.57172" lon="3.73423">
        <ele>61.8</ele>
        <time>2021-04-13T09:14:24Z</time>
      </trkpt>
      <trkpt lat="43.57172" lon="3.73423">
        <ele>61.8</ele>
        <time>2021-04-13T09:14:25Z</time>
      </trkpt>
      <trkpt lat="43.57172" lon="3.73422">
        <ele>61.8</ele>
        <time>2021-04-13T09:14:26Z</time>
      </trkpt>
      <trkpt lat="43.57181" lon="3.73445">
        <ele>62.6</ele>
        <time>2021-04-13T09:16:01Z</time>
      </trkpt>
      <trkpt lat="43.57182" lon="3.73448">
        <ele>62.4</ele>
        <time>2021-04-13T09:16:02Z</time>
      </trkpt>
      <trkpt lat="43.57184" lon="3.73451">
        <ele>62.4</ele>
        <time>2021-04-13T09:16:03Z</time>
      </trkpt>
      <trkpt lat="43.57186" lon="3.73454">
        <ele>62.2</ele>
        <time>2021-04-13T09:16:04Z</time>
      </trkpt>
      <trkpt lat="43.57187" lon="3.73457">
        <ele>62.2</ele>
        <time>2021-04-13T09:16:05Z</time>
      </trkpt>
      <trkpt lat="43.57189" lon="3.7346">
        <ele>62</ele>
        <time>2021-04-13T09:16:06Z</time>
      </trkpt>
      <trkpt lat="43.5719" lon="3.73462">
        <ele>62</ele>
        <time>2021-04-13T09:16:07Z</time>
      </trkpt>
      <trkpt lat="43.57191" lon="3.73462">
        <ele>62.4</ele>
        <time>2021-04-13T09:16:08Z</time>
      </trkpt>
      <trkpt lat="43.57191" lon="3.73462">
        <ele>62.2</ele>
        <time>2021-04-13T09:16:09Z</time>
      </trkpt>
      <trkpt lat="43.5719" lon="3.73462">
        <ele>62</ele>
        <time>2021-04-13T09:16:10Z</time>
      </trkpt>
      <trkpt lat="43.5719" lon="3.73462">
        <ele>61.8</ele>
        <time>2021-04-13T09:16:11Z</time>
      </trkpt>
      <trkpt lat="43.5719" lon="3.73462">
        <ele>62</ele>
        <time>2021-04-13T09:16:12Z</time>
      </trkpt>
      <trkpt lat="43.5719" lon="3.73463">
        <ele>62</ele>
        <time>2021-04-13T09:16:13Z</time>
      </trkpt>
      <trkpt lat="43.5719" lon="3.73462">
        <ele>61.8</ele>
        <time>2021-04-13T09:16:14Z</time>
      </trkpt>
      <trkpt lat="43.5719" lon="3.73462">
        <ele>61.6</ele>
        <time>2021-04-13T09:16:15Z</time>
      </trkpt>
      <trkpt lat="43.57201" lon="3.73482">
        <ele>61.6</ele>
        <time>2021-04-13T09:16:32Z</time>
      </trkpt>
      <trkpt lat="43.57202" lon="3.73484">
        <ele>61.6</ele>
        <time>2021-04-13T09:16:33Z</time>
      </trkpt>
      <trkpt lat="43.57203" lon="3.73485">
        <ele>61.6</ele>
        <time>2021-04-13T09:16:34Z</time>
      </trkpt>
      <trkpt lat="43.57205" lon="3.73487">
        <ele>61.6</ele>
        <time>2021-04-13T09:16:35Z</time>
      </trkpt>
      <trkpt lat="43.57206" lon="3.7349">
        <ele>61.6</ele>
        <time>2021-04-13T09:16:36Z</time>
      </trkpt>
      <trkpt lat="43.57207" lon="3.73492">
        <ele>61.8</ele>
        <time>2021-04-13T09:16:37Z</time>
      </trkpt>
      <trkpt lat="43.57208" lon="3.73495">
        <ele>61.8</ele>
        <time>2021-04-13T09:16:38Z</time>
      </trkpt>
      <trkpt lat="43.57211" lon="3.73497">
        <ele>62</ele>
        <time>2021-04-13T09:16:39Z</time>
      </trkpt>
      <trkpt lat="43.57212" lon="3.73499">
        <ele>62.2</ele>
        <time>2021-04-13T09:16:40Z</time>
      </trkpt>
      <trkpt lat="43.57213" lon="3.73502">
        <ele>62.2</ele>
        <time>2021-04-13T09:16:41Z</time>
      </trkpt>
      <trkpt lat="43.57215" lon="3.73504">
        <ele>62.2</ele>
        <time>2021-04-13T09:16:42Z</time>
      </trkpt>
      <trkpt lat="43.57216" lon="3.73507">
        <ele>62</ele>
        <time>2021-04-13T09:16:43Z</time>
      </trkpt>
      <trkpt lat="43.57218" lon="3.73509">
        <ele>62</ele>
        <time>2021-04-13T09:16:44Z</time>
      </trkpt>
      <trkpt lat="43.5722" lon="3.73512">
        <ele>62.2</ele>
        <time>2021-04-13T09:16:45Z</time>
      </trkpt>
      <trkpt lat="43.57222" lon="3.73514">
        <ele>62</ele>
        <time>2021-04-13T09:16:46Z</time>
      </trkpt>
      <trkpt lat="43.57223" lon="3.73517">
        <ele>62</ele>
        <time>2021-04-13T09:16:47Z</time>
      </trkpt>
      <trkpt lat="43.57225" lon="3.7352">
        <ele>62</ele>
        <time>2021-04-13T09:16:48Z</time>
      </trkpt>
      <trkpt lat="43.57227" lon="3.73523">
        <ele>62</ele>
        <time>2021-04-13T09:16:49Z</time>
      </trkpt>
      <trkpt lat="43.57228" lon="3.73525">
        <ele>62</ele>
        <time>2021-04-13T09:16:50Z</time>
      </trkpt>
      <trkpt lat="43.5723" lon="3.73528">
        <ele>62</ele>
        <time>2021-04-13T09:16:51Z</time>
      </trkpt>
      <trkpt lat="43.57232" lon="3.7353">
        <ele>62</ele>
        <time>2021-04-13T09:16:52Z</time>
      </trkpt>
      <trkpt lat="43.57233" lon="3.73533">
        <ele>62</ele>
        <time>2021-04-13T09:16:53Z</time>
      </trkpt>
      <trkpt lat="43.57235" lon="3.73536">
        <ele>62.2</ele>
        <time>2021-04-13T09:16:54Z</time>
      </trkpt>
      <trkpt lat="43.57237" lon="3.73538">
        <ele>62.2</ele>
        <time>2021-04-13T09:16:55Z</time>
      </trkpt>
      <trkpt lat="43.57238" lon="3.73542">
        <ele>62.2</ele>
        <time>2021-04-13T09:16:56Z</time>
      </trkpt>
      <trkpt lat="43.57239" lon="3.73545">
        <ele>62.2</ele>
        <time>2021-04-13T09:16:57Z</time>
      </trkpt>
      <trkpt lat="43.5724" lon="3.73547">
        <ele>62.4</ele>
        <time>2021-04-13T09:16:58Z</time>
      </trkpt>
      <trkpt lat="43.5724" lon="3.7355">
        <ele>62.2</ele>
        <time>2021-04-13T09:16:59Z</time>
      </trkpt>
      <trkpt lat="43.5724" lon="3.73552">
        <ele>62.4</ele>
        <time>2021-04-13T09:17:00Z</time>
      </trkpt>
      <trkpt lat="43.57241" lon="3.73554">
        <ele>62.2</ele>
        <time>2021-04-13T09:17:01Z</time>
      </trkpt>
      <trkpt lat="43.57241" lon="3.73554">
        <ele>62.4</ele>
        <time>2021-04-13T09:17:02Z</time>
      </trkpt>
      <trkpt lat="43.57241" lon="3.73554">
        <ele>62.2</ele>
        <time>2021-04-13T09:17:03Z</time>
      </trkpt>
      <trkpt lat="43.57241" lon="3.73554">
        <ele>62.2</ele>
        <time>2021-04-13T09:17:04Z</time>
      </trkpt>
      <trkpt lat="43.57241" lon="3.73554">
        <ele>62.2</ele>
        <time>2021-04-13T09:17:05Z</time>
      </trkpt>
      <trkpt lat="43.57241" lon="3.73554">
        <ele>62.2</ele>
        <time>2021-04-13T09:17:06Z</time>
      </trkpt>
      <trkpt lat="43.57241" lon="3.73555">
        <ele>62.2</ele>
        <time>2021-04-13T09:17:07Z</time>
      </trkpt>
      <trkpt lat="43.57241" lon="3.73556">
        <ele>62.4</ele>
        <time>2021-04-13T09:17:08Z</time>
      </trkpt>
      <trkpt lat="43.57242" lon="3.73557">
        <ele>62.4</ele>
        <time>2021-04-13T09:17:09Z</time>
      </trkpt>
      <trkpt lat="43.57248" lon="3.7357">
        <ele>62.4</ele>
        <time>2021-04-13T09:17:16Z</time>
      </trkpt>
      <trkpt lat="43.57249" lon="3.73573">
        <ele>62.4</ele>
        <time>2021-04-13T09:17:17Z</time>
      </trkpt>
      <trkpt lat="43.5725" lon="3.73576">
        <ele>62.4</ele>
        <time>2021-04-13T09:17:18Z</time>
      </trkpt>
      <trkpt lat="43.57251" lon="3.73578">
        <ele>62.4</ele>
        <time>2021-04-13T09:17:19Z</time>
      </trkpt>
      <trkpt lat="43.57253" lon="3.73581">
        <ele>62.4</ele>
        <time>2021-04-13T09:17:20Z</time>
      </trkpt>
      <trkpt lat="43.57254" lon="3.73584">
        <ele>62.4</ele>
        <time>2021-04-13T09:17:21Z</time>
      </trkpt>
      <trkpt lat="43.57256" lon="3.73586">
        <ele>62.4</ele>
        <time>2021-04-13T09:17:22Z</time>
      </trkpt>
      <trkpt lat="43.57258" lon="3.73589">
        <ele>62.4</ele>
        <time>2021-04-13T09:17:23Z</time>
      </trkpt>
      <trkpt lat="43.57259" lon="3.73592">
        <ele>62.6</ele>
        <time>2021-04-13T09:17:24Z</time>
      </trkpt>
      <trkpt lat="43.57261" lon="3.73594">
        <ele>62.6</ele>
        <time>2021-04-13T09:17:25Z</time>
      </trkpt>
      <trkpt lat="43.57263" lon="3.73597">
        <ele>62.4</ele>
        <time>2021-04-13T09:17:26Z</time>
      </trkpt>
      <trkpt lat="43.57266" lon="3.73598">
        <ele>62.6</ele>
        <time>2021-04-13T09:17:27Z</time>
      </trkpt>
      <trkpt lat="43.57268" lon="3.736">
        <ele>62.6</ele>
        <time>2021-04-13T09:17:28Z</time>
      </trkpt>
      <trkpt lat="43.5727" lon="3.73603">
        <ele>62.6</ele>
        <time>2021-04-13T09:17:29Z</time>
      </trkpt>
      <trkpt lat="43.57272" lon="3.73606">
        <ele>62.6</ele>
        <time>2021-04-13T09:17:30Z</time>
      </trkpt>
      <trkpt lat="43.57273" lon="3.73609">
        <ele>62.6</ele>
        <time>2021-04-13T09:17:31Z</time>
      </trkpt>
      <trkpt lat="43.57275" lon="3.73613">
        <ele>62.6</ele>
        <time>2021-04-13T09:17:32Z</time>
      </trkpt>
      <trkpt lat="43.57277" lon="3.73617">
        <ele>62.4</ele>
        <time>2021-04-13T09:17:33Z</time>
      </trkpt>
      <trkpt lat="43.57278" lon="3.7362">
        <ele>62.6</ele>
        <time>2021-04-13T09:17:34Z</time>
      </trkpt>
      <trkpt lat="43.57281" lon="3.73624">
        <ele>62.4</ele>
        <time>2021-04-13T09:17:35Z</time>
      </trkpt>
      <trkpt lat="43.57283" lon="3.73627">
        <ele>62.6</ele>
        <time>2021-04-13T09:17:36Z</time>
      </trkpt>
      <trkpt lat="43.57285" lon="3.73631">
        <ele>62.6</ele>
        <time>2021-04-13T09:17:37Z</time>
      </trkpt>
      <trkpt lat="43.57287" lon="3.73635">
        <ele>62.4</ele>
        <time>2021-04-13T09:17:38Z</time>
      </trkpt>
      <trkpt lat="43.57289" lon="3.73638">
        <ele>62.4</ele>
        <time>2021-04-13T09:17:39Z</time>
      </trkpt>
      <trkpt lat="43.57291" lon="3.73642">
        <ele>62.4</ele>
        <time>2021-04-13T09:17:40Z</time>
      </trkpt>
      <trkpt lat="43.57293" lon="3.73646">
        <ele>62.4</ele>
        <time>2021-04-13T09:17:41Z</time>
      </trkpt>
      <trkpt lat="43.57295" lon="3.7365">
        <ele>62.6</ele>
        <time>2021-04-13T09:17:42Z</time>
      </trkpt>
      <trkpt lat="43.57297" lon="3.73654">
        <ele>62.6</ele>
        <time>2021-04-13T09:17:43Z</time>
      </trkpt>
      <trkpt lat="43.57299" lon="3.73658">
        <ele>62.6</ele>
        <time>2021-04-13T09:17:44Z</time>
      </trkpt>
      <trkpt lat="43.57301" lon="3.73662">
        <ele>62.6</ele>
        <time>2021-04-13T09:17:45Z</time>
      </trkpt>
      <trkpt lat="43.57303" lon="3.73666">
        <ele>62.6</ele>
        <time>2021-04-13T09:17:46Z</time>
      </trkpt>
      <trkpt lat="43.57305" lon="3.73669">
        <ele>62.6</ele>
        <time>2021-04-13T09:17:47Z</time>
      </trkpt>
      <trkpt lat="43.57308" lon="3.73673">
        <ele>62.6</ele>
        <time>2021-04-13T09:17:48Z</time>
      </trkpt>
      <trkpt lat="43.5731" lon="3.73677">
        <ele>62.8</ele>
        <time>2021-04-13T09:17:49Z</time>
      </trkpt>
      <trkpt lat="43.57312" lon="3.73681">
        <ele>62.8</ele>
        <time>2021-04-13T09:17:50Z</time>
      </trkpt>
      <trkpt lat="43.57314" lon="3.73684">
        <ele>62.8</ele>
        <time>2021-04-13T09:17:51Z</time>
      </trkpt>
      <trkpt lat="43.57316" lon="3.73688">
        <ele>62.8</ele>
        <time>2021-04-13T09:17:52Z</time>
      </trkpt>
      <trkpt lat="43.57318" lon="3.73692">
        <ele>62.8</ele>
        <time>2021-04-13T09:17:53Z</time>
      </trkpt>
      <trkpt lat="43.5732" lon="3.73696">
        <ele>62.8</ele>
        <time>2021-04-13T09:17:54Z</time>
      </trkpt>
      <trkpt lat="43.57322" lon="3.73699">
        <ele>62.8</ele>
        <time>2021-04-13T09:17:55Z</time>
      </trkpt>
      <trkpt lat="43.57324" lon="3.73703">
        <ele>62.8</ele>
        <time>2021-04-13T09:17:56Z</time>
      </trkpt>
      <trkpt lat="43.57326" lon="3.73707">
        <ele>62.8</ele>
        <time>2021-04-13T09:17:57Z</time>
      </trkpt>
      <trkpt lat="43.57328" lon="3.7371">
        <ele>63</ele>
        <time>2021-04-13T09:17:58Z</time>
      </trkpt>
      <trkpt lat="43.5733" lon="3.73714">
        <ele>63.2</ele>
        <time>2021-04-13T09:17:59Z</time>
      </trkpt>
      <trkpt lat="43.57332" lon="3.73718">
        <ele>63</ele>
        <time>2021-04-13T09:18:00Z</time>
      </trkpt>
      <trkpt lat="43.57334" lon="3.73722">
        <ele>62.8</ele>
        <time>2021-04-13T09:18:01Z</time>
      </trkpt>
      <trkpt lat="43.57336" lon="3.73726">
        <ele>63.2</ele>
        <time>2021-04-13T09:18:02Z</time>
      </trkpt>
      <trkpt lat="43.57338" lon="3.7373">
        <ele>63.2</ele>
        <time>2021-04-13T09:18:03Z</time>
      </trkpt>
      <trkpt lat="43.57341" lon="3.73734">
        <ele>63.4</ele>
        <time>2021-04-13T09:18:04Z</time>
      </trkpt>
      <trkpt lat="43.57343" lon="3.73738">
        <ele>63.2</ele>
        <time>2021-04-13T09:18:05Z</time>
      </trkpt>
      <trkpt lat="43.57345" lon="3.73741">
        <ele>63</ele>
        <time>2021-04-13T09:18:06Z</time>
      </trkpt>
      <trkpt lat="43.57347" lon="3.73746">
        <ele>63</ele>
        <time>2021-04-13T09:18:07Z</time>
      </trkpt>
      <trkpt lat="43.57349" lon="3.73749">
        <ele>63.2</ele>
        <time>2021-04-13T09:18:08Z</time>
      </trkpt>
      <trkpt lat="43.57351" lon="3.73753">
        <ele>63</ele>
        <time>2021-04-13T09:18:09Z</time>
      </trkpt>
      <trkpt lat="43.57353" lon="3.73756">
        <ele>62.8</ele>
        <time>2021-04-13T09:18:10Z</time>
      </trkpt>
      <trkpt lat="43.57354" lon="3.73758">
        <ele>62.8</ele>
        <time>2021-04-13T09:18:11Z</time>
      </trkpt>
      <trkpt lat="43.57354" lon="3.73759">
        <ele>62.8</ele>
        <time>2021-04-13T09:18:12Z</time>
      </trkpt>
      <trkpt lat="43.57355" lon="3.7376">
        <ele>62.8</ele>
        <time>2021-04-13T09:18:13Z</time>
      </trkpt>
      <trkpt lat="43.57354" lon="3.7376">
        <ele>62.8</ele>
        <time>2021-04-13T09:18:14Z</time>
      </trkpt>
      <trkpt lat="43.57353" lon="3.73761">
        <ele>62.8</ele>
        <time>2021-04-13T09:18:15Z</time>
      </trkpt>
      <trkpt lat="43.57352" lon="3.73762">
        <ele>62.6</ele>
        <time>2021-04-13T09:18:16Z</time>
      </trkpt>
      <trkpt lat="43.5735" lon="3.73763">
        <ele>62.6</ele>
        <time>2021-04-13T09:18:17Z</time>
      </trkpt>
      <trkpt lat="43.57349" lon="3.73762">
        <ele>62.4</ele>
        <time>2021-04-13T09:18:18Z</time>
      </trkpt>
      <trkpt lat="43.57347" lon="3.73762">
        <ele>62.4</ele>
        <time>2021-04-13T09:18:19Z</time>
      </trkpt>
      <trkpt lat="43.57345" lon="3.73763">
        <ele>62.4</ele>
        <time>2021-04-13T09:18:20Z</time>
      </trkpt>
      <trkpt lat="43.57343" lon="3.73764">
        <ele>62.2</ele>
        <time>2021-04-13T09:18:21Z</time>
      </trkpt>
      <trkpt lat="43.57341" lon="3.73767">
        <ele>62</ele>
        <time>2021-04-13T09:18:22Z</time>
      </trkpt>
      <trkpt lat="43.5734" lon="3.7377">
        <ele>61.6</ele>
        <time>2021-04-13T09:18:23Z</time>
      </trkpt>
      <trkpt lat="43.57339" lon="3.73774">
        <ele>61.4</ele>
        <time>2021-04-13T09:18:24Z</time>
      </trkpt>
      <trkpt lat="43.57338" lon="3.73778">
        <ele>61.2</ele>
        <time>2021-04-13T09:18:25Z</time>
      </trkpt>
      <trkpt lat="43.57337" lon="3.73782">
        <ele>60.8</ele>
        <time>2021-04-13T09:18:26Z</time>
      </trkpt>
      <trkpt lat="43.57336" lon="3.73786">
        <ele>60.6</ele>
        <time>2021-04-13T09:18:27Z</time>
      </trkpt>
      <trkpt lat="43.57335" lon="3.7379">
        <ele>60.4</ele>
        <time>2021-04-13T09:18:28Z</time>
      </trkpt>
      <trkpt lat="43.57335" lon="3.73795">
        <ele>60</ele>
        <time>2021-04-13T09:18:29Z</time>
      </trkpt>
      <trkpt lat="43.57334" lon="3.73799">
        <ele>59.8</ele>
        <time>2021-04-13T09:18:30Z</time>
      </trkpt>
      <trkpt lat="43.57334" lon="3.73803">
        <ele>59.6</ele>
        <time>2021-04-13T09:18:31Z</time>
      </trkpt>
      <trkpt lat="43.57333" lon="3.73808">
        <ele>59.4</ele>
        <time>2021-04-13T09:18:32Z</time>
      </trkpt>
      <trkpt lat="43.57333" lon="3.73812">
        <ele>59</ele>
        <time>2021-04-13T09:18:33Z</time>
      </trkpt>
      <trkpt lat="43.57333" lon="3.73817">
        <ele>59</ele>
        <time>2021-04-13T09:18:34Z</time>
      </trkpt>
      <trkpt lat="43.57332" lon="3.73821">
        <ele>58.8</ele>
        <time>2021-04-13T09:18:35Z</time>
      </trkpt>
      <trkpt lat="43.57332" lon="3.73826">
        <ele>58.4</ele>
        <time>2021-04-13T09:18:36Z</time>
      </trkpt>
      <trkpt lat="43.57331" lon="3.73831">
        <ele>58.2</ele>
        <time>2021-04-13T09:18:37Z</time>
      </trkpt>
      <trkpt lat="43.57331" lon="3.73835">
        <ele>58</ele>
        <time>2021-04-13T09:18:38Z</time>
      </trkpt>
      <trkpt lat="43.57329" lon="3.7384">
        <ele>57.8</ele>
        <time>2021-04-13T09:18:39Z</time>
      </trkpt>
      <trkpt lat="43.57328" lon="3.73844">
        <ele>57.6</ele>
        <time>2021-04-13T09:18:40Z</time>
      </trkpt>
      <trkpt lat="43.57327" lon="3.73848">
        <ele>57.4</ele>
        <time>2021-04-13T09:18:41Z</time>
      </trkpt>
      <trkpt lat="43.57325" lon="3.73852">
        <ele>57.2</ele>
        <time>2021-04-13T09:18:42Z</time>
      </trkpt>
      <trkpt lat="43.57324" lon="3.73856">
        <ele>57</ele>
        <time>2021-04-13T09:18:43Z</time>
      </trkpt>
      <trkpt lat="43.57323" lon="3.7386">
        <ele>56.8</ele>
        <time>2021-04-13T09:18:44Z</time>
      </trkpt>
      <trkpt lat="43.57321" lon="3.73864">
        <ele>56.4</ele>
        <time>2021-04-13T09:18:45Z</time>
      </trkpt>
      <trkpt lat="43.57319" lon="3.73868">
        <ele>56.4</ele>
        <time>2021-04-13T09:18:46Z</time>
      </trkpt>
      <trkpt lat="43.57317" lon="3.73872">
        <ele>56.4</ele>
        <time>2021-04-13T09:18:47Z</time>
      </trkpt>
      <trkpt lat="43.57314" lon="3.73876">
        <ele>56</ele>
        <time>2021-04-13T09:18:48Z</time>
      </trkpt>
      <trkpt lat="43.57312" lon="3.7388">
        <ele>55.8</ele>
        <time>2021-04-13T09:18:49Z</time>
      </trkpt>
      <trkpt lat="43.57309" lon="3.73884">
        <ele>55.6</ele>
        <time>2021-04-13T09:18:50Z</time>
      </trkpt>
      <trkpt lat="43.57306" lon="3.73888">
        <ele>55.4</ele>
        <time>2021-04-13T09:18:51Z</time>
      </trkpt>
      <trkpt lat="43.57304" lon="3.73891">
        <ele>55.2</ele>
        <time>2021-04-13T09:18:52Z</time>
      </trkpt>
      <trkpt lat="43.57301" lon="3.73895">
        <ele>55</ele>
        <time>2021-04-13T09:18:53Z</time>
      </trkpt>
      <trkpt lat="43.57299" lon="3.73898">
        <ele>54.8</ele>
        <time>2021-04-13T09:18:54Z</time>
      </trkpt>
      <trkpt lat="43.57296" lon="3.73902">
        <ele>54.4</ele>
        <time>2021-04-13T09:18:55Z</time>
      </trkpt>
      <trkpt lat="43.57293" lon="3.73906">
        <ele>54.2</ele>
        <time>2021-04-13T09:18:56Z</time>
      </trkpt>
      <trkpt lat="43.5729" lon="3.7391">
        <ele>54</ele>
        <time>2021-04-13T09:18:57Z</time>
      </trkpt>
      <trkpt lat="43.57288" lon="3.73915">
        <ele>53.8</ele>
        <time>2021-04-13T09:18:58Z</time>
      </trkpt>
      <trkpt lat="43.57286" lon="3.7392">
        <ele>53.8</ele>
        <time>2021-04-13T09:18:59Z</time>
      </trkpt>
      <trkpt lat="43.57284" lon="3.73925">
        <ele>53.6</ele>
        <time>2021-04-13T09:19:00Z</time>
      </trkpt>
      <trkpt lat="43.57282" lon="3.7393">
        <ele>53.6</ele>
        <time>2021-04-13T09:19:01Z</time>
      </trkpt>
      <trkpt lat="43.57281" lon="3.73936">
        <ele>53.4</ele>
        <time>2021-04-13T09:19:02Z</time>
      </trkpt>
      <trkpt lat="43.57279" lon="3.73941">
        <ele>53.2</ele>
        <time>2021-04-13T09:19:03Z</time>
      </trkpt>
      <trkpt lat="43.57278" lon="3.73947">
        <ele>53.2</ele>
        <time>2021-04-13T09:19:04Z</time>
      </trkpt>
      <trkpt lat="43.57276" lon="3.73952">
        <ele>53</ele>
        <time>2021-04-13T09:19:05Z</time>
      </trkpt>
      <trkpt lat="43.57274" lon="3.73957">
        <ele>53</ele>
        <time>2021-04-13T09:19:06Z</time>
      </trkpt>
      <trkpt lat="43.57271" lon="3.73962">
        <ele>52.8</ele>
        <time>2021-04-13T09:19:07Z</time>
      </trkpt>
      <trkpt lat="43.57269" lon="3.73966">
        <ele>52.8</ele>
        <time>2021-04-13T09:19:08Z</time>
      </trkpt>
      <trkpt lat="43.57266" lon="3.73971">
        <ele>52.8</ele>
        <time>2021-04-13T09:19:09Z</time>
      </trkpt>
      <trkpt lat="43.57263" lon="3.73975">
        <ele>52.6</ele>
        <time>2021-04-13T09:19:10Z</time>
      </trkpt>
      <trkpt lat="43.5726" lon="3.73979">
        <ele>52.6</ele>
        <time>2021-04-13T09:19:11Z</time>
      </trkpt>
      <trkpt lat="43.57256" lon="3.73984">
        <ele>52.4</ele>
        <time>2021-04-13T09:19:12Z</time>
      </trkpt>
      <trkpt lat="43.57253" lon="3.73988">
        <ele>52.2</ele>
        <time>2021-04-13T09:19:13Z</time>
      </trkpt>
      <trkpt lat="43.57249" lon="3.73993">
        <ele>52</ele>
        <time>2021-04-13T09:19:14Z</time>
      </trkpt>
      <trkpt lat="43.57246" lon="3.73997">
        <ele>52</ele>
        <time>2021-04-13T09:19:15Z</time>
      </trkpt>
      <trkpt lat="43.57242" lon="3.74002">
        <ele>51.8</ele>
        <time>2021-04-13T09:19:16Z</time>
      </trkpt>
      <trkpt lat="43.57239" lon="3.74006">
        <ele>51.6</ele>
        <time>2021-04-13T09:19:17Z</time>
      </trkpt>
      <trkpt lat="43.57236" lon="3.74011">
        <ele>51.6</ele>
        <time>2021-04-13T09:19:18Z</time>
      </trkpt>
      <trkpt lat="43.57233" lon="3.74014">
        <ele>51.6</ele>
        <time>2021-04-13T09:19:19Z</time>
      </trkpt>
      <trkpt lat="43.5723" lon="3.74018">
        <ele>51.4</ele>
        <time>2021-04-13T09:19:20Z</time>
      </trkpt>
      <trkpt lat="43.57227" lon="3.74021">
        <ele>51.4</ele>
        <time>2021-04-13T09:19:21Z</time>
      </trkpt>
      <trkpt lat="43.57224" lon="3.74024">
        <ele>51.4</ele>
        <time>2021-04-13T09:19:22Z</time>
      </trkpt>
      <trkpt lat="43.57222" lon="3.74028">
        <ele>51.2</ele>
        <time>2021-04-13T09:19:23Z</time>
      </trkpt>
      <trkpt lat="43.5722" lon="3.74031">
        <ele>51</ele>
        <time>2021-04-13T09:19:24Z</time>
      </trkpt>
      <trkpt lat="43.57218" lon="3.74033">
        <ele>51</ele>
        <time>2021-04-13T09:19:25Z</time>
      </trkpt>
      <trkpt lat="43.57218" lon="3.74036">
        <ele>51.2</ele>
        <time>2021-04-13T09:19:26Z</time>
      </trkpt>
      <trkpt lat="43.57219" lon="3.74039">
        <ele>51</ele>
        <time>2021-04-13T09:19:27Z</time>
      </trkpt>
      <trkpt lat="43.5722" lon="3.74041">
        <ele>51</ele>
        <time>2021-04-13T09:19:28Z</time>
      </trkpt>
      <trkpt lat="43.57222" lon="3.74043">
        <ele>51.2</ele>
        <time>2021-04-13T09:19:29Z</time>
      </trkpt>
      <trkpt lat="43.57225" lon="3.74045">
        <ele>51.2</ele>
        <time>2021-04-13T09:19:30Z</time>
      </trkpt>
      <trkpt lat="43.57227" lon="3.74047">
        <ele>51.2</ele>
        <time>2021-04-13T09:19:31Z</time>
      </trkpt>
      <trkpt lat="43.57229" lon="3.7405">
        <ele>51.4</ele>
        <time>2021-04-13T09:19:32Z</time>
      </trkpt>
      <trkpt lat="43.57232" lon="3.74052">
        <ele>51.6</ele>
        <time>2021-04-13T09:19:33Z</time>
      </trkpt>
      <trkpt lat="43.57235" lon="3.74055">
        <ele>51.6</ele>
        <time>2021-04-13T09:19:34Z</time>
      </trkpt>
      <trkpt lat="43.57237" lon="3.74057">
        <ele>51.6</ele>
        <time>2021-04-13T09:19:35Z</time>
      </trkpt>
      <trkpt lat="43.5724" lon="3.7406">
        <ele>51.6</ele>
        <time>2021-04-13T09:19:36Z</time>
      </trkpt>
      <trkpt lat="43.57242" lon="3.74063">
        <ele>51.8</ele>
        <time>2021-04-13T09:19:37Z</time>
      </trkpt>
      <trkpt lat="43.57244" lon="3.74065">
        <ele>51.6</ele>
        <time>2021-04-13T09:19:38Z</time>
      </trkpt>
      <trkpt lat="43.57247" lon="3.74068">
        <ele>51.8</ele>
        <time>2021-04-13T09:19:39Z</time>
      </trkpt>
      <trkpt lat="43.57249" lon="3.74071">
        <ele>52</ele>
        <time>2021-04-13T09:19:40Z</time>
      </trkpt>
      <trkpt lat="43.57252" lon="3.74073">
        <ele>52</ele>
        <time>2021-04-13T09:19:41Z</time>
      </trkpt>
      <trkpt lat="43.57254" lon="3.74076">
        <ele>52</ele>
        <time>2021-04-13T09:19:42Z</time>
      </trkpt>
      <trkpt lat="43.57257" lon="3.74079">
        <ele>52</ele>
        <time>2021-04-13T09:19:43Z</time>
      </trkpt>
      <trkpt lat="43.57259" lon="3.74082">
        <ele>52</ele>
        <time>2021-04-13T09:19:44Z</time>
      </trkpt>
      <trkpt lat="43.57262" lon="3.74084">
        <ele>52</ele>
        <time>2021-04-13T09:19:45Z</time>
      </trkpt>
      <trkpt lat="43.57265" lon="3.74087">
        <ele>52</ele>
        <time>2021-04-13T09:19:46Z</time>
      </trkpt>
      <trkpt lat="43.57267" lon="3.7409">
        <ele>52.2</ele>
        <time>2021-04-13T09:19:47Z</time>
      </trkpt>
      <trkpt lat="43.57269" lon="3.74093">
        <ele>52</ele>
        <time>2021-04-13T09:19:48Z</time>
      </trkpt>
      <trkpt lat="43.57272" lon="3.74096">
        <ele>52</ele>
        <time>2021-04-13T09:19:49Z</time>
      </trkpt>
      <trkpt lat="43.57274" lon="3.74099">
        <ele>52</ele>
        <time>2021-04-13T09:19:50Z</time>
      </trkpt>
      <trkpt lat="43.57277" lon="3.74103">
        <ele>52.2</ele>
        <time>2021-04-13T09:19:51Z</time>
      </trkpt>
      <trkpt lat="43.57279" lon="3.74106">
        <ele>52.2</ele>
        <time>2021-04-13T09:19:52Z</time>
      </trkpt>
      <trkpt lat="43.57282" lon="3.7411">
        <ele>52</ele>
        <time>2021-04-13T09:19:53Z</time>
      </trkpt>
      <trkpt lat="43.57284" lon="3.74114">
        <ele>52.2</ele>
        <time>2021-04-13T09:19:54Z</time>
      </trkpt>
      <trkpt lat="43.57287" lon="3.74118">
        <ele>52.2</ele>
        <time>2021-04-13T09:19:55Z</time>
      </trkpt>
      <trkpt lat="43.57289" lon="3.74123">
        <ele>52</ele>
        <time>2021-04-13T09:19:56Z</time>
      </trkpt>
      <trkpt lat="43.57292" lon="3.74127">
        <ele>52</ele>
        <time>2021-04-13T09:19:57Z</time>
      </trkpt>
      <trkpt lat="43.57295" lon="3.74132">
        <ele>52</ele>
        <time>2021-04-13T09:19:58Z</time>
      </trkpt>
      <trkpt lat="43.57298" lon="3.74136">
        <ele>52</ele>
        <time>2021-04-13T09:19:59Z</time>
      </trkpt>
      <trkpt lat="43.573" lon="3.74141">
        <ele>51.8</ele>
        <time>2021-04-13T09:20:00Z</time>
      </trkpt>
      <trkpt lat="43.57303" lon="3.74145">
        <ele>51.8</ele>
        <time>2021-04-13T09:20:01Z</time>
      </trkpt>
      <trkpt lat="43.57306" lon="3.7415">
        <ele>51.8</ele>
        <time>2021-04-13T09:20:02Z</time>
      </trkpt>
      <trkpt lat="43.57309" lon="3.74154">
        <ele>51.8</ele>
        <time>2021-04-13T09:20:03Z</time>
      </trkpt>
      <trkpt lat="43.57311" lon="3.74159">
        <ele>52</ele>
        <time>2021-04-13T09:20:04Z</time>
      </trkpt>
      <trkpt lat="43.57314" lon="3.74163">
        <ele>52</ele>
        <time>2021-04-13T09:20:05Z</time>
      </trkpt>
      <trkpt lat="43.57317" lon="3.74168">
        <ele>52</ele>
        <time>2021-04-13T09:20:06Z</time>
      </trkpt>
      <trkpt lat="43.5732" lon="3.74172">
        <ele>52</ele>
        <time>2021-04-13T09:20:07Z</time>
      </trkpt>
      <trkpt lat="43.57322" lon="3.74177">
        <ele>52</ele>
        <time>2021-04-13T09:20:08Z</time>
      </trkpt>
      <trkpt lat="43.57325" lon="3.74181">
        <ele>52.2</ele>
        <time>2021-04-13T09:20:09Z</time>
      </trkpt>
      <trkpt lat="43.57327" lon="3.74186">
        <ele>52.2</ele>
        <time>2021-04-13T09:20:10Z</time>
      </trkpt>
      <trkpt lat="43.57329" lon="3.7419">
        <ele>52.2</ele>
        <time>2021-04-13T09:20:11Z</time>
      </trkpt>
      <trkpt lat="43.57332" lon="3.74195">
        <ele>52.2</ele>
        <time>2021-04-13T09:20:12Z</time>
      </trkpt>
      <trkpt lat="43.57335" lon="3.742">
        <ele>52.4</ele>
        <time>2021-04-13T09:20:13Z</time>
      </trkpt>
      <trkpt lat="43.57337" lon="3.74205">
        <ele>52.2</ele>
        <time>2021-04-13T09:20:14Z</time>
      </trkpt>
      <trkpt lat="43.57339" lon="3.7421">
        <ele>52.4</ele>
        <time>2021-04-13T09:20:15Z</time>
      </trkpt>
      <trkpt lat="43.57341" lon="3.74215">
        <ele>52.4</ele>
        <time>2021-04-13T09:20:16Z</time>
      </trkpt>
      <trkpt lat="43.57343" lon="3.74221">
        <ele>52.4</ele>
        <time>2021-04-13T09:20:17Z</time>
      </trkpt>
      <trkpt lat="43.57345" lon="3.74227">
        <ele>52.4</ele>
        <time>2021-04-13T09:20:18Z</time>
      </trkpt>
      <trkpt lat="43.57346" lon="3.74233">
        <ele>52.4</ele>
        <time>2021-04-13T09:20:19Z</time>
      </trkpt>
      <trkpt lat="43.57347" lon="3.74239">
        <ele>52.4</ele>
        <time>2021-04-13T09:20:20Z</time>
      </trkpt>
      <trkpt lat="43.57348" lon="3.74245">
        <ele>52.4</ele>
        <time>2021-04-13T09:20:21Z</time>
      </trkpt>
      <trkpt lat="43.57348" lon="3.74252">
        <ele>52.4</ele>
        <time>2021-04-13T09:20:22Z</time>
      </trkpt>
      <trkpt lat="43.57349" lon="3.74258">
        <ele>52.4</ele>
        <time>2021-04-13T09:20:23Z</time>
      </trkpt>
      <trkpt lat="43.57349" lon="3.74265">
        <ele>52.2</ele>
        <time>2021-04-13T09:20:24Z</time>
      </trkpt>
      <trkpt lat="43.5735" lon="3.74271">
        <ele>52.2</ele>
        <time>2021-04-13T09:20:25Z</time>
      </trkpt>
      <trkpt lat="43.57351" lon="3.74278">
        <ele>52.2</ele>
        <time>2021-04-13T09:20:26Z</time>
      </trkpt>
      <trkpt lat="43.57352" lon="3.74284">
        <ele>52.4</ele>
        <time>2021-04-13T09:20:27Z</time>
      </trkpt>
      <trkpt lat="43.57354" lon="3.7429">
        <ele>52.4</ele>
        <time>2021-04-13T09:20:28Z</time>
      </trkpt>
      <trkpt lat="43.57355" lon="3.74296">
        <ele>52.6</ele>
        <time>2021-04-13T09:20:29Z</time>
      </trkpt>
      <trkpt lat="43.57357" lon="3.74302">
        <ele>52.6</ele>
        <time>2021-04-13T09:20:30Z</time>
      </trkpt>
      <trkpt lat="43.57358" lon="3.74309">
        <ele>52.6</ele>
        <time>2021-04-13T09:20:31Z</time>
      </trkpt>
      <trkpt lat="43.5736" lon="3.74314">
        <ele>52.6</ele>
        <time>2021-04-13T09:20:32Z</time>
      </trkpt>
      <trkpt lat="43.57361" lon="3.7432">
        <ele>52.6</ele>
        <time>2021-04-13T09:20:33Z</time>
      </trkpt>
      <trkpt lat="43.57363" lon="3.74326">
        <ele>52.6</ele>
        <time>2021-04-13T09:20:34Z</time>
      </trkpt>
      <trkpt lat="43.57364" lon="3.74332">
        <ele>52.6</ele>
        <time>2021-04-13T09:20:35Z</time>
      </trkpt>
      <trkpt lat="43.57365" lon="3.74338">
        <ele>52.6</ele>
        <time>2021-04-13T09:20:36Z</time>
      </trkpt>
      <trkpt lat="43.57366" lon="3.74344">
        <ele>52.4</ele>
        <time>2021-04-13T09:20:37Z</time>
      </trkpt>
      <trkpt lat="43.57368" lon="3.7435">
        <ele>52.4</ele>
        <time>2021-04-13T09:20:38Z</time>
      </trkpt>
      <trkpt lat="43.57369" lon="3.74356">
        <ele>52.4</ele>
        <time>2021-04-13T09:20:39Z</time>
      </trkpt>
      <trkpt lat="43.57371" lon="3.74363">
        <ele>52.2</ele>
        <time>2021-04-13T09:20:40Z</time>
      </trkpt>
      <trkpt lat="43.57372" lon="3.74369">
        <ele>52.2</ele>
        <time>2021-04-13T09:20:41Z</time>
      </trkpt>
      <trkpt lat="43.57374" lon="3.74376">
        <ele>52.2</ele>
        <time>2021-04-13T09:20:42Z</time>
      </trkpt>
      <trkpt lat="43.57375" lon="3.74382">
        <ele>52</ele>
        <time>2021-04-13T09:20:43Z</time>
      </trkpt>
      <trkpt lat="43.57377" lon="3.74388">
        <ele>52</ele>
        <time>2021-04-13T09:20:44Z</time>
      </trkpt>
      <trkpt lat="43.57378" lon="3.74395">
        <ele>52</ele>
        <time>2021-04-13T09:20:45Z</time>
      </trkpt>
      <trkpt lat="43.5738" lon="3.74401">
        <ele>51.8</ele>
        <time>2021-04-13T09:20:46Z</time>
      </trkpt>
      <trkpt lat="43.57382" lon="3.74408">
        <ele>51.8</ele>
        <time>2021-04-13T09:20:47Z</time>
      </trkpt>
      <trkpt lat="43.57383" lon="3.74414">
        <ele>51.8</ele>
        <time>2021-04-13T09:20:48Z</time>
      </trkpt>
      <trkpt lat="43.57385" lon="3.7442">
        <ele>51.8</ele>
        <time>2021-04-13T09:20:49Z</time>
      </trkpt>
      <trkpt lat="43.57387" lon="3.74427">
        <ele>51.6</ele>
        <time>2021-04-13T09:20:50Z</time>
      </trkpt>
      <trkpt lat="43.57389" lon="3.74433">
        <ele>51.6</ele>
        <time>2021-04-13T09:20:51Z</time>
      </trkpt>
      <trkpt lat="43.57391" lon="3.74439">
        <ele>51.6</ele>
        <time>2021-04-13T09:20:52Z</time>
      </trkpt>
      <trkpt lat="43.57393" lon="3.74445">
        <ele>51.6</ele>
        <time>2021-04-13T09:20:53Z</time>
      </trkpt>
      <trkpt lat="43.57395" lon="3.74451">
        <ele>51.6</ele>
        <time>2021-04-13T09:20:54Z</time>
      </trkpt>
      <trkpt lat="43.57397" lon="3.74457">
        <ele>51.6</ele>
        <time>2021-04-13T09:20:55Z</time>
      </trkpt>
      <trkpt lat="43.57399" lon="3.74463">
        <ele>51.6</ele>
        <time>2021-04-13T09:20:56Z</time>
      </trkpt>
      <trkpt lat="43.57402" lon="3.74468">
        <ele>51.6</ele>
        <time>2021-04-13T09:20:57Z</time>
      </trkpt>
      <trkpt lat="43.57404" lon="3.74474">
        <ele>51.6</ele>
        <time>2021-04-13T09:20:58Z</time>
      </trkpt>
      <trkpt lat="43.57406" lon="3.7448">
        <ele>51.6</ele>
        <time>2021-04-13T09:20:59Z</time>
      </trkpt>
      <trkpt lat="43.57408" lon="3.74485">
        <ele>51.8</ele>
        <time>2021-04-13T09:21:00Z</time>
      </trkpt>
      <trkpt lat="43.57411" lon="3.74491">
        <ele>51.8</ele>
        <time>2021-04-13T09:21:01Z</time>
      </trkpt>
      <trkpt lat="43.57413" lon="3.74497">
        <ele>51.8</ele>
        <time>2021-04-13T09:21:02Z</time>
      </trkpt>
      <trkpt lat="43.57416" lon="3.74502">
        <ele>52</ele>
        <time>2021-04-13T09:21:03Z</time>
      </trkpt>
      <trkpt lat="43.57418" lon="3.74508">
        <ele>52</ele>
        <time>2021-04-13T09:21:04Z</time>
      </trkpt>
      <trkpt lat="43.57421" lon="3.74513">
        <ele>51.8</ele>
        <time>2021-04-13T09:21:05Z</time>
      </trkpt>
      <trkpt lat="43.57424" lon="3.74519">
        <ele>51.8</ele>
        <time>2021-04-13T09:21:06Z</time>
      </trkpt>
      <trkpt lat="43.57426" lon="3.74524">
        <ele>51.8</ele>
        <time>2021-04-13T09:21:07Z</time>
      </trkpt>
      <trkpt lat="43.57429" lon="3.74529">
        <ele>51.8</ele>
        <time>2021-04-13T09:21:08Z</time>
      </trkpt>
      <trkpt lat="43.57432" lon="3.74534">
        <ele>51.8</ele>
        <time>2021-04-13T09:21:09Z</time>
      </trkpt>
      <trkpt lat="43.57435" lon="3.7454">
        <ele>51.8</ele>
        <time>2021-04-13T09:21:10Z</time>
      </trkpt>
      <trkpt lat="43.57438" lon="3.74545">
        <ele>51.8</ele>
        <time>2021-04-13T09:21:11Z</time>
      </trkpt>
      <trkpt lat="43.57441" lon="3.7455">
        <ele>51.8</ele>
        <time>2021-04-13T09:21:12Z</time>
      </trkpt>
      <trkpt lat="43.57444" lon="3.74556">
        <ele>51.6</ele>
        <time>2021-04-13T09:21:13Z</time>
      </trkpt>
      <trkpt lat="43.57447" lon="3.74561">
        <ele>51.6</ele>
        <time>2021-04-13T09:21:14Z</time>
      </trkpt>
      <trkpt lat="43.5745" lon="3.74567">
        <ele>51.6</ele>
        <time>2021-04-13T09:21:15Z</time>
      </trkpt>
      <trkpt lat="43.57453" lon="3.74572">
        <ele>51.6</ele>
        <time>2021-04-13T09:21:16Z</time>
      </trkpt>
      <trkpt lat="43.57457" lon="3.74578">
        <ele>51.6</ele>
        <time>2021-04-13T09:21:17Z</time>
      </trkpt>
      <trkpt lat="43.5746" lon="3.74583">
        <ele>51.6</ele>
        <time>2021-04-13T09:21:18Z</time>
      </trkpt>
      <trkpt lat="43.57466" lon="3.74595">
        <ele>51.6</ele>
        <time>2021-04-13T09:21:19Z</time>
      </trkpt>
      <trkpt lat="43.57466" lon="3.74595">
        <ele>51.6</ele>
        <time>2021-04-13T09:21:20Z</time>
      </trkpt>
      <trkpt lat="43.57469" lon="3.74601">
        <ele>51.6</ele>
        <time>2021-04-13T09:21:21Z</time>
      </trkpt>
      <trkpt lat="43.57473" lon="3.74607">
        <ele>51.6</ele>
        <time>2021-04-13T09:21:22Z</time>
      </trkpt>
      <trkpt lat="43.57476" lon="3.74612">
        <ele>51.4</ele>
        <time>2021-04-13T09:21:23Z</time>
      </trkpt>
      <trkpt lat="43.57479" lon="3.74618">
        <ele>51.4</ele>
        <time>2021-04-13T09:21:24Z</time>
      </trkpt>
      <trkpt lat="43.57482" lon="3.74624">
        <ele>51.4</ele>
        <time>2021-04-13T09:21:25Z</time>
      </trkpt>
      <trkpt lat="43.57486" lon="3.74629">
        <ele>51.2</ele>
        <time>2021-04-13T09:21:26Z</time>
      </trkpt>
      <trkpt lat="43.57489" lon="3.74635">
        <ele>51.2</ele>
        <time>2021-04-13T09:21:27Z</time>
      </trkpt>
      <trkpt lat="43.57492" lon="3.7464">
        <ele>51.2</ele>
        <time>2021-04-13T09:21:28Z</time>
      </trkpt>
      <trkpt lat="43.57495" lon="3.74646">
        <ele>51.4</ele>
        <time>2021-04-13T09:21:29Z</time>
      </trkpt>
      <trkpt lat="43.57498" lon="3.74651">
        <ele>51.2</ele>
        <time>2021-04-13T09:21:30Z</time>
      </trkpt>
      <trkpt lat="43.57501" lon="3.74657">
        <ele>51.2</ele>
        <time>2021-04-13T09:21:31Z</time>
      </trkpt>
      <trkpt lat="43.57504" lon="3.74662">
        <ele>51.2</ele>
        <time>2021-04-13T09:21:32Z</time>
      </trkpt>
      <trkpt lat="43.57506" lon="3.74668">
        <ele>51</ele>
        <time>2021-04-13T09:21:33Z</time>
      </trkpt>
      <trkpt lat="43.57508" lon="3.74674">
        <ele>51.2</ele>
        <time>2021-04-13T09:21:34Z</time>
      </trkpt>
      <trkpt lat="43.57509" lon="3.74681">
        <ele>51</ele>
        <time>2021-04-13T09:21:35Z</time>
      </trkpt>
      <trkpt lat="43.57511" lon="3.74687">
        <ele>51.4</ele>
        <time>2021-04-13T09:21:36Z</time>
      </trkpt>
      <trkpt lat="43.57513" lon="3.74693">
        <ele>51</ele>
        <time>2021-04-13T09:21:37Z</time>
      </trkpt>
      <trkpt lat="43.57515" lon="3.74698">
        <ele>50.8</ele>
        <time>2021-04-13T09:21:38Z</time>
      </trkpt>
      <trkpt lat="43.57518" lon="3.74703">
        <ele>51</ele>
        <time>2021-04-13T09:21:39Z</time>
      </trkpt>
      <trkpt lat="43.57521" lon="3.74708">
        <ele>50.8</ele>
        <time>2021-04-13T09:21:40Z</time>
      </trkpt>
      <trkpt lat="43.57524" lon="3.74713">
        <ele>50.8</ele>
        <time>2021-04-13T09:21:41Z</time>
      </trkpt>
      <trkpt lat="43.57528" lon="3.74718">
        <ele>50.8</ele>
        <time>2021-04-13T09:21:42Z</time>
      </trkpt>
      <trkpt lat="43.57531" lon="3.74723">
        <ele>50.8</ele>
        <time>2021-04-13T09:21:43Z</time>
      </trkpt>
      <trkpt lat="43.57534" lon="3.74728">
        <ele>50.8</ele>
        <time>2021-04-13T09:21:44Z</time>
      </trkpt>
      <trkpt lat="43.57536" lon="3.74734">
        <ele>50.6</ele>
        <time>2021-04-13T09:21:45Z</time>
      </trkpt>
      <trkpt lat="43.57541" lon="3.74746">
        <ele>50.6</ele>
        <time>2021-04-13T09:21:46Z</time>
      </trkpt>
      <trkpt lat="43.57541" lon="3.74746">
        <ele>50.6</ele>
        <time>2021-04-13T09:21:47Z</time>
      </trkpt>
      <trkpt lat="43.57543" lon="3.74752">
        <ele>50.6</ele>
        <time>2021-04-13T09:21:48Z</time>
      </trkpt>
      <trkpt lat="43.57545" lon="3.74758">
        <ele>50.6</ele>
        <time>2021-04-13T09:21:49Z</time>
      </trkpt>
      <trkpt lat="43.57549" lon="3.7477">
        <ele>50.6</ele>
        <time>2021-04-13T09:21:50Z</time>
      </trkpt>
      <trkpt lat="43.57549" lon="3.7477">
        <ele>50.6</ele>
        <time>2021-04-13T09:21:51Z</time>
      </trkpt>
      <trkpt lat="43.57551" lon="3.74776">
        <ele>50.6</ele>
        <time>2021-04-13T09:21:52Z</time>
      </trkpt>
      <trkpt lat="43.57552" lon="3.74782">
        <ele>50.4</ele>
        <time>2021-04-13T09:21:53Z</time>
      </trkpt>
      <trkpt lat="43.57556" lon="3.74794">
        <ele>50.4</ele>
        <time>2021-04-13T09:21:54Z</time>
      </trkpt>
      <trkpt lat="43.57556" lon="3.74794">
        <ele>50.6</ele>
        <time>2021-04-13T09:21:55Z</time>
      </trkpt>
      <trkpt lat="43.57558" lon="3.748">
        <ele>50.6</ele>
        <time>2021-04-13T09:21:56Z</time>
      </trkpt>
      <trkpt lat="43.5756" lon="3.74805">
        <ele>50.6</ele>
        <time>2021-04-13T09:21:57Z</time>
      </trkpt>
      <trkpt lat="43.57561" lon="3.74811">
        <ele>50.6</ele>
        <time>2021-04-13T09:21:58Z</time>
      </trkpt>
      <trkpt lat="43.57563" lon="3.74817">
        <ele>50.4</ele>
        <time>2021-04-13T09:21:59Z</time>
      </trkpt>
      <trkpt lat="43.57565" lon="3.74823">
        <ele>50.4</ele>
        <time>2021-04-13T09:22:00Z</time>
      </trkpt>
      <trkpt lat="43.57566" lon="3.74828">
        <ele>50.4</ele>
        <time>2021-04-13T09:22:01Z</time>
      </trkpt>
      <trkpt lat="43.57568" lon="3.74834">
        <ele>50.4</ele>
        <time>2021-04-13T09:22:02Z</time>
      </trkpt>
      <trkpt lat="43.5757" lon="3.7484">
        <ele>50.2</ele>
        <time>2021-04-13T09:22:03Z</time>
      </trkpt>
      <trkpt lat="43.57572" lon="3.74846">
        <ele>50.2</ele>
        <time>2021-04-13T09:22:04Z</time>
      </trkpt>
      <trkpt lat="43.57574" lon="3.74852">
        <ele>50.2</ele>
        <time>2021-04-13T09:22:05Z</time>
      </trkpt>
      <trkpt lat="43.57576" lon="3.74858">
        <ele>50.2</ele>
        <time>2021-04-13T09:22:06Z</time>
      </trkpt>
      <trkpt lat="43.57579" lon="3.74871">
        <ele>50.2</ele>
        <time>2021-04-13T09:22:07Z</time>
      </trkpt>
      <trkpt lat="43.57579" lon="3.74871">
        <ele>50</ele>
        <time>2021-04-13T09:22:08Z</time>
      </trkpt>
      <trkpt lat="43.57583" lon="3.74883">
        <ele>49.8</ele>
        <time>2021-04-13T09:22:09Z</time>
      </trkpt>
      <trkpt lat="43.57583" lon="3.74883">
        <ele>49.8</ele>
        <time>2021-04-13T09:22:10Z</time>
      </trkpt>
      <trkpt lat="43.57585" lon="3.7489">
        <ele>49.6</ele>
        <time>2021-04-13T09:22:11Z</time>
      </trkpt>
      <trkpt lat="43.57587" lon="3.74896">
        <ele>49.6</ele>
        <time>2021-04-13T09:22:12Z</time>
      </trkpt>
      <trkpt lat="43.57589" lon="3.74902">
        <ele>49.6</ele>
        <time>2021-04-13T09:22:13Z</time>
      </trkpt>
      <trkpt lat="43.57591" lon="3.74909">
        <ele>49.6</ele>
        <time>2021-04-13T09:22:14Z</time>
      </trkpt>
      <trkpt lat="43.57595" lon="3.74922">
        <ele>49.4</ele>
        <time>2021-04-13T09:22:15Z</time>
      </trkpt>
      <trkpt lat="43.57595" lon="3.74922">
        <ele>49.4</ele>
        <time>2021-04-13T09:22:16Z</time>
      </trkpt>
      <trkpt lat="43.57597" lon="3.74928">
        <ele>49.2</ele>
        <time>2021-04-13T09:22:17Z</time>
      </trkpt>
      <trkpt lat="43.576" lon="3.74941">
        <ele>49.2</ele>
        <time>2021-04-13T09:22:18Z</time>
      </trkpt>
      <trkpt lat="43.576" lon="3.74941">
        <ele>49</ele>
        <time>2021-04-13T09:22:19Z</time>
      </trkpt>
      <trkpt lat="43.57604" lon="3.74955">
        <ele>49</ele>
        <time>2021-04-13T09:22:20Z</time>
      </trkpt>
      <trkpt lat="43.57604" lon="3.74955">
        <ele>49</ele>
        <time>2021-04-13T09:22:21Z</time>
      </trkpt>
      <trkpt lat="43.57606" lon="3.74961">
        <ele>48.8</ele>
        <time>2021-04-13T09:22:22Z</time>
      </trkpt>
      <trkpt lat="43.57608" lon="3.74968">
        <ele>48.8</ele>
        <time>2021-04-13T09:22:23Z</time>
      </trkpt>
      <trkpt lat="43.57612" lon="3.74981">
        <ele>48.6</ele>
        <time>2021-04-13T09:22:24Z</time>
      </trkpt>
      <trkpt lat="43.57614" lon="3.74987">
        <ele>48.4</ele>
        <time>2021-04-13T09:22:25Z</time>
      </trkpt>
      <trkpt lat="43.57614" lon="3.74987">
        <ele>48.2</ele>
        <time>2021-04-13T09:22:26Z</time>
      </trkpt>
      <trkpt lat="43.57616" lon="3.74994">
        <ele>48</ele>
        <time>2021-04-13T09:22:27Z</time>
      </trkpt>
      <trkpt lat="43.57619" lon="3.75">
        <ele>47.8</ele>
        <time>2021-04-13T09:22:28Z</time>
      </trkpt>
      <trkpt lat="43.57621" lon="3.75007">
        <ele>47.8</ele>
        <time>2021-04-13T09:22:29Z</time>
      </trkpt>
      <trkpt lat="43.57626" lon="3.7502">
        <ele>47.8</ele>
        <time>2021-04-13T09:22:30Z</time>
      </trkpt>
      <trkpt lat="43.57628" lon="3.75027">
        <ele>47.6</ele>
        <time>2021-04-13T09:22:31Z</time>
      </trkpt>
      <trkpt lat="43.57628" lon="3.75027">
        <ele>47.6</ele>
        <time>2021-04-13T09:22:32Z</time>
      </trkpt>
      <trkpt lat="43.57631" lon="3.75033">
        <ele>47.6</ele>
        <time>2021-04-13T09:22:33Z</time>
      </trkpt>
      <trkpt lat="43.57633" lon="3.75039">
        <ele>47.4</ele>
        <time>2021-04-13T09:22:34Z</time>
      </trkpt>
      <trkpt lat="43.57638" lon="3.75052">
        <ele>47.4</ele>
        <time>2021-04-13T09:22:35Z</time>
      </trkpt>
      <trkpt lat="43.57638" lon="3.75052">
        <ele>47.4</ele>
        <time>2021-04-13T09:22:36Z</time>
      </trkpt>
      <trkpt lat="43.5764" lon="3.75058">
        <ele>47.4</ele>
        <time>2021-04-13T09:22:37Z</time>
      </trkpt>
      <trkpt lat="43.57643" lon="3.75064">
        <ele>47.2</ele>
        <time>2021-04-13T09:22:38Z</time>
      </trkpt>
      <trkpt lat="43.57646" lon="3.7507">
        <ele>47.2</ele>
        <time>2021-04-13T09:22:39Z</time>
      </trkpt>
      <trkpt lat="43.57648" lon="3.75075">
        <ele>47</ele>
        <time>2021-04-13T09:22:40Z</time>
      </trkpt>
      <trkpt lat="43.57651" lon="3.75081">
        <ele>46.8</ele>
        <time>2021-04-13T09:22:41Z</time>
      </trkpt>
      <trkpt lat="43.57653" lon="3.75087">
        <ele>46.8</ele>
        <time>2021-04-13T09:22:42Z</time>
      </trkpt>
      <trkpt lat="43.57658" lon="3.75099">
        <ele>47</ele>
        <time>2021-04-13T09:22:43Z</time>
      </trkpt>
      <trkpt lat="43.57658" lon="3.75099">
        <ele>46.8</ele>
        <time>2021-04-13T09:22:44Z</time>
      </trkpt>
      <trkpt lat="43.57663" lon="3.7511">
        <ele>46.8</ele>
        <time>2021-04-13T09:22:45Z</time>
      </trkpt>
      <trkpt lat="43.57663" lon="3.7511">
        <ele>46.8</ele>
        <time>2021-04-13T09:22:46Z</time>
      </trkpt>
      <trkpt lat="43.57669" lon="3.75122">
        <ele>46.6</ele>
        <time>2021-04-13T09:22:47Z</time>
      </trkpt>
      <trkpt lat="43.57671" lon="3.75128">
        <ele>46.6</ele>
        <time>2021-04-13T09:22:48Z</time>
      </trkpt>
      <trkpt lat="43.57671" lon="3.75128">
        <ele>46.4</ele>
        <time>2021-04-13T09:22:49Z</time>
      </trkpt>
      <trkpt lat="43.57674" lon="3.75133">
        <ele>46.4</ele>
        <time>2021-04-13T09:22:50Z</time>
      </trkpt>
      <trkpt lat="43.57679" lon="3.75144">
        <ele>46.4</ele>
        <time>2021-04-13T09:22:51Z</time>
      </trkpt>
      <trkpt lat="43.57679" lon="3.75144">
        <ele>46</ele>
        <time>2021-04-13T09:22:52Z</time>
      </trkpt>
      <trkpt lat="43.57681" lon="3.7515">
        <ele>46</ele>
        <time>2021-04-13T09:22:53Z</time>
      </trkpt>
      <trkpt lat="43.57686" lon="3.75161">
        <ele>46</ele>
        <time>2021-04-13T09:22:54Z</time>
      </trkpt>
      <trkpt lat="43.57689" lon="3.75167">
        <ele>46.2</ele>
        <time>2021-04-13T09:22:55Z</time>
      </trkpt>
      <trkpt lat="43.57689" lon="3.75167">
        <ele>46</ele>
        <time>2021-04-13T09:22:56Z</time>
      </trkpt>
      <trkpt lat="43.57691" lon="3.75172">
        <ele>45.8</ele>
        <time>2021-04-13T09:22:57Z</time>
      </trkpt>
      <trkpt lat="43.57694" lon="3.75184">
        <ele>45.6</ele>
        <time>2021-04-13T09:22:58Z</time>
      </trkpt>
      <trkpt lat="43.57696" lon="3.7519">
        <ele>45.6</ele>
        <time>2021-04-13T09:22:59Z</time>
      </trkpt>
      <trkpt lat="43.57696" lon="3.7519">
        <ele>45.8</ele>
        <time>2021-04-13T09:23:00Z</time>
      </trkpt>
      <trkpt lat="43.57698" lon="3.75197">
        <ele>45.8</ele>
        <time>2021-04-13T09:23:01Z</time>
      </trkpt>
      <trkpt lat="43.57702" lon="3.75208">
        <ele>45.8</ele>
        <time>2021-04-13T09:23:02Z</time>
      </trkpt>
      <trkpt lat="43.57702" lon="3.75208">
        <ele>45.8</ele>
        <time>2021-04-13T09:23:03Z</time>
      </trkpt>
      <trkpt lat="43.57704" lon="3.75214">
        <ele>45.6</ele>
        <time>2021-04-13T09:23:04Z</time>
      </trkpt>
      <trkpt lat="43.57709" lon="3.75224">
        <ele>45.6</ele>
        <time>2021-04-13T09:23:05Z</time>
      </trkpt>
      <trkpt lat="43.57712" lon="3.7523">
        <ele>45.6</ele>
        <time>2021-04-13T09:23:06Z</time>
      </trkpt>
      <trkpt lat="43.57712" lon="3.7523">
        <ele>45.6</ele>
        <time>2021-04-13T09:23:07Z</time>
      </trkpt>
      <trkpt lat="43.57714" lon="3.75235">
        <ele>45.6</ele>
        <time>2021-04-13T09:23:08Z</time>
      </trkpt>
      <trkpt lat="43.57717" lon="3.7524">
        <ele>45.6</ele>
        <time>2021-04-13T09:23:09Z</time>
      </trkpt>
      <trkpt lat="43.57721" lon="3.75251">
        <ele>45.6</ele>
        <time>2021-04-13T09:23:10Z</time>
      </trkpt>
      <trkpt lat="43.57721" lon="3.75251">
        <ele>45.6</ele>
        <time>2021-04-13T09:23:11Z</time>
      </trkpt>
      <trkpt lat="43.57726" lon="3.75262">
        <ele>45.8</ele>
        <time>2021-04-13T09:23:12Z</time>
      </trkpt>
      <trkpt lat="43.57729" lon="3.75267">
        <ele>45.8</ele>
        <time>2021-04-13T09:23:13Z</time>
      </trkpt>
      <trkpt lat="43.57731" lon="3.75272">
        <ele>45.8</ele>
        <time>2021-04-13T09:23:14Z</time>
      </trkpt>
      <trkpt lat="43.57734" lon="3.75277">
        <ele>45.8</ele>
        <time>2021-04-13T09:23:15Z</time>
      </trkpt>
      <trkpt lat="43.57734" lon="3.75277">
        <ele>45.6</ele>
        <time>2021-04-13T09:23:16Z</time>
      </trkpt>
      <trkpt lat="43.5774" lon="3.75287">
        <ele>45.8</ele>
        <time>2021-04-13T09:23:17Z</time>
      </trkpt>
      <trkpt lat="43.57743" lon="3.75292">
        <ele>45.8</ele>
        <time>2021-04-13T09:23:18Z</time>
      </trkpt>
      <trkpt lat="43.57746" lon="3.75297">
        <ele>45.8</ele>
        <time>2021-04-13T09:23:19Z</time>
      </trkpt>
      <trkpt lat="43.57746" lon="3.75297">
        <ele>46</ele>
        <time>2021-04-13T09:23:20Z</time>
      </trkpt>
      <trkpt lat="43.57748" lon="3.75303">
        <ele>46.2</ele>
        <time>2021-04-13T09:23:21Z</time>
      </trkpt>
      <trkpt lat="43.57753" lon="3.75313">
        <ele>46.4</ele>
        <time>2021-04-13T09:23:22Z</time>
      </trkpt>
      <trkpt lat="43.57755" lon="3.75318">
        <ele>46.2</ele>
        <time>2021-04-13T09:23:23Z</time>
      </trkpt>
      <trkpt lat="43.57758" lon="3.75323">
        <ele>46.4</ele>
        <time>2021-04-13T09:23:24Z</time>
      </trkpt>
      <trkpt lat="43.57758" lon="3.75323">
        <ele>46.4</ele>
        <time>2021-04-13T09:23:25Z</time>
      </trkpt>
      <trkpt lat="43.5776" lon="3.75328">
        <ele>46.4</ele>
        <time>2021-04-13T09:23:26Z</time>
      </trkpt>
      <trkpt lat="43.57766" lon="3.75335">
        <ele>46.4</ele>
        <time>2021-04-13T09:23:27Z</time>
      </trkpt>
      <trkpt lat="43.5777" lon="3.75339">
        <ele>46.4</ele>
        <time>2021-04-13T09:23:28Z</time>
      </trkpt>
      <trkpt lat="43.5777" lon="3.75339">
        <ele>46.4</ele>
        <time>2021-04-13T09:23:29Z</time>
      </trkpt>
      <trkpt lat="43.57773" lon="3.75342">
        <ele>46.4</ele>
        <time>2021-04-13T09:23:30Z</time>
      </trkpt>
      <trkpt lat="43.57779" lon="3.75352">
        <ele>46.2</ele>
        <time>2021-04-13T09:23:31Z</time>
      </trkpt>
      <trkpt lat="43.5778" lon="3.75358">
        <ele>46.2</ele>
        <time>2021-04-13T09:23:32Z</time>
      </trkpt>
      <trkpt lat="43.57781" lon="3.75364">
        <ele>46.2</ele>
        <time>2021-04-13T09:23:33Z</time>
      </trkpt>
      <trkpt lat="43.57782" lon="3.7537">
        <ele>46.4</ele>
        <time>2021-04-13T09:23:34Z</time>
      </trkpt>
      <trkpt lat="43.57782" lon="3.75375">
        <ele>46.6</ele>
        <time>2021-04-13T09:23:35Z</time>
      </trkpt>
      <trkpt lat="43.57783" lon="3.7538">
        <ele>46.4</ele>
        <time>2021-04-13T09:23:36Z</time>
      </trkpt>
      <trkpt lat="43.57785" lon="3.75386">
        <ele>46.6</ele>
        <time>2021-04-13T09:23:37Z</time>
      </trkpt>
      <trkpt lat="43.57787" lon="3.75391">
        <ele>46.6</ele>
        <time>2021-04-13T09:23:38Z</time>
      </trkpt>
      <trkpt lat="43.57789" lon="3.75396">
        <ele>46.6</ele>
        <time>2021-04-13T09:23:39Z</time>
      </trkpt>
      <trkpt lat="43.57791" lon="3.75401">
        <ele>46.6</ele>
        <time>2021-04-13T09:23:40Z</time>
      </trkpt>
      <trkpt lat="43.57793" lon="3.75406">
        <ele>46.8</ele>
        <time>2021-04-13T09:23:41Z</time>
      </trkpt>
      <trkpt lat="43.57795" lon="3.75412">
        <ele>46.8</ele>
        <time>2021-04-13T09:23:42Z</time>
      </trkpt>
      <trkpt lat="43.57795" lon="3.75412">
        <ele>46.8</ele>
        <time>2021-04-13T09:23:43Z</time>
      </trkpt>
      <trkpt lat="43.57799" lon="3.75421">
        <ele>46.8</ele>
        <time>2021-04-13T09:23:44Z</time>
      </trkpt>
      <trkpt lat="43.57801" lon="3.75426">
        <ele>46.8</ele>
        <time>2021-04-13T09:23:45Z</time>
      </trkpt>
      <trkpt lat="43.57803" lon="3.75431">
        <ele>47</ele>
        <time>2021-04-13T09:23:46Z</time>
      </trkpt>
      <trkpt lat="43.57803" lon="3.75431">
        <ele>47.2</ele>
        <time>2021-04-13T09:23:47Z</time>
      </trkpt>
      <trkpt lat="43.57807" lon="3.75441">
        <ele>47.6</ele>
        <time>2021-04-13T09:23:48Z</time>
      </trkpt>
      <trkpt lat="43.57809" lon="3.75445">
        <ele>47.6</ele>
        <time>2021-04-13T09:23:49Z</time>
      </trkpt>
      <trkpt lat="43.57811" lon="3.7545">
        <ele>47.4</ele>
        <time>2021-04-13T09:23:50Z</time>
      </trkpt>
      <trkpt lat="43.57811" lon="3.7545">
        <ele>47.2</ele>
        <time>2021-04-13T09:23:51Z</time>
      </trkpt>
      <trkpt lat="43.57814" lon="3.7546">
        <ele>47.2</ele>
        <time>2021-04-13T09:23:52Z</time>
      </trkpt>
      <trkpt lat="43.57816" lon="3.75464">
        <ele>47.2</ele>
        <time>2021-04-13T09:23:53Z</time>
      </trkpt>
      <trkpt lat="43.57818" lon="3.75469">
        <ele>47.4</ele>
        <time>2021-04-13T09:23:54Z</time>
      </trkpt>
      <trkpt lat="43.57819" lon="3.75474">
        <ele>47.2</ele>
        <time>2021-04-13T09:23:55Z</time>
      </trkpt>
      <trkpt lat="43.57821" lon="3.75478">
        <ele>47.2</ele>
        <time>2021-04-13T09:23:56Z</time>
      </trkpt>
      <trkpt lat="43.57823" lon="3.75483">
        <ele>47.2</ele>
        <time>2021-04-13T09:23:57Z</time>
      </trkpt>
      <trkpt lat="43.57825" lon="3.75488">
        <ele>47.4</ele>
        <time>2021-04-13T09:23:58Z</time>
      </trkpt>
      <trkpt lat="43.57826" lon="3.75492">
        <ele>47.4</ele>
        <time>2021-04-13T09:23:59Z</time>
      </trkpt>
      <trkpt lat="43.57826" lon="3.75492">
        <ele>47.4</ele>
        <time>2021-04-13T09:24:00Z</time>
      </trkpt>
      <trkpt lat="43.5783" lon="3.75502">
        <ele>47.6</ele>
        <time>2021-04-13T09:24:01Z</time>
      </trkpt>
      <trkpt lat="43.57831" lon="3.75507">
        <ele>47.4</ele>
        <time>2021-04-13T09:24:02Z</time>
      </trkpt>
      <trkpt lat="43.57833" lon="3.75511">
        <ele>47.6</ele>
        <time>2021-04-13T09:24:03Z</time>
      </trkpt>
      <trkpt lat="43.57834" lon="3.75516">
        <ele>47.6</ele>
        <time>2021-04-13T09:24:04Z</time>
      </trkpt>
      <trkpt lat="43.57836" lon="3.75521">
        <ele>47.6</ele>
        <time>2021-04-13T09:24:05Z</time>
      </trkpt>
      <trkpt lat="43.57837" lon="3.75526">
        <ele>47.6</ele>
        <time>2021-04-13T09:24:06Z</time>
      </trkpt>
      <trkpt lat="43.57838" lon="3.75531">
        <ele>47.6</ele>
        <time>2021-04-13T09:24:07Z</time>
      </trkpt>
      <trkpt lat="43.57839" lon="3.75536">
        <ele>47.8</ele>
        <time>2021-04-13T09:24:08Z</time>
      </trkpt>
      <trkpt lat="43.57839" lon="3.75536">
        <ele>47.8</ele>
        <time>2021-04-13T09:24:09Z</time>
      </trkpt>
      <trkpt lat="43.57842" lon="3.75546">
        <ele>48</ele>
        <time>2021-04-13T09:24:10Z</time>
      </trkpt>
      <trkpt lat="43.57843" lon="3.75551">
        <ele>47.8</ele>
        <time>2021-04-13T09:24:11Z</time>
      </trkpt>
      <trkpt lat="43.57844" lon="3.75557">
        <ele>47.6</ele>
        <time>2021-04-13T09:24:12Z</time>
      </trkpt>
      <trkpt lat="43.57845" lon="3.75562">
        <ele>47.6</ele>
        <time>2021-04-13T09:24:13Z</time>
      </trkpt>
      <trkpt lat="43.57846" lon="3.75567">
        <ele>47.6</ele>
        <time>2021-04-13T09:24:14Z</time>
      </trkpt>
      <trkpt lat="43.57848" lon="3.75572">
        <ele>47.8</ele>
        <time>2021-04-13T09:24:15Z</time>
      </trkpt>
      <trkpt lat="43.57849" lon="3.75577">
        <ele>47.8</ele>
        <time>2021-04-13T09:24:16Z</time>
      </trkpt>
      <trkpt lat="43.57851" lon="3.75582">
        <ele>48</ele>
        <time>2021-04-13T09:24:17Z</time>
      </trkpt>
      <trkpt lat="43.57853" lon="3.75586">
        <ele>48.2</ele>
        <time>2021-04-13T09:24:18Z</time>
      </trkpt>
      <trkpt lat="43.57855" lon="3.75588">
        <ele>48.2</ele>
        <time>2021-04-13T09:24:19Z</time>
      </trkpt>
      <trkpt lat="43.57858" lon="3.7559">
        <ele>48.4</ele>
        <time>2021-04-13T09:24:20Z</time>
      </trkpt>
      <trkpt lat="43.5786" lon="3.75592">
        <ele>48.6</ele>
        <time>2021-04-13T09:24:21Z</time>
      </trkpt>
      <trkpt lat="43.57862" lon="3.75594">
        <ele>48.6</ele>
        <time>2021-04-13T09:24:22Z</time>
      </trkpt>
      <trkpt lat="43.57863" lon="3.75596">
        <ele>48.6</ele>
        <time>2021-04-13T09:24:23Z</time>
      </trkpt>
      <trkpt lat="43.57864" lon="3.75599">
        <ele>48.4</ele>
        <time>2021-04-13T09:24:24Z</time>
      </trkpt>
      <trkpt lat="43.57866" lon="3.75602">
        <ele>48.4</ele>
        <time>2021-04-13T09:24:25Z</time>
      </trkpt>
      <trkpt lat="43.57867" lon="3.75605">
        <ele>48.6</ele>
        <time>2021-04-13T09:24:26Z</time>
      </trkpt>
      <trkpt lat="43.57868" lon="3.75608">
        <ele>48.6</ele>
        <time>2021-04-13T09:24:27Z</time>
      </trkpt>
      <trkpt lat="43.5787" lon="3.75611">
        <ele>48.8</ele>
        <time>2021-04-13T09:24:28Z</time>
      </trkpt>
      <trkpt lat="43.5787" lon="3.75615">
        <ele>49</ele>
        <time>2021-04-13T09:24:29Z</time>
      </trkpt>
      <trkpt lat="43.57871" lon="3.75618">
        <ele>49.2</ele>
        <time>2021-04-13T09:24:30Z</time>
      </trkpt>
      <trkpt lat="43.57871" lon="3.75621">
        <ele>49</ele>
        <time>2021-04-13T09:24:31Z</time>
      </trkpt>
      <trkpt lat="43.57871" lon="3.75624">
        <ele>49</ele>
        <time>2021-04-13T09:24:32Z</time>
      </trkpt>
      <trkpt lat="43.57871" lon="3.75627">
        <ele>49</ele>
        <time>2021-04-13T09:24:33Z</time>
      </trkpt>
      <trkpt lat="43.57872" lon="3.7563">
        <ele>49</ele>
        <time>2021-04-13T09:24:34Z</time>
      </trkpt>
      <trkpt lat="43.57872" lon="3.75634">
        <ele>49.2</ele>
        <time>2021-04-13T09:24:35Z</time>
      </trkpt>
      <trkpt lat="43.57872" lon="3.75637">
        <ele>49.2</ele>
        <time>2021-04-13T09:24:36Z</time>
      </trkpt>
      <trkpt lat="43.57871" lon="3.75641">
        <ele>49</ele>
        <time>2021-04-13T09:24:37Z</time>
      </trkpt>
      <trkpt lat="43.57869" lon="3.75644">
        <ele>49</ele>
        <time>2021-04-13T09:24:38Z</time>
      </trkpt>
      <trkpt lat="43.57868" lon="3.75648">
        <ele>48.8</ele>
        <time>2021-04-13T09:24:39Z</time>
      </trkpt>
      <trkpt lat="43.57867" lon="3.75652">
        <ele>48.8</ele>
        <time>2021-04-13T09:24:40Z</time>
      </trkpt>
      <trkpt lat="43.57865" lon="3.75656">
        <ele>48.8</ele>
        <time>2021-04-13T09:24:41Z</time>
      </trkpt>
      <trkpt lat="43.57864" lon="3.7566">
        <ele>48.6</ele>
        <time>2021-04-13T09:24:42Z</time>
      </trkpt>
      <trkpt lat="43.57863" lon="3.75664">
        <ele>48.8</ele>
        <time>2021-04-13T09:24:43Z</time>
      </trkpt>
      <trkpt lat="43.57861" lon="3.75668">
        <ele>49</ele>
        <time>2021-04-13T09:24:44Z</time>
      </trkpt>
      <trkpt lat="43.5786" lon="3.75673">
        <ele>48.8</ele>
        <time>2021-04-13T09:24:45Z</time>
      </trkpt>
      <trkpt lat="43.5786" lon="3.75678">
        <ele>48.6</ele>
        <time>2021-04-13T09:24:46Z</time>
      </trkpt>
      <trkpt lat="43.57859" lon="3.75684">
        <ele>48.4</ele>
        <time>2021-04-13T09:24:47Z</time>
      </trkpt>
      <trkpt lat="43.57859" lon="3.7569">
        <ele>48.2</ele>
        <time>2021-04-13T09:24:48Z</time>
      </trkpt>
      <trkpt lat="43.57858" lon="3.75696">
        <ele>48.2</ele>
        <time>2021-04-13T09:24:49Z</time>
      </trkpt>
      <trkpt lat="43.57858" lon="3.75702">
        <ele>48.2</ele>
        <time>2021-04-13T09:24:50Z</time>
      </trkpt>
      <trkpt lat="43.57858" lon="3.75708">
        <ele>48.2</ele>
        <time>2021-04-13T09:24:51Z</time>
      </trkpt>
      <trkpt lat="43.57857" lon="3.75714">
        <ele>48.2</ele>
        <time>2021-04-13T09:24:52Z</time>
      </trkpt>
      <trkpt lat="43.57857" lon="3.7572">
        <ele>48.2</ele>
        <time>2021-04-13T09:24:53Z</time>
      </trkpt>
      <trkpt lat="43.57857" lon="3.75726">
        <ele>48.2</ele>
        <time>2021-04-13T09:24:54Z</time>
      </trkpt>
      <trkpt lat="43.57857" lon="3.75733">
        <ele>48.2</ele>
        <time>2021-04-13T09:24:55Z</time>
      </trkpt>
      <trkpt lat="43.57856" lon="3.75739">
        <ele>48</ele>
        <time>2021-04-13T09:24:56Z</time>
      </trkpt>
      <trkpt lat="43.57856" lon="3.75746">
        <ele>47.8</ele>
        <time>2021-04-13T09:24:57Z</time>
      </trkpt>
      <trkpt lat="43.57855" lon="3.75753">
        <ele>47.8</ele>
        <time>2021-04-13T09:24:58Z</time>
      </trkpt>
      <trkpt lat="43.57853" lon="3.7576">
        <ele>47.4</ele>
        <time>2021-04-13T09:24:59Z</time>
      </trkpt>
      <trkpt lat="43.57853" lon="3.75768">
        <ele>47.2</ele>
        <time>2021-04-13T09:25:00Z</time>
      </trkpt>
      <trkpt lat="43.57852" lon="3.75775">
        <ele>47.4</ele>
        <time>2021-04-13T09:25:01Z</time>
      </trkpt>
      <trkpt lat="43.57851" lon="3.75783">
        <ele>47.2</ele>
        <time>2021-04-13T09:25:02Z</time>
      </trkpt>
      <trkpt lat="43.5785" lon="3.7579">
        <ele>47.2</ele>
        <time>2021-04-13T09:25:03Z</time>
      </trkpt>
      <trkpt lat="43.5785" lon="3.75798">
        <ele>47.4</ele>
        <time>2021-04-13T09:25:04Z</time>
      </trkpt>
      <trkpt lat="43.57848" lon="3.75806">
        <ele>47.4</ele>
        <time>2021-04-13T09:25:05Z</time>
      </trkpt>
      <trkpt lat="43.57847" lon="3.75813">
        <ele>47.4</ele>
        <time>2021-04-13T09:25:06Z</time>
      </trkpt>
      <trkpt lat="43.57846" lon="3.75821">
        <ele>47.2</ele>
        <time>2021-04-13T09:25:07Z</time>
      </trkpt>
      <trkpt lat="43.57845" lon="3.7583">
        <ele>47</ele>
        <time>2021-04-13T09:25:08Z</time>
      </trkpt>
      <trkpt lat="43.57844" lon="3.75838">
        <ele>47</ele>
        <time>2021-04-13T09:25:09Z</time>
      </trkpt>
      <trkpt lat="43.57842" lon="3.75847">
        <ele>46.8</ele>
        <time>2021-04-13T09:25:10Z</time>
      </trkpt>
      <trkpt lat="43.57841" lon="3.75856">
        <ele>46.6</ele>
        <time>2021-04-13T09:25:11Z</time>
      </trkpt>
      <trkpt lat="43.5784" lon="3.75865">
        <ele>46.4</ele>
        <time>2021-04-13T09:25:12Z</time>
      </trkpt>
      <trkpt lat="43.57839" lon="3.75875">
        <ele>46.2</ele>
        <time>2021-04-13T09:25:13Z</time>
      </trkpt>
      <trkpt lat="43.57838" lon="3.75884">
        <ele>46</ele>
        <time>2021-04-13T09:25:14Z</time>
      </trkpt>
      <trkpt lat="43.57836" lon="3.75893">
        <ele>45.8</ele>
        <time>2021-04-13T09:25:15Z</time>
      </trkpt>
      <trkpt lat="43.57835" lon="3.75902">
        <ele>45.8</ele>
        <time>2021-04-13T09:25:16Z</time>
      </trkpt>
      <trkpt lat="43.57834" lon="3.75911">
        <ele>45.6</ele>
        <time>2021-04-13T09:25:17Z</time>
      </trkpt>
      <trkpt lat="43.57832" lon="3.7592">
        <ele>45.4</ele>
        <time>2021-04-13T09:25:18Z</time>
      </trkpt>
      <trkpt lat="43.57831" lon="3.7593">
        <ele>45.2</ele>
        <time>2021-04-13T09:25:19Z</time>
      </trkpt>
      <trkpt lat="43.57829" lon="3.75939">
        <ele>45</ele>
        <time>2021-04-13T09:25:20Z</time>
      </trkpt>
      <trkpt lat="43.57828" lon="3.75948">
        <ele>44.8</ele>
        <time>2021-04-13T09:25:21Z</time>
      </trkpt>
      <trkpt lat="43.57827" lon="3.75957">
        <ele>44.6</ele>
        <time>2021-04-13T09:25:22Z</time>
      </trkpt>
      <trkpt lat="43.57826" lon="3.75967">
        <ele>44.4</ele>
        <time>2021-04-13T09:25:23Z</time>
      </trkpt>
      <trkpt lat="43.57825" lon="3.75976">
        <ele>44.2</ele>
        <time>2021-04-13T09:25:24Z</time>
      </trkpt>
      <trkpt lat="43.57823" lon="3.75985">
        <ele>44</ele>
        <time>2021-04-13T09:25:25Z</time>
      </trkpt>
      <trkpt lat="43.57822" lon="3.75994">
        <ele>43.8</ele>
        <time>2021-04-13T09:25:26Z</time>
      </trkpt>
      <trkpt lat="43.57821" lon="3.76003">
        <ele>43.8</ele>
        <time>2021-04-13T09:25:27Z</time>
      </trkpt>
      <trkpt lat="43.5782" lon="3.76012">
        <ele>43.4</ele>
        <time>2021-04-13T09:25:28Z</time>
      </trkpt>
      <trkpt lat="43.5782" lon="3.76021">
        <ele>43.4</ele>
        <time>2021-04-13T09:25:29Z</time>
      </trkpt>
      <trkpt lat="43.57819" lon="3.7603">
        <ele>43.4</ele>
        <time>2021-04-13T09:25:30Z</time>
      </trkpt>
      <trkpt lat="43.57817" lon="3.76039">
        <ele>43.2</ele>
        <time>2021-04-13T09:25:31Z</time>
      </trkpt>
      <trkpt lat="43.57816" lon="3.76048">
        <ele>43</ele>
        <time>2021-04-13T09:25:32Z</time>
      </trkpt>
      <trkpt lat="43.57814" lon="3.76057">
        <ele>43</ele>
        <time>2021-04-13T09:25:33Z</time>
      </trkpt>
      <trkpt lat="43.57813" lon="3.76066">
        <ele>42.8</ele>
        <time>2021-04-13T09:25:34Z</time>
      </trkpt>
      <trkpt lat="43.57811" lon="3.76075">
        <ele>42.6</ele>
        <time>2021-04-13T09:25:35Z</time>
      </trkpt>
      <trkpt lat="43.57811" lon="3.76084">
        <ele>42.6</ele>
        <time>2021-04-13T09:25:36Z</time>
      </trkpt>
      <trkpt lat="43.57811" lon="3.76093">
        <ele>42.2</ele>
        <time>2021-04-13T09:25:37Z</time>
      </trkpt>
      <trkpt lat="43.57812" lon="3.76102">
        <ele>42.2</ele>
        <time>2021-04-13T09:25:38Z</time>
      </trkpt>
      <trkpt lat="43.57813" lon="3.7611">
        <ele>42</ele>
        <time>2021-04-13T09:25:39Z</time>
      </trkpt>
      <trkpt lat="43.57815" lon="3.76118">
        <ele>41.8</ele>
        <time>2021-04-13T09:25:40Z</time>
      </trkpt>
      <trkpt lat="43.57817" lon="3.76126">
        <ele>41.6</ele>
        <time>2021-04-13T09:25:41Z</time>
      </trkpt>
      <trkpt lat="43.57818" lon="3.76134">
        <ele>41.4</ele>
        <time>2021-04-13T09:25:42Z</time>
      </trkpt>
      <trkpt lat="43.57817" lon="3.76141">
        <ele>41.6</ele>
        <time>2021-04-13T09:25:43Z</time>
      </trkpt>
      <trkpt lat="43.57816" lon="3.76149">
        <ele>41.4</ele>
        <time>2021-04-13T09:25:44Z</time>
      </trkpt>
      <trkpt lat="43.57814" lon="3.76156">
        <ele>41.4</ele>
        <time>2021-04-13T09:25:45Z</time>
      </trkpt>
      <trkpt lat="43.57812" lon="3.76163">
        <ele>41.2</ele>
        <time>2021-04-13T09:25:46Z</time>
      </trkpt>
      <trkpt lat="43.57811" lon="3.76172">
        <ele>41.2</ele>
        <time>2021-04-13T09:25:47Z</time>
      </trkpt>
      <trkpt lat="43.5781" lon="3.76179">
        <ele>41</ele>
        <time>2021-04-13T09:25:48Z</time>
      </trkpt>
      <trkpt lat="43.57809" lon="3.76187">
        <ele>40.8</ele>
        <time>2021-04-13T09:25:49Z</time>
      </trkpt>
      <trkpt lat="43.57808" lon="3.76195">
        <ele>40.8</ele>
        <time>2021-04-13T09:25:50Z</time>
      </trkpt>
      <trkpt lat="43.57809" lon="3.76204">
        <ele>40.8</ele>
        <time>2021-04-13T09:25:51Z</time>
      </trkpt>
      <trkpt lat="43.57809" lon="3.76212">
        <ele>40.8</ele>
        <time>2021-04-13T09:25:52Z</time>
      </trkpt>
      <trkpt lat="43.57809" lon="3.76219">
        <ele>40.8</ele>
        <time>2021-04-13T09:25:53Z</time>
      </trkpt>
      <trkpt lat="43.5781" lon="3.76227">
        <ele>40.8</ele>
        <time>2021-04-13T09:25:54Z</time>
      </trkpt>
      <trkpt lat="43.5781" lon="3.76234">
        <ele>40.6</ele>
        <time>2021-04-13T09:25:55Z</time>
      </trkpt>
      <trkpt lat="43.57811" lon="3.76241">
        <ele>40.6</ele>
        <time>2021-04-13T09:25:56Z</time>
      </trkpt>
      <trkpt lat="43.57811" lon="3.76249">
        <ele>40.4</ele>
        <time>2021-04-13T09:25:57Z</time>
      </trkpt>
      <trkpt lat="43.57811" lon="3.76256">
        <ele>40.4</ele>
        <time>2021-04-13T09:25:58Z</time>
      </trkpt>
      <trkpt lat="43.57812" lon="3.76264">
        <ele>40.4</ele>
        <time>2021-04-13T09:25:59Z</time>
      </trkpt>
      <trkpt lat="43.57812" lon="3.76271">
        <ele>40.2</ele>
        <time>2021-04-13T09:26:00Z</time>
      </trkpt>
      <trkpt lat="43.57813" lon="3.76279">
        <ele>40.2</ele>
        <time>2021-04-13T09:26:01Z</time>
      </trkpt>
      <trkpt lat="43.57813" lon="3.76287">
        <ele>40.2</ele>
        <time>2021-04-13T09:26:02Z</time>
      </trkpt>
      <trkpt lat="43.57814" lon="3.76295">
        <ele>40.2</ele>
        <time>2021-04-13T09:26:03Z</time>
      </trkpt>
      <trkpt lat="43.57816" lon="3.76303">
        <ele>40.2</ele>
        <time>2021-04-13T09:26:04Z</time>
      </trkpt>
      <trkpt lat="43.57817" lon="3.76311">
        <ele>40</ele>
        <time>2021-04-13T09:26:05Z</time>
      </trkpt>
      <trkpt lat="43.57818" lon="3.76319">
        <ele>39.8</ele>
        <time>2021-04-13T09:26:06Z</time>
      </trkpt>
      <trkpt lat="43.57819" lon="3.76326">
        <ele>39.8</ele>
        <time>2021-04-13T09:26:07Z</time>
      </trkpt>
      <trkpt lat="43.5782" lon="3.76333">
        <ele>40</ele>
        <time>2021-04-13T09:26:08Z</time>
      </trkpt>
      <trkpt lat="43.57822" lon="3.7634">
        <ele>40</ele>
        <time>2021-04-13T09:26:09Z</time>
      </trkpt>
      <trkpt lat="43.57823" lon="3.76348">
        <ele>40</ele>
        <time>2021-04-13T09:26:10Z</time>
      </trkpt>
      <trkpt lat="43.57824" lon="3.76354">
        <ele>40</ele>
        <time>2021-04-13T09:26:11Z</time>
      </trkpt>
      <trkpt lat="43.57826" lon="3.76361">
        <ele>40</ele>
        <time>2021-04-13T09:26:12Z</time>
      </trkpt>
      <trkpt lat="43.57827" lon="3.76368">
        <ele>40</ele>
        <time>2021-04-13T09:26:13Z</time>
      </trkpt>
      <trkpt lat="43.57828" lon="3.76375">
        <ele>40</ele>
        <time>2021-04-13T09:26:14Z</time>
      </trkpt>
      <trkpt lat="43.5783" lon="3.76383">
        <ele>40.2</ele>
        <time>2021-04-13T09:26:15Z</time>
      </trkpt>
      <trkpt lat="43.57831" lon="3.76389">
        <ele>40.4</ele>
        <time>2021-04-13T09:26:16Z</time>
      </trkpt>
      <trkpt lat="43.57832" lon="3.76396">
        <ele>40.2</ele>
        <time>2021-04-13T09:26:17Z</time>
      </trkpt>
      <trkpt lat="43.57834" lon="3.76403">
        <ele>40.4</ele>
        <time>2021-04-13T09:26:18Z</time>
      </trkpt>
      <trkpt lat="43.57835" lon="3.7641">
        <ele>40.4</ele>
        <time>2021-04-13T09:26:19Z</time>
      </trkpt>
      <trkpt lat="43.57837" lon="3.76416">
        <ele>40.4</ele>
        <time>2021-04-13T09:26:20Z</time>
      </trkpt>
      <trkpt lat="43.57839" lon="3.76423">
        <ele>40.4</ele>
        <time>2021-04-13T09:26:21Z</time>
      </trkpt>
      <trkpt lat="43.5784" lon="3.76429">
        <ele>40.4</ele>
        <time>2021-04-13T09:26:22Z</time>
      </trkpt>
      <trkpt lat="43.57842" lon="3.76435">
        <ele>40.4</ele>
        <time>2021-04-13T09:26:23Z</time>
      </trkpt>
      <trkpt lat="43.57844" lon="3.76442">
        <ele>40.4</ele>
        <time>2021-04-13T09:26:24Z</time>
      </trkpt>
      <trkpt lat="43.57846" lon="3.76448">
        <ele>40.4</ele>
        <time>2021-04-13T09:26:25Z</time>
      </trkpt>
      <trkpt lat="43.57848" lon="3.76454">
        <ele>40.6</ele>
        <time>2021-04-13T09:26:26Z</time>
      </trkpt>
      <trkpt lat="43.57849" lon="3.76461">
        <ele>40.6</ele>
        <time>2021-04-13T09:26:27Z</time>
      </trkpt>
      <trkpt lat="43.5785" lon="3.76468">
        <ele>40.6</ele>
        <time>2021-04-13T09:26:28Z</time>
      </trkpt>
      <trkpt lat="43.57852" lon="3.76476">
        <ele>40.4</ele>
        <time>2021-04-13T09:26:29Z</time>
      </trkpt>
      <trkpt lat="43.57854" lon="3.76482">
        <ele>40.4</ele>
        <time>2021-04-13T09:26:30Z</time>
      </trkpt>
      <trkpt lat="43.57856" lon="3.76488">
        <ele>40.2</ele>
        <time>2021-04-13T09:26:31Z</time>
      </trkpt>
      <trkpt lat="43.57857" lon="3.76494">
        <ele>40.4</ele>
        <time>2021-04-13T09:26:32Z</time>
      </trkpt>
      <trkpt lat="43.57859" lon="3.765">
        <ele>40.2</ele>
        <time>2021-04-13T09:26:33Z</time>
      </trkpt>
      <trkpt lat="43.57861" lon="3.76506">
        <ele>40.4</ele>
        <time>2021-04-13T09:26:34Z</time>
      </trkpt>
      <trkpt lat="43.57863" lon="3.76512">
        <ele>40.4</ele>
        <time>2021-04-13T09:26:35Z</time>
      </trkpt>
      <trkpt lat="43.57865" lon="3.76518">
        <ele>40.6</ele>
        <time>2021-04-13T09:26:36Z</time>
      </trkpt>
      <trkpt lat="43.57867" lon="3.76524">
        <ele>40.6</ele>
        <time>2021-04-13T09:26:37Z</time>
      </trkpt>
      <trkpt lat="43.57869" lon="3.7653">
        <ele>40.4</ele>
        <time>2021-04-13T09:26:38Z</time>
      </trkpt>
      <trkpt lat="43.57871" lon="3.76535">
        <ele>40.2</ele>
        <time>2021-04-13T09:26:39Z</time>
      </trkpt>
      <trkpt lat="43.57873" lon="3.7654">
        <ele>39.8</ele>
        <time>2021-04-13T09:26:40Z</time>
      </trkpt>
      <trkpt lat="43.57874" lon="3.76545">
        <ele>39.6</ele>
        <time>2021-04-13T09:26:41Z</time>
      </trkpt>
      <trkpt lat="43.57876" lon="3.76549">
        <ele>40</ele>
        <time>2021-04-13T09:26:42Z</time>
      </trkpt>
      <trkpt lat="43.57878" lon="3.76553">
        <ele>40.4</ele>
        <time>2021-04-13T09:26:43Z</time>
      </trkpt>
      <trkpt lat="43.5788" lon="3.76557">
        <ele>40.4</ele>
        <time>2021-04-13T09:26:44Z</time>
      </trkpt>
      <trkpt lat="43.57882" lon="3.76561">
        <ele>40.2</ele>
        <time>2021-04-13T09:26:45Z</time>
      </trkpt>
      <trkpt lat="43.57883" lon="3.76565">
        <ele>40.2</ele>
        <time>2021-04-13T09:26:46Z</time>
      </trkpt>
      <trkpt lat="43.57885" lon="3.7657">
        <ele>40.4</ele>
        <time>2021-04-13T09:26:47Z</time>
      </trkpt>
      <trkpt lat="43.57887" lon="3.76574">
        <ele>40.4</ele>
        <time>2021-04-13T09:26:48Z</time>
      </trkpt>
      <trkpt lat="43.57889" lon="3.76579">
        <ele>40.4</ele>
        <time>2021-04-13T09:26:49Z</time>
      </trkpt>
      <trkpt lat="43.57892" lon="3.76583">
        <ele>40.4</ele>
        <time>2021-04-13T09:26:50Z</time>
      </trkpt>
      <trkpt lat="43.57894" lon="3.76587">
        <ele>40.4</ele>
        <time>2021-04-13T09:26:51Z</time>
      </trkpt>
      <trkpt lat="43.57896" lon="3.76592">
        <ele>40.4</ele>
        <time>2021-04-13T09:26:52Z</time>
      </trkpt>
      <trkpt lat="43.57899" lon="3.76597">
        <ele>40.6</ele>
        <time>2021-04-13T09:26:53Z</time>
      </trkpt>
      <trkpt lat="43.57901" lon="3.76602">
        <ele>40.6</ele>
        <time>2021-04-13T09:26:54Z</time>
      </trkpt>
      <trkpt lat="43.57903" lon="3.76607">
        <ele>40.6</ele>
        <time>2021-04-13T09:26:55Z</time>
      </trkpt>
      <trkpt lat="43.57906" lon="3.76612">
        <ele>40.6</ele>
        <time>2021-04-13T09:26:56Z</time>
      </trkpt>
      <trkpt lat="43.57908" lon="3.76617">
        <ele>40.6</ele>
        <time>2021-04-13T09:26:57Z</time>
      </trkpt>
      <trkpt lat="43.57911" lon="3.76622">
        <ele>40.4</ele>
        <time>2021-04-13T09:26:58Z</time>
      </trkpt>
      <trkpt lat="43.57914" lon="3.76627">
        <ele>40.6</ele>
        <time>2021-04-13T09:26:59Z</time>
      </trkpt>
      <trkpt lat="43.57916" lon="3.76632">
        <ele>40.4</ele>
        <time>2021-04-13T09:27:00Z</time>
      </trkpt>
      <trkpt lat="43.57919" lon="3.76637">
        <ele>40.6</ele>
        <time>2021-04-13T09:27:01Z</time>
      </trkpt>
      <trkpt lat="43.57922" lon="3.76642">
        <ele>40.4</ele>
        <time>2021-04-13T09:27:02Z</time>
      </trkpt>
      <trkpt lat="43.57924" lon="3.76648">
        <ele>40.4</ele>
        <time>2021-04-13T09:27:03Z</time>
      </trkpt>
      <trkpt lat="43.57927" lon="3.76653">
        <ele>40.4</ele>
        <time>2021-04-13T09:27:04Z</time>
      </trkpt>
      <trkpt lat="43.5793" lon="3.76659">
        <ele>40.4</ele>
        <time>2021-04-13T09:27:05Z</time>
      </trkpt>
      <trkpt lat="43.57932" lon="3.76665">
        <ele>40.4</ele>
        <time>2021-04-13T09:27:06Z</time>
      </trkpt>
      <trkpt lat="43.57934" lon="3.7667">
        <ele>40.6</ele>
        <time>2021-04-13T09:27:07Z</time>
      </trkpt>
      <trkpt lat="43.57937" lon="3.76675">
        <ele>40.8</ele>
        <time>2021-04-13T09:27:08Z</time>
      </trkpt>
      <trkpt lat="43.57939" lon="3.7668">
        <ele>41</ele>
        <time>2021-04-13T09:27:09Z</time>
      </trkpt>
      <trkpt lat="43.57942" lon="3.76686">
        <ele>40.8</ele>
        <time>2021-04-13T09:27:10Z</time>
      </trkpt>
      <trkpt lat="43.57944" lon="3.76691">
        <ele>40.8</ele>
        <time>2021-04-13T09:27:11Z</time>
      </trkpt>
      <trkpt lat="43.57947" lon="3.76696">
        <ele>40.6</ele>
        <time>2021-04-13T09:27:12Z</time>
      </trkpt>
      <trkpt lat="43.57949" lon="3.76701">
        <ele>40.6</ele>
        <time>2021-04-13T09:27:13Z</time>
      </trkpt>
      <trkpt lat="43.57951" lon="3.76705">
        <ele>40.4</ele>
        <time>2021-04-13T09:27:14Z</time>
      </trkpt>
      <trkpt lat="43.57953" lon="3.76711">
        <ele>40.4</ele>
        <time>2021-04-13T09:27:15Z</time>
      </trkpt>
      <trkpt lat="43.57956" lon="3.76715">
        <ele>40.4</ele>
        <time>2021-04-13T09:27:16Z</time>
      </trkpt>
      <trkpt lat="43.57958" lon="3.76719">
        <ele>40.4</ele>
        <time>2021-04-13T09:27:17Z</time>
      </trkpt>
      <trkpt lat="43.5796" lon="3.76723">
        <ele>40.4</ele>
        <time>2021-04-13T09:27:18Z</time>
      </trkpt>
      <trkpt lat="43.57963" lon="3.76726">
        <ele>40.6</ele>
        <time>2021-04-13T09:27:19Z</time>
      </trkpt>
      <trkpt lat="43.57965" lon="3.76728">
        <ele>40.6</ele>
        <time>2021-04-13T09:27:20Z</time>
      </trkpt>
      <trkpt lat="43.57968" lon="3.76731">
        <ele>40.6</ele>
        <time>2021-04-13T09:27:21Z</time>
      </trkpt>
      <trkpt lat="43.5797" lon="3.76734">
        <ele>40.8</ele>
        <time>2021-04-13T09:27:22Z</time>
      </trkpt>
      <trkpt lat="43.57969" lon="3.76738">
        <ele>40.8</ele>
        <time>2021-04-13T09:27:23Z</time>
      </trkpt>
      <trkpt lat="43.57968" lon="3.76741">
        <ele>41</ele>
        <time>2021-04-13T09:27:24Z</time>
      </trkpt>
      <trkpt lat="43.57967" lon="3.76745">
        <ele>41</ele>
        <time>2021-04-13T09:27:25Z</time>
      </trkpt>
      <trkpt lat="43.57965" lon="3.76747">
        <ele>41</ele>
        <time>2021-04-13T09:27:26Z</time>
      </trkpt>
      <trkpt lat="43.57963" lon="3.7675">
        <ele>40.8</ele>
        <time>2021-04-13T09:27:27Z</time>
      </trkpt>
      <trkpt lat="43.57961" lon="3.76752">
        <ele>40.8</ele>
        <time>2021-04-13T09:27:28Z</time>
      </trkpt>
      <trkpt lat="43.57958" lon="3.76755">
        <ele>40.8</ele>
        <time>2021-04-13T09:27:29Z</time>
      </trkpt>
      <trkpt lat="43.57957" lon="3.76758">
        <ele>40.8</ele>
        <time>2021-04-13T09:27:30Z</time>
      </trkpt>
      <trkpt lat="43.57956" lon="3.76763">
        <ele>41</ele>
        <time>2021-04-13T09:27:31Z</time>
      </trkpt>
      <trkpt lat="43.57955" lon="3.76769">
        <ele>41</ele>
        <time>2021-04-13T09:27:32Z</time>
      </trkpt>
      <trkpt lat="43.57954" lon="3.76775">
        <ele>41</ele>
        <time>2021-04-13T09:27:33Z</time>
      </trkpt>
      <trkpt lat="43.57953" lon="3.76781">
        <ele>41.2</ele>
        <time>2021-04-13T09:27:34Z</time>
      </trkpt>
      <trkpt lat="43.57952" lon="3.76788">
        <ele>41.2</ele>
        <time>2021-04-13T09:27:35Z</time>
      </trkpt>
      <trkpt lat="43.57951" lon="3.76794">
        <ele>41</ele>
        <time>2021-04-13T09:27:36Z</time>
      </trkpt>
      <trkpt lat="43.57951" lon="3.76801">
        <ele>41.2</ele>
        <time>2021-04-13T09:27:37Z</time>
      </trkpt>
      <trkpt lat="43.57952" lon="3.76808">
        <ele>41.2</ele>
        <time>2021-04-13T09:27:38Z</time>
      </trkpt>
      <trkpt lat="43.57953" lon="3.76814">
        <ele>41.2</ele>
        <time>2021-04-13T09:27:39Z</time>
      </trkpt>
      <trkpt lat="43.57956" lon="3.7682">
        <ele>41.2</ele>
        <time>2021-04-13T09:27:40Z</time>
      </trkpt>
      <trkpt lat="43.57959" lon="3.76826">
        <ele>41.2</ele>
        <time>2021-04-13T09:27:41Z</time>
      </trkpt>
      <trkpt lat="43.57962" lon="3.7683">
        <ele>41.2</ele>
        <time>2021-04-13T09:27:42Z</time>
      </trkpt>
      <trkpt lat="43.57964" lon="3.76836">
        <ele>41</ele>
        <time>2021-04-13T09:27:43Z</time>
      </trkpt>
      <trkpt lat="43.57966" lon="3.76841">
        <ele>40.8</ele>
        <time>2021-04-13T09:27:44Z</time>
      </trkpt>
      <trkpt lat="43.57968" lon="3.76846">
        <ele>41</ele>
        <time>2021-04-13T09:27:45Z</time>
      </trkpt>
      <trkpt lat="43.57969" lon="3.76851">
        <ele>40.8</ele>
        <time>2021-04-13T09:27:46Z</time>
      </trkpt>
      <trkpt lat="43.57969" lon="3.76857">
        <ele>40.6</ele>
        <time>2021-04-13T09:27:47Z</time>
      </trkpt>
      <trkpt lat="43.5797" lon="3.76862">
        <ele>40.4</ele>
        <time>2021-04-13T09:27:48Z</time>
      </trkpt>
      <trkpt lat="43.5797" lon="3.76868">
        <ele>40.4</ele>
        <time>2021-04-13T09:27:49Z</time>
      </trkpt>
      <trkpt lat="43.57969" lon="3.76874">
        <ele>40.2</ele>
        <time>2021-04-13T09:27:50Z</time>
      </trkpt>
      <trkpt lat="43.57969" lon="3.7688">
        <ele>40</ele>
        <time>2021-04-13T09:27:51Z</time>
      </trkpt>
      <trkpt lat="43.57968" lon="3.76887">
        <ele>39.8</ele>
        <time>2021-04-13T09:27:52Z</time>
      </trkpt>
      <trkpt lat="43.57967" lon="3.76893">
        <ele>39.4</ele>
        <time>2021-04-13T09:27:53Z</time>
      </trkpt>
      <trkpt lat="43.57965" lon="3.769">
        <ele>39</ele>
        <time>2021-04-13T09:27:54Z</time>
      </trkpt>
      <trkpt lat="43.57964" lon="3.76907">
        <ele>39</ele>
        <time>2021-04-13T09:27:55Z</time>
      </trkpt>
      <trkpt lat="43.57962" lon="3.76914">
        <ele>38.8</ele>
        <time>2021-04-13T09:27:56Z</time>
      </trkpt>
      <trkpt lat="43.5796" lon="3.7692">
        <ele>38.6</ele>
        <time>2021-04-13T09:27:57Z</time>
      </trkpt>
      <trkpt lat="43.57957" lon="3.76926">
        <ele>38.4</ele>
        <time>2021-04-13T09:27:58Z</time>
      </trkpt>
      <trkpt lat="43.57955" lon="3.76931">
        <ele>38.4</ele>
        <time>2021-04-13T09:27:59Z</time>
      </trkpt>
      <trkpt lat="43.57952" lon="3.76937">
        <ele>38.2</ele>
        <time>2021-04-13T09:28:00Z</time>
      </trkpt>
      <trkpt lat="43.5795" lon="3.76944">
        <ele>38.6</ele>
        <time>2021-04-13T09:28:01Z</time>
      </trkpt>
      <trkpt lat="43.57947" lon="3.7695">
        <ele>38.6</ele>
        <time>2021-04-13T09:28:02Z</time>
      </trkpt>
      <trkpt lat="43.57944" lon="3.76956">
        <ele>38.6</ele>
        <time>2021-04-13T09:28:03Z</time>
      </trkpt>
      <trkpt lat="43.57941" lon="3.76962">
        <ele>38.4</ele>
        <time>2021-04-13T09:28:04Z</time>
      </trkpt>
      <trkpt lat="43.57938" lon="3.76969">
        <ele>38.4</ele>
        <time>2021-04-13T09:28:05Z</time>
      </trkpt>
      <trkpt lat="43.57935" lon="3.76975">
        <ele>38.6</ele>
        <time>2021-04-13T09:28:06Z</time>
      </trkpt>
      <trkpt lat="43.57933" lon="3.76982">
        <ele>38.6</ele>
        <time>2021-04-13T09:28:07Z</time>
      </trkpt>
      <trkpt lat="43.5793" lon="3.76988">
        <ele>38.4</ele>
        <time>2021-04-13T09:28:08Z</time>
      </trkpt>
      <trkpt lat="43.57928" lon="3.76994">
        <ele>38.4</ele>
        <time>2021-04-13T09:28:09Z</time>
      </trkpt>
      <trkpt lat="43.57925" lon="3.77">
        <ele>38.2</ele>
        <time>2021-04-13T09:28:10Z</time>
      </trkpt>
      <trkpt lat="43.57923" lon="3.77006">
        <ele>38.2</ele>
        <time>2021-04-13T09:28:11Z</time>
      </trkpt>
      <trkpt lat="43.5792" lon="3.77011">
        <ele>38.4</ele>
        <time>2021-04-13T09:28:12Z</time>
      </trkpt>
      <trkpt lat="43.57917" lon="3.77016">
        <ele>38.6</ele>
        <time>2021-04-13T09:28:13Z</time>
      </trkpt>
      <trkpt lat="43.57915" lon="3.77021">
        <ele>38.6</ele>
        <time>2021-04-13T09:28:14Z</time>
      </trkpt>
      <trkpt lat="43.57913" lon="3.77027">
        <ele>38.4</ele>
        <time>2021-04-13T09:28:15Z</time>
      </trkpt>
      <trkpt lat="43.57911" lon="3.77032">
        <ele>38.4</ele>
        <time>2021-04-13T09:28:16Z</time>
      </trkpt>
      <trkpt lat="43.57908" lon="3.77038">
        <ele>38.2</ele>
        <time>2021-04-13T09:28:17Z</time>
      </trkpt>
      <trkpt lat="43.57906" lon="3.77044">
        <ele>38.2</ele>
        <time>2021-04-13T09:28:18Z</time>
      </trkpt>
      <trkpt lat="43.57904" lon="3.7705">
        <ele>38.2</ele>
        <time>2021-04-13T09:28:19Z</time>
      </trkpt>
      <trkpt lat="43.57901" lon="3.77056">
        <ele>38.2</ele>
        <time>2021-04-13T09:28:20Z</time>
      </trkpt>
      <trkpt lat="43.57899" lon="3.77062">
        <ele>38.4</ele>
        <time>2021-04-13T09:28:21Z</time>
      </trkpt>
      <trkpt lat="43.57896" lon="3.77067">
        <ele>38.4</ele>
        <time>2021-04-13T09:28:22Z</time>
      </trkpt>
      <trkpt lat="43.57894" lon="3.77073">
        <ele>38.2</ele>
        <time>2021-04-13T09:28:23Z</time>
      </trkpt>
      <trkpt lat="43.57892" lon="3.77079">
        <ele>38</ele>
        <time>2021-04-13T09:28:24Z</time>
      </trkpt>
      <trkpt lat="43.57889" lon="3.77085">
        <ele>38</ele>
        <time>2021-04-13T09:28:25Z</time>
      </trkpt>
      <trkpt lat="43.57887" lon="3.77091">
        <ele>38</ele>
        <time>2021-04-13T09:28:26Z</time>
      </trkpt>
      <trkpt lat="43.57885" lon="3.77098">
        <ele>38</ele>
        <time>2021-04-13T09:28:27Z</time>
      </trkpt>
      <trkpt lat="43.57883" lon="3.77104">
        <ele>38</ele>
        <time>2021-04-13T09:28:28Z</time>
      </trkpt>
      <trkpt lat="43.57881" lon="3.7711">
        <ele>38</ele>
        <time>2021-04-13T09:28:29Z</time>
      </trkpt>
      <trkpt lat="43.57879" lon="3.77117">
        <ele>38</ele>
        <time>2021-04-13T09:28:30Z</time>
      </trkpt>
      <trkpt lat="43.57877" lon="3.77123">
        <ele>38</ele>
        <time>2021-04-13T09:28:31Z</time>
      </trkpt>
      <trkpt lat="43.57875" lon="3.77129">
        <ele>38</ele>
        <time>2021-04-13T09:28:32Z</time>
      </trkpt>
      <trkpt lat="43.57873" lon="3.77136">
        <ele>38</ele>
        <time>2021-04-13T09:28:33Z</time>
      </trkpt>
      <trkpt lat="43.57871" lon="3.77142">
        <ele>37.8</ele>
        <time>2021-04-13T09:28:34Z</time>
      </trkpt>
      <trkpt lat="43.57869" lon="3.77148">
        <ele>37.6</ele>
        <time>2021-04-13T09:28:35Z</time>
      </trkpt>
      <trkpt lat="43.57867" lon="3.77154">
        <ele>37.4</ele>
        <time>2021-04-13T09:28:36Z</time>
      </trkpt>
      <trkpt lat="43.57865" lon="3.77161">
        <ele>37.2</ele>
        <time>2021-04-13T09:28:37Z</time>
      </trkpt>
      <trkpt lat="43.57863" lon="3.77167">
        <ele>37.2</ele>
        <time>2021-04-13T09:28:38Z</time>
      </trkpt>
      <trkpt lat="43.5786" lon="3.77173">
        <ele>37.4</ele>
        <time>2021-04-13T09:28:39Z</time>
      </trkpt>
      <trkpt lat="43.57858" lon="3.77179">
        <ele>37.4</ele>
        <time>2021-04-13T09:28:40Z</time>
      </trkpt>
      <trkpt lat="43.57856" lon="3.77186">
        <ele>37.4</ele>
        <time>2021-04-13T09:28:41Z</time>
      </trkpt>
      <trkpt lat="43.57854" lon="3.77192">
        <ele>37.4</ele>
        <time>2021-04-13T09:28:42Z</time>
      </trkpt>
      <trkpt lat="43.57852" lon="3.77198">
        <ele>37.2</ele>
        <time>2021-04-13T09:28:43Z</time>
      </trkpt>
      <trkpt lat="43.57849" lon="3.77204">
        <ele>36.8</ele>
        <time>2021-04-13T09:28:44Z</time>
      </trkpt>
      <trkpt lat="43.57846" lon="3.7721">
        <ele>36.8</ele>
        <time>2021-04-13T09:28:45Z</time>
      </trkpt>
      <trkpt lat="43.57842" lon="3.77216">
        <ele>36.8</ele>
        <time>2021-04-13T09:28:46Z</time>
      </trkpt>
      <trkpt lat="43.57839" lon="3.77222">
        <ele>36.8</ele>
        <time>2021-04-13T09:28:47Z</time>
      </trkpt>
      <trkpt lat="43.57835" lon="3.77228">
        <ele>36.8</ele>
        <time>2021-04-13T09:28:48Z</time>
      </trkpt>
      <trkpt lat="43.57831" lon="3.77234">
        <ele>36.6</ele>
        <time>2021-04-13T09:28:49Z</time>
      </trkpt>
      <trkpt lat="43.57828" lon="3.7724">
        <ele>36.8</ele>
        <time>2021-04-13T09:28:50Z</time>
      </trkpt>
      <trkpt lat="43.57824" lon="3.77245">
        <ele>36.4</ele>
        <time>2021-04-13T09:28:51Z</time>
      </trkpt>
      <trkpt lat="43.5782" lon="3.77251">
        <ele>36.2</ele>
        <time>2021-04-13T09:28:52Z</time>
      </trkpt>
      <trkpt lat="43.57816" lon="3.77257">
        <ele>36.2</ele>
        <time>2021-04-13T09:28:53Z</time>
      </trkpt>
      <trkpt lat="43.57812" lon="3.77263">
        <ele>36.2</ele>
        <time>2021-04-13T09:28:54Z</time>
      </trkpt>
      <trkpt lat="43.57809" lon="3.77268">
        <ele>36</ele>
        <time>2021-04-13T09:28:55Z</time>
      </trkpt>
      <trkpt lat="43.57805" lon="3.77274">
        <ele>35.8</ele>
        <time>2021-04-13T09:28:56Z</time>
      </trkpt>
      <trkpt lat="43.57802" lon="3.7728">
        <ele>35.6</ele>
        <time>2021-04-13T09:28:57Z</time>
      </trkpt>
      <trkpt lat="43.57798" lon="3.77285">
        <ele>35.6</ele>
        <time>2021-04-13T09:28:58Z</time>
      </trkpt>
      <trkpt lat="43.57795" lon="3.77291">
        <ele>35.6</ele>
        <time>2021-04-13T09:28:59Z</time>
      </trkpt>
      <trkpt lat="43.57791" lon="3.77297">
        <ele>35.4</ele>
        <time>2021-04-13T09:29:00Z</time>
      </trkpt>
      <trkpt lat="43.57787" lon="3.77303">
        <ele>35.4</ele>
        <time>2021-04-13T09:29:01Z</time>
      </trkpt>
      <trkpt lat="43.57784" lon="3.7731">
        <ele>35.4</ele>
        <time>2021-04-13T09:29:02Z</time>
      </trkpt>
      <trkpt lat="43.5778" lon="3.77316">
        <ele>35.4</ele>
        <time>2021-04-13T09:29:03Z</time>
      </trkpt>
      <trkpt lat="43.57777" lon="3.77322">
        <ele>35.4</ele>
        <time>2021-04-13T09:29:04Z</time>
      </trkpt>
      <trkpt lat="43.57773" lon="3.77328">
        <ele>35.2</ele>
        <time>2021-04-13T09:29:05Z</time>
      </trkpt>
      <trkpt lat="43.57769" lon="3.77334">
        <ele>35.2</ele>
        <time>2021-04-13T09:29:06Z</time>
      </trkpt>
      <trkpt lat="43.57766" lon="3.77341">
        <ele>35.2</ele>
        <time>2021-04-13T09:29:07Z</time>
      </trkpt>
      <trkpt lat="43.57762" lon="3.77347">
        <ele>35.2</ele>
        <time>2021-04-13T09:29:08Z</time>
      </trkpt>
      <trkpt lat="43.57759" lon="3.77353">
        <ele>35</ele>
        <time>2021-04-13T09:29:09Z</time>
      </trkpt>
      <trkpt lat="43.57755" lon="3.77359">
        <ele>35</ele>
        <time>2021-04-13T09:29:10Z</time>
      </trkpt>
      <trkpt lat="43.57752" lon="3.77365">
        <ele>35</ele>
        <time>2021-04-13T09:29:11Z</time>
      </trkpt>
      <trkpt lat="43.57748" lon="3.77372">
        <ele>35</ele>
        <time>2021-04-13T09:29:12Z</time>
      </trkpt>
      <trkpt lat="43.57744" lon="3.77378">
        <ele>34.8</ele>
        <time>2021-04-13T09:29:13Z</time>
      </trkpt>
      <trkpt lat="43.57741" lon="3.77384">
        <ele>34.6</ele>
        <time>2021-04-13T09:29:14Z</time>
      </trkpt>
      <trkpt lat="43.57737" lon="3.77391">
        <ele>34.6</ele>
        <time>2021-04-13T09:29:15Z</time>
      </trkpt>
      <trkpt lat="43.57734" lon="3.77397">
        <ele>34.8</ele>
        <time>2021-04-13T09:29:16Z</time>
      </trkpt>
      <trkpt lat="43.5773" lon="3.77403">
        <ele>34.6</ele>
        <time>2021-04-13T09:29:17Z</time>
      </trkpt>
      <trkpt lat="43.57727" lon="3.77409">
        <ele>34.4</ele>
        <time>2021-04-13T09:29:18Z</time>
      </trkpt>
      <trkpt lat="43.57724" lon="3.77415">
        <ele>34.6</ele>
        <time>2021-04-13T09:29:19Z</time>
      </trkpt>
      <trkpt lat="43.57721" lon="3.77422">
        <ele>34.4</ele>
        <time>2021-04-13T09:29:20Z</time>
      </trkpt>
      <trkpt lat="43.57718" lon="3.77427">
        <ele>34</ele>
        <time>2021-04-13T09:29:21Z</time>
      </trkpt>
      <trkpt lat="43.57714" lon="3.77433">
        <ele>33.6</ele>
        <time>2021-04-13T09:29:22Z</time>
      </trkpt>
      <trkpt lat="43.57711" lon="3.77439">
        <ele>33.6</ele>
        <time>2021-04-13T09:29:23Z</time>
      </trkpt>
      <trkpt lat="43.57708" lon="3.77444">
        <ele>34</ele>
        <time>2021-04-13T09:29:24Z</time>
      </trkpt>
      <trkpt lat="43.57705" lon="3.7745">
        <ele>34</ele>
        <time>2021-04-13T09:29:25Z</time>
      </trkpt>
      <trkpt lat="43.57701" lon="3.77455">
        <ele>33.8</ele>
        <time>2021-04-13T09:29:26Z</time>
      </trkpt>
      <trkpt lat="43.57698" lon="3.7746">
        <ele>33.8</ele>
        <time>2021-04-13T09:29:27Z</time>
      </trkpt>
      <trkpt lat="43.57694" lon="3.77465">
        <ele>33.6</ele>
        <time>2021-04-13T09:29:28Z</time>
      </trkpt>
      <trkpt lat="43.5769" lon="3.77469">
        <ele>33.4</ele>
        <time>2021-04-13T09:29:29Z</time>
      </trkpt>
      <trkpt lat="43.57686" lon="3.77473">
        <ele>33.2</ele>
        <time>2021-04-13T09:29:30Z</time>
      </trkpt>
      <trkpt lat="43.57682" lon="3.77477">
        <ele>33.2</ele>
        <time>2021-04-13T09:29:31Z</time>
      </trkpt>
      <trkpt lat="43.57677" lon="3.77481">
        <ele>33.2</ele>
        <time>2021-04-13T09:29:32Z</time>
      </trkpt>
      <trkpt lat="43.57673" lon="3.77485">
        <ele>33</ele>
        <time>2021-04-13T09:29:33Z</time>
      </trkpt>
      <trkpt lat="43.57668" lon="3.77489">
        <ele>33.2</ele>
        <time>2021-04-13T09:29:34Z</time>
      </trkpt>
      <trkpt lat="43.57664" lon="3.77493">
        <ele>33</ele>
        <time>2021-04-13T09:29:35Z</time>
      </trkpt>
      <trkpt lat="43.57659" lon="3.77498">
        <ele>33</ele>
        <time>2021-04-13T09:29:36Z</time>
      </trkpt>
      <trkpt lat="43.57655" lon="3.77501">
        <ele>32.8</ele>
        <time>2021-04-13T09:29:37Z</time>
      </trkpt>
      <trkpt lat="43.5765" lon="3.77505">
        <ele>32.8</ele>
        <time>2021-04-13T09:29:38Z</time>
      </trkpt>
      <trkpt lat="43.57646" lon="3.77509">
        <ele>32.8</ele>
        <time>2021-04-13T09:29:39Z</time>
      </trkpt>
      <trkpt lat="43.57641" lon="3.77514">
        <ele>32.8</ele>
        <time>2021-04-13T09:29:40Z</time>
      </trkpt>
      <trkpt lat="43.57637" lon="3.77518">
        <ele>32.6</ele>
        <time>2021-04-13T09:29:41Z</time>
      </trkpt>
      <trkpt lat="43.57632" lon="3.77523">
        <ele>32.6</ele>
        <time>2021-04-13T09:29:42Z</time>
      </trkpt>
      <trkpt lat="43.57628" lon="3.77528">
        <ele>32.6</ele>
        <time>2021-04-13T09:29:43Z</time>
      </trkpt>
      <trkpt lat="43.57624" lon="3.77534">
        <ele>32.6</ele>
        <time>2021-04-13T09:29:44Z</time>
      </trkpt>
      <trkpt lat="43.57622" lon="3.77541">
        <ele>32.8</ele>
        <time>2021-04-13T09:29:45Z</time>
      </trkpt>
      <trkpt lat="43.57619" lon="3.77548">
        <ele>32.4</ele>
        <time>2021-04-13T09:29:46Z</time>
      </trkpt>
      <trkpt lat="43.57617" lon="3.77555">
        <ele>32</ele>
        <time>2021-04-13T09:29:47Z</time>
      </trkpt>
      <trkpt lat="43.57614" lon="3.77561">
        <ele>31.8</ele>
        <time>2021-04-13T09:29:48Z</time>
      </trkpt>
      <trkpt lat="43.57611" lon="3.77568">
        <ele>31.6</ele>
        <time>2021-04-13T09:29:49Z</time>
      </trkpt>
      <trkpt lat="43.57607" lon="3.77574">
        <ele>31.4</ele>
        <time>2021-04-13T09:29:50Z</time>
      </trkpt>
      <trkpt lat="43.57604" lon="3.7758">
        <ele>31.2</ele>
        <time>2021-04-13T09:29:51Z</time>
      </trkpt>
      <trkpt lat="43.576" lon="3.77587">
        <ele>30.8</ele>
        <time>2021-04-13T09:29:52Z</time>
      </trkpt>
      <trkpt lat="43.57596" lon="3.77593">
        <ele>30.8</ele>
        <time>2021-04-13T09:29:53Z</time>
      </trkpt>
      <trkpt lat="43.57592" lon="3.77599">
        <ele>30.6</ele>
        <time>2021-04-13T09:29:54Z</time>
      </trkpt>
      <trkpt lat="43.57588" lon="3.77605">
        <ele>30.8</ele>
        <time>2021-04-13T09:29:55Z</time>
      </trkpt>
      <trkpt lat="43.57585" lon="3.77612">
        <ele>31</ele>
        <time>2021-04-13T09:29:56Z</time>
      </trkpt>
      <trkpt lat="43.57581" lon="3.77618">
        <ele>31</ele>
        <time>2021-04-13T09:29:57Z</time>
      </trkpt>
      <trkpt lat="43.57577" lon="3.77625">
        <ele>31</ele>
        <time>2021-04-13T09:29:58Z</time>
      </trkpt>
      <trkpt lat="43.57574" lon="3.77632">
        <ele>31</ele>
        <time>2021-04-13T09:29:59Z</time>
      </trkpt>
      <trkpt lat="43.5757" lon="3.77638">
        <ele>31</ele>
        <time>2021-04-13T09:30:00Z</time>
      </trkpt>
      <trkpt lat="43.57567" lon="3.77645">
        <ele>31</ele>
        <time>2021-04-13T09:30:01Z</time>
      </trkpt>
      <trkpt lat="43.57564" lon="3.77652">
        <ele>30.8</ele>
        <time>2021-04-13T09:30:02Z</time>
      </trkpt>
      <trkpt lat="43.57561" lon="3.77658">
        <ele>30.6</ele>
        <time>2021-04-13T09:30:03Z</time>
      </trkpt>
      <trkpt lat="43.57558" lon="3.77665">
        <ele>30.4</ele>
        <time>2021-04-13T09:30:04Z</time>
      </trkpt>
      <trkpt lat="43.57555" lon="3.77672">
        <ele>30.6</ele>
        <time>2021-04-13T09:30:05Z</time>
      </trkpt>
      <trkpt lat="43.57552" lon="3.77679">
        <ele>30.6</ele>
        <time>2021-04-13T09:30:06Z</time>
      </trkpt>
      <trkpt lat="43.5755" lon="3.77686">
        <ele>30.4</ele>
        <time>2021-04-13T09:30:07Z</time>
      </trkpt>
      <trkpt lat="43.57547" lon="3.77693">
        <ele>30.4</ele>
        <time>2021-04-13T09:30:08Z</time>
      </trkpt>
      <trkpt lat="43.57545" lon="3.777">
        <ele>30.4</ele>
        <time>2021-04-13T09:30:09Z</time>
      </trkpt>
      <trkpt lat="43.57543" lon="3.77707">
        <ele>30.2</ele>
        <time>2021-04-13T09:30:10Z</time>
      </trkpt>
      <trkpt lat="43.5754" lon="3.77713">
        <ele>30</ele>
        <time>2021-04-13T09:30:11Z</time>
      </trkpt>
      <trkpt lat="43.57537" lon="3.7772">
        <ele>30.2</ele>
        <time>2021-04-13T09:30:12Z</time>
      </trkpt>
      <trkpt lat="43.57534" lon="3.77726">
        <ele>30.2</ele>
        <time>2021-04-13T09:30:13Z</time>
      </trkpt>
      <trkpt lat="43.5753" lon="3.77731">
        <ele>30</ele>
        <time>2021-04-13T09:30:14Z</time>
      </trkpt>
      <trkpt lat="43.57527" lon="3.77736">
        <ele>29.8</ele>
        <time>2021-04-13T09:30:15Z</time>
      </trkpt>
      <trkpt lat="43.57523" lon="3.77741">
        <ele>29.8</ele>
        <time>2021-04-13T09:30:16Z</time>
      </trkpt>
      <trkpt lat="43.57519" lon="3.77746">
        <ele>29.6</ele>
        <time>2021-04-13T09:30:17Z</time>
      </trkpt>
      <trkpt lat="43.57515" lon="3.77752">
        <ele>29.8</ele>
        <time>2021-04-13T09:30:18Z</time>
      </trkpt>
      <trkpt lat="43.57511" lon="3.77757">
        <ele>29.6</ele>
        <time>2021-04-13T09:30:19Z</time>
      </trkpt>
      <trkpt lat="43.57507" lon="3.77762">
        <ele>29.8</ele>
        <time>2021-04-13T09:30:20Z</time>
      </trkpt>
      <trkpt lat="43.57503" lon="3.77767">
        <ele>29.8</ele>
        <time>2021-04-13T09:30:21Z</time>
      </trkpt>
      <trkpt lat="43.57499" lon="3.77772">
        <ele>29.8</ele>
        <time>2021-04-13T09:30:22Z</time>
      </trkpt>
      <trkpt lat="43.57495" lon="3.77778">
        <ele>29.6</ele>
        <time>2021-04-13T09:30:23Z</time>
      </trkpt>
      <trkpt lat="43.57491" lon="3.77783">
        <ele>29.6</ele>
        <time>2021-04-13T09:30:24Z</time>
      </trkpt>
      <trkpt lat="43.57486" lon="3.77788">
        <ele>29.8</ele>
        <time>2021-04-13T09:30:25Z</time>
      </trkpt>
      <trkpt lat="43.57482" lon="3.77793">
        <ele>29.6</ele>
        <time>2021-04-13T09:30:26Z</time>
      </trkpt>
      <trkpt lat="43.57478" lon="3.77799">
        <ele>29.6</ele>
        <time>2021-04-13T09:30:27Z</time>
      </trkpt>
      <trkpt lat="43.57474" lon="3.77804">
        <ele>29.6</ele>
        <time>2021-04-13T09:30:28Z</time>
      </trkpt>
      <trkpt lat="43.5747" lon="3.77809">
        <ele>29.6</ele>
        <time>2021-04-13T09:30:29Z</time>
      </trkpt>
      <trkpt lat="43.57466" lon="3.77815">
        <ele>29.6</ele>
        <time>2021-04-13T09:30:30Z</time>
      </trkpt>
      <trkpt lat="43.57461" lon="3.77821">
        <ele>29.4</ele>
        <time>2021-04-13T09:30:31Z</time>
      </trkpt>
      <trkpt lat="43.57457" lon="3.77826">
        <ele>29.4</ele>
        <time>2021-04-13T09:30:32Z</time>
      </trkpt>
      <trkpt lat="43.57453" lon="3.77831">
        <ele>29.4</ele>
        <time>2021-04-13T09:30:33Z</time>
      </trkpt>
      <trkpt lat="43.57449" lon="3.77836">
        <ele>29.4</ele>
        <time>2021-04-13T09:30:34Z</time>
      </trkpt>
      <trkpt lat="43.57445" lon="3.77842">
        <ele>29.4</ele>
        <time>2021-04-13T09:30:35Z</time>
      </trkpt>
      <trkpt lat="43.57441" lon="3.77847">
        <ele>29.4</ele>
        <time>2021-04-13T09:30:36Z</time>
      </trkpt>
      <trkpt lat="43.57436" lon="3.77851">
        <ele>29.4</ele>
        <time>2021-04-13T09:30:37Z</time>
      </trkpt>
      <trkpt lat="43.57432" lon="3.77856">
        <ele>29.4</ele>
        <time>2021-04-13T09:30:38Z</time>
      </trkpt>
      <trkpt lat="43.57428" lon="3.77861">
        <ele>29.4</ele>
        <time>2021-04-13T09:30:39Z</time>
      </trkpt>
      <trkpt lat="43.57424" lon="3.77866">
        <ele>29.4</ele>
        <time>2021-04-13T09:30:40Z</time>
      </trkpt>
      <trkpt lat="43.5742" lon="3.77871">
        <ele>29.4</ele>
        <time>2021-04-13T09:30:41Z</time>
      </trkpt>
      <trkpt lat="43.57415" lon="3.77875">
        <ele>29.4</ele>
        <time>2021-04-13T09:30:42Z</time>
      </trkpt>
      <trkpt lat="43.57411" lon="3.7788">
        <ele>29.4</ele>
        <time>2021-04-13T09:30:43Z</time>
      </trkpt>
      <trkpt lat="43.57407" lon="3.77884">
        <ele>29.4</ele>
        <time>2021-04-13T09:30:44Z</time>
      </trkpt>
      <trkpt lat="43.57403" lon="3.77889">
        <ele>29.2</ele>
        <time>2021-04-13T09:30:45Z</time>
      </trkpt>
      <trkpt lat="43.574" lon="3.77894">
        <ele>29</ele>
        <time>2021-04-13T09:30:46Z</time>
      </trkpt>
      <trkpt lat="43.57396" lon="3.77898">
        <ele>29</ele>
        <time>2021-04-13T09:30:47Z</time>
      </trkpt>
      <trkpt lat="43.57392" lon="3.77902">
        <ele>29</ele>
        <time>2021-04-13T09:30:48Z</time>
      </trkpt>
      <trkpt lat="43.57389" lon="3.77907">
        <ele>29</ele>
        <time>2021-04-13T09:30:49Z</time>
      </trkpt>
      <trkpt lat="43.57387" lon="3.77911">
        <ele>29.4</ele>
        <time>2021-04-13T09:30:50Z</time>
      </trkpt>
      <trkpt lat="43.57386" lon="3.77914">
        <ele>29.8</ele>
        <time>2021-04-13T09:30:51Z</time>
      </trkpt>
      <trkpt lat="43.57385" lon="3.77918">
        <ele>30</ele>
        <time>2021-04-13T09:30:52Z</time>
      </trkpt>
      <trkpt lat="43.57385" lon="3.77922">
        <ele>30</ele>
        <time>2021-04-13T09:30:53Z</time>
      </trkpt>
      <trkpt lat="43.57386" lon="3.77925">
        <ele>30</ele>
        <time>2021-04-13T09:30:54Z</time>
      </trkpt>
      <trkpt lat="43.57387" lon="3.77929">
        <ele>30</ele>
        <time>2021-04-13T09:30:55Z</time>
      </trkpt>
      <trkpt lat="43.57388" lon="3.77933">
        <ele>29.8</ele>
        <time>2021-04-13T09:30:56Z</time>
      </trkpt>
      <trkpt lat="43.57389" lon="3.77936">
        <ele>29.8</ele>
        <time>2021-04-13T09:30:57Z</time>
      </trkpt>
      <trkpt lat="43.5739" lon="3.7794">
        <ele>29.8</ele>
        <time>2021-04-13T09:30:58Z</time>
      </trkpt>
      <trkpt lat="43.57392" lon="3.77943">
        <ele>29.8</ele>
        <time>2021-04-13T09:30:59Z</time>
      </trkpt>
      <trkpt lat="43.57394" lon="3.77947">
        <ele>29.8</ele>
        <time>2021-04-13T09:31:00Z</time>
      </trkpt>
      <trkpt lat="43.57395" lon="3.7795">
        <ele>29.8</ele>
        <time>2021-04-13T09:31:01Z</time>
      </trkpt>
      <trkpt lat="43.57396" lon="3.77954">
        <ele>29.8</ele>
        <time>2021-04-13T09:31:02Z</time>
      </trkpt>
      <trkpt lat="43.57398" lon="3.77957">
        <ele>30</ele>
        <time>2021-04-13T09:31:03Z</time>
      </trkpt>
      <trkpt lat="43.574" lon="3.77962">
        <ele>30</ele>
        <time>2021-04-13T09:31:04Z</time>
      </trkpt>
      <trkpt lat="43.57401" lon="3.77966">
        <ele>30</ele>
        <time>2021-04-13T09:31:05Z</time>
      </trkpt>
      <trkpt lat="43.57402" lon="3.77971">
        <ele>30</ele>
        <time>2021-04-13T09:31:06Z</time>
      </trkpt>
      <trkpt lat="43.57403" lon="3.77977">
        <ele>29.8</ele>
        <time>2021-04-13T09:31:07Z</time>
      </trkpt>
      <trkpt lat="43.57404" lon="3.77981">
        <ele>29.6</ele>
        <time>2021-04-13T09:31:08Z</time>
      </trkpt>
      <trkpt lat="43.57405" lon="3.77985">
        <ele>29.4</ele>
        <time>2021-04-13T09:31:09Z</time>
      </trkpt>
      <trkpt lat="43.57405" lon="3.77991">
        <ele>29.4</ele>
        <time>2021-04-13T09:31:10Z</time>
      </trkpt>
      <trkpt lat="43.57406" lon="3.77996">
        <ele>29</ele>
        <time>2021-04-13T09:31:11Z</time>
      </trkpt>
      <trkpt lat="43.57407" lon="3.78001">
        <ele>29.2</ele>
        <time>2021-04-13T09:31:12Z</time>
      </trkpt>
      <trkpt lat="43.57408" lon="3.78006">
        <ele>29.6</ele>
        <time>2021-04-13T09:31:13Z</time>
      </trkpt>
      <trkpt lat="43.5741" lon="3.78011">
        <ele>29.8</ele>
        <time>2021-04-13T09:31:14Z</time>
      </trkpt>
      <trkpt lat="43.57412" lon="3.78017">
        <ele>30</ele>
        <time>2021-04-13T09:31:15Z</time>
      </trkpt>
      <trkpt lat="43.57414" lon="3.78022">
        <ele>29.8</ele>
        <time>2021-04-13T09:31:16Z</time>
      </trkpt>
      <trkpt lat="43.57415" lon="3.78027">
        <ele>29.8</ele>
        <time>2021-04-13T09:31:17Z</time>
      </trkpt>
      <trkpt lat="43.57416" lon="3.78032">
        <ele>30</ele>
        <time>2021-04-13T09:31:18Z</time>
      </trkpt>
      <trkpt lat="43.57418" lon="3.78038">
        <ele>30</ele>
        <time>2021-04-13T09:31:19Z</time>
      </trkpt>
      <trkpt lat="43.57419" lon="3.78044">
        <ele>30</ele>
        <time>2021-04-13T09:31:20Z</time>
      </trkpt>
      <trkpt lat="43.57421" lon="3.78049">
        <ele>30</ele>
        <time>2021-04-13T09:31:21Z</time>
      </trkpt>
      <trkpt lat="43.57422" lon="3.78054">
        <ele>30</ele>
        <time>2021-04-13T09:31:22Z</time>
      </trkpt>
      <trkpt lat="43.57424" lon="3.7806">
        <ele>30</ele>
        <time>2021-04-13T09:31:23Z</time>
      </trkpt>
      <trkpt lat="43.57425" lon="3.78065">
        <ele>30.2</ele>
        <time>2021-04-13T09:31:24Z</time>
      </trkpt>
      <trkpt lat="43.57426" lon="3.7807">
        <ele>30.2</ele>
        <time>2021-04-13T09:31:25Z</time>
      </trkpt>
      <trkpt lat="43.57427" lon="3.78076">
        <ele>30</ele>
        <time>2021-04-13T09:31:26Z</time>
      </trkpt>
      <trkpt lat="43.57429" lon="3.78082">
        <ele>30</ele>
        <time>2021-04-13T09:31:27Z</time>
      </trkpt>
      <trkpt lat="43.5743" lon="3.78087">
        <ele>30</ele>
        <time>2021-04-13T09:31:28Z</time>
      </trkpt>
      <trkpt lat="43.57432" lon="3.78093">
        <ele>30</ele>
        <time>2021-04-13T09:31:29Z</time>
      </trkpt>
      <trkpt lat="43.57434" lon="3.78098">
        <ele>30</ele>
        <time>2021-04-13T09:31:30Z</time>
      </trkpt>
      <trkpt lat="43.57435" lon="3.78104">
        <ele>30</ele>
        <time>2021-04-13T09:31:31Z</time>
      </trkpt>
      <trkpt lat="43.57437" lon="3.7811">
        <ele>30</ele>
        <time>2021-04-13T09:31:32Z</time>
      </trkpt>
      <trkpt lat="43.57439" lon="3.78116">
        <ele>30.2</ele>
        <time>2021-04-13T09:31:33Z</time>
      </trkpt>
      <trkpt lat="43.57441" lon="3.78121">
        <ele>30.4</ele>
        <time>2021-04-13T09:31:34Z</time>
      </trkpt>
      <trkpt lat="43.57444" lon="3.78127">
        <ele>30.6</ele>
        <time>2021-04-13T09:31:35Z</time>
      </trkpt>
      <trkpt lat="43.57446" lon="3.78133">
        <ele>30.6</ele>
        <time>2021-04-13T09:31:36Z</time>
      </trkpt>
      <trkpt lat="43.57449" lon="3.78138">
        <ele>30.2</ele>
        <time>2021-04-13T09:31:37Z</time>
      </trkpt>
      <trkpt lat="43.57451" lon="3.78143">
        <ele>30.2</ele>
        <time>2021-04-13T09:31:38Z</time>
      </trkpt>
      <trkpt lat="43.57454" lon="3.78147">
        <ele>30.2</ele>
        <time>2021-04-13T09:31:39Z</time>
      </trkpt>
      <trkpt lat="43.57457" lon="3.78152">
        <ele>30.2</ele>
        <time>2021-04-13T09:31:40Z</time>
      </trkpt>
      <trkpt lat="43.5746" lon="3.78157">
        <ele>30.4</ele>
        <time>2021-04-13T09:31:41Z</time>
      </trkpt>
      <trkpt lat="43.57463" lon="3.78161">
        <ele>30.2</ele>
        <time>2021-04-13T09:31:42Z</time>
      </trkpt>
      <trkpt lat="43.57466" lon="3.78166">
        <ele>30.2</ele>
        <time>2021-04-13T09:31:43Z</time>
      </trkpt>
      <trkpt lat="43.57469" lon="3.7817">
        <ele>30.2</ele>
        <time>2021-04-13T09:31:44Z</time>
      </trkpt>
      <trkpt lat="43.57472" lon="3.78174">
        <ele>30.2</ele>
        <time>2021-04-13T09:31:45Z</time>
      </trkpt>
      <trkpt lat="43.57475" lon="3.78178">
        <ele>30.2</ele>
        <time>2021-04-13T09:31:46Z</time>
      </trkpt>
      <trkpt lat="43.57478" lon="3.78183">
        <ele>30</ele>
        <time>2021-04-13T09:31:47Z</time>
      </trkpt>
      <trkpt lat="43.57481" lon="3.78187">
        <ele>30.2</ele>
        <time>2021-04-13T09:31:48Z</time>
      </trkpt>
      <trkpt lat="43.57484" lon="3.78191">
        <ele>30</ele>
        <time>2021-04-13T09:31:49Z</time>
      </trkpt>
      <trkpt lat="43.57487" lon="3.78195">
        <ele>30.2</ele>
        <time>2021-04-13T09:31:50Z</time>
      </trkpt>
      <trkpt lat="43.5749" lon="3.782">
        <ele>30.2</ele>
        <time>2021-04-13T09:31:51Z</time>
      </trkpt>
      <trkpt lat="43.57493" lon="3.78204">
        <ele>30.2</ele>
        <time>2021-04-13T09:31:52Z</time>
      </trkpt>
      <trkpt lat="43.57496" lon="3.78208">
        <ele>30</ele>
        <time>2021-04-13T09:31:53Z</time>
      </trkpt>
      <trkpt lat="43.57499" lon="3.78213">
        <ele>30</ele>
        <time>2021-04-13T09:31:54Z</time>
      </trkpt>
      <trkpt lat="43.57501" lon="3.78217">
        <ele>30.2</ele>
        <time>2021-04-13T09:31:55Z</time>
      </trkpt>
      <trkpt lat="43.57504" lon="3.78222">
        <ele>30.2</ele>
        <time>2021-04-13T09:31:56Z</time>
      </trkpt>
      <trkpt lat="43.57507" lon="3.78226">
        <ele>30.2</ele>
        <time>2021-04-13T09:31:57Z</time>
      </trkpt>
      <trkpt lat="43.57509" lon="3.7823">
        <ele>30.2</ele>
        <time>2021-04-13T09:31:58Z</time>
      </trkpt>
      <trkpt lat="43.57512" lon="3.78234">
        <ele>30.4</ele>
        <time>2021-04-13T09:31:59Z</time>
      </trkpt>
      <trkpt lat="43.57514" lon="3.78238">
        <ele>30.6</ele>
        <time>2021-04-13T09:32:00Z</time>
      </trkpt>
      <trkpt lat="43.57516" lon="3.78243">
        <ele>30.8</ele>
        <time>2021-04-13T09:32:01Z</time>
      </trkpt>
      <trkpt lat="43.57518" lon="3.78248">
        <ele>30.8</ele>
        <time>2021-04-13T09:32:02Z</time>
      </trkpt>
      <trkpt lat="43.57519" lon="3.78252">
        <ele>30.6</ele>
        <time>2021-04-13T09:32:03Z</time>
      </trkpt>
      <trkpt lat="43.57521" lon="3.78257">
        <ele>30.4</ele>
        <time>2021-04-13T09:32:04Z</time>
      </trkpt>
      <trkpt lat="43.57522" lon="3.78263">
        <ele>30.4</ele>
        <time>2021-04-13T09:32:05Z</time>
      </trkpt>
      <trkpt lat="43.57522" lon="3.78269">
        <ele>30.2</ele>
        <time>2021-04-13T09:32:06Z</time>
      </trkpt>
      <trkpt lat="43.57523" lon="3.78275">
        <ele>30</ele>
        <time>2021-04-13T09:32:07Z</time>
      </trkpt>
      <trkpt lat="43.57524" lon="3.78281">
        <ele>30</ele>
        <time>2021-04-13T09:32:08Z</time>
      </trkpt>
      <trkpt lat="43.57525" lon="3.78287">
        <ele>30</ele>
        <time>2021-04-13T09:32:09Z</time>
      </trkpt>
      <trkpt lat="43.57526" lon="3.78293">
        <ele>29.8</ele>
        <time>2021-04-13T09:32:10Z</time>
      </trkpt>
      <trkpt lat="43.57527" lon="3.78299">
        <ele>29.8</ele>
        <time>2021-04-13T09:32:11Z</time>
      </trkpt>
      <trkpt lat="43.57527" lon="3.78305">
        <ele>30</ele>
        <time>2021-04-13T09:32:12Z</time>
      </trkpt>
      <trkpt lat="43.57528" lon="3.78311">
        <ele>30</ele>
        <time>2021-04-13T09:32:13Z</time>
      </trkpt>
      <trkpt lat="43.57528" lon="3.78317">
        <ele>29.8</ele>
        <time>2021-04-13T09:32:14Z</time>
      </trkpt>
      <trkpt lat="43.57529" lon="3.78323">
        <ele>29.8</ele>
        <time>2021-04-13T09:32:15Z</time>
      </trkpt>
      <trkpt lat="43.57529" lon="3.78329">
        <ele>29.6</ele>
        <time>2021-04-13T09:32:16Z</time>
      </trkpt>
      <trkpt lat="43.57529" lon="3.78334">
        <ele>29.6</ele>
        <time>2021-04-13T09:32:17Z</time>
      </trkpt>
      <trkpt lat="43.57529" lon="3.78341">
        <ele>29.6</ele>
        <time>2021-04-13T09:32:18Z</time>
      </trkpt>
      <trkpt lat="43.57529" lon="3.78347">
        <ele>29.4</ele>
        <time>2021-04-13T09:32:19Z</time>
      </trkpt>
      <trkpt lat="43.57529" lon="3.78353">
        <ele>29.6</ele>
        <time>2021-04-13T09:32:20Z</time>
      </trkpt>
      <trkpt lat="43.57529" lon="3.78359">
        <ele>29.4</ele>
        <time>2021-04-13T09:32:21Z</time>
      </trkpt>
      <trkpt lat="43.57529" lon="3.78365">
        <ele>29.4</ele>
        <time>2021-04-13T09:32:22Z</time>
      </trkpt>
      <trkpt lat="43.57529" lon="3.78371">
        <ele>29.4</ele>
        <time>2021-04-13T09:32:23Z</time>
      </trkpt>
      <trkpt lat="43.57529" lon="3.78377">
        <ele>29.4</ele>
        <time>2021-04-13T09:32:24Z</time>
      </trkpt>
      <trkpt lat="43.57529" lon="3.78383">
        <ele>29.2</ele>
        <time>2021-04-13T09:32:25Z</time>
      </trkpt>
      <trkpt lat="43.57529" lon="3.78389">
        <ele>29.2</ele>
        <time>2021-04-13T09:32:26Z</time>
      </trkpt>
      <trkpt lat="43.57528" lon="3.78395">
        <ele>29.4</ele>
        <time>2021-04-13T09:32:27Z</time>
      </trkpt>
      <trkpt lat="43.57527" lon="3.78402">
        <ele>29.2</ele>
        <time>2021-04-13T09:32:28Z</time>
      </trkpt>
      <trkpt lat="43.57526" lon="3.78408">
        <ele>29</ele>
        <time>2021-04-13T09:32:29Z</time>
      </trkpt>
      <trkpt lat="43.57525" lon="3.78414">
        <ele>29</ele>
        <time>2021-04-13T09:32:30Z</time>
      </trkpt>
      <trkpt lat="43.57524" lon="3.7842">
        <ele>28.8</ele>
        <time>2021-04-13T09:32:31Z</time>
      </trkpt>
      <trkpt lat="43.57522" lon="3.78426">
        <ele>28.8</ele>
        <time>2021-04-13T09:32:32Z</time>
      </trkpt>
      <trkpt lat="43.57521" lon="3.78432">
        <ele>28.8</ele>
        <time>2021-04-13T09:32:33Z</time>
      </trkpt>
      <trkpt lat="43.5752" lon="3.78438">
        <ele>28.8</ele>
        <time>2021-04-13T09:32:34Z</time>
      </trkpt>
      <trkpt lat="43.57518" lon="3.78444">
        <ele>28.6</ele>
        <time>2021-04-13T09:32:35Z</time>
      </trkpt>
      <trkpt lat="43.57517" lon="3.78449">
        <ele>28.4</ele>
        <time>2021-04-13T09:32:36Z</time>
      </trkpt>
      <trkpt lat="43.57517" lon="3.78455">
        <ele>28.4</ele>
        <time>2021-04-13T09:32:37Z</time>
      </trkpt>
      <trkpt lat="43.57516" lon="3.7846">
        <ele>28.2</ele>
        <time>2021-04-13T09:32:38Z</time>
      </trkpt>
      <trkpt lat="43.57516" lon="3.78466">
        <ele>28.2</ele>
        <time>2021-04-13T09:32:39Z</time>
      </trkpt>
      <trkpt lat="43.57515" lon="3.78472">
        <ele>28.4</ele>
        <time>2021-04-13T09:32:40Z</time>
      </trkpt>
      <trkpt lat="43.57513" lon="3.78477">
        <ele>28.4</ele>
        <time>2021-04-13T09:32:41Z</time>
      </trkpt>
      <trkpt lat="43.57512" lon="3.78482">
        <ele>28.4</ele>
        <time>2021-04-13T09:32:42Z</time>
      </trkpt>
      <trkpt lat="43.5751" lon="3.78487">
        <ele>28.4</ele>
        <time>2021-04-13T09:32:43Z</time>
      </trkpt>
      <trkpt lat="43.57509" lon="3.78492">
        <ele>28.2</ele>
        <time>2021-04-13T09:32:44Z</time>
      </trkpt>
      <trkpt lat="43.57509" lon="3.78497">
        <ele>28.2</ele>
        <time>2021-04-13T09:32:45Z</time>
      </trkpt>
      <trkpt lat="43.57508" lon="3.78503">
        <ele>28.2</ele>
        <time>2021-04-13T09:32:46Z</time>
      </trkpt>
      <trkpt lat="43.57507" lon="3.78508">
        <ele>28.4</ele>
        <time>2021-04-13T09:32:47Z</time>
      </trkpt>
      <trkpt lat="43.57506" lon="3.78513">
        <ele>28.6</ele>
        <time>2021-04-13T09:32:48Z</time>
      </trkpt>
      <trkpt lat="43.57504" lon="3.78518">
        <ele>28.6</ele>
        <time>2021-04-13T09:32:49Z</time>
      </trkpt>
      <trkpt lat="43.57504" lon="3.78523">
        <ele>28.4</ele>
        <time>2021-04-13T09:32:50Z</time>
      </trkpt>
      <trkpt lat="43.57504" lon="3.78528">
        <ele>28.4</ele>
        <time>2021-04-13T09:32:51Z</time>
      </trkpt>
      <trkpt lat="43.57504" lon="3.78533">
        <ele>28.6</ele>
        <time>2021-04-13T09:32:52Z</time>
      </trkpt>
      <trkpt lat="43.57503" lon="3.78538">
        <ele>28.4</ele>
        <time>2021-04-13T09:32:53Z</time>
      </trkpt>
      <trkpt lat="43.57501" lon="3.78543">
        <ele>28.4</ele>
        <time>2021-04-13T09:32:54Z</time>
      </trkpt>
      <trkpt lat="43.575" lon="3.78548">
        <ele>28.6</ele>
        <time>2021-04-13T09:32:55Z</time>
      </trkpt>
      <trkpt lat="43.575" lon="3.78554">
        <ele>28.4</ele>
        <time>2021-04-13T09:32:56Z</time>
      </trkpt>
      <trkpt lat="43.57499" lon="3.78559">
        <ele>28.4</ele>
        <time>2021-04-13T09:32:57Z</time>
      </trkpt>
      <trkpt lat="43.57499" lon="3.78564">
        <ele>28.6</ele>
        <time>2021-04-13T09:32:58Z</time>
      </trkpt>
      <trkpt lat="43.57498" lon="3.7857">
        <ele>28.8</ele>
        <time>2021-04-13T09:32:59Z</time>
      </trkpt>
      <trkpt lat="43.57498" lon="3.78575">
        <ele>28.8</ele>
        <time>2021-04-13T09:33:00Z</time>
      </trkpt>
      <trkpt lat="43.57498" lon="3.7858">
        <ele>28.8</ele>
        <time>2021-04-13T09:33:01Z</time>
      </trkpt>
      <trkpt lat="43.57497" lon="3.78585">
        <ele>28.8</ele>
        <time>2021-04-13T09:33:02Z</time>
      </trkpt>
      <trkpt lat="43.57497" lon="3.7859">
        <ele>28.8</ele>
        <time>2021-04-13T09:33:03Z</time>
      </trkpt>
      <trkpt lat="43.57496" lon="3.78595">
        <ele>28.8</ele>
        <time>2021-04-13T09:33:04Z</time>
      </trkpt>
      <trkpt lat="43.57495" lon="3.786">
        <ele>28.8</ele>
        <time>2021-04-13T09:33:05Z</time>
      </trkpt>
      <trkpt lat="43.57494" lon="3.78605">
        <ele>28.8</ele>
        <time>2021-04-13T09:33:06Z</time>
      </trkpt>
      <trkpt lat="43.57493" lon="3.7861">
        <ele>28.8</ele>
        <time>2021-04-13T09:33:07Z</time>
      </trkpt>
      <trkpt lat="43.57493" lon="3.78615">
        <ele>29</ele>
        <time>2021-04-13T09:33:08Z</time>
      </trkpt>
      <trkpt lat="43.57492" lon="3.7862">
        <ele>29</ele>
        <time>2021-04-13T09:33:09Z</time>
      </trkpt>
      <trkpt lat="43.57492" lon="3.78625">
        <ele>29</ele>
        <time>2021-04-13T09:33:10Z</time>
      </trkpt>
      <trkpt lat="43.57491" lon="3.7863">
        <ele>28.8</ele>
        <time>2021-04-13T09:33:11Z</time>
      </trkpt>
      <trkpt lat="43.57491" lon="3.78635">
        <ele>28.8</ele>
        <time>2021-04-13T09:33:12Z</time>
      </trkpt>
      <trkpt lat="43.5749" lon="3.7864">
        <ele>28.8</ele>
        <time>2021-04-13T09:33:13Z</time>
      </trkpt>
      <trkpt lat="43.5749" lon="3.78645">
        <ele>29</ele>
        <time>2021-04-13T09:33:14Z</time>
      </trkpt>
      <trkpt lat="43.5749" lon="3.78649">
        <ele>29.2</ele>
        <time>2021-04-13T09:33:15Z</time>
      </trkpt>
      <trkpt lat="43.5749" lon="3.78654">
        <ele>29.2</ele>
        <time>2021-04-13T09:33:16Z</time>
      </trkpt>
      <trkpt lat="43.5749" lon="3.78658">
        <ele>29.2</ele>
        <time>2021-04-13T09:33:17Z</time>
      </trkpt>
      <trkpt lat="43.57489" lon="3.78663">
        <ele>29.2</ele>
        <time>2021-04-13T09:33:18Z</time>
      </trkpt>
      <trkpt lat="43.57489" lon="3.78667">
        <ele>29.4</ele>
        <time>2021-04-13T09:33:19Z</time>
      </trkpt>
      <trkpt lat="43.57488" lon="3.78672">
        <ele>29.4</ele>
        <time>2021-04-13T09:33:20Z</time>
      </trkpt>
      <trkpt lat="43.57488" lon="3.78676">
        <ele>29.6</ele>
        <time>2021-04-13T09:33:21Z</time>
      </trkpt>
      <trkpt lat="43.57487" lon="3.7868">
        <ele>29.6</ele>
        <time>2021-04-13T09:33:22Z</time>
      </trkpt>
      <trkpt lat="43.57486" lon="3.78685">
        <ele>29.8</ele>
        <time>2021-04-13T09:33:23Z</time>
      </trkpt>
      <trkpt lat="43.57486" lon="3.78689">
        <ele>29.8</ele>
        <time>2021-04-13T09:33:24Z</time>
      </trkpt>
      <trkpt lat="43.57486" lon="3.78693">
        <ele>29.8</ele>
        <time>2021-04-13T09:33:25Z</time>
      </trkpt>
      <trkpt lat="43.57486" lon="3.78697">
        <ele>29.8</ele>
        <time>2021-04-13T09:33:26Z</time>
      </trkpt>
      <trkpt lat="43.57485" lon="3.78702">
        <ele>30</ele>
        <time>2021-04-13T09:33:27Z</time>
      </trkpt>
      <trkpt lat="43.57486" lon="3.78706">
        <ele>30.2</ele>
        <time>2021-04-13T09:33:28Z</time>
      </trkpt>
      <trkpt lat="43.57486" lon="3.7871">
        <ele>30</ele>
        <time>2021-04-13T09:33:29Z</time>
      </trkpt>
      <trkpt lat="43.57486" lon="3.78714">
        <ele>29.8</ele>
        <time>2021-04-13T09:33:30Z</time>
      </trkpt>
      <trkpt lat="43.57486" lon="3.78719">
        <ele>30</ele>
        <time>2021-04-13T09:33:31Z</time>
      </trkpt>
      <trkpt lat="43.57486" lon="3.78723">
        <ele>30</ele>
        <time>2021-04-13T09:33:32Z</time>
      </trkpt>
      <trkpt lat="43.57485" lon="3.78727">
        <ele>30</ele>
        <time>2021-04-13T09:33:33Z</time>
      </trkpt>
      <trkpt lat="43.57485" lon="3.78732">
        <ele>29.8</ele>
        <time>2021-04-13T09:33:34Z</time>
      </trkpt>
      <trkpt lat="43.57485" lon="3.78736">
        <ele>30</ele>
        <time>2021-04-13T09:33:35Z</time>
      </trkpt>
      <trkpt lat="43.57485" lon="3.78741">
        <ele>29.8</ele>
        <time>2021-04-13T09:33:36Z</time>
      </trkpt>
      <trkpt lat="43.57485" lon="3.78745">
        <ele>30</ele>
        <time>2021-04-13T09:33:37Z</time>
      </trkpt>
      <trkpt lat="43.57485" lon="3.7875">
        <ele>30</ele>
        <time>2021-04-13T09:33:38Z</time>
      </trkpt>
      <trkpt lat="43.57485" lon="3.78754">
        <ele>29.8</ele>
        <time>2021-04-13T09:33:39Z</time>
      </trkpt>
      <trkpt lat="43.57484" lon="3.78759">
        <ele>29.8</ele>
        <time>2021-04-13T09:33:40Z</time>
      </trkpt>
      <trkpt lat="43.57484" lon="3.78764">
        <ele>30</ele>
        <time>2021-04-13T09:33:41Z</time>
      </trkpt>
      <trkpt lat="43.57484" lon="3.78768">
        <ele>30</ele>
        <time>2021-04-13T09:33:42Z</time>
      </trkpt>
      <trkpt lat="43.57485" lon="3.78771">
        <ele>30</ele>
        <time>2021-04-13T09:33:43Z</time>
      </trkpt>
      <trkpt lat="43.57485" lon="3.78775">
        <ele>30.6</ele>
        <time>2021-04-13T09:33:44Z</time>
      </trkpt>
      <trkpt lat="43.57485" lon="3.78777">
        <ele>30.8</ele>
        <time>2021-04-13T09:33:45Z</time>
      </trkpt>
      <trkpt lat="43.57485" lon="3.7878">
        <ele>31</ele>
        <time>2021-04-13T09:33:46Z</time>
      </trkpt>
      <trkpt lat="43.57485" lon="3.78782">
        <ele>30.8</ele>
        <time>2021-04-13T09:33:47Z</time>
      </trkpt>
      <trkpt lat="43.57485" lon="3.78784">
        <ele>30.8</ele>
        <time>2021-04-13T09:33:48Z</time>
      </trkpt>
      <trkpt lat="43.57485" lon="3.78786">
        <ele>30.6</ele>
        <time>2021-04-13T09:33:49Z</time>
      </trkpt>
      <trkpt lat="43.57485" lon="3.78787">
        <ele>30.6</ele>
        <time>2021-04-13T09:33:50Z</time>
      </trkpt>
      <trkpt lat="43.57485" lon="3.78789">
        <ele>30.8</ele>
        <time>2021-04-13T09:33:51Z</time>
      </trkpt>
      <trkpt lat="43.57485" lon="3.7879">
        <ele>30.8</ele>
        <time>2021-04-13T09:33:52Z</time>
      </trkpt>
      <trkpt lat="43.57485" lon="3.78792">
        <ele>30.8</ele>
        <time>2021-04-13T09:33:53Z</time>
      </trkpt>
      <trkpt lat="43.57485" lon="3.78795">
        <ele>30.6</ele>
        <time>2021-04-13T09:33:54Z</time>
      </trkpt>
      <trkpt lat="43.57485" lon="3.78798">
        <ele>30.6</ele>
        <time>2021-04-13T09:33:55Z</time>
      </trkpt>
      <trkpt lat="43.57485" lon="3.78802">
        <ele>30.6</ele>
        <time>2021-04-13T09:33:56Z</time>
      </trkpt>
      <trkpt lat="43.57485" lon="3.78806">
        <ele>30.6</ele>
        <time>2021-04-13T09:33:57Z</time>
      </trkpt>
      <trkpt lat="43.57485" lon="3.78811">
        <ele>30.8</ele>
        <time>2021-04-13T09:33:58Z</time>
      </trkpt>
      <trkpt lat="43.57485" lon="3.78816">
        <ele>31</ele>
        <time>2021-04-13T09:33:59Z</time>
      </trkpt>
      <trkpt lat="43.57485" lon="3.78821">
        <ele>31.2</ele>
        <time>2021-04-13T09:34:00Z</time>
      </trkpt>
      <trkpt lat="43.57485" lon="3.78826">
        <ele>31</ele>
        <time>2021-04-13T09:34:01Z</time>
      </trkpt>
      <trkpt lat="43.57485" lon="3.78831">
        <ele>31.2</ele>
        <time>2021-04-13T09:34:02Z</time>
      </trkpt>
      <trkpt lat="43.57485" lon="3.78836">
        <ele>31.6</ele>
        <time>2021-04-13T09:34:03Z</time>
      </trkpt>
      <trkpt lat="43.57485" lon="3.78842">
        <ele>31.8</ele>
        <time>2021-04-13T09:34:04Z</time>
      </trkpt>
      <trkpt lat="43.57485" lon="3.78847">
        <ele>31.6</ele>
        <time>2021-04-13T09:34:05Z</time>
      </trkpt>
      <trkpt lat="43.57485" lon="3.78852">
        <ele>31.6</ele>
        <time>2021-04-13T09:34:06Z</time>
      </trkpt>
      <trkpt lat="43.57485" lon="3.78858">
        <ele>31.6</ele>
        <time>2021-04-13T09:34:07Z</time>
      </trkpt>
      <trkpt lat="43.57485" lon="3.78863">
        <ele>31.4</ele>
        <time>2021-04-13T09:34:08Z</time>
      </trkpt>
      <trkpt lat="43.57485" lon="3.78869">
        <ele>31.4</ele>
        <time>2021-04-13T09:34:09Z</time>
      </trkpt>
      <trkpt lat="43.57485" lon="3.78874">
        <ele>31.6</ele>
        <time>2021-04-13T09:34:10Z</time>
      </trkpt>
      <trkpt lat="43.57486" lon="3.78879">
        <ele>31.6</ele>
        <time>2021-04-13T09:34:11Z</time>
      </trkpt>
      <trkpt lat="43.57485" lon="3.78884">
        <ele>31.6</ele>
        <time>2021-04-13T09:34:12Z</time>
      </trkpt>
      <trkpt lat="43.57485" lon="3.78889">
        <ele>31.4</ele>
        <time>2021-04-13T09:34:13Z</time>
      </trkpt>
      <trkpt lat="43.57485" lon="3.78895">
        <ele>31.6</ele>
        <time>2021-04-13T09:34:14Z</time>
      </trkpt>
      <trkpt lat="43.57484" lon="3.789">
        <ele>31.6</ele>
        <time>2021-04-13T09:34:15Z</time>
      </trkpt>
      <trkpt lat="43.57483" lon="3.78904">
        <ele>31.4</ele>
        <time>2021-04-13T09:34:16Z</time>
      </trkpt>
      <trkpt lat="43.57481" lon="3.78909">
        <ele>31.2</ele>
        <time>2021-04-13T09:34:17Z</time>
      </trkpt>
      <trkpt lat="43.5748" lon="3.78914">
        <ele>31</ele>
        <time>2021-04-13T09:34:18Z</time>
      </trkpt>
      <trkpt lat="43.57478" lon="3.78919">
        <ele>31</ele>
        <time>2021-04-13T09:34:19Z</time>
      </trkpt>
      <trkpt lat="43.57477" lon="3.78924">
        <ele>30.8</ele>
        <time>2021-04-13T09:34:20Z</time>
      </trkpt>
      <trkpt lat="43.57475" lon="3.7893">
        <ele>30.8</ele>
        <time>2021-04-13T09:34:21Z</time>
      </trkpt>
      <trkpt lat="43.57473" lon="3.78935">
        <ele>30.6</ele>
        <time>2021-04-13T09:34:22Z</time>
      </trkpt>
      <trkpt lat="43.57471" lon="3.78941">
        <ele>30.6</ele>
        <time>2021-04-13T09:34:23Z</time>
      </trkpt>
      <trkpt lat="43.57469" lon="3.78947">
        <ele>30.6</ele>
        <time>2021-04-13T09:34:24Z</time>
      </trkpt>
      <trkpt lat="43.57466" lon="3.78953">
        <ele>30.4</ele>
        <time>2021-04-13T09:34:25Z</time>
      </trkpt>
      <trkpt lat="43.57464" lon="3.78959">
        <ele>30.2</ele>
        <time>2021-04-13T09:34:26Z</time>
      </trkpt>
      <trkpt lat="43.57461" lon="3.78965">
        <ele>30.2</ele>
        <time>2021-04-13T09:34:27Z</time>
      </trkpt>
      <trkpt lat="43.57459" lon="3.78971">
        <ele>30</ele>
        <time>2021-04-13T09:34:28Z</time>
      </trkpt>
      <trkpt lat="43.57456" lon="3.78978">
        <ele>29.8</ele>
        <time>2021-04-13T09:34:29Z</time>
      </trkpt>
      <trkpt lat="43.57454" lon="3.78985">
        <ele>29.6</ele>
        <time>2021-04-13T09:34:30Z</time>
      </trkpt>
      <trkpt lat="43.57451" lon="3.78992">
        <ele>29</ele>
        <time>2021-04-13T09:34:31Z</time>
      </trkpt>
      <trkpt lat="43.57449" lon="3.78999">
        <ele>29</ele>
        <time>2021-04-13T09:34:32Z</time>
      </trkpt>
      <trkpt lat="43.57446" lon="3.79005">
        <ele>29</ele>
        <time>2021-04-13T09:34:33Z</time>
      </trkpt>
      <trkpt lat="43.57443" lon="3.79012">
        <ele>28.6</ele>
        <time>2021-04-13T09:34:34Z</time>
      </trkpt>
      <trkpt lat="43.57441" lon="3.79019">
        <ele>28.6</ele>
        <time>2021-04-13T09:34:35Z</time>
      </trkpt>
      <trkpt lat="43.57438" lon="3.79026">
        <ele>28.2</ele>
        <time>2021-04-13T09:34:36Z</time>
      </trkpt>
      <trkpt lat="43.57436" lon="3.79033">
        <ele>28.2</ele>
        <time>2021-04-13T09:34:37Z</time>
      </trkpt>
      <trkpt lat="43.57433" lon="3.7904">
        <ele>28.2</ele>
        <time>2021-04-13T09:34:38Z</time>
      </trkpt>
      <trkpt lat="43.57431" lon="3.79046">
        <ele>28</ele>
        <time>2021-04-13T09:34:39Z</time>
      </trkpt>
      <trkpt lat="43.57429" lon="3.79052">
        <ele>28</ele>
        <time>2021-04-13T09:34:40Z</time>
      </trkpt>
      <trkpt lat="43.57427" lon="3.79057">
        <ele>27.8</ele>
        <time>2021-04-13T09:34:41Z</time>
      </trkpt>
      <trkpt lat="43.57426" lon="3.79061">
        <ele>27.6</ele>
        <time>2021-04-13T09:34:42Z</time>
      </trkpt>
      <trkpt lat="43.57425" lon="3.79064">
        <ele>27.4</ele>
        <time>2021-04-13T09:34:43Z</time>
      </trkpt>
      <trkpt lat="43.57424" lon="3.79066">
        <ele>27.2</ele>
        <time>2021-04-13T09:34:44Z</time>
      </trkpt>
      <trkpt lat="43.57424" lon="3.79067">
        <ele>27</ele>
        <time>2021-04-13T09:34:45Z</time>
      </trkpt>
      <trkpt lat="43.57424" lon="3.79069">
        <ele>27</ele>
        <time>2021-04-13T09:34:46Z</time>
      </trkpt>
      <trkpt lat="43.57423" lon="3.79071">
        <ele>27.2</ele>
        <time>2021-04-13T09:34:47Z</time>
      </trkpt>
      <trkpt lat="43.57423" lon="3.79074">
        <ele>27.4</ele>
        <time>2021-04-13T09:34:48Z</time>
      </trkpt>
      <trkpt lat="43.57424" lon="3.79077">
        <ele>27.4</ele>
        <time>2021-04-13T09:34:49Z</time>
      </trkpt>
      <trkpt lat="43.57426" lon="3.7908">
        <ele>27.2</ele>
        <time>2021-04-13T09:34:50Z</time>
      </trkpt>
      <trkpt lat="43.57429" lon="3.79084">
        <ele>27</ele>
        <time>2021-04-13T09:34:51Z</time>
      </trkpt>
      <trkpt lat="43.57431" lon="3.79088">
        <ele>27.2</ele>
        <time>2021-04-13T09:34:52Z</time>
      </trkpt>
      <trkpt lat="43.57434" lon="3.79092">
        <ele>27.2</ele>
        <time>2021-04-13T09:34:53Z</time>
      </trkpt>
      <trkpt lat="43.57437" lon="3.79097">
        <ele>27.2</ele>
        <time>2021-04-13T09:34:54Z</time>
      </trkpt>
      <trkpt lat="43.57439" lon="3.79101">
        <ele>27.4</ele>
        <time>2021-04-13T09:34:55Z</time>
      </trkpt>
      <trkpt lat="43.57442" lon="3.79106">
        <ele>28</ele>
        <time>2021-04-13T09:34:56Z</time>
      </trkpt>
      <trkpt lat="43.57445" lon="3.7911">
        <ele>27.8</ele>
        <time>2021-04-13T09:34:57Z</time>
      </trkpt>
      <trkpt lat="43.57448" lon="3.79115">
        <ele>27.6</ele>
        <time>2021-04-13T09:34:58Z</time>
      </trkpt>
      <trkpt lat="43.5745" lon="3.79119">
        <ele>27.2</ele>
        <time>2021-04-13T09:34:59Z</time>
      </trkpt>
      <trkpt lat="43.57453" lon="3.79124">
        <ele>27.2</ele>
        <time>2021-04-13T09:35:00Z</time>
      </trkpt>
      <trkpt lat="43.57456" lon="3.79128">
        <ele>27.6</ele>
        <time>2021-04-13T09:35:01Z</time>
      </trkpt>
      <trkpt lat="43.57459" lon="3.79133">
        <ele>27.4</ele>
        <time>2021-04-13T09:35:02Z</time>
      </trkpt>
      <trkpt lat="43.57462" lon="3.79137">
        <ele>26.8</ele>
        <time>2021-04-13T09:35:03Z</time>
      </trkpt>
      <trkpt lat="43.57465" lon="3.79141">
        <ele>27.2</ele>
        <time>2021-04-13T09:35:04Z</time>
      </trkpt>
      <trkpt lat="43.57468" lon="3.79146">
        <ele>27.2</ele>
        <time>2021-04-13T09:35:05Z</time>
      </trkpt>
      <trkpt lat="43.57471" lon="3.7915">
        <ele>27.2</ele>
        <time>2021-04-13T09:35:06Z</time>
      </trkpt>
      <trkpt lat="43.57473" lon="3.79154">
        <ele>27.4</ele>
        <time>2021-04-13T09:35:07Z</time>
      </trkpt>
      <trkpt lat="43.57476" lon="3.79158">
        <ele>27.6</ele>
        <time>2021-04-13T09:35:08Z</time>
      </trkpt>
      <trkpt lat="43.57479" lon="3.79163">
        <ele>27.4</ele>
        <time>2021-04-13T09:35:09Z</time>
      </trkpt>
      <trkpt lat="43.57482" lon="3.79167">
        <ele>27.4</ele>
        <time>2021-04-13T09:35:10Z</time>
      </trkpt>
      <trkpt lat="43.57485" lon="3.79171">
        <ele>27.6</ele>
        <time>2021-04-13T09:35:11Z</time>
      </trkpt>
      <trkpt lat="43.57487" lon="3.79176">
        <ele>27.6</ele>
        <time>2021-04-13T09:35:12Z</time>
      </trkpt>
      <trkpt lat="43.5749" lon="3.7918">
        <ele>27.6</ele>
        <time>2021-04-13T09:35:13Z</time>
      </trkpt>
      <trkpt lat="43.57493" lon="3.79184">
        <ele>27.6</ele>
        <time>2021-04-13T09:35:14Z</time>
      </trkpt>
      <trkpt lat="43.57496" lon="3.79188">
        <ele>27.8</ele>
        <time>2021-04-13T09:35:15Z</time>
      </trkpt>
      <trkpt lat="43.57498" lon="3.79192">
        <ele>27.6</ele>
        <time>2021-04-13T09:35:16Z</time>
      </trkpt>
      <trkpt lat="43.57501" lon="3.79197">
        <ele>27.8</ele>
        <time>2021-04-13T09:35:17Z</time>
      </trkpt>
      <trkpt lat="43.57504" lon="3.79201">
        <ele>27.6</ele>
        <time>2021-04-13T09:35:18Z</time>
      </trkpt>
      <trkpt lat="43.57507" lon="3.79205">
        <ele>27.4</ele>
        <time>2021-04-13T09:35:19Z</time>
      </trkpt>
      <trkpt lat="43.5751" lon="3.7921">
        <ele>27.4</ele>
        <time>2021-04-13T09:35:20Z</time>
      </trkpt>
      <trkpt lat="43.57513" lon="3.79214">
        <ele>27.4</ele>
        <time>2021-04-13T09:35:21Z</time>
      </trkpt>
      <trkpt lat="43.57516" lon="3.79219">
        <ele>27.4</ele>
        <time>2021-04-13T09:35:22Z</time>
      </trkpt>
      <trkpt lat="43.57519" lon="3.79223">
        <ele>27.4</ele>
        <time>2021-04-13T09:35:23Z</time>
      </trkpt>
      <trkpt lat="43.57522" lon="3.79228">
        <ele>27.6</ele>
        <time>2021-04-13T09:35:24Z</time>
      </trkpt>
      <trkpt lat="43.57525" lon="3.79232">
        <ele>27.4</ele>
        <time>2021-04-13T09:35:25Z</time>
      </trkpt>
      <trkpt lat="43.57528" lon="3.79236">
        <ele>27.6</ele>
        <time>2021-04-13T09:35:26Z</time>
      </trkpt>
      <trkpt lat="43.57532" lon="3.7924">
        <ele>27.6</ele>
        <time>2021-04-13T09:35:27Z</time>
      </trkpt>
      <trkpt lat="43.57535" lon="3.79244">
        <ele>27.6</ele>
        <time>2021-04-13T09:35:28Z</time>
      </trkpt>
      <trkpt lat="43.57537" lon="3.79248">
        <ele>27.4</ele>
        <time>2021-04-13T09:35:29Z</time>
      </trkpt>
      <trkpt lat="43.5754" lon="3.79252">
        <ele>27.6</ele>
        <time>2021-04-13T09:35:30Z</time>
      </trkpt>
      <trkpt lat="43.57543" lon="3.79257">
        <ele>27.4</ele>
        <time>2021-04-13T09:35:31Z</time>
      </trkpt>
      <trkpt lat="43.57546" lon="3.79261">
        <ele>27.6</ele>
        <time>2021-04-13T09:35:32Z</time>
      </trkpt>
      <trkpt lat="43.57549" lon="3.79265">
        <ele>27.6</ele>
        <time>2021-04-13T09:35:33Z</time>
      </trkpt>
      <trkpt lat="43.57551" lon="3.79269">
        <ele>27.8</ele>
        <time>2021-04-13T09:35:34Z</time>
      </trkpt>
      <trkpt lat="43.57554" lon="3.79273">
        <ele>27.8</ele>
        <time>2021-04-13T09:35:35Z</time>
      </trkpt>
      <trkpt lat="43.57556" lon="3.79276">
        <ele>27.8</ele>
        <time>2021-04-13T09:35:36Z</time>
      </trkpt>
      <trkpt lat="43.57559" lon="3.7928">
        <ele>28.2</ele>
        <time>2021-04-13T09:35:37Z</time>
      </trkpt>
      <trkpt lat="43.57561" lon="3.79283">
        <ele>28</ele>
        <time>2021-04-13T09:35:38Z</time>
      </trkpt>
      <trkpt lat="43.57564" lon="3.79287">
        <ele>28</ele>
        <time>2021-04-13T09:35:39Z</time>
      </trkpt>
      <trkpt lat="43.57566" lon="3.79291">
        <ele>27.8</ele>
        <time>2021-04-13T09:35:40Z</time>
      </trkpt>
      <trkpt lat="43.57569" lon="3.79295">
        <ele>27.8</ele>
        <time>2021-04-13T09:35:41Z</time>
      </trkpt>
      <trkpt lat="43.57571" lon="3.79298">
        <ele>27.8</ele>
        <time>2021-04-13T09:35:42Z</time>
      </trkpt>
      <trkpt lat="43.57574" lon="3.79302">
        <ele>28</ele>
        <time>2021-04-13T09:35:43Z</time>
      </trkpt>
      <trkpt lat="43.57577" lon="3.79306">
        <ele>28</ele>
        <time>2021-04-13T09:35:44Z</time>
      </trkpt>
      <trkpt lat="43.57579" lon="3.7931">
        <ele>27.8</ele>
        <time>2021-04-13T09:35:45Z</time>
      </trkpt>
      <trkpt lat="43.57582" lon="3.79313">
        <ele>27.6</ele>
        <time>2021-04-13T09:35:46Z</time>
      </trkpt>
      <trkpt lat="43.57584" lon="3.79317">
        <ele>27.8</ele>
        <time>2021-04-13T09:35:47Z</time>
      </trkpt>
      <trkpt lat="43.57587" lon="3.79322">
        <ele>27.8</ele>
        <time>2021-04-13T09:35:48Z</time>
      </trkpt>
      <trkpt lat="43.57589" lon="3.79326">
        <ele>27.8</ele>
        <time>2021-04-13T09:35:49Z</time>
      </trkpt>
      <trkpt lat="43.57592" lon="3.7933">
        <ele>28</ele>
        <time>2021-04-13T09:35:50Z</time>
      </trkpt>
      <trkpt lat="43.57595" lon="3.79334">
        <ele>27.8</ele>
        <time>2021-04-13T09:35:51Z</time>
      </trkpt>
      <trkpt lat="43.57598" lon="3.79338">
        <ele>27.8</ele>
        <time>2021-04-13T09:35:52Z</time>
      </trkpt>
      <trkpt lat="43.576" lon="3.79342">
        <ele>28</ele>
        <time>2021-04-13T09:35:53Z</time>
      </trkpt>
      <trkpt lat="43.57603" lon="3.79346">
        <ele>28.2</ele>
        <time>2021-04-13T09:35:54Z</time>
      </trkpt>
      <trkpt lat="43.57606" lon="3.7935">
        <ele>27.8</ele>
        <time>2021-04-13T09:35:55Z</time>
      </trkpt>
      <trkpt lat="43.57609" lon="3.79355">
        <ele>27.8</ele>
        <time>2021-04-13T09:35:56Z</time>
      </trkpt>
      <trkpt lat="43.57612" lon="3.79359">
        <ele>27.8</ele>
        <time>2021-04-13T09:35:57Z</time>
      </trkpt>
      <trkpt lat="43.57615" lon="3.79364">
        <ele>27.8</ele>
        <time>2021-04-13T09:35:58Z</time>
      </trkpt>
      <trkpt lat="43.57618" lon="3.79369">
        <ele>27.8</ele>
        <time>2021-04-13T09:35:59Z</time>
      </trkpt>
      <trkpt lat="43.57621" lon="3.79373">
        <ele>27.8</ele>
        <time>2021-04-13T09:36:00Z</time>
      </trkpt>
      <trkpt lat="43.57624" lon="3.79378">
        <ele>27.8</ele>
        <time>2021-04-13T09:36:01Z</time>
      </trkpt>
      <trkpt lat="43.57627" lon="3.79383">
        <ele>27.8</ele>
        <time>2021-04-13T09:36:02Z</time>
      </trkpt>
      <trkpt lat="43.5763" lon="3.79388">
        <ele>27.8</ele>
        <time>2021-04-13T09:36:03Z</time>
      </trkpt>
      <trkpt lat="43.57633" lon="3.79393">
        <ele>27.8</ele>
        <time>2021-04-13T09:36:04Z</time>
      </trkpt>
      <trkpt lat="43.57636" lon="3.79398">
        <ele>27.8</ele>
        <time>2021-04-13T09:36:05Z</time>
      </trkpt>
      <trkpt lat="43.5764" lon="3.79402">
        <ele>27.8</ele>
        <time>2021-04-13T09:36:06Z</time>
      </trkpt>
      <trkpt lat="43.57643" lon="3.79407">
        <ele>27.6</ele>
        <time>2021-04-13T09:36:07Z</time>
      </trkpt>
      <trkpt lat="43.57646" lon="3.79412">
        <ele>27.4</ele>
        <time>2021-04-13T09:36:08Z</time>
      </trkpt>
      <trkpt lat="43.57649" lon="3.79417">
        <ele>27.4</ele>
        <time>2021-04-13T09:36:09Z</time>
      </trkpt>
      <trkpt lat="43.57652" lon="3.79422">
        <ele>27.2</ele>
        <time>2021-04-13T09:36:10Z</time>
      </trkpt>
      <trkpt lat="43.57655" lon="3.79427">
        <ele>27.2</ele>
        <time>2021-04-13T09:36:11Z</time>
      </trkpt>
      <trkpt lat="43.57658" lon="3.79432">
        <ele>27.2</ele>
        <time>2021-04-13T09:36:12Z</time>
      </trkpt>
      <trkpt lat="43.57662" lon="3.79437">
        <ele>27.2</ele>
        <time>2021-04-13T09:36:13Z</time>
      </trkpt>
      <trkpt lat="43.57665" lon="3.79442">
        <ele>27</ele>
        <time>2021-04-13T09:36:14Z</time>
      </trkpt>
      <trkpt lat="43.57668" lon="3.79448">
        <ele>27</ele>
        <time>2021-04-13T09:36:15Z</time>
      </trkpt>
      <trkpt lat="43.57672" lon="3.79453">
        <ele>27</ele>
        <time>2021-04-13T09:36:16Z</time>
      </trkpt>
      <trkpt lat="43.57675" lon="3.79458">
        <ele>26.8</ele>
        <time>2021-04-13T09:36:17Z</time>
      </trkpt>
      <trkpt lat="43.57679" lon="3.79464">
        <ele>26.4</ele>
        <time>2021-04-13T09:36:18Z</time>
      </trkpt>
      <trkpt lat="43.57682" lon="3.79469">
        <ele>26.4</ele>
        <time>2021-04-13T09:36:19Z</time>
      </trkpt>
      <trkpt lat="43.57685" lon="3.79474">
        <ele>26.4</ele>
        <time>2021-04-13T09:36:20Z</time>
      </trkpt>
      <trkpt lat="43.57689" lon="3.7948">
        <ele>26.4</ele>
        <time>2021-04-13T09:36:21Z</time>
      </trkpt>
      <trkpt lat="43.57692" lon="3.79485">
        <ele>26.4</ele>
        <time>2021-04-13T09:36:22Z</time>
      </trkpt>
      <trkpt lat="43.57696" lon="3.79491">
        <ele>26.4</ele>
        <time>2021-04-13T09:36:23Z</time>
      </trkpt>
      <trkpt lat="43.57699" lon="3.79496">
        <ele>26.6</ele>
        <time>2021-04-13T09:36:24Z</time>
      </trkpt>
      <trkpt lat="43.57703" lon="3.79502">
        <ele>26.4</ele>
        <time>2021-04-13T09:36:25Z</time>
      </trkpt>
      <trkpt lat="43.57706" lon="3.79507">
        <ele>26.2</ele>
        <time>2021-04-13T09:36:26Z</time>
      </trkpt>
      <trkpt lat="43.57709" lon="3.79512">
        <ele>26</ele>
        <time>2021-04-13T09:36:27Z</time>
      </trkpt>
      <trkpt lat="43.57712" lon="3.79517">
        <ele>26</ele>
        <time>2021-04-13T09:36:28Z</time>
      </trkpt>
      <trkpt lat="43.57716" lon="3.79522">
        <ele>25.8</ele>
        <time>2021-04-13T09:36:29Z</time>
      </trkpt>
      <trkpt lat="43.57719" lon="3.79526">
        <ele>25.6</ele>
        <time>2021-04-13T09:36:30Z</time>
      </trkpt>
      <trkpt lat="43.57722" lon="3.79531">
        <ele>25.4</ele>
        <time>2021-04-13T09:36:31Z</time>
      </trkpt>
      <trkpt lat="43.57725" lon="3.79535">
        <ele>25.4</ele>
        <time>2021-04-13T09:36:32Z</time>
      </trkpt>
      <trkpt lat="43.57728" lon="3.7954">
        <ele>25.6</ele>
        <time>2021-04-13T09:36:33Z</time>
      </trkpt>
      <trkpt lat="43.57731" lon="3.79545">
        <ele>25.4</ele>
        <time>2021-04-13T09:36:34Z</time>
      </trkpt>
      <trkpt lat="43.57734" lon="3.7955">
        <ele>25.2</ele>
        <time>2021-04-13T09:36:35Z</time>
      </trkpt>
      <trkpt lat="43.57737" lon="3.79555">
        <ele>25.2</ele>
        <time>2021-04-13T09:36:36Z</time>
      </trkpt>
      <trkpt lat="43.5774" lon="3.79561">
        <ele>25.2</ele>
        <time>2021-04-13T09:36:37Z</time>
      </trkpt>
      <trkpt lat="43.57743" lon="3.79566">
        <ele>25.4</ele>
        <time>2021-04-13T09:36:38Z</time>
      </trkpt>
      <trkpt lat="43.57746" lon="3.79571">
        <ele>25.6</ele>
        <time>2021-04-13T09:36:39Z</time>
      </trkpt>
      <trkpt lat="43.57749" lon="3.79576">
        <ele>25.6</ele>
        <time>2021-04-13T09:36:40Z</time>
      </trkpt>
      <trkpt lat="43.57752" lon="3.79581">
        <ele>25.4</ele>
        <time>2021-04-13T09:36:41Z</time>
      </trkpt>
      <trkpt lat="43.57755" lon="3.79586">
        <ele>25.6</ele>
        <time>2021-04-13T09:36:42Z</time>
      </trkpt>
      <trkpt lat="43.57757" lon="3.79592">
        <ele>26</ele>
        <time>2021-04-13T09:36:43Z</time>
      </trkpt>
      <trkpt lat="43.5776" lon="3.79597">
        <ele>25.8</ele>
        <time>2021-04-13T09:36:44Z</time>
      </trkpt>
      <trkpt lat="43.57763" lon="3.79602">
        <ele>25.4</ele>
        <time>2021-04-13T09:36:45Z</time>
      </trkpt>
      <trkpt lat="43.57766" lon="3.79607">
        <ele>26.2</ele>
        <time>2021-04-13T09:36:46Z</time>
      </trkpt>
      <trkpt lat="43.57769" lon="3.79612">
        <ele>25.4</ele>
        <time>2021-04-13T09:36:47Z</time>
      </trkpt>
      <trkpt lat="43.57772" lon="3.79617">
        <ele>25.4</ele>
        <time>2021-04-13T09:36:48Z</time>
      </trkpt>
      <trkpt lat="43.57775" lon="3.79622">
        <ele>25.4</ele>
        <time>2021-04-13T09:36:49Z</time>
      </trkpt>
      <trkpt lat="43.57777" lon="3.79627">
        <ele>25.2</ele>
        <time>2021-04-13T09:36:50Z</time>
      </trkpt>
      <trkpt lat="43.5778" lon="3.79632">
        <ele>25.4</ele>
        <time>2021-04-13T09:36:51Z</time>
      </trkpt>
      <trkpt lat="43.57783" lon="3.79637">
        <ele>25.2</ele>
        <time>2021-04-13T09:36:52Z</time>
      </trkpt>
      <trkpt lat="43.57786" lon="3.79641">
        <ele>25.2</ele>
        <time>2021-04-13T09:36:53Z</time>
      </trkpt>
      <trkpt lat="43.57788" lon="3.79646">
        <ele>25.2</ele>
        <time>2021-04-13T09:36:54Z</time>
      </trkpt>
      <trkpt lat="43.57791" lon="3.79651">
        <ele>25.2</ele>
        <time>2021-04-13T09:36:55Z</time>
      </trkpt>
      <trkpt lat="43.57794" lon="3.79656">
        <ele>25.4</ele>
        <time>2021-04-13T09:36:56Z</time>
      </trkpt>
      <trkpt lat="43.57796" lon="3.79661">
        <ele>25</ele>
        <time>2021-04-13T09:36:57Z</time>
      </trkpt>
      <trkpt lat="43.57799" lon="3.79666">
        <ele>25</ele>
        <time>2021-04-13T09:36:58Z</time>
      </trkpt>
      <trkpt lat="43.57801" lon="3.79671">
        <ele>25</ele>
        <time>2021-04-13T09:36:59Z</time>
      </trkpt>
      <trkpt lat="43.57804" lon="3.79677">
        <ele>25</ele>
        <time>2021-04-13T09:37:00Z</time>
      </trkpt>
      <trkpt lat="43.57806" lon="3.79683">
        <ele>24.8</ele>
        <time>2021-04-13T09:37:01Z</time>
      </trkpt>
      <trkpt lat="43.57809" lon="3.79688">
        <ele>24.8</ele>
        <time>2021-04-13T09:37:02Z</time>
      </trkpt>
      <trkpt lat="43.57812" lon="3.79694">
        <ele>24.8</ele>
        <time>2021-04-13T09:37:03Z</time>
      </trkpt>
      <trkpt lat="43.57814" lon="3.797">
        <ele>25</ele>
        <time>2021-04-13T09:37:04Z</time>
      </trkpt>
      <trkpt lat="43.57817" lon="3.79705">
        <ele>25</ele>
        <time>2021-04-13T09:37:05Z</time>
      </trkpt>
      <trkpt lat="43.5782" lon="3.79711">
        <ele>25</ele>
        <time>2021-04-13T09:37:06Z</time>
      </trkpt>
      <trkpt lat="43.57823" lon="3.79717">
        <ele>25</ele>
        <time>2021-04-13T09:37:07Z</time>
      </trkpt>
      <trkpt lat="43.57826" lon="3.79722">
        <ele>25.2</ele>
        <time>2021-04-13T09:37:08Z</time>
      </trkpt>
      <trkpt lat="43.57828" lon="3.79728">
        <ele>25.2</ele>
        <time>2021-04-13T09:37:09Z</time>
      </trkpt>
      <trkpt lat="43.57831" lon="3.79733">
        <ele>25</ele>
        <time>2021-04-13T09:37:10Z</time>
      </trkpt>
      <trkpt lat="43.57833" lon="3.79739">
        <ele>25.2</ele>
        <time>2021-04-13T09:37:11Z</time>
      </trkpt>
      <trkpt lat="43.57836" lon="3.79744">
        <ele>25.2</ele>
        <time>2021-04-13T09:37:12Z</time>
      </trkpt>
      <trkpt lat="43.57838" lon="3.7975">
        <ele>25</ele>
        <time>2021-04-13T09:37:13Z</time>
      </trkpt>
      <trkpt lat="43.57841" lon="3.79755">
        <ele>25.2</ele>
        <time>2021-04-13T09:37:14Z</time>
      </trkpt>
      <trkpt lat="43.57843" lon="3.7976">
        <ele>25.4</ele>
        <time>2021-04-13T09:37:15Z</time>
      </trkpt>
      <trkpt lat="43.57846" lon="3.79765">
        <ele>25.4</ele>
        <time>2021-04-13T09:37:16Z</time>
      </trkpt>
      <trkpt lat="43.57849" lon="3.7977">
        <ele>25.4</ele>
        <time>2021-04-13T09:37:17Z</time>
      </trkpt>
      <trkpt lat="43.57851" lon="3.79774">
        <ele>25.2</ele>
        <time>2021-04-13T09:37:18Z</time>
      </trkpt>
      <trkpt lat="43.57854" lon="3.79778">
        <ele>25.2</ele>
        <time>2021-04-13T09:37:19Z</time>
      </trkpt>
      <trkpt lat="43.57857" lon="3.79782">
        <ele>25.2</ele>
        <time>2021-04-13T09:37:20Z</time>
      </trkpt>
      <trkpt lat="43.5786" lon="3.79786">
        <ele>25.6</ele>
        <time>2021-04-13T09:37:21Z</time>
      </trkpt>
      <trkpt lat="43.57863" lon="3.7979">
        <ele>25.6</ele>
        <time>2021-04-13T09:37:22Z</time>
      </trkpt>
      <trkpt lat="43.57866" lon="3.79794">
        <ele>25.6</ele>
        <time>2021-04-13T09:37:23Z</time>
      </trkpt>
      <trkpt lat="43.57869" lon="3.79797">
        <ele>25.6</ele>
        <time>2021-04-13T09:37:24Z</time>
      </trkpt>
      <trkpt lat="43.57872" lon="3.79801">
        <ele>25.6</ele>
        <time>2021-04-13T09:37:25Z</time>
      </trkpt>
      <trkpt lat="43.57875" lon="3.79805">
        <ele>25.6</ele>
        <time>2021-04-13T09:37:26Z</time>
      </trkpt>
      <trkpt lat="43.57877" lon="3.79808">
        <ele>26</ele>
        <time>2021-04-13T09:37:27Z</time>
      </trkpt>
      <trkpt lat="43.57879" lon="3.79812">
        <ele>26.2</ele>
        <time>2021-04-13T09:37:28Z</time>
      </trkpt>
      <trkpt lat="43.57882" lon="3.79815">
        <ele>26.4</ele>
        <time>2021-04-13T09:37:29Z</time>
      </trkpt>
      <trkpt lat="43.57885" lon="3.79819">
        <ele>26.6</ele>
        <time>2021-04-13T09:37:30Z</time>
      </trkpt>
      <trkpt lat="43.57888" lon="3.79821">
        <ele>26.8</ele>
        <time>2021-04-13T09:37:31Z</time>
      </trkpt>
      <trkpt lat="43.57891" lon="3.79825">
        <ele>26.8</ele>
        <time>2021-04-13T09:37:32Z</time>
      </trkpt>
      <trkpt lat="43.57893" lon="3.79828">
        <ele>27</ele>
        <time>2021-04-13T09:37:33Z</time>
      </trkpt>
      <trkpt lat="43.57895" lon="3.79831">
        <ele>27.2</ele>
        <time>2021-04-13T09:37:34Z</time>
      </trkpt>
      <trkpt lat="43.57898" lon="3.79834">
        <ele>27.4</ele>
        <time>2021-04-13T09:37:35Z</time>
      </trkpt>
      <trkpt lat="43.579" lon="3.79836">
        <ele>27.2</ele>
        <time>2021-04-13T09:37:36Z</time>
      </trkpt>
      <trkpt lat="43.57902" lon="3.79839">
        <ele>27.4</ele>
        <time>2021-04-13T09:37:37Z</time>
      </trkpt>
      <trkpt lat="43.57904" lon="3.79841">
        <ele>27.6</ele>
        <time>2021-04-13T09:37:38Z</time>
      </trkpt>
      <trkpt lat="43.57906" lon="3.79844">
        <ele>28.2</ele>
        <time>2021-04-13T09:37:39Z</time>
      </trkpt>
      <trkpt lat="43.57909" lon="3.79846">
        <ele>28.2</ele>
        <time>2021-04-13T09:37:40Z</time>
      </trkpt>
      <trkpt lat="43.57911" lon="3.79849">
        <ele>28.2</ele>
        <time>2021-04-13T09:37:41Z</time>
      </trkpt>
      <trkpt lat="43.57914" lon="3.79851">
        <ele>28.4</ele>
        <time>2021-04-13T09:37:42Z</time>
      </trkpt>
      <trkpt lat="43.57917" lon="3.79853">
        <ele>28.8</ele>
        <time>2021-04-13T09:37:43Z</time>
      </trkpt>
      <trkpt lat="43.57919" lon="3.79856">
        <ele>28.6</ele>
        <time>2021-04-13T09:37:44Z</time>
      </trkpt>
      <trkpt lat="43.57921" lon="3.79859">
        <ele>28.4</ele>
        <time>2021-04-13T09:37:45Z</time>
      </trkpt>
      <trkpt lat="43.57923" lon="3.79862">
        <ele>28.4</ele>
        <time>2021-04-13T09:37:46Z</time>
      </trkpt>
      <trkpt lat="43.57927" lon="3.79865">
        <ele>28.4</ele>
        <time>2021-04-13T09:37:47Z</time>
      </trkpt>
      <trkpt lat="43.5793" lon="3.79868">
        <ele>28.6</ele>
        <time>2021-04-13T09:37:48Z</time>
      </trkpt>
      <trkpt lat="43.57933" lon="3.79871">
        <ele>28.8</ele>
        <time>2021-04-13T09:37:49Z</time>
      </trkpt>
      <trkpt lat="43.57936" lon="3.79874">
        <ele>29.2</ele>
        <time>2021-04-13T09:37:50Z</time>
      </trkpt>
      <trkpt lat="43.57938" lon="3.79877">
        <ele>29.4</ele>
        <time>2021-04-13T09:37:51Z</time>
      </trkpt>
      <trkpt lat="43.57941" lon="3.7988">
        <ele>29.6</ele>
        <time>2021-04-13T09:37:52Z</time>
      </trkpt>
      <trkpt lat="43.57944" lon="3.79884">
        <ele>29.2</ele>
        <time>2021-04-13T09:37:53Z</time>
      </trkpt>
      <trkpt lat="43.57947" lon="3.79887">
        <ele>29.4</ele>
        <time>2021-04-13T09:37:54Z</time>
      </trkpt>
      <trkpt lat="43.5795" lon="3.7989">
        <ele>29.6</ele>
        <time>2021-04-13T09:37:55Z</time>
      </trkpt>
      <trkpt lat="43.57953" lon="3.79894">
        <ele>29.4</ele>
        <time>2021-04-13T09:37:56Z</time>
      </trkpt>
      <trkpt lat="43.57956" lon="3.79897">
        <ele>29.4</ele>
        <time>2021-04-13T09:37:57Z</time>
      </trkpt>
      <trkpt lat="43.57959" lon="3.79901">
        <ele>29.4</ele>
        <time>2021-04-13T09:37:58Z</time>
      </trkpt>
      <trkpt lat="43.57962" lon="3.79905">
        <ele>29.4</ele>
        <time>2021-04-13T09:37:59Z</time>
      </trkpt>
      <trkpt lat="43.57965" lon="3.79908">
        <ele>29.4</ele>
        <time>2021-04-13T09:38:00Z</time>
      </trkpt>
      <trkpt lat="43.57968" lon="3.79912">
        <ele>29.8</ele>
        <time>2021-04-13T09:38:01Z</time>
      </trkpt>
      <trkpt lat="43.57971" lon="3.79915">
        <ele>30.4</ele>
        <time>2021-04-13T09:38:02Z</time>
      </trkpt>
      <trkpt lat="43.57974" lon="3.79919">
        <ele>30.2</ele>
        <time>2021-04-13T09:38:03Z</time>
      </trkpt>
      <trkpt lat="43.57976" lon="3.79922">
        <ele>30.6</ele>
        <time>2021-04-13T09:38:04Z</time>
      </trkpt>
      <trkpt lat="43.57979" lon="3.79925">
        <ele>30.6</ele>
        <time>2021-04-13T09:38:05Z</time>
      </trkpt>
      <trkpt lat="43.57981" lon="3.79928">
        <ele>30.8</ele>
        <time>2021-04-13T09:38:06Z</time>
      </trkpt>
      <trkpt lat="43.57983" lon="3.79931">
        <ele>30.6</ele>
        <time>2021-04-13T09:38:07Z</time>
      </trkpt>
      <trkpt lat="43.57985" lon="3.79933">
        <ele>30.4</ele>
        <time>2021-04-13T09:38:08Z</time>
      </trkpt>
      <trkpt lat="43.57988" lon="3.79936">
        <ele>30.4</ele>
        <time>2021-04-13T09:38:09Z</time>
      </trkpt>
      <trkpt lat="43.5799" lon="3.79939">
        <ele>30.6</ele>
        <time>2021-04-13T09:38:10Z</time>
      </trkpt>
      <trkpt lat="43.57992" lon="3.79942">
        <ele>30.8</ele>
        <time>2021-04-13T09:38:11Z</time>
      </trkpt>
      <trkpt lat="43.57994" lon="3.79945">
        <ele>30.4</ele>
        <time>2021-04-13T09:38:12Z</time>
      </trkpt>
      <trkpt lat="43.57995" lon="3.79948">
        <ele>30.4</ele>
        <time>2021-04-13T09:38:13Z</time>
      </trkpt>
      <trkpt lat="43.57996" lon="3.79952">
        <ele>30.6</ele>
        <time>2021-04-13T09:38:14Z</time>
      </trkpt>
      <trkpt lat="43.57996" lon="3.79955">
        <ele>30.6</ele>
        <time>2021-04-13T09:38:15Z</time>
      </trkpt>
      <trkpt lat="43.57996" lon="3.79958">
        <ele>30.4</ele>
        <time>2021-04-13T09:38:16Z</time>
      </trkpt>
      <trkpt lat="43.57997" lon="3.79962">
        <ele>30.4</ele>
        <time>2021-04-13T09:38:17Z</time>
      </trkpt>
      <trkpt lat="43.57999" lon="3.79965">
        <ele>31.2</ele>
        <time>2021-04-13T09:38:18Z</time>
      </trkpt>
      <trkpt lat="43.58001" lon="3.79966">
        <ele>31.4</ele>
        <time>2021-04-13T09:38:19Z</time>
      </trkpt>
      <trkpt lat="43.58004" lon="3.79967">
        <ele>31.6</ele>
        <time>2021-04-13T09:38:20Z</time>
      </trkpt>
      <trkpt lat="43.58006" lon="3.79967">
        <ele>31.8</ele>
        <time>2021-04-13T09:38:21Z</time>
      </trkpt>
      <trkpt lat="43.58009" lon="3.79967">
        <ele>31.8</ele>
        <time>2021-04-13T09:38:22Z</time>
      </trkpt>
      <trkpt lat="43.58011" lon="3.79968">
        <ele>31.8</ele>
        <time>2021-04-13T09:38:23Z</time>
      </trkpt>
      <trkpt lat="43.58014" lon="3.79969">
        <ele>32.2</ele>
        <time>2021-04-13T09:38:24Z</time>
      </trkpt>
      <trkpt lat="43.58016" lon="3.79971">
        <ele>32.2</ele>
        <time>2021-04-13T09:38:25Z</time>
      </trkpt>
      <trkpt lat="43.58018" lon="3.79972">
        <ele>32.2</ele>
        <time>2021-04-13T09:38:26Z</time>
      </trkpt>
      <trkpt lat="43.58021" lon="3.79974">
        <ele>32.4</ele>
        <time>2021-04-13T09:38:27Z</time>
      </trkpt>
      <trkpt lat="43.58023" lon="3.79976">
        <ele>32.4</ele>
        <time>2021-04-13T09:38:28Z</time>
      </trkpt>
      <trkpt lat="43.58025" lon="3.79978">
        <ele>32.6</ele>
        <time>2021-04-13T09:38:29Z</time>
      </trkpt>
      <trkpt lat="43.58028" lon="3.7998">
        <ele>32.4</ele>
        <time>2021-04-13T09:38:30Z</time>
      </trkpt>
      <trkpt lat="43.5803" lon="3.79982">
        <ele>32.6</ele>
        <time>2021-04-13T09:38:31Z</time>
      </trkpt>
      <trkpt lat="43.58032" lon="3.79985">
        <ele>32.8</ele>
        <time>2021-04-13T09:38:32Z</time>
      </trkpt>
      <trkpt lat="43.58034" lon="3.79988">
        <ele>32.8</ele>
        <time>2021-04-13T09:38:33Z</time>
      </trkpt>
      <trkpt lat="43.58036" lon="3.79991">
        <ele>32.8</ele>
        <time>2021-04-13T09:38:34Z</time>
      </trkpt>
      <trkpt lat="43.58039" lon="3.79994">
        <ele>32.8</ele>
        <time>2021-04-13T09:38:35Z</time>
      </trkpt>
      <trkpt lat="43.58041" lon="3.79998">
        <ele>32.8</ele>
        <time>2021-04-13T09:38:36Z</time>
      </trkpt>
      <trkpt lat="43.58043" lon="3.80001">
        <ele>32.8</ele>
        <time>2021-04-13T09:38:37Z</time>
      </trkpt>
      <trkpt lat="43.58045" lon="3.80004">
        <ele>32.8</ele>
        <time>2021-04-13T09:38:38Z</time>
      </trkpt>
      <trkpt lat="43.58047" lon="3.80007">
        <ele>33</ele>
        <time>2021-04-13T09:38:39Z</time>
      </trkpt>
      <trkpt lat="43.58049" lon="3.8001">
        <ele>32.8</ele>
        <time>2021-04-13T09:38:40Z</time>
      </trkpt>
      <trkpt lat="43.58051" lon="3.80014">
        <ele>33</ele>
        <time>2021-04-13T09:38:41Z</time>
      </trkpt>
      <trkpt lat="43.58053" lon="3.80017">
        <ele>33</ele>
        <time>2021-04-13T09:38:42Z</time>
      </trkpt>
      <trkpt lat="43.58056" lon="3.8002">
        <ele>33</ele>
        <time>2021-04-13T09:38:43Z</time>
      </trkpt>
      <trkpt lat="43.58058" lon="3.80024">
        <ele>33</ele>
        <time>2021-04-13T09:38:44Z</time>
      </trkpt>
      <trkpt lat="43.5806" lon="3.80027">
        <ele>33</ele>
        <time>2021-04-13T09:38:45Z</time>
      </trkpt>
      <trkpt lat="43.58062" lon="3.8003">
        <ele>33.2</ele>
        <time>2021-04-13T09:38:46Z</time>
      </trkpt>
      <trkpt lat="43.58064" lon="3.80033">
        <ele>33.2</ele>
        <time>2021-04-13T09:38:47Z</time>
      </trkpt>
      <trkpt lat="43.58066" lon="3.80037">
        <ele>33.2</ele>
        <time>2021-04-13T09:38:48Z</time>
      </trkpt>
      <trkpt lat="43.58068" lon="3.8004">
        <ele>33.2</ele>
        <time>2021-04-13T09:38:49Z</time>
      </trkpt>
      <trkpt lat="43.5807" lon="3.80044">
        <ele>33.2</ele>
        <time>2021-04-13T09:38:50Z</time>
      </trkpt>
      <trkpt lat="43.58073" lon="3.80047">
        <ele>33.4</ele>
        <time>2021-04-13T09:38:51Z</time>
      </trkpt>
      <trkpt lat="43.58075" lon="3.80051">
        <ele>33.4</ele>
        <time>2021-04-13T09:38:52Z</time>
      </trkpt>
      <trkpt lat="43.58077" lon="3.80054">
        <ele>34</ele>
        <time>2021-04-13T09:38:53Z</time>
      </trkpt>
      <trkpt lat="43.58079" lon="3.80057">
        <ele>34.6</ele>
        <time>2021-04-13T09:38:54Z</time>
      </trkpt>
      <trkpt lat="43.58081" lon="3.80061">
        <ele>34.4</ele>
        <time>2021-04-13T09:38:55Z</time>
      </trkpt>
      <trkpt lat="43.58084" lon="3.80064">
        <ele>34.2</ele>
        <time>2021-04-13T09:38:56Z</time>
      </trkpt>
      <trkpt lat="43.58086" lon="3.80068">
        <ele>34.4</ele>
        <time>2021-04-13T09:38:57Z</time>
      </trkpt>
      <trkpt lat="43.58088" lon="3.80071">
        <ele>34.6</ele>
        <time>2021-04-13T09:38:58Z</time>
      </trkpt>
      <trkpt lat="43.5809" lon="3.80074">
        <ele>34.6</ele>
        <time>2021-04-13T09:38:59Z</time>
      </trkpt>
      <trkpt lat="43.58092" lon="3.80077">
        <ele>34.6</ele>
        <time>2021-04-13T09:39:00Z</time>
      </trkpt>
      <trkpt lat="43.58094" lon="3.8008">
        <ele>34.8</ele>
        <time>2021-04-13T09:39:01Z</time>
      </trkpt>
      <trkpt lat="43.58096" lon="3.80083">
        <ele>34.8</ele>
        <time>2021-04-13T09:39:02Z</time>
      </trkpt>
      <trkpt lat="43.58099" lon="3.80086">
        <ele>34.8</ele>
        <time>2021-04-13T09:39:03Z</time>
      </trkpt>
      <trkpt lat="43.58101" lon="3.80089">
        <ele>35</ele>
        <time>2021-04-13T09:39:04Z</time>
      </trkpt>
      <trkpt lat="43.58103" lon="3.80092">
        <ele>35.2</ele>
        <time>2021-04-13T09:39:05Z</time>
      </trkpt>
      <trkpt lat="43.58105" lon="3.80094">
        <ele>34.8</ele>
        <time>2021-04-13T09:39:06Z</time>
      </trkpt>
      <trkpt lat="43.58108" lon="3.80097">
        <ele>34.8</ele>
        <time>2021-04-13T09:39:07Z</time>
      </trkpt>
      <trkpt lat="43.5811" lon="3.801">
        <ele>35</ele>
        <time>2021-04-13T09:39:08Z</time>
      </trkpt>
      <trkpt lat="43.58112" lon="3.80102">
        <ele>35</ele>
        <time>2021-04-13T09:39:09Z</time>
      </trkpt>
      <trkpt lat="43.58115" lon="3.80104">
        <ele>35.2</ele>
        <time>2021-04-13T09:39:10Z</time>
      </trkpt>
      <trkpt lat="43.58117" lon="3.80107">
        <ele>35</ele>
        <time>2021-04-13T09:39:11Z</time>
      </trkpt>
      <trkpt lat="43.58118" lon="3.80109">
        <ele>34.8</ele>
        <time>2021-04-13T09:39:12Z</time>
      </trkpt>
      <trkpt lat="43.58119" lon="3.80113">
        <ele>34.8</ele>
        <time>2021-04-13T09:39:13Z</time>
      </trkpt>
      <trkpt lat="43.58118" lon="3.80115">
        <ele>34.8</ele>
        <time>2021-04-13T09:39:14Z</time>
      </trkpt>
      <trkpt lat="43.58116" lon="3.80119">
        <ele>34.6</ele>
        <time>2021-04-13T09:39:15Z</time>
      </trkpt>
      <trkpt lat="43.58115" lon="3.80122">
        <ele>34.4</ele>
        <time>2021-04-13T09:39:16Z</time>
      </trkpt>
      <trkpt lat="43.58113" lon="3.80125">
        <ele>34.4</ele>
        <time>2021-04-13T09:39:17Z</time>
      </trkpt>
      <trkpt lat="43.58111" lon="3.80129">
        <ele>34.2</ele>
        <time>2021-04-13T09:39:18Z</time>
      </trkpt>
      <trkpt lat="43.58109" lon="3.80133">
        <ele>34.2</ele>
        <time>2021-04-13T09:39:19Z</time>
      </trkpt>
      <trkpt lat="43.58108" lon="3.80137">
        <ele>34.2</ele>
        <time>2021-04-13T09:39:20Z</time>
      </trkpt>
      <trkpt lat="43.58106" lon="3.80141">
        <ele>34.2</ele>
        <time>2021-04-13T09:39:21Z</time>
      </trkpt>
      <trkpt lat="43.58105" lon="3.80145">
        <ele>34.4</ele>
        <time>2021-04-13T09:39:22Z</time>
      </trkpt>
      <trkpt lat="43.58103" lon="3.80149">
        <ele>34.4</ele>
        <time>2021-04-13T09:39:23Z</time>
      </trkpt>
      <trkpt lat="43.58101" lon="3.80153">
        <ele>34.4</ele>
        <time>2021-04-13T09:39:24Z</time>
      </trkpt>
      <trkpt lat="43.58099" lon="3.80157">
        <ele>34.4</ele>
        <time>2021-04-13T09:39:25Z</time>
      </trkpt>
      <trkpt lat="43.58097" lon="3.80161">
        <ele>34.4</ele>
        <time>2021-04-13T09:39:26Z</time>
      </trkpt>
      <trkpt lat="43.58096" lon="3.80166">
        <ele>34.4</ele>
        <time>2021-04-13T09:39:27Z</time>
      </trkpt>
      <trkpt lat="43.58094" lon="3.80171">
        <ele>34.4</ele>
        <time>2021-04-13T09:39:28Z</time>
      </trkpt>
      <trkpt lat="43.58092" lon="3.80174">
        <ele>34.6</ele>
        <time>2021-04-13T09:39:29Z</time>
      </trkpt>
      <trkpt lat="43.5809" lon="3.80178">
        <ele>34.6</ele>
        <time>2021-04-13T09:39:30Z</time>
      </trkpt>
      <trkpt lat="43.58088" lon="3.80181">
        <ele>34.6</ele>
        <time>2021-04-13T09:39:31Z</time>
      </trkpt>
      <trkpt lat="43.58086" lon="3.80184">
        <ele>34.6</ele>
        <time>2021-04-13T09:39:32Z</time>
      </trkpt>
      <trkpt lat="43.58084" lon="3.80187">
        <ele>34.6</ele>
        <time>2021-04-13T09:39:33Z</time>
      </trkpt>
      <trkpt lat="43.58082" lon="3.80191">
        <ele>34.6</ele>
        <time>2021-04-13T09:39:34Z</time>
      </trkpt>
      <trkpt lat="43.58079" lon="3.80194">
        <ele>34.6</ele>
        <time>2021-04-13T09:39:35Z</time>
      </trkpt>
      <trkpt lat="43.58077" lon="3.80198">
        <ele>34.8</ele>
        <time>2021-04-13T09:39:36Z</time>
      </trkpt>
      <trkpt lat="43.58075" lon="3.80201">
        <ele>34.8</ele>
        <time>2021-04-13T09:39:37Z</time>
      </trkpt>
      <trkpt lat="43.58072" lon="3.80205">
        <ele>35</ele>
        <time>2021-04-13T09:39:38Z</time>
      </trkpt>
      <trkpt lat="43.5807" lon="3.80209">
        <ele>35</ele>
        <time>2021-04-13T09:39:39Z</time>
      </trkpt>
      <trkpt lat="43.58068" lon="3.80212">
        <ele>35</ele>
        <time>2021-04-13T09:39:40Z</time>
      </trkpt>
      <trkpt lat="43.58065" lon="3.80216">
        <ele>35</ele>
        <time>2021-04-13T09:39:41Z</time>
      </trkpt>
      <trkpt lat="43.58063" lon="3.8022">
        <ele>35.2</ele>
        <time>2021-04-13T09:39:42Z</time>
      </trkpt>
      <trkpt lat="43.58061" lon="3.80224">
        <ele>35.2</ele>
        <time>2021-04-13T09:39:43Z</time>
      </trkpt>
      <trkpt lat="43.58058" lon="3.80229">
        <ele>35.2</ele>
        <time>2021-04-13T09:39:44Z</time>
      </trkpt>
      <trkpt lat="43.58056" lon="3.80234">
        <ele>35.2</ele>
        <time>2021-04-13T09:39:45Z</time>
      </trkpt>
      <trkpt lat="43.58053" lon="3.80238">
        <ele>35.2</ele>
        <time>2021-04-13T09:39:46Z</time>
      </trkpt>
      <trkpt lat="43.58051" lon="3.80243">
        <ele>35.2</ele>
        <time>2021-04-13T09:39:47Z</time>
      </trkpt>
      <trkpt lat="43.58048" lon="3.80248">
        <ele>35.2</ele>
        <time>2021-04-13T09:39:48Z</time>
      </trkpt>
      <trkpt lat="43.58045" lon="3.80253">
        <ele>35.2</ele>
        <time>2021-04-13T09:39:49Z</time>
      </trkpt>
      <trkpt lat="43.58043" lon="3.80259">
        <ele>35</ele>
        <time>2021-04-13T09:39:50Z</time>
      </trkpt>
      <trkpt lat="43.5804" lon="3.80264">
        <ele>35</ele>
        <time>2021-04-13T09:39:51Z</time>
      </trkpt>
      <trkpt lat="43.58037" lon="3.80269">
        <ele>34.8</ele>
        <time>2021-04-13T09:39:52Z</time>
      </trkpt>
      <trkpt lat="43.58035" lon="3.80274">
        <ele>34.8</ele>
        <time>2021-04-13T09:39:53Z</time>
      </trkpt>
      <trkpt lat="43.58032" lon="3.80279">
        <ele>34.6</ele>
        <time>2021-04-13T09:39:54Z</time>
      </trkpt>
      <trkpt lat="43.5803" lon="3.80284">
        <ele>34.2</ele>
        <time>2021-04-13T09:39:55Z</time>
      </trkpt>
      <trkpt lat="43.58027" lon="3.80289">
        <ele>34</ele>
        <time>2021-04-13T09:39:56Z</time>
      </trkpt>
      <trkpt lat="43.58025" lon="3.80295">
        <ele>33.8</ele>
        <time>2021-04-13T09:39:57Z</time>
      </trkpt>
      <trkpt lat="43.58022" lon="3.803">
        <ele>34</ele>
        <time>2021-04-13T09:39:58Z</time>
      </trkpt>
      <trkpt lat="43.5802" lon="3.80305">
        <ele>34</ele>
        <time>2021-04-13T09:39:59Z</time>
      </trkpt>
      <trkpt lat="43.58017" lon="3.80311">
        <ele>33.8</ele>
        <time>2021-04-13T09:40:00Z</time>
      </trkpt>
      <trkpt lat="43.58014" lon="3.80317">
        <ele>33.6</ele>
        <time>2021-04-13T09:40:01Z</time>
      </trkpt>
      <trkpt lat="43.58011" lon="3.80323">
        <ele>33.4</ele>
        <time>2021-04-13T09:40:02Z</time>
      </trkpt>
      <trkpt lat="43.58007" lon="3.8033">
        <ele>33.4</ele>
        <time>2021-04-13T09:40:03Z</time>
      </trkpt>
      <trkpt lat="43.58004" lon="3.80336">
        <ele>33.2</ele>
        <time>2021-04-13T09:40:04Z</time>
      </trkpt>
      <trkpt lat="43.58001" lon="3.80342">
        <ele>33</ele>
        <time>2021-04-13T09:40:05Z</time>
      </trkpt>
      <trkpt lat="43.57997" lon="3.80348">
        <ele>33</ele>
        <time>2021-04-13T09:40:06Z</time>
      </trkpt>
      <trkpt lat="43.57994" lon="3.80354">
        <ele>32.8</ele>
        <time>2021-04-13T09:40:07Z</time>
      </trkpt>
      <trkpt lat="43.57991" lon="3.80361">
        <ele>32.6</ele>
        <time>2021-04-13T09:40:08Z</time>
      </trkpt>
      <trkpt lat="43.57988" lon="3.80367">
        <ele>32.4</ele>
        <time>2021-04-13T09:40:09Z</time>
      </trkpt>
      <trkpt lat="43.57985" lon="3.80373">
        <ele>32.4</ele>
        <time>2021-04-13T09:40:10Z</time>
      </trkpt>
      <trkpt lat="43.57982" lon="3.80379">
        <ele>32</ele>
        <time>2021-04-13T09:40:11Z</time>
      </trkpt>
      <trkpt lat="43.57979" lon="3.80384">
        <ele>32</ele>
        <time>2021-04-13T09:40:12Z</time>
      </trkpt>
      <trkpt lat="43.57976" lon="3.8039">
        <ele>31.8</ele>
        <time>2021-04-13T09:40:13Z</time>
      </trkpt>
      <trkpt lat="43.57973" lon="3.80396">
        <ele>31.2</ele>
        <time>2021-04-13T09:40:14Z</time>
      </trkpt>
      <trkpt lat="43.5797" lon="3.80402">
        <ele>31</ele>
        <time>2021-04-13T09:40:15Z</time>
      </trkpt>
      <trkpt lat="43.57967" lon="3.80407">
        <ele>31</ele>
        <time>2021-04-13T09:40:16Z</time>
      </trkpt>
      <trkpt lat="43.57963" lon="3.80414">
        <ele>31</ele>
        <time>2021-04-13T09:40:17Z</time>
      </trkpt>
      <trkpt lat="43.5796" lon="3.8042">
        <ele>31.2</ele>
        <time>2021-04-13T09:40:18Z</time>
      </trkpt>
      <trkpt lat="43.57957" lon="3.80425">
        <ele>31</ele>
        <time>2021-04-13T09:40:19Z</time>
      </trkpt>
      <trkpt lat="43.57954" lon="3.80431">
        <ele>30.8</ele>
        <time>2021-04-13T09:40:20Z</time>
      </trkpt>
      <trkpt lat="43.57951" lon="3.80436">
        <ele>30.6</ele>
        <time>2021-04-13T09:40:21Z</time>
      </trkpt>
      <trkpt lat="43.57948" lon="3.80442">
        <ele>30.4</ele>
        <time>2021-04-13T09:40:22Z</time>
      </trkpt>
      <trkpt lat="43.57945" lon="3.80448">
        <ele>30.4</ele>
        <time>2021-04-13T09:40:23Z</time>
      </trkpt>
      <trkpt lat="43.57942" lon="3.80453">
        <ele>30.2</ele>
        <time>2021-04-13T09:40:24Z</time>
      </trkpt>
      <trkpt lat="43.5794" lon="3.80459">
        <ele>30.4</ele>
        <time>2021-04-13T09:40:25Z</time>
      </trkpt>
      <trkpt lat="43.57936" lon="3.80465">
        <ele>30.4</ele>
        <time>2021-04-13T09:40:26Z</time>
      </trkpt>
      <trkpt lat="43.57933" lon="3.80471">
        <ele>30.2</ele>
        <time>2021-04-13T09:40:27Z</time>
      </trkpt>
      <trkpt lat="43.5793" lon="3.80478">
        <ele>30</ele>
        <time>2021-04-13T09:40:28Z</time>
      </trkpt>
      <trkpt lat="43.57926" lon="3.80485">
        <ele>29.8</ele>
        <time>2021-04-13T09:40:29Z</time>
      </trkpt>
      <trkpt lat="43.57923" lon="3.80492">
        <ele>29.4</ele>
        <time>2021-04-13T09:40:30Z</time>
      </trkpt>
      <trkpt lat="43.5792" lon="3.80498">
        <ele>29.2</ele>
        <time>2021-04-13T09:40:31Z</time>
      </trkpt>
      <trkpt lat="43.57916" lon="3.80505">
        <ele>29</ele>
        <time>2021-04-13T09:40:32Z</time>
      </trkpt>
      <trkpt lat="43.57913" lon="3.80511">
        <ele>29</ele>
        <time>2021-04-13T09:40:33Z</time>
      </trkpt>
      <trkpt lat="43.57909" lon="3.80518">
        <ele>29</ele>
        <time>2021-04-13T09:40:34Z</time>
      </trkpt>
      <trkpt lat="43.57906" lon="3.80525">
        <ele>29.4</ele>
        <time>2021-04-13T09:40:35Z</time>
      </trkpt>
      <trkpt lat="43.57902" lon="3.80531">
        <ele>29</ele>
        <time>2021-04-13T09:40:36Z</time>
      </trkpt>
      <trkpt lat="43.57899" lon="3.80538">
        <ele>28.8</ele>
        <time>2021-04-13T09:40:37Z</time>
      </trkpt>
      <trkpt lat="43.57896" lon="3.80544">
        <ele>28.8</ele>
        <time>2021-04-13T09:40:38Z</time>
      </trkpt>
      <trkpt lat="43.57893" lon="3.80549">
        <ele>28.8</ele>
        <time>2021-04-13T09:40:39Z</time>
      </trkpt>
      <trkpt lat="43.57889" lon="3.80555">
        <ele>28.6</ele>
        <time>2021-04-13T09:40:40Z</time>
      </trkpt>
      <trkpt lat="43.57886" lon="3.80561">
        <ele>28.4</ele>
        <time>2021-04-13T09:40:41Z</time>
      </trkpt>
      <trkpt lat="43.57883" lon="3.80567">
        <ele>28</ele>
        <time>2021-04-13T09:40:42Z</time>
      </trkpt>
      <trkpt lat="43.5788" lon="3.80573">
        <ele>28</ele>
        <time>2021-04-13T09:40:43Z</time>
      </trkpt>
      <trkpt lat="43.57877" lon="3.8058">
        <ele>28.2</ele>
        <time>2021-04-13T09:40:44Z</time>
      </trkpt>
      <trkpt lat="43.57873" lon="3.80586">
        <ele>28.2</ele>
        <time>2021-04-13T09:40:45Z</time>
      </trkpt>
      <trkpt lat="43.5787" lon="3.80592">
        <ele>27.8</ele>
        <time>2021-04-13T09:40:46Z</time>
      </trkpt>
      <trkpt lat="43.57867" lon="3.80599">
        <ele>27.6</ele>
        <time>2021-04-13T09:40:47Z</time>
      </trkpt>
      <trkpt lat="43.57864" lon="3.80605">
        <ele>27.4</ele>
        <time>2021-04-13T09:40:48Z</time>
      </trkpt>
      <trkpt lat="43.5786" lon="3.80612">
        <ele>27.4</ele>
        <time>2021-04-13T09:40:49Z</time>
      </trkpt>
      <trkpt lat="43.57857" lon="3.80619">
        <ele>27.2</ele>
        <time>2021-04-13T09:40:50Z</time>
      </trkpt>
      <trkpt lat="43.57853" lon="3.80626">
        <ele>26.8</ele>
        <time>2021-04-13T09:40:51Z</time>
      </trkpt>
      <trkpt lat="43.5785" lon="3.80633">
        <ele>26.8</ele>
        <time>2021-04-13T09:40:52Z</time>
      </trkpt>
      <trkpt lat="43.57846" lon="3.8064">
        <ele>26.8</ele>
        <time>2021-04-13T09:40:53Z</time>
      </trkpt>
      <trkpt lat="43.57843" lon="3.80647">
        <ele>26.8</ele>
        <time>2021-04-13T09:40:54Z</time>
      </trkpt>
      <trkpt lat="43.57839" lon="3.80655">
        <ele>27</ele>
        <time>2021-04-13T09:40:55Z</time>
      </trkpt>
      <trkpt lat="43.57836" lon="3.80661">
        <ele>26.8</ele>
        <time>2021-04-13T09:40:56Z</time>
      </trkpt>
      <trkpt lat="43.57833" lon="3.80668">
        <ele>26.8</ele>
        <time>2021-04-13T09:40:57Z</time>
      </trkpt>
      <trkpt lat="43.57829" lon="3.80675">
        <ele>26.6</ele>
        <time>2021-04-13T09:40:58Z</time>
      </trkpt>
      <trkpt lat="43.57826" lon="3.80681">
        <ele>26.4</ele>
        <time>2021-04-13T09:40:59Z</time>
      </trkpt>
      <trkpt lat="43.57823" lon="3.80686">
        <ele>26.4</ele>
        <time>2021-04-13T09:41:00Z</time>
      </trkpt>
      <trkpt lat="43.57819" lon="3.80692">
        <ele>26.4</ele>
        <time>2021-04-13T09:41:01Z</time>
      </trkpt>
      <trkpt lat="43.57816" lon="3.80698">
        <ele>26.6</ele>
        <time>2021-04-13T09:41:02Z</time>
      </trkpt>
      <trkpt lat="43.57813" lon="3.80705">
        <ele>26.8</ele>
        <time>2021-04-13T09:41:03Z</time>
      </trkpt>
      <trkpt lat="43.57809" lon="3.80711">
        <ele>26.2</ele>
        <time>2021-04-13T09:41:04Z</time>
      </trkpt>
      <trkpt lat="43.57806" lon="3.80717">
        <ele>26.2</ele>
        <time>2021-04-13T09:41:05Z</time>
      </trkpt>
      <trkpt lat="43.57803" lon="3.80724">
        <ele>26</ele>
        <time>2021-04-13T09:41:06Z</time>
      </trkpt>
      <trkpt lat="43.57799" lon="3.8073">
        <ele>25.8</ele>
        <time>2021-04-13T09:41:07Z</time>
      </trkpt>
      <trkpt lat="43.57796" lon="3.80736">
        <ele>25.6</ele>
        <time>2021-04-13T09:41:08Z</time>
      </trkpt>
      <trkpt lat="43.57793" lon="3.80742">
        <ele>25.4</ele>
        <time>2021-04-13T09:41:09Z</time>
      </trkpt>
      <trkpt lat="43.57789" lon="3.8075">
        <ele>25.4</ele>
        <time>2021-04-13T09:41:10Z</time>
      </trkpt>
      <trkpt lat="43.57786" lon="3.80757">
        <ele>25.4</ele>
        <time>2021-04-13T09:41:11Z</time>
      </trkpt>
      <trkpt lat="43.57782" lon="3.80765">
        <ele>25.2</ele>
        <time>2021-04-13T09:41:12Z</time>
      </trkpt>
      <trkpt lat="43.57779" lon="3.80772">
        <ele>24.8</ele>
        <time>2021-04-13T09:41:13Z</time>
      </trkpt>
      <trkpt lat="43.57775" lon="3.8078">
        <ele>24.6</ele>
        <time>2021-04-13T09:41:14Z</time>
      </trkpt>
      <trkpt lat="43.57771" lon="3.80787">
        <ele>24.4</ele>
        <time>2021-04-13T09:41:15Z</time>
      </trkpt>
      <trkpt lat="43.57768" lon="3.80795">
        <ele>24.8</ele>
        <time>2021-04-13T09:41:16Z</time>
      </trkpt>
      <trkpt lat="43.57764" lon="3.80801">
        <ele>24.6</ele>
        <time>2021-04-13T09:41:17Z</time>
      </trkpt>
      <trkpt lat="43.57761" lon="3.80808">
        <ele>24.6</ele>
        <time>2021-04-13T09:41:18Z</time>
      </trkpt>
      <trkpt lat="43.57758" lon="3.80814">
        <ele>24.2</ele>
        <time>2021-04-13T09:41:19Z</time>
      </trkpt>
      <trkpt lat="43.57754" lon="3.8082">
        <ele>24.4</ele>
        <time>2021-04-13T09:41:20Z</time>
      </trkpt>
      <trkpt lat="43.5775" lon="3.80827">
        <ele>24.2</ele>
        <time>2021-04-13T09:41:21Z</time>
      </trkpt>
      <trkpt lat="43.57746" lon="3.80835">
        <ele>23.8</ele>
        <time>2021-04-13T09:41:22Z</time>
      </trkpt>
      <trkpt lat="43.57742" lon="3.80842">
        <ele>23.6</ele>
        <time>2021-04-13T09:41:23Z</time>
      </trkpt>
      <trkpt lat="43.57737" lon="3.80849">
        <ele>23.4</ele>
        <time>2021-04-13T09:41:24Z</time>
      </trkpt>
      <trkpt lat="43.57733" lon="3.80856">
        <ele>23.4</ele>
        <time>2021-04-13T09:41:25Z</time>
      </trkpt>
      <trkpt lat="43.57728" lon="3.80863">
        <ele>23.2</ele>
        <time>2021-04-13T09:41:26Z</time>
      </trkpt>
      <trkpt lat="43.57723" lon="3.80869">
        <ele>23.2</ele>
        <time>2021-04-13T09:41:27Z</time>
      </trkpt>
      <trkpt lat="43.57718" lon="3.80875">
        <ele>23</ele>
        <time>2021-04-13T09:41:28Z</time>
      </trkpt>
      <trkpt lat="43.57713" lon="3.8088">
        <ele>22.8</ele>
        <time>2021-04-13T09:41:29Z</time>
      </trkpt>
      <trkpt lat="43.57707" lon="3.80884">
        <ele>22.6</ele>
        <time>2021-04-13T09:41:30Z</time>
      </trkpt>
      <trkpt lat="43.57702" lon="3.80888">
        <ele>22.8</ele>
        <time>2021-04-13T09:41:31Z</time>
      </trkpt>
      <trkpt lat="43.57696" lon="3.80892">
        <ele>22.8</ele>
        <time>2021-04-13T09:41:32Z</time>
      </trkpt>
      <trkpt lat="43.57691" lon="3.80896">
        <ele>22.6</ele>
        <time>2021-04-13T09:41:33Z</time>
      </trkpt>
      <trkpt lat="43.57685" lon="3.809">
        <ele>22.2</ele>
        <time>2021-04-13T09:41:34Z</time>
      </trkpt>
      <trkpt lat="43.57679" lon="3.80903">
        <ele>22</ele>
        <time>2021-04-13T09:41:35Z</time>
      </trkpt>
      <trkpt lat="43.57674" lon="3.80907">
        <ele>21.8</ele>
        <time>2021-04-13T09:41:36Z</time>
      </trkpt>
      <trkpt lat="43.57668" lon="3.8091">
        <ele>21.8</ele>
        <time>2021-04-13T09:41:37Z</time>
      </trkpt>
      <trkpt lat="43.57663" lon="3.80914">
        <ele>21.6</ele>
        <time>2021-04-13T09:41:38Z</time>
      </trkpt>
      <trkpt lat="43.57657" lon="3.80917">
        <ele>21.6</ele>
        <time>2021-04-13T09:41:39Z</time>
      </trkpt>
      <trkpt lat="43.57652" lon="3.8092">
        <ele>21.6</ele>
        <time>2021-04-13T09:41:40Z</time>
      </trkpt>
      <trkpt lat="43.57647" lon="3.80923">
        <ele>21.6</ele>
        <time>2021-04-13T09:41:41Z</time>
      </trkpt>
      <trkpt lat="43.57641" lon="3.80926">
        <ele>21.6</ele>
        <time>2021-04-13T09:41:42Z</time>
      </trkpt>
      <trkpt lat="43.57636" lon="3.80929">
        <ele>21.4</ele>
        <time>2021-04-13T09:41:43Z</time>
      </trkpt>
      <trkpt lat="43.57631" lon="3.80931">
        <ele>21.4</ele>
        <time>2021-04-13T09:41:44Z</time>
      </trkpt>
      <trkpt lat="43.57626" lon="3.80934">
        <ele>21.2</ele>
        <time>2021-04-13T09:41:45Z</time>
      </trkpt>
      <trkpt lat="43.5762" lon="3.80936">
        <ele>21.2</ele>
        <time>2021-04-13T09:41:46Z</time>
      </trkpt>
      <trkpt lat="43.57614" lon="3.80938">
        <ele>21</ele>
        <time>2021-04-13T09:41:47Z</time>
      </trkpt>
      <trkpt lat="43.57608" lon="3.8094">
        <ele>21</ele>
        <time>2021-04-13T09:41:48Z</time>
      </trkpt>
      <trkpt lat="43.57602" lon="3.80942">
        <ele>20.8</ele>
        <time>2021-04-13T09:41:49Z</time>
      </trkpt>
      <trkpt lat="43.57596" lon="3.80944">
        <ele>20.8</ele>
        <time>2021-04-13T09:41:50Z</time>
      </trkpt>
      <trkpt lat="43.5759" lon="3.80946">
        <ele>20.6</ele>
        <time>2021-04-13T09:41:51Z</time>
      </trkpt>
      <trkpt lat="43.57584" lon="3.80948">
        <ele>20.4</ele>
        <time>2021-04-13T09:41:52Z</time>
      </trkpt>
      <trkpt lat="43.57578" lon="3.8095">
        <ele>20.4</ele>
        <time>2021-04-13T09:41:53Z</time>
      </trkpt>
      <trkpt lat="43.57571" lon="3.80952">
        <ele>20.2</ele>
        <time>2021-04-13T09:41:54Z</time>
      </trkpt>
      <trkpt lat="43.57565" lon="3.80955">
        <ele>20.2</ele>
        <time>2021-04-13T09:41:55Z</time>
      </trkpt>
      <trkpt lat="43.57559" lon="3.80957">
        <ele>20.2</ele>
        <time>2021-04-13T09:41:56Z</time>
      </trkpt>
      <trkpt lat="43.57552" lon="3.8096">
        <ele>20</ele>
        <time>2021-04-13T09:41:57Z</time>
      </trkpt>
      <trkpt lat="43.57546" lon="3.80963">
        <ele>19.8</ele>
        <time>2021-04-13T09:41:58Z</time>
      </trkpt>
      <trkpt lat="43.57539" lon="3.80965">
        <ele>19.6</ele>
        <time>2021-04-13T09:41:59Z</time>
      </trkpt>
      <trkpt lat="43.57533" lon="3.80968">
        <ele>19.6</ele>
        <time>2021-04-13T09:42:00Z</time>
      </trkpt>
      <trkpt lat="43.57526" lon="3.80971">
        <ele>19.2</ele>
        <time>2021-04-13T09:42:01Z</time>
      </trkpt>
      <trkpt lat="43.5752" lon="3.80973">
        <ele>19.2</ele>
        <time>2021-04-13T09:42:02Z</time>
      </trkpt>
      <trkpt lat="43.57513" lon="3.80975">
        <ele>19</ele>
        <time>2021-04-13T09:42:03Z</time>
      </trkpt>
      <trkpt lat="43.57507" lon="3.80977">
        <ele>19</ele>
        <time>2021-04-13T09:42:04Z</time>
      </trkpt>
      <trkpt lat="43.57501" lon="3.80979">
        <ele>19</ele>
        <time>2021-04-13T09:42:05Z</time>
      </trkpt>
      <trkpt lat="43.57494" lon="3.8098">
        <ele>19</ele>
        <time>2021-04-13T09:42:06Z</time>
      </trkpt>
      <trkpt lat="43.57487" lon="3.80979">
        <ele>18.8</ele>
        <time>2021-04-13T09:42:07Z</time>
      </trkpt>
      <trkpt lat="43.57481" lon="3.80981">
        <ele>18.6</ele>
        <time>2021-04-13T09:42:08Z</time>
      </trkpt>
      <trkpt lat="43.57475" lon="3.80981">
        <ele>18.6</ele>
        <time>2021-04-13T09:42:09Z</time>
      </trkpt>
      <trkpt lat="43.5747" lon="3.80982">
        <ele>18.8</ele>
        <time>2021-04-13T09:42:10Z</time>
      </trkpt>
      <trkpt lat="43.57465" lon="3.80983">
        <ele>18.8</ele>
        <time>2021-04-13T09:42:11Z</time>
      </trkpt>
      <trkpt lat="43.5746" lon="3.80984">
        <ele>18.8</ele>
        <time>2021-04-13T09:42:12Z</time>
      </trkpt>
      <trkpt lat="43.57454" lon="3.80986">
        <ele>18.8</ele>
        <time>2021-04-13T09:42:13Z</time>
      </trkpt>
      <trkpt lat="43.57449" lon="3.80986">
        <ele>18.8</ele>
        <time>2021-04-13T09:42:14Z</time>
      </trkpt>
      <trkpt lat="43.57444" lon="3.80987">
        <ele>18.6</ele>
        <time>2021-04-13T09:42:15Z</time>
      </trkpt>
      <trkpt lat="43.5744" lon="3.80988">
        <ele>18.6</ele>
        <time>2021-04-13T09:42:16Z</time>
      </trkpt>
      <trkpt lat="43.57436" lon="3.8099">
        <ele>18.6</ele>
        <time>2021-04-13T09:42:17Z</time>
      </trkpt>
      <trkpt lat="43.57433" lon="3.8099">
        <ele>18.8</ele>
        <time>2021-04-13T09:42:18Z</time>
      </trkpt>
      <trkpt lat="43.57427" lon="3.80991">
        <ele>18.8</ele>
        <time>2021-04-13T09:42:19Z</time>
      </trkpt>
      <trkpt lat="43.5742" lon="3.80992">
        <ele>18.6</ele>
        <time>2021-04-13T09:42:20Z</time>
      </trkpt>
      <trkpt lat="43.57414" lon="3.80994">
        <ele>18.6</ele>
        <time>2021-04-13T09:42:21Z</time>
      </trkpt>
      <trkpt lat="43.57408" lon="3.80995">
        <ele>18.6</ele>
        <time>2021-04-13T09:42:22Z</time>
      </trkpt>
      <trkpt lat="43.57402" lon="3.80996">
        <ele>18.6</ele>
        <time>2021-04-13T09:42:23Z</time>
      </trkpt>
      <trkpt lat="43.57396" lon="3.80997">
        <ele>18.6</ele>
        <time>2021-04-13T09:42:24Z</time>
      </trkpt>
      <trkpt lat="43.57391" lon="3.81">
        <ele>18.6</ele>
        <time>2021-04-13T09:42:25Z</time>
      </trkpt>
      <trkpt lat="43.57388" lon="3.81001">
        <ele>18.6</ele>
        <time>2021-04-13T09:42:26Z</time>
      </trkpt>
      <trkpt lat="43.57385" lon="3.81003">
        <ele>18.4</ele>
        <time>2021-04-13T09:42:27Z</time>
      </trkpt>
      <trkpt lat="43.57381" lon="3.81007">
        <ele>18.4</ele>
        <time>2021-04-13T09:42:28Z</time>
      </trkpt>
      <trkpt lat="43.57378" lon="3.81009">
        <ele>18.4</ele>
        <time>2021-04-13T09:42:29Z</time>
      </trkpt>
      <trkpt lat="43.57374" lon="3.81013">
        <ele>18.4</ele>
        <time>2021-04-13T09:42:30Z</time>
      </trkpt>
      <trkpt lat="43.57371" lon="3.81016">
        <ele>18.4</ele>
        <time>2021-04-13T09:42:31Z</time>
      </trkpt>
      <trkpt lat="43.57369" lon="3.81019">
        <ele>18.4</ele>
        <time>2021-04-13T09:42:32Z</time>
      </trkpt>
      <trkpt lat="43.57365" lon="3.81022">
        <ele>18.4</ele>
        <time>2021-04-13T09:42:33Z</time>
      </trkpt>
      <trkpt lat="43.57362" lon="3.81025">
        <ele>18.2</ele>
        <time>2021-04-13T09:42:34Z</time>
      </trkpt>
      <trkpt lat="43.57357" lon="3.81028">
        <ele>18.2</ele>
        <time>2021-04-13T09:42:35Z</time>
      </trkpt>
      <trkpt lat="43.57354" lon="3.8103">
        <ele>18.2</ele>
        <time>2021-04-13T09:42:36Z</time>
      </trkpt>
      <trkpt lat="43.57351" lon="3.81033">
        <ele>18.2</ele>
        <time>2021-04-13T09:42:37Z</time>
      </trkpt>
      <trkpt lat="43.57348" lon="3.81036">
        <ele>18.2</ele>
        <time>2021-04-13T09:42:38Z</time>
      </trkpt>
      <trkpt lat="43.57345" lon="3.81039">
        <ele>18.2</ele>
        <time>2021-04-13T09:42:39Z</time>
      </trkpt>
      <trkpt lat="43.57342" lon="3.81041">
        <ele>18</ele>
        <time>2021-04-13T09:42:40Z</time>
      </trkpt>
      <trkpt lat="43.57341" lon="3.81046">
        <ele>18.2</ele>
        <time>2021-04-13T09:42:41Z</time>
      </trkpt>
      <trkpt lat="43.57339" lon="3.81051">
        <ele>18.2</ele>
        <time>2021-04-13T09:42:42Z</time>
      </trkpt>
      <trkpt lat="43.57336" lon="3.81054">
        <ele>18</ele>
        <time>2021-04-13T09:42:43Z</time>
      </trkpt>
      <trkpt lat="43.57333" lon="3.81058">
        <ele>18</ele>
        <time>2021-04-13T09:42:44Z</time>
      </trkpt>
      <trkpt lat="43.5733" lon="3.81063">
        <ele>18.2</ele>
        <time>2021-04-13T09:42:45Z</time>
      </trkpt>
      <trkpt lat="43.57328" lon="3.81069">
        <ele>18.2</ele>
        <time>2021-04-13T09:42:46Z</time>
      </trkpt>
      <trkpt lat="43.57323" lon="3.81078">
        <ele>18.2</ele>
        <time>2021-04-13T09:42:47Z</time>
      </trkpt>
      <trkpt lat="43.57317" lon="3.81084">
        <ele>18</ele>
        <time>2021-04-13T09:42:48Z</time>
      </trkpt>
      <trkpt lat="43.57311" lon="3.8109">
        <ele>18.2</ele>
        <time>2021-04-13T09:42:49Z</time>
      </trkpt>
      <trkpt lat="43.57306" lon="3.81097">
        <ele>18.4</ele>
        <time>2021-04-13T09:42:50Z</time>
      </trkpt>
      <trkpt lat="43.57301" lon="3.81103">
        <ele>18.4</ele>
        <time>2021-04-13T09:42:51Z</time>
      </trkpt>
      <trkpt lat="43.57298" lon="3.81105">
        <ele>18.4</ele>
        <time>2021-04-13T09:42:52Z</time>
      </trkpt>
      <trkpt lat="43.57295" lon="3.81108">
        <ele>18.6</ele>
        <time>2021-04-13T09:42:53Z</time>
      </trkpt>
      <trkpt lat="43.57292" lon="3.8111">
        <ele>18.6</ele>
        <time>2021-04-13T09:42:54Z</time>
      </trkpt>
      <trkpt lat="43.57289" lon="3.81114">
        <ele>18.8</ele>
        <time>2021-04-13T09:42:55Z</time>
      </trkpt>
      <trkpt lat="43.57285" lon="3.81117">
        <ele>18.8</ele>
        <time>2021-04-13T09:42:56Z</time>
      </trkpt>
      <trkpt lat="43.57283" lon="3.81118">
        <ele>18.8</ele>
        <time>2021-04-13T09:42:57Z</time>
      </trkpt>
      <trkpt lat="43.57277" lon="3.81122">
        <ele>18.8</ele>
        <time>2021-04-13T09:42:58Z</time>
      </trkpt>
      <trkpt lat="43.57271" lon="3.81125">
        <ele>18.8</ele>
        <time>2021-04-13T09:42:59Z</time>
      </trkpt>
      <trkpt lat="43.57266" lon="3.81129">
        <ele>18.8</ele>
        <time>2021-04-13T09:43:00Z</time>
      </trkpt>
      <trkpt lat="43.57261" lon="3.81132">
        <ele>18.8</ele>
        <time>2021-04-13T09:43:01Z</time>
      </trkpt>
      <trkpt lat="43.57256" lon="3.81135">
        <ele>18.8</ele>
        <time>2021-04-13T09:43:02Z</time>
      </trkpt>
      <trkpt lat="43.57251" lon="3.81138">
        <ele>18.8</ele>
        <time>2021-04-13T09:43:03Z</time>
      </trkpt>
      <trkpt lat="43.57246" lon="3.81142">
        <ele>19</ele>
        <time>2021-04-13T09:43:04Z</time>
      </trkpt>
      <trkpt lat="43.57241" lon="3.81146">
        <ele>18.8</ele>
        <time>2021-04-13T09:43:05Z</time>
      </trkpt>
      <trkpt lat="43.57236" lon="3.81149">
        <ele>18.8</ele>
        <time>2021-04-13T09:43:06Z</time>
      </trkpt>
      <trkpt lat="43.57232" lon="3.81152">
        <ele>18.8</ele>
        <time>2021-04-13T09:43:07Z</time>
      </trkpt>
      <trkpt lat="43.57228" lon="3.81154">
        <ele>18.8</ele>
        <time>2021-04-13T09:43:08Z</time>
      </trkpt>
      <trkpt lat="43.57223" lon="3.81158">
        <ele>18.6</ele>
        <time>2021-04-13T09:43:09Z</time>
      </trkpt>
      <trkpt lat="43.57218" lon="3.81162">
        <ele>18.6</ele>
        <time>2021-04-13T09:43:10Z</time>
      </trkpt>
      <trkpt lat="43.57213" lon="3.81164">
        <ele>18.6</ele>
        <time>2021-04-13T09:43:11Z</time>
      </trkpt>
      <trkpt lat="43.57208" lon="3.81167">
        <ele>18.6</ele>
        <time>2021-04-13T09:43:12Z</time>
      </trkpt>
      <trkpt lat="43.57203" lon="3.81171">
        <ele>18.6</ele>
        <time>2021-04-13T09:43:13Z</time>
      </trkpt>
      <trkpt lat="43.57197" lon="3.81175">
        <ele>18.6</ele>
        <time>2021-04-13T09:43:14Z</time>
      </trkpt>
      <trkpt lat="43.57192" lon="3.81178">
        <ele>18.6</ele>
        <time>2021-04-13T09:43:15Z</time>
      </trkpt>
      <trkpt lat="43.57187" lon="3.81182">
        <ele>18.6</ele>
        <time>2021-04-13T09:43:16Z</time>
      </trkpt>
      <trkpt lat="43.57182" lon="3.81186">
        <ele>18.8</ele>
        <time>2021-04-13T09:43:17Z</time>
      </trkpt>
      <trkpt lat="43.57177" lon="3.81189">
        <ele>18.6</ele>
        <time>2021-04-13T09:43:18Z</time>
      </trkpt>
      <trkpt lat="43.57173" lon="3.81192">
        <ele>18.8</ele>
        <time>2021-04-13T09:43:19Z</time>
      </trkpt>
      <trkpt lat="43.57169" lon="3.81196">
        <ele>19</ele>
        <time>2021-04-13T09:43:20Z</time>
      </trkpt>
      <trkpt lat="43.57165" lon="3.81196">
        <ele>19</ele>
        <time>2021-04-13T09:43:21Z</time>
      </trkpt>
      <trkpt lat="43.57161" lon="3.81198">
        <ele>19</ele>
        <time>2021-04-13T09:43:22Z</time>
      </trkpt>
      <trkpt lat="43.57157" lon="3.81203">
        <ele>19</ele>
        <time>2021-04-13T09:43:23Z</time>
      </trkpt>
      <trkpt lat="43.57154" lon="3.81207">
        <ele>19.2</ele>
        <time>2021-04-13T09:43:24Z</time>
      </trkpt>
      <trkpt lat="43.57151" lon="3.81211">
        <ele>19</ele>
        <time>2021-04-13T09:43:25Z</time>
      </trkpt>
      <trkpt lat="43.5715" lon="3.81214">
        <ele>19</ele>
        <time>2021-04-13T09:43:26Z</time>
      </trkpt>
      <trkpt lat="43.57148" lon="3.8122">
        <ele>19</ele>
        <time>2021-04-13T09:43:27Z</time>
      </trkpt>
      <trkpt lat="43.57146" lon="3.81225">
        <ele>19</ele>
        <time>2021-04-13T09:43:28Z</time>
      </trkpt>
      <trkpt lat="43.57146" lon="3.81228">
        <ele>19</ele>
        <time>2021-04-13T09:43:29Z</time>
      </trkpt>
      <trkpt lat="43.57145" lon="3.81233">
        <ele>19.2</ele>
        <time>2021-04-13T09:43:30Z</time>
      </trkpt>
      <trkpt lat="43.57145" lon="3.81239">
        <ele>19.2</ele>
        <time>2021-04-13T09:43:31Z</time>
      </trkpt>
      <trkpt lat="43.57144" lon="3.81244">
        <ele>19.6</ele>
        <time>2021-04-13T09:43:32Z</time>
      </trkpt>
      <trkpt lat="43.57144" lon="3.81248">
        <ele>19.8</ele>
        <time>2021-04-13T09:43:33Z</time>
      </trkpt>
      <trkpt lat="43.57143" lon="3.81252">
        <ele>19.8</ele>
        <time>2021-04-13T09:43:34Z</time>
      </trkpt>
      <trkpt lat="43.57143" lon="3.81256">
        <ele>20</ele>
        <time>2021-04-13T09:43:35Z</time>
      </trkpt>
      <trkpt lat="43.57143" lon="3.81263">
        <ele>20.2</ele>
        <time>2021-04-13T09:43:36Z</time>
      </trkpt>
      <trkpt lat="43.57142" lon="3.81269">
        <ele>20.6</ele>
        <time>2021-04-13T09:43:37Z</time>
      </trkpt>
      <trkpt lat="43.57141" lon="3.81273">
        <ele>21</ele>
        <time>2021-04-13T09:43:38Z</time>
      </trkpt>
      <trkpt lat="43.5714" lon="3.81276">
        <ele>21.2</ele>
        <time>2021-04-13T09:43:39Z</time>
      </trkpt>
      <trkpt lat="43.57139" lon="3.8128">
        <ele>21.4</ele>
        <time>2021-04-13T09:43:40Z</time>
      </trkpt>
      <trkpt lat="43.57138" lon="3.81283">
        <ele>21.6</ele>
        <time>2021-04-13T09:43:41Z</time>
      </trkpt>
      <trkpt lat="43.57138" lon="3.81285">
        <ele>21.6</ele>
        <time>2021-04-13T09:43:42Z</time>
      </trkpt>
      <trkpt lat="43.57138" lon="3.81286">
        <ele>21.8</ele>
        <time>2021-04-13T09:43:43Z</time>
      </trkpt>
      <trkpt lat="43.57137" lon="3.81287">
        <ele>21.8</ele>
        <time>2021-04-13T09:43:44Z</time>
      </trkpt>
      <trkpt lat="43.57137" lon="3.81288">
        <ele>21.8</ele>
        <time>2021-04-13T09:43:45Z</time>
      </trkpt>
      <trkpt lat="43.57137" lon="3.8129">
        <ele>22.2</ele>
        <time>2021-04-13T09:43:46Z</time>
      </trkpt>
      <trkpt lat="43.57137" lon="3.81291">
        <ele>22</ele>
        <time>2021-04-13T09:43:47Z</time>
      </trkpt>
      <trkpt lat="43.57136" lon="3.81292">
        <ele>22</ele>
        <time>2021-04-13T09:43:48Z</time>
      </trkpt>
      <trkpt lat="43.57136" lon="3.81293">
        <ele>22.2</ele>
        <time>2021-04-13T09:43:49Z</time>
      </trkpt>
      <trkpt lat="43.57138" lon="3.81328">
        <ele>22.6</ele>
        <time>2021-04-13T09:44:12Z</time>
      </trkpt>
      <trkpt lat="43.5714" lon="3.81331">
        <ele>22.4</ele>
        <time>2021-04-13T09:44:13Z</time>
      </trkpt>
      <trkpt lat="43.57142" lon="3.81334">
        <ele>22.4</ele>
        <time>2021-04-13T09:44:14Z</time>
      </trkpt>
      <trkpt lat="43.57144" lon="3.81338">
        <ele>22.6</ele>
        <time>2021-04-13T09:44:15Z</time>
      </trkpt>
      <trkpt lat="43.57146" lon="3.81341">
        <ele>22.8</ele>
        <time>2021-04-13T09:44:16Z</time>
      </trkpt>
      <trkpt lat="43.57148" lon="3.81344">
        <ele>23</ele>
        <time>2021-04-13T09:44:17Z</time>
      </trkpt>
      <trkpt lat="43.5715" lon="3.81347">
        <ele>23</ele>
        <time>2021-04-13T09:44:18Z</time>
      </trkpt>
      <trkpt lat="43.57152" lon="3.81351">
        <ele>23.2</ele>
        <time>2021-04-13T09:44:19Z</time>
      </trkpt>
      <trkpt lat="43.57155" lon="3.81355">
        <ele>23.2</ele>
        <time>2021-04-13T09:44:20Z</time>
      </trkpt>
      <trkpt lat="43.57157" lon="3.81359">
        <ele>23.2</ele>
        <time>2021-04-13T09:44:21Z</time>
      </trkpt>
      <trkpt lat="43.57159" lon="3.81363">
        <ele>23.2</ele>
        <time>2021-04-13T09:44:22Z</time>
      </trkpt>
      <trkpt lat="43.5716" lon="3.81366">
        <ele>23.2</ele>
        <time>2021-04-13T09:44:23Z</time>
      </trkpt>
      <trkpt lat="43.57163" lon="3.8137">
        <ele>23</ele>
        <time>2021-04-13T09:44:24Z</time>
      </trkpt>
      <trkpt lat="43.57165" lon="3.81373">
        <ele>23</ele>
        <time>2021-04-13T09:44:25Z</time>
      </trkpt>
      <trkpt lat="43.57167" lon="3.81377">
        <ele>22.8</ele>
        <time>2021-04-13T09:44:26Z</time>
      </trkpt>
      <trkpt lat="43.5717" lon="3.81381">
        <ele>23</ele>
        <time>2021-04-13T09:44:27Z</time>
      </trkpt>
      <trkpt lat="43.57173" lon="3.81386">
        <ele>23</ele>
        <time>2021-04-13T09:44:28Z</time>
      </trkpt>
      <trkpt lat="43.57175" lon="3.8139">
        <ele>23</ele>
        <time>2021-04-13T09:44:29Z</time>
      </trkpt>
      <trkpt lat="43.57178" lon="3.81394">
        <ele>23</ele>
        <time>2021-04-13T09:44:30Z</time>
      </trkpt>
      <trkpt lat="43.57179" lon="3.81398">
        <ele>23.2</ele>
        <time>2021-04-13T09:44:31Z</time>
      </trkpt>
      <trkpt lat="43.57182" lon="3.81402">
        <ele>23</ele>
        <time>2021-04-13T09:44:32Z</time>
      </trkpt>
      <trkpt lat="43.57184" lon="3.81407">
        <ele>23</ele>
        <time>2021-04-13T09:44:33Z</time>
      </trkpt>
      <trkpt lat="43.57187" lon="3.81411">
        <ele>23.2</ele>
        <time>2021-04-13T09:44:34Z</time>
      </trkpt>
      <trkpt lat="43.57189" lon="3.81415">
        <ele>22.8</ele>
        <time>2021-04-13T09:44:35Z</time>
      </trkpt>
      <trkpt lat="43.57191" lon="3.81419">
        <ele>23</ele>
        <time>2021-04-13T09:44:36Z</time>
      </trkpt>
      <trkpt lat="43.57192" lon="3.81423">
        <ele>23</ele>
        <time>2021-04-13T09:44:37Z</time>
      </trkpt>
      <trkpt lat="43.57194" lon="3.81427">
        <ele>23</ele>
        <time>2021-04-13T09:44:38Z</time>
      </trkpt>
      <trkpt lat="43.57197" lon="3.81431">
        <ele>23</ele>
        <time>2021-04-13T09:44:39Z</time>
      </trkpt>
      <trkpt lat="43.57199" lon="3.81434">
        <ele>23.2</ele>
        <time>2021-04-13T09:44:40Z</time>
      </trkpt>
      <trkpt lat="43.57203" lon="3.81439">
        <ele>23.6</ele>
        <time>2021-04-13T09:44:41Z</time>
      </trkpt>
      <trkpt lat="43.57206" lon="3.81444">
        <ele>23.8</ele>
        <time>2021-04-13T09:44:42Z</time>
      </trkpt>
      <trkpt lat="43.5721" lon="3.81449">
        <ele>23.6</ele>
        <time>2021-04-13T09:44:43Z</time>
      </trkpt>
      <trkpt lat="43.57213" lon="3.81454">
        <ele>23.6</ele>
        <time>2021-04-13T09:44:44Z</time>
      </trkpt>
      <trkpt lat="43.57216" lon="3.81458">
        <ele>23.4</ele>
        <time>2021-04-13T09:44:45Z</time>
      </trkpt>
      <trkpt lat="43.57218" lon="3.81462">
        <ele>23</ele>
        <time>2021-04-13T09:44:46Z</time>
      </trkpt>
      <trkpt lat="43.57222" lon="3.81467">
        <ele>23.2</ele>
        <time>2021-04-13T09:44:47Z</time>
      </trkpt>
      <trkpt lat="43.57225" lon="3.81471">
        <ele>23.2</ele>
        <time>2021-04-13T09:44:48Z</time>
      </trkpt>
      <trkpt lat="43.57229" lon="3.81476">
        <ele>23.2</ele>
        <time>2021-04-13T09:44:49Z</time>
      </trkpt>
      <trkpt lat="43.57231" lon="3.8148">
        <ele>23.2</ele>
        <time>2021-04-13T09:44:50Z</time>
      </trkpt>
      <trkpt lat="43.57235" lon="3.81485">
        <ele>23.2</ele>
        <time>2021-04-13T09:44:51Z</time>
      </trkpt>
      <trkpt lat="43.57238" lon="3.81489">
        <ele>23.2</ele>
        <time>2021-04-13T09:44:52Z</time>
      </trkpt>
      <trkpt lat="43.57241" lon="3.81494">
        <ele>23.2</ele>
        <time>2021-04-13T09:44:53Z</time>
      </trkpt>
      <trkpt lat="43.57244" lon="3.81497">
        <ele>23.2</ele>
        <time>2021-04-13T09:44:54Z</time>
      </trkpt>
      <trkpt lat="43.57247" lon="3.81503">
        <ele>23.4</ele>
        <time>2021-04-13T09:44:55Z</time>
      </trkpt>
      <trkpt lat="43.57251" lon="3.81509">
        <ele>23.2</ele>
        <time>2021-04-13T09:44:56Z</time>
      </trkpt>
      <trkpt lat="43.57254" lon="3.81514">
        <ele>23.2</ele>
        <time>2021-04-13T09:44:57Z</time>
      </trkpt>
      <trkpt lat="43.57258" lon="3.81519">
        <ele>23.4</ele>
        <time>2021-04-13T09:44:58Z</time>
      </trkpt>
      <trkpt lat="43.57261" lon="3.81525">
        <ele>23.4</ele>
        <time>2021-04-13T09:44:59Z</time>
      </trkpt>
      <trkpt lat="43.57265" lon="3.81529">
        <ele>23.6</ele>
        <time>2021-04-13T09:45:00Z</time>
      </trkpt>
      <trkpt lat="43.57267" lon="3.81534">
        <ele>23.6</ele>
        <time>2021-04-13T09:45:01Z</time>
      </trkpt>
      <trkpt lat="43.5727" lon="3.81539">
        <ele>23.6</ele>
        <time>2021-04-13T09:45:02Z</time>
      </trkpt>
      <trkpt lat="43.57272" lon="3.81544">
        <ele>23.6</ele>
        <time>2021-04-13T09:45:03Z</time>
      </trkpt>
      <trkpt lat="43.57275" lon="3.81549">
        <ele>23.8</ele>
        <time>2021-04-13T09:45:04Z</time>
      </trkpt>
      <trkpt lat="43.57277" lon="3.81554">
        <ele>24</ele>
        <time>2021-04-13T09:45:05Z</time>
      </trkpt>
      <trkpt lat="43.57279" lon="3.8156">
        <ele>24</ele>
        <time>2021-04-13T09:45:06Z</time>
      </trkpt>
      <trkpt lat="43.57281" lon="3.81565">
        <ele>24</ele>
        <time>2021-04-13T09:45:07Z</time>
      </trkpt>
      <trkpt lat="43.57284" lon="3.8157">
        <ele>24</ele>
        <time>2021-04-13T09:45:08Z</time>
      </trkpt>
      <trkpt lat="43.57286" lon="3.81576">
        <ele>24</ele>
        <time>2021-04-13T09:45:09Z</time>
      </trkpt>
      <trkpt lat="43.57288" lon="3.81581">
        <ele>23.8</ele>
        <time>2021-04-13T09:45:10Z</time>
      </trkpt>
      <trkpt lat="43.5729" lon="3.81586">
        <ele>23.8</ele>
        <time>2021-04-13T09:45:11Z</time>
      </trkpt>
      <trkpt lat="43.57291" lon="3.81591">
        <ele>24</ele>
        <time>2021-04-13T09:45:12Z</time>
      </trkpt>
      <trkpt lat="43.57293" lon="3.81596">
        <ele>24</ele>
        <time>2021-04-13T09:45:13Z</time>
      </trkpt>
      <trkpt lat="43.57294" lon="3.81602">
        <ele>24</ele>
        <time>2021-04-13T09:45:14Z</time>
      </trkpt>
      <trkpt lat="43.57295" lon="3.81607">
        <ele>24</ele>
        <time>2021-04-13T09:45:15Z</time>
      </trkpt>
      <trkpt lat="43.57296" lon="3.81612">
        <ele>24</ele>
        <time>2021-04-13T09:45:16Z</time>
      </trkpt>
      <trkpt lat="43.57297" lon="3.81617">
        <ele>24.8</ele>
        <time>2021-04-13T09:45:17Z</time>
      </trkpt>
      <trkpt lat="43.57298" lon="3.81622">
        <ele>25.4</ele>
        <time>2021-04-13T09:45:18Z</time>
      </trkpt>
      <trkpt lat="43.57299" lon="3.81626">
        <ele>26</ele>
        <time>2021-04-13T09:45:19Z</time>
      </trkpt>
      <trkpt lat="43.573" lon="3.81632">
        <ele>26.2</ele>
        <time>2021-04-13T09:45:20Z</time>
      </trkpt>
      <trkpt lat="43.57302" lon="3.81637">
        <ele>26</ele>
        <time>2021-04-13T09:45:21Z</time>
      </trkpt>
      <trkpt lat="43.57303" lon="3.81643">
        <ele>25.6</ele>
        <time>2021-04-13T09:45:22Z</time>
      </trkpt>
      <trkpt lat="43.57304" lon="3.81648">
        <ele>26</ele>
        <time>2021-04-13T09:45:23Z</time>
      </trkpt>
      <trkpt lat="43.57306" lon="3.81652">
        <ele>25.8</ele>
        <time>2021-04-13T09:45:24Z</time>
      </trkpt>
      <trkpt lat="43.57307" lon="3.81657">
        <ele>25.8</ele>
        <time>2021-04-13T09:45:25Z</time>
      </trkpt>
      <trkpt lat="43.57308" lon="3.81662">
        <ele>25.8</ele>
        <time>2021-04-13T09:45:26Z</time>
      </trkpt>
      <trkpt lat="43.57309" lon="3.81667">
        <ele>26.2</ele>
        <time>2021-04-13T09:45:27Z</time>
      </trkpt>
      <trkpt lat="43.57311" lon="3.81672">
        <ele>26.2</ele>
        <time>2021-04-13T09:45:28Z</time>
      </trkpt>
      <trkpt lat="43.57312" lon="3.81677">
        <ele>26.2</ele>
        <time>2021-04-13T09:45:29Z</time>
      </trkpt>
      <trkpt lat="43.57312" lon="3.81681">
        <ele>26.6</ele>
        <time>2021-04-13T09:45:30Z</time>
      </trkpt>
      <trkpt lat="43.57313" lon="3.81686">
        <ele>26.6</ele>
        <time>2021-04-13T09:45:31Z</time>
      </trkpt>
      <trkpt lat="43.57314" lon="3.8169">
        <ele>26.6</ele>
        <time>2021-04-13T09:45:32Z</time>
      </trkpt>
      <trkpt lat="43.57315" lon="3.81695">
        <ele>26.6</ele>
        <time>2021-04-13T09:45:33Z</time>
      </trkpt>
      <trkpt lat="43.57316" lon="3.81699">
        <ele>26.8</ele>
        <time>2021-04-13T09:45:34Z</time>
      </trkpt>
      <trkpt lat="43.57319" lon="3.81703">
        <ele>27.2</ele>
        <time>2021-04-13T09:45:35Z</time>
      </trkpt>
      <trkpt lat="43.57319" lon="3.81707">
        <ele>27</ele>
        <time>2021-04-13T09:45:36Z</time>
      </trkpt>
      <trkpt lat="43.5732" lon="3.81712">
        <ele>27.2</ele>
        <time>2021-04-13T09:45:37Z</time>
      </trkpt>
      <trkpt lat="43.57321" lon="3.81716">
        <ele>27.2</ele>
        <time>2021-04-13T09:45:38Z</time>
      </trkpt>
      <trkpt lat="43.57322" lon="3.8172">
        <ele>27.4</ele>
        <time>2021-04-13T09:45:39Z</time>
      </trkpt>
      <trkpt lat="43.57322" lon="3.81724">
        <ele>27.4</ele>
        <time>2021-04-13T09:45:40Z</time>
      </trkpt>
      <trkpt lat="43.57323" lon="3.81728">
        <ele>27.4</ele>
        <time>2021-04-13T09:45:41Z</time>
      </trkpt>
      <trkpt lat="43.57324" lon="3.81732">
        <ele>27.6</ele>
        <time>2021-04-13T09:45:42Z</time>
      </trkpt>
      <trkpt lat="43.57325" lon="3.81735">
        <ele>27.6</ele>
        <time>2021-04-13T09:45:43Z</time>
      </trkpt>
      <trkpt lat="43.57325" lon="3.81737">
        <ele>27.8</ele>
        <time>2021-04-13T09:45:44Z</time>
      </trkpt>
      <trkpt lat="43.57326" lon="3.81738">
        <ele>27.6</ele>
        <time>2021-04-13T09:45:45Z</time>
      </trkpt>
      <trkpt lat="43.57327" lon="3.81739">
        <ele>27.6</ele>
        <time>2021-04-13T09:45:46Z</time>
      </trkpt>
      <trkpt lat="43.57328" lon="3.81741">
        <ele>27.8</ele>
        <time>2021-04-13T09:45:47Z</time>
      </trkpt>
      <trkpt lat="43.57329" lon="3.81744">
        <ele>28.6</ele>
        <time>2021-04-13T09:45:48Z</time>
      </trkpt>
      <trkpt lat="43.5733" lon="3.81747">
        <ele>29</ele>
        <time>2021-04-13T09:45:49Z</time>
      </trkpt>
      <trkpt lat="43.57331" lon="3.81749">
        <ele>29</ele>
        <time>2021-04-13T09:45:50Z</time>
      </trkpt>
      <trkpt lat="43.57332" lon="3.81752">
        <ele>28.8</ele>
        <time>2021-04-13T09:45:51Z</time>
      </trkpt>
      <trkpt lat="43.57333" lon="3.81756">
        <ele>29.2</ele>
        <time>2021-04-13T09:45:52Z</time>
      </trkpt>
      <trkpt lat="43.57332" lon="3.8176">
        <ele>28.8</ele>
        <time>2021-04-13T09:45:53Z</time>
      </trkpt>
      <trkpt lat="43.57332" lon="3.81765">
        <ele>28</ele>
        <time>2021-04-13T09:45:54Z</time>
      </trkpt>
      <trkpt lat="43.57333" lon="3.81769">
        <ele>28.2</ele>
        <time>2021-04-13T09:45:55Z</time>
      </trkpt>
      <trkpt lat="43.57333" lon="3.81772">
        <ele>28.4</ele>
        <time>2021-04-13T09:45:56Z</time>
      </trkpt>
      <trkpt lat="43.57335" lon="3.81778">
        <ele>29</ele>
        <time>2021-04-13T09:45:57Z</time>
      </trkpt>
      <trkpt lat="43.57336" lon="3.81782">
        <ele>29</ele>
        <time>2021-04-13T09:45:58Z</time>
      </trkpt>
      <trkpt lat="43.57338" lon="3.81785">
        <ele>29.2</ele>
        <time>2021-04-13T09:45:59Z</time>
      </trkpt>
      <trkpt lat="43.5734" lon="3.81789">
        <ele>29</ele>
        <time>2021-04-13T09:46:00Z</time>
      </trkpt>
      <trkpt lat="43.57341" lon="3.81796">
        <ele>29.4</ele>
        <time>2021-04-13T09:46:01Z</time>
      </trkpt>
      <trkpt lat="43.57342" lon="3.81802">
        <ele>29</ele>
        <time>2021-04-13T09:46:02Z</time>
      </trkpt>
      <trkpt lat="43.57344" lon="3.81806">
        <ele>29.2</ele>
        <time>2021-04-13T09:46:03Z</time>
      </trkpt>
      <trkpt lat="43.57344" lon="3.8181">
        <ele>29.4</ele>
        <time>2021-04-13T09:46:04Z</time>
      </trkpt>
      <trkpt lat="43.57346" lon="3.81815">
        <ele>29.4</ele>
        <time>2021-04-13T09:46:05Z</time>
      </trkpt>
      <trkpt lat="43.57347" lon="3.8182">
        <ele>29.8</ele>
        <time>2021-04-13T09:46:06Z</time>
      </trkpt>
      <trkpt lat="43.57348" lon="3.81825">
        <ele>29.6</ele>
        <time>2021-04-13T09:46:07Z</time>
      </trkpt>
      <trkpt lat="43.57349" lon="3.81829">
        <ele>29.6</ele>
        <time>2021-04-13T09:46:08Z</time>
      </trkpt>
      <trkpt lat="43.5735" lon="3.81834">
        <ele>30</ele>
        <time>2021-04-13T09:46:09Z</time>
      </trkpt>
      <trkpt lat="43.5735" lon="3.81838">
        <ele>29.8</ele>
        <time>2021-04-13T09:46:10Z</time>
      </trkpt>
      <trkpt lat="43.5735" lon="3.81843">
        <ele>29.6</ele>
        <time>2021-04-13T09:46:11Z</time>
      </trkpt>
      <trkpt lat="43.57349" lon="3.81847">
        <ele>29.6</ele>
        <time>2021-04-13T09:46:12Z</time>
      </trkpt>
      <trkpt lat="43.57349" lon="3.81851">
        <ele>29.8</ele>
        <time>2021-04-13T09:46:13Z</time>
      </trkpt>
      <trkpt lat="43.5735" lon="3.81856">
        <ele>29.8</ele>
        <time>2021-04-13T09:46:14Z</time>
      </trkpt>
      <trkpt lat="43.57351" lon="3.8186">
        <ele>29.8</ele>
        <time>2021-04-13T09:46:15Z</time>
      </trkpt>
      <trkpt lat="43.57351" lon="3.81863">
        <ele>29.8</ele>
        <time>2021-04-13T09:46:16Z</time>
      </trkpt>
      <trkpt lat="43.57351" lon="3.81867">
        <ele>29.8</ele>
        <time>2021-04-13T09:46:17Z</time>
      </trkpt>
      <trkpt lat="43.57352" lon="3.81871">
        <ele>29.8</ele>
        <time>2021-04-13T09:46:18Z</time>
      </trkpt>
      <trkpt lat="43.57354" lon="3.81876">
        <ele>30</ele>
        <time>2021-04-13T09:46:19Z</time>
      </trkpt>
      <trkpt lat="43.57356" lon="3.8188">
        <ele>30.4</ele>
        <time>2021-04-13T09:46:20Z</time>
      </trkpt>
      <trkpt lat="43.57357" lon="3.81882">
        <ele>30.4</ele>
        <time>2021-04-13T09:46:21Z</time>
      </trkpt>
      <trkpt lat="43.57359" lon="3.81885">
        <ele>30.4</ele>
        <time>2021-04-13T09:46:22Z</time>
      </trkpt>
      <trkpt lat="43.5736" lon="3.8189">
        <ele>31</ele>
        <time>2021-04-13T09:46:23Z</time>
      </trkpt>
      <trkpt lat="43.57361" lon="3.81894">
        <ele>30.8</ele>
        <time>2021-04-13T09:46:24Z</time>
      </trkpt>
      <trkpt lat="43.57363" lon="3.81899">
        <ele>30.8</ele>
        <time>2021-04-13T09:46:25Z</time>
      </trkpt>
      <trkpt lat="43.57364" lon="3.81903">
        <ele>31</ele>
        <time>2021-04-13T09:46:26Z</time>
      </trkpt>
      <trkpt lat="43.57365" lon="3.81908">
        <ele>31</ele>
        <time>2021-04-13T09:46:27Z</time>
      </trkpt>
      <trkpt lat="43.57366" lon="3.81913">
        <ele>31.2</ele>
        <time>2021-04-13T09:46:28Z</time>
      </trkpt>
      <trkpt lat="43.57367" lon="3.81918">
        <ele>31.2</ele>
        <time>2021-04-13T09:46:29Z</time>
      </trkpt>
      <trkpt lat="43.57368" lon="3.81923">
        <ele>31.2</ele>
        <time>2021-04-13T09:46:30Z</time>
      </trkpt>
      <trkpt lat="43.5737" lon="3.81927">
        <ele>31.4</ele>
        <time>2021-04-13T09:46:31Z</time>
      </trkpt>
      <trkpt lat="43.57371" lon="3.81932">
        <ele>31.4</ele>
        <time>2021-04-13T09:46:32Z</time>
      </trkpt>
      <trkpt lat="43.57372" lon="3.81936">
        <ele>31.4</ele>
        <time>2021-04-13T09:46:33Z</time>
      </trkpt>
      <trkpt lat="43.57372" lon="3.8194">
        <ele>31.6</ele>
        <time>2021-04-13T09:46:34Z</time>
      </trkpt>
      <trkpt lat="43.57372" lon="3.81945">
        <ele>31.6</ele>
        <time>2021-04-13T09:46:35Z</time>
      </trkpt>
      <trkpt lat="43.57373" lon="3.8195">
        <ele>31.6</ele>
        <time>2021-04-13T09:46:36Z</time>
      </trkpt>
      <trkpt lat="43.57374" lon="3.81955">
        <ele>31.8</ele>
        <time>2021-04-13T09:46:37Z</time>
      </trkpt>
      <trkpt lat="43.57376" lon="3.8196">
        <ele>31.8</ele>
        <time>2021-04-13T09:46:38Z</time>
      </trkpt>
      <trkpt lat="43.57377" lon="3.81965">
        <ele>31.8</ele>
        <time>2021-04-13T09:46:39Z</time>
      </trkpt>
      <trkpt lat="43.57378" lon="3.8197">
        <ele>31.8</ele>
        <time>2021-04-13T09:46:40Z</time>
      </trkpt>
      <trkpt lat="43.57379" lon="3.81974">
        <ele>31.8</ele>
        <time>2021-04-13T09:46:41Z</time>
      </trkpt>
      <trkpt lat="43.57379" lon="3.81979">
        <ele>31.8</ele>
        <time>2021-04-13T09:46:42Z</time>
      </trkpt>
      <trkpt lat="43.57378" lon="3.81983">
        <ele>31.6</ele>
        <time>2021-04-13T09:46:43Z</time>
      </trkpt>
      <trkpt lat="43.57377" lon="3.81987">
        <ele>31.6</ele>
        <time>2021-04-13T09:46:44Z</time>
      </trkpt>
      <trkpt lat="43.57376" lon="3.81991">
        <ele>31.4</ele>
        <time>2021-04-13T09:46:45Z</time>
      </trkpt>
      <trkpt lat="43.57374" lon="3.81996">
        <ele>31.2</ele>
        <time>2021-04-13T09:46:46Z</time>
      </trkpt>
      <trkpt lat="43.57372" lon="3.82001">
        <ele>31</ele>
        <time>2021-04-13T09:46:47Z</time>
      </trkpt>
      <trkpt lat="43.5737" lon="3.82006">
        <ele>31</ele>
        <time>2021-04-13T09:46:48Z</time>
      </trkpt>
      <trkpt lat="43.57369" lon="3.82011">
        <ele>31</ele>
        <time>2021-04-13T09:46:49Z</time>
      </trkpt>
      <trkpt lat="43.57368" lon="3.82016">
        <ele>30.8</ele>
        <time>2021-04-13T09:46:50Z</time>
      </trkpt>
      <trkpt lat="43.57368" lon="3.82023">
        <ele>30.8</ele>
        <time>2021-04-13T09:46:51Z</time>
      </trkpt>
      <trkpt lat="43.57368" lon="3.82028">
        <ele>30.8</ele>
        <time>2021-04-13T09:46:52Z</time>
      </trkpt>
      <trkpt lat="43.57369" lon="3.82033">
        <ele>31</ele>
        <time>2021-04-13T09:46:53Z</time>
      </trkpt>
      <trkpt lat="43.5737" lon="3.82039">
        <ele>31.2</ele>
        <time>2021-04-13T09:46:54Z</time>
      </trkpt>
      <trkpt lat="43.5737" lon="3.82045">
        <ele>31.4</ele>
        <time>2021-04-13T09:46:55Z</time>
      </trkpt>
      <trkpt lat="43.57371" lon="3.82051">
        <ele>31.6</ele>
        <time>2021-04-13T09:46:56Z</time>
      </trkpt>
      <trkpt lat="43.57372" lon="3.82057">
        <ele>31.6</ele>
        <time>2021-04-13T09:46:57Z</time>
      </trkpt>
      <trkpt lat="43.57373" lon="3.82062">
        <ele>31.8</ele>
        <time>2021-04-13T09:46:58Z</time>
      </trkpt>
      <trkpt lat="43.57374" lon="3.82067">
        <ele>32</ele>
        <time>2021-04-13T09:46:59Z</time>
      </trkpt>
      <trkpt lat="43.57375" lon="3.82072">
        <ele>32</ele>
        <time>2021-04-13T09:47:00Z</time>
      </trkpt>
      <trkpt lat="43.57375" lon="3.82077">
        <ele>32.4</ele>
        <time>2021-04-13T09:47:01Z</time>
      </trkpt>
      <trkpt lat="43.57376" lon="3.82082">
        <ele>32.6</ele>
        <time>2021-04-13T09:47:02Z</time>
      </trkpt>
      <trkpt lat="43.57377" lon="3.82087">
        <ele>32.8</ele>
        <time>2021-04-13T09:47:03Z</time>
      </trkpt>
      <trkpt lat="43.57379" lon="3.82091">
        <ele>32.8</ele>
        <time>2021-04-13T09:47:04Z</time>
      </trkpt>
      <trkpt lat="43.5738" lon="3.82095">
        <ele>33</ele>
        <time>2021-04-13T09:47:05Z</time>
      </trkpt>
      <trkpt lat="43.57382" lon="3.82099">
        <ele>33.2</ele>
        <time>2021-04-13T09:47:06Z</time>
      </trkpt>
      <trkpt lat="43.57383" lon="3.82104">
        <ele>33.4</ele>
        <time>2021-04-13T09:47:07Z</time>
      </trkpt>
      <trkpt lat="43.57384" lon="3.82109">
        <ele>33.4</ele>
        <time>2021-04-13T09:47:08Z</time>
      </trkpt>
      <trkpt lat="43.57385" lon="3.82113">
        <ele>33.6</ele>
        <time>2021-04-13T09:47:09Z</time>
      </trkpt>
      <trkpt lat="43.57386" lon="3.82117">
        <ele>33.6</ele>
        <time>2021-04-13T09:47:10Z</time>
      </trkpt>
      <trkpt lat="43.57387" lon="3.82121">
        <ele>33.4</ele>
        <time>2021-04-13T09:47:11Z</time>
      </trkpt>
      <trkpt lat="43.57388" lon="3.82126">
        <ele>33.8</ele>
        <time>2021-04-13T09:47:12Z</time>
      </trkpt>
      <trkpt lat="43.5739" lon="3.82129">
        <ele>33.8</ele>
        <time>2021-04-13T09:47:13Z</time>
      </trkpt>
      <trkpt lat="43.5739" lon="3.82134">
        <ele>33.6</ele>
        <time>2021-04-13T09:47:14Z</time>
      </trkpt>
      <trkpt lat="43.57392" lon="3.82138">
        <ele>33.6</ele>
        <time>2021-04-13T09:47:15Z</time>
      </trkpt>
      <trkpt lat="43.57393" lon="3.82144">
        <ele>33.6</ele>
        <time>2021-04-13T09:47:16Z</time>
      </trkpt>
      <trkpt lat="43.57395" lon="3.82149">
        <ele>33.6</ele>
        <time>2021-04-13T09:47:17Z</time>
      </trkpt>
      <trkpt lat="43.57397" lon="3.82154">
        <ele>33.8</ele>
        <time>2021-04-13T09:47:18Z</time>
      </trkpt>
      <trkpt lat="43.57398" lon="3.82159">
        <ele>34.4</ele>
        <time>2021-04-13T09:47:19Z</time>
      </trkpt>
      <trkpt lat="43.574" lon="3.82165">
        <ele>34.6</ele>
        <time>2021-04-13T09:47:20Z</time>
      </trkpt>
      <trkpt lat="43.57401" lon="3.82171">
        <ele>34.6</ele>
        <time>2021-04-13T09:47:21Z</time>
      </trkpt>
      <trkpt lat="43.57403" lon="3.82176">
        <ele>34.2</ele>
        <time>2021-04-13T09:47:22Z</time>
      </trkpt>
      <trkpt lat="43.57404" lon="3.82181">
        <ele>34</ele>
        <time>2021-04-13T09:47:23Z</time>
      </trkpt>
      <trkpt lat="43.57406" lon="3.82188">
        <ele>33.6</ele>
        <time>2021-04-13T09:47:24Z</time>
      </trkpt>
      <trkpt lat="43.57407" lon="3.82194">
        <ele>33.4</ele>
        <time>2021-04-13T09:47:25Z</time>
      </trkpt>
      <trkpt lat="43.57408" lon="3.822">
        <ele>33</ele>
        <time>2021-04-13T09:47:26Z</time>
      </trkpt>
      <trkpt lat="43.57408" lon="3.82206">
        <ele>33</ele>
        <time>2021-04-13T09:47:27Z</time>
      </trkpt>
      <trkpt lat="43.57408" lon="3.82212">
        <ele>33.2</ele>
        <time>2021-04-13T09:47:28Z</time>
      </trkpt>
      <trkpt lat="43.57406" lon="3.82218">
        <ele>33.2</ele>
        <time>2021-04-13T09:47:29Z</time>
      </trkpt>
      <trkpt lat="43.57405" lon="3.82224">
        <ele>33.4</ele>
        <time>2021-04-13T09:47:30Z</time>
      </trkpt>
      <trkpt lat="43.57403" lon="3.8223">
        <ele>33.4</ele>
        <time>2021-04-13T09:47:31Z</time>
      </trkpt>
      <trkpt lat="43.57401" lon="3.82235">
        <ele>33.6</ele>
        <time>2021-04-13T09:47:32Z</time>
      </trkpt>
      <trkpt lat="43.57399" lon="3.82241">
        <ele>33.4</ele>
        <time>2021-04-13T09:47:33Z</time>
      </trkpt>
      <trkpt lat="43.57397" lon="3.82247">
        <ele>33.4</ele>
        <time>2021-04-13T09:47:34Z</time>
      </trkpt>
      <trkpt lat="43.57395" lon="3.82253">
        <ele>33.4</ele>
        <time>2021-04-13T09:47:35Z</time>
      </trkpt>
      <trkpt lat="43.57393" lon="3.82258">
        <ele>33.6</ele>
        <time>2021-04-13T09:47:36Z</time>
      </trkpt>
      <trkpt lat="43.57391" lon="3.82262">
        <ele>33.6</ele>
        <time>2021-04-13T09:47:37Z</time>
      </trkpt>
      <trkpt lat="43.57389" lon="3.82268">
        <ele>33.8</ele>
        <time>2021-04-13T09:47:38Z</time>
      </trkpt>
      <trkpt lat="43.57386" lon="3.82273">
        <ele>34.2</ele>
        <time>2021-04-13T09:47:39Z</time>
      </trkpt>
      <trkpt lat="43.57384" lon="3.82279">
        <ele>34.4</ele>
        <time>2021-04-13T09:47:40Z</time>
      </trkpt>
      <trkpt lat="43.57381" lon="3.82284">
        <ele>34.6</ele>
        <time>2021-04-13T09:47:41Z</time>
      </trkpt>
      <trkpt lat="43.57379" lon="3.8229">
        <ele>34.8</ele>
        <time>2021-04-13T09:47:42Z</time>
      </trkpt>
      <trkpt lat="43.57377" lon="3.82295">
        <ele>34.8</ele>
        <time>2021-04-13T09:47:43Z</time>
      </trkpt>
      <trkpt lat="43.57375" lon="3.82301">
        <ele>34.4</ele>
        <time>2021-04-13T09:47:44Z</time>
      </trkpt>
      <trkpt lat="43.57373" lon="3.82306">
        <ele>34.4</ele>
        <time>2021-04-13T09:47:45Z</time>
      </trkpt>
      <trkpt lat="43.57371" lon="3.82311">
        <ele>34.8</ele>
        <time>2021-04-13T09:47:46Z</time>
      </trkpt>
      <trkpt lat="43.57371" lon="3.82317">
        <ele>34.6</ele>
        <time>2021-04-13T09:47:47Z</time>
      </trkpt>
      <trkpt lat="43.57373" lon="3.82322">
        <ele>34.4</ele>
        <time>2021-04-13T09:47:48Z</time>
      </trkpt>
      <trkpt lat="43.57375" lon="3.82326">
        <ele>34.4</ele>
        <time>2021-04-13T09:47:49Z</time>
      </trkpt>
      <trkpt lat="43.57379" lon="3.82331">
        <ele>34.6</ele>
        <time>2021-04-13T09:47:50Z</time>
      </trkpt>
      <trkpt lat="43.57384" lon="3.82334">
        <ele>34.8</ele>
        <time>2021-04-13T09:47:51Z</time>
      </trkpt>
      <trkpt lat="43.57388" lon="3.82336">
        <ele>34.8</ele>
        <time>2021-04-13T09:47:52Z</time>
      </trkpt>
      <trkpt lat="43.57392" lon="3.82338">
        <ele>34.6</ele>
        <time>2021-04-13T09:47:53Z</time>
      </trkpt>
      <trkpt lat="43.57396" lon="3.82341">
        <ele>34.8</ele>
        <time>2021-04-13T09:47:54Z</time>
      </trkpt>
      <trkpt lat="43.574" lon="3.82345">
        <ele>34.8</ele>
        <time>2021-04-13T09:47:55Z</time>
      </trkpt>
      <trkpt lat="43.57402" lon="3.8235">
        <ele>34.6</ele>
        <time>2021-04-13T09:47:56Z</time>
      </trkpt>
      <trkpt lat="43.57403" lon="3.82356">
        <ele>34.6</ele>
        <time>2021-04-13T09:47:57Z</time>
      </trkpt>
      <trkpt lat="43.57402" lon="3.82362">
        <ele>34.6</ele>
        <time>2021-04-13T09:47:58Z</time>
      </trkpt>
      <trkpt lat="43.57401" lon="3.82367">
        <ele>34.6</ele>
        <time>2021-04-13T09:47:59Z</time>
      </trkpt>
      <trkpt lat="43.574" lon="3.82372">
        <ele>34.4</ele>
        <time>2021-04-13T09:48:00Z</time>
      </trkpt>
      <trkpt lat="43.57401" lon="3.82377">
        <ele>35</ele>
        <time>2021-04-13T09:48:01Z</time>
      </trkpt>
      <trkpt lat="43.57403" lon="3.82382">
        <ele>35.4</ele>
        <time>2021-04-13T09:48:02Z</time>
      </trkpt>
      <trkpt lat="43.57406" lon="3.82385">
        <ele>35.4</ele>
        <time>2021-04-13T09:48:03Z</time>
      </trkpt>
      <trkpt lat="43.5741" lon="3.82388">
        <ele>35.2</ele>
        <time>2021-04-13T09:48:04Z</time>
      </trkpt>
      <trkpt lat="43.57414" lon="3.8239">
        <ele>35.2</ele>
        <time>2021-04-13T09:48:05Z</time>
      </trkpt>
      <trkpt lat="43.57418" lon="3.82393">
        <ele>35</ele>
        <time>2021-04-13T09:48:06Z</time>
      </trkpt>
      <trkpt lat="43.57422" lon="3.82395">
        <ele>35</ele>
        <time>2021-04-13T09:48:07Z</time>
      </trkpt>
      <trkpt lat="43.57426" lon="3.82397">
        <ele>35.2</ele>
        <time>2021-04-13T09:48:08Z</time>
      </trkpt>
      <trkpt lat="43.57431" lon="3.824">
        <ele>35.4</ele>
        <time>2021-04-13T09:48:09Z</time>
      </trkpt>
      <trkpt lat="43.57435" lon="3.82402">
        <ele>35.4</ele>
        <time>2021-04-13T09:48:10Z</time>
      </trkpt>
      <trkpt lat="43.57439" lon="3.82405">
        <ele>34.8</ele>
        <time>2021-04-13T09:48:11Z</time>
      </trkpt>
      <trkpt lat="43.57443" lon="3.82408">
        <ele>35.2</ele>
        <time>2021-04-13T09:48:12Z</time>
      </trkpt>
      <trkpt lat="43.57446" lon="3.82411">
        <ele>35.2</ele>
        <time>2021-04-13T09:48:13Z</time>
      </trkpt>
      <trkpt lat="43.57449" lon="3.82415">
        <ele>35.2</ele>
        <time>2021-04-13T09:48:14Z</time>
      </trkpt>
      <trkpt lat="43.57451" lon="3.82418">
        <ele>35</ele>
        <time>2021-04-13T09:48:15Z</time>
      </trkpt>
      <trkpt lat="43.57454" lon="3.82421">
        <ele>35</ele>
        <time>2021-04-13T09:48:16Z</time>
      </trkpt>
      <trkpt lat="43.57456" lon="3.82424">
        <ele>35</ele>
        <time>2021-04-13T09:48:17Z</time>
      </trkpt>
      <trkpt lat="43.57459" lon="3.82426">
        <ele>35.2</ele>
        <time>2021-04-13T09:48:18Z</time>
      </trkpt>
      <trkpt lat="43.57461" lon="3.82429">
        <ele>35.2</ele>
        <time>2021-04-13T09:48:19Z</time>
      </trkpt>
      <trkpt lat="43.57463" lon="3.82432">
        <ele>35.4</ele>
        <time>2021-04-13T09:48:20Z</time>
      </trkpt>
      <trkpt lat="43.57465" lon="3.82435">
        <ele>35.6</ele>
        <time>2021-04-13T09:48:21Z</time>
      </trkpt>
      <trkpt lat="43.57468" lon="3.82438">
        <ele>35.6</ele>
        <time>2021-04-13T09:48:22Z</time>
      </trkpt>
      <trkpt lat="43.5747" lon="3.82441">
        <ele>35.8</ele>
        <time>2021-04-13T09:48:23Z</time>
      </trkpt>
      <trkpt lat="43.57473" lon="3.82444">
        <ele>35.8</ele>
        <time>2021-04-13T09:48:24Z</time>
      </trkpt>
      <trkpt lat="43.57475" lon="3.82446">
        <ele>35.4</ele>
        <time>2021-04-13T09:48:25Z</time>
      </trkpt>
      <trkpt lat="43.57478" lon="3.8245">
        <ele>35.4</ele>
        <time>2021-04-13T09:48:26Z</time>
      </trkpt>
      <trkpt lat="43.57481" lon="3.82453">
        <ele>35.4</ele>
        <time>2021-04-13T09:48:27Z</time>
      </trkpt>
      <trkpt lat="43.57483" lon="3.82455">
        <ele>35.6</ele>
        <time>2021-04-13T09:48:28Z</time>
      </trkpt>
      <trkpt lat="43.57485" lon="3.82458">
        <ele>35.8</ele>
        <time>2021-04-13T09:48:29Z</time>
      </trkpt>
      <trkpt lat="43.57486" lon="3.8246">
        <ele>36</ele>
        <time>2021-04-13T09:48:30Z</time>
      </trkpt>
      <trkpt lat="43.57487" lon="3.82462">
        <ele>36</ele>
        <time>2021-04-13T09:48:31Z</time>
      </trkpt>
      <trkpt lat="43.57488" lon="3.82466">
        <ele>35.6</ele>
        <time>2021-04-13T09:48:32Z</time>
      </trkpt>
      <trkpt lat="43.57489" lon="3.8247">
        <ele>36</ele>
        <time>2021-04-13T09:48:33Z</time>
      </trkpt>
      <trkpt lat="43.57491" lon="3.82474">
        <ele>35.8</ele>
        <time>2021-04-13T09:48:34Z</time>
      </trkpt>
      <trkpt lat="43.57492" lon="3.82479">
        <ele>35.8</ele>
        <time>2021-04-13T09:48:35Z</time>
      </trkpt>
      <trkpt lat="43.57493" lon="3.82483">
        <ele>36</ele>
        <time>2021-04-13T09:48:36Z</time>
      </trkpt>
      <trkpt lat="43.57494" lon="3.82488">
        <ele>35.8</ele>
        <time>2021-04-13T09:48:37Z</time>
      </trkpt>
      <trkpt lat="43.57495" lon="3.82493">
        <ele>35.6</ele>
        <time>2021-04-13T09:48:38Z</time>
      </trkpt>
      <trkpt lat="43.57496" lon="3.82498">
        <ele>36.6</ele>
        <time>2021-04-13T09:48:39Z</time>
      </trkpt>
      <trkpt lat="43.57498" lon="3.82504">
        <ele>36.2</ele>
        <time>2021-04-13T09:48:40Z</time>
      </trkpt>
      <trkpt lat="43.57499" lon="3.82509">
        <ele>35.8</ele>
        <time>2021-04-13T09:48:41Z</time>
      </trkpt>
      <trkpt lat="43.575" lon="3.82515">
        <ele>36</ele>
        <time>2021-04-13T09:48:42Z</time>
      </trkpt>
      <trkpt lat="43.57501" lon="3.8252">
        <ele>36.2</ele>
        <time>2021-04-13T09:48:43Z</time>
      </trkpt>
      <trkpt lat="43.57502" lon="3.82526">
        <ele>36</ele>
        <time>2021-04-13T09:48:44Z</time>
      </trkpt>
      <trkpt lat="43.57502" lon="3.82531">
        <ele>36.4</ele>
        <time>2021-04-13T09:48:45Z</time>
      </trkpt>
      <trkpt lat="43.57504" lon="3.82537">
        <ele>36.4</ele>
        <time>2021-04-13T09:48:46Z</time>
      </trkpt>
      <trkpt lat="43.57505" lon="3.82542">
        <ele>36.4</ele>
        <time>2021-04-13T09:48:47Z</time>
      </trkpt>
      <trkpt lat="43.57506" lon="3.82548">
        <ele>36.8</ele>
        <time>2021-04-13T09:48:48Z</time>
      </trkpt>
      <trkpt lat="43.57507" lon="3.82553">
        <ele>36.8</ele>
        <time>2021-04-13T09:48:49Z</time>
      </trkpt>
      <trkpt lat="43.57509" lon="3.82559">
        <ele>36.4</ele>
        <time>2021-04-13T09:48:50Z</time>
      </trkpt>
      <trkpt lat="43.5751" lon="3.82564">
        <ele>36.4</ele>
        <time>2021-04-13T09:48:51Z</time>
      </trkpt>
      <trkpt lat="43.57511" lon="3.82569">
        <ele>36.6</ele>
        <time>2021-04-13T09:48:52Z</time>
      </trkpt>
      <trkpt lat="43.57513" lon="3.82575">
        <ele>36.6</ele>
        <time>2021-04-13T09:48:53Z</time>
      </trkpt>
      <trkpt lat="43.57515" lon="3.8258">
        <ele>36.6</ele>
        <time>2021-04-13T09:48:54Z</time>
      </trkpt>
      <trkpt lat="43.57517" lon="3.82585">
        <ele>37</ele>
        <time>2021-04-13T09:48:55Z</time>
      </trkpt>
      <trkpt lat="43.57519" lon="3.82589">
        <ele>37</ele>
        <time>2021-04-13T09:48:56Z</time>
      </trkpt>
      <trkpt lat="43.57521" lon="3.82594">
        <ele>37.2</ele>
        <time>2021-04-13T09:48:57Z</time>
      </trkpt>
      <trkpt lat="43.57522" lon="3.826">
        <ele>37.2</ele>
        <time>2021-04-13T09:48:58Z</time>
      </trkpt>
      <trkpt lat="43.57524" lon="3.82605">
        <ele>37.4</ele>
        <time>2021-04-13T09:48:59Z</time>
      </trkpt>
      <trkpt lat="43.57525" lon="3.82611">
        <ele>37.2</ele>
        <time>2021-04-13T09:49:00Z</time>
      </trkpt>
      <trkpt lat="43.57526" lon="3.82616">
        <ele>37.2</ele>
        <time>2021-04-13T09:49:01Z</time>
      </trkpt>
      <trkpt lat="43.57528" lon="3.82622">
        <ele>37.4</ele>
        <time>2021-04-13T09:49:02Z</time>
      </trkpt>
      <trkpt lat="43.57529" lon="3.82627">
        <ele>37.4</ele>
        <time>2021-04-13T09:49:03Z</time>
      </trkpt>
      <trkpt lat="43.5753" lon="3.82632">
        <ele>37.4</ele>
        <time>2021-04-13T09:49:04Z</time>
      </trkpt>
      <trkpt lat="43.57531" lon="3.82637">
        <ele>37.8</ele>
        <time>2021-04-13T09:49:05Z</time>
      </trkpt>
      <trkpt lat="43.57532" lon="3.82642">
        <ele>37.6</ele>
        <time>2021-04-13T09:49:06Z</time>
      </trkpt>
      <trkpt lat="43.57532" lon="3.82647">
        <ele>37.6</ele>
        <time>2021-04-13T09:49:07Z</time>
      </trkpt>
      <trkpt lat="43.57532" lon="3.8265">
        <ele>37.6</ele>
        <time>2021-04-13T09:49:08Z</time>
      </trkpt>
      <trkpt lat="43.5753" lon="3.82652">
        <ele>37.8</ele>
        <time>2021-04-13T09:49:09Z</time>
      </trkpt>
      <trkpt lat="43.57529" lon="3.82653">
        <ele>37.8</ele>
        <time>2021-04-13T09:49:10Z</time>
      </trkpt>
      <trkpt lat="43.57529" lon="3.82656">
        <ele>37.8</ele>
        <time>2021-04-13T09:49:11Z</time>
      </trkpt>
      <trkpt lat="43.57529" lon="3.82659">
        <ele>38</ele>
        <time>2021-04-13T09:49:12Z</time>
      </trkpt>
      <trkpt lat="43.5753" lon="3.82662">
        <ele>37.8</ele>
        <time>2021-04-13T09:49:13Z</time>
      </trkpt>
      <trkpt lat="43.57533" lon="3.82663">
        <ele>38</ele>
        <time>2021-04-13T09:49:14Z</time>
      </trkpt>
      <trkpt lat="43.57534" lon="3.82666">
        <ele>38.4</ele>
        <time>2021-04-13T09:49:15Z</time>
      </trkpt>
      <trkpt lat="43.57535" lon="3.8267">
        <ele>38.4</ele>
        <time>2021-04-13T09:49:16Z</time>
      </trkpt>
      <trkpt lat="43.57536" lon="3.82674">
        <ele>38.4</ele>
        <time>2021-04-13T09:49:17Z</time>
      </trkpt>
      <trkpt lat="43.57536" lon="3.82679">
        <ele>38.4</ele>
        <time>2021-04-13T09:49:18Z</time>
      </trkpt>
      <trkpt lat="43.57537" lon="3.82684">
        <ele>38.4</ele>
        <time>2021-04-13T09:49:19Z</time>
      </trkpt>
      <trkpt lat="43.57538" lon="3.8269">
        <ele>38.6</ele>
        <time>2021-04-13T09:49:20Z</time>
      </trkpt>
      <trkpt lat="43.57539" lon="3.82695">
        <ele>38.8</ele>
        <time>2021-04-13T09:49:21Z</time>
      </trkpt>
      <trkpt lat="43.5754" lon="3.82702">
        <ele>38.8</ele>
        <time>2021-04-13T09:49:22Z</time>
      </trkpt>
      <trkpt lat="43.57541" lon="3.82708">
        <ele>38.8</ele>
        <time>2021-04-13T09:49:23Z</time>
      </trkpt>
      <trkpt lat="43.57541" lon="3.82714">
        <ele>38.8</ele>
        <time>2021-04-13T09:49:24Z</time>
      </trkpt>
      <trkpt lat="43.57542" lon="3.8272">
        <ele>38.8</ele>
        <time>2021-04-13T09:49:25Z</time>
      </trkpt>
      <trkpt lat="43.57542" lon="3.82726">
        <ele>38.8</ele>
        <time>2021-04-13T09:49:26Z</time>
      </trkpt>
      <trkpt lat="43.57542" lon="3.82732">
        <ele>39</ele>
        <time>2021-04-13T09:49:27Z</time>
      </trkpt>
      <trkpt lat="43.57542" lon="3.82739">
        <ele>39</ele>
        <time>2021-04-13T09:49:28Z</time>
      </trkpt>
      <trkpt lat="43.57542" lon="3.82745">
        <ele>39.2</ele>
        <time>2021-04-13T09:49:29Z</time>
      </trkpt>
      <trkpt lat="43.57542" lon="3.82751">
        <ele>39.4</ele>
        <time>2021-04-13T09:49:30Z</time>
      </trkpt>
      <trkpt lat="43.57542" lon="3.82756">
        <ele>39.6</ele>
        <time>2021-04-13T09:49:31Z</time>
      </trkpt>
      <trkpt lat="43.57542" lon="3.82762">
        <ele>39.6</ele>
        <time>2021-04-13T09:49:32Z</time>
      </trkpt>
      <trkpt lat="43.57542" lon="3.82768">
        <ele>39.4</ele>
        <time>2021-04-13T09:49:33Z</time>
      </trkpt>
      <trkpt lat="43.57542" lon="3.82774">
        <ele>39.4</ele>
        <time>2021-04-13T09:49:34Z</time>
      </trkpt>
      <trkpt lat="43.57542" lon="3.82779">
        <ele>39.4</ele>
        <time>2021-04-13T09:49:35Z</time>
      </trkpt>
      <trkpt lat="43.57541" lon="3.82785">
        <ele>39.6</ele>
        <time>2021-04-13T09:49:36Z</time>
      </trkpt>
      <trkpt lat="43.57541" lon="3.8279">
        <ele>39.6</ele>
        <time>2021-04-13T09:49:37Z</time>
      </trkpt>
      <trkpt lat="43.5754" lon="3.82796">
        <ele>39.8</ele>
        <time>2021-04-13T09:49:38Z</time>
      </trkpt>
      <trkpt lat="43.57539" lon="3.82801">
        <ele>39.6</ele>
        <time>2021-04-13T09:49:39Z</time>
      </trkpt>
      <trkpt lat="43.57538" lon="3.82806">
        <ele>39.6</ele>
        <time>2021-04-13T09:49:40Z</time>
      </trkpt>
      <trkpt lat="43.57537" lon="3.8281">
        <ele>40</ele>
        <time>2021-04-13T09:49:41Z</time>
      </trkpt>
      <trkpt lat="43.57536" lon="3.82815">
        <ele>40</ele>
        <time>2021-04-13T09:49:42Z</time>
      </trkpt>
      <trkpt lat="43.57535" lon="3.82821">
        <ele>40.4</ele>
        <time>2021-04-13T09:49:43Z</time>
      </trkpt>
      <trkpt lat="43.57535" lon="3.82826">
        <ele>40.2</ele>
        <time>2021-04-13T09:49:44Z</time>
      </trkpt>
      <trkpt lat="43.57534" lon="3.82831">
        <ele>40.2</ele>
        <time>2021-04-13T09:49:45Z</time>
      </trkpt>
      <trkpt lat="43.57533" lon="3.82837">
        <ele>40.2</ele>
        <time>2021-04-13T09:49:46Z</time>
      </trkpt>
      <trkpt lat="43.57533" lon="3.82842">
        <ele>40.6</ele>
        <time>2021-04-13T09:49:47Z</time>
      </trkpt>
      <trkpt lat="43.57532" lon="3.82847">
        <ele>40.6</ele>
        <time>2021-04-13T09:49:48Z</time>
      </trkpt>
      <trkpt lat="43.57532" lon="3.82853">
        <ele>40.4</ele>
        <time>2021-04-13T09:49:49Z</time>
      </trkpt>
      <trkpt lat="43.57532" lon="3.82858">
        <ele>40.4</ele>
        <time>2021-04-13T09:49:50Z</time>
      </trkpt>
      <trkpt lat="43.57531" lon="3.82862">
        <ele>40.6</ele>
        <time>2021-04-13T09:49:51Z</time>
      </trkpt>
      <trkpt lat="43.5753" lon="3.82867">
        <ele>40.8</ele>
        <time>2021-04-13T09:49:52Z</time>
      </trkpt>
      <trkpt lat="43.5753" lon="3.82872">
        <ele>40.8</ele>
        <time>2021-04-13T09:49:53Z</time>
      </trkpt>
      <trkpt lat="43.57529" lon="3.82876">
        <ele>40.8</ele>
        <time>2021-04-13T09:49:54Z</time>
      </trkpt>
      <trkpt lat="43.57528" lon="3.82881">
        <ele>41.6</ele>
        <time>2021-04-13T09:49:55Z</time>
      </trkpt>
      <trkpt lat="43.57527" lon="3.82885">
        <ele>41.6</ele>
        <time>2021-04-13T09:49:56Z</time>
      </trkpt>
      <trkpt lat="43.57526" lon="3.82889">
        <ele>41.2</ele>
        <time>2021-04-13T09:49:57Z</time>
      </trkpt>
      <trkpt lat="43.57525" lon="3.82893">
        <ele>41.4</ele>
        <time>2021-04-13T09:49:58Z</time>
      </trkpt>
      <trkpt lat="43.57523" lon="3.82896">
        <ele>41.2</ele>
        <time>2021-04-13T09:49:59Z</time>
      </trkpt>
      <trkpt lat="43.57521" lon="3.82898">
        <ele>41.6</ele>
        <time>2021-04-13T09:50:00Z</time>
      </trkpt>
      <trkpt lat="43.57519" lon="3.829">
        <ele>42</ele>
        <time>2021-04-13T09:50:01Z</time>
      </trkpt>
      <trkpt lat="43.57518" lon="3.829">
        <ele>42</ele>
        <time>2021-04-13T09:50:02Z</time>
      </trkpt>
      <trkpt lat="43.57517" lon="3.82901">
        <ele>42</ele>
        <time>2021-04-13T09:50:03Z</time>
      </trkpt>
      <trkpt lat="43.57516" lon="3.82904">
        <ele>42.2</ele>
        <time>2021-04-13T09:50:04Z</time>
      </trkpt>
      <trkpt lat="43.57516" lon="3.82906">
        <ele>42.4</ele>
        <time>2021-04-13T09:50:05Z</time>
      </trkpt>
      <trkpt lat="43.57515" lon="3.82907">
        <ele>42.6</ele>
        <time>2021-04-13T09:50:06Z</time>
      </trkpt>
      <trkpt lat="43.57514" lon="3.82911">
        <ele>42.2</ele>
        <time>2021-04-13T09:50:07Z</time>
      </trkpt>
      <trkpt lat="43.57514" lon="3.82914">
        <ele>41.8</ele>
        <time>2021-04-13T09:50:08Z</time>
      </trkpt>
      <trkpt lat="43.57514" lon="3.82918">
        <ele>41.6</ele>
        <time>2021-04-13T09:50:09Z</time>
      </trkpt>
      <trkpt lat="43.57515" lon="3.82922">
        <ele>41.6</ele>
        <time>2021-04-13T09:50:10Z</time>
      </trkpt>
      <trkpt lat="43.57514" lon="3.82925">
        <ele>41.8</ele>
        <time>2021-04-13T09:50:11Z</time>
      </trkpt>
      <trkpt lat="43.57514" lon="3.82928">
        <ele>41.8</ele>
        <time>2021-04-13T09:50:12Z</time>
      </trkpt>
      <trkpt lat="43.57513" lon="3.8293">
        <ele>41.6</ele>
        <time>2021-04-13T09:50:13Z</time>
      </trkpt>
      <trkpt lat="43.57512" lon="3.82932">
        <ele>41.4</ele>
        <time>2021-04-13T09:50:14Z</time>
      </trkpt>
      <trkpt lat="43.57511" lon="3.82934">
        <ele>41.2</ele>
        <time>2021-04-13T09:50:15Z</time>
      </trkpt>
      <trkpt lat="43.57514" lon="3.82934">
        <ele>41.2</ele>
        <time>2021-04-13T09:50:16Z</time>
      </trkpt>
      <trkpt lat="43.57514" lon="3.82934">
        <ele>41.2</ele>
        <time>2021-04-13T09:50:17Z</time>
      </trkpt>
      <trkpt lat="43.57513" lon="3.82934">
        <ele>41.2</ele>
        <time>2021-04-13T09:50:18Z</time>
      </trkpt>
      <trkpt lat="43.57513" lon="3.82935">
        <ele>41.4</ele>
        <time>2021-04-13T09:50:19Z</time>
      </trkpt>
      <trkpt lat="43.57513" lon="3.82935">
        <ele>41.4</ele>
        <time>2021-04-13T09:50:20Z</time>
      </trkpt>
      <trkpt lat="43.57513" lon="3.82936">
        <ele>41.4</ele>
        <time>2021-04-13T09:50:21Z</time>
      </trkpt>
      <trkpt lat="43.57513" lon="3.82936">
        <ele>41.6</ele>
        <time>2021-04-13T09:50:22Z</time>
      </trkpt>
      <trkpt lat="43.57513" lon="3.82937">
        <ele>41.4</ele>
        <time>2021-04-13T09:50:23Z</time>
      </trkpt>
      <trkpt lat="43.57513" lon="3.82937">
        <ele>41.4</ele>
        <time>2021-04-13T09:50:24Z</time>
      </trkpt>
      <trkpt lat="43.57513" lon="3.82937">
        <ele>41.6</ele>
        <time>2021-04-13T09:50:25Z</time>
      </trkpt>
      <trkpt lat="43.57513" lon="3.82937">
        <ele>41.6</ele>
        <time>2021-04-13T09:50:26Z</time>
      </trkpt>
      <trkpt lat="43.57513" lon="3.82938">
        <ele>41.6</ele>
        <time>2021-04-13T09:50:27Z</time>
      </trkpt>
      <trkpt lat="43.57513" lon="3.82938">
        <ele>41.6</ele>
        <time>2021-04-13T09:50:28Z</time>
      </trkpt>
      <trkpt lat="43.57503" lon="3.82912">
        <ele>44.6</ele>
        <time>2021-04-13T09:55:35Z</time>
      </trkpt>
      <trkpt lat="43.57501" lon="3.82908">
        <ele>44.6</ele>
        <time>2021-04-13T09:55:36Z</time>
      </trkpt>
      <trkpt lat="43.57499" lon="3.82906">
        <ele>44.8</ele>
        <time>2021-04-13T09:55:37Z</time>
      </trkpt>
      <trkpt lat="43.57497" lon="3.82903">
        <ele>45</ele>
        <time>2021-04-13T09:55:38Z</time>
      </trkpt>
      <trkpt lat="43.57495" lon="3.82901">
        <ele>45.2</ele>
        <time>2021-04-13T09:55:39Z</time>
      </trkpt>
      <trkpt lat="43.57493" lon="3.82899">
        <ele>45.2</ele>
        <time>2021-04-13T09:55:40Z</time>
      </trkpt>
      <trkpt lat="43.57492" lon="3.82896">
        <ele>45.2</ele>
        <time>2021-04-13T09:55:41Z</time>
      </trkpt>
      <trkpt lat="43.57491" lon="3.82893">
        <ele>45</ele>
        <time>2021-04-13T09:55:42Z</time>
      </trkpt>
      <trkpt lat="43.5749" lon="3.82891">
        <ele>45.2</ele>
        <time>2021-04-13T09:55:43Z</time>
      </trkpt>
      <trkpt lat="43.57489" lon="3.82888">
        <ele>45</ele>
        <time>2021-04-13T09:55:44Z</time>
      </trkpt>
      <trkpt lat="43.57487" lon="3.82886">
        <ele>45.2</ele>
        <time>2021-04-13T09:55:45Z</time>
      </trkpt>
      <trkpt lat="43.57485" lon="3.82883">
        <ele>45.2</ele>
        <time>2021-04-13T09:55:46Z</time>
      </trkpt>
      <trkpt lat="43.57483" lon="3.8288">
        <ele>45.2</ele>
        <time>2021-04-13T09:55:47Z</time>
      </trkpt>
      <trkpt lat="43.57481" lon="3.82877">
        <ele>45.2</ele>
        <time>2021-04-13T09:55:48Z</time>
      </trkpt>
      <trkpt lat="43.57479" lon="3.82874">
        <ele>45.4</ele>
        <time>2021-04-13T09:55:49Z</time>
      </trkpt>
      <trkpt lat="43.57476" lon="3.82871">
        <ele>45.4</ele>
        <time>2021-04-13T09:55:50Z</time>
      </trkpt>
      <trkpt lat="43.57474" lon="3.82867">
        <ele>45.4</ele>
        <time>2021-04-13T09:55:51Z</time>
      </trkpt>
      <trkpt lat="43.57471" lon="3.82863">
        <ele>45.4</ele>
        <time>2021-04-13T09:55:52Z</time>
      </trkpt>
      <trkpt lat="43.57468" lon="3.82859">
        <ele>45.6</ele>
        <time>2021-04-13T09:55:53Z</time>
      </trkpt>
      <trkpt lat="43.57466" lon="3.82856">
        <ele>46</ele>
        <time>2021-04-13T09:55:54Z</time>
      </trkpt>
      <trkpt lat="43.57463" lon="3.82853">
        <ele>45.8</ele>
        <time>2021-04-13T09:55:55Z</time>
      </trkpt>
      <trkpt lat="43.5746" lon="3.8285">
        <ele>45.8</ele>
        <time>2021-04-13T09:55:56Z</time>
      </trkpt>
      <trkpt lat="43.57458" lon="3.82847">
        <ele>46</ele>
        <time>2021-04-13T09:55:57Z</time>
      </trkpt>
      <trkpt lat="43.57455" lon="3.82844">
        <ele>46</ele>
        <time>2021-04-13T09:55:58Z</time>
      </trkpt>
      <trkpt lat="43.57452" lon="3.82839">
        <ele>45.8</ele>
        <time>2021-04-13T09:55:59Z</time>
      </trkpt>
      <trkpt lat="43.57449" lon="3.82835">
        <ele>46</ele>
        <time>2021-04-13T09:56:00Z</time>
      </trkpt>
      <trkpt lat="43.57446" lon="3.82831">
        <ele>46</ele>
        <time>2021-04-13T09:56:01Z</time>
      </trkpt>
      <trkpt lat="43.57443" lon="3.82826">
        <ele>46.2</ele>
        <time>2021-04-13T09:56:02Z</time>
      </trkpt>
      <trkpt lat="43.5744" lon="3.82823">
        <ele>46.2</ele>
        <time>2021-04-13T09:56:03Z</time>
      </trkpt>
      <trkpt lat="43.57437" lon="3.82819">
        <ele>46.4</ele>
        <time>2021-04-13T09:56:04Z</time>
      </trkpt>
      <trkpt lat="43.57434" lon="3.82816">
        <ele>46.4</ele>
        <time>2021-04-13T09:56:05Z</time>
      </trkpt>
      <trkpt lat="43.57431" lon="3.82813">
        <ele>46.6</ele>
        <time>2021-04-13T09:56:06Z</time>
      </trkpt>
      <trkpt lat="43.57429" lon="3.8281">
        <ele>46.8</ele>
        <time>2021-04-13T09:56:07Z</time>
      </trkpt>
      <trkpt lat="43.57426" lon="3.82806">
        <ele>46.6</ele>
        <time>2021-04-13T09:56:08Z</time>
      </trkpt>
      <trkpt lat="43.57423" lon="3.82801">
        <ele>46.6</ele>
        <time>2021-04-13T09:56:09Z</time>
      </trkpt>
      <trkpt lat="43.57421" lon="3.82797">
        <ele>46.8</ele>
        <time>2021-04-13T09:56:10Z</time>
      </trkpt>
      <trkpt lat="43.57419" lon="3.82793">
        <ele>46.8</ele>
        <time>2021-04-13T09:56:11Z</time>
      </trkpt>
      <trkpt lat="43.57416" lon="3.82789">
        <ele>46.8</ele>
        <time>2021-04-13T09:56:12Z</time>
      </trkpt>
      <trkpt lat="43.57413" lon="3.82785">
        <ele>47</ele>
        <time>2021-04-13T09:56:13Z</time>
      </trkpt>
      <trkpt lat="43.5741" lon="3.82782">
        <ele>47.2</ele>
        <time>2021-04-13T09:56:14Z</time>
      </trkpt>
      <trkpt lat="43.57408" lon="3.82779">
        <ele>47.2</ele>
        <time>2021-04-13T09:56:15Z</time>
      </trkpt>
      <trkpt lat="43.57405" lon="3.82775">
        <ele>47.2</ele>
        <time>2021-04-13T09:56:16Z</time>
      </trkpt>
      <trkpt lat="43.57403" lon="3.82772">
        <ele>47</ele>
        <time>2021-04-13T09:56:17Z</time>
      </trkpt>
      <trkpt lat="43.57401" lon="3.82769">
        <ele>47</ele>
        <time>2021-04-13T09:56:18Z</time>
      </trkpt>
      <trkpt lat="43.57398" lon="3.82765">
        <ele>47</ele>
        <time>2021-04-13T09:56:19Z</time>
      </trkpt>
      <trkpt lat="43.57395" lon="3.82762">
        <ele>47</ele>
        <time>2021-04-13T09:56:20Z</time>
      </trkpt>
      <trkpt lat="43.57392" lon="3.82759">
        <ele>47</ele>
        <time>2021-04-13T09:56:21Z</time>
      </trkpt>
      <trkpt lat="43.57388" lon="3.82755">
        <ele>46.8</ele>
        <time>2021-04-13T09:56:22Z</time>
      </trkpt>
      <trkpt lat="43.57384" lon="3.82751">
        <ele>47</ele>
        <time>2021-04-13T09:56:23Z</time>
      </trkpt>
      <trkpt lat="43.5738" lon="3.82748">
        <ele>47</ele>
        <time>2021-04-13T09:56:24Z</time>
      </trkpt>
      <trkpt lat="43.57376" lon="3.82744">
        <ele>47</ele>
        <time>2021-04-13T09:56:25Z</time>
      </trkpt>
      <trkpt lat="43.57372" lon="3.82742">
        <ele>47</ele>
        <time>2021-04-13T09:56:26Z</time>
      </trkpt>
      <trkpt lat="43.57367" lon="3.82739">
        <ele>47.2</ele>
        <time>2021-04-13T09:56:27Z</time>
      </trkpt>
      <trkpt lat="43.57363" lon="3.82737">
        <ele>47.2</ele>
        <time>2021-04-13T09:56:28Z</time>
      </trkpt>
      <trkpt lat="43.57359" lon="3.82735">
        <ele>47.2</ele>
        <time>2021-04-13T09:56:29Z</time>
      </trkpt>
      <trkpt lat="43.57354" lon="3.82733">
        <ele>47.4</ele>
        <time>2021-04-13T09:56:30Z</time>
      </trkpt>
      <trkpt lat="43.5735" lon="3.82731">
        <ele>47.4</ele>
        <time>2021-04-13T09:56:31Z</time>
      </trkpt>
      <trkpt lat="43.57346" lon="3.82729">
        <ele>47.6</ele>
        <time>2021-04-13T09:56:32Z</time>
      </trkpt>
      <trkpt lat="43.57342" lon="3.82726">
        <ele>47.8</ele>
        <time>2021-04-13T09:56:33Z</time>
      </trkpt>
      <trkpt lat="43.57338" lon="3.82724">
        <ele>47.8</ele>
        <time>2021-04-13T09:56:34Z</time>
      </trkpt>
      <trkpt lat="43.57334" lon="3.82723">
        <ele>48</ele>
        <time>2021-04-13T09:56:35Z</time>
      </trkpt>
      <trkpt lat="43.5733" lon="3.82721">
        <ele>48.2</ele>
        <time>2021-04-13T09:56:36Z</time>
      </trkpt>
      <trkpt lat="43.57326" lon="3.82718">
        <ele>48.2</ele>
        <time>2021-04-13T09:56:37Z</time>
      </trkpt>
      <trkpt lat="43.57323" lon="3.82716">
        <ele>48.2</ele>
        <time>2021-04-13T09:56:38Z</time>
      </trkpt>
      <trkpt lat="43.57319" lon="3.82714">
        <ele>48.4</ele>
        <time>2021-04-13T09:56:39Z</time>
      </trkpt>
      <trkpt lat="43.57315" lon="3.82713">
        <ele>48.6</ele>
        <time>2021-04-13T09:56:40Z</time>
      </trkpt>
      <trkpt lat="43.57311" lon="3.8271">
        <ele>48.6</ele>
        <time>2021-04-13T09:56:41Z</time>
      </trkpt>
      <trkpt lat="43.57308" lon="3.82708">
        <ele>48.6</ele>
        <time>2021-04-13T09:56:42Z</time>
      </trkpt>
      <trkpt lat="43.57304" lon="3.82706">
        <ele>48.8</ele>
        <time>2021-04-13T09:56:43Z</time>
      </trkpt>
      <trkpt lat="43.57301" lon="3.82703">
        <ele>48.8</ele>
        <time>2021-04-13T09:56:44Z</time>
      </trkpt>
      <trkpt lat="43.57297" lon="3.82701">
        <ele>48.8</ele>
        <time>2021-04-13T09:56:45Z</time>
      </trkpt>
      <trkpt lat="43.57293" lon="3.82699">
        <ele>48.6</ele>
        <time>2021-04-13T09:56:46Z</time>
      </trkpt>
      <trkpt lat="43.57289" lon="3.82697">
        <ele>48.8</ele>
        <time>2021-04-13T09:56:47Z</time>
      </trkpt>
      <trkpt lat="43.57284" lon="3.82694">
        <ele>48.4</ele>
        <time>2021-04-13T09:56:48Z</time>
      </trkpt>
      <trkpt lat="43.5728" lon="3.82691">
        <ele>48.2</ele>
        <time>2021-04-13T09:56:49Z</time>
      </trkpt>
      <trkpt lat="43.57275" lon="3.82688">
        <ele>48</ele>
        <time>2021-04-13T09:56:50Z</time>
      </trkpt>
      <trkpt lat="43.57271" lon="3.82685">
        <ele>47.6</ele>
        <time>2021-04-13T09:56:51Z</time>
      </trkpt>
      <trkpt lat="43.57266" lon="3.82682">
        <ele>47.4</ele>
        <time>2021-04-13T09:56:52Z</time>
      </trkpt>
      <trkpt lat="43.5726" lon="3.82679">
        <ele>47.2</ele>
        <time>2021-04-13T09:56:53Z</time>
      </trkpt>
      <trkpt lat="43.57255" lon="3.82676">
        <ele>47</ele>
        <time>2021-04-13T09:56:54Z</time>
      </trkpt>
      <trkpt lat="43.57249" lon="3.82673">
        <ele>46.6</ele>
        <time>2021-04-13T09:56:55Z</time>
      </trkpt>
      <trkpt lat="43.57242" lon="3.8267">
        <ele>46.2</ele>
        <time>2021-04-13T09:56:56Z</time>
      </trkpt>
      <trkpt lat="43.57236" lon="3.82668">
        <ele>45.8</ele>
        <time>2021-04-13T09:56:57Z</time>
      </trkpt>
      <trkpt lat="43.57229" lon="3.82666">
        <ele>45.4</ele>
        <time>2021-04-13T09:56:58Z</time>
      </trkpt>
      <trkpt lat="43.57223" lon="3.82664">
        <ele>45.2</ele>
        <time>2021-04-13T09:56:59Z</time>
      </trkpt>
      <trkpt lat="43.57216" lon="3.82662">
        <ele>45.2</ele>
        <time>2021-04-13T09:57:00Z</time>
      </trkpt>
      <trkpt lat="43.57209" lon="3.8266">
        <ele>44.8</ele>
        <time>2021-04-13T09:57:01Z</time>
      </trkpt>
      <trkpt lat="43.57202" lon="3.82659">
        <ele>44.4</ele>
        <time>2021-04-13T09:57:02Z</time>
      </trkpt>
      <trkpt lat="43.57195" lon="3.82657">
        <ele>44.2</ele>
        <time>2021-04-13T09:57:03Z</time>
      </trkpt>
      <trkpt lat="43.57188" lon="3.82656">
        <ele>44</ele>
        <time>2021-04-13T09:57:04Z</time>
      </trkpt>
      <trkpt lat="43.5718" lon="3.82654">
        <ele>43.6</ele>
        <time>2021-04-13T09:57:05Z</time>
      </trkpt>
      <trkpt lat="43.57173" lon="3.82653">
        <ele>43.4</ele>
        <time>2021-04-13T09:57:06Z</time>
      </trkpt>
      <trkpt lat="43.57166" lon="3.82651">
        <ele>43.2</ele>
        <time>2021-04-13T09:57:07Z</time>
      </trkpt>
      <trkpt lat="43.57159" lon="3.82649">
        <ele>43</ele>
        <time>2021-04-13T09:57:08Z</time>
      </trkpt>
      <trkpt lat="43.57152" lon="3.82646">
        <ele>43.2</ele>
        <time>2021-04-13T09:57:09Z</time>
      </trkpt>
      <trkpt lat="43.57146" lon="3.82642">
        <ele>43.2</ele>
        <time>2021-04-13T09:57:10Z</time>
      </trkpt>
      <trkpt lat="43.5714" lon="3.82638">
        <ele>43</ele>
        <time>2021-04-13T09:57:11Z</time>
      </trkpt>
      <trkpt lat="43.57135" lon="3.82633">
        <ele>43</ele>
        <time>2021-04-13T09:57:12Z</time>
      </trkpt>
      <trkpt lat="43.5713" lon="3.82627">
        <ele>43</ele>
        <time>2021-04-13T09:57:13Z</time>
      </trkpt>
      <trkpt lat="43.57126" lon="3.82622">
        <ele>43</ele>
        <time>2021-04-13T09:57:14Z</time>
      </trkpt>
      <trkpt lat="43.57121" lon="3.82617">
        <ele>43.2</ele>
        <time>2021-04-13T09:57:15Z</time>
      </trkpt>
      <trkpt lat="43.57116" lon="3.82612">
        <ele>43.2</ele>
        <time>2021-04-13T09:57:16Z</time>
      </trkpt>
      <trkpt lat="43.57112" lon="3.82606">
        <ele>43.2</ele>
        <time>2021-04-13T09:57:17Z</time>
      </trkpt>
      <trkpt lat="43.57108" lon="3.82601">
        <ele>43.2</ele>
        <time>2021-04-13T09:57:18Z</time>
      </trkpt>
      <trkpt lat="43.57103" lon="3.82595">
        <ele>43.2</ele>
        <time>2021-04-13T09:57:19Z</time>
      </trkpt>
      <trkpt lat="43.57099" lon="3.82589">
        <ele>43.4</ele>
        <time>2021-04-13T09:57:20Z</time>
      </trkpt>
      <trkpt lat="43.57094" lon="3.82584">
        <ele>43.4</ele>
        <time>2021-04-13T09:57:21Z</time>
      </trkpt>
      <trkpt lat="43.5709" lon="3.82578">
        <ele>43.8</ele>
        <time>2021-04-13T09:57:22Z</time>
      </trkpt>
      <trkpt lat="43.57085" lon="3.82572">
        <ele>43.8</ele>
        <time>2021-04-13T09:57:23Z</time>
      </trkpt>
      <trkpt lat="43.57081" lon="3.82566">
        <ele>43.8</ele>
        <time>2021-04-13T09:57:24Z</time>
      </trkpt>
      <trkpt lat="43.57076" lon="3.8256">
        <ele>44</ele>
        <time>2021-04-13T09:57:25Z</time>
      </trkpt>
      <trkpt lat="43.57072" lon="3.82554">
        <ele>44.2</ele>
        <time>2021-04-13T09:57:26Z</time>
      </trkpt>
      <trkpt lat="43.57067" lon="3.82549">
        <ele>44.4</ele>
        <time>2021-04-13T09:57:27Z</time>
      </trkpt>
      <trkpt lat="43.57063" lon="3.82543">
        <ele>44.6</ele>
        <time>2021-04-13T09:57:28Z</time>
      </trkpt>
      <trkpt lat="43.57059" lon="3.82537">
        <ele>44.8</ele>
        <time>2021-04-13T09:57:29Z</time>
      </trkpt>
      <trkpt lat="43.57054" lon="3.82532">
        <ele>45.2</ele>
        <time>2021-04-13T09:57:30Z</time>
      </trkpt>
      <trkpt lat="43.57049" lon="3.82527">
        <ele>45.2</ele>
        <time>2021-04-13T09:57:31Z</time>
      </trkpt>
      <trkpt lat="43.57045" lon="3.82521">
        <ele>45.4</ele>
        <time>2021-04-13T09:57:32Z</time>
      </trkpt>
      <trkpt lat="43.5704" lon="3.82516">
        <ele>45.6</ele>
        <time>2021-04-13T09:57:33Z</time>
      </trkpt>
      <trkpt lat="43.57036" lon="3.82511">
        <ele>45.8</ele>
        <time>2021-04-13T09:57:34Z</time>
      </trkpt>
      <trkpt lat="43.57031" lon="3.82507">
        <ele>46</ele>
        <time>2021-04-13T09:57:35Z</time>
      </trkpt>
      <trkpt lat="43.57026" lon="3.82503">
        <ele>46.2</ele>
        <time>2021-04-13T09:57:36Z</time>
      </trkpt>
      <trkpt lat="43.57022" lon="3.82498">
        <ele>46.4</ele>
        <time>2021-04-13T09:57:37Z</time>
      </trkpt>
      <trkpt lat="43.57018" lon="3.82493">
        <ele>46.8</ele>
        <time>2021-04-13T09:57:38Z</time>
      </trkpt>
      <trkpt lat="43.57013" lon="3.82491">
        <ele>47</ele>
        <time>2021-04-13T09:57:39Z</time>
      </trkpt>
      <trkpt lat="43.57008" lon="3.82491">
        <ele>47.4</ele>
        <time>2021-04-13T09:57:40Z</time>
      </trkpt>
      <trkpt lat="43.57004" lon="3.82494">
        <ele>47.8</ele>
        <time>2021-04-13T09:57:41Z</time>
      </trkpt>
      <trkpt lat="43.57001" lon="3.82497">
        <ele>48</ele>
        <time>2021-04-13T09:57:42Z</time>
      </trkpt>
      <trkpt lat="43.56999" lon="3.82502">
        <ele>48</ele>
        <time>2021-04-13T09:57:43Z</time>
      </trkpt>
      <trkpt lat="43.56997" lon="3.82509">
        <ele>47.8</ele>
        <time>2021-04-13T09:57:44Z</time>
      </trkpt>
      <trkpt lat="43.56995" lon="3.82515">
        <ele>48</ele>
        <time>2021-04-13T09:57:45Z</time>
      </trkpt>
      <trkpt lat="43.56993" lon="3.82522">
        <ele>48</ele>
        <time>2021-04-13T09:57:46Z</time>
      </trkpt>
      <trkpt lat="43.56991" lon="3.82528">
        <ele>48</ele>
        <time>2021-04-13T09:57:47Z</time>
      </trkpt>
      <trkpt lat="43.56988" lon="3.82534">
        <ele>48</ele>
        <time>2021-04-13T09:57:48Z</time>
      </trkpt>
      <trkpt lat="43.56986" lon="3.8254">
        <ele>48</ele>
        <time>2021-04-13T09:57:49Z</time>
      </trkpt>
      <trkpt lat="43.56983" lon="3.82546">
        <ele>48</ele>
        <time>2021-04-13T09:57:50Z</time>
      </trkpt>
      <trkpt lat="43.56981" lon="3.82553">
        <ele>48.2</ele>
        <time>2021-04-13T09:57:51Z</time>
      </trkpt>
      <trkpt lat="43.56978" lon="3.82558">
        <ele>48.4</ele>
        <time>2021-04-13T09:57:52Z</time>
      </trkpt>
      <trkpt lat="43.56976" lon="3.82564">
        <ele>48.6</ele>
        <time>2021-04-13T09:57:53Z</time>
      </trkpt>
      <trkpt lat="43.56974" lon="3.8257">
        <ele>48.6</ele>
        <time>2021-04-13T09:57:54Z</time>
      </trkpt>
      <trkpt lat="43.56971" lon="3.82576">
        <ele>48.6</ele>
        <time>2021-04-13T09:57:55Z</time>
      </trkpt>
      <trkpt lat="43.56969" lon="3.82582">
        <ele>48.6</ele>
        <time>2021-04-13T09:57:56Z</time>
      </trkpt>
      <trkpt lat="43.56966" lon="3.82587">
        <ele>48.6</ele>
        <time>2021-04-13T09:57:57Z</time>
      </trkpt>
      <trkpt lat="43.56963" lon="3.82593">
        <ele>48.4</ele>
        <time>2021-04-13T09:57:58Z</time>
      </trkpt>
      <trkpt lat="43.56961" lon="3.82599">
        <ele>48.2</ele>
        <time>2021-04-13T09:57:59Z</time>
      </trkpt>
      <trkpt lat="43.56958" lon="3.82604">
        <ele>48.2</ele>
        <time>2021-04-13T09:58:00Z</time>
      </trkpt>
      <trkpt lat="43.56954" lon="3.8261">
        <ele>48.2</ele>
        <time>2021-04-13T09:58:01Z</time>
      </trkpt>
      <trkpt lat="43.56951" lon="3.82616">
        <ele>48.2</ele>
        <time>2021-04-13T09:58:02Z</time>
      </trkpt>
      <trkpt lat="43.56948" lon="3.82622">
        <ele>48.4</ele>
        <time>2021-04-13T09:58:03Z</time>
      </trkpt>
      <trkpt lat="43.56945" lon="3.82628">
        <ele>48.2</ele>
        <time>2021-04-13T09:58:04Z</time>
      </trkpt>
      <trkpt lat="43.56942" lon="3.82634">
        <ele>48</ele>
        <time>2021-04-13T09:58:05Z</time>
      </trkpt>
      <trkpt lat="43.56939" lon="3.8264">
        <ele>48</ele>
        <time>2021-04-13T09:58:06Z</time>
      </trkpt>
      <trkpt lat="43.56936" lon="3.82646">
        <ele>48</ele>
        <time>2021-04-13T09:58:07Z</time>
      </trkpt>
      <trkpt lat="43.56932" lon="3.82653">
        <ele>48</ele>
        <time>2021-04-13T09:58:08Z</time>
      </trkpt>
      <trkpt lat="43.56929" lon="3.82659">
        <ele>48</ele>
        <time>2021-04-13T09:58:09Z</time>
      </trkpt>
      <trkpt lat="43.56926" lon="3.82666">
        <ele>47.4</ele>
        <time>2021-04-13T09:58:10Z</time>
      </trkpt>
      <trkpt lat="43.56923" lon="3.82673">
        <ele>47.2</ele>
        <time>2021-04-13T09:58:11Z</time>
      </trkpt>
      <trkpt lat="43.56919" lon="3.8268">
        <ele>47</ele>
        <time>2021-04-13T09:58:12Z</time>
      </trkpt>
      <trkpt lat="43.56915" lon="3.82688">
        <ele>46.8</ele>
        <time>2021-04-13T09:58:13Z</time>
      </trkpt>
      <trkpt lat="43.56911" lon="3.82695">
        <ele>46.6</ele>
        <time>2021-04-13T09:58:14Z</time>
      </trkpt>
      <trkpt lat="43.56907" lon="3.82703">
        <ele>46.4</ele>
        <time>2021-04-13T09:58:15Z</time>
      </trkpt>
      <trkpt lat="43.56903" lon="3.8271">
        <ele>46.6</ele>
        <time>2021-04-13T09:58:16Z</time>
      </trkpt>
      <trkpt lat="43.56899" lon="3.82717">
        <ele>46.4</ele>
        <time>2021-04-13T09:58:17Z</time>
      </trkpt>
      <trkpt lat="43.56895" lon="3.82724">
        <ele>46.6</ele>
        <time>2021-04-13T09:58:18Z</time>
      </trkpt>
      <trkpt lat="43.56891" lon="3.82731">
        <ele>46.6</ele>
        <time>2021-04-13T09:58:19Z</time>
      </trkpt>
      <trkpt lat="43.56888" lon="3.82738">
        <ele>46.8</ele>
        <time>2021-04-13T09:58:20Z</time>
      </trkpt>
      <trkpt lat="43.56884" lon="3.82744">
        <ele>47</ele>
        <time>2021-04-13T09:58:21Z</time>
      </trkpt>
      <trkpt lat="43.56881" lon="3.8275">
        <ele>47</ele>
        <time>2021-04-13T09:58:22Z</time>
      </trkpt>
      <trkpt lat="43.56878" lon="3.82757">
        <ele>47.2</ele>
        <time>2021-04-13T09:58:23Z</time>
      </trkpt>
      <trkpt lat="43.56876" lon="3.82764">
        <ele>47</ele>
        <time>2021-04-13T09:58:24Z</time>
      </trkpt>
      <trkpt lat="43.56873" lon="3.8277">
        <ele>46.8</ele>
        <time>2021-04-13T09:58:25Z</time>
      </trkpt>
      <trkpt lat="43.56871" lon="3.82777">
        <ele>46.8</ele>
        <time>2021-04-13T09:58:26Z</time>
      </trkpt>
      <trkpt lat="43.56868" lon="3.82783">
        <ele>46.6</ele>
        <time>2021-04-13T09:58:27Z</time>
      </trkpt>
      <trkpt lat="43.56864" lon="3.82789">
        <ele>46.4</ele>
        <time>2021-04-13T09:58:28Z</time>
      </trkpt>
      <trkpt lat="43.56861" lon="3.82795">
        <ele>46.4</ele>
        <time>2021-04-13T09:58:29Z</time>
      </trkpt>
      <trkpt lat="43.56858" lon="3.828">
        <ele>46.4</ele>
        <time>2021-04-13T09:58:30Z</time>
      </trkpt>
      <trkpt lat="43.56855" lon="3.82805">
        <ele>46.8</ele>
        <time>2021-04-13T09:58:31Z</time>
      </trkpt>
      <trkpt lat="43.56852" lon="3.8281">
        <ele>47</ele>
        <time>2021-04-13T09:58:32Z</time>
      </trkpt>
      <trkpt lat="43.56849" lon="3.82816">
        <ele>47.2</ele>
        <time>2021-04-13T09:58:33Z</time>
      </trkpt>
      <trkpt lat="43.56847" lon="3.82821">
        <ele>47.4</ele>
        <time>2021-04-13T09:58:34Z</time>
      </trkpt>
      <trkpt lat="43.56845" lon="3.82827">
        <ele>47.2</ele>
        <time>2021-04-13T09:58:35Z</time>
      </trkpt>
      <trkpt lat="43.56843" lon="3.82833">
        <ele>47.2</ele>
        <time>2021-04-13T09:58:36Z</time>
      </trkpt>
      <trkpt lat="43.56841" lon="3.82838">
        <ele>47.4</ele>
        <time>2021-04-13T09:58:37Z</time>
      </trkpt>
      <trkpt lat="43.56839" lon="3.82843">
        <ele>47.8</ele>
        <time>2021-04-13T09:58:38Z</time>
      </trkpt>
    </trkseg>
  </trk>
</gpx>